<?xml version="1.0" encoding="UTF-8" standalone="no" ?>
<gpx xmlns="http://www.topografix.com/GPX/1/1" xmlns:xsi="http://www.w3.org/2001/XMLSchema-instance" xsi:schemaLocation="http://www.topografix.com/GPX/1/1 http://www.topografix.com/GPX/1/1/gpx.xsd" version="1.1" creator="VisuGPX - https://www.visugpx.com">
  <metadata>
    <name>2018-05-09 Bike ride-Georges de Reneins O v50k</name>
    <desc><![CDATA[2018-05-09 Bike ride-Georges de Reneins O v50k]]></desc>
  </metadata>
  <wpt lat="45.92463" lon="4.73715">
    <ele>174</ele>
    <name><![CDATA[2018-05-09 10:24 (Start)]]></name>
  </wpt>
  <wpt lat="45.92459" lon="4.73706">
    <ele>174</ele>
    <name><![CDATA[2018-05-09 10:24 (End)]]></name>
  </wpt>
  <trk>
    <name><![CDATA[2018-05-09 10:24]]></name>
    <trkseg>
      <trkpt lat="45.92463" lon="4.73715">
        <ele>174</ele>
        <time>2018-05-09T08:24:09.47Z</time>
      </trkpt>
      <trkpt lat="45.92461" lon="4.73715">
        <ele>174</ele>
        <time>2018-05-09T08:24:30Z</time>
      </trkpt>
      <trkpt lat="45.92461" lon="4.73715">
        <ele>174</ele>
        <time>2018-05-09T08:24:31Z</time>
      </trkpt>
      <trkpt lat="45.92461" lon="4.73715">
        <ele>174</ele>
        <time>2018-05-09T08:24:32Z</time>
      </trkpt>
      <trkpt lat="45.92468" lon="4.73708">
        <ele>174</ele>
        <time>2018-05-09T08:24:38Z</time>
      </trkpt>
      <trkpt lat="45.92469" lon="4.73706">
        <ele>174</ele>
        <time>2018-05-09T08:24:39Z</time>
      </trkpt>
      <trkpt lat="45.92472" lon="4.73694">
        <ele>174</ele>
        <time>2018-05-09T08:24:42Z</time>
      </trkpt>
      <trkpt lat="45.92473" lon="4.7368">
        <ele>174</ele>
        <time>2018-05-09T08:24:43Z</time>
      </trkpt>
      <trkpt lat="45.92474" lon="4.73668">
        <ele>174</ele>
        <time>2018-05-09T08:24:45Z</time>
      </trkpt>
      <trkpt lat="45.92474" lon="4.73666">
        <ele>174</ele>
        <time>2018-05-09T08:24:46Z</time>
      </trkpt>
      <trkpt lat="45.92476" lon="4.73658">
        <ele>174</ele>
        <time>2018-05-09T08:24:47Z</time>
      </trkpt>
      <trkpt lat="45.92476" lon="4.73651">
        <ele>174</ele>
        <time>2018-05-09T08:24:48Z</time>
      </trkpt>
      <trkpt lat="45.92477" lon="4.73639">
        <ele>174</ele>
        <time>2018-05-09T08:24:50Z</time>
      </trkpt>
      <trkpt lat="45.92475" lon="4.73631">
        <ele>174</ele>
        <time>2018-05-09T08:24:51Z</time>
      </trkpt>
      <trkpt lat="45.92473" lon="4.73624">
        <ele>174</ele>
        <time>2018-05-09T08:24:52Z</time>
      </trkpt>
      <trkpt lat="45.92473" lon="4.73617">
        <ele>174</ele>
        <time>2018-05-09T08:24:53Z</time>
      </trkpt>
      <trkpt lat="45.92473" lon="4.7361">
        <ele>174</ele>
        <time>2018-05-09T08:24:54Z</time>
      </trkpt>
      <trkpt lat="45.92473" lon="4.73604">
        <ele>174</ele>
        <time>2018-05-09T08:24:55Z</time>
      </trkpt>
      <trkpt lat="45.92472" lon="4.73596">
        <ele>174</ele>
        <time>2018-05-09T08:24:56Z</time>
      </trkpt>
      <trkpt lat="45.92472" lon="4.73589">
        <ele>174</ele>
        <time>2018-05-09T08:24:57Z</time>
      </trkpt>
      <trkpt lat="45.92471" lon="4.73581">
        <ele>173</ele>
        <time>2018-05-09T08:24:58Z</time>
      </trkpt>
      <trkpt lat="45.92471" lon="4.73575">
        <ele>173</ele>
        <time>2018-05-09T08:24:59Z</time>
      </trkpt>
      <trkpt lat="45.9247" lon="4.73562">
        <ele>173</ele>
        <time>2018-05-09T08:25:01Z</time>
      </trkpt>
      <trkpt lat="45.9247" lon="4.7356">
        <ele>173</ele>
        <time>2018-05-09T08:25:02Z</time>
      </trkpt>
      <trkpt lat="45.92472" lon="4.73548">
        <ele>173</ele>
        <time>2018-05-09T08:25:04Z</time>
      </trkpt>
      <trkpt lat="45.92472" lon="4.73545">
        <ele>173</ele>
        <time>2018-05-09T08:25:05Z</time>
      </trkpt>
      <trkpt lat="45.92472" lon="4.73536">
        <ele>174</ele>
        <time>2018-05-09T08:25:06Z</time>
      </trkpt>
      <trkpt lat="45.92473" lon="4.7353">
        <ele>174</ele>
        <time>2018-05-09T08:25:07Z</time>
      </trkpt>
      <trkpt lat="45.92474" lon="4.73523">
        <ele>174</ele>
        <time>2018-05-09T08:25:08Z</time>
      </trkpt>
      <trkpt lat="45.92473" lon="4.73515">
        <ele>174</ele>
        <time>2018-05-09T08:25:09Z</time>
      </trkpt>
      <trkpt lat="45.92473" lon="4.73508">
        <ele>174</ele>
        <time>2018-05-09T08:25:10Z</time>
      </trkpt>
      <trkpt lat="45.92473" lon="4.735">
        <ele>174</ele>
        <time>2018-05-09T08:25:11Z</time>
      </trkpt>
      <trkpt lat="45.92474" lon="4.73492">
        <ele>173</ele>
        <time>2018-05-09T08:25:12Z</time>
      </trkpt>
      <trkpt lat="45.92473" lon="4.73483">
        <ele>173</ele>
        <time>2018-05-09T08:25:13Z</time>
      </trkpt>
      <trkpt lat="45.92473" lon="4.73475">
        <ele>173</ele>
        <time>2018-05-09T08:25:14Z</time>
      </trkpt>
      <trkpt lat="45.92472" lon="4.73468">
        <ele>173</ele>
        <time>2018-05-09T08:25:15Z</time>
      </trkpt>
      <trkpt lat="45.92472" lon="4.7346">
        <ele>173</ele>
        <time>2018-05-09T08:25:16Z</time>
      </trkpt>
      <trkpt lat="45.92469" lon="4.73452">
        <ele>173</ele>
        <time>2018-05-09T08:25:17Z</time>
      </trkpt>
      <trkpt lat="45.92467" lon="4.73443">
        <ele>173</ele>
        <time>2018-05-09T08:25:18Z</time>
      </trkpt>
      <trkpt lat="45.92464" lon="4.73437">
        <ele>173</ele>
        <time>2018-05-09T08:25:19Z</time>
      </trkpt>
      <trkpt lat="45.9246" lon="4.73431">
        <ele>173</ele>
        <time>2018-05-09T08:25:20Z</time>
      </trkpt>
      <trkpt lat="45.92457" lon="4.73428">
        <ele>173</ele>
        <time>2018-05-09T08:25:21Z</time>
      </trkpt>
      <trkpt lat="45.92451" lon="4.73425">
        <ele>173</ele>
        <time>2018-05-09T08:25:22Z</time>
      </trkpt>
      <trkpt lat="45.92446" lon="4.73421">
        <ele>173</ele>
        <time>2018-05-09T08:25:23Z</time>
      </trkpt>
      <trkpt lat="45.9244" lon="4.73417">
        <ele>173</ele>
        <time>2018-05-09T08:25:24Z</time>
      </trkpt>
      <trkpt lat="45.92436" lon="4.73412">
        <ele>172</ele>
        <time>2018-05-09T08:25:25Z</time>
      </trkpt>
      <trkpt lat="45.92432" lon="4.73405">
        <ele>172</ele>
        <time>2018-05-09T08:25:26Z</time>
      </trkpt>
      <trkpt lat="45.9243" lon="4.73398">
        <ele>172</ele>
        <time>2018-05-09T08:25:27Z</time>
      </trkpt>
      <trkpt lat="45.92428" lon="4.73389">
        <ele>172</ele>
        <time>2018-05-09T08:25:28Z</time>
      </trkpt>
      <trkpt lat="45.92425" lon="4.73382">
        <ele>172</ele>
        <time>2018-05-09T08:25:29Z</time>
      </trkpt>
      <trkpt lat="45.92425" lon="4.73374">
        <ele>172</ele>
        <time>2018-05-09T08:25:30Z</time>
      </trkpt>
      <trkpt lat="45.92424" lon="4.73366">
        <ele>172</ele>
        <time>2018-05-09T08:25:31Z</time>
      </trkpt>
      <trkpt lat="45.92423" lon="4.73359">
        <ele>171</ele>
        <time>2018-05-09T08:25:32Z</time>
      </trkpt>
      <trkpt lat="45.92422" lon="4.7335">
        <ele>171</ele>
        <time>2018-05-09T08:25:33Z</time>
      </trkpt>
      <trkpt lat="45.92421" lon="4.73341">
        <ele>171</ele>
        <time>2018-05-09T08:25:34Z</time>
      </trkpt>
      <trkpt lat="45.9242" lon="4.73333">
        <ele>171</ele>
        <time>2018-05-09T08:25:35Z</time>
      </trkpt>
      <trkpt lat="45.9242" lon="4.73326">
        <ele>171</ele>
        <time>2018-05-09T08:25:36Z</time>
      </trkpt>
      <trkpt lat="45.92419" lon="4.73317">
        <ele>171</ele>
        <time>2018-05-09T08:25:37Z</time>
      </trkpt>
      <trkpt lat="45.92419" lon="4.7331">
        <ele>171</ele>
        <time>2018-05-09T08:25:38Z</time>
      </trkpt>
      <trkpt lat="45.92418" lon="4.73302">
        <ele>171</ele>
        <time>2018-05-09T08:25:39Z</time>
      </trkpt>
      <trkpt lat="45.92417" lon="4.73293">
        <ele>171</ele>
        <time>2018-05-09T08:25:40Z</time>
      </trkpt>
      <trkpt lat="45.92416" lon="4.73285">
        <ele>171</ele>
        <time>2018-05-09T08:25:41Z</time>
      </trkpt>
      <trkpt lat="45.92416" lon="4.73277">
        <ele>171</ele>
        <time>2018-05-09T08:25:42Z</time>
      </trkpt>
      <trkpt lat="45.92415" lon="4.7327">
        <ele>171</ele>
        <time>2018-05-09T08:25:43Z</time>
      </trkpt>
      <trkpt lat="45.92415" lon="4.73262">
        <ele>171</ele>
        <time>2018-05-09T08:25:44Z</time>
      </trkpt>
      <trkpt lat="45.92414" lon="4.73255">
        <ele>171</ele>
        <time>2018-05-09T08:25:45Z</time>
      </trkpt>
      <trkpt lat="45.92413" lon="4.73246">
        <ele>171</ele>
        <time>2018-05-09T08:25:46Z</time>
      </trkpt>
      <trkpt lat="45.92413" lon="4.73239">
        <ele>171</ele>
        <time>2018-05-09T08:25:47Z</time>
      </trkpt>
      <trkpt lat="45.92413" lon="4.73231">
        <ele>171</ele>
        <time>2018-05-09T08:25:48Z</time>
      </trkpt>
      <trkpt lat="45.92412" lon="4.73223">
        <ele>171</ele>
        <time>2018-05-09T08:25:49Z</time>
      </trkpt>
      <trkpt lat="45.92412" lon="4.73215">
        <ele>171</ele>
        <time>2018-05-09T08:25:50Z</time>
      </trkpt>
      <trkpt lat="45.92412" lon="4.73208">
        <ele>171</ele>
        <time>2018-05-09T08:25:51Z</time>
      </trkpt>
      <trkpt lat="45.92413" lon="4.73201">
        <ele>171</ele>
        <time>2018-05-09T08:25:52Z</time>
      </trkpt>
      <trkpt lat="45.92413" lon="4.73193">
        <ele>171</ele>
        <time>2018-05-09T08:25:53Z</time>
      </trkpt>
      <trkpt lat="45.92412" lon="4.73185">
        <ele>171</ele>
        <time>2018-05-09T08:25:54Z</time>
      </trkpt>
      <trkpt lat="45.92412" lon="4.73178">
        <ele>170</ele>
        <time>2018-05-09T08:25:55Z</time>
      </trkpt>
      <trkpt lat="45.92413" lon="4.73171">
        <ele>170</ele>
        <time>2018-05-09T08:25:56Z</time>
      </trkpt>
      <trkpt lat="45.92413" lon="4.73163">
        <ele>170</ele>
        <time>2018-05-09T08:25:57Z</time>
      </trkpt>
      <trkpt lat="45.92412" lon="4.73157">
        <ele>170</ele>
        <time>2018-05-09T08:25:58Z</time>
      </trkpt>
      <trkpt lat="45.92412" lon="4.7315">
        <ele>171</ele>
        <time>2018-05-09T08:25:59Z</time>
      </trkpt>
      <trkpt lat="45.92413" lon="4.73144">
        <ele>171</ele>
        <time>2018-05-09T08:26:00Z</time>
      </trkpt>
      <trkpt lat="45.92414" lon="4.73137">
        <ele>171</ele>
        <time>2018-05-09T08:26:01Z</time>
      </trkpt>
      <trkpt lat="45.92415" lon="4.7313">
        <ele>171</ele>
        <time>2018-05-09T08:26:02Z</time>
      </trkpt>
      <trkpt lat="45.92415" lon="4.73122">
        <ele>171</ele>
        <time>2018-05-09T08:26:03Z</time>
      </trkpt>
      <trkpt lat="45.92418" lon="4.73117">
        <ele>170</ele>
        <time>2018-05-09T08:26:04Z</time>
      </trkpt>
      <trkpt lat="45.92421" lon="4.73112">
        <ele>170</ele>
        <time>2018-05-09T08:26:05Z</time>
      </trkpt>
      <trkpt lat="45.92426" lon="4.73109">
        <ele>170</ele>
        <time>2018-05-09T08:26:06Z</time>
      </trkpt>
      <trkpt lat="45.9243" lon="4.73106">
        <ele>170</ele>
        <time>2018-05-09T08:26:07Z</time>
      </trkpt>
      <trkpt lat="45.92434" lon="4.73102">
        <ele>170</ele>
        <time>2018-05-09T08:26:08Z</time>
      </trkpt>
      <trkpt lat="45.92438" lon="4.73097">
        <ele>170</ele>
        <time>2018-05-09T08:26:09Z</time>
      </trkpt>
      <trkpt lat="45.92442" lon="4.73092">
        <ele>170</ele>
        <time>2018-05-09T08:26:10Z</time>
      </trkpt>
      <trkpt lat="45.92447" lon="4.73089">
        <ele>170</ele>
        <time>2018-05-09T08:26:11Z</time>
      </trkpt>
      <trkpt lat="45.92451" lon="4.73085">
        <ele>170</ele>
        <time>2018-05-09T08:26:12Z</time>
      </trkpt>
      <trkpt lat="45.92456" lon="4.73081">
        <ele>170</ele>
        <time>2018-05-09T08:26:13Z</time>
      </trkpt>
      <trkpt lat="45.92461" lon="4.73078">
        <ele>170</ele>
        <time>2018-05-09T08:26:14Z</time>
      </trkpt>
      <trkpt lat="45.92467" lon="4.73073">
        <ele>170</ele>
        <time>2018-05-09T08:26:15Z</time>
      </trkpt>
      <trkpt lat="45.9247" lon="4.7307">
        <ele>170</ele>
        <time>2018-05-09T08:26:16Z</time>
      </trkpt>
      <trkpt lat="45.92475" lon="4.73066">
        <ele>170</ele>
        <time>2018-05-09T08:26:17Z</time>
      </trkpt>
      <trkpt lat="45.9248" lon="4.73061">
        <ele>170</ele>
        <time>2018-05-09T08:26:18Z</time>
      </trkpt>
      <trkpt lat="45.92484" lon="4.73058">
        <ele>170</ele>
        <time>2018-05-09T08:26:19Z</time>
      </trkpt>
      <trkpt lat="45.92489" lon="4.73054">
        <ele>170</ele>
        <time>2018-05-09T08:26:20Z</time>
      </trkpt>
      <trkpt lat="45.92493" lon="4.73048">
        <ele>170</ele>
        <time>2018-05-09T08:26:21Z</time>
      </trkpt>
      <trkpt lat="45.925" lon="4.73043">
        <ele>170</ele>
        <time>2018-05-09T08:26:22Z</time>
      </trkpt>
      <trkpt lat="45.92504" lon="4.7304">
        <ele>169</ele>
        <time>2018-05-09T08:26:23Z</time>
      </trkpt>
      <trkpt lat="45.92509" lon="4.73036">
        <ele>169</ele>
        <time>2018-05-09T08:26:24Z</time>
      </trkpt>
      <trkpt lat="45.92513" lon="4.73032">
        <ele>169</ele>
        <time>2018-05-09T08:26:25Z</time>
      </trkpt>
      <trkpt lat="45.92518" lon="4.73028">
        <ele>169</ele>
        <time>2018-05-09T08:26:26Z</time>
      </trkpt>
      <trkpt lat="45.92522" lon="4.73024">
        <ele>169</ele>
        <time>2018-05-09T08:26:27Z</time>
      </trkpt>
      <trkpt lat="45.92528" lon="4.73019">
        <ele>169</ele>
        <time>2018-05-09T08:26:28Z</time>
      </trkpt>
      <trkpt lat="45.92532" lon="4.73015">
        <ele>169</ele>
        <time>2018-05-09T08:26:29Z</time>
      </trkpt>
      <trkpt lat="45.92538" lon="4.73011">
        <ele>169</ele>
        <time>2018-05-09T08:26:30Z</time>
      </trkpt>
      <trkpt lat="45.92543" lon="4.73007">
        <ele>169</ele>
        <time>2018-05-09T08:26:31Z</time>
      </trkpt>
      <trkpt lat="45.92547" lon="4.73002">
        <ele>169</ele>
        <time>2018-05-09T08:26:32Z</time>
      </trkpt>
      <trkpt lat="45.92551" lon="4.72997">
        <ele>169</ele>
        <time>2018-05-09T08:26:33Z</time>
      </trkpt>
      <trkpt lat="45.92555" lon="4.72993">
        <ele>169</ele>
        <time>2018-05-09T08:26:34Z</time>
      </trkpt>
      <trkpt lat="45.9256" lon="4.72988">
        <ele>169</ele>
        <time>2018-05-09T08:26:35Z</time>
      </trkpt>
      <trkpt lat="45.92565" lon="4.72983">
        <ele>169</ele>
        <time>2018-05-09T08:26:36Z</time>
      </trkpt>
      <trkpt lat="45.9257" lon="4.72979">
        <ele>169</ele>
        <time>2018-05-09T08:26:37Z</time>
      </trkpt>
      <trkpt lat="45.92573" lon="4.72975">
        <ele>169</ele>
        <time>2018-05-09T08:26:38Z</time>
      </trkpt>
      <trkpt lat="45.92577" lon="4.7297">
        <ele>169</ele>
        <time>2018-05-09T08:26:39Z</time>
      </trkpt>
      <trkpt lat="45.92582" lon="4.72965">
        <ele>169</ele>
        <time>2018-05-09T08:26:40Z</time>
      </trkpt>
      <trkpt lat="45.92586" lon="4.72961">
        <ele>169</ele>
        <time>2018-05-09T08:26:41Z</time>
      </trkpt>
      <trkpt lat="45.92591" lon="4.72957">
        <ele>169</ele>
        <time>2018-05-09T08:26:42Z</time>
      </trkpt>
      <trkpt lat="45.92596" lon="4.72951">
        <ele>169</ele>
        <time>2018-05-09T08:26:43Z</time>
      </trkpt>
      <trkpt lat="45.926" lon="4.72947">
        <ele>169</ele>
        <time>2018-05-09T08:26:44Z</time>
      </trkpt>
      <trkpt lat="45.92605" lon="4.72941">
        <ele>169</ele>
        <time>2018-05-09T08:26:45Z</time>
      </trkpt>
      <trkpt lat="45.92609" lon="4.72937">
        <ele>169</ele>
        <time>2018-05-09T08:26:46Z</time>
      </trkpt>
      <trkpt lat="45.92614" lon="4.72933">
        <ele>169</ele>
        <time>2018-05-09T08:26:47Z</time>
      </trkpt>
      <trkpt lat="45.92618" lon="4.72928">
        <ele>169</ele>
        <time>2018-05-09T08:26:48Z</time>
      </trkpt>
      <trkpt lat="45.92622" lon="4.72925">
        <ele>169</ele>
        <time>2018-05-09T08:26:49Z</time>
      </trkpt>
      <trkpt lat="45.92626" lon="4.72921">
        <ele>170</ele>
        <time>2018-05-09T08:26:50Z</time>
      </trkpt>
      <trkpt lat="45.92631" lon="4.72916">
        <ele>169</ele>
        <time>2018-05-09T08:26:51Z</time>
      </trkpt>
      <trkpt lat="45.92636" lon="4.72913">
        <ele>169</ele>
        <time>2018-05-09T08:26:52Z</time>
      </trkpt>
      <trkpt lat="45.92641" lon="4.72908">
        <ele>169</ele>
        <time>2018-05-09T08:26:53Z</time>
      </trkpt>
      <trkpt lat="45.92646" lon="4.72904">
        <ele>170</ele>
        <time>2018-05-09T08:26:54Z</time>
      </trkpt>
      <trkpt lat="45.9265" lon="4.729">
        <ele>170</ele>
        <time>2018-05-09T08:26:55Z</time>
      </trkpt>
      <trkpt lat="45.92656" lon="4.72896">
        <ele>170</ele>
        <time>2018-05-09T08:26:56Z</time>
      </trkpt>
      <trkpt lat="45.92661" lon="4.72893">
        <ele>170</ele>
        <time>2018-05-09T08:26:57Z</time>
      </trkpt>
      <trkpt lat="45.92667" lon="4.72889">
        <ele>169</ele>
        <time>2018-05-09T08:26:58Z</time>
      </trkpt>
      <trkpt lat="45.92673" lon="4.72885">
        <ele>170</ele>
        <time>2018-05-09T08:26:59Z</time>
      </trkpt>
      <trkpt lat="45.92679" lon="4.72882">
        <ele>170</ele>
        <time>2018-05-09T08:27:00Z</time>
      </trkpt>
      <trkpt lat="45.92683" lon="4.72877">
        <ele>170</ele>
        <time>2018-05-09T08:27:01Z</time>
      </trkpt>
      <trkpt lat="45.92689" lon="4.72872">
        <ele>169</ele>
        <time>2018-05-09T08:27:02Z</time>
      </trkpt>
      <trkpt lat="45.92694" lon="4.72868">
        <ele>169</ele>
        <time>2018-05-09T08:27:03Z</time>
      </trkpt>
      <trkpt lat="45.92697" lon="4.72863">
        <ele>169</ele>
        <time>2018-05-09T08:27:04Z</time>
      </trkpt>
      <trkpt lat="45.92702" lon="4.72859">
        <ele>169</ele>
        <time>2018-05-09T08:27:05Z</time>
      </trkpt>
      <trkpt lat="45.92707" lon="4.72855">
        <ele>169</ele>
        <time>2018-05-09T08:27:06Z</time>
      </trkpt>
      <trkpt lat="45.92711" lon="4.72851">
        <ele>169</ele>
        <time>2018-05-09T08:27:07Z</time>
      </trkpt>
      <trkpt lat="45.92716" lon="4.72847">
        <ele>169</ele>
        <time>2018-05-09T08:27:08Z</time>
      </trkpt>
      <trkpt lat="45.92721" lon="4.72843">
        <ele>169</ele>
        <time>2018-05-09T08:27:09Z</time>
      </trkpt>
      <trkpt lat="45.92727" lon="4.72839">
        <ele>169</ele>
        <time>2018-05-09T08:27:10Z</time>
      </trkpt>
      <trkpt lat="45.92731" lon="4.72833">
        <ele>169</ele>
        <time>2018-05-09T08:27:11Z</time>
      </trkpt>
      <trkpt lat="45.92736" lon="4.72829">
        <ele>169</ele>
        <time>2018-05-09T08:27:12Z</time>
      </trkpt>
      <trkpt lat="45.92742" lon="4.72826">
        <ele>169</ele>
        <time>2018-05-09T08:27:13Z</time>
      </trkpt>
      <trkpt lat="45.92747" lon="4.72822">
        <ele>169</ele>
        <time>2018-05-09T08:27:14Z</time>
      </trkpt>
      <trkpt lat="45.92752" lon="4.72818">
        <ele>170</ele>
        <time>2018-05-09T08:27:15Z</time>
      </trkpt>
      <trkpt lat="45.92757" lon="4.72813">
        <ele>170</ele>
        <time>2018-05-09T08:27:16Z</time>
      </trkpt>
      <trkpt lat="45.92762" lon="4.72808">
        <ele>170</ele>
        <time>2018-05-09T08:27:17Z</time>
      </trkpt>
      <trkpt lat="45.92766" lon="4.72804">
        <ele>170</ele>
        <time>2018-05-09T08:27:18Z</time>
      </trkpt>
      <trkpt lat="45.92771" lon="4.72802">
        <ele>170</ele>
        <time>2018-05-09T08:27:19Z</time>
      </trkpt>
      <trkpt lat="45.92776" lon="4.728">
        <ele>170</ele>
        <time>2018-05-09T08:27:20Z</time>
      </trkpt>
      <trkpt lat="45.9278" lon="4.72797">
        <ele>170</ele>
        <time>2018-05-09T08:27:21Z</time>
      </trkpt>
      <trkpt lat="45.92786" lon="4.72793">
        <ele>170</ele>
        <time>2018-05-09T08:27:22Z</time>
      </trkpt>
      <trkpt lat="45.92791" lon="4.7279">
        <ele>171</ele>
        <time>2018-05-09T08:27:23Z</time>
      </trkpt>
      <trkpt lat="45.92795" lon="4.72786">
        <ele>171</ele>
        <time>2018-05-09T08:27:24Z</time>
      </trkpt>
      <trkpt lat="45.928" lon="4.72787">
        <ele>171</ele>
        <time>2018-05-09T08:27:25Z</time>
      </trkpt>
      <trkpt lat="45.92807" lon="4.72784">
        <ele>171</ele>
        <time>2018-05-09T08:27:26Z</time>
      </trkpt>
      <trkpt lat="45.9281" lon="4.7279">
        <ele>171</ele>
        <time>2018-05-09T08:27:27Z</time>
      </trkpt>
      <trkpt lat="45.92811" lon="4.72801">
        <ele>171</ele>
        <time>2018-05-09T08:27:29Z</time>
      </trkpt>
      <trkpt lat="45.92813" lon="4.72808">
        <ele>171</ele>
        <time>2018-05-09T08:27:30Z</time>
      </trkpt>
      <trkpt lat="45.92813" lon="4.72816">
        <ele>171</ele>
        <time>2018-05-09T08:27:31Z</time>
      </trkpt>
      <trkpt lat="45.92814" lon="4.72822">
        <ele>171</ele>
        <time>2018-05-09T08:27:32Z</time>
      </trkpt>
      <trkpt lat="45.92815" lon="4.72829">
        <ele>171</ele>
        <time>2018-05-09T08:27:33Z</time>
      </trkpt>
      <trkpt lat="45.92817" lon="4.72838">
        <ele>170</ele>
        <time>2018-05-09T08:27:34Z</time>
      </trkpt>
      <trkpt lat="45.92818" lon="4.72846">
        <ele>170</ele>
        <time>2018-05-09T08:27:35Z</time>
      </trkpt>
      <trkpt lat="45.9282" lon="4.72855">
        <ele>170</ele>
        <time>2018-05-09T08:27:36Z</time>
      </trkpt>
      <trkpt lat="45.92822" lon="4.72863">
        <ele>170</ele>
        <time>2018-05-09T08:27:37Z</time>
      </trkpt>
      <trkpt lat="45.92823" lon="4.7287">
        <ele>170</ele>
        <time>2018-05-09T08:27:38Z</time>
      </trkpt>
      <trkpt lat="45.92824" lon="4.72878">
        <ele>170</ele>
        <time>2018-05-09T08:27:39Z</time>
      </trkpt>
      <trkpt lat="45.92824" lon="4.72885">
        <ele>170</ele>
        <time>2018-05-09T08:27:40Z</time>
      </trkpt>
      <trkpt lat="45.92825" lon="4.72892">
        <ele>170</ele>
        <time>2018-05-09T08:27:41Z</time>
      </trkpt>
      <trkpt lat="45.92826" lon="4.729">
        <ele>170</ele>
        <time>2018-05-09T08:27:42Z</time>
      </trkpt>
      <trkpt lat="45.92827" lon="4.72909">
        <ele>170</ele>
        <time>2018-05-09T08:27:43Z</time>
      </trkpt>
      <trkpt lat="45.92827" lon="4.72916">
        <ele>170</ele>
        <time>2018-05-09T08:27:44Z</time>
      </trkpt>
      <trkpt lat="45.92829" lon="4.72923">
        <ele>170</ele>
        <time>2018-05-09T08:27:45Z</time>
      </trkpt>
      <trkpt lat="45.92831" lon="4.72929">
        <ele>170</ele>
        <time>2018-05-09T08:27:46Z</time>
      </trkpt>
      <trkpt lat="45.92832" lon="4.72938">
        <ele>170</ele>
        <time>2018-05-09T08:27:47Z</time>
      </trkpt>
      <trkpt lat="45.92833" lon="4.72947">
        <ele>170</ele>
        <time>2018-05-09T08:27:48Z</time>
      </trkpt>
      <trkpt lat="45.92834" lon="4.72955">
        <ele>171</ele>
        <time>2018-05-09T08:27:49Z</time>
      </trkpt>
      <trkpt lat="45.92835" lon="4.72964">
        <ele>171</ele>
        <time>2018-05-09T08:27:50Z</time>
      </trkpt>
      <trkpt lat="45.92834" lon="4.72972">
        <ele>171</ele>
        <time>2018-05-09T08:27:51Z</time>
      </trkpt>
      <trkpt lat="45.92836" lon="4.72981">
        <ele>171</ele>
        <time>2018-05-09T08:27:52Z</time>
      </trkpt>
      <trkpt lat="45.92837" lon="4.7299">
        <ele>170</ele>
        <time>2018-05-09T08:27:53Z</time>
      </trkpt>
      <trkpt lat="45.92837" lon="4.73">
        <ele>170</ele>
        <time>2018-05-09T08:27:54Z</time>
      </trkpt>
      <trkpt lat="45.92839" lon="4.73008">
        <ele>170</ele>
        <time>2018-05-09T08:27:55Z</time>
      </trkpt>
      <trkpt lat="45.9284" lon="4.73016">
        <ele>171</ele>
        <time>2018-05-09T08:27:56Z</time>
      </trkpt>
      <trkpt lat="45.92841" lon="4.73024">
        <ele>171</ele>
        <time>2018-05-09T08:27:57Z</time>
      </trkpt>
      <trkpt lat="45.92842" lon="4.73031">
        <ele>171</ele>
        <time>2018-05-09T08:27:58Z</time>
      </trkpt>
      <trkpt lat="45.92844" lon="4.73039">
        <ele>171</ele>
        <time>2018-05-09T08:27:59Z</time>
      </trkpt>
      <trkpt lat="45.92846" lon="4.73047">
        <ele>171</ele>
        <time>2018-05-09T08:28:00Z</time>
      </trkpt>
      <trkpt lat="45.92846" lon="4.73054">
        <ele>171</ele>
        <time>2018-05-09T08:28:01Z</time>
      </trkpt>
      <trkpt lat="45.92849" lon="4.73062">
        <ele>171</ele>
        <time>2018-05-09T08:28:02Z</time>
      </trkpt>
      <trkpt lat="45.92849" lon="4.73069">
        <ele>171</ele>
        <time>2018-05-09T08:28:03Z</time>
      </trkpt>
      <trkpt lat="45.92848" lon="4.73076">
        <ele>171</ele>
        <time>2018-05-09T08:28:04Z</time>
      </trkpt>
      <trkpt lat="45.92848" lon="4.73084">
        <ele>171</ele>
        <time>2018-05-09T08:28:05Z</time>
      </trkpt>
      <trkpt lat="45.92849" lon="4.73088">
        <ele>171</ele>
        <time>2018-05-09T08:28:06Z</time>
      </trkpt>
      <trkpt lat="45.92851" lon="4.73094">
        <ele>171</ele>
        <time>2018-05-09T08:28:07Z</time>
      </trkpt>
      <trkpt lat="45.92856" lon="4.73097">
        <ele>171</ele>
        <time>2018-05-09T08:28:08Z</time>
      </trkpt>
      <trkpt lat="45.92863" lon="4.73098">
        <ele>171</ele>
        <time>2018-05-09T08:28:10Z</time>
      </trkpt>
      <trkpt lat="45.92866" lon="4.73094">
        <ele>172</ele>
        <time>2018-05-09T08:28:11Z</time>
      </trkpt>
      <trkpt lat="45.92872" lon="4.73088">
        <ele>172</ele>
        <time>2018-05-09T08:28:14Z</time>
      </trkpt>
      <trkpt lat="45.92874" lon="4.73086">
        <ele>172</ele>
        <time>2018-05-09T08:28:15Z</time>
      </trkpt>
      <trkpt lat="45.92881" lon="4.7308">
        <ele>172</ele>
        <time>2018-05-09T08:28:18Z</time>
      </trkpt>
      <trkpt lat="45.92891" lon="4.73074">
        <ele>172</ele>
        <time>2018-05-09T08:28:19Z</time>
      </trkpt>
      <trkpt lat="45.92896" lon="4.7307">
        <ele>172</ele>
        <time>2018-05-09T08:28:20Z</time>
      </trkpt>
      <trkpt lat="45.929" lon="4.73065">
        <ele>172</ele>
        <time>2018-05-09T08:28:21Z</time>
      </trkpt>
      <trkpt lat="45.92904" lon="4.73059">
        <ele>172</ele>
        <time>2018-05-09T08:28:22Z</time>
      </trkpt>
      <trkpt lat="45.92908" lon="4.73053">
        <ele>172</ele>
        <time>2018-05-09T08:28:23Z</time>
      </trkpt>
      <trkpt lat="45.9291" lon="4.73047">
        <ele>172</ele>
        <time>2018-05-09T08:28:24Z</time>
      </trkpt>
      <trkpt lat="45.92914" lon="4.73041">
        <ele>172</ele>
        <time>2018-05-09T08:28:25Z</time>
      </trkpt>
      <trkpt lat="45.92917" lon="4.73037">
        <ele>172</ele>
        <time>2018-05-09T08:28:26Z</time>
      </trkpt>
      <trkpt lat="45.92921" lon="4.73031">
        <ele>171</ele>
        <time>2018-05-09T08:28:27Z</time>
      </trkpt>
      <trkpt lat="45.92924" lon="4.73025">
        <ele>171</ele>
        <time>2018-05-09T08:28:28Z</time>
      </trkpt>
      <trkpt lat="45.92928" lon="4.7302">
        <ele>171</ele>
        <time>2018-05-09T08:28:29Z</time>
      </trkpt>
      <trkpt lat="45.92933" lon="4.73015">
        <ele>171</ele>
        <time>2018-05-09T08:28:30Z</time>
      </trkpt>
      <trkpt lat="45.92937" lon="4.7301">
        <ele>171</ele>
        <time>2018-05-09T08:28:31Z</time>
      </trkpt>
      <trkpt lat="45.92942" lon="4.73005">
        <ele>171</ele>
        <time>2018-05-09T08:28:32Z</time>
      </trkpt>
      <trkpt lat="45.92946" lon="4.72999">
        <ele>171</ele>
        <time>2018-05-09T08:28:33Z</time>
      </trkpt>
      <trkpt lat="45.9295" lon="4.72993">
        <ele>171</ele>
        <time>2018-05-09T08:28:34Z</time>
      </trkpt>
      <trkpt lat="45.92955" lon="4.72988">
        <ele>171</ele>
        <time>2018-05-09T08:28:35Z</time>
      </trkpt>
      <trkpt lat="45.92959" lon="4.72982">
        <ele>171</ele>
        <time>2018-05-09T08:28:36Z</time>
      </trkpt>
      <trkpt lat="45.92964" lon="4.72978">
        <ele>171</ele>
        <time>2018-05-09T08:28:37Z</time>
      </trkpt>
      <trkpt lat="45.92968" lon="4.72972">
        <ele>171</ele>
        <time>2018-05-09T08:28:38Z</time>
      </trkpt>
      <trkpt lat="45.92973" lon="4.72967">
        <ele>171</ele>
        <time>2018-05-09T08:28:39Z</time>
      </trkpt>
      <trkpt lat="45.92979" lon="4.72963">
        <ele>171</ele>
        <time>2018-05-09T08:28:40Z</time>
      </trkpt>
      <trkpt lat="45.92984" lon="4.72958">
        <ele>171</ele>
        <time>2018-05-09T08:28:41Z</time>
      </trkpt>
      <trkpt lat="45.92989" lon="4.72951">
        <ele>171</ele>
        <time>2018-05-09T08:28:42Z</time>
      </trkpt>
      <trkpt lat="45.92993" lon="4.72946">
        <ele>171</ele>
        <time>2018-05-09T08:28:43Z</time>
      </trkpt>
      <trkpt lat="45.92997" lon="4.7294">
        <ele>171</ele>
        <time>2018-05-09T08:28:44Z</time>
      </trkpt>
      <trkpt lat="45.93002" lon="4.72935">
        <ele>170</ele>
        <time>2018-05-09T08:28:45Z</time>
      </trkpt>
      <trkpt lat="45.93011" lon="4.72926">
        <ele>170</ele>
        <time>2018-05-09T08:28:46Z</time>
      </trkpt>
      <trkpt lat="45.93017" lon="4.72919">
        <ele>170</ele>
        <time>2018-05-09T08:28:47Z</time>
      </trkpt>
      <trkpt lat="45.93023" lon="4.72912">
        <ele>171</ele>
        <time>2018-05-09T08:28:48Z</time>
      </trkpt>
      <trkpt lat="45.93027" lon="4.72907">
        <ele>172</ele>
        <time>2018-05-09T08:28:49Z</time>
      </trkpt>
      <trkpt lat="45.93032" lon="4.72902">
        <ele>172</ele>
        <time>2018-05-09T08:28:50Z</time>
      </trkpt>
      <trkpt lat="45.93037" lon="4.72896">
        <ele>172</ele>
        <time>2018-05-09T08:28:51Z</time>
      </trkpt>
      <trkpt lat="45.93041" lon="4.72892">
        <ele>172</ele>
        <time>2018-05-09T08:28:52Z</time>
      </trkpt>
      <trkpt lat="45.93046" lon="4.72887">
        <ele>172</ele>
        <time>2018-05-09T08:28:53Z</time>
      </trkpt>
      <trkpt lat="45.93051" lon="4.72881">
        <ele>172</ele>
        <time>2018-05-09T08:28:54Z</time>
      </trkpt>
      <trkpt lat="45.93054" lon="4.72872">
        <ele>172</ele>
        <time>2018-05-09T08:28:55Z</time>
      </trkpt>
      <trkpt lat="45.9306" lon="4.72866">
        <ele>172</ele>
        <time>2018-05-09T08:28:56Z</time>
      </trkpt>
      <trkpt lat="45.93063" lon="4.7286">
        <ele>172</ele>
        <time>2018-05-09T08:28:57Z</time>
      </trkpt>
      <trkpt lat="45.9307" lon="4.72854">
        <ele>172</ele>
        <time>2018-05-09T08:28:58Z</time>
      </trkpt>
      <trkpt lat="45.93075" lon="4.72849">
        <ele>172</ele>
        <time>2018-05-09T08:28:59Z</time>
      </trkpt>
      <trkpt lat="45.93084" lon="4.72838">
        <ele>173</ele>
        <time>2018-05-09T08:29:01Z</time>
      </trkpt>
      <trkpt lat="45.93116" lon="4.72798">
        <ele>171</ele>
        <time>2018-05-09T08:29:09Z</time>
      </trkpt>
      <trkpt lat="45.93124" lon="4.72789">
        <ele>171</ele>
        <time>2018-05-09T08:29:10Z</time>
      </trkpt>
      <trkpt lat="45.9313" lon="4.72782">
        <ele>171</ele>
        <time>2018-05-09T08:29:11Z</time>
      </trkpt>
      <trkpt lat="45.93135" lon="4.72777">
        <ele>171</ele>
        <time>2018-05-09T08:29:12Z</time>
      </trkpt>
      <trkpt lat="45.93138" lon="4.72771">
        <ele>171</ele>
        <time>2018-05-09T08:29:13Z</time>
      </trkpt>
      <trkpt lat="45.93143" lon="4.72766">
        <ele>171</ele>
        <time>2018-05-09T08:29:14Z</time>
      </trkpt>
      <trkpt lat="45.93147" lon="4.7276">
        <ele>171</ele>
        <time>2018-05-09T08:29:15Z</time>
      </trkpt>
      <trkpt lat="45.93152" lon="4.72756">
        <ele>170</ele>
        <time>2018-05-09T08:29:16Z</time>
      </trkpt>
      <trkpt lat="45.93157" lon="4.7275">
        <ele>170</ele>
        <time>2018-05-09T08:29:17Z</time>
      </trkpt>
      <trkpt lat="45.93162" lon="4.72744">
        <ele>170</ele>
        <time>2018-05-09T08:29:18Z</time>
      </trkpt>
      <trkpt lat="45.93166" lon="4.72738">
        <ele>170</ele>
        <time>2018-05-09T08:29:19Z</time>
      </trkpt>
      <trkpt lat="45.93171" lon="4.72732">
        <ele>170</ele>
        <time>2018-05-09T08:29:20Z</time>
      </trkpt>
      <trkpt lat="45.93176" lon="4.72726">
        <ele>170</ele>
        <time>2018-05-09T08:29:21Z</time>
      </trkpt>
      <trkpt lat="45.93179" lon="4.7272">
        <ele>169</ele>
        <time>2018-05-09T08:29:22Z</time>
      </trkpt>
      <trkpt lat="45.93185" lon="4.72713">
        <ele>169</ele>
        <time>2018-05-09T08:29:23Z</time>
      </trkpt>
      <trkpt lat="45.9319" lon="4.72707">
        <ele>169</ele>
        <time>2018-05-09T08:29:24Z</time>
      </trkpt>
      <trkpt lat="45.93195" lon="4.72702">
        <ele>169</ele>
        <time>2018-05-09T08:29:25Z</time>
      </trkpt>
      <trkpt lat="45.93201" lon="4.72698">
        <ele>169</ele>
        <time>2018-05-09T08:29:26Z</time>
      </trkpt>
      <trkpt lat="45.93206" lon="4.72692">
        <ele>169</ele>
        <time>2018-05-09T08:29:27Z</time>
      </trkpt>
      <trkpt lat="45.93209" lon="4.72687">
        <ele>169</ele>
        <time>2018-05-09T08:29:28Z</time>
      </trkpt>
      <trkpt lat="45.93213" lon="4.7268">
        <ele>169</ele>
        <time>2018-05-09T08:29:29Z</time>
      </trkpt>
      <trkpt lat="45.93217" lon="4.72674">
        <ele>169</ele>
        <time>2018-05-09T08:29:30Z</time>
      </trkpt>
      <trkpt lat="45.93223" lon="4.72669">
        <ele>169</ele>
        <time>2018-05-09T08:29:31Z</time>
      </trkpt>
      <trkpt lat="45.93229" lon="4.72663">
        <ele>169</ele>
        <time>2018-05-09T08:29:32Z</time>
      </trkpt>
      <trkpt lat="45.93234" lon="4.72657">
        <ele>169</ele>
        <time>2018-05-09T08:29:33Z</time>
      </trkpt>
      <trkpt lat="45.93239" lon="4.7265">
        <ele>169</ele>
        <time>2018-05-09T08:29:34Z</time>
      </trkpt>
      <trkpt lat="45.93243" lon="4.72647">
        <ele>170</ele>
        <time>2018-05-09T08:29:35Z</time>
      </trkpt>
      <trkpt lat="45.9325" lon="4.72641">
        <ele>169</ele>
        <time>2018-05-09T08:29:36Z</time>
      </trkpt>
      <trkpt lat="45.93256" lon="4.72634">
        <ele>170</ele>
        <time>2018-05-09T08:29:37Z</time>
      </trkpt>
      <trkpt lat="45.93261" lon="4.72628">
        <ele>170</ele>
        <time>2018-05-09T08:29:38Z</time>
      </trkpt>
      <trkpt lat="45.93267" lon="4.72622">
        <ele>170</ele>
        <time>2018-05-09T08:29:39Z</time>
      </trkpt>
      <trkpt lat="45.93271" lon="4.72616">
        <ele>170</ele>
        <time>2018-05-09T08:29:40Z</time>
      </trkpt>
      <trkpt lat="45.93276" lon="4.7261">
        <ele>170</ele>
        <time>2018-05-09T08:29:41Z</time>
      </trkpt>
      <trkpt lat="45.93284" lon="4.72604">
        <ele>170</ele>
        <time>2018-05-09T08:29:42Z</time>
      </trkpt>
      <trkpt lat="45.9329" lon="4.72597">
        <ele>170</ele>
        <time>2018-05-09T08:29:43Z</time>
      </trkpt>
      <trkpt lat="45.93293" lon="4.72593">
        <ele>170</ele>
        <time>2018-05-09T08:29:44Z</time>
      </trkpt>
      <trkpt lat="45.93298" lon="4.72585">
        <ele>170</ele>
        <time>2018-05-09T08:29:45Z</time>
      </trkpt>
      <trkpt lat="45.93303" lon="4.72579">
        <ele>171</ele>
        <time>2018-05-09T08:29:46Z</time>
      </trkpt>
      <trkpt lat="45.93309" lon="4.72572">
        <ele>171</ele>
        <time>2018-05-09T08:29:47Z</time>
      </trkpt>
      <trkpt lat="45.93315" lon="4.72566">
        <ele>171</ele>
        <time>2018-05-09T08:29:48Z</time>
      </trkpt>
      <trkpt lat="45.93321" lon="4.72559">
        <ele>171</ele>
        <time>2018-05-09T08:29:49Z</time>
      </trkpt>
      <trkpt lat="45.93326" lon="4.72553">
        <ele>172</ele>
        <time>2018-05-09T08:29:50Z</time>
      </trkpt>
      <trkpt lat="45.93331" lon="4.72547">
        <ele>172</ele>
        <time>2018-05-09T08:29:51Z</time>
      </trkpt>
      <trkpt lat="45.93336" lon="4.72541">
        <ele>171</ele>
        <time>2018-05-09T08:29:52Z</time>
      </trkpt>
      <trkpt lat="45.9334" lon="4.72535">
        <ele>172</ele>
        <time>2018-05-09T08:29:53Z</time>
      </trkpt>
      <trkpt lat="45.93345" lon="4.72529">
        <ele>172</ele>
        <time>2018-05-09T08:29:54Z</time>
      </trkpt>
      <trkpt lat="45.9335" lon="4.72524">
        <ele>172</ele>
        <time>2018-05-09T08:29:55Z</time>
      </trkpt>
      <trkpt lat="45.93356" lon="4.72518">
        <ele>172</ele>
        <time>2018-05-09T08:29:56Z</time>
      </trkpt>
      <trkpt lat="45.93361" lon="4.72512">
        <ele>172</ele>
        <time>2018-05-09T08:29:57Z</time>
      </trkpt>
      <trkpt lat="45.93366" lon="4.72506">
        <ele>172</ele>
        <time>2018-05-09T08:29:58Z</time>
      </trkpt>
      <trkpt lat="45.93371" lon="4.72501">
        <ele>172</ele>
        <time>2018-05-09T08:29:59Z</time>
      </trkpt>
      <trkpt lat="45.93377" lon="4.7249">
        <ele>173</ele>
        <time>2018-05-09T08:30:00Z</time>
      </trkpt>
      <trkpt lat="45.93381" lon="4.72485">
        <ele>173</ele>
        <time>2018-05-09T08:30:01Z</time>
      </trkpt>
      <trkpt lat="45.93385" lon="4.7248">
        <ele>173</ele>
        <time>2018-05-09T08:30:02Z</time>
      </trkpt>
      <trkpt lat="45.93392" lon="4.72472">
        <ele>173</ele>
        <time>2018-05-09T08:30:06Z</time>
      </trkpt>
      <trkpt lat="45.93393" lon="4.72471">
        <ele>173</ele>
        <time>2018-05-09T08:30:07Z</time>
      </trkpt>
      <trkpt lat="45.93399" lon="4.72463">
        <ele>173</ele>
        <time>2018-05-09T08:30:11Z</time>
      </trkpt>
      <trkpt lat="45.934" lon="4.7246">
        <ele>173</ele>
        <time>2018-05-09T08:30:12Z</time>
      </trkpt>
      <trkpt lat="45.93403" lon="4.7245">
        <ele>173</ele>
        <time>2018-05-09T08:30:15Z</time>
      </trkpt>
      <trkpt lat="45.93404" lon="4.72447">
        <ele>173</ele>
        <time>2018-05-09T08:30:16Z</time>
      </trkpt>
      <trkpt lat="45.93406" lon="4.72441">
        <ele>173</ele>
        <time>2018-05-09T08:30:18Z</time>
      </trkpt>
      <trkpt lat="45.93409" lon="4.7243">
        <ele>174</ele>
        <time>2018-05-09T08:30:19Z</time>
      </trkpt>
      <trkpt lat="45.93415" lon="4.72423">
        <ele>174</ele>
        <time>2018-05-09T08:30:21Z</time>
      </trkpt>
      <trkpt lat="45.93419" lon="4.72419">
        <ele>174</ele>
        <time>2018-05-09T08:30:22Z</time>
      </trkpt>
      <trkpt lat="45.93427" lon="4.72415">
        <ele>174</ele>
        <time>2018-05-09T08:30:24Z</time>
      </trkpt>
      <trkpt lat="45.93431" lon="4.72413">
        <ele>174</ele>
        <time>2018-05-09T08:30:25Z</time>
      </trkpt>
      <trkpt lat="45.93439" lon="4.72407">
        <ele>174</ele>
        <time>2018-05-09T08:30:27Z</time>
      </trkpt>
      <trkpt lat="45.93444" lon="4.72405">
        <ele>173</ele>
        <time>2018-05-09T08:30:28Z</time>
      </trkpt>
      <trkpt lat="45.93448" lon="4.72401">
        <ele>173</ele>
        <time>2018-05-09T08:30:29Z</time>
      </trkpt>
      <trkpt lat="45.93453" lon="4.72397">
        <ele>173</ele>
        <time>2018-05-09T08:30:30Z</time>
      </trkpt>
      <trkpt lat="45.93458" lon="4.72395">
        <ele>173</ele>
        <time>2018-05-09T08:30:31Z</time>
      </trkpt>
      <trkpt lat="45.93463" lon="4.72391">
        <ele>173</ele>
        <time>2018-05-09T08:30:32Z</time>
      </trkpt>
      <trkpt lat="45.93468" lon="4.72385">
        <ele>173</ele>
        <time>2018-05-09T08:30:33Z</time>
      </trkpt>
      <trkpt lat="45.93474" lon="4.72381">
        <ele>173</ele>
        <time>2018-05-09T08:30:34Z</time>
      </trkpt>
      <trkpt lat="45.93478" lon="4.72375">
        <ele>173</ele>
        <time>2018-05-09T08:30:35Z</time>
      </trkpt>
      <trkpt lat="45.93482" lon="4.72369">
        <ele>173</ele>
        <time>2018-05-09T08:30:36Z</time>
      </trkpt>
      <trkpt lat="45.93486" lon="4.72363">
        <ele>173</ele>
        <time>2018-05-09T08:30:37Z</time>
      </trkpt>
      <trkpt lat="45.93488" lon="4.72356">
        <ele>173</ele>
        <time>2018-05-09T08:30:38Z</time>
      </trkpt>
      <trkpt lat="45.93492" lon="4.72351">
        <ele>173</ele>
        <time>2018-05-09T08:30:39Z</time>
      </trkpt>
      <trkpt lat="45.93497" lon="4.72345">
        <ele>173</ele>
        <time>2018-05-09T08:30:40Z</time>
      </trkpt>
      <trkpt lat="45.93501" lon="4.72339">
        <ele>173</ele>
        <time>2018-05-09T08:30:41Z</time>
      </trkpt>
      <trkpt lat="45.93507" lon="4.72334">
        <ele>173</ele>
        <time>2018-05-09T08:30:42Z</time>
      </trkpt>
      <trkpt lat="45.9351" lon="4.72326">
        <ele>173</ele>
        <time>2018-05-09T08:30:43Z</time>
      </trkpt>
      <trkpt lat="45.93515" lon="4.72317">
        <ele>173</ele>
        <time>2018-05-09T08:30:44Z</time>
      </trkpt>
      <trkpt lat="45.9352" lon="4.72311">
        <ele>173</ele>
        <time>2018-05-09T08:30:45Z</time>
      </trkpt>
      <trkpt lat="45.93524" lon="4.72306">
        <ele>173</ele>
        <time>2018-05-09T08:30:46Z</time>
      </trkpt>
      <trkpt lat="45.93529" lon="4.72297">
        <ele>172</ele>
        <time>2018-05-09T08:30:48Z</time>
      </trkpt>
      <trkpt lat="45.93532" lon="4.72291">
        <ele>172</ele>
        <time>2018-05-09T08:30:49Z</time>
      </trkpt>
      <trkpt lat="45.93535" lon="4.72284">
        <ele>172</ele>
        <time>2018-05-09T08:30:50Z</time>
      </trkpt>
      <trkpt lat="45.93536" lon="4.72279">
        <ele>172</ele>
        <time>2018-05-09T08:30:51Z</time>
      </trkpt>
      <trkpt lat="45.93539" lon="4.72272">
        <ele>172</ele>
        <time>2018-05-09T08:30:52Z</time>
      </trkpt>
      <trkpt lat="45.93543" lon="4.72265">
        <ele>172</ele>
        <time>2018-05-09T08:30:53Z</time>
      </trkpt>
      <trkpt lat="45.93546" lon="4.72258">
        <ele>172</ele>
        <time>2018-05-09T08:30:54Z</time>
      </trkpt>
      <trkpt lat="45.93549" lon="4.72251">
        <ele>172</ele>
        <time>2018-05-09T08:30:55Z</time>
      </trkpt>
      <trkpt lat="45.93552" lon="4.72244">
        <ele>172</ele>
        <time>2018-05-09T08:30:56Z</time>
      </trkpt>
      <trkpt lat="45.93555" lon="4.72237">
        <ele>173</ele>
        <time>2018-05-09T08:30:57Z</time>
      </trkpt>
      <trkpt lat="45.93558" lon="4.7223">
        <ele>173</ele>
        <time>2018-05-09T08:30:58Z</time>
      </trkpt>
      <trkpt lat="45.93562" lon="4.72223">
        <ele>173</ele>
        <time>2018-05-09T08:30:59Z</time>
      </trkpt>
      <trkpt lat="45.93566" lon="4.72216">
        <ele>173</ele>
        <time>2018-05-09T08:31:00Z</time>
      </trkpt>
      <trkpt lat="45.93571" lon="4.72209">
        <ele>173</ele>
        <time>2018-05-09T08:31:01Z</time>
      </trkpt>
      <trkpt lat="45.93576" lon="4.72204">
        <ele>173</ele>
        <time>2018-05-09T08:31:02Z</time>
      </trkpt>
      <trkpt lat="45.93581" lon="4.72199">
        <ele>173</ele>
        <time>2018-05-09T08:31:03Z</time>
      </trkpt>
      <trkpt lat="45.93586" lon="4.72196">
        <ele>173</ele>
        <time>2018-05-09T08:31:04Z</time>
      </trkpt>
      <trkpt lat="45.93591" lon="4.72192">
        <ele>173</ele>
        <time>2018-05-09T08:31:05Z</time>
      </trkpt>
      <trkpt lat="45.93596" lon="4.72189">
        <ele>173</ele>
        <time>2018-05-09T08:31:06Z</time>
      </trkpt>
      <trkpt lat="45.93602" lon="4.72185">
        <ele>173</ele>
        <time>2018-05-09T08:31:07Z</time>
      </trkpt>
      <trkpt lat="45.93608" lon="4.7218">
        <ele>173</ele>
        <time>2018-05-09T08:31:08Z</time>
      </trkpt>
      <trkpt lat="45.93614" lon="4.72175">
        <ele>173</ele>
        <time>2018-05-09T08:31:09Z</time>
      </trkpt>
      <trkpt lat="45.93618" lon="4.72169">
        <ele>173</ele>
        <time>2018-05-09T08:31:10Z</time>
      </trkpt>
      <trkpt lat="45.93624" lon="4.72164">
        <ele>173</ele>
        <time>2018-05-09T08:31:11Z</time>
      </trkpt>
      <trkpt lat="45.9363" lon="4.72158">
        <ele>173</ele>
        <time>2018-05-09T08:31:12Z</time>
      </trkpt>
      <trkpt lat="45.93634" lon="4.72152">
        <ele>173</ele>
        <time>2018-05-09T08:31:13Z</time>
      </trkpt>
      <trkpt lat="45.93637" lon="4.72146">
        <ele>173</ele>
        <time>2018-05-09T08:31:14Z</time>
      </trkpt>
      <trkpt lat="45.93641" lon="4.72141">
        <ele>173</ele>
        <time>2018-05-09T08:31:15Z</time>
      </trkpt>
      <trkpt lat="45.93645" lon="4.72135">
        <ele>173</ele>
        <time>2018-05-09T08:31:16Z</time>
      </trkpt>
      <trkpt lat="45.93649" lon="4.72128">
        <ele>173</ele>
        <time>2018-05-09T08:31:17Z</time>
      </trkpt>
      <trkpt lat="45.93652" lon="4.72122">
        <ele>173</ele>
        <time>2018-05-09T08:31:18Z</time>
      </trkpt>
      <trkpt lat="45.93655" lon="4.72114">
        <ele>173</ele>
        <time>2018-05-09T08:31:19Z</time>
      </trkpt>
      <trkpt lat="45.93659" lon="4.72108">
        <ele>173</ele>
        <time>2018-05-09T08:31:20Z</time>
      </trkpt>
      <trkpt lat="45.93663" lon="4.72102">
        <ele>173</ele>
        <time>2018-05-09T08:31:21Z</time>
      </trkpt>
      <trkpt lat="45.93669" lon="4.72097">
        <ele>172</ele>
        <time>2018-05-09T08:31:22Z</time>
      </trkpt>
      <trkpt lat="45.93672" lon="4.72089">
        <ele>172</ele>
        <time>2018-05-09T08:31:23Z</time>
      </trkpt>
      <trkpt lat="45.93676" lon="4.72083">
        <ele>172</ele>
        <time>2018-05-09T08:31:24Z</time>
      </trkpt>
      <trkpt lat="45.93679" lon="4.72077">
        <ele>172</ele>
        <time>2018-05-09T08:31:25Z</time>
      </trkpt>
      <trkpt lat="45.93683" lon="4.72071">
        <ele>172</ele>
        <time>2018-05-09T08:31:26Z</time>
      </trkpt>
      <trkpt lat="45.93687" lon="4.72063">
        <ele>172</ele>
        <time>2018-05-09T08:31:27Z</time>
      </trkpt>
      <trkpt lat="45.9369" lon="4.72056">
        <ele>172</ele>
        <time>2018-05-09T08:31:28Z</time>
      </trkpt>
      <trkpt lat="45.93694" lon="4.72052">
        <ele>173</ele>
        <time>2018-05-09T08:31:29Z</time>
      </trkpt>
      <trkpt lat="45.93697" lon="4.72046">
        <ele>173</ele>
        <time>2018-05-09T08:31:30Z</time>
      </trkpt>
      <trkpt lat="45.93701" lon="4.72039">
        <ele>172</ele>
        <time>2018-05-09T08:31:31Z</time>
      </trkpt>
      <trkpt lat="45.93703" lon="4.72031">
        <ele>172</ele>
        <time>2018-05-09T08:31:32Z</time>
      </trkpt>
      <trkpt lat="45.93707" lon="4.72025">
        <ele>172</ele>
        <time>2018-05-09T08:31:33Z</time>
      </trkpt>
      <trkpt lat="45.93711" lon="4.72016">
        <ele>172</ele>
        <time>2018-05-09T08:31:34Z</time>
      </trkpt>
      <trkpt lat="45.93716" lon="4.7201">
        <ele>172</ele>
        <time>2018-05-09T08:31:35Z</time>
      </trkpt>
      <trkpt lat="45.9372" lon="4.72004">
        <ele>172</ele>
        <time>2018-05-09T08:31:36Z</time>
      </trkpt>
      <trkpt lat="45.93722" lon="4.71996">
        <ele>172</ele>
        <time>2018-05-09T08:31:37Z</time>
      </trkpt>
      <trkpt lat="45.93726" lon="4.71991">
        <ele>172</ele>
        <time>2018-05-09T08:31:38Z</time>
      </trkpt>
      <trkpt lat="45.9373" lon="4.71985">
        <ele>172</ele>
        <time>2018-05-09T08:31:39Z</time>
      </trkpt>
      <trkpt lat="45.93735" lon="4.71978">
        <ele>172</ele>
        <time>2018-05-09T08:31:40Z</time>
      </trkpt>
      <trkpt lat="45.93742" lon="4.71973">
        <ele>172</ele>
        <time>2018-05-09T08:31:41Z</time>
      </trkpt>
      <trkpt lat="45.93747" lon="4.71967">
        <ele>172</ele>
        <time>2018-05-09T08:31:42Z</time>
      </trkpt>
      <trkpt lat="45.9375" lon="4.71963">
        <ele>171</ele>
        <time>2018-05-09T08:31:43Z</time>
      </trkpt>
      <trkpt lat="45.93754" lon="4.71958">
        <ele>171</ele>
        <time>2018-05-09T08:31:44Z</time>
      </trkpt>
      <trkpt lat="45.9376" lon="4.71953">
        <ele>171</ele>
        <time>2018-05-09T08:31:45Z</time>
      </trkpt>
      <trkpt lat="45.93765" lon="4.71948">
        <ele>171</ele>
        <time>2018-05-09T08:31:46Z</time>
      </trkpt>
      <trkpt lat="45.93769" lon="4.71942">
        <ele>171</ele>
        <time>2018-05-09T08:31:47Z</time>
      </trkpt>
      <trkpt lat="45.93771" lon="4.71935">
        <ele>171</ele>
        <time>2018-05-09T08:31:48Z</time>
      </trkpt>
      <trkpt lat="45.93777" lon="4.71929">
        <ele>171</ele>
        <time>2018-05-09T08:31:49Z</time>
      </trkpt>
      <trkpt lat="45.9378" lon="4.71922">
        <ele>171</ele>
        <time>2018-05-09T08:31:50Z</time>
      </trkpt>
      <trkpt lat="45.93784" lon="4.71916">
        <ele>171</ele>
        <time>2018-05-09T08:31:51Z</time>
      </trkpt>
      <trkpt lat="45.93785" lon="4.7191">
        <ele>171</ele>
        <time>2018-05-09T08:31:52Z</time>
      </trkpt>
      <trkpt lat="45.93787" lon="4.71902">
        <ele>171</ele>
        <time>2018-05-09T08:31:53Z</time>
      </trkpt>
      <trkpt lat="45.93788" lon="4.71895">
        <ele>172</ele>
        <time>2018-05-09T08:31:54Z</time>
      </trkpt>
      <trkpt lat="45.9379" lon="4.71887">
        <ele>172</ele>
        <time>2018-05-09T08:31:55Z</time>
      </trkpt>
      <trkpt lat="45.93794" lon="4.71884">
        <ele>172</ele>
        <time>2018-05-09T08:31:56Z</time>
      </trkpt>
      <trkpt lat="45.93799" lon="4.71877">
        <ele>172</ele>
        <time>2018-05-09T08:31:57Z</time>
      </trkpt>
      <trkpt lat="45.93803" lon="4.7187">
        <ele>172</ele>
        <time>2018-05-09T08:31:58Z</time>
      </trkpt>
      <trkpt lat="45.93807" lon="4.71862">
        <ele>172</ele>
        <time>2018-05-09T08:31:59Z</time>
      </trkpt>
      <trkpt lat="45.93812" lon="4.71852">
        <ele>172</ele>
        <time>2018-05-09T08:32:00Z</time>
      </trkpt>
      <trkpt lat="45.93815" lon="4.71846">
        <ele>172</ele>
        <time>2018-05-09T08:32:01Z</time>
      </trkpt>
      <trkpt lat="45.9382" lon="4.7184">
        <ele>172</ele>
        <time>2018-05-09T08:32:02Z</time>
      </trkpt>
      <trkpt lat="45.93825" lon="4.71833">
        <ele>172</ele>
        <time>2018-05-09T08:32:03Z</time>
      </trkpt>
      <trkpt lat="45.93826" lon="4.71826">
        <ele>173</ele>
        <time>2018-05-09T08:32:04Z</time>
      </trkpt>
      <trkpt lat="45.93831" lon="4.7182">
        <ele>173</ele>
        <time>2018-05-09T08:32:05Z</time>
      </trkpt>
      <trkpt lat="45.93835" lon="4.71813">
        <ele>172</ele>
        <time>2018-05-09T08:32:06Z</time>
      </trkpt>
      <trkpt lat="45.93839" lon="4.71806">
        <ele>172</ele>
        <time>2018-05-09T08:32:07Z</time>
      </trkpt>
      <trkpt lat="45.93842" lon="4.71799">
        <ele>172</ele>
        <time>2018-05-09T08:32:08Z</time>
      </trkpt>
      <trkpt lat="45.93846" lon="4.71793">
        <ele>173</ele>
        <time>2018-05-09T08:32:09Z</time>
      </trkpt>
      <trkpt lat="45.93849" lon="4.71786">
        <ele>173</ele>
        <time>2018-05-09T08:32:10Z</time>
      </trkpt>
      <trkpt lat="45.93853" lon="4.71778">
        <ele>173</ele>
        <time>2018-05-09T08:32:11Z</time>
      </trkpt>
      <trkpt lat="45.93857" lon="4.71771">
        <ele>173</ele>
        <time>2018-05-09T08:32:12Z</time>
      </trkpt>
      <trkpt lat="45.93861" lon="4.71765">
        <ele>173</ele>
        <time>2018-05-09T08:32:13Z</time>
      </trkpt>
      <trkpt lat="45.93864" lon="4.71759">
        <ele>173</ele>
        <time>2018-05-09T08:32:14Z</time>
      </trkpt>
      <trkpt lat="45.93868" lon="4.71753">
        <ele>173</ele>
        <time>2018-05-09T08:32:15Z</time>
      </trkpt>
      <trkpt lat="45.93872" lon="4.71748">
        <ele>174</ele>
        <time>2018-05-09T08:32:16Z</time>
      </trkpt>
      <trkpt lat="45.93877" lon="4.71742">
        <ele>174</ele>
        <time>2018-05-09T08:32:17Z</time>
      </trkpt>
      <trkpt lat="45.93881" lon="4.71737">
        <ele>174</ele>
        <time>2018-05-09T08:32:18Z</time>
      </trkpt>
      <trkpt lat="45.93885" lon="4.71732">
        <ele>174</ele>
        <time>2018-05-09T08:32:19Z</time>
      </trkpt>
      <trkpt lat="45.93889" lon="4.71727">
        <ele>174</ele>
        <time>2018-05-09T08:32:20Z</time>
      </trkpt>
      <trkpt lat="45.93894" lon="4.71723">
        <ele>174</ele>
        <time>2018-05-09T08:32:21Z</time>
      </trkpt>
      <trkpt lat="45.93898" lon="4.71718">
        <ele>174</ele>
        <time>2018-05-09T08:32:22Z</time>
      </trkpt>
      <trkpt lat="45.93903" lon="4.71713">
        <ele>174</ele>
        <time>2018-05-09T08:32:23Z</time>
      </trkpt>
      <trkpt lat="45.93907" lon="4.71708">
        <ele>174</ele>
        <time>2018-05-09T08:32:24Z</time>
      </trkpt>
      <trkpt lat="45.93912" lon="4.71702">
        <ele>174</ele>
        <time>2018-05-09T08:32:25Z</time>
      </trkpt>
      <trkpt lat="45.93917" lon="4.71699">
        <ele>174</ele>
        <time>2018-05-09T08:32:26Z</time>
      </trkpt>
      <trkpt lat="45.93923" lon="4.71697">
        <ele>174</ele>
        <time>2018-05-09T08:32:27Z</time>
      </trkpt>
      <trkpt lat="45.93928" lon="4.71694">
        <ele>174</ele>
        <time>2018-05-09T08:32:28Z</time>
      </trkpt>
      <trkpt lat="45.93934" lon="4.71693">
        <ele>175</ele>
        <time>2018-05-09T08:32:29Z</time>
      </trkpt>
      <trkpt lat="45.9394" lon="4.7169">
        <ele>175</ele>
        <time>2018-05-09T08:32:30Z</time>
      </trkpt>
      <trkpt lat="45.93946" lon="4.71687">
        <ele>175</ele>
        <time>2018-05-09T08:32:31Z</time>
      </trkpt>
      <trkpt lat="45.93952" lon="4.71684">
        <ele>175</ele>
        <time>2018-05-09T08:32:32Z</time>
      </trkpt>
      <trkpt lat="45.93958" lon="4.7168">
        <ele>175</ele>
        <time>2018-05-09T08:32:33Z</time>
      </trkpt>
      <trkpt lat="45.93964" lon="4.71677">
        <ele>175</ele>
        <time>2018-05-09T08:32:34Z</time>
      </trkpt>
      <trkpt lat="45.93969" lon="4.71675">
        <ele>175</ele>
        <time>2018-05-09T08:32:35Z</time>
      </trkpt>
      <trkpt lat="45.93975" lon="4.71673">
        <ele>175</ele>
        <time>2018-05-09T08:32:36Z</time>
      </trkpt>
      <trkpt lat="45.9398" lon="4.71671">
        <ele>176</ele>
        <time>2018-05-09T08:32:37Z</time>
      </trkpt>
      <trkpt lat="45.93987" lon="4.71669">
        <ele>176</ele>
        <time>2018-05-09T08:32:38Z</time>
      </trkpt>
      <trkpt lat="45.93991" lon="4.71668">
        <ele>176</ele>
        <time>2018-05-09T08:32:39Z</time>
      </trkpt>
      <trkpt lat="45.93996" lon="4.7167">
        <ele>177</ele>
        <time>2018-05-09T08:32:40Z</time>
      </trkpt>
      <trkpt lat="45.94" lon="4.71675">
        <ele>176</ele>
        <time>2018-05-09T08:32:41Z</time>
      </trkpt>
      <trkpt lat="45.94004" lon="4.7168">
        <ele>176</ele>
        <time>2018-05-09T08:32:42Z</time>
      </trkpt>
      <trkpt lat="45.9401" lon="4.71681">
        <ele>176</ele>
        <time>2018-05-09T08:32:43Z</time>
      </trkpt>
      <trkpt lat="45.94015" lon="4.71678">
        <ele>175</ele>
        <time>2018-05-09T08:32:44Z</time>
      </trkpt>
      <trkpt lat="45.9402" lon="4.71674">
        <ele>175</ele>
        <time>2018-05-09T08:32:45Z</time>
      </trkpt>
      <trkpt lat="45.94025" lon="4.71666">
        <ele>175</ele>
        <time>2018-05-09T08:32:46Z</time>
      </trkpt>
      <trkpt lat="45.94026" lon="4.71661">
        <ele>175</ele>
        <time>2018-05-09T08:32:47Z</time>
      </trkpt>
      <trkpt lat="45.9403" lon="4.71655">
        <ele>175</ele>
        <time>2018-05-09T08:32:48Z</time>
      </trkpt>
      <trkpt lat="45.94034" lon="4.71651">
        <ele>175</ele>
        <time>2018-05-09T08:32:49Z</time>
      </trkpt>
      <trkpt lat="45.9404" lon="4.71647">
        <ele>175</ele>
        <time>2018-05-09T08:32:50Z</time>
      </trkpt>
      <trkpt lat="45.94046" lon="4.71644">
        <ele>175</ele>
        <time>2018-05-09T08:32:51Z</time>
      </trkpt>
      <trkpt lat="45.94052" lon="4.71643">
        <ele>175</ele>
        <time>2018-05-09T08:32:52Z</time>
      </trkpt>
      <trkpt lat="45.94057" lon="4.7164">
        <ele>174</ele>
        <time>2018-05-09T08:32:53Z</time>
      </trkpt>
      <trkpt lat="45.94063" lon="4.71637">
        <ele>174</ele>
        <time>2018-05-09T08:32:54Z</time>
      </trkpt>
      <trkpt lat="45.94069" lon="4.71635">
        <ele>174</ele>
        <time>2018-05-09T08:32:55Z</time>
      </trkpt>
      <trkpt lat="45.94075" lon="4.71633">
        <ele>174</ele>
        <time>2018-05-09T08:32:56Z</time>
      </trkpt>
      <trkpt lat="45.94082" lon="4.71631">
        <ele>174</ele>
        <time>2018-05-09T08:32:57Z</time>
      </trkpt>
      <trkpt lat="45.94088" lon="4.71629">
        <ele>173</ele>
        <time>2018-05-09T08:32:58Z</time>
      </trkpt>
      <trkpt lat="45.94092" lon="4.71627">
        <ele>173</ele>
        <time>2018-05-09T08:32:59Z</time>
      </trkpt>
      <trkpt lat="45.94098" lon="4.71625">
        <ele>173</ele>
        <time>2018-05-09T08:33:00Z</time>
      </trkpt>
      <trkpt lat="45.94105" lon="4.71623">
        <ele>173</ele>
        <time>2018-05-09T08:33:01Z</time>
      </trkpt>
      <trkpt lat="45.9411" lon="4.7162">
        <ele>173</ele>
        <time>2018-05-09T08:33:02Z</time>
      </trkpt>
      <trkpt lat="45.94118" lon="4.71619">
        <ele>173</ele>
        <time>2018-05-09T08:33:03Z</time>
      </trkpt>
      <trkpt lat="45.94125" lon="4.71617">
        <ele>173</ele>
        <time>2018-05-09T08:33:04Z</time>
      </trkpt>
      <trkpt lat="45.9413" lon="4.71615">
        <ele>173</ele>
        <time>2018-05-09T08:33:05Z</time>
      </trkpt>
      <trkpt lat="45.94136" lon="4.71611">
        <ele>173</ele>
        <time>2018-05-09T08:33:06Z</time>
      </trkpt>
      <trkpt lat="45.94142" lon="4.71608">
        <ele>173</ele>
        <time>2018-05-09T08:33:07Z</time>
      </trkpt>
      <trkpt lat="45.94148" lon="4.71605">
        <ele>173</ele>
        <time>2018-05-09T08:33:08Z</time>
      </trkpt>
      <trkpt lat="45.94154" lon="4.716">
        <ele>173</ele>
        <time>2018-05-09T08:33:09Z</time>
      </trkpt>
      <trkpt lat="45.94161" lon="4.71597">
        <ele>173</ele>
        <time>2018-05-09T08:33:10Z</time>
      </trkpt>
      <trkpt lat="45.94167" lon="4.71596">
        <ele>173</ele>
        <time>2018-05-09T08:33:11Z</time>
      </trkpt>
      <trkpt lat="45.94172" lon="4.71594">
        <ele>174</ele>
        <time>2018-05-09T08:33:12Z</time>
      </trkpt>
      <trkpt lat="45.94178" lon="4.71593">
        <ele>173</ele>
        <time>2018-05-09T08:33:13Z</time>
      </trkpt>
      <trkpt lat="45.94185" lon="4.7159">
        <ele>173</ele>
        <time>2018-05-09T08:33:14Z</time>
      </trkpt>
      <trkpt lat="45.94191" lon="4.71588">
        <ele>173</ele>
        <time>2018-05-09T08:33:15Z</time>
      </trkpt>
      <trkpt lat="45.94197" lon="4.71584">
        <ele>173</ele>
        <time>2018-05-09T08:33:16Z</time>
      </trkpt>
      <trkpt lat="45.94202" lon="4.71582">
        <ele>174</ele>
        <time>2018-05-09T08:33:17Z</time>
      </trkpt>
      <trkpt lat="45.94207" lon="4.7158">
        <ele>174</ele>
        <time>2018-05-09T08:33:18Z</time>
      </trkpt>
      <trkpt lat="45.94213" lon="4.71578">
        <ele>174</ele>
        <time>2018-05-09T08:33:19Z</time>
      </trkpt>
      <trkpt lat="45.94219" lon="4.71576">
        <ele>174</ele>
        <time>2018-05-09T08:33:20Z</time>
      </trkpt>
      <trkpt lat="45.94224" lon="4.71574">
        <ele>174</ele>
        <time>2018-05-09T08:33:21Z</time>
      </trkpt>
      <trkpt lat="45.9423" lon="4.71572">
        <ele>174</ele>
        <time>2018-05-09T08:33:22Z</time>
      </trkpt>
      <trkpt lat="45.94234" lon="4.71571">
        <ele>174</ele>
        <time>2018-05-09T08:33:23Z</time>
      </trkpt>
      <trkpt lat="45.94239" lon="4.71569">
        <ele>174</ele>
        <time>2018-05-09T08:33:24Z</time>
      </trkpt>
      <trkpt lat="45.94245" lon="4.71566">
        <ele>174</ele>
        <time>2018-05-09T08:33:25Z</time>
      </trkpt>
      <trkpt lat="45.94251" lon="4.71564">
        <ele>175</ele>
        <time>2018-05-09T08:33:26Z</time>
      </trkpt>
      <trkpt lat="45.94256" lon="4.71562">
        <ele>175</ele>
        <time>2018-05-09T08:33:27Z</time>
      </trkpt>
      <trkpt lat="45.94262" lon="4.71559">
        <ele>175</ele>
        <time>2018-05-09T08:33:28Z</time>
      </trkpt>
      <trkpt lat="45.94267" lon="4.71557">
        <ele>175</ele>
        <time>2018-05-09T08:33:29Z</time>
      </trkpt>
      <trkpt lat="45.94274" lon="4.71554">
        <ele>175</ele>
        <time>2018-05-09T08:33:30Z</time>
      </trkpt>
      <trkpt lat="45.94279" lon="4.71551">
        <ele>175</ele>
        <time>2018-05-09T08:33:31Z</time>
      </trkpt>
      <trkpt lat="45.94285" lon="4.71548">
        <ele>175</ele>
        <time>2018-05-09T08:33:32Z</time>
      </trkpt>
      <trkpt lat="45.94289" lon="4.71548">
        <ele>175</ele>
        <time>2018-05-09T08:33:33Z</time>
      </trkpt>
      <trkpt lat="45.94293" lon="4.71545">
        <ele>175</ele>
        <time>2018-05-09T08:33:34Z</time>
      </trkpt>
      <trkpt lat="45.94299" lon="4.71544">
        <ele>175</ele>
        <time>2018-05-09T08:33:35Z</time>
      </trkpt>
      <trkpt lat="45.94304" lon="4.71541">
        <ele>175</ele>
        <time>2018-05-09T08:33:36Z</time>
      </trkpt>
      <trkpt lat="45.9431" lon="4.71539">
        <ele>175</ele>
        <time>2018-05-09T08:33:37Z</time>
      </trkpt>
      <trkpt lat="45.94318" lon="4.71537">
        <ele>175</ele>
        <time>2018-05-09T08:33:39Z</time>
      </trkpt>
      <trkpt lat="45.94324" lon="4.71534">
        <ele>176</ele>
        <time>2018-05-09T08:33:40Z</time>
      </trkpt>
      <trkpt lat="45.94332" lon="4.71534">
        <ele>176</ele>
        <time>2018-05-09T08:33:42Z</time>
      </trkpt>
      <trkpt lat="45.94335" lon="4.71534">
        <ele>176</ele>
        <time>2018-05-09T08:33:43Z</time>
      </trkpt>
      <trkpt lat="45.94345" lon="4.7153">
        <ele>176</ele>
        <time>2018-05-09T08:33:44Z</time>
      </trkpt>
      <trkpt lat="45.9435" lon="4.71528">
        <ele>176</ele>
        <time>2018-05-09T08:33:45Z</time>
      </trkpt>
      <trkpt lat="45.94355" lon="4.71526">
        <ele>176</ele>
        <time>2018-05-09T08:33:46Z</time>
      </trkpt>
      <trkpt lat="45.94359" lon="4.71525">
        <ele>176</ele>
        <time>2018-05-09T08:33:47Z</time>
      </trkpt>
      <trkpt lat="45.94364" lon="4.71523">
        <ele>176</ele>
        <time>2018-05-09T08:33:48Z</time>
      </trkpt>
      <trkpt lat="45.94369" lon="4.71522">
        <ele>176</ele>
        <time>2018-05-09T08:33:49Z</time>
      </trkpt>
      <trkpt lat="45.94373" lon="4.71519">
        <ele>176</ele>
        <time>2018-05-09T08:33:50Z</time>
      </trkpt>
      <trkpt lat="45.94378" lon="4.71517">
        <ele>176</ele>
        <time>2018-05-09T08:33:51Z</time>
      </trkpt>
      <trkpt lat="45.94382" lon="4.71515">
        <ele>177</ele>
        <time>2018-05-09T08:33:52Z</time>
      </trkpt>
      <trkpt lat="45.94387" lon="4.71513">
        <ele>177</ele>
        <time>2018-05-09T08:33:53Z</time>
      </trkpt>
      <trkpt lat="45.94392" lon="4.71511">
        <ele>177</ele>
        <time>2018-05-09T08:33:54Z</time>
      </trkpt>
      <trkpt lat="45.94397" lon="4.71508">
        <ele>177</ele>
        <time>2018-05-09T08:33:55Z</time>
      </trkpt>
      <trkpt lat="45.94402" lon="4.71504">
        <ele>177</ele>
        <time>2018-05-09T08:33:56Z</time>
      </trkpt>
      <trkpt lat="45.94407" lon="4.71502">
        <ele>177</ele>
        <time>2018-05-09T08:33:57Z</time>
      </trkpt>
      <trkpt lat="45.94413" lon="4.715">
        <ele>178</ele>
        <time>2018-05-09T08:33:58Z</time>
      </trkpt>
      <trkpt lat="45.94417" lon="4.71499">
        <ele>178</ele>
        <time>2018-05-09T08:33:59Z</time>
      </trkpt>
      <trkpt lat="45.94423" lon="4.71497">
        <ele>178</ele>
        <time>2018-05-09T08:34:00Z</time>
      </trkpt>
      <trkpt lat="45.94428" lon="4.71495">
        <ele>178</ele>
        <time>2018-05-09T08:34:01Z</time>
      </trkpt>
      <trkpt lat="45.94433" lon="4.71493">
        <ele>178</ele>
        <time>2018-05-09T08:34:02Z</time>
      </trkpt>
      <trkpt lat="45.94437" lon="4.71491">
        <ele>178</ele>
        <time>2018-05-09T08:34:03Z</time>
      </trkpt>
      <trkpt lat="45.94444" lon="4.7149">
        <ele>179</ele>
        <time>2018-05-09T08:34:04Z</time>
      </trkpt>
      <trkpt lat="45.94449" lon="4.71487">
        <ele>179</ele>
        <time>2018-05-09T08:34:05Z</time>
      </trkpt>
      <trkpt lat="45.94452" lon="4.71486">
        <ele>179</ele>
        <time>2018-05-09T08:34:06Z</time>
      </trkpt>
      <trkpt lat="45.94457" lon="4.71484">
        <ele>179</ele>
        <time>2018-05-09T08:34:07Z</time>
      </trkpt>
      <trkpt lat="45.94462" lon="4.71481">
        <ele>179</ele>
        <time>2018-05-09T08:34:08Z</time>
      </trkpt>
      <trkpt lat="45.94471" lon="4.7148">
        <ele>179</ele>
        <time>2018-05-09T08:34:10Z</time>
      </trkpt>
      <trkpt lat="45.94477" lon="4.71477">
        <ele>179</ele>
        <time>2018-05-09T08:34:11Z</time>
      </trkpt>
      <trkpt lat="45.94486" lon="4.71476">
        <ele>179</ele>
        <time>2018-05-09T08:34:13Z</time>
      </trkpt>
      <trkpt lat="45.94487" lon="4.71476">
        <ele>179</ele>
        <time>2018-05-09T08:34:14Z</time>
      </trkpt>
      <trkpt lat="45.94491" lon="4.71473">
        <ele>179</ele>
        <time>2018-05-09T08:34:15Z</time>
      </trkpt>
      <trkpt lat="45.94496" lon="4.7147">
        <ele>179</ele>
        <time>2018-05-09T08:34:16Z</time>
      </trkpt>
      <trkpt lat="45.94504" lon="4.71468">
        <ele>179</ele>
        <time>2018-05-09T08:34:18Z</time>
      </trkpt>
      <trkpt lat="45.94508" lon="4.71467">
        <ele>179</ele>
        <time>2018-05-09T08:34:19Z</time>
      </trkpt>
      <trkpt lat="45.94515" lon="4.71465">
        <ele>180</ele>
        <time>2018-05-09T08:34:20Z</time>
      </trkpt>
      <trkpt lat="45.94519" lon="4.71462">
        <ele>180</ele>
        <time>2018-05-09T08:34:21Z</time>
      </trkpt>
      <trkpt lat="45.94524" lon="4.71461">
        <ele>180</ele>
        <time>2018-05-09T08:34:22Z</time>
      </trkpt>
      <trkpt lat="45.9453" lon="4.71456">
        <ele>180</ele>
        <time>2018-05-09T08:34:23Z</time>
      </trkpt>
      <trkpt lat="45.94536" lon="4.71456">
        <ele>180</ele>
        <time>2018-05-09T08:34:24Z</time>
      </trkpt>
      <trkpt lat="45.9454" lon="4.71454">
        <ele>180</ele>
        <time>2018-05-09T08:34:25Z</time>
      </trkpt>
      <trkpt lat="45.94545" lon="4.71452">
        <ele>180</ele>
        <time>2018-05-09T08:34:26Z</time>
      </trkpt>
      <trkpt lat="45.9455" lon="4.71449">
        <ele>180</ele>
        <time>2018-05-09T08:34:27Z</time>
      </trkpt>
      <trkpt lat="45.94558" lon="4.71447">
        <ele>181</ele>
        <time>2018-05-09T08:34:29Z</time>
      </trkpt>
      <trkpt lat="45.94564" lon="4.71446">
        <ele>181</ele>
        <time>2018-05-09T08:34:30Z</time>
      </trkpt>
      <trkpt lat="45.94569" lon="4.71446">
        <ele>181</ele>
        <time>2018-05-09T08:34:31Z</time>
      </trkpt>
      <trkpt lat="45.94573" lon="4.71445">
        <ele>181</ele>
        <time>2018-05-09T08:34:32Z</time>
      </trkpt>
      <trkpt lat="45.94578" lon="4.71444">
        <ele>181</ele>
        <time>2018-05-09T08:34:33Z</time>
      </trkpt>
      <trkpt lat="45.94582" lon="4.71444">
        <ele>181</ele>
        <time>2018-05-09T08:34:34Z</time>
      </trkpt>
      <trkpt lat="45.94587" lon="4.71445">
        <ele>182</ele>
        <time>2018-05-09T08:34:35Z</time>
      </trkpt>
      <trkpt lat="45.94593" lon="4.71443">
        <ele>182</ele>
        <time>2018-05-09T08:34:36Z</time>
      </trkpt>
      <trkpt lat="45.94601" lon="4.71444">
        <ele>181</ele>
        <time>2018-05-09T08:34:38Z</time>
      </trkpt>
      <trkpt lat="45.94605" lon="4.71444">
        <ele>181</ele>
        <time>2018-05-09T08:34:39Z</time>
      </trkpt>
      <trkpt lat="45.94609" lon="4.71445">
        <ele>181</ele>
        <time>2018-05-09T08:34:40Z</time>
      </trkpt>
      <trkpt lat="45.94615" lon="4.71446">
        <ele>181</ele>
        <time>2018-05-09T08:34:41Z</time>
      </trkpt>
      <trkpt lat="45.9462" lon="4.71445">
        <ele>181</ele>
        <time>2018-05-09T08:34:42Z</time>
      </trkpt>
      <trkpt lat="45.94625" lon="4.71445">
        <ele>181</ele>
        <time>2018-05-09T08:34:43Z</time>
      </trkpt>
      <trkpt lat="45.9463" lon="4.71446">
        <ele>181</ele>
        <time>2018-05-09T08:34:44Z</time>
      </trkpt>
      <trkpt lat="45.94635" lon="4.71447">
        <ele>181</ele>
        <time>2018-05-09T08:34:45Z</time>
      </trkpt>
      <trkpt lat="45.94644" lon="4.71446">
        <ele>181</ele>
        <time>2018-05-09T08:34:47Z</time>
      </trkpt>
      <trkpt lat="45.94649" lon="4.71446">
        <ele>181</ele>
        <time>2018-05-09T08:34:48Z</time>
      </trkpt>
      <trkpt lat="45.94656" lon="4.71447">
        <ele>181</ele>
        <time>2018-05-09T08:34:50Z</time>
      </trkpt>
      <trkpt lat="45.94661" lon="4.71449">
        <ele>181</ele>
        <time>2018-05-09T08:34:51Z</time>
      </trkpt>
      <trkpt lat="45.94668" lon="4.71448">
        <ele>182</ele>
        <time>2018-05-09T08:34:53Z</time>
      </trkpt>
      <trkpt lat="45.94674" lon="4.71448">
        <ele>182</ele>
        <time>2018-05-09T08:34:54Z</time>
      </trkpt>
      <trkpt lat="45.94679" lon="4.71449">
        <ele>182</ele>
        <time>2018-05-09T08:34:55Z</time>
      </trkpt>
      <trkpt lat="45.94683" lon="4.7145">
        <ele>182</ele>
        <time>2018-05-09T08:34:56Z</time>
      </trkpt>
      <trkpt lat="45.94688" lon="4.7145">
        <ele>182</ele>
        <time>2018-05-09T08:34:57Z</time>
      </trkpt>
      <trkpt lat="45.94693" lon="4.71451">
        <ele>182</ele>
        <time>2018-05-09T08:34:58Z</time>
      </trkpt>
      <trkpt lat="45.94699" lon="4.71451">
        <ele>182</ele>
        <time>2018-05-09T08:34:59Z</time>
      </trkpt>
      <trkpt lat="45.94704" lon="4.71452">
        <ele>182</ele>
        <time>2018-05-09T08:35:00Z</time>
      </trkpt>
      <trkpt lat="45.94708" lon="4.71452">
        <ele>182</ele>
        <time>2018-05-09T08:35:01Z</time>
      </trkpt>
      <trkpt lat="45.94713" lon="4.71453">
        <ele>182</ele>
        <time>2018-05-09T08:35:02Z</time>
      </trkpt>
      <trkpt lat="45.94718" lon="4.71453">
        <ele>182</ele>
        <time>2018-05-09T08:35:03Z</time>
      </trkpt>
      <trkpt lat="45.94724" lon="4.71454">
        <ele>182</ele>
        <time>2018-05-09T08:35:04Z</time>
      </trkpt>
      <trkpt lat="45.9473" lon="4.71453">
        <ele>182</ele>
        <time>2018-05-09T08:35:05Z</time>
      </trkpt>
      <trkpt lat="45.94737" lon="4.71455">
        <ele>182</ele>
        <time>2018-05-09T08:35:06Z</time>
      </trkpt>
      <trkpt lat="45.94741" lon="4.71455">
        <ele>182</ele>
        <time>2018-05-09T08:35:07Z</time>
      </trkpt>
      <trkpt lat="45.94747" lon="4.71455">
        <ele>182</ele>
        <time>2018-05-09T08:35:08Z</time>
      </trkpt>
      <trkpt lat="45.94753" lon="4.71456">
        <ele>183</ele>
        <time>2018-05-09T08:35:09Z</time>
      </trkpt>
      <trkpt lat="45.9476" lon="4.71457">
        <ele>183</ele>
        <time>2018-05-09T08:35:10Z</time>
      </trkpt>
      <trkpt lat="45.94766" lon="4.71457">
        <ele>183</ele>
        <time>2018-05-09T08:35:11Z</time>
      </trkpt>
      <trkpt lat="45.94772" lon="4.71456">
        <ele>183</ele>
        <time>2018-05-09T08:35:12Z</time>
      </trkpt>
      <trkpt lat="45.94778" lon="4.71456">
        <ele>183</ele>
        <time>2018-05-09T08:35:13Z</time>
      </trkpt>
      <trkpt lat="45.94783" lon="4.71456">
        <ele>183</ele>
        <time>2018-05-09T08:35:14Z</time>
      </trkpt>
      <trkpt lat="45.9479" lon="4.71455">
        <ele>183</ele>
        <time>2018-05-09T08:35:15Z</time>
      </trkpt>
      <trkpt lat="45.94795" lon="4.71455">
        <ele>183</ele>
        <time>2018-05-09T08:35:16Z</time>
      </trkpt>
      <trkpt lat="45.948" lon="4.71455">
        <ele>183</ele>
        <time>2018-05-09T08:35:17Z</time>
      </trkpt>
      <trkpt lat="45.94807" lon="4.71458">
        <ele>183</ele>
        <time>2018-05-09T08:35:18Z</time>
      </trkpt>
      <trkpt lat="45.94813" lon="4.71458">
        <ele>183</ele>
        <time>2018-05-09T08:35:19Z</time>
      </trkpt>
      <trkpt lat="45.94817" lon="4.71459">
        <ele>183</ele>
        <time>2018-05-09T08:35:20Z</time>
      </trkpt>
      <trkpt lat="45.94822" lon="4.71458">
        <ele>183</ele>
        <time>2018-05-09T08:35:21Z</time>
      </trkpt>
      <trkpt lat="45.94827" lon="4.71458">
        <ele>183</ele>
        <time>2018-05-09T08:35:22Z</time>
      </trkpt>
      <trkpt lat="45.94832" lon="4.7146">
        <ele>183</ele>
        <time>2018-05-09T08:35:23Z</time>
      </trkpt>
      <trkpt lat="45.94838" lon="4.71462">
        <ele>183</ele>
        <time>2018-05-09T08:35:24Z</time>
      </trkpt>
      <trkpt lat="45.94844" lon="4.71463">
        <ele>183</ele>
        <time>2018-05-09T08:35:25Z</time>
      </trkpt>
      <trkpt lat="45.9485" lon="4.71464">
        <ele>183</ele>
        <time>2018-05-09T08:35:26Z</time>
      </trkpt>
      <trkpt lat="45.94856" lon="4.71464">
        <ele>183</ele>
        <time>2018-05-09T08:35:27Z</time>
      </trkpt>
      <trkpt lat="45.94862" lon="4.71466">
        <ele>183</ele>
        <time>2018-05-09T08:35:28Z</time>
      </trkpt>
      <trkpt lat="45.94868" lon="4.71467">
        <ele>183</ele>
        <time>2018-05-09T08:35:29Z</time>
      </trkpt>
      <trkpt lat="45.94874" lon="4.71468">
        <ele>183</ele>
        <time>2018-05-09T08:35:30Z</time>
      </trkpt>
      <trkpt lat="45.94879" lon="4.71469">
        <ele>183</ele>
        <time>2018-05-09T08:35:31Z</time>
      </trkpt>
      <trkpt lat="45.94883" lon="4.71468">
        <ele>183</ele>
        <time>2018-05-09T08:35:32Z</time>
      </trkpt>
      <trkpt lat="45.94887" lon="4.71469">
        <ele>183</ele>
        <time>2018-05-09T08:35:33Z</time>
      </trkpt>
      <trkpt lat="45.94892" lon="4.7147">
        <ele>183</ele>
        <time>2018-05-09T08:35:34Z</time>
      </trkpt>
      <trkpt lat="45.94898" lon="4.71471">
        <ele>183</ele>
        <time>2018-05-09T08:35:35Z</time>
      </trkpt>
      <trkpt lat="45.94903" lon="4.71473">
        <ele>183</ele>
        <time>2018-05-09T08:35:36Z</time>
      </trkpt>
      <trkpt lat="45.94909" lon="4.71473">
        <ele>183</ele>
        <time>2018-05-09T08:35:37Z</time>
      </trkpt>
      <trkpt lat="45.94914" lon="4.71474">
        <ele>183</ele>
        <time>2018-05-09T08:35:38Z</time>
      </trkpt>
      <trkpt lat="45.94921" lon="4.71475">
        <ele>182</ele>
        <time>2018-05-09T08:35:39Z</time>
      </trkpt>
      <trkpt lat="45.94926" lon="4.71475">
        <ele>183</ele>
        <time>2018-05-09T08:35:40Z</time>
      </trkpt>
      <trkpt lat="45.94931" lon="4.71475">
        <ele>183</ele>
        <time>2018-05-09T08:35:41Z</time>
      </trkpt>
      <trkpt lat="45.94936" lon="4.71475">
        <ele>183</ele>
        <time>2018-05-09T08:35:42Z</time>
      </trkpt>
      <trkpt lat="45.94941" lon="4.71474">
        <ele>183</ele>
        <time>2018-05-09T08:35:43Z</time>
      </trkpt>
      <trkpt lat="45.94945" lon="4.71474">
        <ele>183</ele>
        <time>2018-05-09T08:35:44Z</time>
      </trkpt>
      <trkpt lat="45.94951" lon="4.71474">
        <ele>183</ele>
        <time>2018-05-09T08:35:45Z</time>
      </trkpt>
      <trkpt lat="45.94956" lon="4.71477">
        <ele>183</ele>
        <time>2018-05-09T08:35:46Z</time>
      </trkpt>
      <trkpt lat="45.9496" lon="4.7148">
        <ele>183</ele>
        <time>2018-05-09T08:35:47Z</time>
      </trkpt>
      <trkpt lat="45.94965" lon="4.71484">
        <ele>182</ele>
        <time>2018-05-09T08:35:48Z</time>
      </trkpt>
      <trkpt lat="45.94971" lon="4.71487">
        <ele>182</ele>
        <time>2018-05-09T08:35:49Z</time>
      </trkpt>
      <trkpt lat="45.94977" lon="4.71488">
        <ele>182</ele>
        <time>2018-05-09T08:35:50Z</time>
      </trkpt>
      <trkpt lat="45.94982" lon="4.71487">
        <ele>182</ele>
        <time>2018-05-09T08:35:51Z</time>
      </trkpt>
      <trkpt lat="45.94987" lon="4.71482">
        <ele>182</ele>
        <time>2018-05-09T08:35:52Z</time>
      </trkpt>
      <trkpt lat="45.94992" lon="4.71478">
        <ele>182</ele>
        <time>2018-05-09T08:35:53Z</time>
      </trkpt>
      <trkpt lat="45.94998" lon="4.71476">
        <ele>182</ele>
        <time>2018-05-09T08:35:54Z</time>
      </trkpt>
      <trkpt lat="45.95002" lon="4.71474">
        <ele>182</ele>
        <time>2018-05-09T08:35:55Z</time>
      </trkpt>
      <trkpt lat="45.95007" lon="4.71474">
        <ele>182</ele>
        <time>2018-05-09T08:35:56Z</time>
      </trkpt>
      <trkpt lat="45.95012" lon="4.71475">
        <ele>182</ele>
        <time>2018-05-09T08:35:57Z</time>
      </trkpt>
      <trkpt lat="45.95018" lon="4.71475">
        <ele>182</ele>
        <time>2018-05-09T08:35:58Z</time>
      </trkpt>
      <trkpt lat="45.95023" lon="4.71476">
        <ele>181</ele>
        <time>2018-05-09T08:35:59Z</time>
      </trkpt>
      <trkpt lat="45.95029" lon="4.71476">
        <ele>181</ele>
        <time>2018-05-09T08:36:00Z</time>
      </trkpt>
      <trkpt lat="45.95036" lon="4.71478">
        <ele>181</ele>
        <time>2018-05-09T08:36:01Z</time>
      </trkpt>
      <trkpt lat="45.95043" lon="4.71479">
        <ele>181</ele>
        <time>2018-05-09T08:36:02Z</time>
      </trkpt>
      <trkpt lat="45.9505" lon="4.71479">
        <ele>181</ele>
        <time>2018-05-09T08:36:03Z</time>
      </trkpt>
      <trkpt lat="45.95057" lon="4.71477">
        <ele>181</ele>
        <time>2018-05-09T08:36:04Z</time>
      </trkpt>
      <trkpt lat="45.95065" lon="4.71477">
        <ele>181</ele>
        <time>2018-05-09T08:36:05Z</time>
      </trkpt>
      <trkpt lat="45.95073" lon="4.71477">
        <ele>181</ele>
        <time>2018-05-09T08:36:06Z</time>
      </trkpt>
      <trkpt lat="45.95081" lon="4.71476">
        <ele>181</ele>
        <time>2018-05-09T08:36:07Z</time>
      </trkpt>
      <trkpt lat="45.95089" lon="4.71475">
        <ele>179</ele>
        <time>2018-05-09T08:36:08Z</time>
      </trkpt>
      <trkpt lat="45.95097" lon="4.71476">
        <ele>179</ele>
        <time>2018-05-09T08:36:09Z</time>
      </trkpt>
      <trkpt lat="45.95106" lon="4.71476">
        <ele>179</ele>
        <time>2018-05-09T08:36:10Z</time>
      </trkpt>
      <trkpt lat="45.95113" lon="4.71476">
        <ele>179</ele>
        <time>2018-05-09T08:36:11Z</time>
      </trkpt>
      <trkpt lat="45.95122" lon="4.71475">
        <ele>178</ele>
        <time>2018-05-09T08:36:12Z</time>
      </trkpt>
      <trkpt lat="45.9513" lon="4.71475">
        <ele>178</ele>
        <time>2018-05-09T08:36:13Z</time>
      </trkpt>
      <trkpt lat="45.95139" lon="4.71476">
        <ele>178</ele>
        <time>2018-05-09T08:36:14Z</time>
      </trkpt>
      <trkpt lat="45.95146" lon="4.71477">
        <ele>178</ele>
        <time>2018-05-09T08:36:15Z</time>
      </trkpt>
      <trkpt lat="45.95155" lon="4.71478">
        <ele>178</ele>
        <time>2018-05-09T08:36:16Z</time>
      </trkpt>
      <trkpt lat="45.95163" lon="4.71478">
        <ele>178</ele>
        <time>2018-05-09T08:36:17Z</time>
      </trkpt>
      <trkpt lat="45.95171" lon="4.71479">
        <ele>177</ele>
        <time>2018-05-09T08:36:18Z</time>
      </trkpt>
      <trkpt lat="45.9518" lon="4.71479">
        <ele>177</ele>
        <time>2018-05-09T08:36:19Z</time>
      </trkpt>
      <trkpt lat="45.95188" lon="4.7148">
        <ele>177</ele>
        <time>2018-05-09T08:36:20Z</time>
      </trkpt>
      <trkpt lat="45.95196" lon="4.71482">
        <ele>177</ele>
        <time>2018-05-09T08:36:21Z</time>
      </trkpt>
      <trkpt lat="45.95204" lon="4.71483">
        <ele>177</ele>
        <time>2018-05-09T08:36:22Z</time>
      </trkpt>
      <trkpt lat="45.95213" lon="4.71485">
        <ele>177</ele>
        <time>2018-05-09T08:36:23Z</time>
      </trkpt>
      <trkpt lat="45.95221" lon="4.71486">
        <ele>177</ele>
        <time>2018-05-09T08:36:24Z</time>
      </trkpt>
      <trkpt lat="45.95232" lon="4.71485">
        <ele>177</ele>
        <time>2018-05-09T08:36:25Z</time>
      </trkpt>
      <trkpt lat="45.9524" lon="4.71485">
        <ele>177</ele>
        <time>2018-05-09T08:36:26Z</time>
      </trkpt>
      <trkpt lat="45.95247" lon="4.71485">
        <ele>177</ele>
        <time>2018-05-09T08:36:27Z</time>
      </trkpt>
      <trkpt lat="45.95254" lon="4.71487">
        <ele>176</ele>
        <time>2018-05-09T08:36:28Z</time>
      </trkpt>
      <trkpt lat="45.95262" lon="4.71489">
        <ele>176</ele>
        <time>2018-05-09T08:36:29Z</time>
      </trkpt>
      <trkpt lat="45.95269" lon="4.71491">
        <ele>176</ele>
        <time>2018-05-09T08:36:30Z</time>
      </trkpt>
      <trkpt lat="45.95275" lon="4.71491">
        <ele>176</ele>
        <time>2018-05-09T08:36:31Z</time>
      </trkpt>
      <trkpt lat="45.95283" lon="4.71492">
        <ele>176</ele>
        <time>2018-05-09T08:36:32Z</time>
      </trkpt>
      <trkpt lat="45.9529" lon="4.71493">
        <ele>176</ele>
        <time>2018-05-09T08:36:33Z</time>
      </trkpt>
      <trkpt lat="45.95296" lon="4.71494">
        <ele>176</ele>
        <time>2018-05-09T08:36:34Z</time>
      </trkpt>
      <trkpt lat="45.95303" lon="4.71494">
        <ele>175</ele>
        <time>2018-05-09T08:36:35Z</time>
      </trkpt>
      <trkpt lat="45.95309" lon="4.71495">
        <ele>175</ele>
        <time>2018-05-09T08:36:36Z</time>
      </trkpt>
      <trkpt lat="45.95318" lon="4.71496">
        <ele>175</ele>
        <time>2018-05-09T08:36:37Z</time>
      </trkpt>
      <trkpt lat="45.95327" lon="4.71495">
        <ele>175</ele>
        <time>2018-05-09T08:36:38Z</time>
      </trkpt>
      <trkpt lat="45.95335" lon="4.71496">
        <ele>174</ele>
        <time>2018-05-09T08:36:39Z</time>
      </trkpt>
      <trkpt lat="45.95342" lon="4.71496">
        <ele>174</ele>
        <time>2018-05-09T08:36:40Z</time>
      </trkpt>
      <trkpt lat="45.9535" lon="4.71497">
        <ele>175</ele>
        <time>2018-05-09T08:36:41Z</time>
      </trkpt>
      <trkpt lat="45.95357" lon="4.71498">
        <ele>175</ele>
        <time>2018-05-09T08:36:42Z</time>
      </trkpt>
      <trkpt lat="45.95364" lon="4.71499">
        <ele>175</ele>
        <time>2018-05-09T08:36:43Z</time>
      </trkpt>
      <trkpt lat="45.95372" lon="4.71499">
        <ele>175</ele>
        <time>2018-05-09T08:36:44Z</time>
      </trkpt>
      <trkpt lat="45.95378" lon="4.71499">
        <ele>175</ele>
        <time>2018-05-09T08:36:45Z</time>
      </trkpt>
      <trkpt lat="45.95384" lon="4.71499">
        <ele>175</ele>
        <time>2018-05-09T08:36:46Z</time>
      </trkpt>
      <trkpt lat="45.9539" lon="4.71499">
        <ele>175</ele>
        <time>2018-05-09T08:36:47Z</time>
      </trkpt>
      <trkpt lat="45.95396" lon="4.715">
        <ele>175</ele>
        <time>2018-05-09T08:36:48Z</time>
      </trkpt>
      <trkpt lat="45.95402" lon="4.715">
        <ele>174</ele>
        <time>2018-05-09T08:36:49Z</time>
      </trkpt>
      <trkpt lat="45.95409" lon="4.71499">
        <ele>174</ele>
        <time>2018-05-09T08:36:50Z</time>
      </trkpt>
      <trkpt lat="45.95416" lon="4.71498">
        <ele>174</ele>
        <time>2018-05-09T08:36:51Z</time>
      </trkpt>
      <trkpt lat="45.95423" lon="4.71498">
        <ele>175</ele>
        <time>2018-05-09T08:36:52Z</time>
      </trkpt>
      <trkpt lat="45.95429" lon="4.71498">
        <ele>175</ele>
        <time>2018-05-09T08:36:53Z</time>
      </trkpt>
      <trkpt lat="45.95435" lon="4.715">
        <ele>175</ele>
        <time>2018-05-09T08:36:54Z</time>
      </trkpt>
      <trkpt lat="45.95442" lon="4.715">
        <ele>175</ele>
        <time>2018-05-09T08:36:55Z</time>
      </trkpt>
      <trkpt lat="45.95448" lon="4.71501">
        <ele>175</ele>
        <time>2018-05-09T08:36:56Z</time>
      </trkpt>
      <trkpt lat="45.95454" lon="4.71503">
        <ele>175</ele>
        <time>2018-05-09T08:36:57Z</time>
      </trkpt>
      <trkpt lat="45.9546" lon="4.71504">
        <ele>175</ele>
        <time>2018-05-09T08:36:58Z</time>
      </trkpt>
      <trkpt lat="45.95465" lon="4.71504">
        <ele>175</ele>
        <time>2018-05-09T08:36:59Z</time>
      </trkpt>
      <trkpt lat="45.95472" lon="4.71504">
        <ele>176</ele>
        <time>2018-05-09T08:37:00Z</time>
      </trkpt>
      <trkpt lat="45.95478" lon="4.71504">
        <ele>176</ele>
        <time>2018-05-09T08:37:01Z</time>
      </trkpt>
      <trkpt lat="45.95484" lon="4.71505">
        <ele>176</ele>
        <time>2018-05-09T08:37:02Z</time>
      </trkpt>
      <trkpt lat="45.95491" lon="4.71505">
        <ele>176</ele>
        <time>2018-05-09T08:37:03Z</time>
      </trkpt>
      <trkpt lat="45.95497" lon="4.71505">
        <ele>177</ele>
        <time>2018-05-09T08:37:04Z</time>
      </trkpt>
      <trkpt lat="45.95503" lon="4.71505">
        <ele>177</ele>
        <time>2018-05-09T08:37:05Z</time>
      </trkpt>
      <trkpt lat="45.95508" lon="4.71506">
        <ele>177</ele>
        <time>2018-05-09T08:37:06Z</time>
      </trkpt>
      <trkpt lat="45.95514" lon="4.71505">
        <ele>177</ele>
        <time>2018-05-09T08:37:07Z</time>
      </trkpt>
      <trkpt lat="45.9552" lon="4.71506">
        <ele>177</ele>
        <time>2018-05-09T08:37:08Z</time>
      </trkpt>
      <trkpt lat="45.95526" lon="4.71506">
        <ele>177</ele>
        <time>2018-05-09T08:37:09Z</time>
      </trkpt>
      <trkpt lat="45.95531" lon="4.71508">
        <ele>177</ele>
        <time>2018-05-09T08:37:10Z</time>
      </trkpt>
      <trkpt lat="45.95537" lon="4.71509">
        <ele>177</ele>
        <time>2018-05-09T08:37:11Z</time>
      </trkpt>
      <trkpt lat="45.95544" lon="4.7151">
        <ele>178</ele>
        <time>2018-05-09T08:37:12Z</time>
      </trkpt>
      <trkpt lat="45.9555" lon="4.71511">
        <ele>178</ele>
        <time>2018-05-09T08:37:13Z</time>
      </trkpt>
      <trkpt lat="45.95556" lon="4.71511">
        <ele>178</ele>
        <time>2018-05-09T08:37:14Z</time>
      </trkpt>
      <trkpt lat="45.95563" lon="4.71512">
        <ele>178</ele>
        <time>2018-05-09T08:37:15Z</time>
      </trkpt>
      <trkpt lat="45.95569" lon="4.71514">
        <ele>178</ele>
        <time>2018-05-09T08:37:16Z</time>
      </trkpt>
      <trkpt lat="45.95575" lon="4.71515">
        <ele>178</ele>
        <time>2018-05-09T08:37:17Z</time>
      </trkpt>
      <trkpt lat="45.95581" lon="4.71515">
        <ele>179</ele>
        <time>2018-05-09T08:37:18Z</time>
      </trkpt>
      <trkpt lat="45.95587" lon="4.71515">
        <ele>179</ele>
        <time>2018-05-09T08:37:19Z</time>
      </trkpt>
      <trkpt lat="45.95592" lon="4.71514">
        <ele>179</ele>
        <time>2018-05-09T08:37:20Z</time>
      </trkpt>
      <trkpt lat="45.95598" lon="4.71515">
        <ele>179</ele>
        <time>2018-05-09T08:37:21Z</time>
      </trkpt>
      <trkpt lat="45.95603" lon="4.71515">
        <ele>179</ele>
        <time>2018-05-09T08:37:22Z</time>
      </trkpt>
      <trkpt lat="45.95609" lon="4.71516">
        <ele>179</ele>
        <time>2018-05-09T08:37:23Z</time>
      </trkpt>
      <trkpt lat="45.95614" lon="4.71516">
        <ele>179</ele>
        <time>2018-05-09T08:37:24Z</time>
      </trkpt>
      <trkpt lat="45.95619" lon="4.71516">
        <ele>179</ele>
        <time>2018-05-09T08:37:25Z</time>
      </trkpt>
      <trkpt lat="45.95624" lon="4.71518">
        <ele>179</ele>
        <time>2018-05-09T08:37:26Z</time>
      </trkpt>
      <trkpt lat="45.95631" lon="4.71518">
        <ele>179</ele>
        <time>2018-05-09T08:37:27Z</time>
      </trkpt>
      <trkpt lat="45.95636" lon="4.71518">
        <ele>180</ele>
        <time>2018-05-09T08:37:28Z</time>
      </trkpt>
      <trkpt lat="45.95641" lon="4.71517">
        <ele>180</ele>
        <time>2018-05-09T08:37:29Z</time>
      </trkpt>
      <trkpt lat="45.95646" lon="4.71518">
        <ele>180</ele>
        <time>2018-05-09T08:37:30Z</time>
      </trkpt>
      <trkpt lat="45.95651" lon="4.71518">
        <ele>180</ele>
        <time>2018-05-09T08:37:31Z</time>
      </trkpt>
      <trkpt lat="45.95658" lon="4.71517">
        <ele>180</ele>
        <time>2018-05-09T08:37:32Z</time>
      </trkpt>
      <trkpt lat="45.95663" lon="4.71518">
        <ele>180</ele>
        <time>2018-05-09T08:37:33Z</time>
      </trkpt>
      <trkpt lat="45.95669" lon="4.71519">
        <ele>181</ele>
        <time>2018-05-09T08:37:34Z</time>
      </trkpt>
      <trkpt lat="45.95675" lon="4.7152">
        <ele>180</ele>
        <time>2018-05-09T08:37:35Z</time>
      </trkpt>
      <trkpt lat="45.95679" lon="4.7152">
        <ele>180</ele>
        <time>2018-05-09T08:37:36Z</time>
      </trkpt>
      <trkpt lat="45.95686" lon="4.71521">
        <ele>180</ele>
        <time>2018-05-09T08:37:37Z</time>
      </trkpt>
      <trkpt lat="45.95691" lon="4.7152">
        <ele>180</ele>
        <time>2018-05-09T08:37:38Z</time>
      </trkpt>
      <trkpt lat="45.95696" lon="4.71521">
        <ele>180</ele>
        <time>2018-05-09T08:37:39Z</time>
      </trkpt>
      <trkpt lat="45.95702" lon="4.71521">
        <ele>180</ele>
        <time>2018-05-09T08:37:40Z</time>
      </trkpt>
      <trkpt lat="45.95708" lon="4.71522">
        <ele>180</ele>
        <time>2018-05-09T08:37:41Z</time>
      </trkpt>
      <trkpt lat="45.95713" lon="4.71523">
        <ele>180</ele>
        <time>2018-05-09T08:37:42Z</time>
      </trkpt>
      <trkpt lat="45.95719" lon="4.71523">
        <ele>180</ele>
        <time>2018-05-09T08:37:43Z</time>
      </trkpt>
      <trkpt lat="45.95725" lon="4.71524">
        <ele>180</ele>
        <time>2018-05-09T08:37:44Z</time>
      </trkpt>
      <trkpt lat="45.95731" lon="4.71526">
        <ele>180</ele>
        <time>2018-05-09T08:37:45Z</time>
      </trkpt>
      <trkpt lat="45.95737" lon="4.71526">
        <ele>180</ele>
        <time>2018-05-09T08:37:46Z</time>
      </trkpt>
      <trkpt lat="45.95742" lon="4.71525">
        <ele>180</ele>
        <time>2018-05-09T08:37:47Z</time>
      </trkpt>
      <trkpt lat="45.95748" lon="4.71526">
        <ele>180</ele>
        <time>2018-05-09T08:37:48Z</time>
      </trkpt>
      <trkpt lat="45.95754" lon="4.71526">
        <ele>181</ele>
        <time>2018-05-09T08:37:49Z</time>
      </trkpt>
      <trkpt lat="45.9576" lon="4.71527">
        <ele>181</ele>
        <time>2018-05-09T08:37:50Z</time>
      </trkpt>
      <trkpt lat="45.95764" lon="4.71528">
        <ele>181</ele>
        <time>2018-05-09T08:37:51Z</time>
      </trkpt>
      <trkpt lat="45.95769" lon="4.71529">
        <ele>181</ele>
        <time>2018-05-09T08:37:52Z</time>
      </trkpt>
      <trkpt lat="45.95774" lon="4.7153">
        <ele>180</ele>
        <time>2018-05-09T08:37:53Z</time>
      </trkpt>
      <trkpt lat="45.95781" lon="4.71531">
        <ele>181</ele>
        <time>2018-05-09T08:37:54Z</time>
      </trkpt>
      <trkpt lat="45.95785" lon="4.71531">
        <ele>181</ele>
        <time>2018-05-09T08:37:55Z</time>
      </trkpt>
      <trkpt lat="45.95791" lon="4.71531">
        <ele>181</ele>
        <time>2018-05-09T08:37:56Z</time>
      </trkpt>
      <trkpt lat="45.95796" lon="4.71531">
        <ele>181</ele>
        <time>2018-05-09T08:37:57Z</time>
      </trkpt>
      <trkpt lat="45.95801" lon="4.71532">
        <ele>181</ele>
        <time>2018-05-09T08:37:58Z</time>
      </trkpt>
      <trkpt lat="45.95807" lon="4.71532">
        <ele>181</ele>
        <time>2018-05-09T08:37:59Z</time>
      </trkpt>
      <trkpt lat="45.95812" lon="4.71533">
        <ele>181</ele>
        <time>2018-05-09T08:38:00Z</time>
      </trkpt>
      <trkpt lat="45.95818" lon="4.71531">
        <ele>181</ele>
        <time>2018-05-09T08:38:01Z</time>
      </trkpt>
      <trkpt lat="45.95824" lon="4.71531">
        <ele>181</ele>
        <time>2018-05-09T08:38:02Z</time>
      </trkpt>
      <trkpt lat="45.95829" lon="4.71531">
        <ele>181</ele>
        <time>2018-05-09T08:38:03Z</time>
      </trkpt>
      <trkpt lat="45.95834" lon="4.71532">
        <ele>182</ele>
        <time>2018-05-09T08:38:04Z</time>
      </trkpt>
      <trkpt lat="45.95839" lon="4.71533">
        <ele>182</ele>
        <time>2018-05-09T08:38:05Z</time>
      </trkpt>
      <trkpt lat="45.95844" lon="4.71534">
        <ele>182</ele>
        <time>2018-05-09T08:38:06Z</time>
      </trkpt>
      <trkpt lat="45.95848" lon="4.71534">
        <ele>182</ele>
        <time>2018-05-09T08:38:07Z</time>
      </trkpt>
      <trkpt lat="45.95854" lon="4.71535">
        <ele>181</ele>
        <time>2018-05-09T08:38:08Z</time>
      </trkpt>
      <trkpt lat="45.95859" lon="4.71536">
        <ele>181</ele>
        <time>2018-05-09T08:38:09Z</time>
      </trkpt>
      <trkpt lat="45.95864" lon="4.71535">
        <ele>182</ele>
        <time>2018-05-09T08:38:10Z</time>
      </trkpt>
      <trkpt lat="45.95873" lon="4.71534">
        <ele>182</ele>
        <time>2018-05-09T08:38:12Z</time>
      </trkpt>
      <trkpt lat="45.95878" lon="4.71536">
        <ele>182</ele>
        <time>2018-05-09T08:38:13Z</time>
      </trkpt>
      <trkpt lat="45.95883" lon="4.71536">
        <ele>182</ele>
        <time>2018-05-09T08:38:14Z</time>
      </trkpt>
      <trkpt lat="45.95887" lon="4.71538">
        <ele>181</ele>
        <time>2018-05-09T08:38:15Z</time>
      </trkpt>
      <trkpt lat="45.95896" lon="4.71538">
        <ele>181</ele>
        <time>2018-05-09T08:38:17Z</time>
      </trkpt>
      <trkpt lat="45.959" lon="4.71538">
        <ele>182</ele>
        <time>2018-05-09T08:38:18Z</time>
      </trkpt>
      <trkpt lat="45.95906" lon="4.71538">
        <ele>182</ele>
        <time>2018-05-09T08:38:19Z</time>
      </trkpt>
      <trkpt lat="45.95911" lon="4.71538">
        <ele>182</ele>
        <time>2018-05-09T08:38:20Z</time>
      </trkpt>
      <trkpt lat="45.95919" lon="4.71538">
        <ele>183</ele>
        <time>2018-05-09T08:38:22Z</time>
      </trkpt>
      <trkpt lat="45.95923" lon="4.7154">
        <ele>183</ele>
        <time>2018-05-09T08:38:23Z</time>
      </trkpt>
      <trkpt lat="45.95932" lon="4.71541">
        <ele>183</ele>
        <time>2018-05-09T08:38:25Z</time>
      </trkpt>
      <trkpt lat="45.95936" lon="4.71541">
        <ele>183</ele>
        <time>2018-05-09T08:38:26Z</time>
      </trkpt>
      <trkpt lat="45.95945" lon="4.71543">
        <ele>183</ele>
        <time>2018-05-09T08:38:28Z</time>
      </trkpt>
      <trkpt lat="45.9595" lon="4.71542">
        <ele>183</ele>
        <time>2018-05-09T08:38:29Z</time>
      </trkpt>
      <trkpt lat="45.95955" lon="4.71543">
        <ele>183</ele>
        <time>2018-05-09T08:38:30Z</time>
      </trkpt>
      <trkpt lat="45.9596" lon="4.71545">
        <ele>183</ele>
        <time>2018-05-09T08:38:31Z</time>
      </trkpt>
      <trkpt lat="45.95965" lon="4.71545">
        <ele>183</ele>
        <time>2018-05-09T08:38:32Z</time>
      </trkpt>
      <trkpt lat="45.95969" lon="4.71548">
        <ele>183</ele>
        <time>2018-05-09T08:38:33Z</time>
      </trkpt>
      <trkpt lat="45.95973" lon="4.7155">
        <ele>183</ele>
        <time>2018-05-09T08:38:34Z</time>
      </trkpt>
      <trkpt lat="45.95979" lon="4.71552">
        <ele>183</ele>
        <time>2018-05-09T08:38:35Z</time>
      </trkpt>
      <trkpt lat="45.95987" lon="4.71551">
        <ele>183</ele>
        <time>2018-05-09T08:38:37Z</time>
      </trkpt>
      <trkpt lat="45.95993" lon="4.71549">
        <ele>183</ele>
        <time>2018-05-09T08:38:38Z</time>
      </trkpt>
      <trkpt lat="45.95998" lon="4.71546">
        <ele>184</ele>
        <time>2018-05-09T08:38:39Z</time>
      </trkpt>
      <trkpt lat="45.96002" lon="4.71544">
        <ele>185</ele>
        <time>2018-05-09T08:38:40Z</time>
      </trkpt>
      <trkpt lat="45.96008" lon="4.71541">
        <ele>185</ele>
        <time>2018-05-09T08:38:41Z</time>
      </trkpt>
      <trkpt lat="45.96012" lon="4.7154">
        <ele>185</ele>
        <time>2018-05-09T08:38:42Z</time>
      </trkpt>
      <trkpt lat="45.96018" lon="4.71538">
        <ele>185</ele>
        <time>2018-05-09T08:38:43Z</time>
      </trkpt>
      <trkpt lat="45.96023" lon="4.71539">
        <ele>185</ele>
        <time>2018-05-09T08:38:44Z</time>
      </trkpt>
      <trkpt lat="45.96029" lon="4.7154">
        <ele>185</ele>
        <time>2018-05-09T08:38:45Z</time>
      </trkpt>
      <trkpt lat="45.96034" lon="4.71541">
        <ele>185</ele>
        <time>2018-05-09T08:38:46Z</time>
      </trkpt>
      <trkpt lat="45.96039" lon="4.71541">
        <ele>185</ele>
        <time>2018-05-09T08:38:47Z</time>
      </trkpt>
      <trkpt lat="45.96044" lon="4.71543">
        <ele>185</ele>
        <time>2018-05-09T08:38:48Z</time>
      </trkpt>
      <trkpt lat="45.96049" lon="4.71544">
        <ele>185</ele>
        <time>2018-05-09T08:38:49Z</time>
      </trkpt>
      <trkpt lat="45.96054" lon="4.71545">
        <ele>185</ele>
        <time>2018-05-09T08:38:50Z</time>
      </trkpt>
      <trkpt lat="45.96058" lon="4.71545">
        <ele>185</ele>
        <time>2018-05-09T08:38:51Z</time>
      </trkpt>
      <trkpt lat="45.96064" lon="4.71547">
        <ele>185</ele>
        <time>2018-05-09T08:38:52Z</time>
      </trkpt>
      <trkpt lat="45.96069" lon="4.71547">
        <ele>185</ele>
        <time>2018-05-09T08:38:53Z</time>
      </trkpt>
      <trkpt lat="45.96075" lon="4.71549">
        <ele>185</ele>
        <time>2018-05-09T08:38:54Z</time>
      </trkpt>
      <trkpt lat="45.96082" lon="4.71548">
        <ele>185</ele>
        <time>2018-05-09T08:38:55Z</time>
      </trkpt>
      <trkpt lat="45.96089" lon="4.71549">
        <ele>185</ele>
        <time>2018-05-09T08:38:56Z</time>
      </trkpt>
      <trkpt lat="45.96095" lon="4.7155">
        <ele>185</ele>
        <time>2018-05-09T08:38:57Z</time>
      </trkpt>
      <trkpt lat="45.96101" lon="4.7155">
        <ele>185</ele>
        <time>2018-05-09T08:38:58Z</time>
      </trkpt>
      <trkpt lat="45.96107" lon="4.71552">
        <ele>185</ele>
        <time>2018-05-09T08:38:59Z</time>
      </trkpt>
      <trkpt lat="45.96114" lon="4.71552">
        <ele>184</ele>
        <time>2018-05-09T08:39:00Z</time>
      </trkpt>
      <trkpt lat="45.9612" lon="4.71553">
        <ele>184</ele>
        <time>2018-05-09T08:39:01Z</time>
      </trkpt>
      <trkpt lat="45.96127" lon="4.71553">
        <ele>184</ele>
        <time>2018-05-09T08:39:02Z</time>
      </trkpt>
      <trkpt lat="45.96133" lon="4.71555">
        <ele>184</ele>
        <time>2018-05-09T08:39:03Z</time>
      </trkpt>
      <trkpt lat="45.9614" lon="4.71555">
        <ele>184</ele>
        <time>2018-05-09T08:39:04Z</time>
      </trkpt>
      <trkpt lat="45.96145" lon="4.71555">
        <ele>184</ele>
        <time>2018-05-09T08:39:05Z</time>
      </trkpt>
      <trkpt lat="45.96152" lon="4.71555">
        <ele>184</ele>
        <time>2018-05-09T08:39:06Z</time>
      </trkpt>
      <trkpt lat="45.96159" lon="4.71557">
        <ele>183</ele>
        <time>2018-05-09T08:39:07Z</time>
      </trkpt>
      <trkpt lat="45.96166" lon="4.71559">
        <ele>183</ele>
        <time>2018-05-09T08:39:08Z</time>
      </trkpt>
      <trkpt lat="45.96172" lon="4.7156">
        <ele>183</ele>
        <time>2018-05-09T08:39:09Z</time>
      </trkpt>
      <trkpt lat="45.96179" lon="4.71561">
        <ele>183</ele>
        <time>2018-05-09T08:39:10Z</time>
      </trkpt>
      <trkpt lat="45.96186" lon="4.71562">
        <ele>183</ele>
        <time>2018-05-09T08:39:11Z</time>
      </trkpt>
      <trkpt lat="45.96192" lon="4.71563">
        <ele>183</ele>
        <time>2018-05-09T08:39:12Z</time>
      </trkpt>
      <trkpt lat="45.96199" lon="4.71565">
        <ele>183</ele>
        <time>2018-05-09T08:39:13Z</time>
      </trkpt>
      <trkpt lat="45.96205" lon="4.71566">
        <ele>183</ele>
        <time>2018-05-09T08:39:14Z</time>
      </trkpt>
      <trkpt lat="45.96212" lon="4.71567">
        <ele>183</ele>
        <time>2018-05-09T08:39:15Z</time>
      </trkpt>
      <trkpt lat="45.96219" lon="4.71569">
        <ele>183</ele>
        <time>2018-05-09T08:39:16Z</time>
      </trkpt>
      <trkpt lat="45.96226" lon="4.71571">
        <ele>183</ele>
        <time>2018-05-09T08:39:17Z</time>
      </trkpt>
      <trkpt lat="45.96233" lon="4.71572">
        <ele>183</ele>
        <time>2018-05-09T08:39:18Z</time>
      </trkpt>
      <trkpt lat="45.96239" lon="4.71575">
        <ele>182</ele>
        <time>2018-05-09T08:39:19Z</time>
      </trkpt>
      <trkpt lat="45.96246" lon="4.71576">
        <ele>182</ele>
        <time>2018-05-09T08:39:20Z</time>
      </trkpt>
      <trkpt lat="45.96253" lon="4.71577">
        <ele>182</ele>
        <time>2018-05-09T08:39:21Z</time>
      </trkpt>
      <trkpt lat="45.96259" lon="4.71578">
        <ele>182</ele>
        <time>2018-05-09T08:39:22Z</time>
      </trkpt>
      <trkpt lat="45.96265" lon="4.7158">
        <ele>183</ele>
        <time>2018-05-09T08:39:23Z</time>
      </trkpt>
      <trkpt lat="45.96271" lon="4.7158">
        <ele>183</ele>
        <time>2018-05-09T08:39:24Z</time>
      </trkpt>
      <trkpt lat="45.96278" lon="4.71581">
        <ele>184</ele>
        <time>2018-05-09T08:39:25Z</time>
      </trkpt>
      <trkpt lat="45.96284" lon="4.71582">
        <ele>184</ele>
        <time>2018-05-09T08:39:26Z</time>
      </trkpt>
      <trkpt lat="45.9629" lon="4.71583">
        <ele>184</ele>
        <time>2018-05-09T08:39:27Z</time>
      </trkpt>
      <trkpt lat="45.96297" lon="4.71584">
        <ele>181</ele>
        <time>2018-05-09T08:39:28Z</time>
      </trkpt>
      <trkpt lat="45.96302" lon="4.71585">
        <ele>181</ele>
        <time>2018-05-09T08:39:29Z</time>
      </trkpt>
      <trkpt lat="45.96308" lon="4.71587">
        <ele>181</ele>
        <time>2018-05-09T08:39:30Z</time>
      </trkpt>
      <trkpt lat="45.96314" lon="4.71588">
        <ele>181</ele>
        <time>2018-05-09T08:39:31Z</time>
      </trkpt>
      <trkpt lat="45.9632" lon="4.71589">
        <ele>182</ele>
        <time>2018-05-09T08:39:32Z</time>
      </trkpt>
      <trkpt lat="45.96325" lon="4.71589">
        <ele>182</ele>
        <time>2018-05-09T08:39:33Z</time>
      </trkpt>
      <trkpt lat="45.96331" lon="4.71591">
        <ele>182</ele>
        <time>2018-05-09T08:39:34Z</time>
      </trkpt>
      <trkpt lat="45.96337" lon="4.71592">
        <ele>183</ele>
        <time>2018-05-09T08:39:35Z</time>
      </trkpt>
      <trkpt lat="45.96342" lon="4.71593">
        <ele>182</ele>
        <time>2018-05-09T08:39:36Z</time>
      </trkpt>
      <trkpt lat="45.96348" lon="4.71594">
        <ele>182</ele>
        <time>2018-05-09T08:39:37Z</time>
      </trkpt>
      <trkpt lat="45.96353" lon="4.71595">
        <ele>182</ele>
        <time>2018-05-09T08:39:38Z</time>
      </trkpt>
      <trkpt lat="45.96359" lon="4.71596">
        <ele>182</ele>
        <time>2018-05-09T08:39:39Z</time>
      </trkpt>
      <trkpt lat="45.96364" lon="4.71597">
        <ele>182</ele>
        <time>2018-05-09T08:39:40Z</time>
      </trkpt>
      <trkpt lat="45.96369" lon="4.71599">
        <ele>182</ele>
        <time>2018-05-09T08:39:41Z</time>
      </trkpt>
      <trkpt lat="45.96375" lon="4.71599">
        <ele>182</ele>
        <time>2018-05-09T08:39:42Z</time>
      </trkpt>
      <trkpt lat="45.9638" lon="4.71601">
        <ele>182</ele>
        <time>2018-05-09T08:39:43Z</time>
      </trkpt>
      <trkpt lat="45.96387" lon="4.71602">
        <ele>182</ele>
        <time>2018-05-09T08:39:44Z</time>
      </trkpt>
      <trkpt lat="45.96392" lon="4.71603">
        <ele>183</ele>
        <time>2018-05-09T08:39:45Z</time>
      </trkpt>
      <trkpt lat="45.96398" lon="4.71604">
        <ele>183</ele>
        <time>2018-05-09T08:39:46Z</time>
      </trkpt>
      <trkpt lat="45.96404" lon="4.71605">
        <ele>183</ele>
        <time>2018-05-09T08:39:47Z</time>
      </trkpt>
      <trkpt lat="45.96409" lon="4.71604">
        <ele>183</ele>
        <time>2018-05-09T08:39:48Z</time>
      </trkpt>
      <trkpt lat="45.96415" lon="4.71605">
        <ele>183</ele>
        <time>2018-05-09T08:39:49Z</time>
      </trkpt>
      <trkpt lat="45.9642" lon="4.71608">
        <ele>183</ele>
        <time>2018-05-09T08:39:50Z</time>
      </trkpt>
      <trkpt lat="45.96427" lon="4.71606">
        <ele>183</ele>
        <time>2018-05-09T08:39:51Z</time>
      </trkpt>
      <trkpt lat="45.96434" lon="4.71607">
        <ele>183</ele>
        <time>2018-05-09T08:39:52Z</time>
      </trkpt>
      <trkpt lat="45.96441" lon="4.71606">
        <ele>183</ele>
        <time>2018-05-09T08:39:53Z</time>
      </trkpt>
      <trkpt lat="45.96447" lon="4.71606">
        <ele>183</ele>
        <time>2018-05-09T08:39:54Z</time>
      </trkpt>
      <trkpt lat="45.96454" lon="4.71606">
        <ele>183</ele>
        <time>2018-05-09T08:39:55Z</time>
      </trkpt>
      <trkpt lat="45.9646" lon="4.71607">
        <ele>183</ele>
        <time>2018-05-09T08:39:56Z</time>
      </trkpt>
      <trkpt lat="45.96465" lon="4.7161">
        <ele>183</ele>
        <time>2018-05-09T08:39:57Z</time>
      </trkpt>
      <trkpt lat="45.96471" lon="4.71611">
        <ele>183</ele>
        <time>2018-05-09T08:39:58Z</time>
      </trkpt>
      <trkpt lat="45.96477" lon="4.71612">
        <ele>183</ele>
        <time>2018-05-09T08:39:59Z</time>
      </trkpt>
      <trkpt lat="45.96482" lon="4.71613">
        <ele>183</ele>
        <time>2018-05-09T08:40:00Z</time>
      </trkpt>
      <trkpt lat="45.96487" lon="4.71614">
        <ele>183</ele>
        <time>2018-05-09T08:40:01Z</time>
      </trkpt>
      <trkpt lat="45.96492" lon="4.71616">
        <ele>183</ele>
        <time>2018-05-09T08:40:02Z</time>
      </trkpt>
      <trkpt lat="45.96497" lon="4.71617">
        <ele>183</ele>
        <time>2018-05-09T08:40:03Z</time>
      </trkpt>
      <trkpt lat="45.96504" lon="4.71619">
        <ele>184</ele>
        <time>2018-05-09T08:40:04Z</time>
      </trkpt>
      <trkpt lat="45.96509" lon="4.7162">
        <ele>184</ele>
        <time>2018-05-09T08:40:05Z</time>
      </trkpt>
      <trkpt lat="45.96512" lon="4.71621">
        <ele>184</ele>
        <time>2018-05-09T08:40:06Z</time>
      </trkpt>
      <trkpt lat="45.96517" lon="4.71624">
        <ele>184</ele>
        <time>2018-05-09T08:40:07Z</time>
      </trkpt>
      <trkpt lat="45.96521" lon="4.71629">
        <ele>184</ele>
        <time>2018-05-09T08:40:08Z</time>
      </trkpt>
      <trkpt lat="45.96524" lon="4.71632">
        <ele>184</ele>
        <time>2018-05-09T08:40:09Z</time>
      </trkpt>
      <trkpt lat="45.96529" lon="4.71638">
        <ele>184</ele>
        <time>2018-05-09T08:40:10Z</time>
      </trkpt>
      <trkpt lat="45.96537" lon="4.71642">
        <ele>184</ele>
        <time>2018-05-09T08:40:12Z</time>
      </trkpt>
      <trkpt lat="45.96543" lon="4.71641">
        <ele>184</ele>
        <time>2018-05-09T08:40:13Z</time>
      </trkpt>
      <trkpt lat="45.96547" lon="4.7164">
        <ele>184</ele>
        <time>2018-05-09T08:40:14Z</time>
      </trkpt>
      <trkpt lat="45.96552" lon="4.71635">
        <ele>184</ele>
        <time>2018-05-09T08:40:15Z</time>
      </trkpt>
      <trkpt lat="45.96556" lon="4.71632">
        <ele>184</ele>
        <time>2018-05-09T08:40:16Z</time>
      </trkpt>
      <trkpt lat="45.96561" lon="4.71628">
        <ele>184</ele>
        <time>2018-05-09T08:40:17Z</time>
      </trkpt>
      <trkpt lat="45.96566" lon="4.71628">
        <ele>185</ele>
        <time>2018-05-09T08:40:18Z</time>
      </trkpt>
      <trkpt lat="45.9657" lon="4.71629">
        <ele>185</ele>
        <time>2018-05-09T08:40:19Z</time>
      </trkpt>
      <trkpt lat="45.96576" lon="4.71629">
        <ele>185</ele>
        <time>2018-05-09T08:40:20Z</time>
      </trkpt>
      <trkpt lat="45.96583" lon="4.71628">
        <ele>185</ele>
        <time>2018-05-09T08:40:21Z</time>
      </trkpt>
      <trkpt lat="45.96587" lon="4.71629">
        <ele>187</ele>
        <time>2018-05-09T08:40:22Z</time>
      </trkpt>
      <trkpt lat="45.96593" lon="4.7163">
        <ele>187</ele>
        <time>2018-05-09T08:40:23Z</time>
      </trkpt>
      <trkpt lat="45.96598" lon="4.71632">
        <ele>187</ele>
        <time>2018-05-09T08:40:24Z</time>
      </trkpt>
      <trkpt lat="45.96603" lon="4.71632">
        <ele>187</ele>
        <time>2018-05-09T08:40:25Z</time>
      </trkpt>
      <trkpt lat="45.96608" lon="4.71634">
        <ele>187</ele>
        <time>2018-05-09T08:40:26Z</time>
      </trkpt>
      <trkpt lat="45.96612" lon="4.71634">
        <ele>187</ele>
        <time>2018-05-09T08:40:27Z</time>
      </trkpt>
      <trkpt lat="45.96616" lon="4.71636">
        <ele>187</ele>
        <time>2018-05-09T08:40:28Z</time>
      </trkpt>
      <trkpt lat="45.96622" lon="4.71638">
        <ele>187</ele>
        <time>2018-05-09T08:40:29Z</time>
      </trkpt>
      <trkpt lat="45.96627" lon="4.71639">
        <ele>187</ele>
        <time>2018-05-09T08:40:30Z</time>
      </trkpt>
      <trkpt lat="45.96634" lon="4.71641">
        <ele>187</ele>
        <time>2018-05-09T08:40:31Z</time>
      </trkpt>
      <trkpt lat="45.96642" lon="4.71643">
        <ele>188</ele>
        <time>2018-05-09T08:40:33Z</time>
      </trkpt>
      <trkpt lat="45.96646" lon="4.71642">
        <ele>188</ele>
        <time>2018-05-09T08:40:34Z</time>
      </trkpt>
      <trkpt lat="45.96651" lon="4.71643">
        <ele>188</ele>
        <time>2018-05-09T08:40:35Z</time>
      </trkpt>
      <trkpt lat="45.96657" lon="4.71645">
        <ele>188</ele>
        <time>2018-05-09T08:40:36Z</time>
      </trkpt>
      <trkpt lat="45.96663" lon="4.71646">
        <ele>188</ele>
        <time>2018-05-09T08:40:37Z</time>
      </trkpt>
      <trkpt lat="45.96668" lon="4.71647">
        <ele>189</ele>
        <time>2018-05-09T08:40:38Z</time>
      </trkpt>
      <trkpt lat="45.96673" lon="4.71646">
        <ele>189</ele>
        <time>2018-05-09T08:40:39Z</time>
      </trkpt>
      <trkpt lat="45.96678" lon="4.71647">
        <ele>189</ele>
        <time>2018-05-09T08:40:40Z</time>
      </trkpt>
      <trkpt lat="45.96685" lon="4.71649">
        <ele>189</ele>
        <time>2018-05-09T08:40:41Z</time>
      </trkpt>
      <trkpt lat="45.9669" lon="4.71649">
        <ele>189</ele>
        <time>2018-05-09T08:40:42Z</time>
      </trkpt>
      <trkpt lat="45.96695" lon="4.7165">
        <ele>190</ele>
        <time>2018-05-09T08:40:43Z</time>
      </trkpt>
      <trkpt lat="45.967" lon="4.71651">
        <ele>190</ele>
        <time>2018-05-09T08:40:44Z</time>
      </trkpt>
      <trkpt lat="45.96706" lon="4.71652">
        <ele>190</ele>
        <time>2018-05-09T08:40:45Z</time>
      </trkpt>
      <trkpt lat="45.96712" lon="4.71651">
        <ele>190</ele>
        <time>2018-05-09T08:40:46Z</time>
      </trkpt>
      <trkpt lat="45.96717" lon="4.71652">
        <ele>190</ele>
        <time>2018-05-09T08:40:47Z</time>
      </trkpt>
      <trkpt lat="45.96722" lon="4.71652">
        <ele>190</ele>
        <time>2018-05-09T08:40:48Z</time>
      </trkpt>
      <trkpt lat="45.96726" lon="4.71652">
        <ele>190</ele>
        <time>2018-05-09T08:40:49Z</time>
      </trkpt>
      <trkpt lat="45.96731" lon="4.71653">
        <ele>190</ele>
        <time>2018-05-09T08:40:50Z</time>
      </trkpt>
      <trkpt lat="45.96736" lon="4.71652">
        <ele>190</ele>
        <time>2018-05-09T08:40:51Z</time>
      </trkpt>
      <trkpt lat="45.96741" lon="4.71652">
        <ele>190</ele>
        <time>2018-05-09T08:40:52Z</time>
      </trkpt>
      <trkpt lat="45.96745" lon="4.71653">
        <ele>190</ele>
        <time>2018-05-09T08:40:53Z</time>
      </trkpt>
      <trkpt lat="45.9675" lon="4.71654">
        <ele>191</ele>
        <time>2018-05-09T08:40:54Z</time>
      </trkpt>
      <trkpt lat="45.96755" lon="4.71654">
        <ele>191</ele>
        <time>2018-05-09T08:40:55Z</time>
      </trkpt>
      <trkpt lat="45.9676" lon="4.71655">
        <ele>191</ele>
        <time>2018-05-09T08:40:56Z</time>
      </trkpt>
      <trkpt lat="45.96766" lon="4.71654">
        <ele>191</ele>
        <time>2018-05-09T08:40:57Z</time>
      </trkpt>
      <trkpt lat="45.96772" lon="4.71653">
        <ele>192</ele>
        <time>2018-05-09T08:40:58Z</time>
      </trkpt>
      <trkpt lat="45.96776" lon="4.71654">
        <ele>192</ele>
        <time>2018-05-09T08:40:59Z</time>
      </trkpt>
      <trkpt lat="45.9678" lon="4.71655">
        <ele>192</ele>
        <time>2018-05-09T08:41:00Z</time>
      </trkpt>
      <trkpt lat="45.96788" lon="4.71657">
        <ele>192</ele>
        <time>2018-05-09T08:41:02Z</time>
      </trkpt>
      <trkpt lat="45.96793" lon="4.71658">
        <ele>192</ele>
        <time>2018-05-09T08:41:03Z</time>
      </trkpt>
      <trkpt lat="45.96798" lon="4.71659">
        <ele>192</ele>
        <time>2018-05-09T08:41:04Z</time>
      </trkpt>
      <trkpt lat="45.96803" lon="4.71659">
        <ele>193</ele>
        <time>2018-05-09T08:41:05Z</time>
      </trkpt>
      <trkpt lat="45.96808" lon="4.71661">
        <ele>193</ele>
        <time>2018-05-09T08:41:06Z</time>
      </trkpt>
      <trkpt lat="45.96814" lon="4.71662">
        <ele>193</ele>
        <time>2018-05-09T08:41:07Z</time>
      </trkpt>
      <trkpt lat="45.96818" lon="4.71664">
        <ele>192</ele>
        <time>2018-05-09T08:41:08Z</time>
      </trkpt>
      <trkpt lat="45.96823" lon="4.71665">
        <ele>192</ele>
        <time>2018-05-09T08:41:09Z</time>
      </trkpt>
      <trkpt lat="45.96828" lon="4.71666">
        <ele>192</ele>
        <time>2018-05-09T08:41:10Z</time>
      </trkpt>
      <trkpt lat="45.96833" lon="4.71665">
        <ele>192</ele>
        <time>2018-05-09T08:41:11Z</time>
      </trkpt>
      <trkpt lat="45.96841" lon="4.71667">
        <ele>193</ele>
        <time>2018-05-09T08:41:13Z</time>
      </trkpt>
      <trkpt lat="45.96846" lon="4.71668">
        <ele>191</ele>
        <time>2018-05-09T08:41:14Z</time>
      </trkpt>
      <trkpt lat="45.96854" lon="4.71671">
        <ele>190</ele>
        <time>2018-05-09T08:41:16Z</time>
      </trkpt>
      <trkpt lat="45.96858" lon="4.7167">
        <ele>190</ele>
        <time>2018-05-09T08:41:17Z</time>
      </trkpt>
      <trkpt lat="45.96863" lon="4.71671">
        <ele>190</ele>
        <time>2018-05-09T08:41:18Z</time>
      </trkpt>
      <trkpt lat="45.96868" lon="4.71672">
        <ele>190</ele>
        <time>2018-05-09T08:41:19Z</time>
      </trkpt>
      <trkpt lat="45.96873" lon="4.71675">
        <ele>190</ele>
        <time>2018-05-09T08:41:20Z</time>
      </trkpt>
      <trkpt lat="45.96877" lon="4.71675">
        <ele>190</ele>
        <time>2018-05-09T08:41:21Z</time>
      </trkpt>
      <trkpt lat="45.96883" lon="4.71676">
        <ele>191</ele>
        <time>2018-05-09T08:41:22Z</time>
      </trkpt>
      <trkpt lat="45.96887" lon="4.71676">
        <ele>191</ele>
        <time>2018-05-09T08:41:23Z</time>
      </trkpt>
      <trkpt lat="45.96895" lon="4.7168">
        <ele>191</ele>
        <time>2018-05-09T08:41:25Z</time>
      </trkpt>
      <trkpt lat="45.96898" lon="4.71679">
        <ele>191</ele>
        <time>2018-05-09T08:41:26Z</time>
      </trkpt>
      <trkpt lat="45.96903" lon="4.71679">
        <ele>192</ele>
        <time>2018-05-09T08:41:27Z</time>
      </trkpt>
      <trkpt lat="45.96911" lon="4.71679">
        <ele>192</ele>
        <time>2018-05-09T08:41:28Z</time>
      </trkpt>
      <trkpt lat="45.96917" lon="4.71683">
        <ele>193</ele>
        <time>2018-05-09T08:41:32Z</time>
      </trkpt>
      <trkpt lat="45.96924" lon="4.71685">
        <ele>192</ele>
        <time>2018-05-09T08:41:33Z</time>
      </trkpt>
      <trkpt lat="45.96929" lon="4.71686">
        <ele>192</ele>
        <time>2018-05-09T08:41:34Z</time>
      </trkpt>
      <trkpt lat="45.96934" lon="4.71685">
        <ele>192</ele>
        <time>2018-05-09T08:41:35Z</time>
      </trkpt>
      <trkpt lat="45.96939" lon="4.71685">
        <ele>192</ele>
        <time>2018-05-09T08:41:36Z</time>
      </trkpt>
      <trkpt lat="45.96944" lon="4.71685">
        <ele>192</ele>
        <time>2018-05-09T08:41:37Z</time>
      </trkpt>
      <trkpt lat="45.96951" lon="4.71685">
        <ele>192</ele>
        <time>2018-05-09T08:41:38Z</time>
      </trkpt>
      <trkpt lat="45.96955" lon="4.71685">
        <ele>192</ele>
        <time>2018-05-09T08:41:39Z</time>
      </trkpt>
      <trkpt lat="45.96963" lon="4.71686">
        <ele>192</ele>
        <time>2018-05-09T08:41:41Z</time>
      </trkpt>
      <trkpt lat="45.96968" lon="4.71687">
        <ele>192</ele>
        <time>2018-05-09T08:41:42Z</time>
      </trkpt>
      <trkpt lat="45.96976" lon="4.71688">
        <ele>192</ele>
        <time>2018-05-09T08:41:44Z</time>
      </trkpt>
      <trkpt lat="45.96981" lon="4.71689">
        <ele>192</ele>
        <time>2018-05-09T08:41:45Z</time>
      </trkpt>
      <trkpt lat="45.96989" lon="4.71689">
        <ele>192</ele>
        <time>2018-05-09T08:41:47Z</time>
      </trkpt>
      <trkpt lat="45.96993" lon="4.7169">
        <ele>192</ele>
        <time>2018-05-09T08:41:48Z</time>
      </trkpt>
      <trkpt lat="45.96999" lon="4.7169">
        <ele>192</ele>
        <time>2018-05-09T08:41:49Z</time>
      </trkpt>
      <trkpt lat="45.97006" lon="4.71692">
        <ele>193</ele>
        <time>2018-05-09T08:41:50Z</time>
      </trkpt>
      <trkpt lat="45.97014" lon="4.71692">
        <ele>192</ele>
        <time>2018-05-09T08:41:52Z</time>
      </trkpt>
      <trkpt lat="45.97019" lon="4.71693">
        <ele>192</ele>
        <time>2018-05-09T08:41:53Z</time>
      </trkpt>
      <trkpt lat="45.97023" lon="4.71694">
        <ele>192</ele>
        <time>2018-05-09T08:41:54Z</time>
      </trkpt>
      <trkpt lat="45.97029" lon="4.71695">
        <ele>192</ele>
        <time>2018-05-09T08:41:55Z</time>
      </trkpt>
      <trkpt lat="45.97035" lon="4.71692">
        <ele>192</ele>
        <time>2018-05-09T08:41:56Z</time>
      </trkpt>
      <trkpt lat="45.97039" lon="4.71692">
        <ele>192</ele>
        <time>2018-05-09T08:41:57Z</time>
      </trkpt>
      <trkpt lat="45.97045" lon="4.71693">
        <ele>192</ele>
        <time>2018-05-09T08:41:58Z</time>
      </trkpt>
      <trkpt lat="45.9705" lon="4.71693">
        <ele>193</ele>
        <time>2018-05-09T08:41:59Z</time>
      </trkpt>
      <trkpt lat="45.97055" lon="4.71694">
        <ele>193</ele>
        <time>2018-05-09T08:42:00Z</time>
      </trkpt>
      <trkpt lat="45.9706" lon="4.71693">
        <ele>193</ele>
        <time>2018-05-09T08:42:01Z</time>
      </trkpt>
      <trkpt lat="45.97065" lon="4.71694">
        <ele>193</ele>
        <time>2018-05-09T08:42:02Z</time>
      </trkpt>
      <trkpt lat="45.9707" lon="4.71694">
        <ele>193</ele>
        <time>2018-05-09T08:42:03Z</time>
      </trkpt>
      <trkpt lat="45.97074" lon="4.71695">
        <ele>193</ele>
        <time>2018-05-09T08:42:04Z</time>
      </trkpt>
      <trkpt lat="45.97079" lon="4.71696">
        <ele>193</ele>
        <time>2018-05-09T08:42:05Z</time>
      </trkpt>
      <trkpt lat="45.97087" lon="4.71696">
        <ele>194</ele>
        <time>2018-05-09T08:42:07Z</time>
      </trkpt>
      <trkpt lat="45.97093" lon="4.71697">
        <ele>194</ele>
        <time>2018-05-09T08:42:08Z</time>
      </trkpt>
      <trkpt lat="45.97097" lon="4.71698">
        <ele>194</ele>
        <time>2018-05-09T08:42:09Z</time>
      </trkpt>
      <trkpt lat="45.97103" lon="4.71698">
        <ele>194</ele>
        <time>2018-05-09T08:42:10Z</time>
      </trkpt>
      <trkpt lat="45.97108" lon="4.71698">
        <ele>194</ele>
        <time>2018-05-09T08:42:11Z</time>
      </trkpt>
      <trkpt lat="45.97113" lon="4.71698">
        <ele>194</ele>
        <time>2018-05-09T08:42:12Z</time>
      </trkpt>
      <trkpt lat="45.97121" lon="4.71697">
        <ele>194</ele>
        <time>2018-05-09T08:42:14Z</time>
      </trkpt>
      <trkpt lat="45.97126" lon="4.71698">
        <ele>194</ele>
        <time>2018-05-09T08:42:15Z</time>
      </trkpt>
      <trkpt lat="45.97131" lon="4.71698">
        <ele>194</ele>
        <time>2018-05-09T08:42:16Z</time>
      </trkpt>
      <trkpt lat="45.97136" lon="4.71699">
        <ele>195</ele>
        <time>2018-05-09T08:42:17Z</time>
      </trkpt>
      <trkpt lat="45.97141" lon="4.71699">
        <ele>195</ele>
        <time>2018-05-09T08:42:18Z</time>
      </trkpt>
      <trkpt lat="45.97146" lon="4.717">
        <ele>195</ele>
        <time>2018-05-09T08:42:19Z</time>
      </trkpt>
      <trkpt lat="45.97151" lon="4.71701">
        <ele>195</ele>
        <time>2018-05-09T08:42:20Z</time>
      </trkpt>
      <trkpt lat="45.97157" lon="4.71701">
        <ele>195</ele>
        <time>2018-05-09T08:42:21Z</time>
      </trkpt>
      <trkpt lat="45.97162" lon="4.71702">
        <ele>195</ele>
        <time>2018-05-09T08:42:22Z</time>
      </trkpt>
      <trkpt lat="45.97167" lon="4.71702">
        <ele>195</ele>
        <time>2018-05-09T08:42:23Z</time>
      </trkpt>
      <trkpt lat="45.97175" lon="4.71703">
        <ele>196</ele>
        <time>2018-05-09T08:42:25Z</time>
      </trkpt>
      <trkpt lat="45.9718" lon="4.71704">
        <ele>196</ele>
        <time>2018-05-09T08:42:26Z</time>
      </trkpt>
      <trkpt lat="45.97185" lon="4.71706">
        <ele>196</ele>
        <time>2018-05-09T08:42:27Z</time>
      </trkpt>
      <trkpt lat="45.97191" lon="4.71706">
        <ele>196</ele>
        <time>2018-05-09T08:42:28Z</time>
      </trkpt>
      <trkpt lat="45.97196" lon="4.71706">
        <ele>196</ele>
        <time>2018-05-09T08:42:29Z</time>
      </trkpt>
      <trkpt lat="45.972" lon="4.71707">
        <ele>196</ele>
        <time>2018-05-09T08:42:30Z</time>
      </trkpt>
      <trkpt lat="45.97209" lon="4.71707">
        <ele>196</ele>
        <time>2018-05-09T08:42:32Z</time>
      </trkpt>
      <trkpt lat="45.97214" lon="4.71708">
        <ele>196</ele>
        <time>2018-05-09T08:42:33Z</time>
      </trkpt>
      <trkpt lat="45.9722" lon="4.71708">
        <ele>196</ele>
        <time>2018-05-09T08:42:34Z</time>
      </trkpt>
      <trkpt lat="45.97225" lon="4.7171">
        <ele>196</ele>
        <time>2018-05-09T08:42:35Z</time>
      </trkpt>
      <trkpt lat="45.97233" lon="4.7171">
        <ele>196</ele>
        <time>2018-05-09T08:42:37Z</time>
      </trkpt>
      <trkpt lat="45.97238" lon="4.7171">
        <ele>196</ele>
        <time>2018-05-09T08:42:38Z</time>
      </trkpt>
      <trkpt lat="45.97244" lon="4.71711">
        <ele>196</ele>
        <time>2018-05-09T08:42:39Z</time>
      </trkpt>
      <trkpt lat="45.97248" lon="4.71711">
        <ele>196</ele>
        <time>2018-05-09T08:42:40Z</time>
      </trkpt>
      <trkpt lat="45.97254" lon="4.71711">
        <ele>196</ele>
        <time>2018-05-09T08:42:41Z</time>
      </trkpt>
      <trkpt lat="45.97258" lon="4.71712">
        <ele>196</ele>
        <time>2018-05-09T08:42:42Z</time>
      </trkpt>
      <trkpt lat="45.97263" lon="4.71713">
        <ele>196</ele>
        <time>2018-05-09T08:42:43Z</time>
      </trkpt>
      <trkpt lat="45.97267" lon="4.71714">
        <ele>196</ele>
        <time>2018-05-09T08:42:44Z</time>
      </trkpt>
      <trkpt lat="45.97272" lon="4.71715">
        <ele>196</ele>
        <time>2018-05-09T08:42:45Z</time>
      </trkpt>
      <trkpt lat="45.97277" lon="4.71717">
        <ele>196</ele>
        <time>2018-05-09T08:42:46Z</time>
      </trkpt>
      <trkpt lat="45.97282" lon="4.71719">
        <ele>196</ele>
        <time>2018-05-09T08:42:47Z</time>
      </trkpt>
      <trkpt lat="45.97286" lon="4.71723">
        <ele>196</ele>
        <time>2018-05-09T08:42:48Z</time>
      </trkpt>
      <trkpt lat="45.97289" lon="4.71728">
        <ele>196</ele>
        <time>2018-05-09T08:42:49Z</time>
      </trkpt>
      <trkpt lat="45.97292" lon="4.71732">
        <ele>196</ele>
        <time>2018-05-09T08:42:50Z</time>
      </trkpt>
      <trkpt lat="45.97299" lon="4.71738">
        <ele>196</ele>
        <time>2018-05-09T08:42:52Z</time>
      </trkpt>
      <trkpt lat="45.97304" lon="4.71738">
        <ele>196</ele>
        <time>2018-05-09T08:42:53Z</time>
      </trkpt>
      <trkpt lat="45.9731" lon="4.71737">
        <ele>195</ele>
        <time>2018-05-09T08:42:54Z</time>
      </trkpt>
      <trkpt lat="45.97315" lon="4.71734">
        <ele>195</ele>
        <time>2018-05-09T08:42:55Z</time>
      </trkpt>
      <trkpt lat="45.97318" lon="4.71728">
        <ele>195</ele>
        <time>2018-05-09T08:42:56Z</time>
      </trkpt>
      <trkpt lat="45.97322" lon="4.71722">
        <ele>196</ele>
        <time>2018-05-09T08:42:57Z</time>
      </trkpt>
      <trkpt lat="45.97327" lon="4.71721">
        <ele>196</ele>
        <time>2018-05-09T08:42:58Z</time>
      </trkpt>
      <trkpt lat="45.97331" lon="4.71717">
        <ele>196</ele>
        <time>2018-05-09T08:42:59Z</time>
      </trkpt>
      <trkpt lat="45.97337" lon="4.71715">
        <ele>195</ele>
        <time>2018-05-09T08:43:00Z</time>
      </trkpt>
      <trkpt lat="45.97341" lon="4.71715">
        <ele>195</ele>
        <time>2018-05-09T08:43:01Z</time>
      </trkpt>
      <trkpt lat="45.97347" lon="4.71717">
        <ele>195</ele>
        <time>2018-05-09T08:43:02Z</time>
      </trkpt>
      <trkpt lat="45.97352" lon="4.71718">
        <ele>195</ele>
        <time>2018-05-09T08:43:03Z</time>
      </trkpt>
      <trkpt lat="45.97357" lon="4.71719">
        <ele>195</ele>
        <time>2018-05-09T08:43:04Z</time>
      </trkpt>
      <trkpt lat="45.97362" lon="4.71718">
        <ele>195</ele>
        <time>2018-05-09T08:43:05Z</time>
      </trkpt>
      <trkpt lat="45.97367" lon="4.71718">
        <ele>195</ele>
        <time>2018-05-09T08:43:06Z</time>
      </trkpt>
      <trkpt lat="45.97373" lon="4.71719">
        <ele>195</ele>
        <time>2018-05-09T08:43:07Z</time>
      </trkpt>
      <trkpt lat="45.97377" lon="4.71719">
        <ele>195</ele>
        <time>2018-05-09T08:43:08Z</time>
      </trkpt>
      <trkpt lat="45.97383" lon="4.7172">
        <ele>195</ele>
        <time>2018-05-09T08:43:09Z</time>
      </trkpt>
      <trkpt lat="45.97388" lon="4.7172">
        <ele>195</ele>
        <time>2018-05-09T08:43:10Z</time>
      </trkpt>
      <trkpt lat="45.97393" lon="4.71719">
        <ele>195</ele>
        <time>2018-05-09T08:43:11Z</time>
      </trkpt>
      <trkpt lat="45.97399" lon="4.7172">
        <ele>195</ele>
        <time>2018-05-09T08:43:12Z</time>
      </trkpt>
      <trkpt lat="45.97404" lon="4.71721">
        <ele>195</ele>
        <time>2018-05-09T08:43:13Z</time>
      </trkpt>
      <trkpt lat="45.97409" lon="4.71721">
        <ele>195</ele>
        <time>2018-05-09T08:43:14Z</time>
      </trkpt>
      <trkpt lat="45.97415" lon="4.71721">
        <ele>195</ele>
        <time>2018-05-09T08:43:15Z</time>
      </trkpt>
      <trkpt lat="45.97424" lon="4.71722">
        <ele>196</ele>
        <time>2018-05-09T08:43:17Z</time>
      </trkpt>
      <trkpt lat="45.97429" lon="4.71723">
        <ele>196</ele>
        <time>2018-05-09T08:43:18Z</time>
      </trkpt>
      <trkpt lat="45.97434" lon="4.71723">
        <ele>196</ele>
        <time>2018-05-09T08:43:19Z</time>
      </trkpt>
      <trkpt lat="45.97439" lon="4.71723">
        <ele>196</ele>
        <time>2018-05-09T08:43:20Z</time>
      </trkpt>
      <trkpt lat="45.97445" lon="4.71724">
        <ele>196</ele>
        <time>2018-05-09T08:43:21Z</time>
      </trkpt>
      <trkpt lat="45.97451" lon="4.71724">
        <ele>197</ele>
        <time>2018-05-09T08:43:22Z</time>
      </trkpt>
      <trkpt lat="45.97459" lon="4.71724">
        <ele>197</ele>
        <time>2018-05-09T08:43:24Z</time>
      </trkpt>
      <trkpt lat="45.97463" lon="4.71725">
        <ele>197</ele>
        <time>2018-05-09T08:43:25Z</time>
      </trkpt>
      <trkpt lat="45.97468" lon="4.71726">
        <ele>197</ele>
        <time>2018-05-09T08:43:26Z</time>
      </trkpt>
      <trkpt lat="45.97473" lon="4.71727">
        <ele>197</ele>
        <time>2018-05-09T08:43:27Z</time>
      </trkpt>
      <trkpt lat="45.97477" lon="4.71728">
        <ele>197</ele>
        <time>2018-05-09T08:43:28Z</time>
      </trkpt>
      <trkpt lat="45.97483" lon="4.7173">
        <ele>197</ele>
        <time>2018-05-09T08:43:29Z</time>
      </trkpt>
      <trkpt lat="45.97489" lon="4.71731">
        <ele>197</ele>
        <time>2018-05-09T08:43:30Z</time>
      </trkpt>
      <trkpt lat="45.97494" lon="4.71731">
        <ele>197</ele>
        <time>2018-05-09T08:43:31Z</time>
      </trkpt>
      <trkpt lat="45.97499" lon="4.71731">
        <ele>197</ele>
        <time>2018-05-09T08:43:32Z</time>
      </trkpt>
      <trkpt lat="45.97503" lon="4.71732">
        <ele>197</ele>
        <time>2018-05-09T08:43:33Z</time>
      </trkpt>
      <trkpt lat="45.97508" lon="4.71733">
        <ele>197</ele>
        <time>2018-05-09T08:43:34Z</time>
      </trkpt>
      <trkpt lat="45.97514" lon="4.71733">
        <ele>198</ele>
        <time>2018-05-09T08:43:35Z</time>
      </trkpt>
      <trkpt lat="45.97519" lon="4.71731">
        <ele>198</ele>
        <time>2018-05-09T08:43:36Z</time>
      </trkpt>
      <trkpt lat="45.97524" lon="4.71732">
        <ele>198</ele>
        <time>2018-05-09T08:43:37Z</time>
      </trkpt>
      <trkpt lat="45.97529" lon="4.71732">
        <ele>198</ele>
        <time>2018-05-09T08:43:38Z</time>
      </trkpt>
      <trkpt lat="45.97535" lon="4.71732">
        <ele>198</ele>
        <time>2018-05-09T08:43:39Z</time>
      </trkpt>
      <trkpt lat="45.97539" lon="4.71732">
        <ele>198</ele>
        <time>2018-05-09T08:43:40Z</time>
      </trkpt>
      <trkpt lat="45.97544" lon="4.71733">
        <ele>198</ele>
        <time>2018-05-09T08:43:41Z</time>
      </trkpt>
      <trkpt lat="45.97549" lon="4.71735">
        <ele>198</ele>
        <time>2018-05-09T08:43:42Z</time>
      </trkpt>
      <trkpt lat="45.97556" lon="4.71735">
        <ele>197</ele>
        <time>2018-05-09T08:43:43Z</time>
      </trkpt>
      <trkpt lat="45.9756" lon="4.71736">
        <ele>197</ele>
        <time>2018-05-09T08:43:44Z</time>
      </trkpt>
      <trkpt lat="45.97565" lon="4.71736">
        <ele>197</ele>
        <time>2018-05-09T08:43:45Z</time>
      </trkpt>
      <trkpt lat="45.9757" lon="4.71736">
        <ele>197</ele>
        <time>2018-05-09T08:43:46Z</time>
      </trkpt>
      <trkpt lat="45.97575" lon="4.71736">
        <ele>197</ele>
        <time>2018-05-09T08:43:47Z</time>
      </trkpt>
      <trkpt lat="45.97583" lon="4.71737">
        <ele>196</ele>
        <time>2018-05-09T08:43:49Z</time>
      </trkpt>
      <trkpt lat="45.97587" lon="4.71737">
        <ele>196</ele>
        <time>2018-05-09T08:43:50Z</time>
      </trkpt>
      <trkpt lat="45.97592" lon="4.71738">
        <ele>196</ele>
        <time>2018-05-09T08:43:51Z</time>
      </trkpt>
      <trkpt lat="45.97597" lon="4.71739">
        <ele>196</ele>
        <time>2018-05-09T08:43:52Z</time>
      </trkpt>
      <trkpt lat="45.97603" lon="4.71742">
        <ele>196</ele>
        <time>2018-05-09T08:43:53Z</time>
      </trkpt>
      <trkpt lat="45.97602" lon="4.71749">
        <ele>196</ele>
        <time>2018-05-09T08:43:54Z</time>
      </trkpt>
      <trkpt lat="45.97608" lon="4.71759">
        <ele>194</ele>
        <time>2018-05-09T08:43:56Z</time>
      </trkpt>
      <trkpt lat="45.97612" lon="4.71762">
        <ele>194</ele>
        <time>2018-05-09T08:43:57Z</time>
      </trkpt>
      <trkpt lat="45.97617" lon="4.71763">
        <ele>194</ele>
        <time>2018-05-09T08:43:59Z</time>
      </trkpt>
      <trkpt lat="45.97626" lon="4.71762">
        <ele>194</ele>
        <time>2018-05-09T08:44:00Z</time>
      </trkpt>
      <trkpt lat="45.97634" lon="4.71757">
        <ele>194</ele>
        <time>2018-05-09T08:44:02Z</time>
      </trkpt>
      <trkpt lat="45.97639" lon="4.71754">
        <ele>194</ele>
        <time>2018-05-09T08:44:03Z</time>
      </trkpt>
      <trkpt lat="45.97643" lon="4.7175">
        <ele>194</ele>
        <time>2018-05-09T08:44:04Z</time>
      </trkpt>
      <trkpt lat="45.97648" lon="4.71749">
        <ele>195</ele>
        <time>2018-05-09T08:44:05Z</time>
      </trkpt>
      <trkpt lat="45.97653" lon="4.7175">
        <ele>195</ele>
        <time>2018-05-09T08:44:06Z</time>
      </trkpt>
      <trkpt lat="45.97659" lon="4.71751">
        <ele>194</ele>
        <time>2018-05-09T08:44:07Z</time>
      </trkpt>
      <trkpt lat="45.97665" lon="4.7175">
        <ele>194</ele>
        <time>2018-05-09T08:44:08Z</time>
      </trkpt>
      <trkpt lat="45.97671" lon="4.71751">
        <ele>194</ele>
        <time>2018-05-09T08:44:09Z</time>
      </trkpt>
      <trkpt lat="45.97677" lon="4.71752">
        <ele>194</ele>
        <time>2018-05-09T08:44:10Z</time>
      </trkpt>
      <trkpt lat="45.97684" lon="4.71752">
        <ele>194</ele>
        <time>2018-05-09T08:44:11Z</time>
      </trkpt>
      <trkpt lat="45.97691" lon="4.71753">
        <ele>195</ele>
        <time>2018-05-09T08:44:12Z</time>
      </trkpt>
      <trkpt lat="45.97697" lon="4.71755">
        <ele>195</ele>
        <time>2018-05-09T08:44:13Z</time>
      </trkpt>
      <trkpt lat="45.97704" lon="4.71756">
        <ele>195</ele>
        <time>2018-05-09T08:44:14Z</time>
      </trkpt>
      <trkpt lat="45.9771" lon="4.71756">
        <ele>195</ele>
        <time>2018-05-09T08:44:15Z</time>
      </trkpt>
      <trkpt lat="45.9772" lon="4.71756">
        <ele>195</ele>
        <time>2018-05-09T08:44:16Z</time>
      </trkpt>
      <trkpt lat="45.97727" lon="4.71758">
        <ele>195</ele>
        <time>2018-05-09T08:44:17Z</time>
      </trkpt>
      <trkpt lat="45.97734" lon="4.71757">
        <ele>195</ele>
        <time>2018-05-09T08:44:18Z</time>
      </trkpt>
      <trkpt lat="45.97741" lon="4.71758">
        <ele>196</ele>
        <time>2018-05-09T08:44:19Z</time>
      </trkpt>
      <trkpt lat="45.97747" lon="4.71757">
        <ele>196</ele>
        <time>2018-05-09T08:44:20Z</time>
      </trkpt>
      <trkpt lat="45.97753" lon="4.71759">
        <ele>196</ele>
        <time>2018-05-09T08:44:21Z</time>
      </trkpt>
      <trkpt lat="45.97759" lon="4.71759">
        <ele>196</ele>
        <time>2018-05-09T08:44:22Z</time>
      </trkpt>
      <trkpt lat="45.97766" lon="4.71759">
        <ele>195</ele>
        <time>2018-05-09T08:44:23Z</time>
      </trkpt>
      <trkpt lat="45.97773" lon="4.7176">
        <ele>195</ele>
        <time>2018-05-09T08:44:24Z</time>
      </trkpt>
      <trkpt lat="45.97779" lon="4.7176">
        <ele>195</ele>
        <time>2018-05-09T08:44:25Z</time>
      </trkpt>
      <trkpt lat="45.97786" lon="4.71762">
        <ele>195</ele>
        <time>2018-05-09T08:44:26Z</time>
      </trkpt>
      <trkpt lat="45.97793" lon="4.71763">
        <ele>195</ele>
        <time>2018-05-09T08:44:27Z</time>
      </trkpt>
      <trkpt lat="45.97799" lon="4.71763">
        <ele>195</ele>
        <time>2018-05-09T08:44:28Z</time>
      </trkpt>
      <trkpt lat="45.97806" lon="4.71763">
        <ele>195</ele>
        <time>2018-05-09T08:44:29Z</time>
      </trkpt>
      <trkpt lat="45.97812" lon="4.71764">
        <ele>195</ele>
        <time>2018-05-09T08:44:30Z</time>
      </trkpt>
      <trkpt lat="45.97818" lon="4.71762">
        <ele>195</ele>
        <time>2018-05-09T08:44:31Z</time>
      </trkpt>
      <trkpt lat="45.97823" lon="4.71763">
        <ele>195</ele>
        <time>2018-05-09T08:44:32Z</time>
      </trkpt>
      <trkpt lat="45.97829" lon="4.71763">
        <ele>195</ele>
        <time>2018-05-09T08:44:33Z</time>
      </trkpt>
      <trkpt lat="45.97834" lon="4.71764">
        <ele>195</ele>
        <time>2018-05-09T08:44:34Z</time>
      </trkpt>
      <trkpt lat="45.9784" lon="4.71764">
        <ele>195</ele>
        <time>2018-05-09T08:44:35Z</time>
      </trkpt>
      <trkpt lat="45.97846" lon="4.71763">
        <ele>195</ele>
        <time>2018-05-09T08:44:36Z</time>
      </trkpt>
      <trkpt lat="45.97852" lon="4.71766">
        <ele>195</ele>
        <time>2018-05-09T08:44:37Z</time>
      </trkpt>
      <trkpt lat="45.97857" lon="4.7177">
        <ele>194</ele>
        <time>2018-05-09T08:44:38Z</time>
      </trkpt>
      <trkpt lat="45.97862" lon="4.71775">
        <ele>194</ele>
        <time>2018-05-09T08:44:39Z</time>
      </trkpt>
      <trkpt lat="45.97867" lon="4.71781">
        <ele>194</ele>
        <time>2018-05-09T08:44:40Z</time>
      </trkpt>
      <trkpt lat="45.97872" lon="4.71783">
        <ele>194</ele>
        <time>2018-05-09T08:44:41Z</time>
      </trkpt>
      <trkpt lat="45.97879" lon="4.71783">
        <ele>194</ele>
        <time>2018-05-09T08:44:42Z</time>
      </trkpt>
      <trkpt lat="45.97884" lon="4.71781">
        <ele>194</ele>
        <time>2018-05-09T08:44:43Z</time>
      </trkpt>
      <trkpt lat="45.9789" lon="4.71777">
        <ele>194</ele>
        <time>2018-05-09T08:44:44Z</time>
      </trkpt>
      <trkpt lat="45.97895" lon="4.71771">
        <ele>194</ele>
        <time>2018-05-09T08:44:45Z</time>
      </trkpt>
      <trkpt lat="45.97896" lon="4.71764">
        <ele>195</ele>
        <time>2018-05-09T08:44:46Z</time>
      </trkpt>
      <trkpt lat="45.97898" lon="4.71754">
        <ele>195</ele>
        <time>2018-05-09T08:44:47Z</time>
      </trkpt>
      <trkpt lat="45.979" lon="4.71746">
        <ele>195</ele>
        <time>2018-05-09T08:44:48Z</time>
      </trkpt>
      <trkpt lat="45.97899" lon="4.71738">
        <ele>196</ele>
        <time>2018-05-09T08:44:49Z</time>
      </trkpt>
      <trkpt lat="45.979" lon="4.71728">
        <ele>196</ele>
        <time>2018-05-09T08:44:50Z</time>
      </trkpt>
      <trkpt lat="45.979" lon="4.7172">
        <ele>196</ele>
        <time>2018-05-09T08:44:51Z</time>
      </trkpt>
      <trkpt lat="45.97903" lon="4.71712">
        <ele>196</ele>
        <time>2018-05-09T08:44:52Z</time>
      </trkpt>
      <trkpt lat="45.97905" lon="4.71705">
        <ele>196</ele>
        <time>2018-05-09T08:44:53Z</time>
      </trkpt>
      <trkpt lat="45.97908" lon="4.71698">
        <ele>196</ele>
        <time>2018-05-09T08:44:54Z</time>
      </trkpt>
      <trkpt lat="45.97913" lon="4.71692">
        <ele>196</ele>
        <time>2018-05-09T08:44:55Z</time>
      </trkpt>
      <trkpt lat="45.97917" lon="4.71688">
        <ele>196</ele>
        <time>2018-05-09T08:44:56Z</time>
      </trkpt>
      <trkpt lat="45.97923" lon="4.71683">
        <ele>197</ele>
        <time>2018-05-09T08:44:57Z</time>
      </trkpt>
      <trkpt lat="45.97928" lon="4.7168">
        <ele>197</ele>
        <time>2018-05-09T08:44:58Z</time>
      </trkpt>
      <trkpt lat="45.97933" lon="4.71675">
        <ele>197</ele>
        <time>2018-05-09T08:44:59Z</time>
      </trkpt>
      <trkpt lat="45.97938" lon="4.71672">
        <ele>197</ele>
        <time>2018-05-09T08:45:00Z</time>
      </trkpt>
      <trkpt lat="45.97944" lon="4.71671">
        <ele>197</ele>
        <time>2018-05-09T08:45:01Z</time>
      </trkpt>
      <trkpt lat="45.97947" lon="4.71664">
        <ele>197</ele>
        <time>2018-05-09T08:45:02Z</time>
      </trkpt>
      <trkpt lat="45.97951" lon="4.7166">
        <ele>197</ele>
        <time>2018-05-09T08:45:03Z</time>
      </trkpt>
      <trkpt lat="45.97959" lon="4.71656">
        <ele>197</ele>
        <time>2018-05-09T08:45:04Z</time>
      </trkpt>
      <trkpt lat="45.97967" lon="4.7165">
        <ele>197</ele>
        <time>2018-05-09T08:45:05Z</time>
      </trkpt>
      <trkpt lat="45.97973" lon="4.71645">
        <ele>197</ele>
        <time>2018-05-09T08:45:06Z</time>
      </trkpt>
      <trkpt lat="45.97976" lon="4.71642">
        <ele>197</ele>
        <time>2018-05-09T08:45:07Z</time>
      </trkpt>
      <trkpt lat="45.97982" lon="4.71638">
        <ele>197</ele>
        <time>2018-05-09T08:45:08Z</time>
      </trkpt>
      <trkpt lat="45.97988" lon="4.71633">
        <ele>198</ele>
        <time>2018-05-09T08:45:09Z</time>
      </trkpt>
      <trkpt lat="45.97992" lon="4.71629">
        <ele>198</ele>
        <time>2018-05-09T08:45:10Z</time>
      </trkpt>
      <trkpt lat="45.97999" lon="4.71626">
        <ele>198</ele>
        <time>2018-05-09T08:45:11Z</time>
      </trkpt>
      <trkpt lat="45.98004" lon="4.71622">
        <ele>198</ele>
        <time>2018-05-09T08:45:12Z</time>
      </trkpt>
      <trkpt lat="45.9801" lon="4.71618">
        <ele>198</ele>
        <time>2018-05-09T08:45:13Z</time>
      </trkpt>
      <trkpt lat="45.98015" lon="4.71614">
        <ele>198</ele>
        <time>2018-05-09T08:45:14Z</time>
      </trkpt>
      <trkpt lat="45.98019" lon="4.71608">
        <ele>198</ele>
        <time>2018-05-09T08:45:15Z</time>
      </trkpt>
      <trkpt lat="45.98024" lon="4.71604">
        <ele>198</ele>
        <time>2018-05-09T08:45:16Z</time>
      </trkpt>
      <trkpt lat="45.98029" lon="4.71599">
        <ele>198</ele>
        <time>2018-05-09T08:45:17Z</time>
      </trkpt>
      <trkpt lat="45.98033" lon="4.71597">
        <ele>198</ele>
        <time>2018-05-09T08:45:18Z</time>
      </trkpt>
      <trkpt lat="45.98037" lon="4.71594">
        <ele>198</ele>
        <time>2018-05-09T08:45:19Z</time>
      </trkpt>
      <trkpt lat="45.98041" lon="4.71589">
        <ele>198</ele>
        <time>2018-05-09T08:45:20Z</time>
      </trkpt>
      <trkpt lat="45.98046" lon="4.71586">
        <ele>198</ele>
        <time>2018-05-09T08:45:21Z</time>
      </trkpt>
      <trkpt lat="45.98051" lon="4.71583">
        <ele>198</ele>
        <time>2018-05-09T08:45:22Z</time>
      </trkpt>
      <trkpt lat="45.98056" lon="4.7158">
        <ele>198</ele>
        <time>2018-05-09T08:45:23Z</time>
      </trkpt>
      <trkpt lat="45.9806" lon="4.71577">
        <ele>198</ele>
        <time>2018-05-09T08:45:24Z</time>
      </trkpt>
      <trkpt lat="45.98066" lon="4.71575">
        <ele>198</ele>
        <time>2018-05-09T08:45:25Z</time>
      </trkpt>
      <trkpt lat="45.9807" lon="4.71572">
        <ele>198</ele>
        <time>2018-05-09T08:45:26Z</time>
      </trkpt>
      <trkpt lat="45.98075" lon="4.71567">
        <ele>198</ele>
        <time>2018-05-09T08:45:27Z</time>
      </trkpt>
      <trkpt lat="45.98083" lon="4.7156">
        <ele>198</ele>
        <time>2018-05-09T08:45:28Z</time>
      </trkpt>
      <trkpt lat="45.98087" lon="4.71557">
        <ele>198</ele>
        <time>2018-05-09T08:45:29Z</time>
      </trkpt>
      <trkpt lat="45.98093" lon="4.71553">
        <ele>198</ele>
        <time>2018-05-09T08:45:30Z</time>
      </trkpt>
      <trkpt lat="45.98097" lon="4.71552">
        <ele>197</ele>
        <time>2018-05-09T08:45:31Z</time>
      </trkpt>
      <trkpt lat="45.98102" lon="4.71549">
        <ele>197</ele>
        <time>2018-05-09T08:45:32Z</time>
      </trkpt>
      <trkpt lat="45.98109" lon="4.71546">
        <ele>197</ele>
        <time>2018-05-09T08:45:33Z</time>
      </trkpt>
      <trkpt lat="45.98114" lon="4.71543">
        <ele>197</ele>
        <time>2018-05-09T08:45:34Z</time>
      </trkpt>
      <trkpt lat="45.9812" lon="4.7154">
        <ele>197</ele>
        <time>2018-05-09T08:45:35Z</time>
      </trkpt>
      <trkpt lat="45.98125" lon="4.71536">
        <ele>197</ele>
        <time>2018-05-09T08:45:36Z</time>
      </trkpt>
      <trkpt lat="45.98131" lon="4.71535">
        <ele>197</ele>
        <time>2018-05-09T08:45:37Z</time>
      </trkpt>
      <trkpt lat="45.98136" lon="4.71531">
        <ele>197</ele>
        <time>2018-05-09T08:45:38Z</time>
      </trkpt>
      <trkpt lat="45.98142" lon="4.71527">
        <ele>197</ele>
        <time>2018-05-09T08:45:39Z</time>
      </trkpt>
      <trkpt lat="45.98148" lon="4.71523">
        <ele>197</ele>
        <time>2018-05-09T08:45:40Z</time>
      </trkpt>
      <trkpt lat="45.98154" lon="4.7152">
        <ele>197</ele>
        <time>2018-05-09T08:45:41Z</time>
      </trkpt>
      <trkpt lat="45.98158" lon="4.71517">
        <ele>197</ele>
        <time>2018-05-09T08:45:42Z</time>
      </trkpt>
      <trkpt lat="45.98164" lon="4.71514">
        <ele>197</ele>
        <time>2018-05-09T08:45:43Z</time>
      </trkpt>
      <trkpt lat="45.9817" lon="4.71509">
        <ele>197</ele>
        <time>2018-05-09T08:45:44Z</time>
      </trkpt>
      <trkpt lat="45.98175" lon="4.71506">
        <ele>197</ele>
        <time>2018-05-09T08:45:45Z</time>
      </trkpt>
      <trkpt lat="45.98181" lon="4.71505">
        <ele>197</ele>
        <time>2018-05-09T08:45:46Z</time>
      </trkpt>
      <trkpt lat="45.98187" lon="4.71505">
        <ele>197</ele>
        <time>2018-05-09T08:45:47Z</time>
      </trkpt>
      <trkpt lat="45.98195" lon="4.71503">
        <ele>197</ele>
        <time>2018-05-09T08:45:48Z</time>
      </trkpt>
      <trkpt lat="45.98201" lon="4.71503">
        <ele>197</ele>
        <time>2018-05-09T08:45:49Z</time>
      </trkpt>
      <trkpt lat="45.98206" lon="4.71504">
        <ele>197</ele>
        <time>2018-05-09T08:45:50Z</time>
      </trkpt>
      <trkpt lat="45.98212" lon="4.71506">
        <ele>196</ele>
        <time>2018-05-09T08:45:51Z</time>
      </trkpt>
      <trkpt lat="45.98217" lon="4.71507">
        <ele>196</ele>
        <time>2018-05-09T08:45:52Z</time>
      </trkpt>
      <trkpt lat="45.98222" lon="4.71509">
        <ele>196</ele>
        <time>2018-05-09T08:45:53Z</time>
      </trkpt>
      <trkpt lat="45.98228" lon="4.71512">
        <ele>196</ele>
        <time>2018-05-09T08:45:54Z</time>
      </trkpt>
      <trkpt lat="45.98233" lon="4.71515">
        <ele>196</ele>
        <time>2018-05-09T08:45:55Z</time>
      </trkpt>
      <trkpt lat="45.98238" lon="4.71519">
        <ele>196</ele>
        <time>2018-05-09T08:45:56Z</time>
      </trkpt>
      <trkpt lat="45.98245" lon="4.71522">
        <ele>196</ele>
        <time>2018-05-09T08:45:57Z</time>
      </trkpt>
      <trkpt lat="45.9825" lon="4.71525">
        <ele>197</ele>
        <time>2018-05-09T08:45:58Z</time>
      </trkpt>
      <trkpt lat="45.98255" lon="4.71527">
        <ele>197</ele>
        <time>2018-05-09T08:45:59Z</time>
      </trkpt>
      <trkpt lat="45.9826" lon="4.71531">
        <ele>197</ele>
        <time>2018-05-09T08:46:00Z</time>
      </trkpt>
      <trkpt lat="45.98266" lon="4.71536">
        <ele>197</ele>
        <time>2018-05-09T08:46:01Z</time>
      </trkpt>
      <trkpt lat="45.98271" lon="4.71539">
        <ele>197</ele>
        <time>2018-05-09T08:46:02Z</time>
      </trkpt>
      <trkpt lat="45.98277" lon="4.71543">
        <ele>198</ele>
        <time>2018-05-09T08:46:03Z</time>
      </trkpt>
      <trkpt lat="45.98281" lon="4.71545">
        <ele>198</ele>
        <time>2018-05-09T08:46:04Z</time>
      </trkpt>
      <trkpt lat="45.98287" lon="4.7155">
        <ele>198</ele>
        <time>2018-05-09T08:46:05Z</time>
      </trkpt>
      <trkpt lat="45.98293" lon="4.71554">
        <ele>198</ele>
        <time>2018-05-09T08:46:06Z</time>
      </trkpt>
      <trkpt lat="45.98299" lon="4.71557">
        <ele>198</ele>
        <time>2018-05-09T08:46:07Z</time>
      </trkpt>
      <trkpt lat="45.98304" lon="4.71562">
        <ele>198</ele>
        <time>2018-05-09T08:46:08Z</time>
      </trkpt>
      <trkpt lat="45.98309" lon="4.71565">
        <ele>198</ele>
        <time>2018-05-09T08:46:09Z</time>
      </trkpt>
      <trkpt lat="45.98314" lon="4.71569">
        <ele>198</ele>
        <time>2018-05-09T08:46:10Z</time>
      </trkpt>
      <trkpt lat="45.9832" lon="4.71571">
        <ele>198</ele>
        <time>2018-05-09T08:46:11Z</time>
      </trkpt>
      <trkpt lat="45.98324" lon="4.71574">
        <ele>199</ele>
        <time>2018-05-09T08:46:12Z</time>
      </trkpt>
      <trkpt lat="45.98329" lon="4.71578">
        <ele>199</ele>
        <time>2018-05-09T08:46:13Z</time>
      </trkpt>
      <trkpt lat="45.98335" lon="4.71581">
        <ele>199</ele>
        <time>2018-05-09T08:46:14Z</time>
      </trkpt>
      <trkpt lat="45.98339" lon="4.71584">
        <ele>199</ele>
        <time>2018-05-09T08:46:15Z</time>
      </trkpt>
      <trkpt lat="45.98348" lon="4.71586">
        <ele>198</ele>
        <time>2018-05-09T08:46:16Z</time>
      </trkpt>
      <trkpt lat="45.98354" lon="4.71589">
        <ele>198</ele>
        <time>2018-05-09T08:46:17Z</time>
      </trkpt>
      <trkpt lat="45.9836" lon="4.71592">
        <ele>198</ele>
        <time>2018-05-09T08:46:18Z</time>
      </trkpt>
      <trkpt lat="45.98366" lon="4.71594">
        <ele>198</ele>
        <time>2018-05-09T08:46:19Z</time>
      </trkpt>
      <trkpt lat="45.98371" lon="4.71597">
        <ele>198</ele>
        <time>2018-05-09T08:46:20Z</time>
      </trkpt>
      <trkpt lat="45.98375" lon="4.716">
        <ele>198</ele>
        <time>2018-05-09T08:46:21Z</time>
      </trkpt>
      <trkpt lat="45.98379" lon="4.71602">
        <ele>198</ele>
        <time>2018-05-09T08:46:22Z</time>
      </trkpt>
      <trkpt lat="45.98388" lon="4.71601">
        <ele>198</ele>
        <time>2018-05-09T08:46:26Z</time>
      </trkpt>
      <trkpt lat="45.98389" lon="4.71601">
        <ele>198</ele>
        <time>2018-05-09T08:46:27Z</time>
      </trkpt>
      <trkpt lat="45.98397" lon="4.71596">
        <ele>197</ele>
        <time>2018-05-09T08:46:34Z</time>
      </trkpt>
      <trkpt lat="45.98399" lon="4.71594">
        <ele>197</ele>
        <time>2018-05-09T08:46:35Z</time>
      </trkpt>
      <trkpt lat="45.98405" lon="4.71588">
        <ele>197</ele>
        <time>2018-05-09T08:46:38Z</time>
      </trkpt>
      <trkpt lat="45.98412" lon="4.7158">
        <ele>197</ele>
        <time>2018-05-09T08:46:39Z</time>
      </trkpt>
      <trkpt lat="45.98418" lon="4.71573">
        <ele>197</ele>
        <time>2018-05-09T08:46:41Z</time>
      </trkpt>
      <trkpt lat="45.98421" lon="4.71568">
        <ele>197</ele>
        <time>2018-05-09T08:46:42Z</time>
      </trkpt>
      <trkpt lat="45.98426" lon="4.71564">
        <ele>197</ele>
        <time>2018-05-09T08:46:43Z</time>
      </trkpt>
      <trkpt lat="45.9843" lon="4.71559">
        <ele>197</ele>
        <time>2018-05-09T08:46:44Z</time>
      </trkpt>
      <trkpt lat="45.98435" lon="4.71555">
        <ele>197</ele>
        <time>2018-05-09T08:46:45Z</time>
      </trkpt>
      <trkpt lat="45.98438" lon="4.7155">
        <ele>197</ele>
        <time>2018-05-09T08:46:46Z</time>
      </trkpt>
      <trkpt lat="45.98442" lon="4.71547">
        <ele>197</ele>
        <time>2018-05-09T08:46:47Z</time>
      </trkpt>
      <trkpt lat="45.98448" lon="4.71542">
        <ele>197</ele>
        <time>2018-05-09T08:46:48Z</time>
      </trkpt>
      <trkpt lat="45.98454" lon="4.71541">
        <ele>197</ele>
        <time>2018-05-09T08:46:49Z</time>
      </trkpt>
      <trkpt lat="45.98459" lon="4.71539">
        <ele>197</ele>
        <time>2018-05-09T08:46:50Z</time>
      </trkpt>
      <trkpt lat="45.98464" lon="4.71538">
        <ele>197</ele>
        <time>2018-05-09T08:46:51Z</time>
      </trkpt>
      <trkpt lat="45.98469" lon="4.71538">
        <ele>197</ele>
        <time>2018-05-09T08:46:52Z</time>
      </trkpt>
      <trkpt lat="45.98476" lon="4.71538">
        <ele>196</ele>
        <time>2018-05-09T08:46:54Z</time>
      </trkpt>
      <trkpt lat="45.98481" lon="4.71536">
        <ele>196</ele>
        <time>2018-05-09T08:46:55Z</time>
      </trkpt>
      <trkpt lat="45.98488" lon="4.71533">
        <ele>196</ele>
        <time>2018-05-09T08:46:59Z</time>
      </trkpt>
      <trkpt lat="45.98489" lon="4.71533">
        <ele>196</ele>
        <time>2018-05-09T08:47:00Z</time>
      </trkpt>
      <trkpt lat="45.98497" lon="4.71532">
        <ele>196</ele>
        <time>2018-05-09T08:47:12Z</time>
      </trkpt>
      <trkpt lat="45.98499" lon="4.71531">
        <ele>196</ele>
        <time>2018-05-09T08:47:13Z</time>
      </trkpt>
      <trkpt lat="45.98507" lon="4.71529">
        <ele>195</ele>
        <time>2018-05-09T08:47:14Z</time>
      </trkpt>
      <trkpt lat="45.98511" lon="4.71528">
        <ele>195</ele>
        <time>2018-05-09T08:47:15Z</time>
      </trkpt>
      <trkpt lat="45.98516" lon="4.71526">
        <ele>195</ele>
        <time>2018-05-09T08:47:16Z</time>
      </trkpt>
      <trkpt lat="45.98521" lon="4.71525">
        <ele>194</ele>
        <time>2018-05-09T08:47:17Z</time>
      </trkpt>
      <trkpt lat="45.98526" lon="4.71523">
        <ele>194</ele>
        <time>2018-05-09T08:47:18Z</time>
      </trkpt>
      <trkpt lat="45.98532" lon="4.71523">
        <ele>194</ele>
        <time>2018-05-09T08:47:19Z</time>
      </trkpt>
      <trkpt lat="45.98537" lon="4.71521">
        <ele>194</ele>
        <time>2018-05-09T08:47:20Z</time>
      </trkpt>
      <trkpt lat="45.98544" lon="4.71519">
        <ele>194</ele>
        <time>2018-05-09T08:47:21Z</time>
      </trkpt>
      <trkpt lat="45.9855" lon="4.71518">
        <ele>194</ele>
        <time>2018-05-09T08:47:22Z</time>
      </trkpt>
      <trkpt lat="45.98555" lon="4.71515">
        <ele>194</ele>
        <time>2018-05-09T08:47:23Z</time>
      </trkpt>
      <trkpt lat="45.98561" lon="4.71513">
        <ele>193</ele>
        <time>2018-05-09T08:47:24Z</time>
      </trkpt>
      <trkpt lat="45.98567" lon="4.71511">
        <ele>193</ele>
        <time>2018-05-09T08:47:25Z</time>
      </trkpt>
      <trkpt lat="45.98574" lon="4.7151">
        <ele>193</ele>
        <time>2018-05-09T08:47:26Z</time>
      </trkpt>
      <trkpt lat="45.98579" lon="4.71509">
        <ele>193</ele>
        <time>2018-05-09T08:47:27Z</time>
      </trkpt>
      <trkpt lat="45.98586" lon="4.71506">
        <ele>192</ele>
        <time>2018-05-09T08:47:28Z</time>
      </trkpt>
      <trkpt lat="45.98593" lon="4.71507">
        <ele>192</ele>
        <time>2018-05-09T08:47:29Z</time>
      </trkpt>
      <trkpt lat="45.98598" lon="4.71505">
        <ele>192</ele>
        <time>2018-05-09T08:47:30Z</time>
      </trkpt>
      <trkpt lat="45.98603" lon="4.71502">
        <ele>192</ele>
        <time>2018-05-09T08:47:31Z</time>
      </trkpt>
      <trkpt lat="45.98611" lon="4.71501">
        <ele>191</ele>
        <time>2018-05-09T08:47:33Z</time>
      </trkpt>
      <trkpt lat="45.98612" lon="4.715">
        <ele>191</ele>
        <time>2018-05-09T08:47:34Z</time>
      </trkpt>
      <trkpt lat="45.98614" lon="4.715">
        <ele>191</ele>
        <time>2018-05-09T08:47:35Z</time>
      </trkpt>
      <trkpt lat="45.98623" lon="4.71499">
        <ele>190</ele>
        <time>2018-05-09T08:47:36Z</time>
      </trkpt>
      <trkpt lat="45.98627" lon="4.71497">
        <ele>190</ele>
        <time>2018-05-09T08:47:37Z</time>
      </trkpt>
      <trkpt lat="45.98631" lon="4.71494">
        <ele>190</ele>
        <time>2018-05-09T08:47:38Z</time>
      </trkpt>
      <trkpt lat="45.98635" lon="4.71491">
        <ele>190</ele>
        <time>2018-05-09T08:47:39Z</time>
      </trkpt>
      <trkpt lat="45.9864" lon="4.71492">
        <ele>190</ele>
        <time>2018-05-09T08:47:40Z</time>
      </trkpt>
      <trkpt lat="45.98646" lon="4.71493">
        <ele>190</ele>
        <time>2018-05-09T08:47:41Z</time>
      </trkpt>
      <trkpt lat="45.98651" lon="4.71497">
        <ele>190</ele>
        <time>2018-05-09T08:47:42Z</time>
      </trkpt>
      <trkpt lat="45.9866" lon="4.71494">
        <ele>189</ele>
        <time>2018-05-09T08:47:44Z</time>
      </trkpt>
      <trkpt lat="45.98662" lon="4.71492">
        <ele>189</ele>
        <time>2018-05-09T08:47:45Z</time>
      </trkpt>
      <trkpt lat="45.98667" lon="4.71488">
        <ele>188</ele>
        <time>2018-05-09T08:47:49Z</time>
      </trkpt>
      <trkpt lat="45.98677" lon="4.71496">
        <ele>188</ele>
        <time>2018-05-09T08:47:50Z</time>
      </trkpt>
      <trkpt lat="45.98682" lon="4.71495">
        <ele>188</ele>
        <time>2018-05-09T08:47:51Z</time>
      </trkpt>
      <trkpt lat="45.98687" lon="4.71494">
        <ele>187</ele>
        <time>2018-05-09T08:47:52Z</time>
      </trkpt>
      <trkpt lat="45.98694" lon="4.71495">
        <ele>187</ele>
        <time>2018-05-09T08:47:53Z</time>
      </trkpt>
      <trkpt lat="45.98698" lon="4.71496">
        <ele>187</ele>
        <time>2018-05-09T08:47:54Z</time>
      </trkpt>
      <trkpt lat="45.98704" lon="4.71497">
        <ele>187</ele>
        <time>2018-05-09T08:47:55Z</time>
      </trkpt>
      <trkpt lat="45.98709" lon="4.71498">
        <ele>186</ele>
        <time>2018-05-09T08:47:56Z</time>
      </trkpt>
      <trkpt lat="45.98715" lon="4.715">
        <ele>186</ele>
        <time>2018-05-09T08:47:57Z</time>
      </trkpt>
      <trkpt lat="45.98721" lon="4.71501">
        <ele>186</ele>
        <time>2018-05-09T08:47:58Z</time>
      </trkpt>
      <trkpt lat="45.98727" lon="4.71503">
        <ele>186</ele>
        <time>2018-05-09T08:47:59Z</time>
      </trkpt>
      <trkpt lat="45.98732" lon="4.71504">
        <ele>186</ele>
        <time>2018-05-09T08:48:00Z</time>
      </trkpt>
      <trkpt lat="45.98739" lon="4.71505">
        <ele>185</ele>
        <time>2018-05-09T08:48:01Z</time>
      </trkpt>
      <trkpt lat="45.98746" lon="4.71505">
        <ele>185</ele>
        <time>2018-05-09T08:48:02Z</time>
      </trkpt>
      <trkpt lat="45.98755" lon="4.71505">
        <ele>184</ele>
        <time>2018-05-09T08:48:03Z</time>
      </trkpt>
      <trkpt lat="45.9876" lon="4.71507">
        <ele>184</ele>
        <time>2018-05-09T08:48:04Z</time>
      </trkpt>
      <trkpt lat="45.98767" lon="4.71507">
        <ele>184</ele>
        <time>2018-05-09T08:48:05Z</time>
      </trkpt>
      <trkpt lat="45.98772" lon="4.71506">
        <ele>184</ele>
        <time>2018-05-09T08:48:06Z</time>
      </trkpt>
      <trkpt lat="45.98777" lon="4.71506">
        <ele>184</ele>
        <time>2018-05-09T08:48:07Z</time>
      </trkpt>
      <trkpt lat="45.98785" lon="4.71506">
        <ele>184</ele>
        <time>2018-05-09T08:48:08Z</time>
      </trkpt>
      <trkpt lat="45.98791" lon="4.71506">
        <ele>184</ele>
        <time>2018-05-09T08:48:09Z</time>
      </trkpt>
      <trkpt lat="45.98798" lon="4.71507">
        <ele>184</ele>
        <time>2018-05-09T08:48:10Z</time>
      </trkpt>
      <trkpt lat="45.98804" lon="4.71509">
        <ele>184</ele>
        <time>2018-05-09T08:48:11Z</time>
      </trkpt>
      <trkpt lat="45.9881" lon="4.7151">
        <ele>184</ele>
        <time>2018-05-09T08:48:12Z</time>
      </trkpt>
      <trkpt lat="45.98816" lon="4.7151">
        <ele>184</ele>
        <time>2018-05-09T08:48:13Z</time>
      </trkpt>
      <trkpt lat="45.98821" lon="4.7151">
        <ele>184</ele>
        <time>2018-05-09T08:48:14Z</time>
      </trkpt>
      <trkpt lat="45.98826" lon="4.71512">
        <ele>184</ele>
        <time>2018-05-09T08:48:15Z</time>
      </trkpt>
      <trkpt lat="45.98831" lon="4.71511">
        <ele>184</ele>
        <time>2018-05-09T08:48:16Z</time>
      </trkpt>
      <trkpt lat="45.98837" lon="4.71512">
        <ele>184</ele>
        <time>2018-05-09T08:48:17Z</time>
      </trkpt>
      <trkpt lat="45.98842" lon="4.71512">
        <ele>184</ele>
        <time>2018-05-09T08:48:18Z</time>
      </trkpt>
      <trkpt lat="45.98846" lon="4.71511">
        <ele>184</ele>
        <time>2018-05-09T08:48:19Z</time>
      </trkpt>
      <trkpt lat="45.98851" lon="4.71511">
        <ele>185</ele>
        <time>2018-05-09T08:48:20Z</time>
      </trkpt>
      <trkpt lat="45.98857" lon="4.71512">
        <ele>185</ele>
        <time>2018-05-09T08:48:21Z</time>
      </trkpt>
      <trkpt lat="45.98862" lon="4.71511">
        <ele>185</ele>
        <time>2018-05-09T08:48:22Z</time>
      </trkpt>
      <trkpt lat="45.98867" lon="4.71511">
        <ele>185</ele>
        <time>2018-05-09T08:48:23Z</time>
      </trkpt>
      <trkpt lat="45.98872" lon="4.71511">
        <ele>185</ele>
        <time>2018-05-09T08:48:24Z</time>
      </trkpt>
      <trkpt lat="45.98876" lon="4.71513">
        <ele>185</ele>
        <time>2018-05-09T08:48:25Z</time>
      </trkpt>
      <trkpt lat="45.98881" lon="4.71513">
        <ele>185</ele>
        <time>2018-05-09T08:48:26Z</time>
      </trkpt>
      <trkpt lat="45.98886" lon="4.71514">
        <ele>185</ele>
        <time>2018-05-09T08:48:27Z</time>
      </trkpt>
      <trkpt lat="45.98891" lon="4.71516">
        <ele>185</ele>
        <time>2018-05-09T08:48:28Z</time>
      </trkpt>
      <trkpt lat="45.98899" lon="4.71517">
        <ele>185</ele>
        <time>2018-05-09T08:48:30Z</time>
      </trkpt>
      <trkpt lat="45.98901" lon="4.71518">
        <ele>185</ele>
        <time>2018-05-09T08:48:31Z</time>
      </trkpt>
      <trkpt lat="45.98909" lon="4.71517">
        <ele>185</ele>
        <time>2018-05-09T08:48:33Z</time>
      </trkpt>
      <trkpt lat="45.98914" lon="4.71516">
        <ele>185</ele>
        <time>2018-05-09T08:48:34Z</time>
      </trkpt>
      <trkpt lat="45.98919" lon="4.71517">
        <ele>186</ele>
        <time>2018-05-09T08:48:36Z</time>
      </trkpt>
      <trkpt lat="45.98925" lon="4.71518">
        <ele>186</ele>
        <time>2018-05-09T08:48:37Z</time>
      </trkpt>
      <trkpt lat="45.98933" lon="4.71518">
        <ele>186</ele>
        <time>2018-05-09T08:48:40Z</time>
      </trkpt>
      <trkpt lat="45.98935" lon="4.71518">
        <ele>186</ele>
        <time>2018-05-09T08:48:41Z</time>
      </trkpt>
      <trkpt lat="45.98943" lon="4.71518">
        <ele>186</ele>
        <time>2018-05-09T08:48:45Z</time>
      </trkpt>
      <trkpt lat="45.98945" lon="4.71518">
        <ele>186</ele>
        <time>2018-05-09T08:48:46Z</time>
      </trkpt>
      <trkpt lat="45.98953" lon="4.71518">
        <ele>186</ele>
        <time>2018-05-09T08:48:49Z</time>
      </trkpt>
      <trkpt lat="45.98956" lon="4.71518">
        <ele>186</ele>
        <time>2018-05-09T08:48:50Z</time>
      </trkpt>
      <trkpt lat="45.98959" lon="4.71518">
        <ele>186</ele>
        <time>2018-05-09T08:48:51Z</time>
      </trkpt>
      <trkpt lat="45.98969" lon="4.71518">
        <ele>186</ele>
        <time>2018-05-09T08:48:52Z</time>
      </trkpt>
      <trkpt lat="45.98978" lon="4.71518">
        <ele>186</ele>
        <time>2018-05-09T08:48:54Z</time>
      </trkpt>
      <trkpt lat="45.98983" lon="4.71517">
        <ele>186</ele>
        <time>2018-05-09T08:48:55Z</time>
      </trkpt>
      <trkpt lat="45.98992" lon="4.71516">
        <ele>186</ele>
        <time>2018-05-09T08:48:57Z</time>
      </trkpt>
      <trkpt lat="45.98996" lon="4.71516">
        <ele>186</ele>
        <time>2018-05-09T08:48:58Z</time>
      </trkpt>
      <trkpt lat="45.99004" lon="4.71516">
        <ele>188</ele>
        <time>2018-05-09T08:49:00Z</time>
      </trkpt>
      <trkpt lat="45.99008" lon="4.71517">
        <ele>188</ele>
        <time>2018-05-09T08:49:01Z</time>
      </trkpt>
      <trkpt lat="45.99016" lon="4.7152">
        <ele>188</ele>
        <time>2018-05-09T08:49:03Z</time>
      </trkpt>
      <trkpt lat="45.9902" lon="4.71518">
        <ele>188</ele>
        <time>2018-05-09T08:49:04Z</time>
      </trkpt>
      <trkpt lat="45.99027" lon="4.71515">
        <ele>188</ele>
        <time>2018-05-09T08:49:06Z</time>
      </trkpt>
      <trkpt lat="45.99032" lon="4.71515">
        <ele>188</ele>
        <time>2018-05-09T08:49:07Z</time>
      </trkpt>
      <trkpt lat="45.99039" lon="4.71515">
        <ele>188</ele>
        <time>2018-05-09T08:49:09Z</time>
      </trkpt>
      <trkpt lat="45.99043" lon="4.71516">
        <ele>189</ele>
        <time>2018-05-09T08:49:10Z</time>
      </trkpt>
      <trkpt lat="45.99052" lon="4.71517">
        <ele>189</ele>
        <time>2018-05-09T08:49:12Z</time>
      </trkpt>
      <trkpt lat="45.99055" lon="4.71518">
        <ele>189</ele>
        <time>2018-05-09T08:49:13Z</time>
      </trkpt>
      <trkpt lat="45.99063" lon="4.71515">
        <ele>189</ele>
        <time>2018-05-09T08:49:15Z</time>
      </trkpt>
      <trkpt lat="45.99067" lon="4.71514">
        <ele>189</ele>
        <time>2018-05-09T08:49:16Z</time>
      </trkpt>
      <trkpt lat="45.99075" lon="4.71513">
        <ele>189</ele>
        <time>2018-05-09T08:49:18Z</time>
      </trkpt>
      <trkpt lat="45.99079" lon="4.71511">
        <ele>189</ele>
        <time>2018-05-09T08:49:19Z</time>
      </trkpt>
      <trkpt lat="45.99084" lon="4.71508">
        <ele>190</ele>
        <time>2018-05-09T08:49:21Z</time>
      </trkpt>
      <trkpt lat="45.99089" lon="4.71504">
        <ele>190</ele>
        <time>2018-05-09T08:49:22Z</time>
      </trkpt>
      <trkpt lat="45.99096" lon="4.71502">
        <ele>191</ele>
        <time>2018-05-09T08:49:24Z</time>
      </trkpt>
      <trkpt lat="45.991" lon="4.71502">
        <ele>191</ele>
        <time>2018-05-09T08:49:25Z</time>
      </trkpt>
      <trkpt lat="45.99108" lon="4.71503">
        <ele>191</ele>
        <time>2018-05-09T08:49:28Z</time>
      </trkpt>
      <trkpt lat="45.99114" lon="4.71502">
        <ele>191</ele>
        <time>2018-05-09T08:49:29Z</time>
      </trkpt>
      <trkpt lat="45.99121" lon="4.71501">
        <ele>192</ele>
        <time>2018-05-09T08:49:32Z</time>
      </trkpt>
      <trkpt lat="45.99123" lon="4.71501">
        <ele>192</ele>
        <time>2018-05-09T08:49:33Z</time>
      </trkpt>
      <trkpt lat="45.99126" lon="4.715">
        <ele>191</ele>
        <time>2018-05-09T08:49:35Z</time>
      </trkpt>
      <trkpt lat="45.99127" lon="4.71499">
        <ele>191</ele>
        <time>2018-05-09T08:49:36Z</time>
      </trkpt>
      <trkpt lat="45.99129" lon="4.71495">
        <ele>191</ele>
        <time>2018-05-09T08:50:05Z</time>
      </trkpt>
      <trkpt lat="45.99129" lon="4.71495">
        <ele>191</ele>
        <time>2018-05-09T08:50:06Z</time>
      </trkpt>
      <trkpt lat="45.99138" lon="4.71498">
        <ele>192</ele>
        <time>2018-05-09T08:50:12Z</time>
      </trkpt>
      <trkpt lat="45.99139" lon="4.71498">
        <ele>192</ele>
        <time>2018-05-09T08:50:13Z</time>
      </trkpt>
      <trkpt lat="45.99148" lon="4.71499">
        <ele>192</ele>
        <time>2018-05-09T08:50:18Z</time>
      </trkpt>
      <trkpt lat="45.99157" lon="4.715">
        <ele>192</ele>
        <time>2018-05-09T08:50:19Z</time>
      </trkpt>
      <trkpt lat="45.99162" lon="4.71502">
        <ele>193</ele>
        <time>2018-05-09T08:50:20Z</time>
      </trkpt>
      <trkpt lat="45.99166" lon="4.71505">
        <ele>193</ele>
        <time>2018-05-09T08:50:21Z</time>
      </trkpt>
      <trkpt lat="45.99175" lon="4.71513">
        <ele>194</ele>
        <time>2018-05-09T08:50:22Z</time>
      </trkpt>
      <trkpt lat="45.99183" lon="4.71512">
        <ele>194</ele>
        <time>2018-05-09T08:50:24Z</time>
      </trkpt>
      <trkpt lat="45.99187" lon="4.71512">
        <ele>194</ele>
        <time>2018-05-09T08:50:25Z</time>
      </trkpt>
      <trkpt lat="45.99192" lon="4.71514">
        <ele>195</ele>
        <time>2018-05-09T08:50:26Z</time>
      </trkpt>
      <trkpt lat="45.99196" lon="4.71511">
        <ele>195</ele>
        <time>2018-05-09T08:50:27Z</time>
      </trkpt>
      <trkpt lat="45.99201" lon="4.7151">
        <ele>195</ele>
        <time>2018-05-09T08:50:28Z</time>
      </trkpt>
      <trkpt lat="45.99206" lon="4.71509">
        <ele>195</ele>
        <time>2018-05-09T08:50:29Z</time>
      </trkpt>
      <trkpt lat="45.99212" lon="4.71509">
        <ele>195</ele>
        <time>2018-05-09T08:50:31Z</time>
      </trkpt>
      <trkpt lat="45.99216" lon="4.71509">
        <ele>195</ele>
        <time>2018-05-09T08:50:32Z</time>
      </trkpt>
      <trkpt lat="45.9922" lon="4.71509">
        <ele>195</ele>
        <time>2018-05-09T08:50:34Z</time>
      </trkpt>
      <trkpt lat="45.99227" lon="4.71507">
        <ele>195</ele>
        <time>2018-05-09T08:50:35Z</time>
      </trkpt>
      <trkpt lat="45.99235" lon="4.71506">
        <ele>196</ele>
        <time>2018-05-09T08:50:39Z</time>
      </trkpt>
      <trkpt lat="45.99238" lon="4.71506">
        <ele>196</ele>
        <time>2018-05-09T08:50:40Z</time>
      </trkpt>
      <trkpt lat="45.99246" lon="4.71506">
        <ele>196</ele>
        <time>2018-05-09T08:50:43Z</time>
      </trkpt>
      <trkpt lat="45.99248" lon="4.71506">
        <ele>196</ele>
        <time>2018-05-09T08:50:44Z</time>
      </trkpt>
      <trkpt lat="45.99257" lon="4.71507">
        <ele>197</ele>
        <time>2018-05-09T08:50:48Z</time>
      </trkpt>
      <trkpt lat="45.99259" lon="4.71508">
        <ele>197</ele>
        <time>2018-05-09T08:50:49Z</time>
      </trkpt>
      <trkpt lat="45.99267" lon="4.71512">
        <ele>198</ele>
        <time>2018-05-09T08:51:10Z</time>
      </trkpt>
      <trkpt lat="45.99268" lon="4.71514">
        <ele>198</ele>
        <time>2018-05-09T08:51:11Z</time>
      </trkpt>
      <trkpt lat="45.99275" lon="4.71517">
        <ele>198</ele>
        <time>2018-05-09T08:51:14Z</time>
      </trkpt>
      <trkpt lat="45.99279" lon="4.71518">
        <ele>199</ele>
        <time>2018-05-09T08:51:15Z</time>
      </trkpt>
      <trkpt lat="45.99288" lon="4.71519">
        <ele>199</ele>
        <time>2018-05-09T08:51:16Z</time>
      </trkpt>
      <trkpt lat="45.99292" lon="4.71518">
        <ele>199</ele>
        <time>2018-05-09T08:51:17Z</time>
      </trkpt>
      <trkpt lat="45.993" lon="4.71516">
        <ele>199</ele>
        <time>2018-05-09T08:51:19Z</time>
      </trkpt>
      <trkpt lat="45.99304" lon="4.71516">
        <ele>199</ele>
        <time>2018-05-09T08:51:20Z</time>
      </trkpt>
      <trkpt lat="45.99312" lon="4.71516">
        <ele>199</ele>
        <time>2018-05-09T08:51:22Z</time>
      </trkpt>
      <trkpt lat="45.99317" lon="4.71516">
        <ele>200</ele>
        <time>2018-05-09T08:51:23Z</time>
      </trkpt>
      <trkpt lat="45.99321" lon="4.71516">
        <ele>200</ele>
        <time>2018-05-09T08:51:24Z</time>
      </trkpt>
      <trkpt lat="45.99326" lon="4.71515">
        <ele>200</ele>
        <time>2018-05-09T08:51:25Z</time>
      </trkpt>
      <trkpt lat="45.9933" lon="4.71515">
        <ele>200</ele>
        <time>2018-05-09T08:51:26Z</time>
      </trkpt>
      <trkpt lat="45.99335" lon="4.71514">
        <ele>200</ele>
        <time>2018-05-09T08:51:27Z</time>
      </trkpt>
      <trkpt lat="45.99339" lon="4.71514">
        <ele>200</ele>
        <time>2018-05-09T08:51:28Z</time>
      </trkpt>
      <trkpt lat="45.99344" lon="4.71514">
        <ele>200</ele>
        <time>2018-05-09T08:51:29Z</time>
      </trkpt>
      <trkpt lat="45.99351" lon="4.71511">
        <ele>200</ele>
        <time>2018-05-09T08:51:30Z</time>
      </trkpt>
      <trkpt lat="45.99355" lon="4.71511">
        <ele>200</ele>
        <time>2018-05-09T08:51:31Z</time>
      </trkpt>
      <trkpt lat="45.9936" lon="4.71511">
        <ele>200</ele>
        <time>2018-05-09T08:51:32Z</time>
      </trkpt>
      <trkpt lat="45.99365" lon="4.71511">
        <ele>200</ele>
        <time>2018-05-09T08:51:33Z</time>
      </trkpt>
      <trkpt lat="45.9937" lon="4.7151">
        <ele>200</ele>
        <time>2018-05-09T08:51:34Z</time>
      </trkpt>
      <trkpt lat="45.99375" lon="4.71508">
        <ele>200</ele>
        <time>2018-05-09T08:51:35Z</time>
      </trkpt>
      <trkpt lat="45.99381" lon="4.71508">
        <ele>200</ele>
        <time>2018-05-09T08:51:36Z</time>
      </trkpt>
      <trkpt lat="45.99385" lon="4.71508">
        <ele>200</ele>
        <time>2018-05-09T08:51:37Z</time>
      </trkpt>
      <trkpt lat="45.99389" lon="4.71508">
        <ele>200</ele>
        <time>2018-05-09T08:51:38Z</time>
      </trkpt>
      <trkpt lat="45.99395" lon="4.71507">
        <ele>200</ele>
        <time>2018-05-09T08:51:39Z</time>
      </trkpt>
      <trkpt lat="45.99403" lon="4.71507">
        <ele>200</ele>
        <time>2018-05-09T08:51:41Z</time>
      </trkpt>
      <trkpt lat="45.99407" lon="4.71506">
        <ele>199</ele>
        <time>2018-05-09T08:51:42Z</time>
      </trkpt>
      <trkpt lat="45.99414" lon="4.71506">
        <ele>199</ele>
        <time>2018-05-09T08:51:44Z</time>
      </trkpt>
      <trkpt lat="45.99418" lon="4.71506">
        <ele>199</ele>
        <time>2018-05-09T08:51:45Z</time>
      </trkpt>
      <trkpt lat="45.99426" lon="4.71507">
        <ele>199</ele>
        <time>2018-05-09T08:51:47Z</time>
      </trkpt>
      <trkpt lat="45.99431" lon="4.71508">
        <ele>199</ele>
        <time>2018-05-09T08:51:48Z</time>
      </trkpt>
      <trkpt lat="45.99438" lon="4.71511">
        <ele>199</ele>
        <time>2018-05-09T08:51:50Z</time>
      </trkpt>
      <trkpt lat="45.99442" lon="4.71511">
        <ele>199</ele>
        <time>2018-05-09T08:51:51Z</time>
      </trkpt>
      <trkpt lat="45.99451" lon="4.71511">
        <ele>199</ele>
        <time>2018-05-09T08:51:53Z</time>
      </trkpt>
      <trkpt lat="45.99455" lon="4.71511">
        <ele>199</ele>
        <time>2018-05-09T08:51:54Z</time>
      </trkpt>
      <trkpt lat="45.9946" lon="4.71511">
        <ele>199</ele>
        <time>2018-05-09T08:51:55Z</time>
      </trkpt>
      <trkpt lat="45.99465" lon="4.71512">
        <ele>199</ele>
        <time>2018-05-09T08:51:56Z</time>
      </trkpt>
      <trkpt lat="45.99469" lon="4.71512">
        <ele>199</ele>
        <time>2018-05-09T08:51:57Z</time>
      </trkpt>
      <trkpt lat="45.99474" lon="4.71512">
        <ele>199</ele>
        <time>2018-05-09T08:51:58Z</time>
      </trkpt>
      <trkpt lat="45.99479" lon="4.71512">
        <ele>199</ele>
        <time>2018-05-09T08:51:59Z</time>
      </trkpt>
      <trkpt lat="45.99484" lon="4.71511">
        <ele>199</ele>
        <time>2018-05-09T08:52:00Z</time>
      </trkpt>
      <trkpt lat="45.99492" lon="4.71511">
        <ele>199</ele>
        <time>2018-05-09T08:52:02Z</time>
      </trkpt>
      <trkpt lat="45.99497" lon="4.7151">
        <ele>199</ele>
        <time>2018-05-09T08:52:03Z</time>
      </trkpt>
      <trkpt lat="45.99501" lon="4.71511">
        <ele>199</ele>
        <time>2018-05-09T08:52:04Z</time>
      </trkpt>
      <trkpt lat="45.99506" lon="4.71511">
        <ele>199</ele>
        <time>2018-05-09T08:52:05Z</time>
      </trkpt>
      <trkpt lat="45.99513" lon="4.71512">
        <ele>199</ele>
        <time>2018-05-09T08:52:07Z</time>
      </trkpt>
      <trkpt lat="45.99517" lon="4.71512">
        <ele>198</ele>
        <time>2018-05-09T08:52:08Z</time>
      </trkpt>
      <trkpt lat="45.99522" lon="4.71512">
        <ele>198</ele>
        <time>2018-05-09T08:52:09Z</time>
      </trkpt>
      <trkpt lat="45.99528" lon="4.71511">
        <ele>198</ele>
        <time>2018-05-09T08:52:10Z</time>
      </trkpt>
      <trkpt lat="45.99535" lon="4.71512">
        <ele>198</ele>
        <time>2018-05-09T08:52:11Z</time>
      </trkpt>
      <trkpt lat="45.9954" lon="4.71511">
        <ele>198</ele>
        <time>2018-05-09T08:52:12Z</time>
      </trkpt>
      <trkpt lat="45.99544" lon="4.71511">
        <ele>198</ele>
        <time>2018-05-09T08:52:13Z</time>
      </trkpt>
      <trkpt lat="45.99551" lon="4.71509">
        <ele>198</ele>
        <time>2018-05-09T08:52:14Z</time>
      </trkpt>
      <trkpt lat="45.9956" lon="4.7151">
        <ele>198</ele>
        <time>2018-05-09T08:52:16Z</time>
      </trkpt>
      <trkpt lat="45.99564" lon="4.7151">
        <ele>197</ele>
        <time>2018-05-09T08:52:17Z</time>
      </trkpt>
      <trkpt lat="45.99572" lon="4.71509">
        <ele>197</ele>
        <time>2018-05-09T08:52:20Z</time>
      </trkpt>
      <trkpt lat="45.99574" lon="4.71509">
        <ele>197</ele>
        <time>2018-05-09T08:52:21Z</time>
      </trkpt>
      <trkpt lat="45.99581" lon="4.71514">
        <ele>197</ele>
        <time>2018-05-09T08:52:24Z</time>
      </trkpt>
      <trkpt lat="45.99585" lon="4.71523">
        <ele>197</ele>
        <time>2018-05-09T08:52:25Z</time>
      </trkpt>
      <trkpt lat="45.99591" lon="4.71532">
        <ele>197</ele>
        <time>2018-05-09T08:52:27Z</time>
      </trkpt>
      <trkpt lat="45.99596" lon="4.71534">
        <ele>197</ele>
        <time>2018-05-09T08:52:28Z</time>
      </trkpt>
      <trkpt lat="45.99604" lon="4.71533">
        <ele>198</ele>
        <time>2018-05-09T08:52:30Z</time>
      </trkpt>
      <trkpt lat="45.99609" lon="4.71529">
        <ele>197</ele>
        <time>2018-05-09T08:52:31Z</time>
      </trkpt>
      <trkpt lat="45.99612" lon="4.71523">
        <ele>197</ele>
        <time>2018-05-09T08:52:32Z</time>
      </trkpt>
      <trkpt lat="45.99614" lon="4.71516">
        <ele>197</ele>
        <time>2018-05-09T08:52:33Z</time>
      </trkpt>
      <trkpt lat="45.99614" lon="4.71509">
        <ele>197</ele>
        <time>2018-05-09T08:52:34Z</time>
      </trkpt>
      <trkpt lat="45.99613" lon="4.71501">
        <ele>197</ele>
        <time>2018-05-09T08:52:35Z</time>
      </trkpt>
      <trkpt lat="45.99613" lon="4.71494">
        <ele>197</ele>
        <time>2018-05-09T08:52:36Z</time>
      </trkpt>
      <trkpt lat="45.99612" lon="4.71486">
        <ele>197</ele>
        <time>2018-05-09T08:52:37Z</time>
      </trkpt>
      <trkpt lat="45.99616" lon="4.71478">
        <ele>197</ele>
        <time>2018-05-09T08:52:38Z</time>
      </trkpt>
      <trkpt lat="45.99618" lon="4.71472">
        <ele>197</ele>
        <time>2018-05-09T08:52:39Z</time>
      </trkpt>
      <trkpt lat="45.99622" lon="4.71465">
        <ele>197</ele>
        <time>2018-05-09T08:52:40Z</time>
      </trkpt>
      <trkpt lat="45.99625" lon="4.7146">
        <ele>197</ele>
        <time>2018-05-09T08:52:41Z</time>
      </trkpt>
      <trkpt lat="45.99628" lon="4.71454">
        <ele>197</ele>
        <time>2018-05-09T08:52:42Z</time>
      </trkpt>
      <trkpt lat="45.99631" lon="4.71447">
        <ele>197</ele>
        <time>2018-05-09T08:52:43Z</time>
      </trkpt>
      <trkpt lat="45.99635" lon="4.71441">
        <ele>197</ele>
        <time>2018-05-09T08:52:44Z</time>
      </trkpt>
      <trkpt lat="45.99639" lon="4.71436">
        <ele>197</ele>
        <time>2018-05-09T08:52:45Z</time>
      </trkpt>
      <trkpt lat="45.99642" lon="4.71429">
        <ele>197</ele>
        <time>2018-05-09T08:52:46Z</time>
      </trkpt>
      <trkpt lat="45.99645" lon="4.71423">
        <ele>197</ele>
        <time>2018-05-09T08:52:47Z</time>
      </trkpt>
      <trkpt lat="45.99648" lon="4.71416">
        <ele>198</ele>
        <time>2018-05-09T08:52:48Z</time>
      </trkpt>
      <trkpt lat="45.99651" lon="4.71409">
        <ele>198</ele>
        <time>2018-05-09T08:52:49Z</time>
      </trkpt>
      <trkpt lat="45.99656" lon="4.71402">
        <ele>198</ele>
        <time>2018-05-09T08:52:50Z</time>
      </trkpt>
      <trkpt lat="45.99658" lon="4.71396">
        <ele>198</ele>
        <time>2018-05-09T08:52:51Z</time>
      </trkpt>
      <trkpt lat="45.99663" lon="4.71392">
        <ele>198</ele>
        <time>2018-05-09T08:52:52Z</time>
      </trkpt>
      <trkpt lat="45.99667" lon="4.71385">
        <ele>198</ele>
        <time>2018-05-09T08:52:53Z</time>
      </trkpt>
      <trkpt lat="45.99669" lon="4.7138">
        <ele>198</ele>
        <time>2018-05-09T08:52:54Z</time>
      </trkpt>
      <trkpt lat="45.99672" lon="4.71374">
        <ele>197</ele>
        <time>2018-05-09T08:52:55Z</time>
      </trkpt>
      <trkpt lat="45.99675" lon="4.71368">
        <ele>197</ele>
        <time>2018-05-09T08:52:56Z</time>
      </trkpt>
      <trkpt lat="45.99677" lon="4.71363">
        <ele>197</ele>
        <time>2018-05-09T08:52:57Z</time>
      </trkpt>
      <trkpt lat="45.99681" lon="4.71357">
        <ele>197</ele>
        <time>2018-05-09T08:52:58Z</time>
      </trkpt>
      <trkpt lat="45.99683" lon="4.71352">
        <ele>197</ele>
        <time>2018-05-09T08:52:59Z</time>
      </trkpt>
      <trkpt lat="45.99686" lon="4.71347">
        <ele>197</ele>
        <time>2018-05-09T08:53:00Z</time>
      </trkpt>
      <trkpt lat="45.99688" lon="4.7134">
        <ele>197</ele>
        <time>2018-05-09T08:53:01Z</time>
      </trkpt>
      <trkpt lat="45.99691" lon="4.71334">
        <ele>197</ele>
        <time>2018-05-09T08:53:02Z</time>
      </trkpt>
      <trkpt lat="45.99693" lon="4.71329">
        <ele>197</ele>
        <time>2018-05-09T08:53:03Z</time>
      </trkpt>
      <trkpt lat="45.99697" lon="4.71324">
        <ele>198</ele>
        <time>2018-05-09T08:53:04Z</time>
      </trkpt>
      <trkpt lat="45.997" lon="4.71319">
        <ele>198</ele>
        <time>2018-05-09T08:53:05Z</time>
      </trkpt>
      <trkpt lat="45.99703" lon="4.71313">
        <ele>198</ele>
        <time>2018-05-09T08:53:06Z</time>
      </trkpt>
      <trkpt lat="45.99707" lon="4.71307">
        <ele>198</ele>
        <time>2018-05-09T08:53:07Z</time>
      </trkpt>
      <trkpt lat="45.9971" lon="4.713">
        <ele>198</ele>
        <time>2018-05-09T08:53:08Z</time>
      </trkpt>
      <trkpt lat="45.99713" lon="4.71293">
        <ele>198</ele>
        <time>2018-05-09T08:53:09Z</time>
      </trkpt>
      <trkpt lat="45.99716" lon="4.71288">
        <ele>198</ele>
        <time>2018-05-09T08:53:10Z</time>
      </trkpt>
      <trkpt lat="45.9972" lon="4.71281">
        <ele>198</ele>
        <time>2018-05-09T08:53:11Z</time>
      </trkpt>
      <trkpt lat="45.99722" lon="4.71275">
        <ele>198</ele>
        <time>2018-05-09T08:53:12Z</time>
      </trkpt>
      <trkpt lat="45.99725" lon="4.71268">
        <ele>198</ele>
        <time>2018-05-09T08:53:13Z</time>
      </trkpt>
      <trkpt lat="45.99728" lon="4.71261">
        <ele>198</ele>
        <time>2018-05-09T08:53:14Z</time>
      </trkpt>
      <trkpt lat="45.99731" lon="4.71257">
        <ele>198</ele>
        <time>2018-05-09T08:53:15Z</time>
      </trkpt>
      <trkpt lat="45.99733" lon="4.71251">
        <ele>198</ele>
        <time>2018-05-09T08:53:16Z</time>
      </trkpt>
      <trkpt lat="45.99735" lon="4.71245">
        <ele>198</ele>
        <time>2018-05-09T08:53:17Z</time>
      </trkpt>
      <trkpt lat="45.99739" lon="4.71239">
        <ele>198</ele>
        <time>2018-05-09T08:53:18Z</time>
      </trkpt>
      <trkpt lat="45.99742" lon="4.71232">
        <ele>198</ele>
        <time>2018-05-09T08:53:19Z</time>
      </trkpt>
      <trkpt lat="45.99746" lon="4.71226">
        <ele>198</ele>
        <time>2018-05-09T08:53:20Z</time>
      </trkpt>
      <trkpt lat="45.99748" lon="4.71221">
        <ele>198</ele>
        <time>2018-05-09T08:53:21Z</time>
      </trkpt>
      <trkpt lat="45.99753" lon="4.71211">
        <ele>199</ele>
        <time>2018-05-09T08:53:23Z</time>
      </trkpt>
      <trkpt lat="45.99756" lon="4.71206">
        <ele>198</ele>
        <time>2018-05-09T08:53:24Z</time>
      </trkpt>
      <trkpt lat="45.99762" lon="4.71197">
        <ele>198</ele>
        <time>2018-05-09T08:53:26Z</time>
      </trkpt>
      <trkpt lat="45.99763" lon="4.71195">
        <ele>198</ele>
        <time>2018-05-09T08:53:27Z</time>
      </trkpt>
      <trkpt lat="45.99769" lon="4.71188">
        <ele>198</ele>
        <time>2018-05-09T08:53:30Z</time>
      </trkpt>
      <trkpt lat="45.99775" lon="4.71179">
        <ele>198</ele>
        <time>2018-05-09T08:53:31Z</time>
      </trkpt>
      <trkpt lat="45.9978" lon="4.7117">
        <ele>198</ele>
        <time>2018-05-09T08:53:33Z</time>
      </trkpt>
      <trkpt lat="45.99782" lon="4.71164">
        <ele>198</ele>
        <time>2018-05-09T08:53:34Z</time>
      </trkpt>
      <trkpt lat="45.99787" lon="4.71153">
        <ele>198</ele>
        <time>2018-05-09T08:53:36Z</time>
      </trkpt>
      <trkpt lat="45.99789" lon="4.71148">
        <ele>198</ele>
        <time>2018-05-09T08:53:37Z</time>
      </trkpt>
      <trkpt lat="45.99792" lon="4.71141">
        <ele>198</ele>
        <time>2018-05-09T08:53:38Z</time>
      </trkpt>
      <trkpt lat="45.99795" lon="4.71136">
        <ele>198</ele>
        <time>2018-05-09T08:53:39Z</time>
      </trkpt>
      <trkpt lat="45.99798" lon="4.7113">
        <ele>198</ele>
        <time>2018-05-09T08:53:40Z</time>
      </trkpt>
      <trkpt lat="45.998" lon="4.71123">
        <ele>198</ele>
        <time>2018-05-09T08:53:41Z</time>
      </trkpt>
      <trkpt lat="45.99801" lon="4.71115">
        <ele>198</ele>
        <time>2018-05-09T08:53:42Z</time>
      </trkpt>
      <trkpt lat="45.99803" lon="4.71108">
        <ele>198</ele>
        <time>2018-05-09T08:53:43Z</time>
      </trkpt>
      <trkpt lat="45.99803" lon="4.711">
        <ele>198</ele>
        <time>2018-05-09T08:53:44Z</time>
      </trkpt>
      <trkpt lat="45.99804" lon="4.71092">
        <ele>198</ele>
        <time>2018-05-09T08:53:45Z</time>
      </trkpt>
      <trkpt lat="45.99805" lon="4.71086">
        <ele>198</ele>
        <time>2018-05-09T08:53:46Z</time>
      </trkpt>
      <trkpt lat="45.99807" lon="4.7108">
        <ele>199</ele>
        <time>2018-05-09T08:53:47Z</time>
      </trkpt>
      <trkpt lat="45.99808" lon="4.71073">
        <ele>199</ele>
        <time>2018-05-09T08:53:48Z</time>
      </trkpt>
      <trkpt lat="45.99809" lon="4.71067">
        <ele>199</ele>
        <time>2018-05-09T08:53:49Z</time>
      </trkpt>
      <trkpt lat="45.99809" lon="4.71059">
        <ele>199</ele>
        <time>2018-05-09T08:53:50Z</time>
      </trkpt>
      <trkpt lat="45.9981" lon="4.71054">
        <ele>199</ele>
        <time>2018-05-09T08:53:51Z</time>
      </trkpt>
      <trkpt lat="45.99812" lon="4.71047">
        <ele>199</ele>
        <time>2018-05-09T08:53:52Z</time>
      </trkpt>
      <trkpt lat="45.99813" lon="4.7104">
        <ele>199</ele>
        <time>2018-05-09T08:53:53Z</time>
      </trkpt>
      <trkpt lat="45.99814" lon="4.71033">
        <ele>199</ele>
        <time>2018-05-09T08:53:54Z</time>
      </trkpt>
      <trkpt lat="45.99815" lon="4.71027">
        <ele>199</ele>
        <time>2018-05-09T08:53:55Z</time>
      </trkpt>
      <trkpt lat="45.99816" lon="4.71019">
        <ele>199</ele>
        <time>2018-05-09T08:53:56Z</time>
      </trkpt>
      <trkpt lat="45.99818" lon="4.71013">
        <ele>200</ele>
        <time>2018-05-09T08:53:57Z</time>
      </trkpt>
      <trkpt lat="45.9982" lon="4.71006">
        <ele>200</ele>
        <time>2018-05-09T08:53:58Z</time>
      </trkpt>
      <trkpt lat="45.99821" lon="4.70998">
        <ele>200</ele>
        <time>2018-05-09T08:53:59Z</time>
      </trkpt>
      <trkpt lat="45.99822" lon="4.70992">
        <ele>200</ele>
        <time>2018-05-09T08:54:00Z</time>
      </trkpt>
      <trkpt lat="45.99824" lon="4.70984">
        <ele>200</ele>
        <time>2018-05-09T08:54:01Z</time>
      </trkpt>
      <trkpt lat="45.99825" lon="4.70978">
        <ele>200</ele>
        <time>2018-05-09T08:54:02Z</time>
      </trkpt>
      <trkpt lat="45.99827" lon="4.7097">
        <ele>200</ele>
        <time>2018-05-09T08:54:03Z</time>
      </trkpt>
      <trkpt lat="45.99828" lon="4.70962">
        <ele>200</ele>
        <time>2018-05-09T08:54:04Z</time>
      </trkpt>
      <trkpt lat="45.9983" lon="4.70955">
        <ele>199</ele>
        <time>2018-05-09T08:54:05Z</time>
      </trkpt>
      <trkpt lat="45.99831" lon="4.70945">
        <ele>199</ele>
        <time>2018-05-09T08:54:06Z</time>
      </trkpt>
      <trkpt lat="45.99832" lon="4.70937">
        <ele>199</ele>
        <time>2018-05-09T08:54:07Z</time>
      </trkpt>
      <trkpt lat="45.99834" lon="4.70928">
        <ele>199</ele>
        <time>2018-05-09T08:54:08Z</time>
      </trkpt>
      <trkpt lat="45.99834" lon="4.7092">
        <ele>199</ele>
        <time>2018-05-09T08:54:09Z</time>
      </trkpt>
      <trkpt lat="45.99837" lon="4.70912">
        <ele>199</ele>
        <time>2018-05-09T08:54:10Z</time>
      </trkpt>
      <trkpt lat="45.99838" lon="4.70903">
        <ele>199</ele>
        <time>2018-05-09T08:54:11Z</time>
      </trkpt>
      <trkpt lat="45.99839" lon="4.70895">
        <ele>199</ele>
        <time>2018-05-09T08:54:12Z</time>
      </trkpt>
      <trkpt lat="45.99843" lon="4.7089">
        <ele>199</ele>
        <time>2018-05-09T08:54:13Z</time>
      </trkpt>
      <trkpt lat="45.99843" lon="4.70881">
        <ele>200</ele>
        <time>2018-05-09T08:54:14Z</time>
      </trkpt>
      <trkpt lat="45.99844" lon="4.70873">
        <ele>200</ele>
        <time>2018-05-09T08:54:15Z</time>
      </trkpt>
      <trkpt lat="45.99845" lon="4.70866">
        <ele>200</ele>
        <time>2018-05-09T08:54:16Z</time>
      </trkpt>
      <trkpt lat="45.99847" lon="4.70859">
        <ele>200</ele>
        <time>2018-05-09T08:54:17Z</time>
      </trkpt>
      <trkpt lat="45.99849" lon="4.70853">
        <ele>200</ele>
        <time>2018-05-09T08:54:18Z</time>
      </trkpt>
      <trkpt lat="45.9985" lon="4.70846">
        <ele>200</ele>
        <time>2018-05-09T08:54:19Z</time>
      </trkpt>
      <trkpt lat="45.99851" lon="4.70839">
        <ele>201</ele>
        <time>2018-05-09T08:54:20Z</time>
      </trkpt>
      <trkpt lat="45.99854" lon="4.70831">
        <ele>201</ele>
        <time>2018-05-09T08:54:21Z</time>
      </trkpt>
      <trkpt lat="45.99857" lon="4.70825">
        <ele>201</ele>
        <time>2018-05-09T08:54:22Z</time>
      </trkpt>
      <trkpt lat="45.99858" lon="4.70817">
        <ele>201</ele>
        <time>2018-05-09T08:54:23Z</time>
      </trkpt>
      <trkpt lat="45.9986" lon="4.70811">
        <ele>201</ele>
        <time>2018-05-09T08:54:24Z</time>
      </trkpt>
      <trkpt lat="45.99862" lon="4.70804">
        <ele>201</ele>
        <time>2018-05-09T08:54:25Z</time>
      </trkpt>
      <trkpt lat="45.99863" lon="4.70795">
        <ele>200</ele>
        <time>2018-05-09T08:54:26Z</time>
      </trkpt>
      <trkpt lat="45.99864" lon="4.70789">
        <ele>200</ele>
        <time>2018-05-09T08:54:27Z</time>
      </trkpt>
      <trkpt lat="45.99865" lon="4.70783">
        <ele>200</ele>
        <time>2018-05-09T08:54:28Z</time>
      </trkpt>
      <trkpt lat="45.99867" lon="4.70776">
        <ele>200</ele>
        <time>2018-05-09T08:54:29Z</time>
      </trkpt>
      <trkpt lat="45.99869" lon="4.70765">
        <ele>200</ele>
        <time>2018-05-09T08:54:31Z</time>
      </trkpt>
      <trkpt lat="45.9987" lon="4.70759">
        <ele>200</ele>
        <time>2018-05-09T08:54:32Z</time>
      </trkpt>
      <trkpt lat="45.99871" lon="4.70751">
        <ele>200</ele>
        <time>2018-05-09T08:54:33Z</time>
      </trkpt>
      <trkpt lat="45.99871" lon="4.70745">
        <ele>200</ele>
        <time>2018-05-09T08:54:34Z</time>
      </trkpt>
      <trkpt lat="45.99873" lon="4.70736">
        <ele>200</ele>
        <time>2018-05-09T08:54:36Z</time>
      </trkpt>
      <trkpt lat="45.99874" lon="4.70727">
        <ele>200</ele>
        <time>2018-05-09T08:54:37Z</time>
      </trkpt>
      <trkpt lat="45.99876" lon="4.70717">
        <ele>200</ele>
        <time>2018-05-09T08:54:39Z</time>
      </trkpt>
      <trkpt lat="45.99876" lon="4.70714">
        <ele>200</ele>
        <time>2018-05-09T08:54:40Z</time>
      </trkpt>
      <trkpt lat="45.99878" lon="4.70703">
        <ele>200</ele>
        <time>2018-05-09T08:54:43Z</time>
      </trkpt>
      <trkpt lat="45.9988" lon="4.7069">
        <ele>200</ele>
        <time>2018-05-09T08:54:44Z</time>
      </trkpt>
      <trkpt lat="45.99883" lon="4.70678">
        <ele>200</ele>
        <time>2018-05-09T08:54:46Z</time>
      </trkpt>
      <trkpt lat="45.99884" lon="4.70672">
        <ele>200</ele>
        <time>2018-05-09T08:54:47Z</time>
      </trkpt>
      <trkpt lat="45.99889" lon="4.70663">
        <ele>200</ele>
        <time>2018-05-09T08:54:49Z</time>
      </trkpt>
      <trkpt lat="45.99893" lon="4.7066">
        <ele>200</ele>
        <time>2018-05-09T08:54:50Z</time>
      </trkpt>
      <trkpt lat="45.99898" lon="4.70657">
        <ele>200</ele>
        <time>2018-05-09T08:54:51Z</time>
      </trkpt>
      <trkpt lat="45.99903" lon="4.70656">
        <ele>200</ele>
        <time>2018-05-09T08:54:52Z</time>
      </trkpt>
      <trkpt lat="45.99907" lon="4.70655">
        <ele>200</ele>
        <time>2018-05-09T08:54:53Z</time>
      </trkpt>
      <trkpt lat="45.99912" lon="4.70654">
        <ele>200</ele>
        <time>2018-05-09T08:54:54Z</time>
      </trkpt>
      <trkpt lat="45.99917" lon="4.70652">
        <ele>199</ele>
        <time>2018-05-09T08:54:55Z</time>
      </trkpt>
      <trkpt lat="45.99923" lon="4.70648">
        <ele>199</ele>
        <time>2018-05-09T08:54:56Z</time>
      </trkpt>
      <trkpt lat="45.99928" lon="4.70647">
        <ele>199</ele>
        <time>2018-05-09T08:54:57Z</time>
      </trkpt>
      <trkpt lat="45.99933" lon="4.70644">
        <ele>199</ele>
        <time>2018-05-09T08:54:58Z</time>
      </trkpt>
      <trkpt lat="45.99938" lon="4.70642">
        <ele>199</ele>
        <time>2018-05-09T08:54:59Z</time>
      </trkpt>
      <trkpt lat="45.99943" lon="4.70639">
        <ele>199</ele>
        <time>2018-05-09T08:55:00Z</time>
      </trkpt>
      <trkpt lat="45.99947" lon="4.70637">
        <ele>199</ele>
        <time>2018-05-09T08:55:01Z</time>
      </trkpt>
      <trkpt lat="45.99953" lon="4.70634">
        <ele>199</ele>
        <time>2018-05-09T08:55:02Z</time>
      </trkpt>
      <trkpt lat="45.99958" lon="4.70635">
        <ele>199</ele>
        <time>2018-05-09T08:55:03Z</time>
      </trkpt>
      <trkpt lat="45.99962" lon="4.70634">
        <ele>199</ele>
        <time>2018-05-09T08:55:04Z</time>
      </trkpt>
      <trkpt lat="45.99967" lon="4.70632">
        <ele>199</ele>
        <time>2018-05-09T08:55:05Z</time>
      </trkpt>
      <trkpt lat="45.99973" lon="4.70631">
        <ele>199</ele>
        <time>2018-05-09T08:55:06Z</time>
      </trkpt>
      <trkpt lat="45.99978" lon="4.70631">
        <ele>199</ele>
        <time>2018-05-09T08:55:07Z</time>
      </trkpt>
      <trkpt lat="45.99983" lon="4.7063">
        <ele>199</ele>
        <time>2018-05-09T08:55:08Z</time>
      </trkpt>
      <trkpt lat="45.99988" lon="4.70628">
        <ele>199</ele>
        <time>2018-05-09T08:55:09Z</time>
      </trkpt>
      <trkpt lat="45.99994" lon="4.70627">
        <ele>199</ele>
        <time>2018-05-09T08:55:10Z</time>
      </trkpt>
      <trkpt lat="45.99999" lon="4.70627">
        <ele>199</ele>
        <time>2018-05-09T08:55:11Z</time>
      </trkpt>
      <trkpt lat="46.00003" lon="4.70625">
        <ele>198</ele>
        <time>2018-05-09T08:55:12Z</time>
      </trkpt>
      <trkpt lat="46.00009" lon="4.70623">
        <ele>199</ele>
        <time>2018-05-09T08:55:13Z</time>
      </trkpt>
      <trkpt lat="46.00013" lon="4.70622">
        <ele>199</ele>
        <time>2018-05-09T08:55:14Z</time>
      </trkpt>
      <trkpt lat="46.00018" lon="4.70621">
        <ele>199</ele>
        <time>2018-05-09T08:55:15Z</time>
      </trkpt>
      <trkpt lat="46.00023" lon="4.7062">
        <ele>199</ele>
        <time>2018-05-09T08:55:16Z</time>
      </trkpt>
      <trkpt lat="46.00027" lon="4.7062">
        <ele>199</ele>
        <time>2018-05-09T08:55:17Z</time>
      </trkpt>
      <trkpt lat="46.00033" lon="4.70618">
        <ele>199</ele>
        <time>2018-05-09T08:55:18Z</time>
      </trkpt>
      <trkpt lat="46.00038" lon="4.70618">
        <ele>199</ele>
        <time>2018-05-09T08:55:19Z</time>
      </trkpt>
      <trkpt lat="46.00043" lon="4.70617">
        <ele>198</ele>
        <time>2018-05-09T08:55:20Z</time>
      </trkpt>
      <trkpt lat="46.00048" lon="4.70614">
        <ele>198</ele>
        <time>2018-05-09T08:55:21Z</time>
      </trkpt>
      <trkpt lat="46.00053" lon="4.70613">
        <ele>198</ele>
        <time>2018-05-09T08:55:22Z</time>
      </trkpt>
      <trkpt lat="46.00059" lon="4.70611">
        <ele>198</ele>
        <time>2018-05-09T08:55:23Z</time>
      </trkpt>
      <trkpt lat="46.00064" lon="4.7061">
        <ele>198</ele>
        <time>2018-05-09T08:55:24Z</time>
      </trkpt>
      <trkpt lat="46.00069" lon="4.70606">
        <ele>198</ele>
        <time>2018-05-09T08:55:25Z</time>
      </trkpt>
      <trkpt lat="46.00073" lon="4.70604">
        <ele>198</ele>
        <time>2018-05-09T08:55:26Z</time>
      </trkpt>
      <trkpt lat="46.00078" lon="4.70603">
        <ele>198</ele>
        <time>2018-05-09T08:55:27Z</time>
      </trkpt>
      <trkpt lat="46.00082" lon="4.70601">
        <ele>198</ele>
        <time>2018-05-09T08:55:28Z</time>
      </trkpt>
      <trkpt lat="46.00087" lon="4.70597">
        <ele>198</ele>
        <time>2018-05-09T08:55:29Z</time>
      </trkpt>
      <trkpt lat="46.00093" lon="4.70593">
        <ele>198</ele>
        <time>2018-05-09T08:55:30Z</time>
      </trkpt>
      <trkpt lat="46.00098" lon="4.70591">
        <ele>198</ele>
        <time>2018-05-09T08:55:31Z</time>
      </trkpt>
      <trkpt lat="46.00105" lon="4.70586">
        <ele>198</ele>
        <time>2018-05-09T08:55:32Z</time>
      </trkpt>
      <trkpt lat="46.0011" lon="4.70585">
        <ele>198</ele>
        <time>2018-05-09T08:55:33Z</time>
      </trkpt>
      <trkpt lat="46.00114" lon="4.70581">
        <ele>198</ele>
        <time>2018-05-09T08:55:34Z</time>
      </trkpt>
      <trkpt lat="46.00121" lon="4.70575">
        <ele>198</ele>
        <time>2018-05-09T08:55:36Z</time>
      </trkpt>
      <trkpt lat="46.00125" lon="4.70572">
        <ele>198</ele>
        <time>2018-05-09T08:55:37Z</time>
      </trkpt>
      <trkpt lat="46.00133" lon="4.70566">
        <ele>198</ele>
        <time>2018-05-09T08:55:39Z</time>
      </trkpt>
      <trkpt lat="46.00137" lon="4.70562">
        <ele>198</ele>
        <time>2018-05-09T08:55:40Z</time>
      </trkpt>
      <trkpt lat="46.00142" lon="4.70557">
        <ele>198</ele>
        <time>2018-05-09T08:55:41Z</time>
      </trkpt>
      <trkpt lat="46.00147" lon="4.70555">
        <ele>198</ele>
        <time>2018-05-09T08:55:42Z</time>
      </trkpt>
      <trkpt lat="46.00152" lon="4.70554">
        <ele>198</ele>
        <time>2018-05-09T08:55:43Z</time>
      </trkpt>
      <trkpt lat="46.00156" lon="4.70553">
        <ele>198</ele>
        <time>2018-05-09T08:55:44Z</time>
      </trkpt>
      <trkpt lat="46.00161" lon="4.70552">
        <ele>198</ele>
        <time>2018-05-09T08:55:45Z</time>
      </trkpt>
      <trkpt lat="46.00164" lon="4.70548">
        <ele>198</ele>
        <time>2018-05-09T08:55:46Z</time>
      </trkpt>
      <trkpt lat="46.00168" lon="4.70544">
        <ele>198</ele>
        <time>2018-05-09T08:55:47Z</time>
      </trkpt>
      <trkpt lat="46.00173" lon="4.70541">
        <ele>198</ele>
        <time>2018-05-09T08:55:48Z</time>
      </trkpt>
      <trkpt lat="46.00176" lon="4.70539">
        <ele>198</ele>
        <time>2018-05-09T08:55:49Z</time>
      </trkpt>
      <trkpt lat="46.00183" lon="4.70536">
        <ele>198</ele>
        <time>2018-05-09T08:55:50Z</time>
      </trkpt>
      <trkpt lat="46.00189" lon="4.70535">
        <ele>198</ele>
        <time>2018-05-09T08:55:51Z</time>
      </trkpt>
      <trkpt lat="46.00195" lon="4.70535">
        <ele>198</ele>
        <time>2018-05-09T08:55:52Z</time>
      </trkpt>
      <trkpt lat="46.00201" lon="4.70534">
        <ele>198</ele>
        <time>2018-05-09T08:55:53Z</time>
      </trkpt>
      <trkpt lat="46.00206" lon="4.70534">
        <ele>198</ele>
        <time>2018-05-09T08:55:54Z</time>
      </trkpt>
      <trkpt lat="46.00212" lon="4.70534">
        <ele>198</ele>
        <time>2018-05-09T08:55:55Z</time>
      </trkpt>
      <trkpt lat="46.00217" lon="4.70532">
        <ele>198</ele>
        <time>2018-05-09T08:55:56Z</time>
      </trkpt>
      <trkpt lat="46.00222" lon="4.70531">
        <ele>198</ele>
        <time>2018-05-09T08:55:57Z</time>
      </trkpt>
      <trkpt lat="46.00227" lon="4.70528">
        <ele>198</ele>
        <time>2018-05-09T08:55:58Z</time>
      </trkpt>
      <trkpt lat="46.00232" lon="4.70526">
        <ele>198</ele>
        <time>2018-05-09T08:55:59Z</time>
      </trkpt>
      <trkpt lat="46.00237" lon="4.70524">
        <ele>198</ele>
        <time>2018-05-09T08:56:00Z</time>
      </trkpt>
      <trkpt lat="46.00242" lon="4.70522">
        <ele>198</ele>
        <time>2018-05-09T08:56:01Z</time>
      </trkpt>
      <trkpt lat="46.00248" lon="4.70521">
        <ele>198</ele>
        <time>2018-05-09T08:56:02Z</time>
      </trkpt>
      <trkpt lat="46.00253" lon="4.70519">
        <ele>197</ele>
        <time>2018-05-09T08:56:03Z</time>
      </trkpt>
      <trkpt lat="46.00258" lon="4.70519">
        <ele>197</ele>
        <time>2018-05-09T08:56:04Z</time>
      </trkpt>
      <trkpt lat="46.00263" lon="4.70518">
        <ele>197</ele>
        <time>2018-05-09T08:56:05Z</time>
      </trkpt>
      <trkpt lat="46.00267" lon="4.70518">
        <ele>197</ele>
        <time>2018-05-09T08:56:06Z</time>
      </trkpt>
      <trkpt lat="46.00272" lon="4.70517">
        <ele>197</ele>
        <time>2018-05-09T08:56:07Z</time>
      </trkpt>
      <trkpt lat="46.00277" lon="4.70516">
        <ele>197</ele>
        <time>2018-05-09T08:56:08Z</time>
      </trkpt>
      <trkpt lat="46.00282" lon="4.70515">
        <ele>197</ele>
        <time>2018-05-09T08:56:09Z</time>
      </trkpt>
      <trkpt lat="46.00287" lon="4.70514">
        <ele>197</ele>
        <time>2018-05-09T08:56:10Z</time>
      </trkpt>
      <trkpt lat="46.00291" lon="4.70513">
        <ele>197</ele>
        <time>2018-05-09T08:56:11Z</time>
      </trkpt>
      <trkpt lat="46.00296" lon="4.70512">
        <ele>197</ele>
        <time>2018-05-09T08:56:12Z</time>
      </trkpt>
      <trkpt lat="46.00301" lon="4.70512">
        <ele>197</ele>
        <time>2018-05-09T08:56:13Z</time>
      </trkpt>
      <trkpt lat="46.00306" lon="4.7051">
        <ele>197</ele>
        <time>2018-05-09T08:56:14Z</time>
      </trkpt>
      <trkpt lat="46.00311" lon="4.7051">
        <ele>197</ele>
        <time>2018-05-09T08:56:15Z</time>
      </trkpt>
      <trkpt lat="46.00316" lon="4.70509">
        <ele>197</ele>
        <time>2018-05-09T08:56:16Z</time>
      </trkpt>
      <trkpt lat="46.00322" lon="4.70507">
        <ele>198</ele>
        <time>2018-05-09T08:56:17Z</time>
      </trkpt>
      <trkpt lat="46.00327" lon="4.70506">
        <ele>198</ele>
        <time>2018-05-09T08:56:18Z</time>
      </trkpt>
      <trkpt lat="46.00335" lon="4.70505">
        <ele>198</ele>
        <time>2018-05-09T08:56:20Z</time>
      </trkpt>
      <trkpt lat="46.0034" lon="4.70504">
        <ele>198</ele>
        <time>2018-05-09T08:56:21Z</time>
      </trkpt>
      <trkpt lat="46.00345" lon="4.70503">
        <ele>198</ele>
        <time>2018-05-09T08:56:22Z</time>
      </trkpt>
      <trkpt lat="46.0035" lon="4.70502">
        <ele>198</ele>
        <time>2018-05-09T08:56:23Z</time>
      </trkpt>
      <trkpt lat="46.00358" lon="4.705">
        <ele>200</ele>
        <time>2018-05-09T08:56:25Z</time>
      </trkpt>
      <trkpt lat="46.00363" lon="4.705">
        <ele>200</ele>
        <time>2018-05-09T08:56:26Z</time>
      </trkpt>
      <trkpt lat="46.00372" lon="4.70499">
        <ele>200</ele>
        <time>2018-05-09T08:56:28Z</time>
      </trkpt>
      <trkpt lat="46.00377" lon="4.70497">
        <ele>200</ele>
        <time>2018-05-09T08:56:29Z</time>
      </trkpt>
      <trkpt lat="46.00381" lon="4.70496">
        <ele>200</ele>
        <time>2018-05-09T08:56:30Z</time>
      </trkpt>
      <trkpt lat="46.00387" lon="4.70495">
        <ele>200</ele>
        <time>2018-05-09T08:56:31Z</time>
      </trkpt>
      <trkpt lat="46.00392" lon="4.70496">
        <ele>200</ele>
        <time>2018-05-09T08:56:32Z</time>
      </trkpt>
      <trkpt lat="46.00397" lon="4.70496">
        <ele>200</ele>
        <time>2018-05-09T08:56:33Z</time>
      </trkpt>
      <trkpt lat="46.00401" lon="4.70498">
        <ele>200</ele>
        <time>2018-05-09T08:56:34Z</time>
      </trkpt>
      <trkpt lat="46.00407" lon="4.70498">
        <ele>200</ele>
        <time>2018-05-09T08:56:35Z</time>
      </trkpt>
      <trkpt lat="46.00412" lon="4.70499">
        <ele>200</ele>
        <time>2018-05-09T08:56:36Z</time>
      </trkpt>
      <trkpt lat="46.00418" lon="4.70499">
        <ele>200</ele>
        <time>2018-05-09T08:56:37Z</time>
      </trkpt>
      <trkpt lat="46.00424" lon="4.705">
        <ele>201</ele>
        <time>2018-05-09T08:56:38Z</time>
      </trkpt>
      <trkpt lat="46.0043" lon="4.705">
        <ele>201</ele>
        <time>2018-05-09T08:56:39Z</time>
      </trkpt>
      <trkpt lat="46.00435" lon="4.70501">
        <ele>200</ele>
        <time>2018-05-09T08:56:40Z</time>
      </trkpt>
      <trkpt lat="46.0044" lon="4.705">
        <ele>201</ele>
        <time>2018-05-09T08:56:41Z</time>
      </trkpt>
      <trkpt lat="46.00445" lon="4.705">
        <ele>201</ele>
        <time>2018-05-09T08:56:42Z</time>
      </trkpt>
      <trkpt lat="46.0045" lon="4.70501">
        <ele>201</ele>
        <time>2018-05-09T08:56:43Z</time>
      </trkpt>
      <trkpt lat="46.00456" lon="4.70501">
        <ele>201</ele>
        <time>2018-05-09T08:56:44Z</time>
      </trkpt>
      <trkpt lat="46.0046" lon="4.70505">
        <ele>201</ele>
        <time>2018-05-09T08:56:45Z</time>
      </trkpt>
      <trkpt lat="46.00466" lon="4.70511">
        <ele>201</ele>
        <time>2018-05-09T08:56:47Z</time>
      </trkpt>
      <trkpt lat="46.00469" lon="4.70516">
        <ele>201</ele>
        <time>2018-05-09T08:56:48Z</time>
      </trkpt>
      <trkpt lat="46.00474" lon="4.70527">
        <ele>201</ele>
        <time>2018-05-09T08:56:50Z</time>
      </trkpt>
      <trkpt lat="46.00477" lon="4.70534">
        <ele>201</ele>
        <time>2018-05-09T08:56:51Z</time>
      </trkpt>
      <trkpt lat="46.00479" lon="4.7054">
        <ele>201</ele>
        <time>2018-05-09T08:56:52Z</time>
      </trkpt>
      <trkpt lat="46.00483" lon="4.70544">
        <ele>201</ele>
        <time>2018-05-09T08:56:53Z</time>
      </trkpt>
      <trkpt lat="46.00491" lon="4.70546">
        <ele>201</ele>
        <time>2018-05-09T08:56:55Z</time>
      </trkpt>
      <trkpt lat="46.00495" lon="4.70544">
        <ele>201</ele>
        <time>2018-05-09T08:56:56Z</time>
      </trkpt>
      <trkpt lat="46.005" lon="4.70535">
        <ele>203</ele>
        <time>2018-05-09T08:56:58Z</time>
      </trkpt>
      <trkpt lat="46.00503" lon="4.7053">
        <ele>203</ele>
        <time>2018-05-09T08:56:59Z</time>
      </trkpt>
      <trkpt lat="46.00504" lon="4.70528">
        <ele>203</ele>
        <time>2018-05-09T08:57:00Z</time>
      </trkpt>
      <trkpt lat="46.00508" lon="4.7052">
        <ele>203</ele>
        <time>2018-05-09T08:57:01Z</time>
      </trkpt>
      <trkpt lat="46.00515" lon="4.70515">
        <ele>204</ele>
        <time>2018-05-09T08:57:03Z</time>
      </trkpt>
      <trkpt lat="46.00519" lon="4.70514">
        <ele>204</ele>
        <time>2018-05-09T08:57:04Z</time>
      </trkpt>
      <trkpt lat="46.00528" lon="4.70514">
        <ele>204</ele>
        <time>2018-05-09T08:57:06Z</time>
      </trkpt>
      <trkpt lat="46.00532" lon="4.70515">
        <ele>204</ele>
        <time>2018-05-09T08:57:07Z</time>
      </trkpt>
      <trkpt lat="46.00541" lon="4.70515">
        <ele>204</ele>
        <time>2018-05-09T08:57:09Z</time>
      </trkpt>
      <trkpt lat="46.00546" lon="4.70515">
        <ele>204</ele>
        <time>2018-05-09T08:57:10Z</time>
      </trkpt>
      <trkpt lat="46.00555" lon="4.70516">
        <ele>204</ele>
        <time>2018-05-09T08:57:12Z</time>
      </trkpt>
      <trkpt lat="46.0056" lon="4.70515">
        <ele>204</ele>
        <time>2018-05-09T08:57:13Z</time>
      </trkpt>
      <trkpt lat="46.00567" lon="4.70514">
        <ele>205</ele>
        <time>2018-05-09T08:57:15Z</time>
      </trkpt>
      <trkpt lat="46.00571" lon="4.70514">
        <ele>205</ele>
        <time>2018-05-09T08:57:16Z</time>
      </trkpt>
      <trkpt lat="46.00579" lon="4.70512">
        <ele>205</ele>
        <time>2018-05-09T08:57:18Z</time>
      </trkpt>
      <trkpt lat="46.00583" lon="4.70511">
        <ele>206</ele>
        <time>2018-05-09T08:57:19Z</time>
      </trkpt>
      <trkpt lat="46.00591" lon="4.70508">
        <ele>207</ele>
        <time>2018-05-09T08:57:21Z</time>
      </trkpt>
      <trkpt lat="46.00596" lon="4.70507">
        <ele>207</ele>
        <time>2018-05-09T08:57:22Z</time>
      </trkpt>
      <trkpt lat="46.00602" lon="4.70506">
        <ele>207</ele>
        <time>2018-05-09T08:57:23Z</time>
      </trkpt>
      <trkpt lat="46.00607" lon="4.70504">
        <ele>207</ele>
        <time>2018-05-09T08:57:24Z</time>
      </trkpt>
      <trkpt lat="46.00616" lon="4.70503">
        <ele>207</ele>
        <time>2018-05-09T08:57:26Z</time>
      </trkpt>
      <trkpt lat="46.00621" lon="4.70504">
        <ele>207</ele>
        <time>2018-05-09T08:57:27Z</time>
      </trkpt>
      <trkpt lat="46.00626" lon="4.70505">
        <ele>207</ele>
        <time>2018-05-09T08:57:28Z</time>
      </trkpt>
      <trkpt lat="46.0063" lon="4.70505">
        <ele>207</ele>
        <time>2018-05-09T08:57:29Z</time>
      </trkpt>
      <trkpt lat="46.00639" lon="4.70503">
        <ele>208</ele>
        <time>2018-05-09T08:57:31Z</time>
      </trkpt>
      <trkpt lat="46.00642" lon="4.70501">
        <ele>208</ele>
        <time>2018-05-09T08:57:32Z</time>
      </trkpt>
      <trkpt lat="46.00646" lon="4.705">
        <ele>211</ele>
        <time>2018-05-09T08:57:33Z</time>
      </trkpt>
      <trkpt lat="46.00651" lon="4.705">
        <ele>212</ele>
        <time>2018-05-09T08:57:34Z</time>
      </trkpt>
      <trkpt lat="46.00656" lon="4.70498">
        <ele>212</ele>
        <time>2018-05-09T08:57:35Z</time>
      </trkpt>
      <trkpt lat="46.00661" lon="4.70498">
        <ele>212</ele>
        <time>2018-05-09T08:57:36Z</time>
      </trkpt>
      <trkpt lat="46.00666" lon="4.70498">
        <ele>212</ele>
        <time>2018-05-09T08:57:37Z</time>
      </trkpt>
      <trkpt lat="46.00671" lon="4.70498">
        <ele>212</ele>
        <time>2018-05-09T08:57:38Z</time>
      </trkpt>
      <trkpt lat="46.00676" lon="4.70497">
        <ele>212</ele>
        <time>2018-05-09T08:57:39Z</time>
      </trkpt>
      <trkpt lat="46.00681" lon="4.70498">
        <ele>211</ele>
        <time>2018-05-09T08:57:40Z</time>
      </trkpt>
      <trkpt lat="46.00686" lon="4.70498">
        <ele>211</ele>
        <time>2018-05-09T08:57:41Z</time>
      </trkpt>
      <trkpt lat="46.00692" lon="4.70498">
        <ele>211</ele>
        <time>2018-05-09T08:57:42Z</time>
      </trkpt>
      <trkpt lat="46.00697" lon="4.70499">
        <ele>211</ele>
        <time>2018-05-09T08:57:43Z</time>
      </trkpt>
      <trkpt lat="46.00704" lon="4.70499">
        <ele>211</ele>
        <time>2018-05-09T08:57:44Z</time>
      </trkpt>
      <trkpt lat="46.00708" lon="4.70501">
        <ele>208</ele>
        <time>2018-05-09T08:57:45Z</time>
      </trkpt>
      <trkpt lat="46.00715" lon="4.70502">
        <ele>207</ele>
        <time>2018-05-09T08:57:46Z</time>
      </trkpt>
      <trkpt lat="46.00721" lon="4.70503">
        <ele>207</ele>
        <time>2018-05-09T08:57:47Z</time>
      </trkpt>
      <trkpt lat="46.00727" lon="4.70505">
        <ele>207</ele>
        <time>2018-05-09T08:57:48Z</time>
      </trkpt>
      <trkpt lat="46.00732" lon="4.70506">
        <ele>207</ele>
        <time>2018-05-09T08:57:49Z</time>
      </trkpt>
      <trkpt lat="46.0074" lon="4.70508">
        <ele>207</ele>
        <time>2018-05-09T08:57:50Z</time>
      </trkpt>
      <trkpt lat="46.00746" lon="4.7051">
        <ele>207</ele>
        <time>2018-05-09T08:57:51Z</time>
      </trkpt>
      <trkpt lat="46.00751" lon="4.70513">
        <ele>206</ele>
        <time>2018-05-09T08:57:52Z</time>
      </trkpt>
      <trkpt lat="46.00758" lon="4.70514">
        <ele>206</ele>
        <time>2018-05-09T08:57:53Z</time>
      </trkpt>
      <trkpt lat="46.00765" lon="4.70516">
        <ele>205</ele>
        <time>2018-05-09T08:57:54Z</time>
      </trkpt>
      <trkpt lat="46.00771" lon="4.70519">
        <ele>205</ele>
        <time>2018-05-09T08:57:55Z</time>
      </trkpt>
      <trkpt lat="46.00778" lon="4.70522">
        <ele>205</ele>
        <time>2018-05-09T08:57:56Z</time>
      </trkpt>
      <trkpt lat="46.00785" lon="4.70523">
        <ele>204</ele>
        <time>2018-05-09T08:57:57Z</time>
      </trkpt>
      <trkpt lat="46.00792" lon="4.70526">
        <ele>204</ele>
        <time>2018-05-09T08:57:58Z</time>
      </trkpt>
      <trkpt lat="46.00799" lon="4.70529">
        <ele>204</ele>
        <time>2018-05-09T08:57:59Z</time>
      </trkpt>
      <trkpt lat="46.00805" lon="4.70531">
        <ele>204</ele>
        <time>2018-05-09T08:58:00Z</time>
      </trkpt>
      <trkpt lat="46.00811" lon="4.70535">
        <ele>204</ele>
        <time>2018-05-09T08:58:01Z</time>
      </trkpt>
      <trkpt lat="46.00817" lon="4.70538">
        <ele>203</ele>
        <time>2018-05-09T08:58:02Z</time>
      </trkpt>
      <trkpt lat="46.00823" lon="4.70542">
        <ele>203</ele>
        <time>2018-05-09T08:58:03Z</time>
      </trkpt>
      <trkpt lat="46.0083" lon="4.70545">
        <ele>203</ele>
        <time>2018-05-09T08:58:04Z</time>
      </trkpt>
      <trkpt lat="46.00836" lon="4.70548">
        <ele>201</ele>
        <time>2018-05-09T08:58:05Z</time>
      </trkpt>
      <trkpt lat="46.00843" lon="4.70551">
        <ele>201</ele>
        <time>2018-05-09T08:58:06Z</time>
      </trkpt>
      <trkpt lat="46.0085" lon="4.70554">
        <ele>201</ele>
        <time>2018-05-09T08:58:07Z</time>
      </trkpt>
      <trkpt lat="46.00857" lon="4.70558">
        <ele>201</ele>
        <time>2018-05-09T08:58:08Z</time>
      </trkpt>
      <trkpt lat="46.00863" lon="4.70561">
        <ele>201</ele>
        <time>2018-05-09T08:58:09Z</time>
      </trkpt>
      <trkpt lat="46.0087" lon="4.70565">
        <ele>201</ele>
        <time>2018-05-09T08:58:10Z</time>
      </trkpt>
      <trkpt lat="46.00877" lon="4.70568">
        <ele>200</ele>
        <time>2018-05-09T08:58:11Z</time>
      </trkpt>
      <trkpt lat="46.00884" lon="4.70572">
        <ele>200</ele>
        <time>2018-05-09T08:58:12Z</time>
      </trkpt>
      <trkpt lat="46.00891" lon="4.70575">
        <ele>200</ele>
        <time>2018-05-09T08:58:13Z</time>
      </trkpt>
      <trkpt lat="46.00898" lon="4.70578">
        <ele>200</ele>
        <time>2018-05-09T08:58:14Z</time>
      </trkpt>
      <trkpt lat="46.00904" lon="4.70581">
        <ele>199</ele>
        <time>2018-05-09T08:58:15Z</time>
      </trkpt>
      <trkpt lat="46.00911" lon="4.70584">
        <ele>198</ele>
        <time>2018-05-09T08:58:16Z</time>
      </trkpt>
      <trkpt lat="46.00918" lon="4.70588">
        <ele>198</ele>
        <time>2018-05-09T08:58:17Z</time>
      </trkpt>
      <trkpt lat="46.00925" lon="4.7059">
        <ele>198</ele>
        <time>2018-05-09T08:58:18Z</time>
      </trkpt>
      <trkpt lat="46.00932" lon="4.70594">
        <ele>198</ele>
        <time>2018-05-09T08:58:19Z</time>
      </trkpt>
      <trkpt lat="46.00939" lon="4.70597">
        <ele>198</ele>
        <time>2018-05-09T08:58:20Z</time>
      </trkpt>
      <trkpt lat="46.00946" lon="4.70599">
        <ele>197</ele>
        <time>2018-05-09T08:58:21Z</time>
      </trkpt>
      <trkpt lat="46.00953" lon="4.70602">
        <ele>197</ele>
        <time>2018-05-09T08:58:22Z</time>
      </trkpt>
      <trkpt lat="46.0096" lon="4.70606">
        <ele>197</ele>
        <time>2018-05-09T08:58:23Z</time>
      </trkpt>
      <trkpt lat="46.00966" lon="4.70608">
        <ele>197</ele>
        <time>2018-05-09T08:58:24Z</time>
      </trkpt>
      <trkpt lat="46.00973" lon="4.70611">
        <ele>197</ele>
        <time>2018-05-09T08:58:25Z</time>
      </trkpt>
      <trkpt lat="46.00979" lon="4.70615">
        <ele>197</ele>
        <time>2018-05-09T08:58:26Z</time>
      </trkpt>
      <trkpt lat="46.00986" lon="4.70619">
        <ele>197</ele>
        <time>2018-05-09T08:58:27Z</time>
      </trkpt>
      <trkpt lat="46.00993" lon="4.70622">
        <ele>197</ele>
        <time>2018-05-09T08:58:28Z</time>
      </trkpt>
      <trkpt lat="46.01" lon="4.70625">
        <ele>197</ele>
        <time>2018-05-09T08:58:29Z</time>
      </trkpt>
      <trkpt lat="46.01006" lon="4.70628">
        <ele>196</ele>
        <time>2018-05-09T08:58:30Z</time>
      </trkpt>
      <trkpt lat="46.01013" lon="4.70632">
        <ele>196</ele>
        <time>2018-05-09T08:58:31Z</time>
      </trkpt>
      <trkpt lat="46.01018" lon="4.70634">
        <ele>196</ele>
        <time>2018-05-09T08:58:32Z</time>
      </trkpt>
      <trkpt lat="46.01025" lon="4.70638">
        <ele>196</ele>
        <time>2018-05-09T08:58:33Z</time>
      </trkpt>
      <trkpt lat="46.01032" lon="4.70641">
        <ele>196</ele>
        <time>2018-05-09T08:58:34Z</time>
      </trkpt>
      <trkpt lat="46.01038" lon="4.70644">
        <ele>196</ele>
        <time>2018-05-09T08:58:35Z</time>
      </trkpt>
      <trkpt lat="46.01045" lon="4.70646">
        <ele>195</ele>
        <time>2018-05-09T08:58:36Z</time>
      </trkpt>
      <trkpt lat="46.01051" lon="4.70649">
        <ele>195</ele>
        <time>2018-05-09T08:58:37Z</time>
      </trkpt>
      <trkpt lat="46.01058" lon="4.7065">
        <ele>195</ele>
        <time>2018-05-09T08:58:38Z</time>
      </trkpt>
      <trkpt lat="46.01065" lon="4.70652">
        <ele>195</ele>
        <time>2018-05-09T08:58:39Z</time>
      </trkpt>
      <trkpt lat="46.01072" lon="4.70656">
        <ele>195</ele>
        <time>2018-05-09T08:58:40Z</time>
      </trkpt>
      <trkpt lat="46.01078" lon="4.70658">
        <ele>195</ele>
        <time>2018-05-09T08:58:41Z</time>
      </trkpt>
      <trkpt lat="46.01085" lon="4.70662">
        <ele>195</ele>
        <time>2018-05-09T08:58:42Z</time>
      </trkpt>
      <trkpt lat="46.01092" lon="4.70665">
        <ele>195</ele>
        <time>2018-05-09T08:58:43Z</time>
      </trkpt>
      <trkpt lat="46.01099" lon="4.70669">
        <ele>195</ele>
        <time>2018-05-09T08:58:44Z</time>
      </trkpt>
      <trkpt lat="46.01105" lon="4.70673">
        <ele>195</ele>
        <time>2018-05-09T08:58:45Z</time>
      </trkpt>
      <trkpt lat="46.01112" lon="4.70675">
        <ele>195</ele>
        <time>2018-05-09T08:58:46Z</time>
      </trkpt>
      <trkpt lat="46.01118" lon="4.70679">
        <ele>195</ele>
        <time>2018-05-09T08:58:47Z</time>
      </trkpt>
      <trkpt lat="46.01125" lon="4.70681">
        <ele>195</ele>
        <time>2018-05-09T08:58:48Z</time>
      </trkpt>
      <trkpt lat="46.01131" lon="4.70684">
        <ele>194</ele>
        <time>2018-05-09T08:58:49Z</time>
      </trkpt>
      <trkpt lat="46.01137" lon="4.70688">
        <ele>194</ele>
        <time>2018-05-09T08:58:50Z</time>
      </trkpt>
      <trkpt lat="46.01144" lon="4.70691">
        <ele>194</ele>
        <time>2018-05-09T08:58:51Z</time>
      </trkpt>
      <trkpt lat="46.01149" lon="4.70694">
        <ele>194</ele>
        <time>2018-05-09T08:58:52Z</time>
      </trkpt>
      <trkpt lat="46.01155" lon="4.70697">
        <ele>194</ele>
        <time>2018-05-09T08:58:53Z</time>
      </trkpt>
      <trkpt lat="46.01162" lon="4.707">
        <ele>194</ele>
        <time>2018-05-09T08:58:54Z</time>
      </trkpt>
      <trkpt lat="46.01168" lon="4.70702">
        <ele>194</ele>
        <time>2018-05-09T08:58:55Z</time>
      </trkpt>
      <trkpt lat="46.01174" lon="4.70705">
        <ele>194</ele>
        <time>2018-05-09T08:58:56Z</time>
      </trkpt>
      <trkpt lat="46.01181" lon="4.70708">
        <ele>194</ele>
        <time>2018-05-09T08:58:57Z</time>
      </trkpt>
      <trkpt lat="46.01188" lon="4.70711">
        <ele>194</ele>
        <time>2018-05-09T08:58:58Z</time>
      </trkpt>
      <trkpt lat="46.01194" lon="4.70713">
        <ele>194</ele>
        <time>2018-05-09T08:58:59Z</time>
      </trkpt>
      <trkpt lat="46.012" lon="4.70717">
        <ele>194</ele>
        <time>2018-05-09T08:59:00Z</time>
      </trkpt>
      <trkpt lat="46.01208" lon="4.70718">
        <ele>194</ele>
        <time>2018-05-09T08:59:01Z</time>
      </trkpt>
      <trkpt lat="46.01214" lon="4.70721">
        <ele>194</ele>
        <time>2018-05-09T08:59:02Z</time>
      </trkpt>
      <trkpt lat="46.0122" lon="4.70724">
        <ele>194</ele>
        <time>2018-05-09T08:59:03Z</time>
      </trkpt>
      <trkpt lat="46.01227" lon="4.70727">
        <ele>194</ele>
        <time>2018-05-09T08:59:04Z</time>
      </trkpt>
      <trkpt lat="46.01234" lon="4.70729">
        <ele>194</ele>
        <time>2018-05-09T08:59:05Z</time>
      </trkpt>
      <trkpt lat="46.0124" lon="4.70731">
        <ele>193</ele>
        <time>2018-05-09T08:59:06Z</time>
      </trkpt>
      <trkpt lat="46.01247" lon="4.70732">
        <ele>193</ele>
        <time>2018-05-09T08:59:07Z</time>
      </trkpt>
      <trkpt lat="46.01254" lon="4.70734">
        <ele>192</ele>
        <time>2018-05-09T08:59:08Z</time>
      </trkpt>
      <trkpt lat="46.0126" lon="4.70738">
        <ele>192</ele>
        <time>2018-05-09T08:59:09Z</time>
      </trkpt>
      <trkpt lat="46.01267" lon="4.70739">
        <ele>192</ele>
        <time>2018-05-09T08:59:10Z</time>
      </trkpt>
      <trkpt lat="46.01273" lon="4.7074">
        <ele>192</ele>
        <time>2018-05-09T08:59:11Z</time>
      </trkpt>
      <trkpt lat="46.01279" lon="4.70742">
        <ele>192</ele>
        <time>2018-05-09T08:59:12Z</time>
      </trkpt>
      <trkpt lat="46.01285" lon="4.70744">
        <ele>191</ele>
        <time>2018-05-09T08:59:13Z</time>
      </trkpt>
      <trkpt lat="46.01291" lon="4.70745">
        <ele>191</ele>
        <time>2018-05-09T08:59:14Z</time>
      </trkpt>
      <trkpt lat="46.01298" lon="4.70746">
        <ele>191</ele>
        <time>2018-05-09T08:59:15Z</time>
      </trkpt>
      <trkpt lat="46.01303" lon="4.70746">
        <ele>191</ele>
        <time>2018-05-09T08:59:16Z</time>
      </trkpt>
      <trkpt lat="46.01309" lon="4.70745">
        <ele>191</ele>
        <time>2018-05-09T08:59:17Z</time>
      </trkpt>
      <trkpt lat="46.01315" lon="4.70746">
        <ele>190</ele>
        <time>2018-05-09T08:59:18Z</time>
      </trkpt>
      <trkpt lat="46.0132" lon="4.70747">
        <ele>190</ele>
        <time>2018-05-09T08:59:19Z</time>
      </trkpt>
      <trkpt lat="46.01326" lon="4.70748">
        <ele>190</ele>
        <time>2018-05-09T08:59:20Z</time>
      </trkpt>
      <trkpt lat="46.01333" lon="4.70749">
        <ele>189</ele>
        <time>2018-05-09T08:59:21Z</time>
      </trkpt>
      <trkpt lat="46.0134" lon="4.7075">
        <ele>189</ele>
        <time>2018-05-09T08:59:22Z</time>
      </trkpt>
      <trkpt lat="46.01346" lon="4.7075">
        <ele>189</ele>
        <time>2018-05-09T08:59:23Z</time>
      </trkpt>
      <trkpt lat="46.01352" lon="4.7075">
        <ele>189</ele>
        <time>2018-05-09T08:59:24Z</time>
      </trkpt>
      <trkpt lat="46.01358" lon="4.70751">
        <ele>189</ele>
        <time>2018-05-09T08:59:25Z</time>
      </trkpt>
      <trkpt lat="46.01363" lon="4.70751">
        <ele>189</ele>
        <time>2018-05-09T08:59:26Z</time>
      </trkpt>
      <trkpt lat="46.0137" lon="4.7075">
        <ele>189</ele>
        <time>2018-05-09T08:59:27Z</time>
      </trkpt>
      <trkpt lat="46.01378" lon="4.70748">
        <ele>189</ele>
        <time>2018-05-09T08:59:28Z</time>
      </trkpt>
      <trkpt lat="46.01383" lon="4.70749">
        <ele>189</ele>
        <time>2018-05-09T08:59:29Z</time>
      </trkpt>
      <trkpt lat="46.0139" lon="4.70748">
        <ele>189</ele>
        <time>2018-05-09T08:59:30Z</time>
      </trkpt>
      <trkpt lat="46.01396" lon="4.70747">
        <ele>189</ele>
        <time>2018-05-09T08:59:31Z</time>
      </trkpt>
      <trkpt lat="46.01402" lon="4.70747">
        <ele>189</ele>
        <time>2018-05-09T08:59:32Z</time>
      </trkpt>
      <trkpt lat="46.01408" lon="4.70746">
        <ele>189</ele>
        <time>2018-05-09T08:59:33Z</time>
      </trkpt>
      <trkpt lat="46.01415" lon="4.70746">
        <ele>189</ele>
        <time>2018-05-09T08:59:34Z</time>
      </trkpt>
      <trkpt lat="46.01421" lon="4.70745">
        <ele>189</ele>
        <time>2018-05-09T08:59:35Z</time>
      </trkpt>
      <trkpt lat="46.01428" lon="4.70745">
        <ele>189</ele>
        <time>2018-05-09T08:59:36Z</time>
      </trkpt>
      <trkpt lat="46.01435" lon="4.70744">
        <ele>189</ele>
        <time>2018-05-09T08:59:37Z</time>
      </trkpt>
      <trkpt lat="46.01441" lon="4.70744">
        <ele>189</ele>
        <time>2018-05-09T08:59:38Z</time>
      </trkpt>
      <trkpt lat="46.01448" lon="4.70743">
        <ele>189</ele>
        <time>2018-05-09T08:59:39Z</time>
      </trkpt>
      <trkpt lat="46.01453" lon="4.70743">
        <ele>189</ele>
        <time>2018-05-09T08:59:40Z</time>
      </trkpt>
      <trkpt lat="46.01459" lon="4.70743">
        <ele>190</ele>
        <time>2018-05-09T08:59:41Z</time>
      </trkpt>
      <trkpt lat="46.01465" lon="4.70742">
        <ele>190</ele>
        <time>2018-05-09T08:59:42Z</time>
      </trkpt>
      <trkpt lat="46.01472" lon="4.7074">
        <ele>190</ele>
        <time>2018-05-09T08:59:43Z</time>
      </trkpt>
      <trkpt lat="46.01478" lon="4.70739">
        <ele>190</ele>
        <time>2018-05-09T08:59:44Z</time>
      </trkpt>
      <trkpt lat="46.01485" lon="4.70737">
        <ele>190</ele>
        <time>2018-05-09T08:59:45Z</time>
      </trkpt>
      <trkpt lat="46.01492" lon="4.70737">
        <ele>190</ele>
        <time>2018-05-09T08:59:46Z</time>
      </trkpt>
      <trkpt lat="46.01498" lon="4.70736">
        <ele>190</ele>
        <time>2018-05-09T08:59:47Z</time>
      </trkpt>
      <trkpt lat="46.01505" lon="4.70735">
        <ele>190</ele>
        <time>2018-05-09T08:59:48Z</time>
      </trkpt>
      <trkpt lat="46.01512" lon="4.70734">
        <ele>190</ele>
        <time>2018-05-09T08:59:49Z</time>
      </trkpt>
      <trkpt lat="46.01518" lon="4.70734">
        <ele>190</ele>
        <time>2018-05-09T08:59:50Z</time>
      </trkpt>
      <trkpt lat="46.01524" lon="4.70734">
        <ele>190</ele>
        <time>2018-05-09T08:59:51Z</time>
      </trkpt>
      <trkpt lat="46.0153" lon="4.70734">
        <ele>190</ele>
        <time>2018-05-09T08:59:52Z</time>
      </trkpt>
      <trkpt lat="46.01536" lon="4.70734">
        <ele>190</ele>
        <time>2018-05-09T08:59:53Z</time>
      </trkpt>
      <trkpt lat="46.01542" lon="4.70733">
        <ele>190</ele>
        <time>2018-05-09T08:59:54Z</time>
      </trkpt>
      <trkpt lat="46.0155" lon="4.70732">
        <ele>190</ele>
        <time>2018-05-09T08:59:55Z</time>
      </trkpt>
      <trkpt lat="46.01557" lon="4.70732">
        <ele>190</ele>
        <time>2018-05-09T08:59:56Z</time>
      </trkpt>
      <trkpt lat="46.01563" lon="4.70731">
        <ele>190</ele>
        <time>2018-05-09T08:59:57Z</time>
      </trkpt>
      <trkpt lat="46.0157" lon="4.7073">
        <ele>190</ele>
        <time>2018-05-09T08:59:58Z</time>
      </trkpt>
      <trkpt lat="46.01577" lon="4.7073">
        <ele>190</ele>
        <time>2018-05-09T08:59:59Z</time>
      </trkpt>
      <trkpt lat="46.01584" lon="4.70729">
        <ele>190</ele>
        <time>2018-05-09T09:00:00Z</time>
      </trkpt>
      <trkpt lat="46.0159" lon="4.70728">
        <ele>190</ele>
        <time>2018-05-09T09:00:01Z</time>
      </trkpt>
      <trkpt lat="46.01596" lon="4.70727">
        <ele>190</ele>
        <time>2018-05-09T09:00:02Z</time>
      </trkpt>
      <trkpt lat="46.01602" lon="4.70726">
        <ele>190</ele>
        <time>2018-05-09T09:00:03Z</time>
      </trkpt>
      <trkpt lat="46.01608" lon="4.70725">
        <ele>190</ele>
        <time>2018-05-09T09:00:04Z</time>
      </trkpt>
      <trkpt lat="46.01616" lon="4.70724">
        <ele>190</ele>
        <time>2018-05-09T09:00:05Z</time>
      </trkpt>
      <trkpt lat="46.01621" lon="4.70723">
        <ele>190</ele>
        <time>2018-05-09T09:00:06Z</time>
      </trkpt>
      <trkpt lat="46.01627" lon="4.70722">
        <ele>190</ele>
        <time>2018-05-09T09:00:07Z</time>
      </trkpt>
      <trkpt lat="46.01635" lon="4.70721">
        <ele>190</ele>
        <time>2018-05-09T09:00:08Z</time>
      </trkpt>
      <trkpt lat="46.01641" lon="4.7072">
        <ele>190</ele>
        <time>2018-05-09T09:00:09Z</time>
      </trkpt>
      <trkpt lat="46.01648" lon="4.7072">
        <ele>190</ele>
        <time>2018-05-09T09:00:10Z</time>
      </trkpt>
      <trkpt lat="46.01656" lon="4.70719">
        <ele>190</ele>
        <time>2018-05-09T09:00:11Z</time>
      </trkpt>
      <trkpt lat="46.01663" lon="4.70718">
        <ele>190</ele>
        <time>2018-05-09T09:00:12Z</time>
      </trkpt>
      <trkpt lat="46.01669" lon="4.70717">
        <ele>189</ele>
        <time>2018-05-09T09:00:13Z</time>
      </trkpt>
      <trkpt lat="46.01675" lon="4.70718">
        <ele>189</ele>
        <time>2018-05-09T09:00:14Z</time>
      </trkpt>
      <trkpt lat="46.01682" lon="4.70718">
        <ele>189</ele>
        <time>2018-05-09T09:00:15Z</time>
      </trkpt>
      <trkpt lat="46.01689" lon="4.70718">
        <ele>189</ele>
        <time>2018-05-09T09:00:16Z</time>
      </trkpt>
      <trkpt lat="46.01695" lon="4.70717">
        <ele>189</ele>
        <time>2018-05-09T09:00:17Z</time>
      </trkpt>
      <trkpt lat="46.01702" lon="4.70716">
        <ele>189</ele>
        <time>2018-05-09T09:00:18Z</time>
      </trkpt>
      <trkpt lat="46.01706" lon="4.70715">
        <ele>189</ele>
        <time>2018-05-09T09:00:19Z</time>
      </trkpt>
      <trkpt lat="46.01712" lon="4.70715">
        <ele>188</ele>
        <time>2018-05-09T09:00:20Z</time>
      </trkpt>
      <trkpt lat="46.01717" lon="4.70714">
        <ele>188</ele>
        <time>2018-05-09T09:00:21Z</time>
      </trkpt>
      <trkpt lat="46.01724" lon="4.70714">
        <ele>188</ele>
        <time>2018-05-09T09:00:22Z</time>
      </trkpt>
      <trkpt lat="46.01731" lon="4.70711">
        <ele>188</ele>
        <time>2018-05-09T09:00:23Z</time>
      </trkpt>
      <trkpt lat="46.01738" lon="4.7071">
        <ele>188</ele>
        <time>2018-05-09T09:00:24Z</time>
      </trkpt>
      <trkpt lat="46.01743" lon="4.7071">
        <ele>188</ele>
        <time>2018-05-09T09:00:25Z</time>
      </trkpt>
      <trkpt lat="46.0175" lon="4.70708">
        <ele>187</ele>
        <time>2018-05-09T09:00:26Z</time>
      </trkpt>
      <trkpt lat="46.01757" lon="4.70707">
        <ele>187</ele>
        <time>2018-05-09T09:00:27Z</time>
      </trkpt>
      <trkpt lat="46.01764" lon="4.70706">
        <ele>187</ele>
        <time>2018-05-09T09:00:28Z</time>
      </trkpt>
      <trkpt lat="46.01772" lon="4.70704">
        <ele>187</ele>
        <time>2018-05-09T09:00:29Z</time>
      </trkpt>
      <trkpt lat="46.01778" lon="4.70703">
        <ele>187</ele>
        <time>2018-05-09T09:00:30Z</time>
      </trkpt>
      <trkpt lat="46.01785" lon="4.70702">
        <ele>187</ele>
        <time>2018-05-09T09:00:31Z</time>
      </trkpt>
      <trkpt lat="46.01791" lon="4.70701">
        <ele>187</ele>
        <time>2018-05-09T09:00:32Z</time>
      </trkpt>
      <trkpt lat="46.01797" lon="4.70701">
        <ele>187</ele>
        <time>2018-05-09T09:00:33Z</time>
      </trkpt>
      <trkpt lat="46.01803" lon="4.70699">
        <ele>187</ele>
        <time>2018-05-09T09:00:34Z</time>
      </trkpt>
      <trkpt lat="46.01809" lon="4.70698">
        <ele>187</ele>
        <time>2018-05-09T09:00:35Z</time>
      </trkpt>
      <trkpt lat="46.01814" lon="4.70697">
        <ele>187</ele>
        <time>2018-05-09T09:00:36Z</time>
      </trkpt>
      <trkpt lat="46.01821" lon="4.70697">
        <ele>187</ele>
        <time>2018-05-09T09:00:37Z</time>
      </trkpt>
      <trkpt lat="46.01828" lon="4.70697">
        <ele>187</ele>
        <time>2018-05-09T09:00:38Z</time>
      </trkpt>
      <trkpt lat="46.01835" lon="4.70697">
        <ele>185</ele>
        <time>2018-05-09T09:00:39Z</time>
      </trkpt>
      <trkpt lat="46.01842" lon="4.70696">
        <ele>185</ele>
        <time>2018-05-09T09:00:40Z</time>
      </trkpt>
      <trkpt lat="46.01849" lon="4.70695">
        <ele>185</ele>
        <time>2018-05-09T09:00:41Z</time>
      </trkpt>
      <trkpt lat="46.01855" lon="4.70696">
        <ele>185</ele>
        <time>2018-05-09T09:00:42Z</time>
      </trkpt>
      <trkpt lat="46.01862" lon="4.70696">
        <ele>185</ele>
        <time>2018-05-09T09:00:43Z</time>
      </trkpt>
      <trkpt lat="46.01868" lon="4.70695">
        <ele>185</ele>
        <time>2018-05-09T09:00:44Z</time>
      </trkpt>
      <trkpt lat="46.01875" lon="4.70696">
        <ele>185</ele>
        <time>2018-05-09T09:00:45Z</time>
      </trkpt>
      <trkpt lat="46.01881" lon="4.70694">
        <ele>185</ele>
        <time>2018-05-09T09:00:46Z</time>
      </trkpt>
      <trkpt lat="46.01887" lon="4.70694">
        <ele>184</ele>
        <time>2018-05-09T09:00:47Z</time>
      </trkpt>
      <trkpt lat="46.01894" lon="4.70694">
        <ele>184</ele>
        <time>2018-05-09T09:00:48Z</time>
      </trkpt>
      <trkpt lat="46.019" lon="4.70694">
        <ele>184</ele>
        <time>2018-05-09T09:00:49Z</time>
      </trkpt>
      <trkpt lat="46.01907" lon="4.70695">
        <ele>184</ele>
        <time>2018-05-09T09:00:50Z</time>
      </trkpt>
      <trkpt lat="46.01913" lon="4.70696">
        <ele>184</ele>
        <time>2018-05-09T09:00:51Z</time>
      </trkpt>
      <trkpt lat="46.0192" lon="4.70696">
        <ele>182</ele>
        <time>2018-05-09T09:00:52Z</time>
      </trkpt>
      <trkpt lat="46.01927" lon="4.70695">
        <ele>182</ele>
        <time>2018-05-09T09:00:53Z</time>
      </trkpt>
      <trkpt lat="46.01932" lon="4.70697">
        <ele>182</ele>
        <time>2018-05-09T09:00:54Z</time>
      </trkpt>
      <trkpt lat="46.01938" lon="4.70698">
        <ele>182</ele>
        <time>2018-05-09T09:00:55Z</time>
      </trkpt>
      <trkpt lat="46.01944" lon="4.70699">
        <ele>182</ele>
        <time>2018-05-09T09:00:56Z</time>
      </trkpt>
      <trkpt lat="46.0195" lon="4.70701">
        <ele>181</ele>
        <time>2018-05-09T09:00:57Z</time>
      </trkpt>
      <trkpt lat="46.01957" lon="4.70703">
        <ele>181</ele>
        <time>2018-05-09T09:00:58Z</time>
      </trkpt>
      <trkpt lat="46.01964" lon="4.70704">
        <ele>181</ele>
        <time>2018-05-09T09:00:59Z</time>
      </trkpt>
      <trkpt lat="46.01971" lon="4.70705">
        <ele>181</ele>
        <time>2018-05-09T09:01:00Z</time>
      </trkpt>
      <trkpt lat="46.01978" lon="4.70708">
        <ele>181</ele>
        <time>2018-05-09T09:01:01Z</time>
      </trkpt>
      <trkpt lat="46.01985" lon="4.70708">
        <ele>181</ele>
        <time>2018-05-09T09:01:02Z</time>
      </trkpt>
      <trkpt lat="46.01991" lon="4.70709">
        <ele>181</ele>
        <time>2018-05-09T09:01:03Z</time>
      </trkpt>
      <trkpt lat="46.01998" lon="4.70711">
        <ele>181</ele>
        <time>2018-05-09T09:01:04Z</time>
      </trkpt>
      <trkpt lat="46.02005" lon="4.70713">
        <ele>179</ele>
        <time>2018-05-09T09:01:05Z</time>
      </trkpt>
      <trkpt lat="46.02012" lon="4.70715">
        <ele>179</ele>
        <time>2018-05-09T09:01:06Z</time>
      </trkpt>
      <trkpt lat="46.02019" lon="4.70717">
        <ele>179</ele>
        <time>2018-05-09T09:01:07Z</time>
      </trkpt>
      <trkpt lat="46.02025" lon="4.7072">
        <ele>179</ele>
        <time>2018-05-09T09:01:08Z</time>
      </trkpt>
      <trkpt lat="46.02032" lon="4.7072">
        <ele>179</ele>
        <time>2018-05-09T09:01:09Z</time>
      </trkpt>
      <trkpt lat="46.0204" lon="4.70721">
        <ele>179</ele>
        <time>2018-05-09T09:01:10Z</time>
      </trkpt>
      <trkpt lat="46.02048" lon="4.70723">
        <ele>179</ele>
        <time>2018-05-09T09:01:11Z</time>
      </trkpt>
      <trkpt lat="46.02056" lon="4.70725">
        <ele>179</ele>
        <time>2018-05-09T09:01:12Z</time>
      </trkpt>
      <trkpt lat="46.02063" lon="4.70726">
        <ele>179</ele>
        <time>2018-05-09T09:01:13Z</time>
      </trkpt>
      <trkpt lat="46.02071" lon="4.70727">
        <ele>178</ele>
        <time>2018-05-09T09:01:14Z</time>
      </trkpt>
      <trkpt lat="46.02078" lon="4.70729">
        <ele>178</ele>
        <time>2018-05-09T09:01:15Z</time>
      </trkpt>
      <trkpt lat="46.02086" lon="4.70731">
        <ele>178</ele>
        <time>2018-05-09T09:01:16Z</time>
      </trkpt>
      <trkpt lat="46.02093" lon="4.70731">
        <ele>178</ele>
        <time>2018-05-09T09:01:17Z</time>
      </trkpt>
      <trkpt lat="46.02099" lon="4.70731">
        <ele>178</ele>
        <time>2018-05-09T09:01:18Z</time>
      </trkpt>
      <trkpt lat="46.02106" lon="4.70733">
        <ele>178</ele>
        <time>2018-05-09T09:01:19Z</time>
      </trkpt>
      <trkpt lat="46.02113" lon="4.70734">
        <ele>179</ele>
        <time>2018-05-09T09:01:20Z</time>
      </trkpt>
      <trkpt lat="46.0212" lon="4.70735">
        <ele>179</ele>
        <time>2018-05-09T09:01:21Z</time>
      </trkpt>
      <trkpt lat="46.02127" lon="4.70736">
        <ele>179</ele>
        <time>2018-05-09T09:01:22Z</time>
      </trkpt>
      <trkpt lat="46.02133" lon="4.70738">
        <ele>179</ele>
        <time>2018-05-09T09:01:23Z</time>
      </trkpt>
      <trkpt lat="46.02141" lon="4.70739">
        <ele>179</ele>
        <time>2018-05-09T09:01:24Z</time>
      </trkpt>
      <trkpt lat="46.02147" lon="4.70741">
        <ele>179</ele>
        <time>2018-05-09T09:01:25Z</time>
      </trkpt>
      <trkpt lat="46.02154" lon="4.70742">
        <ele>179</ele>
        <time>2018-05-09T09:01:26Z</time>
      </trkpt>
      <trkpt lat="46.0216" lon="4.70743">
        <ele>179</ele>
        <time>2018-05-09T09:01:27Z</time>
      </trkpt>
      <trkpt lat="46.02167" lon="4.70747">
        <ele>179</ele>
        <time>2018-05-09T09:01:28Z</time>
      </trkpt>
      <trkpt lat="46.02174" lon="4.70748">
        <ele>179</ele>
        <time>2018-05-09T09:01:29Z</time>
      </trkpt>
      <trkpt lat="46.0218" lon="4.70751">
        <ele>179</ele>
        <time>2018-05-09T09:01:30Z</time>
      </trkpt>
      <trkpt lat="46.02186" lon="4.70752">
        <ele>179</ele>
        <time>2018-05-09T09:01:31Z</time>
      </trkpt>
      <trkpt lat="46.02193" lon="4.70753">
        <ele>179</ele>
        <time>2018-05-09T09:01:32Z</time>
      </trkpt>
      <trkpt lat="46.02199" lon="4.70755">
        <ele>179</ele>
        <time>2018-05-09T09:01:33Z</time>
      </trkpt>
      <trkpt lat="46.02205" lon="4.70755">
        <ele>179</ele>
        <time>2018-05-09T09:01:34Z</time>
      </trkpt>
      <trkpt lat="46.02211" lon="4.70756">
        <ele>180</ele>
        <time>2018-05-09T09:01:35Z</time>
      </trkpt>
      <trkpt lat="46.02217" lon="4.70756">
        <ele>180</ele>
        <time>2018-05-09T09:01:36Z</time>
      </trkpt>
      <trkpt lat="46.02223" lon="4.70756">
        <ele>180</ele>
        <time>2018-05-09T09:01:37Z</time>
      </trkpt>
      <trkpt lat="46.02229" lon="4.70757">
        <ele>180</ele>
        <time>2018-05-09T09:01:38Z</time>
      </trkpt>
      <trkpt lat="46.02235" lon="4.70758">
        <ele>180</ele>
        <time>2018-05-09T09:01:39Z</time>
      </trkpt>
      <trkpt lat="46.02242" lon="4.70759">
        <ele>180</ele>
        <time>2018-05-09T09:01:40Z</time>
      </trkpt>
      <trkpt lat="46.02248" lon="4.7076">
        <ele>180</ele>
        <time>2018-05-09T09:01:41Z</time>
      </trkpt>
      <trkpt lat="46.02254" lon="4.70762">
        <ele>181</ele>
        <time>2018-05-09T09:01:42Z</time>
      </trkpt>
      <trkpt lat="46.0226" lon="4.70763">
        <ele>181</ele>
        <time>2018-05-09T09:01:43Z</time>
      </trkpt>
      <trkpt lat="46.02265" lon="4.70763">
        <ele>181</ele>
        <time>2018-05-09T09:01:44Z</time>
      </trkpt>
      <trkpt lat="46.02272" lon="4.70763">
        <ele>181</ele>
        <time>2018-05-09T09:01:45Z</time>
      </trkpt>
      <trkpt lat="46.02277" lon="4.70765">
        <ele>181</ele>
        <time>2018-05-09T09:01:46Z</time>
      </trkpt>
      <trkpt lat="46.02281" lon="4.70766">
        <ele>181</ele>
        <time>2018-05-09T09:01:47Z</time>
      </trkpt>
      <trkpt lat="46.02286" lon="4.70768">
        <ele>181</ele>
        <time>2018-05-09T09:01:48Z</time>
      </trkpt>
      <trkpt lat="46.02292" lon="4.70766">
        <ele>180</ele>
        <time>2018-05-09T09:01:50Z</time>
      </trkpt>
      <trkpt lat="46.02296" lon="4.70768">
        <ele>180</ele>
        <time>2018-05-09T09:01:51Z</time>
      </trkpt>
      <trkpt lat="46.02302" lon="4.70768">
        <ele>180</ele>
        <time>2018-05-09T09:01:52Z</time>
      </trkpt>
      <trkpt lat="46.02306" lon="4.70769">
        <ele>180</ele>
        <time>2018-05-09T09:01:53Z</time>
      </trkpt>
      <trkpt lat="46.02313" lon="4.7077">
        <ele>180</ele>
        <time>2018-05-09T09:01:54Z</time>
      </trkpt>
      <trkpt lat="46.02316" lon="4.70774">
        <ele>180</ele>
        <time>2018-05-09T09:01:55Z</time>
      </trkpt>
      <trkpt lat="46.02321" lon="4.70772">
        <ele>180</ele>
        <time>2018-05-09T09:01:56Z</time>
      </trkpt>
      <trkpt lat="46.02327" lon="4.70772">
        <ele>180</ele>
        <time>2018-05-09T09:01:57Z</time>
      </trkpt>
      <trkpt lat="46.02336" lon="4.70774">
        <ele>182</ele>
        <time>2018-05-09T09:01:59Z</time>
      </trkpt>
      <trkpt lat="46.0234" lon="4.70775">
        <ele>182</ele>
        <time>2018-05-09T09:02:00Z</time>
      </trkpt>
      <trkpt lat="46.02346" lon="4.70776">
        <ele>182</ele>
        <time>2018-05-09T09:02:01Z</time>
      </trkpt>
      <trkpt lat="46.02351" lon="4.70778">
        <ele>183</ele>
        <time>2018-05-09T09:02:02Z</time>
      </trkpt>
      <trkpt lat="46.02356" lon="4.70779">
        <ele>183</ele>
        <time>2018-05-09T09:02:03Z</time>
      </trkpt>
      <trkpt lat="46.02363" lon="4.70779">
        <ele>183</ele>
        <time>2018-05-09T09:02:04Z</time>
      </trkpt>
      <trkpt lat="46.02367" lon="4.70781">
        <ele>183</ele>
        <time>2018-05-09T09:02:05Z</time>
      </trkpt>
      <trkpt lat="46.02372" lon="4.70782">
        <ele>184</ele>
        <time>2018-05-09T09:02:06Z</time>
      </trkpt>
      <trkpt lat="46.02377" lon="4.70783">
        <ele>184</ele>
        <time>2018-05-09T09:02:07Z</time>
      </trkpt>
      <trkpt lat="46.02381" lon="4.70783">
        <ele>184</ele>
        <time>2018-05-09T09:02:08Z</time>
      </trkpt>
      <trkpt lat="46.02389" lon="4.70786">
        <ele>184</ele>
        <time>2018-05-09T09:02:10Z</time>
      </trkpt>
      <trkpt lat="46.02394" lon="4.70786">
        <ele>185</ele>
        <time>2018-05-09T09:02:11Z</time>
      </trkpt>
      <trkpt lat="46.02401" lon="4.70787">
        <ele>185</ele>
        <time>2018-05-09T09:02:13Z</time>
      </trkpt>
      <trkpt lat="46.02405" lon="4.70787">
        <ele>185</ele>
        <time>2018-05-09T09:02:14Z</time>
      </trkpt>
      <trkpt lat="46.02413" lon="4.70784">
        <ele>185</ele>
        <time>2018-05-09T09:02:16Z</time>
      </trkpt>
      <trkpt lat="46.02416" lon="4.70783">
        <ele>185</ele>
        <time>2018-05-09T09:02:17Z</time>
      </trkpt>
      <trkpt lat="46.02423" lon="4.70782">
        <ele>189</ele>
        <time>2018-05-09T09:02:19Z</time>
      </trkpt>
      <trkpt lat="46.02426" lon="4.70782">
        <ele>189</ele>
        <time>2018-05-09T09:02:20Z</time>
      </trkpt>
      <trkpt lat="46.02434" lon="4.70781">
        <ele>189</ele>
        <time>2018-05-09T09:02:22Z</time>
      </trkpt>
      <trkpt lat="46.02437" lon="4.70778">
        <ele>189</ele>
        <time>2018-05-09T09:02:23Z</time>
      </trkpt>
      <trkpt lat="46.02441" lon="4.70767">
        <ele>189</ele>
        <time>2018-05-09T09:02:25Z</time>
      </trkpt>
      <trkpt lat="46.02443" lon="4.70762">
        <ele>190</ele>
        <time>2018-05-09T09:02:26Z</time>
      </trkpt>
      <trkpt lat="46.02445" lon="4.70755">
        <ele>190</ele>
        <time>2018-05-09T09:02:27Z</time>
      </trkpt>
      <trkpt lat="46.02448" lon="4.7075">
        <ele>190</ele>
        <time>2018-05-09T09:02:28Z</time>
      </trkpt>
      <trkpt lat="46.02451" lon="4.70745">
        <ele>190</ele>
        <time>2018-05-09T09:02:29Z</time>
      </trkpt>
      <trkpt lat="46.02453" lon="4.70739">
        <ele>190</ele>
        <time>2018-05-09T09:02:30Z</time>
      </trkpt>
      <trkpt lat="46.02455" lon="4.70733">
        <ele>190</ele>
        <time>2018-05-09T09:02:31Z</time>
      </trkpt>
      <trkpt lat="46.02457" lon="4.70725">
        <ele>190</ele>
        <time>2018-05-09T09:02:32Z</time>
      </trkpt>
      <trkpt lat="46.02459" lon="4.70719">
        <ele>190</ele>
        <time>2018-05-09T09:02:33Z</time>
      </trkpt>
      <trkpt lat="46.0246" lon="4.70712">
        <ele>190</ele>
        <time>2018-05-09T09:02:34Z</time>
      </trkpt>
      <trkpt lat="46.02462" lon="4.70705">
        <ele>190</ele>
        <time>2018-05-09T09:02:35Z</time>
      </trkpt>
      <trkpt lat="46.02463" lon="4.70698">
        <ele>190</ele>
        <time>2018-05-09T09:02:36Z</time>
      </trkpt>
      <trkpt lat="46.02464" lon="4.70692">
        <ele>190</ele>
        <time>2018-05-09T09:02:37Z</time>
      </trkpt>
      <trkpt lat="46.02466" lon="4.70685">
        <ele>190</ele>
        <time>2018-05-09T09:02:38Z</time>
      </trkpt>
      <trkpt lat="46.02468" lon="4.70678">
        <ele>190</ele>
        <time>2018-05-09T09:02:39Z</time>
      </trkpt>
      <trkpt lat="46.02469" lon="4.70671">
        <ele>190</ele>
        <time>2018-05-09T09:02:40Z</time>
      </trkpt>
      <trkpt lat="46.02471" lon="4.70663">
        <ele>189</ele>
        <time>2018-05-09T09:02:41Z</time>
      </trkpt>
      <trkpt lat="46.02472" lon="4.70656">
        <ele>189</ele>
        <time>2018-05-09T09:02:42Z</time>
      </trkpt>
      <trkpt lat="46.02473" lon="4.70649">
        <ele>189</ele>
        <time>2018-05-09T09:02:43Z</time>
      </trkpt>
      <trkpt lat="46.02474" lon="4.70641">
        <ele>188</ele>
        <time>2018-05-09T09:02:44Z</time>
      </trkpt>
      <trkpt lat="46.02476" lon="4.70634">
        <ele>188</ele>
        <time>2018-05-09T09:02:45Z</time>
      </trkpt>
      <trkpt lat="46.02478" lon="4.70628">
        <ele>188</ele>
        <time>2018-05-09T09:02:46Z</time>
      </trkpt>
      <trkpt lat="46.02481" lon="4.70623">
        <ele>188</ele>
        <time>2018-05-09T09:02:47Z</time>
      </trkpt>
      <trkpt lat="46.02486" lon="4.70621">
        <ele>188</ele>
        <time>2018-05-09T09:02:48Z</time>
      </trkpt>
      <trkpt lat="46.02491" lon="4.7062">
        <ele>188</ele>
        <time>2018-05-09T09:02:49Z</time>
      </trkpt>
      <trkpt lat="46.02495" lon="4.70622">
        <ele>188</ele>
        <time>2018-05-09T09:02:50Z</time>
      </trkpt>
      <trkpt lat="46.025" lon="4.70623">
        <ele>189</ele>
        <time>2018-05-09T09:02:51Z</time>
      </trkpt>
      <trkpt lat="46.02505" lon="4.70625">
        <ele>189</ele>
        <time>2018-05-09T09:02:52Z</time>
      </trkpt>
      <trkpt lat="46.02509" lon="4.70627">
        <ele>189</ele>
        <time>2018-05-09T09:02:53Z</time>
      </trkpt>
      <trkpt lat="46.02514" lon="4.7063">
        <ele>189</ele>
        <time>2018-05-09T09:02:54Z</time>
      </trkpt>
      <trkpt lat="46.02519" lon="4.70632">
        <ele>189</ele>
        <time>2018-05-09T09:02:55Z</time>
      </trkpt>
      <trkpt lat="46.02523" lon="4.70633">
        <ele>189</ele>
        <time>2018-05-09T09:02:56Z</time>
      </trkpt>
      <trkpt lat="46.02528" lon="4.70634">
        <ele>189</ele>
        <time>2018-05-09T09:02:57Z</time>
      </trkpt>
      <trkpt lat="46.02532" lon="4.70635">
        <ele>189</ele>
        <time>2018-05-09T09:02:58Z</time>
      </trkpt>
      <trkpt lat="46.02537" lon="4.70637">
        <ele>189</ele>
        <time>2018-05-09T09:02:59Z</time>
      </trkpt>
      <trkpt lat="46.02542" lon="4.70638">
        <ele>189</ele>
        <time>2018-05-09T09:03:00Z</time>
      </trkpt>
      <trkpt lat="46.02547" lon="4.70639">
        <ele>189</ele>
        <time>2018-05-09T09:03:01Z</time>
      </trkpt>
      <trkpt lat="46.02551" lon="4.7064">
        <ele>189</ele>
        <time>2018-05-09T09:03:02Z</time>
      </trkpt>
      <trkpt lat="46.02556" lon="4.70641">
        <ele>189</ele>
        <time>2018-05-09T09:03:03Z</time>
      </trkpt>
      <trkpt lat="46.0256" lon="4.70642">
        <ele>189</ele>
        <time>2018-05-09T09:03:04Z</time>
      </trkpt>
      <trkpt lat="46.02565" lon="4.70643">
        <ele>189</ele>
        <time>2018-05-09T09:03:05Z</time>
      </trkpt>
      <trkpt lat="46.0257" lon="4.70644">
        <ele>190</ele>
        <time>2018-05-09T09:03:06Z</time>
      </trkpt>
      <trkpt lat="46.02575" lon="4.70645">
        <ele>190</ele>
        <time>2018-05-09T09:03:07Z</time>
      </trkpt>
      <trkpt lat="46.0258" lon="4.70646">
        <ele>190</ele>
        <time>2018-05-09T09:03:08Z</time>
      </trkpt>
      <trkpt lat="46.02585" lon="4.70647">
        <ele>190</ele>
        <time>2018-05-09T09:03:09Z</time>
      </trkpt>
      <trkpt lat="46.0259" lon="4.70647">
        <ele>190</ele>
        <time>2018-05-09T09:03:10Z</time>
      </trkpt>
      <trkpt lat="46.02594" lon="4.70649">
        <ele>190</ele>
        <time>2018-05-09T09:03:11Z</time>
      </trkpt>
      <trkpt lat="46.026" lon="4.7065">
        <ele>190</ele>
        <time>2018-05-09T09:03:12Z</time>
      </trkpt>
      <trkpt lat="46.02608" lon="4.70653">
        <ele>190</ele>
        <time>2018-05-09T09:03:14Z</time>
      </trkpt>
      <trkpt lat="46.02613" lon="4.70654">
        <ele>190</ele>
        <time>2018-05-09T09:03:15Z</time>
      </trkpt>
      <trkpt lat="46.0262" lon="4.70654">
        <ele>190</ele>
        <time>2018-05-09T09:03:16Z</time>
      </trkpt>
      <trkpt lat="46.02624" lon="4.70655">
        <ele>190</ele>
        <time>2018-05-09T09:03:17Z</time>
      </trkpt>
      <trkpt lat="46.02629" lon="4.70656">
        <ele>190</ele>
        <time>2018-05-09T09:03:18Z</time>
      </trkpt>
      <trkpt lat="46.02634" lon="4.70657">
        <ele>190</ele>
        <time>2018-05-09T09:03:19Z</time>
      </trkpt>
      <trkpt lat="46.0264" lon="4.70656">
        <ele>190</ele>
        <time>2018-05-09T09:03:20Z</time>
      </trkpt>
      <trkpt lat="46.02644" lon="4.70656">
        <ele>190</ele>
        <time>2018-05-09T09:03:21Z</time>
      </trkpt>
      <trkpt lat="46.0265" lon="4.70656">
        <ele>190</ele>
        <time>2018-05-09T09:03:22Z</time>
      </trkpt>
      <trkpt lat="46.02655" lon="4.70657">
        <ele>190</ele>
        <time>2018-05-09T09:03:23Z</time>
      </trkpt>
      <trkpt lat="46.0266" lon="4.70656">
        <ele>190</ele>
        <time>2018-05-09T09:03:24Z</time>
      </trkpt>
      <trkpt lat="46.02666" lon="4.70657">
        <ele>190</ele>
        <time>2018-05-09T09:03:25Z</time>
      </trkpt>
      <trkpt lat="46.02671" lon="4.70657">
        <ele>190</ele>
        <time>2018-05-09T09:03:26Z</time>
      </trkpt>
      <trkpt lat="46.02676" lon="4.70658">
        <ele>190</ele>
        <time>2018-05-09T09:03:27Z</time>
      </trkpt>
      <trkpt lat="46.0268" lon="4.70659">
        <ele>190</ele>
        <time>2018-05-09T09:03:28Z</time>
      </trkpt>
      <trkpt lat="46.02685" lon="4.7066">
        <ele>190</ele>
        <time>2018-05-09T09:03:29Z</time>
      </trkpt>
      <trkpt lat="46.0269" lon="4.7066">
        <ele>190</ele>
        <time>2018-05-09T09:03:30Z</time>
      </trkpt>
      <trkpt lat="46.02695" lon="4.7066">
        <ele>189</ele>
        <time>2018-05-09T09:03:31Z</time>
      </trkpt>
      <trkpt lat="46.027" lon="4.70659">
        <ele>189</ele>
        <time>2018-05-09T09:03:32Z</time>
      </trkpt>
      <trkpt lat="46.02705" lon="4.7066">
        <ele>189</ele>
        <time>2018-05-09T09:03:33Z</time>
      </trkpt>
      <trkpt lat="46.0271" lon="4.7066">
        <ele>189</ele>
        <time>2018-05-09T09:03:34Z</time>
      </trkpt>
      <trkpt lat="46.02714" lon="4.70662">
        <ele>189</ele>
        <time>2018-05-09T09:03:35Z</time>
      </trkpt>
      <trkpt lat="46.02719" lon="4.70663">
        <ele>189</ele>
        <time>2018-05-09T09:03:36Z</time>
      </trkpt>
      <trkpt lat="46.02724" lon="4.70663">
        <ele>189</ele>
        <time>2018-05-09T09:03:37Z</time>
      </trkpt>
      <trkpt lat="46.02729" lon="4.70664">
        <ele>189</ele>
        <time>2018-05-09T09:03:38Z</time>
      </trkpt>
      <trkpt lat="46.02734" lon="4.70665">
        <ele>189</ele>
        <time>2018-05-09T09:03:39Z</time>
      </trkpt>
      <trkpt lat="46.02739" lon="4.70666">
        <ele>189</ele>
        <time>2018-05-09T09:03:40Z</time>
      </trkpt>
      <trkpt lat="46.02744" lon="4.70666">
        <ele>189</ele>
        <time>2018-05-09T09:03:41Z</time>
      </trkpt>
      <trkpt lat="46.02749" lon="4.70667">
        <ele>189</ele>
        <time>2018-05-09T09:03:42Z</time>
      </trkpt>
      <trkpt lat="46.02754" lon="4.70668">
        <ele>189</ele>
        <time>2018-05-09T09:03:43Z</time>
      </trkpt>
      <trkpt lat="46.02758" lon="4.70669">
        <ele>189</ele>
        <time>2018-05-09T09:03:44Z</time>
      </trkpt>
      <trkpt lat="46.02763" lon="4.7067">
        <ele>189</ele>
        <time>2018-05-09T09:03:45Z</time>
      </trkpt>
      <trkpt lat="46.02767" lon="4.70671">
        <ele>189</ele>
        <time>2018-05-09T09:03:46Z</time>
      </trkpt>
      <trkpt lat="46.02772" lon="4.70671">
        <ele>189</ele>
        <time>2018-05-09T09:03:47Z</time>
      </trkpt>
      <trkpt lat="46.02776" lon="4.70673">
        <ele>189</ele>
        <time>2018-05-09T09:03:48Z</time>
      </trkpt>
      <trkpt lat="46.02782" lon="4.70673">
        <ele>189</ele>
        <time>2018-05-09T09:03:49Z</time>
      </trkpt>
      <trkpt lat="46.02787" lon="4.70673">
        <ele>189</ele>
        <time>2018-05-09T09:03:50Z</time>
      </trkpt>
      <trkpt lat="46.02792" lon="4.70673">
        <ele>189</ele>
        <time>2018-05-09T09:03:51Z</time>
      </trkpt>
      <trkpt lat="46.02797" lon="4.70674">
        <ele>189</ele>
        <time>2018-05-09T09:03:52Z</time>
      </trkpt>
      <trkpt lat="46.02802" lon="4.70671">
        <ele>189</ele>
        <time>2018-05-09T09:03:53Z</time>
      </trkpt>
      <trkpt lat="46.02807" lon="4.70671">
        <ele>189</ele>
        <time>2018-05-09T09:03:54Z</time>
      </trkpt>
      <trkpt lat="46.02812" lon="4.7067">
        <ele>189</ele>
        <time>2018-05-09T09:03:55Z</time>
      </trkpt>
      <trkpt lat="46.02818" lon="4.7067">
        <ele>189</ele>
        <time>2018-05-09T09:03:56Z</time>
      </trkpt>
      <trkpt lat="46.02823" lon="4.7067">
        <ele>189</ele>
        <time>2018-05-09T09:03:57Z</time>
      </trkpt>
      <trkpt lat="46.02829" lon="4.70668">
        <ele>189</ele>
        <time>2018-05-09T09:03:58Z</time>
      </trkpt>
      <trkpt lat="46.02834" lon="4.70667">
        <ele>189</ele>
        <time>2018-05-09T09:03:59Z</time>
      </trkpt>
      <trkpt lat="46.02839" lon="4.70666">
        <ele>189</ele>
        <time>2018-05-09T09:04:00Z</time>
      </trkpt>
      <trkpt lat="46.02845" lon="4.70664">
        <ele>189</ele>
        <time>2018-05-09T09:04:01Z</time>
      </trkpt>
      <trkpt lat="46.02849" lon="4.70663">
        <ele>190</ele>
        <time>2018-05-09T09:04:02Z</time>
      </trkpt>
      <trkpt lat="46.02854" lon="4.70663">
        <ele>190</ele>
        <time>2018-05-09T09:04:03Z</time>
      </trkpt>
      <trkpt lat="46.02859" lon="4.70661">
        <ele>190</ele>
        <time>2018-05-09T09:04:04Z</time>
      </trkpt>
      <trkpt lat="46.02864" lon="4.7066">
        <ele>190</ele>
        <time>2018-05-09T09:04:05Z</time>
      </trkpt>
      <trkpt lat="46.02869" lon="4.70659">
        <ele>190</ele>
        <time>2018-05-09T09:04:06Z</time>
      </trkpt>
      <trkpt lat="46.02873" lon="4.70659">
        <ele>190</ele>
        <time>2018-05-09T09:04:07Z</time>
      </trkpt>
      <trkpt lat="46.02878" lon="4.70659">
        <ele>190</ele>
        <time>2018-05-09T09:04:08Z</time>
      </trkpt>
      <trkpt lat="46.02883" lon="4.70659">
        <ele>190</ele>
        <time>2018-05-09T09:04:09Z</time>
      </trkpt>
      <trkpt lat="46.02891" lon="4.7066">
        <ele>190</ele>
        <time>2018-05-09T09:04:11Z</time>
      </trkpt>
      <trkpt lat="46.02896" lon="4.70661">
        <ele>190</ele>
        <time>2018-05-09T09:04:12Z</time>
      </trkpt>
      <trkpt lat="46.029" lon="4.70662">
        <ele>191</ele>
        <time>2018-05-09T09:04:13Z</time>
      </trkpt>
      <trkpt lat="46.02904" lon="4.70663">
        <ele>191</ele>
        <time>2018-05-09T09:04:14Z</time>
      </trkpt>
      <trkpt lat="46.02909" lon="4.70662">
        <ele>191</ele>
        <time>2018-05-09T09:04:15Z</time>
      </trkpt>
      <trkpt lat="46.02914" lon="4.70662">
        <ele>191</ele>
        <time>2018-05-09T09:04:16Z</time>
      </trkpt>
      <trkpt lat="46.02921" lon="4.70659">
        <ele>191</ele>
        <time>2018-05-09T09:04:18Z</time>
      </trkpt>
      <trkpt lat="46.02924" lon="4.70657">
        <ele>191</ele>
        <time>2018-05-09T09:04:19Z</time>
      </trkpt>
      <trkpt lat="46.0293" lon="4.70648">
        <ele>192</ele>
        <time>2018-05-09T09:04:22Z</time>
      </trkpt>
      <trkpt lat="46.0293" lon="4.70644">
        <ele>192</ele>
        <time>2018-05-09T09:04:23Z</time>
      </trkpt>
      <trkpt lat="46.02933" lon="4.70634">
        <ele>192</ele>
        <time>2018-05-09T09:04:24Z</time>
      </trkpt>
      <trkpt lat="46.02934" lon="4.70629">
        <ele>192</ele>
        <time>2018-05-09T09:04:25Z</time>
      </trkpt>
      <trkpt lat="46.02937" lon="4.70617">
        <ele>192</ele>
        <time>2018-05-09T09:04:27Z</time>
      </trkpt>
      <trkpt lat="46.02938" lon="4.70611">
        <ele>192</ele>
        <time>2018-05-09T09:04:28Z</time>
      </trkpt>
      <trkpt lat="46.0294" lon="4.70601">
        <ele>192</ele>
        <time>2018-05-09T09:04:30Z</time>
      </trkpt>
      <trkpt lat="46.02941" lon="4.70596">
        <ele>192</ele>
        <time>2018-05-09T09:04:31Z</time>
      </trkpt>
      <trkpt lat="46.02944" lon="4.70584">
        <ele>192</ele>
        <time>2018-05-09T09:04:33Z</time>
      </trkpt>
      <trkpt lat="46.02948" lon="4.70581">
        <ele>191</ele>
        <time>2018-05-09T09:04:34Z</time>
      </trkpt>
      <trkpt lat="46.02949" lon="4.70575">
        <ele>191</ele>
        <time>2018-05-09T09:04:35Z</time>
      </trkpt>
      <trkpt lat="46.02952" lon="4.70569">
        <ele>191</ele>
        <time>2018-05-09T09:04:36Z</time>
      </trkpt>
      <trkpt lat="46.02955" lon="4.70564">
        <ele>191</ele>
        <time>2018-05-09T09:04:37Z</time>
      </trkpt>
      <trkpt lat="46.02958" lon="4.70559">
        <ele>191</ele>
        <time>2018-05-09T09:04:38Z</time>
      </trkpt>
      <trkpt lat="46.02965" lon="4.7055">
        <ele>191</ele>
        <time>2018-05-09T09:04:40Z</time>
      </trkpt>
      <trkpt lat="46.02969" lon="4.70547">
        <ele>191</ele>
        <time>2018-05-09T09:04:41Z</time>
      </trkpt>
      <trkpt lat="46.02975" lon="4.7054">
        <ele>191</ele>
        <time>2018-05-09T09:04:43Z</time>
      </trkpt>
      <trkpt lat="46.02979" lon="4.70536">
        <ele>191</ele>
        <time>2018-05-09T09:04:44Z</time>
      </trkpt>
      <trkpt lat="46.02986" lon="4.70529">
        <ele>191</ele>
        <time>2018-05-09T09:04:46Z</time>
      </trkpt>
      <trkpt lat="46.02989" lon="4.70525">
        <ele>191</ele>
        <time>2018-05-09T09:04:47Z</time>
      </trkpt>
      <trkpt lat="46.02994" lon="4.70522">
        <ele>191</ele>
        <time>2018-05-09T09:04:48Z</time>
      </trkpt>
      <trkpt lat="46.02998" lon="4.70518">
        <ele>191</ele>
        <time>2018-05-09T09:04:49Z</time>
      </trkpt>
      <trkpt lat="46.03001" lon="4.70515">
        <ele>191</ele>
        <time>2018-05-09T09:04:50Z</time>
      </trkpt>
      <trkpt lat="46.03005" lon="4.70511">
        <ele>191</ele>
        <time>2018-05-09T09:04:51Z</time>
      </trkpt>
      <trkpt lat="46.03013" lon="4.70504">
        <ele>191</ele>
        <time>2018-05-09T09:04:53Z</time>
      </trkpt>
      <trkpt lat="46.03016" lon="4.705">
        <ele>191</ele>
        <time>2018-05-09T09:04:54Z</time>
      </trkpt>
      <trkpt lat="46.03023" lon="4.70493">
        <ele>191</ele>
        <time>2018-05-09T09:04:56Z</time>
      </trkpt>
      <trkpt lat="46.03027" lon="4.7049">
        <ele>191</ele>
        <time>2018-05-09T09:04:57Z</time>
      </trkpt>
      <trkpt lat="46.03035" lon="4.70483">
        <ele>191</ele>
        <time>2018-05-09T09:04:59Z</time>
      </trkpt>
      <trkpt lat="46.03039" lon="4.70478">
        <ele>191</ele>
        <time>2018-05-09T09:05:00Z</time>
      </trkpt>
      <trkpt lat="46.03044" lon="4.70474">
        <ele>191</ele>
        <time>2018-05-09T09:05:01Z</time>
      </trkpt>
      <trkpt lat="46.03048" lon="4.7047">
        <ele>191</ele>
        <time>2018-05-09T09:05:02Z</time>
      </trkpt>
      <trkpt lat="46.03052" lon="4.70467">
        <ele>191</ele>
        <time>2018-05-09T09:05:03Z</time>
      </trkpt>
      <trkpt lat="46.03056" lon="4.70463">
        <ele>191</ele>
        <time>2018-05-09T09:05:04Z</time>
      </trkpt>
      <trkpt lat="46.03061" lon="4.70461">
        <ele>191</ele>
        <time>2018-05-09T09:05:05Z</time>
      </trkpt>
      <trkpt lat="46.03065" lon="4.70459">
        <ele>191</ele>
        <time>2018-05-09T09:05:06Z</time>
      </trkpt>
      <trkpt lat="46.03069" lon="4.70455">
        <ele>191</ele>
        <time>2018-05-09T09:05:07Z</time>
      </trkpt>
      <trkpt lat="46.03073" lon="4.70452">
        <ele>191</ele>
        <time>2018-05-09T09:05:08Z</time>
      </trkpt>
      <trkpt lat="46.03081" lon="4.70447">
        <ele>191</ele>
        <time>2018-05-09T09:05:10Z</time>
      </trkpt>
      <trkpt lat="46.03086" lon="4.70443">
        <ele>192</ele>
        <time>2018-05-09T09:05:11Z</time>
      </trkpt>
      <trkpt lat="46.0309" lon="4.70441">
        <ele>192</ele>
        <time>2018-05-09T09:05:12Z</time>
      </trkpt>
      <trkpt lat="46.03095" lon="4.70439">
        <ele>192</ele>
        <time>2018-05-09T09:05:13Z</time>
      </trkpt>
      <trkpt lat="46.03099" lon="4.70437">
        <ele>192</ele>
        <time>2018-05-09T09:05:14Z</time>
      </trkpt>
      <trkpt lat="46.03104" lon="4.70435">
        <ele>192</ele>
        <time>2018-05-09T09:05:15Z</time>
      </trkpt>
      <trkpt lat="46.03109" lon="4.70432">
        <ele>192</ele>
        <time>2018-05-09T09:05:16Z</time>
      </trkpt>
      <trkpt lat="46.03113" lon="4.70431">
        <ele>192</ele>
        <time>2018-05-09T09:05:17Z</time>
      </trkpt>
      <trkpt lat="46.03118" lon="4.70429">
        <ele>192</ele>
        <time>2018-05-09T09:05:18Z</time>
      </trkpt>
      <trkpt lat="46.03123" lon="4.70428">
        <ele>192</ele>
        <time>2018-05-09T09:05:19Z</time>
      </trkpt>
      <trkpt lat="46.03127" lon="4.70426">
        <ele>192</ele>
        <time>2018-05-09T09:05:20Z</time>
      </trkpt>
      <trkpt lat="46.03132" lon="4.70424">
        <ele>192</ele>
        <time>2018-05-09T09:05:21Z</time>
      </trkpt>
      <trkpt lat="46.03137" lon="4.70421">
        <ele>192</ele>
        <time>2018-05-09T09:05:22Z</time>
      </trkpt>
      <trkpt lat="46.03142" lon="4.70419">
        <ele>192</ele>
        <time>2018-05-09T09:05:23Z</time>
      </trkpt>
      <trkpt lat="46.03147" lon="4.70416">
        <ele>192</ele>
        <time>2018-05-09T09:05:24Z</time>
      </trkpt>
      <trkpt lat="46.03152" lon="4.70414">
        <ele>192</ele>
        <time>2018-05-09T09:05:25Z</time>
      </trkpt>
      <trkpt lat="46.03157" lon="4.70412">
        <ele>192</ele>
        <time>2018-05-09T09:05:26Z</time>
      </trkpt>
      <trkpt lat="46.03162" lon="4.70409">
        <ele>192</ele>
        <time>2018-05-09T09:05:27Z</time>
      </trkpt>
      <trkpt lat="46.03167" lon="4.70407">
        <ele>192</ele>
        <time>2018-05-09T09:05:28Z</time>
      </trkpt>
      <trkpt lat="46.03172" lon="4.70405">
        <ele>192</ele>
        <time>2018-05-09T09:05:29Z</time>
      </trkpt>
      <trkpt lat="46.03176" lon="4.70403">
        <ele>192</ele>
        <time>2018-05-09T09:05:30Z</time>
      </trkpt>
      <trkpt lat="46.03181" lon="4.704">
        <ele>192</ele>
        <time>2018-05-09T09:05:31Z</time>
      </trkpt>
      <trkpt lat="46.03187" lon="4.70397">
        <ele>192</ele>
        <time>2018-05-09T09:05:32Z</time>
      </trkpt>
      <trkpt lat="46.03192" lon="4.70394">
        <ele>192</ele>
        <time>2018-05-09T09:05:33Z</time>
      </trkpt>
      <trkpt lat="46.03198" lon="4.70391">
        <ele>192</ele>
        <time>2018-05-09T09:05:34Z</time>
      </trkpt>
      <trkpt lat="46.03203" lon="4.70389">
        <ele>192</ele>
        <time>2018-05-09T09:05:35Z</time>
      </trkpt>
      <trkpt lat="46.03208" lon="4.70388">
        <ele>192</ele>
        <time>2018-05-09T09:05:36Z</time>
      </trkpt>
      <trkpt lat="46.03213" lon="4.70385">
        <ele>192</ele>
        <time>2018-05-09T09:05:37Z</time>
      </trkpt>
      <trkpt lat="46.03219" lon="4.70383">
        <ele>192</ele>
        <time>2018-05-09T09:05:38Z</time>
      </trkpt>
      <trkpt lat="46.03224" lon="4.7038">
        <ele>192</ele>
        <time>2018-05-09T09:05:39Z</time>
      </trkpt>
      <trkpt lat="46.03231" lon="4.70378">
        <ele>192</ele>
        <time>2018-05-09T09:05:40Z</time>
      </trkpt>
      <trkpt lat="46.03236" lon="4.70376">
        <ele>192</ele>
        <time>2018-05-09T09:05:41Z</time>
      </trkpt>
      <trkpt lat="46.03242" lon="4.70373">
        <ele>192</ele>
        <time>2018-05-09T09:05:42Z</time>
      </trkpt>
      <trkpt lat="46.03247" lon="4.7037">
        <ele>192</ele>
        <time>2018-05-09T09:05:43Z</time>
      </trkpt>
      <trkpt lat="46.03252" lon="4.70368">
        <ele>191</ele>
        <time>2018-05-09T09:05:44Z</time>
      </trkpt>
      <trkpt lat="46.03258" lon="4.70365">
        <ele>191</ele>
        <time>2018-05-09T09:05:45Z</time>
      </trkpt>
      <trkpt lat="46.03264" lon="4.70362">
        <ele>191</ele>
        <time>2018-05-09T09:05:46Z</time>
      </trkpt>
      <trkpt lat="46.03269" lon="4.7036">
        <ele>191</ele>
        <time>2018-05-09T09:05:47Z</time>
      </trkpt>
      <trkpt lat="46.03275" lon="4.70357">
        <ele>191</ele>
        <time>2018-05-09T09:05:48Z</time>
      </trkpt>
      <trkpt lat="46.03282" lon="4.70355">
        <ele>191</ele>
        <time>2018-05-09T09:05:49Z</time>
      </trkpt>
      <trkpt lat="46.03288" lon="4.70352">
        <ele>191</ele>
        <time>2018-05-09T09:05:50Z</time>
      </trkpt>
      <trkpt lat="46.03294" lon="4.7035">
        <ele>191</ele>
        <time>2018-05-09T09:05:51Z</time>
      </trkpt>
      <trkpt lat="46.033" lon="4.70348">
        <ele>191</ele>
        <time>2018-05-09T09:05:52Z</time>
      </trkpt>
      <trkpt lat="46.03306" lon="4.70346">
        <ele>191</ele>
        <time>2018-05-09T09:05:53Z</time>
      </trkpt>
      <trkpt lat="46.03312" lon="4.70344">
        <ele>191</ele>
        <time>2018-05-09T09:05:54Z</time>
      </trkpt>
      <trkpt lat="46.03318" lon="4.70343">
        <ele>191</ele>
        <time>2018-05-09T09:05:55Z</time>
      </trkpt>
      <trkpt lat="46.03325" lon="4.70341">
        <ele>191</ele>
        <time>2018-05-09T09:05:56Z</time>
      </trkpt>
      <trkpt lat="46.03331" lon="4.70338">
        <ele>191</ele>
        <time>2018-05-09T09:05:57Z</time>
      </trkpt>
      <trkpt lat="46.03338" lon="4.70335">
        <ele>191</ele>
        <time>2018-05-09T09:05:58Z</time>
      </trkpt>
      <trkpt lat="46.03345" lon="4.70332">
        <ele>191</ele>
        <time>2018-05-09T09:05:59Z</time>
      </trkpt>
      <trkpt lat="46.03352" lon="4.7033">
        <ele>191</ele>
        <time>2018-05-09T09:06:00Z</time>
      </trkpt>
      <trkpt lat="46.03358" lon="4.70326">
        <ele>191</ele>
        <time>2018-05-09T09:06:01Z</time>
      </trkpt>
      <trkpt lat="46.03364" lon="4.70323">
        <ele>191</ele>
        <time>2018-05-09T09:06:02Z</time>
      </trkpt>
      <trkpt lat="46.03372" lon="4.70322">
        <ele>191</ele>
        <time>2018-05-09T09:06:03Z</time>
      </trkpt>
      <trkpt lat="46.03378" lon="4.70319">
        <ele>191</ele>
        <time>2018-05-09T09:06:04Z</time>
      </trkpt>
      <trkpt lat="46.03385" lon="4.70316">
        <ele>191</ele>
        <time>2018-05-09T09:06:05Z</time>
      </trkpt>
      <trkpt lat="46.03391" lon="4.70314">
        <ele>190</ele>
        <time>2018-05-09T09:06:06Z</time>
      </trkpt>
      <trkpt lat="46.03398" lon="4.70312">
        <ele>190</ele>
        <time>2018-05-09T09:06:07Z</time>
      </trkpt>
      <trkpt lat="46.03404" lon="4.70309">
        <ele>190</ele>
        <time>2018-05-09T09:06:08Z</time>
      </trkpt>
      <trkpt lat="46.03411" lon="4.70306">
        <ele>190</ele>
        <time>2018-05-09T09:06:09Z</time>
      </trkpt>
      <trkpt lat="46.03417" lon="4.70302">
        <ele>188</ele>
        <time>2018-05-09T09:06:10Z</time>
      </trkpt>
      <trkpt lat="46.03424" lon="4.70298">
        <ele>188</ele>
        <time>2018-05-09T09:06:11Z</time>
      </trkpt>
      <trkpt lat="46.03431" lon="4.70296">
        <ele>188</ele>
        <time>2018-05-09T09:06:12Z</time>
      </trkpt>
      <trkpt lat="46.03438" lon="4.70293">
        <ele>188</ele>
        <time>2018-05-09T09:06:13Z</time>
      </trkpt>
      <trkpt lat="46.03444" lon="4.70291">
        <ele>188</ele>
        <time>2018-05-09T09:06:14Z</time>
      </trkpt>
      <trkpt lat="46.03451" lon="4.70289">
        <ele>188</ele>
        <time>2018-05-09T09:06:15Z</time>
      </trkpt>
      <trkpt lat="46.03458" lon="4.70286">
        <ele>188</ele>
        <time>2018-05-09T09:06:16Z</time>
      </trkpt>
      <trkpt lat="46.03464" lon="4.70282">
        <ele>188</ele>
        <time>2018-05-09T09:06:17Z</time>
      </trkpt>
      <trkpt lat="46.0347" lon="4.7028">
        <ele>188</ele>
        <time>2018-05-09T09:06:18Z</time>
      </trkpt>
      <trkpt lat="46.03477" lon="4.70278">
        <ele>188</ele>
        <time>2018-05-09T09:06:19Z</time>
      </trkpt>
      <trkpt lat="46.03483" lon="4.70276">
        <ele>188</ele>
        <time>2018-05-09T09:06:20Z</time>
      </trkpt>
      <trkpt lat="46.03491" lon="4.70272">
        <ele>188</ele>
        <time>2018-05-09T09:06:21Z</time>
      </trkpt>
      <trkpt lat="46.03497" lon="4.70269">
        <ele>187</ele>
        <time>2018-05-09T09:06:22Z</time>
      </trkpt>
      <trkpt lat="46.03502" lon="4.70268">
        <ele>187</ele>
        <time>2018-05-09T09:06:23Z</time>
      </trkpt>
      <trkpt lat="46.03507" lon="4.70267">
        <ele>187</ele>
        <time>2018-05-09T09:06:24Z</time>
      </trkpt>
      <trkpt lat="46.03512" lon="4.70265">
        <ele>187</ele>
        <time>2018-05-09T09:06:25Z</time>
      </trkpt>
      <trkpt lat="46.03519" lon="4.70262">
        <ele>187</ele>
        <time>2018-05-09T09:06:26Z</time>
      </trkpt>
      <trkpt lat="46.03525" lon="4.7026">
        <ele>187</ele>
        <time>2018-05-09T09:06:27Z</time>
      </trkpt>
      <trkpt lat="46.0353" lon="4.70258">
        <ele>187</ele>
        <time>2018-05-09T09:06:28Z</time>
      </trkpt>
      <trkpt lat="46.03534" lon="4.70254">
        <ele>188</ele>
        <time>2018-05-09T09:06:29Z</time>
      </trkpt>
      <trkpt lat="46.03539" lon="4.7025">
        <ele>188</ele>
        <time>2018-05-09T09:06:30Z</time>
      </trkpt>
      <trkpt lat="46.03545" lon="4.70248">
        <ele>189</ele>
        <time>2018-05-09T09:06:31Z</time>
      </trkpt>
      <trkpt lat="46.03551" lon="4.70245">
        <ele>190</ele>
        <time>2018-05-09T09:06:32Z</time>
      </trkpt>
      <trkpt lat="46.03556" lon="4.70243">
        <ele>190</ele>
        <time>2018-05-09T09:06:33Z</time>
      </trkpt>
      <trkpt lat="46.03562" lon="4.70241">
        <ele>190</ele>
        <time>2018-05-09T09:06:34Z</time>
      </trkpt>
      <trkpt lat="46.03568" lon="4.70237">
        <ele>190</ele>
        <time>2018-05-09T09:06:35Z</time>
      </trkpt>
      <trkpt lat="46.03573" lon="4.70235">
        <ele>190</ele>
        <time>2018-05-09T09:06:36Z</time>
      </trkpt>
      <trkpt lat="46.03579" lon="4.70233">
        <ele>190</ele>
        <time>2018-05-09T09:06:37Z</time>
      </trkpt>
      <trkpt lat="46.03585" lon="4.70231">
        <ele>190</ele>
        <time>2018-05-09T09:06:38Z</time>
      </trkpt>
      <trkpt lat="46.0359" lon="4.70229">
        <ele>190</ele>
        <time>2018-05-09T09:06:39Z</time>
      </trkpt>
      <trkpt lat="46.03596" lon="4.70228">
        <ele>190</ele>
        <time>2018-05-09T09:06:40Z</time>
      </trkpt>
      <trkpt lat="46.03601" lon="4.70226">
        <ele>190</ele>
        <time>2018-05-09T09:06:41Z</time>
      </trkpt>
      <trkpt lat="46.03607" lon="4.70223">
        <ele>190</ele>
        <time>2018-05-09T09:06:42Z</time>
      </trkpt>
      <trkpt lat="46.03613" lon="4.7022">
        <ele>190</ele>
        <time>2018-05-09T09:06:43Z</time>
      </trkpt>
      <trkpt lat="46.03618" lon="4.70219">
        <ele>190</ele>
        <time>2018-05-09T09:06:44Z</time>
      </trkpt>
      <trkpt lat="46.03623" lon="4.70217">
        <ele>190</ele>
        <time>2018-05-09T09:06:45Z</time>
      </trkpt>
      <trkpt lat="46.03629" lon="4.70213">
        <ele>190</ele>
        <time>2018-05-09T09:06:46Z</time>
      </trkpt>
      <trkpt lat="46.03635" lon="4.70211">
        <ele>190</ele>
        <time>2018-05-09T09:06:47Z</time>
      </trkpt>
      <trkpt lat="46.03641" lon="4.70209">
        <ele>190</ele>
        <time>2018-05-09T09:06:48Z</time>
      </trkpt>
      <trkpt lat="46.03646" lon="4.7021">
        <ele>190</ele>
        <time>2018-05-09T09:06:49Z</time>
      </trkpt>
      <trkpt lat="46.03653" lon="4.70209">
        <ele>190</ele>
        <time>2018-05-09T09:06:50Z</time>
      </trkpt>
      <trkpt lat="46.03659" lon="4.70207">
        <ele>190</ele>
        <time>2018-05-09T09:06:51Z</time>
      </trkpt>
      <trkpt lat="46.03666" lon="4.70201">
        <ele>191</ele>
        <time>2018-05-09T09:06:52Z</time>
      </trkpt>
      <trkpt lat="46.03672" lon="4.70197">
        <ele>189</ele>
        <time>2018-05-09T09:06:53Z</time>
      </trkpt>
      <trkpt lat="46.03677" lon="4.70195">
        <ele>189</ele>
        <time>2018-05-09T09:06:54Z</time>
      </trkpt>
      <trkpt lat="46.03683" lon="4.70194">
        <ele>189</ele>
        <time>2018-05-09T09:06:55Z</time>
      </trkpt>
      <trkpt lat="46.0369" lon="4.70192">
        <ele>189</ele>
        <time>2018-05-09T09:06:56Z</time>
      </trkpt>
      <trkpt lat="46.03696" lon="4.70192">
        <ele>189</ele>
        <time>2018-05-09T09:06:57Z</time>
      </trkpt>
      <trkpt lat="46.03703" lon="4.70188">
        <ele>189</ele>
        <time>2018-05-09T09:06:58Z</time>
      </trkpt>
      <trkpt lat="46.03709" lon="4.70185">
        <ele>188</ele>
        <time>2018-05-09T09:06:59Z</time>
      </trkpt>
      <trkpt lat="46.03715" lon="4.70184">
        <ele>188</ele>
        <time>2018-05-09T09:07:00Z</time>
      </trkpt>
      <trkpt lat="46.03722" lon="4.70182">
        <ele>188</ele>
        <time>2018-05-09T09:07:01Z</time>
      </trkpt>
      <trkpt lat="46.03727" lon="4.70181">
        <ele>188</ele>
        <time>2018-05-09T09:07:02Z</time>
      </trkpt>
      <trkpt lat="46.03734" lon="4.70179">
        <ele>188</ele>
        <time>2018-05-09T09:07:03Z</time>
      </trkpt>
      <trkpt lat="46.0374" lon="4.70176">
        <ele>188</ele>
        <time>2018-05-09T09:07:04Z</time>
      </trkpt>
      <trkpt lat="46.03746" lon="4.70173">
        <ele>187</ele>
        <time>2018-05-09T09:07:05Z</time>
      </trkpt>
      <trkpt lat="46.03752" lon="4.70171">
        <ele>187</ele>
        <time>2018-05-09T09:07:06Z</time>
      </trkpt>
      <trkpt lat="46.03757" lon="4.70168">
        <ele>188</ele>
        <time>2018-05-09T09:07:07Z</time>
      </trkpt>
      <trkpt lat="46.03762" lon="4.70166">
        <ele>188</ele>
        <time>2018-05-09T09:07:08Z</time>
      </trkpt>
      <trkpt lat="46.03768" lon="4.70166">
        <ele>188</ele>
        <time>2018-05-09T09:07:09Z</time>
      </trkpt>
      <trkpt lat="46.03774" lon="4.70164">
        <ele>188</ele>
        <time>2018-05-09T09:07:10Z</time>
      </trkpt>
      <trkpt lat="46.0378" lon="4.70162">
        <ele>189</ele>
        <time>2018-05-09T09:07:11Z</time>
      </trkpt>
      <trkpt lat="46.03786" lon="4.70159">
        <ele>189</ele>
        <time>2018-05-09T09:07:12Z</time>
      </trkpt>
      <trkpt lat="46.03794" lon="4.70156">
        <ele>189</ele>
        <time>2018-05-09T09:07:13Z</time>
      </trkpt>
      <trkpt lat="46.03799" lon="4.70154">
        <ele>189</ele>
        <time>2018-05-09T09:07:14Z</time>
      </trkpt>
      <trkpt lat="46.03805" lon="4.70153">
        <ele>190</ele>
        <time>2018-05-09T09:07:15Z</time>
      </trkpt>
      <trkpt lat="46.0381" lon="4.70149">
        <ele>190</ele>
        <time>2018-05-09T09:07:16Z</time>
      </trkpt>
      <trkpt lat="46.03815" lon="4.70147">
        <ele>190</ele>
        <time>2018-05-09T09:07:17Z</time>
      </trkpt>
      <trkpt lat="46.0382" lon="4.70145">
        <ele>190</ele>
        <time>2018-05-09T09:07:18Z</time>
      </trkpt>
      <trkpt lat="46.03826" lon="4.70143">
        <ele>190</ele>
        <time>2018-05-09T09:07:19Z</time>
      </trkpt>
      <trkpt lat="46.03832" lon="4.70142">
        <ele>190</ele>
        <time>2018-05-09T09:07:20Z</time>
      </trkpt>
      <trkpt lat="46.03836" lon="4.7014">
        <ele>192</ele>
        <time>2018-05-09T09:07:21Z</time>
      </trkpt>
      <trkpt lat="46.03842" lon="4.70139">
        <ele>192</ele>
        <time>2018-05-09T09:07:22Z</time>
      </trkpt>
      <trkpt lat="46.03847" lon="4.70138">
        <ele>192</ele>
        <time>2018-05-09T09:07:23Z</time>
      </trkpt>
      <trkpt lat="46.03852" lon="4.70135">
        <ele>193</ele>
        <time>2018-05-09T09:07:24Z</time>
      </trkpt>
      <trkpt lat="46.03857" lon="4.70133">
        <ele>193</ele>
        <time>2018-05-09T09:07:25Z</time>
      </trkpt>
      <trkpt lat="46.03862" lon="4.70132">
        <ele>193</ele>
        <time>2018-05-09T09:07:26Z</time>
      </trkpt>
      <trkpt lat="46.03866" lon="4.70128">
        <ele>193</ele>
        <time>2018-05-09T09:07:27Z</time>
      </trkpt>
      <trkpt lat="46.03874" lon="4.70126">
        <ele>193</ele>
        <time>2018-05-09T09:07:29Z</time>
      </trkpt>
      <trkpt lat="46.03879" lon="4.70124">
        <ele>193</ele>
        <time>2018-05-09T09:07:30Z</time>
      </trkpt>
      <trkpt lat="46.03884" lon="4.70122">
        <ele>193</ele>
        <time>2018-05-09T09:07:31Z</time>
      </trkpt>
      <trkpt lat="46.03889" lon="4.70119">
        <ele>193</ele>
        <time>2018-05-09T09:07:32Z</time>
      </trkpt>
      <trkpt lat="46.03893" lon="4.70117">
        <ele>193</ele>
        <time>2018-05-09T09:07:33Z</time>
      </trkpt>
      <trkpt lat="46.03899" lon="4.70114">
        <ele>194</ele>
        <time>2018-05-09T09:07:34Z</time>
      </trkpt>
      <trkpt lat="46.03907" lon="4.70114">
        <ele>194</ele>
        <time>2018-05-09T09:07:36Z</time>
      </trkpt>
      <trkpt lat="46.03908" lon="4.70114">
        <ele>194</ele>
        <time>2018-05-09T09:07:37Z</time>
      </trkpt>
      <trkpt lat="46.03914" lon="4.7011">
        <ele>194</ele>
        <time>2018-05-09T09:07:38Z</time>
      </trkpt>
      <trkpt lat="46.03919" lon="4.70108">
        <ele>195</ele>
        <time>2018-05-09T09:07:39Z</time>
      </trkpt>
      <trkpt lat="46.03924" lon="4.70108">
        <ele>196</ele>
        <time>2018-05-09T09:07:40Z</time>
      </trkpt>
      <trkpt lat="46.03928" lon="4.70106">
        <ele>195</ele>
        <time>2018-05-09T09:07:41Z</time>
      </trkpt>
      <trkpt lat="46.03933" lon="4.70104">
        <ele>196</ele>
        <time>2018-05-09T09:07:42Z</time>
      </trkpt>
      <trkpt lat="46.03937" lon="4.70103">
        <ele>196</ele>
        <time>2018-05-09T09:07:43Z</time>
      </trkpt>
      <trkpt lat="46.03945" lon="4.70101">
        <ele>196</ele>
        <time>2018-05-09T09:07:45Z</time>
      </trkpt>
      <trkpt lat="46.03949" lon="4.701">
        <ele>196</ele>
        <time>2018-05-09T09:07:46Z</time>
      </trkpt>
      <trkpt lat="46.03955" lon="4.70098">
        <ele>196</ele>
        <time>2018-05-09T09:07:47Z</time>
      </trkpt>
      <trkpt lat="46.03958" lon="4.70098">
        <ele>196</ele>
        <time>2018-05-09T09:07:48Z</time>
      </trkpt>
      <trkpt lat="46.03965" lon="4.70096">
        <ele>196</ele>
        <time>2018-05-09T09:07:50Z</time>
      </trkpt>
      <trkpt lat="46.03969" lon="4.70095">
        <ele>196</ele>
        <time>2018-05-09T09:07:51Z</time>
      </trkpt>
      <trkpt lat="46.03977" lon="4.70093">
        <ele>196</ele>
        <time>2018-05-09T09:07:53Z</time>
      </trkpt>
      <trkpt lat="46.03981" lon="4.70092">
        <ele>196</ele>
        <time>2018-05-09T09:07:54Z</time>
      </trkpt>
      <trkpt lat="46.03985" lon="4.70091">
        <ele>196</ele>
        <time>2018-05-09T09:07:55Z</time>
      </trkpt>
      <trkpt lat="46.03991" lon="4.70091">
        <ele>196</ele>
        <time>2018-05-09T09:07:56Z</time>
      </trkpt>
      <trkpt lat="46.03998" lon="4.70091">
        <ele>196</ele>
        <time>2018-05-09T09:07:58Z</time>
      </trkpt>
      <trkpt lat="46.04005" lon="4.70091">
        <ele>196</ele>
        <time>2018-05-09T09:07:59Z</time>
      </trkpt>
      <trkpt lat="46.04012" lon="4.70088">
        <ele>196</ele>
        <time>2018-05-09T09:08:01Z</time>
      </trkpt>
      <trkpt lat="46.04019" lon="4.70088">
        <ele>195</ele>
        <time>2018-05-09T09:08:02Z</time>
      </trkpt>
      <trkpt lat="46.04023" lon="4.70088">
        <ele>195</ele>
        <time>2018-05-09T09:08:03Z</time>
      </trkpt>
      <trkpt lat="46.0403" lon="4.70088">
        <ele>195</ele>
        <time>2018-05-09T09:08:04Z</time>
      </trkpt>
      <trkpt lat="46.04034" lon="4.70088">
        <ele>195</ele>
        <time>2018-05-09T09:08:05Z</time>
      </trkpt>
      <trkpt lat="46.04039" lon="4.70088">
        <ele>195</ele>
        <time>2018-05-09T09:08:06Z</time>
      </trkpt>
      <trkpt lat="46.04046" lon="4.70086">
        <ele>195</ele>
        <time>2018-05-09T09:08:07Z</time>
      </trkpt>
      <trkpt lat="46.04053" lon="4.70084">
        <ele>195</ele>
        <time>2018-05-09T09:08:08Z</time>
      </trkpt>
      <trkpt lat="46.04058" lon="4.70085">
        <ele>195</ele>
        <time>2018-05-09T09:08:09Z</time>
      </trkpt>
      <trkpt lat="46.04064" lon="4.70085">
        <ele>195</ele>
        <time>2018-05-09T09:08:10Z</time>
      </trkpt>
      <trkpt lat="46.04069" lon="4.70085">
        <ele>194</ele>
        <time>2018-05-09T09:08:11Z</time>
      </trkpt>
      <trkpt lat="46.04075" lon="4.70085">
        <ele>194</ele>
        <time>2018-05-09T09:08:12Z</time>
      </trkpt>
      <trkpt lat="46.04082" lon="4.70081">
        <ele>194</ele>
        <time>2018-05-09T09:08:13Z</time>
      </trkpt>
      <trkpt lat="46.04084" lon="4.70081">
        <ele>194</ele>
        <time>2018-05-09T09:08:14Z</time>
      </trkpt>
      <trkpt lat="46.04089" lon="4.70079">
        <ele>194</ele>
        <time>2018-05-09T09:08:15Z</time>
      </trkpt>
      <trkpt lat="46.04093" lon="4.70076">
        <ele>193</ele>
        <time>2018-05-09T09:08:16Z</time>
      </trkpt>
      <trkpt lat="46.04097" lon="4.70075">
        <ele>193</ele>
        <time>2018-05-09T09:08:17Z</time>
      </trkpt>
      <trkpt lat="46.04102" lon="4.70072">
        <ele>193</ele>
        <time>2018-05-09T09:08:18Z</time>
      </trkpt>
      <trkpt lat="46.04107" lon="4.70068">
        <ele>193</ele>
        <time>2018-05-09T09:08:19Z</time>
      </trkpt>
      <trkpt lat="46.04112" lon="4.70065">
        <ele>192</ele>
        <time>2018-05-09T09:08:20Z</time>
      </trkpt>
      <trkpt lat="46.04116" lon="4.70061">
        <ele>192</ele>
        <time>2018-05-09T09:08:21Z</time>
      </trkpt>
      <trkpt lat="46.04121" lon="4.70058">
        <ele>192</ele>
        <time>2018-05-09T09:08:22Z</time>
      </trkpt>
      <trkpt lat="46.04127" lon="4.70054">
        <ele>192</ele>
        <time>2018-05-09T09:08:24Z</time>
      </trkpt>
      <trkpt lat="46.04129" lon="4.70053">
        <ele>192</ele>
        <time>2018-05-09T09:08:25Z</time>
      </trkpt>
      <trkpt lat="46.04137" lon="4.7005">
        <ele>192</ele>
        <time>2018-05-09T09:08:26Z</time>
      </trkpt>
      <trkpt lat="46.04141" lon="4.70048">
        <ele>192</ele>
        <time>2018-05-09T09:08:27Z</time>
      </trkpt>
      <trkpt lat="46.0415" lon="4.70045">
        <ele>191</ele>
        <time>2018-05-09T09:08:28Z</time>
      </trkpt>
      <trkpt lat="46.04155" lon="4.70043">
        <ele>191</ele>
        <time>2018-05-09T09:08:29Z</time>
      </trkpt>
      <trkpt lat="46.04162" lon="4.70036">
        <ele>191</ele>
        <time>2018-05-09T09:08:30Z</time>
      </trkpt>
      <trkpt lat="46.04168" lon="4.70033">
        <ele>189</ele>
        <time>2018-05-09T09:08:31Z</time>
      </trkpt>
      <trkpt lat="46.04174" lon="4.70031">
        <ele>189</ele>
        <time>2018-05-09T09:08:32Z</time>
      </trkpt>
      <trkpt lat="46.04178" lon="4.70029">
        <ele>189</ele>
        <time>2018-05-09T09:08:33Z</time>
      </trkpt>
      <trkpt lat="46.04183" lon="4.70025">
        <ele>189</ele>
        <time>2018-05-09T09:08:34Z</time>
      </trkpt>
      <trkpt lat="46.04188" lon="4.7002">
        <ele>188</ele>
        <time>2018-05-09T09:08:35Z</time>
      </trkpt>
      <trkpt lat="46.04192" lon="4.70016">
        <ele>188</ele>
        <time>2018-05-09T09:08:36Z</time>
      </trkpt>
      <trkpt lat="46.042" lon="4.70011">
        <ele>188</ele>
        <time>2018-05-09T09:08:37Z</time>
      </trkpt>
      <trkpt lat="46.04205" lon="4.70007">
        <ele>188</ele>
        <time>2018-05-09T09:08:38Z</time>
      </trkpt>
      <trkpt lat="46.04209" lon="4.70003">
        <ele>188</ele>
        <time>2018-05-09T09:08:39Z</time>
      </trkpt>
      <trkpt lat="46.04213" lon="4.69999">
        <ele>188</ele>
        <time>2018-05-09T09:08:40Z</time>
      </trkpt>
      <trkpt lat="46.04218" lon="4.69996">
        <ele>188</ele>
        <time>2018-05-09T09:08:41Z</time>
      </trkpt>
      <trkpt lat="46.04224" lon="4.69992">
        <ele>188</ele>
        <time>2018-05-09T09:08:43Z</time>
      </trkpt>
      <trkpt lat="46.0423" lon="4.69986">
        <ele>188</ele>
        <time>2018-05-09T09:08:44Z</time>
      </trkpt>
      <trkpt lat="46.04234" lon="4.69982">
        <ele>188</ele>
        <time>2018-05-09T09:08:45Z</time>
      </trkpt>
      <trkpt lat="46.04239" lon="4.69979">
        <ele>188</ele>
        <time>2018-05-09T09:08:46Z</time>
      </trkpt>
      <trkpt lat="46.04242" lon="4.69975">
        <ele>188</ele>
        <time>2018-05-09T09:08:47Z</time>
      </trkpt>
      <trkpt lat="46.04247" lon="4.69971">
        <ele>188</ele>
        <time>2018-05-09T09:08:48Z</time>
      </trkpt>
      <trkpt lat="46.04251" lon="4.69966">
        <ele>188</ele>
        <time>2018-05-09T09:08:49Z</time>
      </trkpt>
      <trkpt lat="46.04255" lon="4.69961">
        <ele>188</ele>
        <time>2018-05-09T09:08:50Z</time>
      </trkpt>
      <trkpt lat="46.04262" lon="4.69953">
        <ele>188</ele>
        <time>2018-05-09T09:08:52Z</time>
      </trkpt>
      <trkpt lat="46.04265" lon="4.69949">
        <ele>188</ele>
        <time>2018-05-09T09:08:53Z</time>
      </trkpt>
      <trkpt lat="46.04269" lon="4.69945">
        <ele>189</ele>
        <time>2018-05-09T09:08:54Z</time>
      </trkpt>
      <trkpt lat="46.04273" lon="4.69941">
        <ele>189</ele>
        <time>2018-05-09T09:08:55Z</time>
      </trkpt>
      <trkpt lat="46.04277" lon="4.69936">
        <ele>189</ele>
        <time>2018-05-09T09:08:56Z</time>
      </trkpt>
      <trkpt lat="46.04281" lon="4.69932">
        <ele>189</ele>
        <time>2018-05-09T09:08:57Z</time>
      </trkpt>
      <trkpt lat="46.04288" lon="4.69925">
        <ele>189</ele>
        <time>2018-05-09T09:08:59Z</time>
      </trkpt>
      <trkpt lat="46.04291" lon="4.69921">
        <ele>189</ele>
        <time>2018-05-09T09:09:00Z</time>
      </trkpt>
      <trkpt lat="46.04295" lon="4.69918">
        <ele>189</ele>
        <time>2018-05-09T09:09:01Z</time>
      </trkpt>
      <trkpt lat="46.04299" lon="4.69914">
        <ele>190</ele>
        <time>2018-05-09T09:09:02Z</time>
      </trkpt>
      <trkpt lat="46.04305" lon="4.69906">
        <ele>190</ele>
        <time>2018-05-09T09:09:04Z</time>
      </trkpt>
      <trkpt lat="46.04308" lon="4.69904">
        <ele>190</ele>
        <time>2018-05-09T09:09:05Z</time>
      </trkpt>
      <trkpt lat="46.04311" lon="4.69898">
        <ele>190</ele>
        <time>2018-05-09T09:09:06Z</time>
      </trkpt>
      <trkpt lat="46.04314" lon="4.69894">
        <ele>190</ele>
        <time>2018-05-09T09:09:07Z</time>
      </trkpt>
      <trkpt lat="46.04317" lon="4.69888">
        <ele>190</ele>
        <time>2018-05-09T09:09:08Z</time>
      </trkpt>
      <trkpt lat="46.04319" lon="4.69883">
        <ele>190</ele>
        <time>2018-05-09T09:09:09Z</time>
      </trkpt>
      <trkpt lat="46.04322" lon="4.69877">
        <ele>190</ele>
        <time>2018-05-09T09:09:10Z</time>
      </trkpt>
      <trkpt lat="46.04324" lon="4.69872">
        <ele>191</ele>
        <time>2018-05-09T09:09:11Z</time>
      </trkpt>
      <trkpt lat="46.04329" lon="4.69862">
        <ele>191</ele>
        <time>2018-05-09T09:09:13Z</time>
      </trkpt>
      <trkpt lat="46.04332" lon="4.69857">
        <ele>191</ele>
        <time>2018-05-09T09:09:14Z</time>
      </trkpt>
      <trkpt lat="46.04338" lon="4.6985">
        <ele>192</ele>
        <time>2018-05-09T09:09:16Z</time>
      </trkpt>
      <trkpt lat="46.04342" lon="4.69846">
        <ele>192</ele>
        <time>2018-05-09T09:09:17Z</time>
      </trkpt>
      <trkpt lat="46.04346" lon="4.69842">
        <ele>192</ele>
        <time>2018-05-09T09:09:18Z</time>
      </trkpt>
      <trkpt lat="46.0435" lon="4.6984">
        <ele>193</ele>
        <time>2018-05-09T09:09:19Z</time>
      </trkpt>
      <trkpt lat="46.04358" lon="4.69836">
        <ele>193</ele>
        <time>2018-05-09T09:09:21Z</time>
      </trkpt>
      <trkpt lat="46.04362" lon="4.69834">
        <ele>193</ele>
        <time>2018-05-09T09:09:22Z</time>
      </trkpt>
      <trkpt lat="46.04366" lon="4.69832">
        <ele>193</ele>
        <time>2018-05-09T09:09:23Z</time>
      </trkpt>
      <trkpt lat="46.0437" lon="4.69829">
        <ele>194</ele>
        <time>2018-05-09T09:09:24Z</time>
      </trkpt>
      <trkpt lat="46.04378" lon="4.69825">
        <ele>194</ele>
        <time>2018-05-09T09:09:26Z</time>
      </trkpt>
      <trkpt lat="46.04382" lon="4.69823">
        <ele>194</ele>
        <time>2018-05-09T09:09:27Z</time>
      </trkpt>
      <trkpt lat="46.0439" lon="4.69819">
        <ele>194</ele>
        <time>2018-05-09T09:09:29Z</time>
      </trkpt>
      <trkpt lat="46.04393" lon="4.69818">
        <ele>194</ele>
        <time>2018-05-09T09:09:30Z</time>
      </trkpt>
      <trkpt lat="46.04401" lon="4.69815">
        <ele>194</ele>
        <time>2018-05-09T09:09:32Z</time>
      </trkpt>
      <trkpt lat="46.04405" lon="4.69814">
        <ele>194</ele>
        <time>2018-05-09T09:09:33Z</time>
      </trkpt>
      <trkpt lat="46.04413" lon="4.69812">
        <ele>194</ele>
        <time>2018-05-09T09:09:35Z</time>
      </trkpt>
      <trkpt lat="46.04417" lon="4.69811">
        <ele>194</ele>
        <time>2018-05-09T09:09:36Z</time>
      </trkpt>
      <trkpt lat="46.04424" lon="4.6981">
        <ele>196</ele>
        <time>2018-05-09T09:09:38Z</time>
      </trkpt>
      <trkpt lat="46.04428" lon="4.69809">
        <ele>196</ele>
        <time>2018-05-09T09:09:39Z</time>
      </trkpt>
      <trkpt lat="46.04436" lon="4.69807">
        <ele>196</ele>
        <time>2018-05-09T09:09:41Z</time>
      </trkpt>
      <trkpt lat="46.0444" lon="4.69806">
        <ele>196</ele>
        <time>2018-05-09T09:09:42Z</time>
      </trkpt>
      <trkpt lat="46.04448" lon="4.69804">
        <ele>196</ele>
        <time>2018-05-09T09:09:44Z</time>
      </trkpt>
      <trkpt lat="46.04451" lon="4.69804">
        <ele>196</ele>
        <time>2018-05-09T09:09:45Z</time>
      </trkpt>
      <trkpt lat="46.04459" lon="4.69802">
        <ele>197</ele>
        <time>2018-05-09T09:09:47Z</time>
      </trkpt>
      <trkpt lat="46.04463" lon="4.69801">
        <ele>197</ele>
        <time>2018-05-09T09:09:48Z</time>
      </trkpt>
      <trkpt lat="46.0447" lon="4.69799">
        <ele>197</ele>
        <time>2018-05-09T09:09:50Z</time>
      </trkpt>
      <trkpt lat="46.04474" lon="4.69798">
        <ele>197</ele>
        <time>2018-05-09T09:09:51Z</time>
      </trkpt>
      <trkpt lat="46.04482" lon="4.69796">
        <ele>197</ele>
        <time>2018-05-09T09:09:53Z</time>
      </trkpt>
      <trkpt lat="46.04486" lon="4.69794">
        <ele>197</ele>
        <time>2018-05-09T09:09:54Z</time>
      </trkpt>
      <trkpt lat="46.04491" lon="4.69792">
        <ele>197</ele>
        <time>2018-05-09T09:09:56Z</time>
      </trkpt>
      <trkpt lat="46.04497" lon="4.69791">
        <ele>197</ele>
        <time>2018-05-09T09:09:57Z</time>
      </trkpt>
      <trkpt lat="46.04502" lon="4.6979">
        <ele>199</ele>
        <time>2018-05-09T09:09:59Z</time>
      </trkpt>
      <trkpt lat="46.04507" lon="4.6979">
        <ele>199</ele>
        <time>2018-05-09T09:10:00Z</time>
      </trkpt>
      <trkpt lat="46.04514" lon="4.6979">
        <ele>199</ele>
        <time>2018-05-09T09:10:03Z</time>
      </trkpt>
      <trkpt lat="46.04516" lon="4.6979">
        <ele>199</ele>
        <time>2018-05-09T09:10:04Z</time>
      </trkpt>
      <trkpt lat="46.04525" lon="4.69792">
        <ele>199</ele>
        <time>2018-05-09T09:10:07Z</time>
      </trkpt>
      <trkpt lat="46.04528" lon="4.69792">
        <ele>199</ele>
        <time>2018-05-09T09:10:08Z</time>
      </trkpt>
      <trkpt lat="46.04535" lon="4.69793">
        <ele>199</ele>
        <time>2018-05-09T09:10:10Z</time>
      </trkpt>
      <trkpt lat="46.04538" lon="4.69793">
        <ele>199</ele>
        <time>2018-05-09T09:10:11Z</time>
      </trkpt>
      <trkpt lat="46.04541" lon="4.69794">
        <ele>199</ele>
        <time>2018-05-09T09:10:12Z</time>
      </trkpt>
      <trkpt lat="46.04551" lon="4.69796">
        <ele>199</ele>
        <time>2018-05-09T09:10:13Z</time>
      </trkpt>
      <trkpt lat="46.04559" lon="4.69797">
        <ele>199</ele>
        <time>2018-05-09T09:10:15Z</time>
      </trkpt>
      <trkpt lat="46.04563" lon="4.69798">
        <ele>200</ele>
        <time>2018-05-09T09:10:16Z</time>
      </trkpt>
      <trkpt lat="46.0457" lon="4.69801">
        <ele>200</ele>
        <time>2018-05-09T09:10:18Z</time>
      </trkpt>
      <trkpt lat="46.04574" lon="4.69802">
        <ele>200</ele>
        <time>2018-05-09T09:10:19Z</time>
      </trkpt>
      <trkpt lat="46.04582" lon="4.69805">
        <ele>200</ele>
        <time>2018-05-09T09:10:21Z</time>
      </trkpt>
      <trkpt lat="46.04586" lon="4.69807">
        <ele>201</ele>
        <time>2018-05-09T09:10:22Z</time>
      </trkpt>
      <trkpt lat="46.04594" lon="4.69809">
        <ele>201</ele>
        <time>2018-05-09T09:10:24Z</time>
      </trkpt>
      <trkpt lat="46.04598" lon="4.6981">
        <ele>201</ele>
        <time>2018-05-09T09:10:25Z</time>
      </trkpt>
      <trkpt lat="46.04606" lon="4.69813">
        <ele>201</ele>
        <time>2018-05-09T09:10:27Z</time>
      </trkpt>
      <trkpt lat="46.0461" lon="4.69815">
        <ele>201</ele>
        <time>2018-05-09T09:10:28Z</time>
      </trkpt>
      <trkpt lat="46.04618" lon="4.69818">
        <ele>202</ele>
        <time>2018-05-09T09:10:30Z</time>
      </trkpt>
      <trkpt lat="46.04622" lon="4.6982">
        <ele>202</ele>
        <time>2018-05-09T09:10:31Z</time>
      </trkpt>
      <trkpt lat="46.0463" lon="4.69823">
        <ele>202</ele>
        <time>2018-05-09T09:10:33Z</time>
      </trkpt>
      <trkpt lat="46.04634" lon="4.69824">
        <ele>202</ele>
        <time>2018-05-09T09:10:34Z</time>
      </trkpt>
      <trkpt lat="46.04643" lon="4.69827">
        <ele>202</ele>
        <time>2018-05-09T09:10:36Z</time>
      </trkpt>
      <trkpt lat="46.04647" lon="4.69828">
        <ele>202</ele>
        <time>2018-05-09T09:10:37Z</time>
      </trkpt>
      <trkpt lat="46.04655" lon="4.69831">
        <ele>202</ele>
        <time>2018-05-09T09:10:39Z</time>
      </trkpt>
      <trkpt lat="46.04659" lon="4.69832">
        <ele>203</ele>
        <time>2018-05-09T09:10:40Z</time>
      </trkpt>
      <trkpt lat="46.04666" lon="4.69834">
        <ele>203</ele>
        <time>2018-05-09T09:10:42Z</time>
      </trkpt>
      <trkpt lat="46.0467" lon="4.69836">
        <ele>203</ele>
        <time>2018-05-09T09:10:43Z</time>
      </trkpt>
      <trkpt lat="46.04678" lon="4.69838">
        <ele>203</ele>
        <time>2018-05-09T09:10:45Z</time>
      </trkpt>
      <trkpt lat="46.04681" lon="4.69839">
        <ele>202</ele>
        <time>2018-05-09T09:10:46Z</time>
      </trkpt>
      <trkpt lat="46.04689" lon="4.69841">
        <ele>202</ele>
        <time>2018-05-09T09:10:48Z</time>
      </trkpt>
      <trkpt lat="46.04693" lon="4.69842">
        <ele>202</ele>
        <time>2018-05-09T09:10:49Z</time>
      </trkpt>
      <trkpt lat="46.04701" lon="4.69844">
        <ele>202</ele>
        <time>2018-05-09T09:10:51Z</time>
      </trkpt>
      <trkpt lat="46.04705" lon="4.69845">
        <ele>202</ele>
        <time>2018-05-09T09:10:52Z</time>
      </trkpt>
      <trkpt lat="46.04714" lon="4.69845">
        <ele>203</ele>
        <time>2018-05-09T09:10:54Z</time>
      </trkpt>
      <trkpt lat="46.04718" lon="4.69843">
        <ele>203</ele>
        <time>2018-05-09T09:10:55Z</time>
      </trkpt>
      <trkpt lat="46.04726" lon="4.69843">
        <ele>203</ele>
        <time>2018-05-09T09:10:57Z</time>
      </trkpt>
      <trkpt lat="46.04731" lon="4.69843">
        <ele>203</ele>
        <time>2018-05-09T09:10:58Z</time>
      </trkpt>
      <trkpt lat="46.04739" lon="4.69843">
        <ele>204</ele>
        <time>2018-05-09T09:11:00Z</time>
      </trkpt>
      <trkpt lat="46.04744" lon="4.69842">
        <ele>204</ele>
        <time>2018-05-09T09:11:01Z</time>
      </trkpt>
      <trkpt lat="46.04752" lon="4.69843">
        <ele>205</ele>
        <time>2018-05-09T09:11:04Z</time>
      </trkpt>
      <trkpt lat="46.0476" lon="4.69843">
        <ele>205</ele>
        <time>2018-05-09T09:11:05Z</time>
      </trkpt>
      <trkpt lat="46.04769" lon="4.69843">
        <ele>205</ele>
        <time>2018-05-09T09:11:07Z</time>
      </trkpt>
      <trkpt lat="46.04772" lon="4.69843">
        <ele>205</ele>
        <time>2018-05-09T09:11:08Z</time>
      </trkpt>
      <trkpt lat="46.0478" lon="4.69844">
        <ele>205</ele>
        <time>2018-05-09T09:11:10Z</time>
      </trkpt>
      <trkpt lat="46.04783" lon="4.69844">
        <ele>205</ele>
        <time>2018-05-09T09:11:11Z</time>
      </trkpt>
      <trkpt lat="46.04787" lon="4.69844">
        <ele>205</ele>
        <time>2018-05-09T09:11:13Z</time>
      </trkpt>
      <trkpt lat="46.04793" lon="4.69843">
        <ele>205</ele>
        <time>2018-05-09T09:11:14Z</time>
      </trkpt>
      <trkpt lat="46.04798" lon="4.69833">
        <ele>206</ele>
        <time>2018-05-09T09:11:18Z</time>
      </trkpt>
      <trkpt lat="46.04799" lon="4.69822">
        <ele>206</ele>
        <time>2018-05-09T09:11:19Z</time>
      </trkpt>
      <trkpt lat="46.04803" lon="4.69812">
        <ele>206</ele>
        <time>2018-05-09T09:11:23Z</time>
      </trkpt>
      <trkpt lat="46.04809" lon="4.69811">
        <ele>206</ele>
        <time>2018-05-09T09:11:24Z</time>
      </trkpt>
      <trkpt lat="46.04816" lon="4.69816">
        <ele>207</ele>
        <time>2018-05-09T09:11:26Z</time>
      </trkpt>
      <trkpt lat="46.0482" lon="4.69818">
        <ele>207</ele>
        <time>2018-05-09T09:11:27Z</time>
      </trkpt>
      <trkpt lat="46.04823" lon="4.6982">
        <ele>207</ele>
        <time>2018-05-09T09:11:29Z</time>
      </trkpt>
      <trkpt lat="46.04829" lon="4.69824">
        <ele>207</ele>
        <time>2018-05-09T09:11:30Z</time>
      </trkpt>
      <trkpt lat="46.04837" lon="4.69829">
        <ele>207</ele>
        <time>2018-05-09T09:11:32Z</time>
      </trkpt>
      <trkpt lat="46.0484" lon="4.69832">
        <ele>207</ele>
        <time>2018-05-09T09:11:33Z</time>
      </trkpt>
      <trkpt lat="46.04848" lon="4.69836">
        <ele>207</ele>
        <time>2018-05-09T09:11:35Z</time>
      </trkpt>
      <trkpt lat="46.04854" lon="4.69838">
        <ele>206</ele>
        <time>2018-05-09T09:11:36Z</time>
      </trkpt>
      <trkpt lat="46.04858" lon="4.69841">
        <ele>206</ele>
        <time>2018-05-09T09:11:37Z</time>
      </trkpt>
      <trkpt lat="46.04863" lon="4.69844">
        <ele>206</ele>
        <time>2018-05-09T09:11:38Z</time>
      </trkpt>
      <trkpt lat="46.04868" lon="4.69846">
        <ele>206</ele>
        <time>2018-05-09T09:11:39Z</time>
      </trkpt>
      <trkpt lat="46.04873" lon="4.69848">
        <ele>206</ele>
        <time>2018-05-09T09:11:40Z</time>
      </trkpt>
      <trkpt lat="46.04877" lon="4.6985">
        <ele>206</ele>
        <time>2018-05-09T09:11:41Z</time>
      </trkpt>
      <trkpt lat="46.04881" lon="4.69853">
        <ele>206</ele>
        <time>2018-05-09T09:11:42Z</time>
      </trkpt>
      <trkpt lat="46.04886" lon="4.69855">
        <ele>206</ele>
        <time>2018-05-09T09:11:43Z</time>
      </trkpt>
      <trkpt lat="46.04891" lon="4.69857">
        <ele>206</ele>
        <time>2018-05-09T09:11:44Z</time>
      </trkpt>
      <trkpt lat="46.04896" lon="4.6986">
        <ele>206</ele>
        <time>2018-05-09T09:11:45Z</time>
      </trkpt>
      <trkpt lat="46.049" lon="4.69863">
        <ele>206</ele>
        <time>2018-05-09T09:11:46Z</time>
      </trkpt>
      <trkpt lat="46.04906" lon="4.69864">
        <ele>206</ele>
        <time>2018-05-09T09:11:47Z</time>
      </trkpt>
      <trkpt lat="46.04911" lon="4.69866">
        <ele>206</ele>
        <time>2018-05-09T09:11:48Z</time>
      </trkpt>
      <trkpt lat="46.04915" lon="4.69869">
        <ele>206</ele>
        <time>2018-05-09T09:11:49Z</time>
      </trkpt>
      <trkpt lat="46.0492" lon="4.69871">
        <ele>207</ele>
        <time>2018-05-09T09:11:50Z</time>
      </trkpt>
      <trkpt lat="46.04924" lon="4.69874">
        <ele>207</ele>
        <time>2018-05-09T09:11:51Z</time>
      </trkpt>
      <trkpt lat="46.04929" lon="4.69877">
        <ele>207</ele>
        <time>2018-05-09T09:11:52Z</time>
      </trkpt>
      <trkpt lat="46.04933" lon="4.69881">
        <ele>207</ele>
        <time>2018-05-09T09:11:53Z</time>
      </trkpt>
      <trkpt lat="46.04937" lon="4.69884">
        <ele>207</ele>
        <time>2018-05-09T09:11:54Z</time>
      </trkpt>
      <trkpt lat="46.04941" lon="4.69889">
        <ele>207</ele>
        <time>2018-05-09T09:11:55Z</time>
      </trkpt>
      <trkpt lat="46.04944" lon="4.69893">
        <ele>207</ele>
        <time>2018-05-09T09:11:56Z</time>
      </trkpt>
      <trkpt lat="46.04948" lon="4.69897">
        <ele>207</ele>
        <time>2018-05-09T09:11:57Z</time>
      </trkpt>
      <trkpt lat="46.04952" lon="4.69902">
        <ele>207</ele>
        <time>2018-05-09T09:11:58Z</time>
      </trkpt>
      <trkpt lat="46.04957" lon="4.69906">
        <ele>207</ele>
        <time>2018-05-09T09:11:59Z</time>
      </trkpt>
      <trkpt lat="46.04961" lon="4.69911">
        <ele>206</ele>
        <time>2018-05-09T09:12:00Z</time>
      </trkpt>
      <trkpt lat="46.04964" lon="4.69915">
        <ele>206</ele>
        <time>2018-05-09T09:12:01Z</time>
      </trkpt>
      <trkpt lat="46.04968" lon="4.69921">
        <ele>206</ele>
        <time>2018-05-09T09:12:02Z</time>
      </trkpt>
      <trkpt lat="46.04971" lon="4.69926">
        <ele>206</ele>
        <time>2018-05-09T09:12:03Z</time>
      </trkpt>
      <trkpt lat="46.04974" lon="4.69932">
        <ele>206</ele>
        <time>2018-05-09T09:12:04Z</time>
      </trkpt>
      <trkpt lat="46.04978" lon="4.69937">
        <ele>206</ele>
        <time>2018-05-09T09:12:05Z</time>
      </trkpt>
      <trkpt lat="46.04982" lon="4.69942">
        <ele>206</ele>
        <time>2018-05-09T09:12:06Z</time>
      </trkpt>
      <trkpt lat="46.04985" lon="4.69947">
        <ele>206</ele>
        <time>2018-05-09T09:12:07Z</time>
      </trkpt>
      <trkpt lat="46.04989" lon="4.69952">
        <ele>206</ele>
        <time>2018-05-09T09:12:08Z</time>
      </trkpt>
      <trkpt lat="46.04992" lon="4.69957">
        <ele>206</ele>
        <time>2018-05-09T09:12:09Z</time>
      </trkpt>
      <trkpt lat="46.04996" lon="4.69962">
        <ele>205</ele>
        <time>2018-05-09T09:12:10Z</time>
      </trkpt>
      <trkpt lat="46.04999" lon="4.69968">
        <ele>205</ele>
        <time>2018-05-09T09:12:11Z</time>
      </trkpt>
      <trkpt lat="46.05003" lon="4.69973">
        <ele>205</ele>
        <time>2018-05-09T09:12:12Z</time>
      </trkpt>
      <trkpt lat="46.05006" lon="4.69979">
        <ele>205</ele>
        <time>2018-05-09T09:12:13Z</time>
      </trkpt>
      <trkpt lat="46.0501" lon="4.69984">
        <ele>205</ele>
        <time>2018-05-09T09:12:14Z</time>
      </trkpt>
      <trkpt lat="46.05014" lon="4.6999">
        <ele>205</ele>
        <time>2018-05-09T09:12:15Z</time>
      </trkpt>
      <trkpt lat="46.05019" lon="4.69996">
        <ele>205</ele>
        <time>2018-05-09T09:12:16Z</time>
      </trkpt>
      <trkpt lat="46.05023" lon="4.70001">
        <ele>204</ele>
        <time>2018-05-09T09:12:17Z</time>
      </trkpt>
      <trkpt lat="46.05028" lon="4.70006">
        <ele>204</ele>
        <time>2018-05-09T09:12:18Z</time>
      </trkpt>
      <trkpt lat="46.05033" lon="4.70011">
        <ele>204</ele>
        <time>2018-05-09T09:12:19Z</time>
      </trkpt>
      <trkpt lat="46.05038" lon="4.70016">
        <ele>204</ele>
        <time>2018-05-09T09:12:20Z</time>
      </trkpt>
      <trkpt lat="46.05043" lon="4.7002">
        <ele>204</ele>
        <time>2018-05-09T09:12:21Z</time>
      </trkpt>
      <trkpt lat="46.05047" lon="4.70024">
        <ele>204</ele>
        <time>2018-05-09T09:12:22Z</time>
      </trkpt>
      <trkpt lat="46.05052" lon="4.70026">
        <ele>204</ele>
        <time>2018-05-09T09:12:23Z</time>
      </trkpt>
      <trkpt lat="46.05058" lon="4.70029">
        <ele>204</ele>
        <time>2018-05-09T09:12:24Z</time>
      </trkpt>
      <trkpt lat="46.05064" lon="4.70032">
        <ele>204</ele>
        <time>2018-05-09T09:12:25Z</time>
      </trkpt>
      <trkpt lat="46.05069" lon="4.70034">
        <ele>204</ele>
        <time>2018-05-09T09:12:26Z</time>
      </trkpt>
      <trkpt lat="46.05074" lon="4.70034">
        <ele>204</ele>
        <time>2018-05-09T09:12:27Z</time>
      </trkpt>
      <trkpt lat="46.05079" lon="4.70034">
        <ele>204</ele>
        <time>2018-05-09T09:12:28Z</time>
      </trkpt>
      <trkpt lat="46.05083" lon="4.70031">
        <ele>204</ele>
        <time>2018-05-09T09:12:29Z</time>
      </trkpt>
      <trkpt lat="46.05087" lon="4.70027">
        <ele>203</ele>
        <time>2018-05-09T09:12:30Z</time>
      </trkpt>
      <trkpt lat="46.05091" lon="4.70022">
        <ele>203</ele>
        <time>2018-05-09T09:12:31Z</time>
      </trkpt>
      <trkpt lat="46.05094" lon="4.70016">
        <ele>203</ele>
        <time>2018-05-09T09:12:32Z</time>
      </trkpt>
      <trkpt lat="46.05096" lon="4.70011">
        <ele>204</ele>
        <time>2018-05-09T09:12:33Z</time>
      </trkpt>
      <trkpt lat="46.05098" lon="4.70004">
        <ele>204</ele>
        <time>2018-05-09T09:12:34Z</time>
      </trkpt>
      <trkpt lat="46.05101" lon="4.69992">
        <ele>204</ele>
        <time>2018-05-09T09:12:36Z</time>
      </trkpt>
      <trkpt lat="46.05102" lon="4.69984">
        <ele>203</ele>
        <time>2018-05-09T09:12:37Z</time>
      </trkpt>
      <trkpt lat="46.05103" lon="4.69978">
        <ele>203</ele>
        <time>2018-05-09T09:12:38Z</time>
      </trkpt>
      <trkpt lat="46.05105" lon="4.6997">
        <ele>203</ele>
        <time>2018-05-09T09:12:39Z</time>
      </trkpt>
      <trkpt lat="46.05105" lon="4.69964">
        <ele>203</ele>
        <time>2018-05-09T09:12:40Z</time>
      </trkpt>
      <trkpt lat="46.05106" lon="4.69956">
        <ele>203</ele>
        <time>2018-05-09T09:12:41Z</time>
      </trkpt>
      <trkpt lat="46.05107" lon="4.69944">
        <ele>203</ele>
        <time>2018-05-09T09:12:43Z</time>
      </trkpt>
      <trkpt lat="46.05107" lon="4.69937">
        <ele>203</ele>
        <time>2018-05-09T09:12:44Z</time>
      </trkpt>
      <trkpt lat="46.0511" lon="4.69932">
        <ele>203</ele>
        <time>2018-05-09T09:12:45Z</time>
      </trkpt>
      <trkpt lat="46.05111" lon="4.69925">
        <ele>203</ele>
        <time>2018-05-09T09:12:46Z</time>
      </trkpt>
      <trkpt lat="46.05113" lon="4.69919">
        <ele>203</ele>
        <time>2018-05-09T09:12:47Z</time>
      </trkpt>
      <trkpt lat="46.05113" lon="4.69911">
        <ele>204</ele>
        <time>2018-05-09T09:12:48Z</time>
      </trkpt>
      <trkpt lat="46.05114" lon="4.69904">
        <ele>204</ele>
        <time>2018-05-09T09:12:49Z</time>
      </trkpt>
      <trkpt lat="46.05115" lon="4.69896">
        <ele>204</ele>
        <time>2018-05-09T09:12:50Z</time>
      </trkpt>
      <trkpt lat="46.05116" lon="4.69889">
        <ele>204</ele>
        <time>2018-05-09T09:12:51Z</time>
      </trkpt>
      <trkpt lat="46.05117" lon="4.69883">
        <ele>204</ele>
        <time>2018-05-09T09:12:52Z</time>
      </trkpt>
      <trkpt lat="46.05119" lon="4.69877">
        <ele>204</ele>
        <time>2018-05-09T09:12:53Z</time>
      </trkpt>
      <trkpt lat="46.0512" lon="4.6987">
        <ele>204</ele>
        <time>2018-05-09T09:12:54Z</time>
      </trkpt>
      <trkpt lat="46.0512" lon="4.69864">
        <ele>204</ele>
        <time>2018-05-09T09:12:55Z</time>
      </trkpt>
      <trkpt lat="46.05121" lon="4.69857">
        <ele>204</ele>
        <time>2018-05-09T09:12:56Z</time>
      </trkpt>
      <trkpt lat="46.05124" lon="4.69846">
        <ele>204</ele>
        <time>2018-05-09T09:12:58Z</time>
      </trkpt>
      <trkpt lat="46.05124" lon="4.69839">
        <ele>204</ele>
        <time>2018-05-09T09:12:59Z</time>
      </trkpt>
      <trkpt lat="46.05127" lon="4.69835">
        <ele>204</ele>
        <time>2018-05-09T09:13:00Z</time>
      </trkpt>
      <trkpt lat="46.05131" lon="4.69831">
        <ele>204</ele>
        <time>2018-05-09T09:13:01Z</time>
      </trkpt>
      <trkpt lat="46.05136" lon="4.69829">
        <ele>204</ele>
        <time>2018-05-09T09:13:02Z</time>
      </trkpt>
      <trkpt lat="46.05141" lon="4.69829">
        <ele>204</ele>
        <time>2018-05-09T09:13:03Z</time>
      </trkpt>
      <trkpt lat="46.05147" lon="4.6983">
        <ele>204</ele>
        <time>2018-05-09T09:13:04Z</time>
      </trkpt>
      <trkpt lat="46.05152" lon="4.69831">
        <ele>204</ele>
        <time>2018-05-09T09:13:05Z</time>
      </trkpt>
      <trkpt lat="46.05158" lon="4.69834">
        <ele>203</ele>
        <time>2018-05-09T09:13:06Z</time>
      </trkpt>
      <trkpt lat="46.05163" lon="4.69836">
        <ele>203</ele>
        <time>2018-05-09T09:13:07Z</time>
      </trkpt>
      <trkpt lat="46.05169" lon="4.69838">
        <ele>203</ele>
        <time>2018-05-09T09:13:08Z</time>
      </trkpt>
      <trkpt lat="46.05175" lon="4.6984">
        <ele>202</ele>
        <time>2018-05-09T09:13:09Z</time>
      </trkpt>
      <trkpt lat="46.05181" lon="4.69841">
        <ele>202</ele>
        <time>2018-05-09T09:13:10Z</time>
      </trkpt>
      <trkpt lat="46.05186" lon="4.69843">
        <ele>202</ele>
        <time>2018-05-09T09:13:11Z</time>
      </trkpt>
      <trkpt lat="46.05192" lon="4.69845">
        <ele>202</ele>
        <time>2018-05-09T09:13:12Z</time>
      </trkpt>
      <trkpt lat="46.05199" lon="4.69847">
        <ele>201</ele>
        <time>2018-05-09T09:13:13Z</time>
      </trkpt>
      <trkpt lat="46.05205" lon="4.69849">
        <ele>201</ele>
        <time>2018-05-09T09:13:14Z</time>
      </trkpt>
      <trkpt lat="46.05211" lon="4.6985">
        <ele>201</ele>
        <time>2018-05-09T09:13:15Z</time>
      </trkpt>
      <trkpt lat="46.05218" lon="4.69852">
        <ele>201</ele>
        <time>2018-05-09T09:13:16Z</time>
      </trkpt>
      <trkpt lat="46.05224" lon="4.69854">
        <ele>201</ele>
        <time>2018-05-09T09:13:17Z</time>
      </trkpt>
      <trkpt lat="46.0523" lon="4.69856">
        <ele>201</ele>
        <time>2018-05-09T09:13:18Z</time>
      </trkpt>
      <trkpt lat="46.05237" lon="4.69858">
        <ele>201</ele>
        <time>2018-05-09T09:13:19Z</time>
      </trkpt>
      <trkpt lat="46.05244" lon="4.69861">
        <ele>201</ele>
        <time>2018-05-09T09:13:20Z</time>
      </trkpt>
      <trkpt lat="46.0525" lon="4.69862">
        <ele>199</ele>
        <time>2018-05-09T09:13:21Z</time>
      </trkpt>
      <trkpt lat="46.05257" lon="4.69864">
        <ele>199</ele>
        <time>2018-05-09T09:13:22Z</time>
      </trkpt>
      <trkpt lat="46.05264" lon="4.69866">
        <ele>199</ele>
        <time>2018-05-09T09:13:23Z</time>
      </trkpt>
      <trkpt lat="46.0527" lon="4.69868">
        <ele>199</ele>
        <time>2018-05-09T09:13:24Z</time>
      </trkpt>
      <trkpt lat="46.05278" lon="4.69871">
        <ele>199</ele>
        <time>2018-05-09T09:13:25Z</time>
      </trkpt>
      <trkpt lat="46.05284" lon="4.69872">
        <ele>199</ele>
        <time>2018-05-09T09:13:26Z</time>
      </trkpt>
      <trkpt lat="46.05289" lon="4.69874">
        <ele>199</ele>
        <time>2018-05-09T09:13:27Z</time>
      </trkpt>
      <trkpt lat="46.05296" lon="4.69876">
        <ele>199</ele>
        <time>2018-05-09T09:13:28Z</time>
      </trkpt>
      <trkpt lat="46.05303" lon="4.69877">
        <ele>199</ele>
        <time>2018-05-09T09:13:29Z</time>
      </trkpt>
      <trkpt lat="46.05309" lon="4.69878">
        <ele>199</ele>
        <time>2018-05-09T09:13:30Z</time>
      </trkpt>
      <trkpt lat="46.05315" lon="4.6988">
        <ele>199</ele>
        <time>2018-05-09T09:13:31Z</time>
      </trkpt>
      <trkpt lat="46.05322" lon="4.6988">
        <ele>199</ele>
        <time>2018-05-09T09:13:32Z</time>
      </trkpt>
      <trkpt lat="46.05329" lon="4.69883">
        <ele>199</ele>
        <time>2018-05-09T09:13:33Z</time>
      </trkpt>
      <trkpt lat="46.05335" lon="4.69884">
        <ele>199</ele>
        <time>2018-05-09T09:13:34Z</time>
      </trkpt>
      <trkpt lat="46.05341" lon="4.69885">
        <ele>199</ele>
        <time>2018-05-09T09:13:35Z</time>
      </trkpt>
      <trkpt lat="46.05349" lon="4.69887">
        <ele>199</ele>
        <time>2018-05-09T09:13:36Z</time>
      </trkpt>
      <trkpt lat="46.05354" lon="4.69889">
        <ele>199</ele>
        <time>2018-05-09T09:13:37Z</time>
      </trkpt>
      <trkpt lat="46.05361" lon="4.69892">
        <ele>199</ele>
        <time>2018-05-09T09:13:38Z</time>
      </trkpt>
      <trkpt lat="46.05368" lon="4.69893">
        <ele>199</ele>
        <time>2018-05-09T09:13:39Z</time>
      </trkpt>
      <trkpt lat="46.05374" lon="4.69896">
        <ele>199</ele>
        <time>2018-05-09T09:13:40Z</time>
      </trkpt>
      <trkpt lat="46.0538" lon="4.69898">
        <ele>199</ele>
        <time>2018-05-09T09:13:41Z</time>
      </trkpt>
      <trkpt lat="46.05386" lon="4.69901">
        <ele>199</ele>
        <time>2018-05-09T09:13:42Z</time>
      </trkpt>
      <trkpt lat="46.05394" lon="4.69901">
        <ele>199</ele>
        <time>2018-05-09T09:13:43Z</time>
      </trkpt>
      <trkpt lat="46.05399" lon="4.69903">
        <ele>199</ele>
        <time>2018-05-09T09:13:44Z</time>
      </trkpt>
      <trkpt lat="46.05405" lon="4.69904">
        <ele>199</ele>
        <time>2018-05-09T09:13:45Z</time>
      </trkpt>
      <trkpt lat="46.05411" lon="4.69905">
        <ele>199</ele>
        <time>2018-05-09T09:13:46Z</time>
      </trkpt>
      <trkpt lat="46.05417" lon="4.69904">
        <ele>199</ele>
        <time>2018-05-09T09:13:47Z</time>
      </trkpt>
      <trkpt lat="46.05422" lon="4.69903">
        <ele>199</ele>
        <time>2018-05-09T09:13:48Z</time>
      </trkpt>
      <trkpt lat="46.05427" lon="4.69901">
        <ele>199</ele>
        <time>2018-05-09T09:13:49Z</time>
      </trkpt>
      <trkpt lat="46.05433" lon="4.69899">
        <ele>199</ele>
        <time>2018-05-09T09:13:50Z</time>
      </trkpt>
      <trkpt lat="46.0544" lon="4.69897">
        <ele>199</ele>
        <time>2018-05-09T09:13:51Z</time>
      </trkpt>
      <trkpt lat="46.05445" lon="4.69895">
        <ele>199</ele>
        <time>2018-05-09T09:13:52Z</time>
      </trkpt>
      <trkpt lat="46.05451" lon="4.69892">
        <ele>199</ele>
        <time>2018-05-09T09:13:53Z</time>
      </trkpt>
      <trkpt lat="46.05455" lon="4.6989">
        <ele>199</ele>
        <time>2018-05-09T09:13:54Z</time>
      </trkpt>
      <trkpt lat="46.0546" lon="4.69889">
        <ele>199</ele>
        <time>2018-05-09T09:13:55Z</time>
      </trkpt>
      <trkpt lat="46.05465" lon="4.69887">
        <ele>199</ele>
        <time>2018-05-09T09:13:56Z</time>
      </trkpt>
      <trkpt lat="46.0547" lon="4.69885">
        <ele>199</ele>
        <time>2018-05-09T09:13:57Z</time>
      </trkpt>
      <trkpt lat="46.05474" lon="4.69883">
        <ele>199</ele>
        <time>2018-05-09T09:13:58Z</time>
      </trkpt>
      <trkpt lat="46.0548" lon="4.69882">
        <ele>199</ele>
        <time>2018-05-09T09:13:59Z</time>
      </trkpt>
      <trkpt lat="46.05485" lon="4.6988">
        <ele>199</ele>
        <time>2018-05-09T09:14:00Z</time>
      </trkpt>
      <trkpt lat="46.0549" lon="4.69879">
        <ele>199</ele>
        <time>2018-05-09T09:14:01Z</time>
      </trkpt>
      <trkpt lat="46.05498" lon="4.69876">
        <ele>199</ele>
        <time>2018-05-09T09:14:03Z</time>
      </trkpt>
      <trkpt lat="46.05503" lon="4.69874">
        <ele>199</ele>
        <time>2018-05-09T09:14:04Z</time>
      </trkpt>
      <trkpt lat="46.05507" lon="4.69873">
        <ele>199</ele>
        <time>2018-05-09T09:14:05Z</time>
      </trkpt>
      <trkpt lat="46.05513" lon="4.69873">
        <ele>199</ele>
        <time>2018-05-09T09:14:06Z</time>
      </trkpt>
      <trkpt lat="46.05518" lon="4.69871">
        <ele>199</ele>
        <time>2018-05-09T09:14:07Z</time>
      </trkpt>
      <trkpt lat="46.05523" lon="4.6987">
        <ele>200</ele>
        <time>2018-05-09T09:14:08Z</time>
      </trkpt>
      <trkpt lat="46.05527" lon="4.69869">
        <ele>200</ele>
        <time>2018-05-09T09:14:09Z</time>
      </trkpt>
      <trkpt lat="46.05532" lon="4.69867">
        <ele>200</ele>
        <time>2018-05-09T09:14:10Z</time>
      </trkpt>
      <trkpt lat="46.05538" lon="4.69865">
        <ele>200</ele>
        <time>2018-05-09T09:14:11Z</time>
      </trkpt>
      <trkpt lat="46.05542" lon="4.69864">
        <ele>200</ele>
        <time>2018-05-09T09:14:12Z</time>
      </trkpt>
      <trkpt lat="46.05547" lon="4.69862">
        <ele>200</ele>
        <time>2018-05-09T09:14:13Z</time>
      </trkpt>
      <trkpt lat="46.05551" lon="4.6986">
        <ele>200</ele>
        <time>2018-05-09T09:14:14Z</time>
      </trkpt>
      <trkpt lat="46.05556" lon="4.69858">
        <ele>200</ele>
        <time>2018-05-09T09:14:15Z</time>
      </trkpt>
      <trkpt lat="46.0556" lon="4.69856">
        <ele>200</ele>
        <time>2018-05-09T09:14:16Z</time>
      </trkpt>
      <trkpt lat="46.05568" lon="4.69854">
        <ele>200</ele>
        <time>2018-05-09T09:14:18Z</time>
      </trkpt>
      <trkpt lat="46.05572" lon="4.69857">
        <ele>200</ele>
        <time>2018-05-09T09:14:19Z</time>
      </trkpt>
      <trkpt lat="46.05578" lon="4.69863">
        <ele>200</ele>
        <time>2018-05-09T09:14:21Z</time>
      </trkpt>
      <trkpt lat="46.05581" lon="4.6987">
        <ele>200</ele>
        <time>2018-05-09T09:14:22Z</time>
      </trkpt>
      <trkpt lat="46.05583" lon="4.69876">
        <ele>200</ele>
        <time>2018-05-09T09:14:23Z</time>
      </trkpt>
      <trkpt lat="46.05587" lon="4.69882">
        <ele>201</ele>
        <time>2018-05-09T09:14:24Z</time>
      </trkpt>
      <trkpt lat="46.05589" lon="4.69888">
        <ele>201</ele>
        <time>2018-05-09T09:14:25Z</time>
      </trkpt>
      <trkpt lat="46.05593" lon="4.69894">
        <ele>201</ele>
        <time>2018-05-09T09:14:26Z</time>
      </trkpt>
      <trkpt lat="46.05595" lon="4.699">
        <ele>201</ele>
        <time>2018-05-09T09:14:27Z</time>
      </trkpt>
      <trkpt lat="46.05598" lon="4.69907">
        <ele>201</ele>
        <time>2018-05-09T09:14:28Z</time>
      </trkpt>
      <trkpt lat="46.05601" lon="4.69914">
        <ele>201</ele>
        <time>2018-05-09T09:14:29Z</time>
      </trkpt>
      <trkpt lat="46.05604" lon="4.6992">
        <ele>201</ele>
        <time>2018-05-09T09:14:30Z</time>
      </trkpt>
      <trkpt lat="46.05608" lon="4.69925">
        <ele>201</ele>
        <time>2018-05-09T09:14:31Z</time>
      </trkpt>
      <trkpt lat="46.05611" lon="4.69932">
        <ele>201</ele>
        <time>2018-05-09T09:14:32Z</time>
      </trkpt>
      <trkpt lat="46.05615" lon="4.69939">
        <ele>201</ele>
        <time>2018-05-09T09:14:33Z</time>
      </trkpt>
      <trkpt lat="46.05618" lon="4.69946">
        <ele>201</ele>
        <time>2018-05-09T09:14:34Z</time>
      </trkpt>
      <trkpt lat="46.05621" lon="4.69953">
        <ele>201</ele>
        <time>2018-05-09T09:14:35Z</time>
      </trkpt>
      <trkpt lat="46.05624" lon="4.69959">
        <ele>201</ele>
        <time>2018-05-09T09:14:36Z</time>
      </trkpt>
      <trkpt lat="46.05627" lon="4.69966">
        <ele>201</ele>
        <time>2018-05-09T09:14:37Z</time>
      </trkpt>
      <trkpt lat="46.05631" lon="4.69972">
        <ele>201</ele>
        <time>2018-05-09T09:14:38Z</time>
      </trkpt>
      <trkpt lat="46.05634" lon="4.69978">
        <ele>200</ele>
        <time>2018-05-09T09:14:39Z</time>
      </trkpt>
      <trkpt lat="46.05636" lon="4.69985">
        <ele>200</ele>
        <time>2018-05-09T09:14:40Z</time>
      </trkpt>
      <trkpt lat="46.0564" lon="4.69991">
        <ele>200</ele>
        <time>2018-05-09T09:14:41Z</time>
      </trkpt>
      <trkpt lat="46.05642" lon="4.69997">
        <ele>200</ele>
        <time>2018-05-09T09:14:42Z</time>
      </trkpt>
      <trkpt lat="46.05646" lon="4.70003">
        <ele>200</ele>
        <time>2018-05-09T09:14:43Z</time>
      </trkpt>
      <trkpt lat="46.05649" lon="4.70009">
        <ele>200</ele>
        <time>2018-05-09T09:14:44Z</time>
      </trkpt>
      <trkpt lat="46.05653" lon="4.70016">
        <ele>200</ele>
        <time>2018-05-09T09:14:45Z</time>
      </trkpt>
      <trkpt lat="46.05656" lon="4.70023">
        <ele>200</ele>
        <time>2018-05-09T09:14:46Z</time>
      </trkpt>
      <trkpt lat="46.05658" lon="4.70029">
        <ele>200</ele>
        <time>2018-05-09T09:14:47Z</time>
      </trkpt>
      <trkpt lat="46.05661" lon="4.70036">
        <ele>200</ele>
        <time>2018-05-09T09:14:48Z</time>
      </trkpt>
      <trkpt lat="46.05664" lon="4.70042">
        <ele>200</ele>
        <time>2018-05-09T09:14:49Z</time>
      </trkpt>
      <trkpt lat="46.05669" lon="4.70049">
        <ele>199</ele>
        <time>2018-05-09T09:14:50Z</time>
      </trkpt>
      <trkpt lat="46.05672" lon="4.70055">
        <ele>199</ele>
        <time>2018-05-09T09:14:51Z</time>
      </trkpt>
      <trkpt lat="46.05676" lon="4.70061">
        <ele>199</ele>
        <time>2018-05-09T09:14:52Z</time>
      </trkpt>
      <trkpt lat="46.05679" lon="4.70068">
        <ele>199</ele>
        <time>2018-05-09T09:14:53Z</time>
      </trkpt>
      <trkpt lat="46.05682" lon="4.70076">
        <ele>199</ele>
        <time>2018-05-09T09:14:54Z</time>
      </trkpt>
      <trkpt lat="46.05686" lon="4.70083">
        <ele>199</ele>
        <time>2018-05-09T09:14:55Z</time>
      </trkpt>
      <trkpt lat="46.05689" lon="4.7009">
        <ele>198</ele>
        <time>2018-05-09T09:14:56Z</time>
      </trkpt>
      <trkpt lat="46.05692" lon="4.70098">
        <ele>198</ele>
        <time>2018-05-09T09:14:57Z</time>
      </trkpt>
      <trkpt lat="46.05696" lon="4.70104">
        <ele>198</ele>
        <time>2018-05-09T09:14:58Z</time>
      </trkpt>
      <trkpt lat="46.057" lon="4.70111">
        <ele>198</ele>
        <time>2018-05-09T09:14:59Z</time>
      </trkpt>
      <trkpt lat="46.05704" lon="4.70117">
        <ele>198</ele>
        <time>2018-05-09T09:15:00Z</time>
      </trkpt>
      <trkpt lat="46.05708" lon="4.70123">
        <ele>198</ele>
        <time>2018-05-09T09:15:01Z</time>
      </trkpt>
      <trkpt lat="46.05712" lon="4.7013">
        <ele>198</ele>
        <time>2018-05-09T09:15:02Z</time>
      </trkpt>
      <trkpt lat="46.05716" lon="4.70136">
        <ele>198</ele>
        <time>2018-05-09T09:15:03Z</time>
      </trkpt>
      <trkpt lat="46.05719" lon="4.70143">
        <ele>198</ele>
        <time>2018-05-09T09:15:04Z</time>
      </trkpt>
      <trkpt lat="46.05723" lon="4.70151">
        <ele>198</ele>
        <time>2018-05-09T09:15:05Z</time>
      </trkpt>
      <trkpt lat="46.05726" lon="4.70157">
        <ele>198</ele>
        <time>2018-05-09T09:15:06Z</time>
      </trkpt>
      <trkpt lat="46.0573" lon="4.70165">
        <ele>199</ele>
        <time>2018-05-09T09:15:07Z</time>
      </trkpt>
      <trkpt lat="46.05734" lon="4.70172">
        <ele>198</ele>
        <time>2018-05-09T09:15:08Z</time>
      </trkpt>
      <trkpt lat="46.05738" lon="4.7018">
        <ele>198</ele>
        <time>2018-05-09T09:15:09Z</time>
      </trkpt>
      <trkpt lat="46.05742" lon="4.70187">
        <ele>198</ele>
        <time>2018-05-09T09:15:10Z</time>
      </trkpt>
      <trkpt lat="46.05747" lon="4.70194">
        <ele>198</ele>
        <time>2018-05-09T09:15:11Z</time>
      </trkpt>
      <trkpt lat="46.0575" lon="4.70202">
        <ele>198</ele>
        <time>2018-05-09T09:15:12Z</time>
      </trkpt>
      <trkpt lat="46.05755" lon="4.70208">
        <ele>198</ele>
        <time>2018-05-09T09:15:13Z</time>
      </trkpt>
      <trkpt lat="46.05759" lon="4.70215">
        <ele>198</ele>
        <time>2018-05-09T09:15:14Z</time>
      </trkpt>
      <trkpt lat="46.05764" lon="4.70223">
        <ele>198</ele>
        <time>2018-05-09T09:15:15Z</time>
      </trkpt>
      <trkpt lat="46.05768" lon="4.70231">
        <ele>198</ele>
        <time>2018-05-09T09:15:16Z</time>
      </trkpt>
      <trkpt lat="46.05771" lon="4.70238">
        <ele>198</ele>
        <time>2018-05-09T09:15:17Z</time>
      </trkpt>
      <trkpt lat="46.05776" lon="4.70244">
        <ele>198</ele>
        <time>2018-05-09T09:15:18Z</time>
      </trkpt>
      <trkpt lat="46.05781" lon="4.70251">
        <ele>198</ele>
        <time>2018-05-09T09:15:19Z</time>
      </trkpt>
      <trkpt lat="46.05784" lon="4.70257">
        <ele>198</ele>
        <time>2018-05-09T09:15:20Z</time>
      </trkpt>
      <trkpt lat="46.05788" lon="4.70263">
        <ele>198</ele>
        <time>2018-05-09T09:15:21Z</time>
      </trkpt>
      <trkpt lat="46.05792" lon="4.70269">
        <ele>198</ele>
        <time>2018-05-09T09:15:22Z</time>
      </trkpt>
      <trkpt lat="46.05796" lon="4.70275">
        <ele>197</ele>
        <time>2018-05-09T09:15:23Z</time>
      </trkpt>
      <trkpt lat="46.058" lon="4.70282">
        <ele>197</ele>
        <time>2018-05-09T09:15:24Z</time>
      </trkpt>
      <trkpt lat="46.05804" lon="4.70289">
        <ele>197</ele>
        <time>2018-05-09T09:15:25Z</time>
      </trkpt>
      <trkpt lat="46.0581" lon="4.70296">
        <ele>197</ele>
        <time>2018-05-09T09:15:26Z</time>
      </trkpt>
      <trkpt lat="46.05814" lon="4.70303">
        <ele>197</ele>
        <time>2018-05-09T09:15:27Z</time>
      </trkpt>
      <trkpt lat="46.05818" lon="4.70309">
        <ele>197</ele>
        <time>2018-05-09T09:15:28Z</time>
      </trkpt>
      <trkpt lat="46.05824" lon="4.70316">
        <ele>197</ele>
        <time>2018-05-09T09:15:29Z</time>
      </trkpt>
      <trkpt lat="46.05829" lon="4.70322">
        <ele>197</ele>
        <time>2018-05-09T09:15:30Z</time>
      </trkpt>
      <trkpt lat="46.05833" lon="4.70328">
        <ele>197</ele>
        <time>2018-05-09T09:15:31Z</time>
      </trkpt>
      <trkpt lat="46.05837" lon="4.70334">
        <ele>197</ele>
        <time>2018-05-09T09:15:32Z</time>
      </trkpt>
      <trkpt lat="46.05842" lon="4.70342">
        <ele>197</ele>
        <time>2018-05-09T09:15:33Z</time>
      </trkpt>
      <trkpt lat="46.05847" lon="4.70348">
        <ele>196</ele>
        <time>2018-05-09T09:15:34Z</time>
      </trkpt>
      <trkpt lat="46.05852" lon="4.70355">
        <ele>196</ele>
        <time>2018-05-09T09:15:35Z</time>
      </trkpt>
      <trkpt lat="46.05855" lon="4.70362">
        <ele>196</ele>
        <time>2018-05-09T09:15:36Z</time>
      </trkpt>
      <trkpt lat="46.05859" lon="4.70368">
        <ele>196</ele>
        <time>2018-05-09T09:15:37Z</time>
      </trkpt>
      <trkpt lat="46.05863" lon="4.70375">
        <ele>196</ele>
        <time>2018-05-09T09:15:38Z</time>
      </trkpt>
      <trkpt lat="46.05868" lon="4.70381">
        <ele>196</ele>
        <time>2018-05-09T09:15:39Z</time>
      </trkpt>
      <trkpt lat="46.05872" lon="4.70388">
        <ele>196</ele>
        <time>2018-05-09T09:15:40Z</time>
      </trkpt>
      <trkpt lat="46.05876" lon="4.70396">
        <ele>196</ele>
        <time>2018-05-09T09:15:41Z</time>
      </trkpt>
      <trkpt lat="46.05881" lon="4.70402">
        <ele>196</ele>
        <time>2018-05-09T09:15:42Z</time>
      </trkpt>
      <trkpt lat="46.05886" lon="4.70408">
        <ele>196</ele>
        <time>2018-05-09T09:15:43Z</time>
      </trkpt>
      <trkpt lat="46.0589" lon="4.70416">
        <ele>196</ele>
        <time>2018-05-09T09:15:44Z</time>
      </trkpt>
      <trkpt lat="46.05894" lon="4.70423">
        <ele>195</ele>
        <time>2018-05-09T09:15:45Z</time>
      </trkpt>
      <trkpt lat="46.05897" lon="4.70431">
        <ele>195</ele>
        <time>2018-05-09T09:15:46Z</time>
      </trkpt>
      <trkpt lat="46.05902" lon="4.70438">
        <ele>195</ele>
        <time>2018-05-09T09:15:47Z</time>
      </trkpt>
      <trkpt lat="46.05906" lon="4.70445">
        <ele>195</ele>
        <time>2018-05-09T09:15:48Z</time>
      </trkpt>
      <trkpt lat="46.0591" lon="4.70452">
        <ele>195</ele>
        <time>2018-05-09T09:15:49Z</time>
      </trkpt>
      <trkpt lat="46.05914" lon="4.70459">
        <ele>195</ele>
        <time>2018-05-09T09:15:50Z</time>
      </trkpt>
      <trkpt lat="46.05916" lon="4.70467">
        <ele>195</ele>
        <time>2018-05-09T09:15:51Z</time>
      </trkpt>
      <trkpt lat="46.0592" lon="4.70476">
        <ele>195</ele>
        <time>2018-05-09T09:15:52Z</time>
      </trkpt>
      <trkpt lat="46.05923" lon="4.70484">
        <ele>195</ele>
        <time>2018-05-09T09:15:53Z</time>
      </trkpt>
      <trkpt lat="46.05924" lon="4.70492">
        <ele>196</ele>
        <time>2018-05-09T09:15:54Z</time>
      </trkpt>
      <trkpt lat="46.05926" lon="4.70499">
        <ele>196</ele>
        <time>2018-05-09T09:15:55Z</time>
      </trkpt>
      <trkpt lat="46.05927" lon="4.70507">
        <ele>195</ele>
        <time>2018-05-09T09:15:56Z</time>
      </trkpt>
      <trkpt lat="46.05928" lon="4.70515">
        <ele>195</ele>
        <time>2018-05-09T09:15:57Z</time>
      </trkpt>
      <trkpt lat="46.05927" lon="4.70523">
        <ele>195</ele>
        <time>2018-05-09T09:15:58Z</time>
      </trkpt>
      <trkpt lat="46.05925" lon="4.70531">
        <ele>195</ele>
        <time>2018-05-09T09:15:59Z</time>
      </trkpt>
      <trkpt lat="46.05923" lon="4.7054">
        <ele>195</ele>
        <time>2018-05-09T09:16:00Z</time>
      </trkpt>
      <trkpt lat="46.05919" lon="4.70546">
        <ele>195</ele>
        <time>2018-05-09T09:16:01Z</time>
      </trkpt>
      <trkpt lat="46.05917" lon="4.70555">
        <ele>195</ele>
        <time>2018-05-09T09:16:02Z</time>
      </trkpt>
      <trkpt lat="46.05915" lon="4.70562">
        <ele>195</ele>
        <time>2018-05-09T09:16:03Z</time>
      </trkpt>
      <trkpt lat="46.05912" lon="4.70571">
        <ele>195</ele>
        <time>2018-05-09T09:16:04Z</time>
      </trkpt>
      <trkpt lat="46.0591" lon="4.7058">
        <ele>195</ele>
        <time>2018-05-09T09:16:05Z</time>
      </trkpt>
      <trkpt lat="46.05909" lon="4.70589">
        <ele>195</ele>
        <time>2018-05-09T09:16:06Z</time>
      </trkpt>
      <trkpt lat="46.05908" lon="4.70599">
        <ele>194</ele>
        <time>2018-05-09T09:16:07Z</time>
      </trkpt>
      <trkpt lat="46.05907" lon="4.70609">
        <ele>194</ele>
        <time>2018-05-09T09:16:08Z</time>
      </trkpt>
      <trkpt lat="46.05906" lon="4.70617">
        <ele>194</ele>
        <time>2018-05-09T09:16:09Z</time>
      </trkpt>
      <trkpt lat="46.05905" lon="4.70627">
        <ele>194</ele>
        <time>2018-05-09T09:16:10Z</time>
      </trkpt>
      <trkpt lat="46.05904" lon="4.70636">
        <ele>194</ele>
        <time>2018-05-09T09:16:11Z</time>
      </trkpt>
      <trkpt lat="46.05903" lon="4.70646">
        <ele>194</ele>
        <time>2018-05-09T09:16:12Z</time>
      </trkpt>
      <trkpt lat="46.05902" lon="4.70655">
        <ele>194</ele>
        <time>2018-05-09T09:16:13Z</time>
      </trkpt>
      <trkpt lat="46.05902" lon="4.70664">
        <ele>194</ele>
        <time>2018-05-09T09:16:14Z</time>
      </trkpt>
      <trkpt lat="46.05902" lon="4.70674">
        <ele>194</ele>
        <time>2018-05-09T09:16:15Z</time>
      </trkpt>
      <trkpt lat="46.05903" lon="4.70684">
        <ele>194</ele>
        <time>2018-05-09T09:16:16Z</time>
      </trkpt>
      <trkpt lat="46.05904" lon="4.70694">
        <ele>194</ele>
        <time>2018-05-09T09:16:17Z</time>
      </trkpt>
      <trkpt lat="46.05907" lon="4.70704">
        <ele>194</ele>
        <time>2018-05-09T09:16:18Z</time>
      </trkpt>
      <trkpt lat="46.05909" lon="4.70714">
        <ele>194</ele>
        <time>2018-05-09T09:16:19Z</time>
      </trkpt>
      <trkpt lat="46.0591" lon="4.70724">
        <ele>194</ele>
        <time>2018-05-09T09:16:20Z</time>
      </trkpt>
      <trkpt lat="46.05912" lon="4.70733">
        <ele>194</ele>
        <time>2018-05-09T09:16:21Z</time>
      </trkpt>
      <trkpt lat="46.05913" lon="4.70743">
        <ele>194</ele>
        <time>2018-05-09T09:16:22Z</time>
      </trkpt>
      <trkpt lat="46.05915" lon="4.70753">
        <ele>194</ele>
        <time>2018-05-09T09:16:23Z</time>
      </trkpt>
      <trkpt lat="46.05916" lon="4.70763">
        <ele>194</ele>
        <time>2018-05-09T09:16:24Z</time>
      </trkpt>
      <trkpt lat="46.05918" lon="4.70772">
        <ele>194</ele>
        <time>2018-05-09T09:16:25Z</time>
      </trkpt>
      <trkpt lat="46.05921" lon="4.70781">
        <ele>194</ele>
        <time>2018-05-09T09:16:26Z</time>
      </trkpt>
      <trkpt lat="46.05922" lon="4.70791">
        <ele>194</ele>
        <time>2018-05-09T09:16:27Z</time>
      </trkpt>
      <trkpt lat="46.05923" lon="4.70801">
        <ele>194</ele>
        <time>2018-05-09T09:16:28Z</time>
      </trkpt>
      <trkpt lat="46.05924" lon="4.7081">
        <ele>194</ele>
        <time>2018-05-09T09:16:29Z</time>
      </trkpt>
      <trkpt lat="46.05925" lon="4.70819">
        <ele>194</ele>
        <time>2018-05-09T09:16:30Z</time>
      </trkpt>
      <trkpt lat="46.05926" lon="4.70829">
        <ele>195</ele>
        <time>2018-05-09T09:16:31Z</time>
      </trkpt>
      <trkpt lat="46.05926" lon="4.7084">
        <ele>194</ele>
        <time>2018-05-09T09:16:32Z</time>
      </trkpt>
      <trkpt lat="46.05926" lon="4.7085">
        <ele>194</ele>
        <time>2018-05-09T09:16:33Z</time>
      </trkpt>
      <trkpt lat="46.05927" lon="4.7086">
        <ele>194</ele>
        <time>2018-05-09T09:16:34Z</time>
      </trkpt>
      <trkpt lat="46.05928" lon="4.7087">
        <ele>194</ele>
        <time>2018-05-09T09:16:35Z</time>
      </trkpt>
      <trkpt lat="46.05929" lon="4.7088">
        <ele>194</ele>
        <time>2018-05-09T09:16:36Z</time>
      </trkpt>
      <trkpt lat="46.0593" lon="4.70891">
        <ele>194</ele>
        <time>2018-05-09T09:16:37Z</time>
      </trkpt>
      <trkpt lat="46.05931" lon="4.70901">
        <ele>194</ele>
        <time>2018-05-09T09:16:38Z</time>
      </trkpt>
      <trkpt lat="46.05932" lon="4.7091">
        <ele>194</ele>
        <time>2018-05-09T09:16:39Z</time>
      </trkpt>
      <trkpt lat="46.05933" lon="4.70921">
        <ele>194</ele>
        <time>2018-05-09T09:16:40Z</time>
      </trkpt>
      <trkpt lat="46.05935" lon="4.70932">
        <ele>194</ele>
        <time>2018-05-09T09:16:41Z</time>
      </trkpt>
      <trkpt lat="46.05937" lon="4.70942">
        <ele>194</ele>
        <time>2018-05-09T09:16:42Z</time>
      </trkpt>
      <trkpt lat="46.05939" lon="4.70952">
        <ele>193</ele>
        <time>2018-05-09T09:16:43Z</time>
      </trkpt>
      <trkpt lat="46.05943" lon="4.70962">
        <ele>193</ele>
        <time>2018-05-09T09:16:44Z</time>
      </trkpt>
      <trkpt lat="46.05946" lon="4.70972">
        <ele>193</ele>
        <time>2018-05-09T09:16:45Z</time>
      </trkpt>
      <trkpt lat="46.05949" lon="4.70982">
        <ele>193</ele>
        <time>2018-05-09T09:16:46Z</time>
      </trkpt>
      <trkpt lat="46.05952" lon="4.70992">
        <ele>193</ele>
        <time>2018-05-09T09:16:47Z</time>
      </trkpt>
      <trkpt lat="46.05956" lon="4.71001">
        <ele>193</ele>
        <time>2018-05-09T09:16:48Z</time>
      </trkpt>
      <trkpt lat="46.05959" lon="4.71009">
        <ele>193</ele>
        <time>2018-05-09T09:16:49Z</time>
      </trkpt>
      <trkpt lat="46.05962" lon="4.71018">
        <ele>193</ele>
        <time>2018-05-09T09:16:50Z</time>
      </trkpt>
      <trkpt lat="46.05965" lon="4.71027">
        <ele>193</ele>
        <time>2018-05-09T09:16:51Z</time>
      </trkpt>
      <trkpt lat="46.0597" lon="4.71036">
        <ele>193</ele>
        <time>2018-05-09T09:16:52Z</time>
      </trkpt>
      <trkpt lat="46.05974" lon="4.71045">
        <ele>193</ele>
        <time>2018-05-09T09:16:53Z</time>
      </trkpt>
      <trkpt lat="46.05978" lon="4.71054">
        <ele>193</ele>
        <time>2018-05-09T09:16:54Z</time>
      </trkpt>
      <trkpt lat="46.05982" lon="4.71063">
        <ele>193</ele>
        <time>2018-05-09T09:16:55Z</time>
      </trkpt>
      <trkpt lat="46.05986" lon="4.7107">
        <ele>193</ele>
        <time>2018-05-09T09:16:56Z</time>
      </trkpt>
      <trkpt lat="46.05989" lon="4.71078">
        <ele>193</ele>
        <time>2018-05-09T09:16:57Z</time>
      </trkpt>
      <trkpt lat="46.05991" lon="4.71085">
        <ele>193</ele>
        <time>2018-05-09T09:16:58Z</time>
      </trkpt>
      <trkpt lat="46.05996" lon="4.71094">
        <ele>193</ele>
        <time>2018-05-09T09:16:59Z</time>
      </trkpt>
      <trkpt lat="46.05999" lon="4.71103">
        <ele>193</ele>
        <time>2018-05-09T09:17:00Z</time>
      </trkpt>
      <trkpt lat="46.06002" lon="4.71111">
        <ele>193</ele>
        <time>2018-05-09T09:17:01Z</time>
      </trkpt>
      <trkpt lat="46.06006" lon="4.71118">
        <ele>193</ele>
        <time>2018-05-09T09:17:02Z</time>
      </trkpt>
      <trkpt lat="46.06009" lon="4.71126">
        <ele>193</ele>
        <time>2018-05-09T09:17:03Z</time>
      </trkpt>
      <trkpt lat="46.06012" lon="4.71135">
        <ele>193</ele>
        <time>2018-05-09T09:17:04Z</time>
      </trkpt>
      <trkpt lat="46.06015" lon="4.71145">
        <ele>193</ele>
        <time>2018-05-09T09:17:05Z</time>
      </trkpt>
      <trkpt lat="46.06017" lon="4.71154">
        <ele>194</ele>
        <time>2018-05-09T09:17:06Z</time>
      </trkpt>
      <trkpt lat="46.0602" lon="4.71162">
        <ele>194</ele>
        <time>2018-05-09T09:17:07Z</time>
      </trkpt>
      <trkpt lat="46.06024" lon="4.71171">
        <ele>194</ele>
        <time>2018-05-09T09:17:08Z</time>
      </trkpt>
      <trkpt lat="46.06027" lon="4.71178">
        <ele>193</ele>
        <time>2018-05-09T09:17:09Z</time>
      </trkpt>
      <trkpt lat="46.0603" lon="4.71187">
        <ele>193</ele>
        <time>2018-05-09T09:17:10Z</time>
      </trkpt>
      <trkpt lat="46.06034" lon="4.71195">
        <ele>193</ele>
        <time>2018-05-09T09:17:11Z</time>
      </trkpt>
      <trkpt lat="46.06037" lon="4.71204">
        <ele>193</ele>
        <time>2018-05-09T09:17:12Z</time>
      </trkpt>
      <trkpt lat="46.06041" lon="4.71212">
        <ele>193</ele>
        <time>2018-05-09T09:17:13Z</time>
      </trkpt>
      <trkpt lat="46.06044" lon="4.7122">
        <ele>193</ele>
        <time>2018-05-09T09:17:14Z</time>
      </trkpt>
      <trkpt lat="46.06048" lon="4.71229">
        <ele>193</ele>
        <time>2018-05-09T09:17:15Z</time>
      </trkpt>
      <trkpt lat="46.06051" lon="4.7124">
        <ele>193</ele>
        <time>2018-05-09T09:17:16Z</time>
      </trkpt>
      <trkpt lat="46.06054" lon="4.71248">
        <ele>193</ele>
        <time>2018-05-09T09:17:17Z</time>
      </trkpt>
      <trkpt lat="46.06057" lon="4.71257">
        <ele>193</ele>
        <time>2018-05-09T09:17:18Z</time>
      </trkpt>
      <trkpt lat="46.0606" lon="4.71266">
        <ele>193</ele>
        <time>2018-05-09T09:17:19Z</time>
      </trkpt>
      <trkpt lat="46.06063" lon="4.71275">
        <ele>193</ele>
        <time>2018-05-09T09:17:20Z</time>
      </trkpt>
      <trkpt lat="46.06066" lon="4.71283">
        <ele>193</ele>
        <time>2018-05-09T09:17:21Z</time>
      </trkpt>
      <trkpt lat="46.06069" lon="4.71292">
        <ele>193</ele>
        <time>2018-05-09T09:17:22Z</time>
      </trkpt>
      <trkpt lat="46.06072" lon="4.713">
        <ele>193</ele>
        <time>2018-05-09T09:17:23Z</time>
      </trkpt>
      <trkpt lat="46.06075" lon="4.71309">
        <ele>193</ele>
        <time>2018-05-09T09:17:24Z</time>
      </trkpt>
      <trkpt lat="46.06078" lon="4.71317">
        <ele>193</ele>
        <time>2018-05-09T09:17:25Z</time>
      </trkpt>
      <trkpt lat="46.06081" lon="4.71325">
        <ele>193</ele>
        <time>2018-05-09T09:17:26Z</time>
      </trkpt>
      <trkpt lat="46.06084" lon="4.71333">
        <ele>193</ele>
        <time>2018-05-09T09:17:27Z</time>
      </trkpt>
      <trkpt lat="46.06087" lon="4.71342">
        <ele>193</ele>
        <time>2018-05-09T09:17:28Z</time>
      </trkpt>
      <trkpt lat="46.0609" lon="4.71351">
        <ele>193</ele>
        <time>2018-05-09T09:17:29Z</time>
      </trkpt>
      <trkpt lat="46.06093" lon="4.71359">
        <ele>193</ele>
        <time>2018-05-09T09:17:30Z</time>
      </trkpt>
      <trkpt lat="46.06096" lon="4.71368">
        <ele>193</ele>
        <time>2018-05-09T09:17:31Z</time>
      </trkpt>
      <trkpt lat="46.06098" lon="4.71377">
        <ele>193</ele>
        <time>2018-05-09T09:17:32Z</time>
      </trkpt>
      <trkpt lat="46.06099" lon="4.71386">
        <ele>193</ele>
        <time>2018-05-09T09:17:33Z</time>
      </trkpt>
      <trkpt lat="46.06103" lon="4.71393">
        <ele>193</ele>
        <time>2018-05-09T09:17:34Z</time>
      </trkpt>
      <trkpt lat="46.06105" lon="4.71402">
        <ele>193</ele>
        <time>2018-05-09T09:17:35Z</time>
      </trkpt>
      <trkpt lat="46.06108" lon="4.7141">
        <ele>193</ele>
        <time>2018-05-09T09:17:36Z</time>
      </trkpt>
      <trkpt lat="46.0611" lon="4.71419">
        <ele>193</ele>
        <time>2018-05-09T09:17:37Z</time>
      </trkpt>
      <trkpt lat="46.06113" lon="4.71428">
        <ele>193</ele>
        <time>2018-05-09T09:17:38Z</time>
      </trkpt>
      <trkpt lat="46.06115" lon="4.71437">
        <ele>193</ele>
        <time>2018-05-09T09:17:39Z</time>
      </trkpt>
      <trkpt lat="46.06117" lon="4.71447">
        <ele>193</ele>
        <time>2018-05-09T09:17:40Z</time>
      </trkpt>
      <trkpt lat="46.0612" lon="4.71455">
        <ele>193</ele>
        <time>2018-05-09T09:17:41Z</time>
      </trkpt>
      <trkpt lat="46.06122" lon="4.71464">
        <ele>193</ele>
        <time>2018-05-09T09:17:42Z</time>
      </trkpt>
      <trkpt lat="46.06124" lon="4.71473">
        <ele>193</ele>
        <time>2018-05-09T09:17:43Z</time>
      </trkpt>
      <trkpt lat="46.06127" lon="4.71482">
        <ele>192</ele>
        <time>2018-05-09T09:17:44Z</time>
      </trkpt>
      <trkpt lat="46.0613" lon="4.71492">
        <ele>192</ele>
        <time>2018-05-09T09:17:45Z</time>
      </trkpt>
      <trkpt lat="46.06134" lon="4.71501">
        <ele>192</ele>
        <time>2018-05-09T09:17:46Z</time>
      </trkpt>
      <trkpt lat="46.06137" lon="4.7151">
        <ele>192</ele>
        <time>2018-05-09T09:17:47Z</time>
      </trkpt>
      <trkpt lat="46.06141" lon="4.71518">
        <ele>192</ele>
        <time>2018-05-09T09:17:48Z</time>
      </trkpt>
      <trkpt lat="46.06146" lon="4.71528">
        <ele>192</ele>
        <time>2018-05-09T09:17:49Z</time>
      </trkpt>
      <trkpt lat="46.06151" lon="4.71536">
        <ele>192</ele>
        <time>2018-05-09T09:17:50Z</time>
      </trkpt>
      <trkpt lat="46.06156" lon="4.71543">
        <ele>192</ele>
        <time>2018-05-09T09:17:51Z</time>
      </trkpt>
      <trkpt lat="46.06162" lon="4.7155">
        <ele>192</ele>
        <time>2018-05-09T09:17:52Z</time>
      </trkpt>
      <trkpt lat="46.06167" lon="4.71557">
        <ele>191</ele>
        <time>2018-05-09T09:17:53Z</time>
      </trkpt>
      <trkpt lat="46.06172" lon="4.71563">
        <ele>191</ele>
        <time>2018-05-09T09:17:54Z</time>
      </trkpt>
      <trkpt lat="46.06177" lon="4.7157">
        <ele>191</ele>
        <time>2018-05-09T09:17:55Z</time>
      </trkpt>
      <trkpt lat="46.06182" lon="4.71577">
        <ele>191</ele>
        <time>2018-05-09T09:17:56Z</time>
      </trkpt>
      <trkpt lat="46.06186" lon="4.71584">
        <ele>191</ele>
        <time>2018-05-09T09:17:57Z</time>
      </trkpt>
      <trkpt lat="46.0619" lon="4.71591">
        <ele>191</ele>
        <time>2018-05-09T09:17:58Z</time>
      </trkpt>
      <trkpt lat="46.06195" lon="4.71598">
        <ele>191</ele>
        <time>2018-05-09T09:17:59Z</time>
      </trkpt>
      <trkpt lat="46.06199" lon="4.71605">
        <ele>191</ele>
        <time>2018-05-09T09:18:00Z</time>
      </trkpt>
      <trkpt lat="46.06203" lon="4.71613">
        <ele>191</ele>
        <time>2018-05-09T09:18:01Z</time>
      </trkpt>
      <trkpt lat="46.06207" lon="4.71621">
        <ele>191</ele>
        <time>2018-05-09T09:18:02Z</time>
      </trkpt>
      <trkpt lat="46.0621" lon="4.71628">
        <ele>191</ele>
        <time>2018-05-09T09:18:03Z</time>
      </trkpt>
      <trkpt lat="46.06216" lon="4.71635">
        <ele>191</ele>
        <time>2018-05-09T09:18:04Z</time>
      </trkpt>
      <trkpt lat="46.06221" lon="4.71643">
        <ele>191</ele>
        <time>2018-05-09T09:18:05Z</time>
      </trkpt>
      <trkpt lat="46.06225" lon="4.71649">
        <ele>191</ele>
        <time>2018-05-09T09:18:06Z</time>
      </trkpt>
      <trkpt lat="46.06229" lon="4.71656">
        <ele>191</ele>
        <time>2018-05-09T09:18:07Z</time>
      </trkpt>
      <trkpt lat="46.06232" lon="4.71664">
        <ele>191</ele>
        <time>2018-05-09T09:18:08Z</time>
      </trkpt>
      <trkpt lat="46.06236" lon="4.7167">
        <ele>191</ele>
        <time>2018-05-09T09:18:09Z</time>
      </trkpt>
      <trkpt lat="46.06239" lon="4.71679">
        <ele>191</ele>
        <time>2018-05-09T09:18:10Z</time>
      </trkpt>
      <trkpt lat="46.06243" lon="4.71687">
        <ele>191</ele>
        <time>2018-05-09T09:18:11Z</time>
      </trkpt>
      <trkpt lat="46.06248" lon="4.71694">
        <ele>191</ele>
        <time>2018-05-09T09:18:12Z</time>
      </trkpt>
      <trkpt lat="46.0625" lon="4.71703">
        <ele>190</ele>
        <time>2018-05-09T09:18:13Z</time>
      </trkpt>
      <trkpt lat="46.06253" lon="4.71713">
        <ele>190</ele>
        <time>2018-05-09T09:18:14Z</time>
      </trkpt>
      <trkpt lat="46.06256" lon="4.71723">
        <ele>190</ele>
        <time>2018-05-09T09:18:15Z</time>
      </trkpt>
      <trkpt lat="46.06259" lon="4.71731">
        <ele>190</ele>
        <time>2018-05-09T09:18:16Z</time>
      </trkpt>
      <trkpt lat="46.06262" lon="4.7174">
        <ele>190</ele>
        <time>2018-05-09T09:18:17Z</time>
      </trkpt>
      <trkpt lat="46.06265" lon="4.71747">
        <ele>190</ele>
        <time>2018-05-09T09:18:18Z</time>
      </trkpt>
      <trkpt lat="46.06269" lon="4.71755">
        <ele>190</ele>
        <time>2018-05-09T09:18:19Z</time>
      </trkpt>
      <trkpt lat="46.06272" lon="4.71763">
        <ele>190</ele>
        <time>2018-05-09T09:18:20Z</time>
      </trkpt>
      <trkpt lat="46.06273" lon="4.71772">
        <ele>190</ele>
        <time>2018-05-09T09:18:21Z</time>
      </trkpt>
      <trkpt lat="46.06275" lon="4.71781">
        <ele>190</ele>
        <time>2018-05-09T09:18:22Z</time>
      </trkpt>
      <trkpt lat="46.06277" lon="4.7179">
        <ele>190</ele>
        <time>2018-05-09T09:18:23Z</time>
      </trkpt>
      <trkpt lat="46.0628" lon="4.718">
        <ele>190</ele>
        <time>2018-05-09T09:18:24Z</time>
      </trkpt>
      <trkpt lat="46.06282" lon="4.71809">
        <ele>190</ele>
        <time>2018-05-09T09:18:25Z</time>
      </trkpt>
      <trkpt lat="46.06285" lon="4.71818">
        <ele>189</ele>
        <time>2018-05-09T09:18:26Z</time>
      </trkpt>
      <trkpt lat="46.06287" lon="4.71827">
        <ele>189</ele>
        <time>2018-05-09T09:18:27Z</time>
      </trkpt>
      <trkpt lat="46.0629" lon="4.71837">
        <ele>189</ele>
        <time>2018-05-09T09:18:28Z</time>
      </trkpt>
      <trkpt lat="46.06292" lon="4.71848">
        <ele>189</ele>
        <time>2018-05-09T09:18:29Z</time>
      </trkpt>
      <trkpt lat="46.06293" lon="4.7186">
        <ele>189</ele>
        <time>2018-05-09T09:18:30Z</time>
      </trkpt>
      <trkpt lat="46.06295" lon="4.71871">
        <ele>189</ele>
        <time>2018-05-09T09:18:31Z</time>
      </trkpt>
      <trkpt lat="46.06297" lon="4.71882">
        <ele>189</ele>
        <time>2018-05-09T09:18:32Z</time>
      </trkpt>
      <trkpt lat="46.06301" lon="4.7189">
        <ele>189</ele>
        <time>2018-05-09T09:18:33Z</time>
      </trkpt>
      <trkpt lat="46.06303" lon="4.71898">
        <ele>189</ele>
        <time>2018-05-09T09:18:34Z</time>
      </trkpt>
      <trkpt lat="46.06306" lon="4.71907">
        <ele>189</ele>
        <time>2018-05-09T09:18:35Z</time>
      </trkpt>
      <trkpt lat="46.06308" lon="4.71915">
        <ele>189</ele>
        <time>2018-05-09T09:18:36Z</time>
      </trkpt>
      <trkpt lat="46.06314" lon="4.71926">
        <ele>190</ele>
        <time>2018-05-09T09:18:37Z</time>
      </trkpt>
      <trkpt lat="46.06316" lon="4.71934">
        <ele>190</ele>
        <time>2018-05-09T09:18:38Z</time>
      </trkpt>
      <trkpt lat="46.06317" lon="4.71942">
        <ele>190</ele>
        <time>2018-05-09T09:18:39Z</time>
      </trkpt>
      <trkpt lat="46.0632" lon="4.71949">
        <ele>190</ele>
        <time>2018-05-09T09:18:40Z</time>
      </trkpt>
      <trkpt lat="46.06322" lon="4.71956">
        <ele>190</ele>
        <time>2018-05-09T09:18:41Z</time>
      </trkpt>
      <trkpt lat="46.06323" lon="4.71962">
        <ele>190</ele>
        <time>2018-05-09T09:18:42Z</time>
      </trkpt>
      <trkpt lat="46.06326" lon="4.7197">
        <ele>190</ele>
        <time>2018-05-09T09:18:43Z</time>
      </trkpt>
      <trkpt lat="46.0633" lon="4.71981">
        <ele>190</ele>
        <time>2018-05-09T09:18:45Z</time>
      </trkpt>
      <trkpt lat="46.06331" lon="4.71989">
        <ele>189</ele>
        <time>2018-05-09T09:18:46Z</time>
      </trkpt>
      <trkpt lat="46.06334" lon="4.71996">
        <ele>189</ele>
        <time>2018-05-09T09:18:47Z</time>
      </trkpt>
      <trkpt lat="46.06337" lon="4.72004">
        <ele>189</ele>
        <time>2018-05-09T09:18:48Z</time>
      </trkpt>
      <trkpt lat="46.06339" lon="4.72013">
        <ele>189</ele>
        <time>2018-05-09T09:18:49Z</time>
      </trkpt>
      <trkpt lat="46.06342" lon="4.72021">
        <ele>189</ele>
        <time>2018-05-09T09:18:50Z</time>
      </trkpt>
      <trkpt lat="46.06345" lon="4.72029">
        <ele>189</ele>
        <time>2018-05-09T09:18:51Z</time>
      </trkpt>
      <trkpt lat="46.06346" lon="4.72038">
        <ele>189</ele>
        <time>2018-05-09T09:18:52Z</time>
      </trkpt>
      <trkpt lat="46.06349" lon="4.72047">
        <ele>189</ele>
        <time>2018-05-09T09:18:53Z</time>
      </trkpt>
      <trkpt lat="46.06351" lon="4.72055">
        <ele>189</ele>
        <time>2018-05-09T09:18:54Z</time>
      </trkpt>
      <trkpt lat="46.06354" lon="4.72063">
        <ele>189</ele>
        <time>2018-05-09T09:18:55Z</time>
      </trkpt>
      <trkpt lat="46.06356" lon="4.72071">
        <ele>189</ele>
        <time>2018-05-09T09:18:56Z</time>
      </trkpt>
      <trkpt lat="46.06358" lon="4.7208">
        <ele>189</ele>
        <time>2018-05-09T09:18:57Z</time>
      </trkpt>
      <trkpt lat="46.0636" lon="4.72088">
        <ele>189</ele>
        <time>2018-05-09T09:18:58Z</time>
      </trkpt>
      <trkpt lat="46.06362" lon="4.72096">
        <ele>189</ele>
        <time>2018-05-09T09:18:59Z</time>
      </trkpt>
      <trkpt lat="46.06365" lon="4.72104">
        <ele>189</ele>
        <time>2018-05-09T09:19:00Z</time>
      </trkpt>
      <trkpt lat="46.06368" lon="4.72112">
        <ele>189</ele>
        <time>2018-05-09T09:19:01Z</time>
      </trkpt>
      <trkpt lat="46.06369" lon="4.72119">
        <ele>189</ele>
        <time>2018-05-09T09:19:02Z</time>
      </trkpt>
      <trkpt lat="46.06371" lon="4.72126">
        <ele>189</ele>
        <time>2018-05-09T09:19:03Z</time>
      </trkpt>
      <trkpt lat="46.06373" lon="4.72135">
        <ele>189</ele>
        <time>2018-05-09T09:19:04Z</time>
      </trkpt>
      <trkpt lat="46.06376" lon="4.72141">
        <ele>189</ele>
        <time>2018-05-09T09:19:05Z</time>
      </trkpt>
      <trkpt lat="46.06379" lon="4.72148">
        <ele>189</ele>
        <time>2018-05-09T09:19:06Z</time>
      </trkpt>
      <trkpt lat="46.06382" lon="4.72156">
        <ele>189</ele>
        <time>2018-05-09T09:19:07Z</time>
      </trkpt>
      <trkpt lat="46.06384" lon="4.72163">
        <ele>189</ele>
        <time>2018-05-09T09:19:08Z</time>
      </trkpt>
      <trkpt lat="46.06387" lon="4.7217">
        <ele>189</ele>
        <time>2018-05-09T09:19:09Z</time>
      </trkpt>
      <trkpt lat="46.06389" lon="4.72178">
        <ele>189</ele>
        <time>2018-05-09T09:19:10Z</time>
      </trkpt>
      <trkpt lat="46.06391" lon="4.72186">
        <ele>189</ele>
        <time>2018-05-09T09:19:11Z</time>
      </trkpt>
      <trkpt lat="46.06393" lon="4.72193">
        <ele>189</ele>
        <time>2018-05-09T09:19:12Z</time>
      </trkpt>
      <trkpt lat="46.06398" lon="4.72204">
        <ele>190</ele>
        <time>2018-05-09T09:19:14Z</time>
      </trkpt>
      <trkpt lat="46.06399" lon="4.72209">
        <ele>190</ele>
        <time>2018-05-09T09:19:15Z</time>
      </trkpt>
      <trkpt lat="46.06403" lon="4.7222">
        <ele>190</ele>
        <time>2018-05-09T09:19:17Z</time>
      </trkpt>
      <trkpt lat="46.06404" lon="4.72227">
        <ele>190</ele>
        <time>2018-05-09T09:19:18Z</time>
      </trkpt>
      <trkpt lat="46.06407" lon="4.72237">
        <ele>190</ele>
        <time>2018-05-09T09:19:20Z</time>
      </trkpt>
      <trkpt lat="46.06408" lon="4.72242">
        <ele>189</ele>
        <time>2018-05-09T09:19:21Z</time>
      </trkpt>
      <trkpt lat="46.06411" lon="4.72251">
        <ele>190</ele>
        <time>2018-05-09T09:19:24Z</time>
      </trkpt>
      <trkpt lat="46.06413" lon="4.72262">
        <ele>191</ele>
        <time>2018-05-09T09:19:25Z</time>
      </trkpt>
      <trkpt lat="46.06412" lon="4.72272">
        <ele>191</ele>
        <time>2018-05-09T09:19:27Z</time>
      </trkpt>
      <trkpt lat="46.06413" lon="4.72278">
        <ele>192</ele>
        <time>2018-05-09T09:19:28Z</time>
      </trkpt>
      <trkpt lat="46.06415" lon="4.72287">
        <ele>192</ele>
        <time>2018-05-09T09:19:30Z</time>
      </trkpt>
      <trkpt lat="46.06423" lon="4.72291">
        <ele>190</ele>
        <time>2018-05-09T09:19:31Z</time>
      </trkpt>
      <trkpt lat="46.06431" lon="4.72293">
        <ele>190</ele>
        <time>2018-05-09T09:19:33Z</time>
      </trkpt>
      <trkpt lat="46.06436" lon="4.72294">
        <ele>190</ele>
        <time>2018-05-09T09:19:34Z</time>
      </trkpt>
      <trkpt lat="46.0644" lon="4.72296">
        <ele>190</ele>
        <time>2018-05-09T09:19:35Z</time>
      </trkpt>
      <trkpt lat="46.06445" lon="4.72304">
        <ele>191</ele>
        <time>2018-05-09T09:19:36Z</time>
      </trkpt>
      <trkpt lat="46.0645" lon="4.72315">
        <ele>191</ele>
        <time>2018-05-09T09:19:38Z</time>
      </trkpt>
      <trkpt lat="46.06451" lon="4.72322">
        <ele>191</ele>
        <time>2018-05-09T09:19:39Z</time>
      </trkpt>
      <trkpt lat="46.06454" lon="4.7233">
        <ele>191</ele>
        <time>2018-05-09T09:19:40Z</time>
      </trkpt>
      <trkpt lat="46.06452" lon="4.72337">
        <ele>194</ele>
        <time>2018-05-09T09:19:41Z</time>
      </trkpt>
      <trkpt lat="46.06455" lon="4.72342">
        <ele>194</ele>
        <time>2018-05-09T09:19:42Z</time>
      </trkpt>
      <trkpt lat="46.06458" lon="4.72347">
        <ele>194</ele>
        <time>2018-05-09T09:19:43Z</time>
      </trkpt>
      <trkpt lat="46.06459" lon="4.72359">
        <ele>194</ele>
        <time>2018-05-09T09:19:44Z</time>
      </trkpt>
      <trkpt lat="46.06451" lon="4.72358">
        <ele>194</ele>
        <time>2018-05-09T09:19:45Z</time>
      </trkpt>
      <trkpt lat="46.0645" lon="4.72364">
        <ele>194</ele>
        <time>2018-05-09T09:19:46Z</time>
      </trkpt>
      <trkpt lat="46.06445" lon="4.72369">
        <ele>194</ele>
        <time>2018-05-09T09:19:47Z</time>
      </trkpt>
      <trkpt lat="46.0644" lon="4.72376">
        <ele>195</ele>
        <time>2018-05-09T09:19:49Z</time>
      </trkpt>
      <trkpt lat="46.06437" lon="4.72383">
        <ele>195</ele>
        <time>2018-05-09T09:19:50Z</time>
      </trkpt>
      <trkpt lat="46.06433" lon="4.72391">
        <ele>195</ele>
        <time>2018-05-09T09:19:52Z</time>
      </trkpt>
      <trkpt lat="46.06433" lon="4.72398">
        <ele>195</ele>
        <time>2018-05-09T09:19:53Z</time>
      </trkpt>
      <trkpt lat="46.06428" lon="4.72406">
        <ele>195</ele>
        <time>2018-05-09T09:19:55Z</time>
      </trkpt>
      <trkpt lat="46.06426" lon="4.72411">
        <ele>195</ele>
        <time>2018-05-09T09:19:56Z</time>
      </trkpt>
      <trkpt lat="46.06423" lon="4.72422">
        <ele>196</ele>
        <time>2018-05-09T09:19:58Z</time>
      </trkpt>
      <trkpt lat="46.06422" lon="4.72427">
        <ele>196</ele>
        <time>2018-05-09T09:19:59Z</time>
      </trkpt>
      <trkpt lat="46.0642" lon="4.72439">
        <ele>197</ele>
        <time>2018-05-09T09:20:01Z</time>
      </trkpt>
      <trkpt lat="46.06419" lon="4.72444">
        <ele>197</ele>
        <time>2018-05-09T09:20:02Z</time>
      </trkpt>
      <trkpt lat="46.06415" lon="4.72455">
        <ele>197</ele>
        <time>2018-05-09T09:20:04Z</time>
      </trkpt>
      <trkpt lat="46.06413" lon="4.72459">
        <ele>197</ele>
        <time>2018-05-09T09:20:05Z</time>
      </trkpt>
      <trkpt lat="46.06405" lon="4.72465">
        <ele>198</ele>
        <time>2018-05-09T09:20:07Z</time>
      </trkpt>
      <trkpt lat="46.06401" lon="4.72468">
        <ele>198</ele>
        <time>2018-05-09T09:20:08Z</time>
      </trkpt>
      <trkpt lat="46.06393" lon="4.72469">
        <ele>197</ele>
        <time>2018-05-09T09:20:17Z</time>
      </trkpt>
      <trkpt lat="46.06392" lon="4.7247">
        <ele>197</ele>
        <time>2018-05-09T09:20:18Z</time>
      </trkpt>
      <trkpt lat="46.0639" lon="4.72477">
        <ele>198</ele>
        <time>2018-05-09T09:20:21Z</time>
      </trkpt>
      <trkpt lat="46.06392" lon="4.72486">
        <ele>198</ele>
        <time>2018-05-09T09:20:22Z</time>
      </trkpt>
      <trkpt lat="46.06396" lon="4.72494">
        <ele>198</ele>
        <time>2018-05-09T09:20:24Z</time>
      </trkpt>
      <trkpt lat="46.06399" lon="4.72499">
        <ele>198</ele>
        <time>2018-05-09T09:20:25Z</time>
      </trkpt>
      <trkpt lat="46.06402" lon="4.7251">
        <ele>198</ele>
        <time>2018-05-09T09:20:27Z</time>
      </trkpt>
      <trkpt lat="46.06404" lon="4.7252">
        <ele>197</ele>
        <time>2018-05-09T09:20:28Z</time>
      </trkpt>
      <trkpt lat="46.06406" lon="4.72529">
        <ele>197</ele>
        <time>2018-05-09T09:20:29Z</time>
      </trkpt>
      <trkpt lat="46.06407" lon="4.72538">
        <ele>197</ele>
        <time>2018-05-09T09:20:30Z</time>
      </trkpt>
      <trkpt lat="46.06409" lon="4.72547">
        <ele>196</ele>
        <time>2018-05-09T09:20:31Z</time>
      </trkpt>
      <trkpt lat="46.0641" lon="4.72556">
        <ele>196</ele>
        <time>2018-05-09T09:20:32Z</time>
      </trkpt>
      <trkpt lat="46.06413" lon="4.72565">
        <ele>196</ele>
        <time>2018-05-09T09:20:33Z</time>
      </trkpt>
      <trkpt lat="46.06415" lon="4.72575">
        <ele>195</ele>
        <time>2018-05-09T09:20:34Z</time>
      </trkpt>
      <trkpt lat="46.06416" lon="4.72585">
        <ele>195</ele>
        <time>2018-05-09T09:20:35Z</time>
      </trkpt>
      <trkpt lat="46.06418" lon="4.72596">
        <ele>194</ele>
        <time>2018-05-09T09:20:36Z</time>
      </trkpt>
      <trkpt lat="46.0642" lon="4.72606">
        <ele>193</ele>
        <time>2018-05-09T09:20:37Z</time>
      </trkpt>
      <trkpt lat="46.06422" lon="4.72616">
        <ele>193</ele>
        <time>2018-05-09T09:20:38Z</time>
      </trkpt>
      <trkpt lat="46.06424" lon="4.72627">
        <ele>193</ele>
        <time>2018-05-09T09:20:39Z</time>
      </trkpt>
      <trkpt lat="46.06426" lon="4.72638">
        <ele>192</ele>
        <time>2018-05-09T09:20:40Z</time>
      </trkpt>
      <trkpt lat="46.06428" lon="4.72648">
        <ele>192</ele>
        <time>2018-05-09T09:20:41Z</time>
      </trkpt>
      <trkpt lat="46.0643" lon="4.72659">
        <ele>192</ele>
        <time>2018-05-09T09:20:42Z</time>
      </trkpt>
      <trkpt lat="46.06432" lon="4.72669">
        <ele>191</ele>
        <time>2018-05-09T09:20:43Z</time>
      </trkpt>
      <trkpt lat="46.06434" lon="4.7268">
        <ele>191</ele>
        <time>2018-05-09T09:20:44Z</time>
      </trkpt>
      <trkpt lat="46.06437" lon="4.72691">
        <ele>190</ele>
        <time>2018-05-09T09:20:45Z</time>
      </trkpt>
      <trkpt lat="46.06439" lon="4.72701">
        <ele>190</ele>
        <time>2018-05-09T09:20:46Z</time>
      </trkpt>
      <trkpt lat="46.06442" lon="4.72711">
        <ele>190</ele>
        <time>2018-05-09T09:20:47Z</time>
      </trkpt>
      <trkpt lat="46.06443" lon="4.72721">
        <ele>190</ele>
        <time>2018-05-09T09:20:48Z</time>
      </trkpt>
      <trkpt lat="46.06446" lon="4.72732">
        <ele>189</ele>
        <time>2018-05-09T09:20:49Z</time>
      </trkpt>
      <trkpt lat="46.06448" lon="4.72742">
        <ele>189</ele>
        <time>2018-05-09T09:20:50Z</time>
      </trkpt>
      <trkpt lat="46.06449" lon="4.72752">
        <ele>188</ele>
        <time>2018-05-09T09:20:51Z</time>
      </trkpt>
      <trkpt lat="46.0645" lon="4.72763">
        <ele>188</ele>
        <time>2018-05-09T09:20:52Z</time>
      </trkpt>
      <trkpt lat="46.06452" lon="4.72774">
        <ele>188</ele>
        <time>2018-05-09T09:20:53Z</time>
      </trkpt>
      <trkpt lat="46.06453" lon="4.72785">
        <ele>188</ele>
        <time>2018-05-09T09:20:54Z</time>
      </trkpt>
      <trkpt lat="46.06454" lon="4.72795">
        <ele>188</ele>
        <time>2018-05-09T09:20:55Z</time>
      </trkpt>
      <trkpt lat="46.06456" lon="4.72805">
        <ele>188</ele>
        <time>2018-05-09T09:20:56Z</time>
      </trkpt>
      <trkpt lat="46.06457" lon="4.72815">
        <ele>188</ele>
        <time>2018-05-09T09:20:57Z</time>
      </trkpt>
      <trkpt lat="46.06459" lon="4.72824">
        <ele>188</ele>
        <time>2018-05-09T09:20:58Z</time>
      </trkpt>
      <trkpt lat="46.06461" lon="4.72835">
        <ele>188</ele>
        <time>2018-05-09T09:20:59Z</time>
      </trkpt>
      <trkpt lat="46.06463" lon="4.72844">
        <ele>188</ele>
        <time>2018-05-09T09:21:00Z</time>
      </trkpt>
      <trkpt lat="46.06464" lon="4.72853">
        <ele>188</ele>
        <time>2018-05-09T09:21:01Z</time>
      </trkpt>
      <trkpt lat="46.06467" lon="4.72863">
        <ele>188</ele>
        <time>2018-05-09T09:21:02Z</time>
      </trkpt>
      <trkpt lat="46.06469" lon="4.72872">
        <ele>188</ele>
        <time>2018-05-09T09:21:03Z</time>
      </trkpt>
      <trkpt lat="46.0647" lon="4.72882">
        <ele>188</ele>
        <time>2018-05-09T09:21:04Z</time>
      </trkpt>
      <trkpt lat="46.06472" lon="4.72892">
        <ele>188</ele>
        <time>2018-05-09T09:21:05Z</time>
      </trkpt>
      <trkpt lat="46.06473" lon="4.729">
        <ele>188</ele>
        <time>2018-05-09T09:21:06Z</time>
      </trkpt>
      <trkpt lat="46.06474" lon="4.72909">
        <ele>188</ele>
        <time>2018-05-09T09:21:07Z</time>
      </trkpt>
      <trkpt lat="46.06475" lon="4.72918">
        <ele>188</ele>
        <time>2018-05-09T09:21:08Z</time>
      </trkpt>
      <trkpt lat="46.06477" lon="4.72926">
        <ele>188</ele>
        <time>2018-05-09T09:21:09Z</time>
      </trkpt>
      <trkpt lat="46.06479" lon="4.72934">
        <ele>188</ele>
        <time>2018-05-09T09:21:10Z</time>
      </trkpt>
      <trkpt lat="46.06481" lon="4.72942">
        <ele>188</ele>
        <time>2018-05-09T09:21:11Z</time>
      </trkpt>
      <trkpt lat="46.06482" lon="4.7295">
        <ele>188</ele>
        <time>2018-05-09T09:21:12Z</time>
      </trkpt>
      <trkpt lat="46.06482" lon="4.72957">
        <ele>188</ele>
        <time>2018-05-09T09:21:13Z</time>
      </trkpt>
      <trkpt lat="46.06483" lon="4.72964">
        <ele>188</ele>
        <time>2018-05-09T09:21:14Z</time>
      </trkpt>
      <trkpt lat="46.06482" lon="4.72972">
        <ele>188</ele>
        <time>2018-05-09T09:21:15Z</time>
      </trkpt>
      <trkpt lat="46.06481" lon="4.72978">
        <ele>189</ele>
        <time>2018-05-09T09:21:16Z</time>
      </trkpt>
      <trkpt lat="46.0648" lon="4.7299">
        <ele>189</ele>
        <time>2018-05-09T09:21:18Z</time>
      </trkpt>
      <trkpt lat="46.0648" lon="4.72997">
        <ele>189</ele>
        <time>2018-05-09T09:21:19Z</time>
      </trkpt>
      <trkpt lat="46.06484" lon="4.73004">
        <ele>189</ele>
        <time>2018-05-09T09:21:20Z</time>
      </trkpt>
      <trkpt lat="46.0649" lon="4.73008">
        <ele>189</ele>
        <time>2018-05-09T09:21:21Z</time>
      </trkpt>
      <trkpt lat="46.06493" lon="4.73012">
        <ele>189</ele>
        <time>2018-05-09T09:21:22Z</time>
      </trkpt>
      <trkpt lat="46.06497" lon="4.73019">
        <ele>189</ele>
        <time>2018-05-09T09:21:23Z</time>
      </trkpt>
      <trkpt lat="46.06501" lon="4.73027">
        <ele>189</ele>
        <time>2018-05-09T09:21:24Z</time>
      </trkpt>
      <trkpt lat="46.06505" lon="4.73033">
        <ele>189</ele>
        <time>2018-05-09T09:21:25Z</time>
      </trkpt>
      <trkpt lat="46.06509" lon="4.73043">
        <ele>188</ele>
        <time>2018-05-09T09:21:26Z</time>
      </trkpt>
      <trkpt lat="46.06511" lon="4.73051">
        <ele>188</ele>
        <time>2018-05-09T09:21:27Z</time>
      </trkpt>
      <trkpt lat="46.06515" lon="4.73059">
        <ele>188</ele>
        <time>2018-05-09T09:21:28Z</time>
      </trkpt>
      <trkpt lat="46.06518" lon="4.73067">
        <ele>188</ele>
        <time>2018-05-09T09:21:29Z</time>
      </trkpt>
      <trkpt lat="46.06521" lon="4.73076">
        <ele>188</ele>
        <time>2018-05-09T09:21:30Z</time>
      </trkpt>
      <trkpt lat="46.06525" lon="4.73084">
        <ele>188</ele>
        <time>2018-05-09T09:21:31Z</time>
      </trkpt>
      <trkpt lat="46.06528" lon="4.73092">
        <ele>188</ele>
        <time>2018-05-09T09:21:32Z</time>
      </trkpt>
      <trkpt lat="46.06532" lon="4.731">
        <ele>188</ele>
        <time>2018-05-09T09:21:33Z</time>
      </trkpt>
      <trkpt lat="46.06535" lon="4.73108">
        <ele>188</ele>
        <time>2018-05-09T09:21:34Z</time>
      </trkpt>
      <trkpt lat="46.06538" lon="4.73115">
        <ele>188</ele>
        <time>2018-05-09T09:21:35Z</time>
      </trkpt>
      <trkpt lat="46.06541" lon="4.73123">
        <ele>188</ele>
        <time>2018-05-09T09:21:36Z</time>
      </trkpt>
      <trkpt lat="46.06544" lon="4.73132">
        <ele>187</ele>
        <time>2018-05-09T09:21:37Z</time>
      </trkpt>
      <trkpt lat="46.06546" lon="4.73141">
        <ele>187</ele>
        <time>2018-05-09T09:21:38Z</time>
      </trkpt>
      <trkpt lat="46.06548" lon="4.7315">
        <ele>187</ele>
        <time>2018-05-09T09:21:39Z</time>
      </trkpt>
      <trkpt lat="46.0655" lon="4.73159">
        <ele>187</ele>
        <time>2018-05-09T09:21:40Z</time>
      </trkpt>
      <trkpt lat="46.06549" lon="4.73168">
        <ele>187</ele>
        <time>2018-05-09T09:21:41Z</time>
      </trkpt>
      <trkpt lat="46.0655" lon="4.73179">
        <ele>187</ele>
        <time>2018-05-09T09:21:42Z</time>
      </trkpt>
      <trkpt lat="46.06551" lon="4.73189">
        <ele>187</ele>
        <time>2018-05-09T09:21:43Z</time>
      </trkpt>
      <trkpt lat="46.06553" lon="4.73199">
        <ele>186</ele>
        <time>2018-05-09T09:21:44Z</time>
      </trkpt>
      <trkpt lat="46.06554" lon="4.73208">
        <ele>186</ele>
        <time>2018-05-09T09:21:45Z</time>
      </trkpt>
      <trkpt lat="46.06556" lon="4.73217">
        <ele>186</ele>
        <time>2018-05-09T09:21:46Z</time>
      </trkpt>
      <trkpt lat="46.06559" lon="4.73228">
        <ele>186</ele>
        <time>2018-05-09T09:21:47Z</time>
      </trkpt>
      <trkpt lat="46.06562" lon="4.73236">
        <ele>186</ele>
        <time>2018-05-09T09:21:48Z</time>
      </trkpt>
      <trkpt lat="46.06565" lon="4.73245">
        <ele>186</ele>
        <time>2018-05-09T09:21:49Z</time>
      </trkpt>
      <trkpt lat="46.06567" lon="4.73254">
        <ele>184</ele>
        <time>2018-05-09T09:21:50Z</time>
      </trkpt>
      <trkpt lat="46.0657" lon="4.73263">
        <ele>184</ele>
        <time>2018-05-09T09:21:51Z</time>
      </trkpt>
      <trkpt lat="46.06573" lon="4.73273">
        <ele>184</ele>
        <time>2018-05-09T09:21:52Z</time>
      </trkpt>
      <trkpt lat="46.06576" lon="4.73283">
        <ele>184</ele>
        <time>2018-05-09T09:21:53Z</time>
      </trkpt>
      <trkpt lat="46.06579" lon="4.73292">
        <ele>184</ele>
        <time>2018-05-09T09:21:54Z</time>
      </trkpt>
      <trkpt lat="46.06582" lon="4.73302">
        <ele>183</ele>
        <time>2018-05-09T09:21:55Z</time>
      </trkpt>
      <trkpt lat="46.06585" lon="4.73311">
        <ele>182</ele>
        <time>2018-05-09T09:21:56Z</time>
      </trkpt>
      <trkpt lat="46.06587" lon="4.73322">
        <ele>182</ele>
        <time>2018-05-09T09:21:57Z</time>
      </trkpt>
      <trkpt lat="46.06589" lon="4.73331">
        <ele>182</ele>
        <time>2018-05-09T09:21:58Z</time>
      </trkpt>
      <trkpt lat="46.06593" lon="4.73338">
        <ele>182</ele>
        <time>2018-05-09T09:21:59Z</time>
      </trkpt>
      <trkpt lat="46.06598" lon="4.73343">
        <ele>182</ele>
        <time>2018-05-09T09:22:00Z</time>
      </trkpt>
      <trkpt lat="46.06604" lon="4.73346">
        <ele>182</ele>
        <time>2018-05-09T09:22:01Z</time>
      </trkpt>
      <trkpt lat="46.0661" lon="4.7335">
        <ele>182</ele>
        <time>2018-05-09T09:22:02Z</time>
      </trkpt>
      <trkpt lat="46.06616" lon="4.73354">
        <ele>182</ele>
        <time>2018-05-09T09:22:03Z</time>
      </trkpt>
      <trkpt lat="46.06623" lon="4.73358">
        <ele>182</ele>
        <time>2018-05-09T09:22:04Z</time>
      </trkpt>
      <trkpt lat="46.06629" lon="4.73361">
        <ele>182</ele>
        <time>2018-05-09T09:22:05Z</time>
      </trkpt>
      <trkpt lat="46.06636" lon="4.73366">
        <ele>182</ele>
        <time>2018-05-09T09:22:06Z</time>
      </trkpt>
      <trkpt lat="46.06643" lon="4.73371">
        <ele>182</ele>
        <time>2018-05-09T09:22:07Z</time>
      </trkpt>
      <trkpt lat="46.06649" lon="4.73376">
        <ele>182</ele>
        <time>2018-05-09T09:22:08Z</time>
      </trkpt>
      <trkpt lat="46.06654" lon="4.73383">
        <ele>182</ele>
        <time>2018-05-09T09:22:09Z</time>
      </trkpt>
      <trkpt lat="46.0666" lon="4.73389">
        <ele>182</ele>
        <time>2018-05-09T09:22:10Z</time>
      </trkpt>
      <trkpt lat="46.06665" lon="4.73397">
        <ele>182</ele>
        <time>2018-05-09T09:22:11Z</time>
      </trkpt>
      <trkpt lat="46.0667" lon="4.73402">
        <ele>181</ele>
        <time>2018-05-09T09:22:12Z</time>
      </trkpt>
      <trkpt lat="46.06675" lon="4.73409">
        <ele>181</ele>
        <time>2018-05-09T09:22:13Z</time>
      </trkpt>
      <trkpt lat="46.0668" lon="4.73417">
        <ele>181</ele>
        <time>2018-05-09T09:22:14Z</time>
      </trkpt>
      <trkpt lat="46.06685" lon="4.73424">
        <ele>181</ele>
        <time>2018-05-09T09:22:15Z</time>
      </trkpt>
      <trkpt lat="46.0669" lon="4.73432">
        <ele>181</ele>
        <time>2018-05-09T09:22:16Z</time>
      </trkpt>
      <trkpt lat="46.06695" lon="4.73439">
        <ele>181</ele>
        <time>2018-05-09T09:22:17Z</time>
      </trkpt>
      <trkpt lat="46.067" lon="4.73448">
        <ele>180</ele>
        <time>2018-05-09T09:22:18Z</time>
      </trkpt>
      <trkpt lat="46.06705" lon="4.73455">
        <ele>180</ele>
        <time>2018-05-09T09:22:19Z</time>
      </trkpt>
      <trkpt lat="46.06709" lon="4.73462">
        <ele>180</ele>
        <time>2018-05-09T09:22:20Z</time>
      </trkpt>
      <trkpt lat="46.06714" lon="4.73469">
        <ele>180</ele>
        <time>2018-05-09T09:22:21Z</time>
      </trkpt>
      <trkpt lat="46.06718" lon="4.73476">
        <ele>180</ele>
        <time>2018-05-09T09:22:22Z</time>
      </trkpt>
      <trkpt lat="46.06723" lon="4.73482">
        <ele>180</ele>
        <time>2018-05-09T09:22:23Z</time>
      </trkpt>
      <trkpt lat="46.06727" lon="4.73488">
        <ele>180</ele>
        <time>2018-05-09T09:22:24Z</time>
      </trkpt>
      <trkpt lat="46.06731" lon="4.73495">
        <ele>180</ele>
        <time>2018-05-09T09:22:25Z</time>
      </trkpt>
      <trkpt lat="46.06734" lon="4.73501">
        <ele>180</ele>
        <time>2018-05-09T09:22:26Z</time>
      </trkpt>
      <trkpt lat="46.06738" lon="4.7351">
        <ele>180</ele>
        <time>2018-05-09T09:22:27Z</time>
      </trkpt>
      <trkpt lat="46.06742" lon="4.73516">
        <ele>180</ele>
        <time>2018-05-09T09:22:28Z</time>
      </trkpt>
      <trkpt lat="46.06746" lon="4.73524">
        <ele>180</ele>
        <time>2018-05-09T09:22:29Z</time>
      </trkpt>
      <trkpt lat="46.0675" lon="4.7353">
        <ele>179</ele>
        <time>2018-05-09T09:22:30Z</time>
      </trkpt>
      <trkpt lat="46.06756" lon="4.73537">
        <ele>179</ele>
        <time>2018-05-09T09:22:31Z</time>
      </trkpt>
      <trkpt lat="46.0676" lon="4.73543">
        <ele>179</ele>
        <time>2018-05-09T09:22:32Z</time>
      </trkpt>
      <trkpt lat="46.06765" lon="4.7355">
        <ele>179</ele>
        <time>2018-05-09T09:22:33Z</time>
      </trkpt>
      <trkpt lat="46.06768" lon="4.73557">
        <ele>180</ele>
        <time>2018-05-09T09:22:34Z</time>
      </trkpt>
      <trkpt lat="46.06772" lon="4.73565">
        <ele>180</ele>
        <time>2018-05-09T09:22:35Z</time>
      </trkpt>
      <trkpt lat="46.06776" lon="4.73572">
        <ele>180</ele>
        <time>2018-05-09T09:22:36Z</time>
      </trkpt>
      <trkpt lat="46.0678" lon="4.73579">
        <ele>180</ele>
        <time>2018-05-09T09:22:37Z</time>
      </trkpt>
      <trkpt lat="46.06784" lon="4.73585">
        <ele>179</ele>
        <time>2018-05-09T09:22:38Z</time>
      </trkpt>
      <trkpt lat="46.06789" lon="4.73592">
        <ele>179</ele>
        <time>2018-05-09T09:22:39Z</time>
      </trkpt>
      <trkpt lat="46.06793" lon="4.73599">
        <ele>179</ele>
        <time>2018-05-09T09:22:40Z</time>
      </trkpt>
      <trkpt lat="46.06799" lon="4.73606">
        <ele>178</ele>
        <time>2018-05-09T09:22:41Z</time>
      </trkpt>
      <trkpt lat="46.06804" lon="4.73613">
        <ele>178</ele>
        <time>2018-05-09T09:22:42Z</time>
      </trkpt>
      <trkpt lat="46.06809" lon="4.73619">
        <ele>178</ele>
        <time>2018-05-09T09:22:43Z</time>
      </trkpt>
      <trkpt lat="46.06814" lon="4.73625">
        <ele>178</ele>
        <time>2018-05-09T09:22:44Z</time>
      </trkpt>
      <trkpt lat="46.0682" lon="4.7363">
        <ele>178</ele>
        <time>2018-05-09T09:22:45Z</time>
      </trkpt>
      <trkpt lat="46.06826" lon="4.73638">
        <ele>178</ele>
        <time>2018-05-09T09:22:46Z</time>
      </trkpt>
      <trkpt lat="46.06832" lon="4.73644">
        <ele>177</ele>
        <time>2018-05-09T09:22:47Z</time>
      </trkpt>
      <trkpt lat="46.06837" lon="4.73649">
        <ele>176</ele>
        <time>2018-05-09T09:22:48Z</time>
      </trkpt>
      <trkpt lat="46.06843" lon="4.73654">
        <ele>176</ele>
        <time>2018-05-09T09:22:49Z</time>
      </trkpt>
      <trkpt lat="46.06849" lon="4.7366">
        <ele>176</ele>
        <time>2018-05-09T09:22:50Z</time>
      </trkpt>
      <trkpt lat="46.06854" lon="4.73667">
        <ele>176</ele>
        <time>2018-05-09T09:22:51Z</time>
      </trkpt>
      <trkpt lat="46.0686" lon="4.73672">
        <ele>176</ele>
        <time>2018-05-09T09:22:52Z</time>
      </trkpt>
      <trkpt lat="46.06865" lon="4.73678">
        <ele>176</ele>
        <time>2018-05-09T09:22:53Z</time>
      </trkpt>
      <trkpt lat="46.0687" lon="4.73685">
        <ele>176</ele>
        <time>2018-05-09T09:22:54Z</time>
      </trkpt>
      <trkpt lat="46.06874" lon="4.73691">
        <ele>176</ele>
        <time>2018-05-09T09:22:55Z</time>
      </trkpt>
      <trkpt lat="46.0688" lon="4.73698">
        <ele>176</ele>
        <time>2018-05-09T09:22:56Z</time>
      </trkpt>
      <trkpt lat="46.06886" lon="4.73704">
        <ele>176</ele>
        <time>2018-05-09T09:22:57Z</time>
      </trkpt>
      <trkpt lat="46.06891" lon="4.7371">
        <ele>176</ele>
        <time>2018-05-09T09:22:58Z</time>
      </trkpt>
      <trkpt lat="46.06895" lon="4.73717">
        <ele>176</ele>
        <time>2018-05-09T09:22:59Z</time>
      </trkpt>
      <trkpt lat="46.06899" lon="4.73724">
        <ele>176</ele>
        <time>2018-05-09T09:23:00Z</time>
      </trkpt>
      <trkpt lat="46.06903" lon="4.73731">
        <ele>177</ele>
        <time>2018-05-09T09:23:01Z</time>
      </trkpt>
      <trkpt lat="46.06907" lon="4.73738">
        <ele>177</ele>
        <time>2018-05-09T09:23:02Z</time>
      </trkpt>
      <trkpt lat="46.06912" lon="4.73744">
        <ele>177</ele>
        <time>2018-05-09T09:23:03Z</time>
      </trkpt>
      <trkpt lat="46.06916" lon="4.73751">
        <ele>177</ele>
        <time>2018-05-09T09:23:04Z</time>
      </trkpt>
      <trkpt lat="46.06921" lon="4.73758">
        <ele>177</ele>
        <time>2018-05-09T09:23:05Z</time>
      </trkpt>
      <trkpt lat="46.06925" lon="4.73765">
        <ele>177</ele>
        <time>2018-05-09T09:23:06Z</time>
      </trkpt>
      <trkpt lat="46.0693" lon="4.73771">
        <ele>176</ele>
        <time>2018-05-09T09:23:07Z</time>
      </trkpt>
      <trkpt lat="46.06936" lon="4.73775">
        <ele>176</ele>
        <time>2018-05-09T09:23:08Z</time>
      </trkpt>
      <trkpt lat="46.06943" lon="4.7378">
        <ele>176</ele>
        <time>2018-05-09T09:23:09Z</time>
      </trkpt>
      <trkpt lat="46.06949" lon="4.73784">
        <ele>176</ele>
        <time>2018-05-09T09:23:10Z</time>
      </trkpt>
      <trkpt lat="46.06955" lon="4.73787">
        <ele>176</ele>
        <time>2018-05-09T09:23:11Z</time>
      </trkpt>
      <trkpt lat="46.06961" lon="4.73789">
        <ele>176</ele>
        <time>2018-05-09T09:23:12Z</time>
      </trkpt>
      <trkpt lat="46.06967" lon="4.7379">
        <ele>176</ele>
        <time>2018-05-09T09:23:13Z</time>
      </trkpt>
      <trkpt lat="46.06973" lon="4.73791">
        <ele>176</ele>
        <time>2018-05-09T09:23:14Z</time>
      </trkpt>
      <trkpt lat="46.0698" lon="4.73792">
        <ele>176</ele>
        <time>2018-05-09T09:23:15Z</time>
      </trkpt>
      <trkpt lat="46.06986" lon="4.73792">
        <ele>176</ele>
        <time>2018-05-09T09:23:16Z</time>
      </trkpt>
      <trkpt lat="46.06992" lon="4.73793">
        <ele>176</ele>
        <time>2018-05-09T09:23:17Z</time>
      </trkpt>
      <trkpt lat="46.06998" lon="4.73794">
        <ele>176</ele>
        <time>2018-05-09T09:23:18Z</time>
      </trkpt>
      <trkpt lat="46.07004" lon="4.73795">
        <ele>177</ele>
        <time>2018-05-09T09:23:19Z</time>
      </trkpt>
      <trkpt lat="46.07011" lon="4.73795">
        <ele>177</ele>
        <time>2018-05-09T09:23:20Z</time>
      </trkpt>
      <trkpt lat="46.07017" lon="4.73795">
        <ele>177</ele>
        <time>2018-05-09T09:23:21Z</time>
      </trkpt>
      <trkpt lat="46.07023" lon="4.73796">
        <ele>177</ele>
        <time>2018-05-09T09:23:22Z</time>
      </trkpt>
      <trkpt lat="46.07029" lon="4.73797">
        <ele>177</ele>
        <time>2018-05-09T09:23:23Z</time>
      </trkpt>
      <trkpt lat="46.07035" lon="4.73797">
        <ele>177</ele>
        <time>2018-05-09T09:23:24Z</time>
      </trkpt>
      <trkpt lat="46.07041" lon="4.73799">
        <ele>177</ele>
        <time>2018-05-09T09:23:25Z</time>
      </trkpt>
      <trkpt lat="46.07047" lon="4.738">
        <ele>177</ele>
        <time>2018-05-09T09:23:26Z</time>
      </trkpt>
      <trkpt lat="46.07053" lon="4.73802">
        <ele>177</ele>
        <time>2018-05-09T09:23:27Z</time>
      </trkpt>
      <trkpt lat="46.07059" lon="4.73803">
        <ele>177</ele>
        <time>2018-05-09T09:23:28Z</time>
      </trkpt>
      <trkpt lat="46.07066" lon="4.73805">
        <ele>178</ele>
        <time>2018-05-09T09:23:29Z</time>
      </trkpt>
      <trkpt lat="46.07071" lon="4.73807">
        <ele>178</ele>
        <time>2018-05-09T09:23:30Z</time>
      </trkpt>
      <trkpt lat="46.07076" lon="4.73809">
        <ele>178</ele>
        <time>2018-05-09T09:23:31Z</time>
      </trkpt>
      <trkpt lat="46.07081" lon="4.73812">
        <ele>178</ele>
        <time>2018-05-09T09:23:32Z</time>
      </trkpt>
      <trkpt lat="46.07087" lon="4.73815">
        <ele>178</ele>
        <time>2018-05-09T09:23:33Z</time>
      </trkpt>
      <trkpt lat="46.07092" lon="4.73819">
        <ele>178</ele>
        <time>2018-05-09T09:23:34Z</time>
      </trkpt>
      <trkpt lat="46.07097" lon="4.73823">
        <ele>178</ele>
        <time>2018-05-09T09:23:35Z</time>
      </trkpt>
      <trkpt lat="46.07103" lon="4.73827">
        <ele>178</ele>
        <time>2018-05-09T09:23:36Z</time>
      </trkpt>
      <trkpt lat="46.07107" lon="4.73832">
        <ele>178</ele>
        <time>2018-05-09T09:23:37Z</time>
      </trkpt>
      <trkpt lat="46.07112" lon="4.73837">
        <ele>177</ele>
        <time>2018-05-09T09:23:38Z</time>
      </trkpt>
      <trkpt lat="46.07117" lon="4.73842">
        <ele>177</ele>
        <time>2018-05-09T09:23:39Z</time>
      </trkpt>
      <trkpt lat="46.07121" lon="4.73846">
        <ele>177</ele>
        <time>2018-05-09T09:23:40Z</time>
      </trkpt>
      <trkpt lat="46.07124" lon="4.73852">
        <ele>177</ele>
        <time>2018-05-09T09:23:41Z</time>
      </trkpt>
      <trkpt lat="46.07128" lon="4.73858">
        <ele>176</ele>
        <time>2018-05-09T09:23:42Z</time>
      </trkpt>
      <trkpt lat="46.07132" lon="4.73863">
        <ele>176</ele>
        <time>2018-05-09T09:23:43Z</time>
      </trkpt>
      <trkpt lat="46.07136" lon="4.73869">
        <ele>176</ele>
        <time>2018-05-09T09:23:44Z</time>
      </trkpt>
      <trkpt lat="46.0714" lon="4.73875">
        <ele>176</ele>
        <time>2018-05-09T09:23:45Z</time>
      </trkpt>
      <trkpt lat="46.07143" lon="4.73882">
        <ele>176</ele>
        <time>2018-05-09T09:23:46Z</time>
      </trkpt>
      <trkpt lat="46.07146" lon="4.73888">
        <ele>176</ele>
        <time>2018-05-09T09:23:47Z</time>
      </trkpt>
      <trkpt lat="46.07149" lon="4.73896">
        <ele>177</ele>
        <time>2018-05-09T09:23:48Z</time>
      </trkpt>
      <trkpt lat="46.07152" lon="4.73904">
        <ele>177</ele>
        <time>2018-05-09T09:23:49Z</time>
      </trkpt>
      <trkpt lat="46.07155" lon="4.73911">
        <ele>177</ele>
        <time>2018-05-09T09:23:50Z</time>
      </trkpt>
      <trkpt lat="46.07157" lon="4.73918">
        <ele>177</ele>
        <time>2018-05-09T09:23:51Z</time>
      </trkpt>
      <trkpt lat="46.0716" lon="4.73926">
        <ele>177</ele>
        <time>2018-05-09T09:23:52Z</time>
      </trkpt>
      <trkpt lat="46.07163" lon="4.73933">
        <ele>177</ele>
        <time>2018-05-09T09:23:53Z</time>
      </trkpt>
      <trkpt lat="46.07166" lon="4.73941">
        <ele>177</ele>
        <time>2018-05-09T09:23:54Z</time>
      </trkpt>
      <trkpt lat="46.07168" lon="4.73948">
        <ele>177</ele>
        <time>2018-05-09T09:23:55Z</time>
      </trkpt>
      <trkpt lat="46.0717" lon="4.73956">
        <ele>177</ele>
        <time>2018-05-09T09:23:56Z</time>
      </trkpt>
      <trkpt lat="46.07172" lon="4.73964">
        <ele>178</ele>
        <time>2018-05-09T09:23:57Z</time>
      </trkpt>
      <trkpt lat="46.07175" lon="4.73971">
        <ele>178</ele>
        <time>2018-05-09T09:23:58Z</time>
      </trkpt>
      <trkpt lat="46.07177" lon="4.73979">
        <ele>178</ele>
        <time>2018-05-09T09:23:59Z</time>
      </trkpt>
      <trkpt lat="46.07179" lon="4.73986">
        <ele>178</ele>
        <time>2018-05-09T09:24:00Z</time>
      </trkpt>
      <trkpt lat="46.0718" lon="4.73994">
        <ele>178</ele>
        <time>2018-05-09T09:24:01Z</time>
      </trkpt>
      <trkpt lat="46.07182" lon="4.74">
        <ele>178</ele>
        <time>2018-05-09T09:24:02Z</time>
      </trkpt>
      <trkpt lat="46.07185" lon="4.74006">
        <ele>178</ele>
        <time>2018-05-09T09:24:03Z</time>
      </trkpt>
      <trkpt lat="46.07189" lon="4.74016">
        <ele>178</ele>
        <time>2018-05-09T09:24:05Z</time>
      </trkpt>
      <trkpt lat="46.07192" lon="4.74022">
        <ele>178</ele>
        <time>2018-05-09T09:24:06Z</time>
      </trkpt>
      <trkpt lat="46.07195" lon="4.74033">
        <ele>178</ele>
        <time>2018-05-09T09:24:08Z</time>
      </trkpt>
      <trkpt lat="46.07198" lon="4.74037">
        <ele>178</ele>
        <time>2018-05-09T09:24:09Z</time>
      </trkpt>
      <trkpt lat="46.07202" lon="4.74049">
        <ele>178</ele>
        <time>2018-05-09T09:24:11Z</time>
      </trkpt>
      <trkpt lat="46.07204" lon="4.74054">
        <ele>178</ele>
        <time>2018-05-09T09:24:12Z</time>
      </trkpt>
      <trkpt lat="46.07207" lon="4.74066">
        <ele>178</ele>
        <time>2018-05-09T09:24:14Z</time>
      </trkpt>
      <trkpt lat="46.07209" lon="4.74072">
        <ele>177</ele>
        <time>2018-05-09T09:24:15Z</time>
      </trkpt>
      <trkpt lat="46.07211" lon="4.74077">
        <ele>177</ele>
        <time>2018-05-09T09:24:16Z</time>
      </trkpt>
      <trkpt lat="46.07213" lon="4.74083">
        <ele>177</ele>
        <time>2018-05-09T09:24:17Z</time>
      </trkpt>
      <trkpt lat="46.07217" lon="4.74095">
        <ele>177</ele>
        <time>2018-05-09T09:24:19Z</time>
      </trkpt>
      <trkpt lat="46.0722" lon="4.74102">
        <ele>177</ele>
        <time>2018-05-09T09:24:20Z</time>
      </trkpt>
      <trkpt lat="46.07222" lon="4.74108">
        <ele>177</ele>
        <time>2018-05-09T09:24:21Z</time>
      </trkpt>
      <trkpt lat="46.07224" lon="4.74115">
        <ele>177</ele>
        <time>2018-05-09T09:24:22Z</time>
      </trkpt>
      <trkpt lat="46.07226" lon="4.74122">
        <ele>177</ele>
        <time>2018-05-09T09:24:23Z</time>
      </trkpt>
      <trkpt lat="46.07228" lon="4.74129">
        <ele>177</ele>
        <time>2018-05-09T09:24:24Z</time>
      </trkpt>
      <trkpt lat="46.0723" lon="4.74138">
        <ele>177</ele>
        <time>2018-05-09T09:24:25Z</time>
      </trkpt>
      <trkpt lat="46.07233" lon="4.74145">
        <ele>177</ele>
        <time>2018-05-09T09:24:26Z</time>
      </trkpt>
      <trkpt lat="46.07235" lon="4.74153">
        <ele>177</ele>
        <time>2018-05-09T09:24:27Z</time>
      </trkpt>
      <trkpt lat="46.07238" lon="4.74161">
        <ele>177</ele>
        <time>2018-05-09T09:24:28Z</time>
      </trkpt>
      <trkpt lat="46.07241" lon="4.7417">
        <ele>177</ele>
        <time>2018-05-09T09:24:29Z</time>
      </trkpt>
      <trkpt lat="46.07244" lon="4.74179">
        <ele>176</ele>
        <time>2018-05-09T09:24:30Z</time>
      </trkpt>
      <trkpt lat="46.07247" lon="4.74189">
        <ele>176</ele>
        <time>2018-05-09T09:24:31Z</time>
      </trkpt>
      <trkpt lat="46.0725" lon="4.74198">
        <ele>176</ele>
        <time>2018-05-09T09:24:32Z</time>
      </trkpt>
      <trkpt lat="46.07254" lon="4.74208">
        <ele>176</ele>
        <time>2018-05-09T09:24:33Z</time>
      </trkpt>
      <trkpt lat="46.07257" lon="4.74218">
        <ele>176</ele>
        <time>2018-05-09T09:24:34Z</time>
      </trkpt>
      <trkpt lat="46.07261" lon="4.74228">
        <ele>176</ele>
        <time>2018-05-09T09:24:35Z</time>
      </trkpt>
      <trkpt lat="46.07265" lon="4.74239">
        <ele>175</ele>
        <time>2018-05-09T09:24:36Z</time>
      </trkpt>
      <trkpt lat="46.0727" lon="4.74251">
        <ele>175</ele>
        <time>2018-05-09T09:24:37Z</time>
      </trkpt>
      <trkpt lat="46.07274" lon="4.74263">
        <ele>175</ele>
        <time>2018-05-09T09:24:38Z</time>
      </trkpt>
      <trkpt lat="46.07278" lon="4.74275">
        <ele>175</ele>
        <time>2018-05-09T09:24:39Z</time>
      </trkpt>
      <trkpt lat="46.07281" lon="4.74288">
        <ele>174</ele>
        <time>2018-05-09T09:24:40Z</time>
      </trkpt>
      <trkpt lat="46.07284" lon="4.743">
        <ele>174</ele>
        <time>2018-05-09T09:24:41Z</time>
      </trkpt>
      <trkpt lat="46.07288" lon="4.74313">
        <ele>174</ele>
        <time>2018-05-09T09:24:42Z</time>
      </trkpt>
      <trkpt lat="46.0729" lon="4.74326">
        <ele>174</ele>
        <time>2018-05-09T09:24:43Z</time>
      </trkpt>
      <trkpt lat="46.07292" lon="4.74337">
        <ele>174</ele>
        <time>2018-05-09T09:24:44Z</time>
      </trkpt>
      <trkpt lat="46.07293" lon="4.7435">
        <ele>174</ele>
        <time>2018-05-09T09:24:45Z</time>
      </trkpt>
      <trkpt lat="46.07296" lon="4.74363">
        <ele>174</ele>
        <time>2018-05-09T09:24:46Z</time>
      </trkpt>
      <trkpt lat="46.07297" lon="4.74375">
        <ele>174</ele>
        <time>2018-05-09T09:24:47Z</time>
      </trkpt>
      <trkpt lat="46.07298" lon="4.74388">
        <ele>174</ele>
        <time>2018-05-09T09:24:48Z</time>
      </trkpt>
      <trkpt lat="46.07299" lon="4.744">
        <ele>174</ele>
        <time>2018-05-09T09:24:49Z</time>
      </trkpt>
      <trkpt lat="46.073" lon="4.74411">
        <ele>174</ele>
        <time>2018-05-09T09:24:50Z</time>
      </trkpt>
      <trkpt lat="46.07302" lon="4.74422">
        <ele>175</ele>
        <time>2018-05-09T09:24:51Z</time>
      </trkpt>
      <trkpt lat="46.07304" lon="4.74432">
        <ele>175</ele>
        <time>2018-05-09T09:24:52Z</time>
      </trkpt>
      <trkpt lat="46.07307" lon="4.74441">
        <ele>175</ele>
        <time>2018-05-09T09:24:53Z</time>
      </trkpt>
      <trkpt lat="46.07309" lon="4.74453">
        <ele>175</ele>
        <time>2018-05-09T09:24:54Z</time>
      </trkpt>
      <trkpt lat="46.07311" lon="4.74464">
        <ele>175</ele>
        <time>2018-05-09T09:24:55Z</time>
      </trkpt>
      <trkpt lat="46.07314" lon="4.74474">
        <ele>175</ele>
        <time>2018-05-09T09:24:56Z</time>
      </trkpt>
      <trkpt lat="46.07317" lon="4.74486">
        <ele>175</ele>
        <time>2018-05-09T09:24:57Z</time>
      </trkpt>
      <trkpt lat="46.0732" lon="4.74496">
        <ele>175</ele>
        <time>2018-05-09T09:24:58Z</time>
      </trkpt>
      <trkpt lat="46.07324" lon="4.74503">
        <ele>176</ele>
        <time>2018-05-09T09:24:59Z</time>
      </trkpt>
      <trkpt lat="46.07329" lon="4.74512">
        <ele>176</ele>
        <time>2018-05-09T09:25:00Z</time>
      </trkpt>
      <trkpt lat="46.07334" lon="4.74521">
        <ele>175</ele>
        <time>2018-05-09T09:25:01Z</time>
      </trkpt>
      <trkpt lat="46.07338" lon="4.74528">
        <ele>175</ele>
        <time>2018-05-09T09:25:02Z</time>
      </trkpt>
      <trkpt lat="46.07344" lon="4.74535">
        <ele>175</ele>
        <time>2018-05-09T09:25:03Z</time>
      </trkpt>
      <trkpt lat="46.07349" lon="4.74542">
        <ele>175</ele>
        <time>2018-05-09T09:25:04Z</time>
      </trkpt>
      <trkpt lat="46.07354" lon="4.74549">
        <ele>175</ele>
        <time>2018-05-09T09:25:05Z</time>
      </trkpt>
      <trkpt lat="46.07358" lon="4.74557">
        <ele>175</ele>
        <time>2018-05-09T09:25:06Z</time>
      </trkpt>
      <trkpt lat="46.07365" lon="4.74563">
        <ele>175</ele>
        <time>2018-05-09T09:25:07Z</time>
      </trkpt>
      <trkpt lat="46.07369" lon="4.74572">
        <ele>175</ele>
        <time>2018-05-09T09:25:08Z</time>
      </trkpt>
      <trkpt lat="46.07373" lon="4.7458">
        <ele>175</ele>
        <time>2018-05-09T09:25:09Z</time>
      </trkpt>
      <trkpt lat="46.07377" lon="4.74588">
        <ele>174</ele>
        <time>2018-05-09T09:25:10Z</time>
      </trkpt>
      <trkpt lat="46.07379" lon="4.74597">
        <ele>174</ele>
        <time>2018-05-09T09:25:11Z</time>
      </trkpt>
      <trkpt lat="46.07382" lon="4.74606">
        <ele>174</ele>
        <time>2018-05-09T09:25:12Z</time>
      </trkpt>
      <trkpt lat="46.07386" lon="4.74615">
        <ele>174</ele>
        <time>2018-05-09T09:25:13Z</time>
      </trkpt>
      <trkpt lat="46.07392" lon="4.74624">
        <ele>174</ele>
        <time>2018-05-09T09:25:14Z</time>
      </trkpt>
      <trkpt lat="46.07398" lon="4.74638">
        <ele>174</ele>
        <time>2018-05-09T09:25:15Z</time>
      </trkpt>
      <trkpt lat="46.07402" lon="4.74646">
        <ele>173</ele>
        <time>2018-05-09T09:25:16Z</time>
      </trkpt>
      <trkpt lat="46.07407" lon="4.74653">
        <ele>173</ele>
        <time>2018-05-09T09:25:17Z</time>
      </trkpt>
      <trkpt lat="46.07411" lon="4.74663">
        <ele>173</ele>
        <time>2018-05-09T09:25:18Z</time>
      </trkpt>
      <trkpt lat="46.07415" lon="4.7467">
        <ele>172</ele>
        <time>2018-05-09T09:25:19Z</time>
      </trkpt>
      <trkpt lat="46.07419" lon="4.74678">
        <ele>172</ele>
        <time>2018-05-09T09:25:20Z</time>
      </trkpt>
      <trkpt lat="46.07423" lon="4.74687">
        <ele>172</ele>
        <time>2018-05-09T09:25:21Z</time>
      </trkpt>
      <trkpt lat="46.07427" lon="4.74697">
        <ele>173</ele>
        <time>2018-05-09T09:25:22Z</time>
      </trkpt>
      <trkpt lat="46.07431" lon="4.74705">
        <ele>173</ele>
        <time>2018-05-09T09:25:23Z</time>
      </trkpt>
      <trkpt lat="46.07435" lon="4.74713">
        <ele>173</ele>
        <time>2018-05-09T09:25:24Z</time>
      </trkpt>
      <trkpt lat="46.0744" lon="4.7472">
        <ele>173</ele>
        <time>2018-05-09T09:25:25Z</time>
      </trkpt>
      <trkpt lat="46.07444" lon="4.74727">
        <ele>173</ele>
        <time>2018-05-09T09:25:26Z</time>
      </trkpt>
      <trkpt lat="46.07449" lon="4.74734">
        <ele>173</ele>
        <time>2018-05-09T09:25:27Z</time>
      </trkpt>
      <trkpt lat="46.07453" lon="4.7474">
        <ele>173</ele>
        <time>2018-05-09T09:25:28Z</time>
      </trkpt>
      <trkpt lat="46.07457" lon="4.74748">
        <ele>173</ele>
        <time>2018-05-09T09:25:29Z</time>
      </trkpt>
      <trkpt lat="46.07462" lon="4.74753">
        <ele>173</ele>
        <time>2018-05-09T09:25:30Z</time>
      </trkpt>
      <trkpt lat="46.07467" lon="4.74758">
        <ele>173</ele>
        <time>2018-05-09T09:25:31Z</time>
      </trkpt>
      <trkpt lat="46.07473" lon="4.74764">
        <ele>173</ele>
        <time>2018-05-09T09:25:32Z</time>
      </trkpt>
      <trkpt lat="46.07479" lon="4.74769">
        <ele>173</ele>
        <time>2018-05-09T09:25:33Z</time>
      </trkpt>
      <trkpt lat="46.07484" lon="4.74776">
        <ele>173</ele>
        <time>2018-05-09T09:25:34Z</time>
      </trkpt>
      <trkpt lat="46.07489" lon="4.74782">
        <ele>173</ele>
        <time>2018-05-09T09:25:35Z</time>
      </trkpt>
      <trkpt lat="46.07495" lon="4.74787">
        <ele>173</ele>
        <time>2018-05-09T09:25:36Z</time>
      </trkpt>
      <trkpt lat="46.075" lon="4.74792">
        <ele>172</ele>
        <time>2018-05-09T09:25:37Z</time>
      </trkpt>
      <trkpt lat="46.07506" lon="4.74797">
        <ele>172</ele>
        <time>2018-05-09T09:25:38Z</time>
      </trkpt>
      <trkpt lat="46.07512" lon="4.74801">
        <ele>172</ele>
        <time>2018-05-09T09:25:39Z</time>
      </trkpt>
      <trkpt lat="46.07518" lon="4.74806">
        <ele>172</ele>
        <time>2018-05-09T09:25:40Z</time>
      </trkpt>
      <trkpt lat="46.07523" lon="4.7481">
        <ele>172</ele>
        <time>2018-05-09T09:25:41Z</time>
      </trkpt>
      <trkpt lat="46.07528" lon="4.74815">
        <ele>172</ele>
        <time>2018-05-09T09:25:42Z</time>
      </trkpt>
      <trkpt lat="46.07534" lon="4.7482">
        <ele>172</ele>
        <time>2018-05-09T09:25:43Z</time>
      </trkpt>
      <trkpt lat="46.0754" lon="4.74824">
        <ele>172</ele>
        <time>2018-05-09T09:25:44Z</time>
      </trkpt>
      <trkpt lat="46.07546" lon="4.74828">
        <ele>172</ele>
        <time>2018-05-09T09:25:45Z</time>
      </trkpt>
      <trkpt lat="46.07551" lon="4.74831">
        <ele>172</ele>
        <time>2018-05-09T09:25:46Z</time>
      </trkpt>
      <trkpt lat="46.07557" lon="4.74836">
        <ele>171</ele>
        <time>2018-05-09T09:25:47Z</time>
      </trkpt>
      <trkpt lat="46.07563" lon="4.7484">
        <ele>171</ele>
        <time>2018-05-09T09:25:48Z</time>
      </trkpt>
      <trkpt lat="46.07568" lon="4.74845">
        <ele>171</ele>
        <time>2018-05-09T09:25:49Z</time>
      </trkpt>
      <trkpt lat="46.07574" lon="4.7485">
        <ele>171</ele>
        <time>2018-05-09T09:25:50Z</time>
      </trkpt>
      <trkpt lat="46.0758" lon="4.74854">
        <ele>171</ele>
        <time>2018-05-09T09:25:51Z</time>
      </trkpt>
      <trkpt lat="46.07585" lon="4.74859">
        <ele>171</ele>
        <time>2018-05-09T09:25:52Z</time>
      </trkpt>
      <trkpt lat="46.07591" lon="4.74864">
        <ele>171</ele>
        <time>2018-05-09T09:25:53Z</time>
      </trkpt>
      <trkpt lat="46.07596" lon="4.74868">
        <ele>171</ele>
        <time>2018-05-09T09:25:54Z</time>
      </trkpt>
      <trkpt lat="46.07601" lon="4.74871">
        <ele>171</ele>
        <time>2018-05-09T09:25:55Z</time>
      </trkpt>
      <trkpt lat="46.07607" lon="4.74876">
        <ele>171</ele>
        <time>2018-05-09T09:25:56Z</time>
      </trkpt>
      <trkpt lat="46.07612" lon="4.74882">
        <ele>171</ele>
        <time>2018-05-09T09:25:57Z</time>
      </trkpt>
      <trkpt lat="46.07618" lon="4.74886">
        <ele>171</ele>
        <time>2018-05-09T09:25:58Z</time>
      </trkpt>
      <trkpt lat="46.07623" lon="4.74892">
        <ele>171</ele>
        <time>2018-05-09T09:25:59Z</time>
      </trkpt>
      <trkpt lat="46.07629" lon="4.74896">
        <ele>171</ele>
        <time>2018-05-09T09:26:00Z</time>
      </trkpt>
      <trkpt lat="46.07635" lon="4.74901">
        <ele>171</ele>
        <time>2018-05-09T09:26:01Z</time>
      </trkpt>
      <trkpt lat="46.0764" lon="4.74905">
        <ele>171</ele>
        <time>2018-05-09T09:26:02Z</time>
      </trkpt>
      <trkpt lat="46.07645" lon="4.74909">
        <ele>171</ele>
        <time>2018-05-09T09:26:03Z</time>
      </trkpt>
      <trkpt lat="46.07651" lon="4.74914">
        <ele>171</ele>
        <time>2018-05-09T09:26:04Z</time>
      </trkpt>
      <trkpt lat="46.07657" lon="4.74919">
        <ele>172</ele>
        <time>2018-05-09T09:26:05Z</time>
      </trkpt>
      <trkpt lat="46.07662" lon="4.74923">
        <ele>172</ele>
        <time>2018-05-09T09:26:06Z</time>
      </trkpt>
      <trkpt lat="46.07668" lon="4.74928">
        <ele>172</ele>
        <time>2018-05-09T09:26:07Z</time>
      </trkpt>
      <trkpt lat="46.07674" lon="4.74931">
        <ele>172</ele>
        <time>2018-05-09T09:26:08Z</time>
      </trkpt>
      <trkpt lat="46.0768" lon="4.74935">
        <ele>172</ele>
        <time>2018-05-09T09:26:09Z</time>
      </trkpt>
      <trkpt lat="46.07684" lon="4.7494">
        <ele>172</ele>
        <time>2018-05-09T09:26:10Z</time>
      </trkpt>
      <trkpt lat="46.0769" lon="4.74943">
        <ele>172</ele>
        <time>2018-05-09T09:26:11Z</time>
      </trkpt>
      <trkpt lat="46.07694" lon="4.74948">
        <ele>172</ele>
        <time>2018-05-09T09:26:12Z</time>
      </trkpt>
      <trkpt lat="46.07698" lon="4.7495">
        <ele>172</ele>
        <time>2018-05-09T09:26:13Z</time>
      </trkpt>
      <trkpt lat="46.07704" lon="4.74954">
        <ele>172</ele>
        <time>2018-05-09T09:26:14Z</time>
      </trkpt>
      <trkpt lat="46.0771" lon="4.74961">
        <ele>172</ele>
        <time>2018-05-09T09:26:15Z</time>
      </trkpt>
      <trkpt lat="46.07715" lon="4.74965">
        <ele>172</ele>
        <time>2018-05-09T09:26:16Z</time>
      </trkpt>
      <trkpt lat="46.0772" lon="4.7497">
        <ele>172</ele>
        <time>2018-05-09T09:26:17Z</time>
      </trkpt>
      <trkpt lat="46.07726" lon="4.74975">
        <ele>172</ele>
        <time>2018-05-09T09:26:18Z</time>
      </trkpt>
      <trkpt lat="46.07732" lon="4.74981">
        <ele>172</ele>
        <time>2018-05-09T09:26:19Z</time>
      </trkpt>
      <trkpt lat="46.07737" lon="4.74985">
        <ele>173</ele>
        <time>2018-05-09T09:26:20Z</time>
      </trkpt>
      <trkpt lat="46.07743" lon="4.7499">
        <ele>173</ele>
        <time>2018-05-09T09:26:21Z</time>
      </trkpt>
      <trkpt lat="46.07749" lon="4.74995">
        <ele>173</ele>
        <time>2018-05-09T09:26:22Z</time>
      </trkpt>
      <trkpt lat="46.07754" lon="4.74999">
        <ele>173</ele>
        <time>2018-05-09T09:26:23Z</time>
      </trkpt>
      <trkpt lat="46.0776" lon="4.75005">
        <ele>172</ele>
        <time>2018-05-09T09:26:24Z</time>
      </trkpt>
      <trkpt lat="46.07765" lon="4.75009">
        <ele>172</ele>
        <time>2018-05-09T09:26:25Z</time>
      </trkpt>
      <trkpt lat="46.0777" lon="4.75013">
        <ele>172</ele>
        <time>2018-05-09T09:26:26Z</time>
      </trkpt>
      <trkpt lat="46.07776" lon="4.75017">
        <ele>172</ele>
        <time>2018-05-09T09:26:27Z</time>
      </trkpt>
      <trkpt lat="46.07782" lon="4.75021">
        <ele>172</ele>
        <time>2018-05-09T09:26:28Z</time>
      </trkpt>
      <trkpt lat="46.07788" lon="4.75025">
        <ele>172</ele>
        <time>2018-05-09T09:26:29Z</time>
      </trkpt>
      <trkpt lat="46.07794" lon="4.75028">
        <ele>171</ele>
        <time>2018-05-09T09:26:30Z</time>
      </trkpt>
      <trkpt lat="46.078" lon="4.75033">
        <ele>171</ele>
        <time>2018-05-09T09:26:31Z</time>
      </trkpt>
      <trkpt lat="46.07805" lon="4.75037">
        <ele>171</ele>
        <time>2018-05-09T09:26:32Z</time>
      </trkpt>
      <trkpt lat="46.0781" lon="4.75042">
        <ele>171</ele>
        <time>2018-05-09T09:26:33Z</time>
      </trkpt>
      <trkpt lat="46.07818" lon="4.75043">
        <ele>171</ele>
        <time>2018-05-09T09:26:34Z</time>
      </trkpt>
      <trkpt lat="46.07823" lon="4.75048">
        <ele>171</ele>
        <time>2018-05-09T09:26:35Z</time>
      </trkpt>
      <trkpt lat="46.07828" lon="4.75053">
        <ele>171</ele>
        <time>2018-05-09T09:26:36Z</time>
      </trkpt>
      <trkpt lat="46.07833" lon="4.75059">
        <ele>171</ele>
        <time>2018-05-09T09:26:37Z</time>
      </trkpt>
      <trkpt lat="46.07839" lon="4.75065">
        <ele>171</ele>
        <time>2018-05-09T09:26:38Z</time>
      </trkpt>
      <trkpt lat="46.07843" lon="4.75071">
        <ele>171</ele>
        <time>2018-05-09T09:26:39Z</time>
      </trkpt>
      <trkpt lat="46.07847" lon="4.75077">
        <ele>171</ele>
        <time>2018-05-09T09:26:40Z</time>
      </trkpt>
      <trkpt lat="46.07852" lon="4.75084">
        <ele>171</ele>
        <time>2018-05-09T09:26:41Z</time>
      </trkpt>
      <trkpt lat="46.07856" lon="4.75089">
        <ele>171</ele>
        <time>2018-05-09T09:26:42Z</time>
      </trkpt>
      <trkpt lat="46.07861" lon="4.75095">
        <ele>171</ele>
        <time>2018-05-09T09:26:43Z</time>
      </trkpt>
      <trkpt lat="46.07864" lon="4.75101">
        <ele>171</ele>
        <time>2018-05-09T09:26:44Z</time>
      </trkpt>
      <trkpt lat="46.07868" lon="4.75108">
        <ele>171</ele>
        <time>2018-05-09T09:26:45Z</time>
      </trkpt>
      <trkpt lat="46.07872" lon="4.75115">
        <ele>171</ele>
        <time>2018-05-09T09:26:46Z</time>
      </trkpt>
      <trkpt lat="46.07875" lon="4.75122">
        <ele>171</ele>
        <time>2018-05-09T09:26:47Z</time>
      </trkpt>
      <trkpt lat="46.07879" lon="4.75129">
        <ele>171</ele>
        <time>2018-05-09T09:26:48Z</time>
      </trkpt>
      <trkpt lat="46.07883" lon="4.75137">
        <ele>171</ele>
        <time>2018-05-09T09:26:49Z</time>
      </trkpt>
      <trkpt lat="46.07887" lon="4.75144">
        <ele>171</ele>
        <time>2018-05-09T09:26:50Z</time>
      </trkpt>
      <trkpt lat="46.07891" lon="4.75152">
        <ele>171</ele>
        <time>2018-05-09T09:26:51Z</time>
      </trkpt>
      <trkpt lat="46.07895" lon="4.7516">
        <ele>171</ele>
        <time>2018-05-09T09:26:52Z</time>
      </trkpt>
      <trkpt lat="46.07899" lon="4.75166">
        <ele>171</ele>
        <time>2018-05-09T09:26:53Z</time>
      </trkpt>
      <trkpt lat="46.07903" lon="4.75173">
        <ele>172</ele>
        <time>2018-05-09T09:26:54Z</time>
      </trkpt>
      <trkpt lat="46.07907" lon="4.7518">
        <ele>171</ele>
        <time>2018-05-09T09:26:55Z</time>
      </trkpt>
      <trkpt lat="46.07911" lon="4.75187">
        <ele>171</ele>
        <time>2018-05-09T09:26:56Z</time>
      </trkpt>
      <trkpt lat="46.07915" lon="4.75195">
        <ele>171</ele>
        <time>2018-05-09T09:26:57Z</time>
      </trkpt>
      <trkpt lat="46.07919" lon="4.75202">
        <ele>171</ele>
        <time>2018-05-09T09:26:58Z</time>
      </trkpt>
      <trkpt lat="46.07922" lon="4.7521">
        <ele>171</ele>
        <time>2018-05-09T09:26:59Z</time>
      </trkpt>
      <trkpt lat="46.07926" lon="4.75218">
        <ele>171</ele>
        <time>2018-05-09T09:27:00Z</time>
      </trkpt>
      <trkpt lat="46.0793" lon="4.75226">
        <ele>171</ele>
        <time>2018-05-09T09:27:01Z</time>
      </trkpt>
      <trkpt lat="46.07933" lon="4.75234">
        <ele>170</ele>
        <time>2018-05-09T09:27:02Z</time>
      </trkpt>
      <trkpt lat="46.07936" lon="4.75243">
        <ele>170</ele>
        <time>2018-05-09T09:27:03Z</time>
      </trkpt>
      <trkpt lat="46.0794" lon="4.75251">
        <ele>170</ele>
        <time>2018-05-09T09:27:04Z</time>
      </trkpt>
      <trkpt lat="46.07943" lon="4.75259">
        <ele>170</ele>
        <time>2018-05-09T09:27:05Z</time>
      </trkpt>
      <trkpt lat="46.07947" lon="4.75267">
        <ele>169</ele>
        <time>2018-05-09T09:27:06Z</time>
      </trkpt>
      <trkpt lat="46.07951" lon="4.75276">
        <ele>169</ele>
        <time>2018-05-09T09:27:07Z</time>
      </trkpt>
      <trkpt lat="46.07954" lon="4.75285">
        <ele>169</ele>
        <time>2018-05-09T09:27:08Z</time>
      </trkpt>
      <trkpt lat="46.07957" lon="4.75293">
        <ele>169</ele>
        <time>2018-05-09T09:27:09Z</time>
      </trkpt>
      <trkpt lat="46.07961" lon="4.75301">
        <ele>169</ele>
        <time>2018-05-09T09:27:10Z</time>
      </trkpt>
      <trkpt lat="46.07964" lon="4.75309">
        <ele>169</ele>
        <time>2018-05-09T09:27:11Z</time>
      </trkpt>
      <trkpt lat="46.07968" lon="4.75316">
        <ele>169</ele>
        <time>2018-05-09T09:27:12Z</time>
      </trkpt>
      <trkpt lat="46.07972" lon="4.75323">
        <ele>169</ele>
        <time>2018-05-09T09:27:13Z</time>
      </trkpt>
      <trkpt lat="46.07975" lon="4.75331">
        <ele>169</ele>
        <time>2018-05-09T09:27:14Z</time>
      </trkpt>
      <trkpt lat="46.07979" lon="4.75339">
        <ele>168</ele>
        <time>2018-05-09T09:27:15Z</time>
      </trkpt>
      <trkpt lat="46.07983" lon="4.75347">
        <ele>168</ele>
        <time>2018-05-09T09:27:16Z</time>
      </trkpt>
      <trkpt lat="46.07986" lon="4.75355">
        <ele>168</ele>
        <time>2018-05-09T09:27:17Z</time>
      </trkpt>
      <trkpt lat="46.07989" lon="4.75362">
        <ele>168</ele>
        <time>2018-05-09T09:27:18Z</time>
      </trkpt>
      <trkpt lat="46.07993" lon="4.7537">
        <ele>168</ele>
        <time>2018-05-09T09:27:19Z</time>
      </trkpt>
      <trkpt lat="46.07995" lon="4.75377">
        <ele>168</ele>
        <time>2018-05-09T09:27:20Z</time>
      </trkpt>
      <trkpt lat="46.07998" lon="4.75383">
        <ele>167</ele>
        <time>2018-05-09T09:27:21Z</time>
      </trkpt>
      <trkpt lat="46.08" lon="4.75389">
        <ele>167</ele>
        <time>2018-05-09T09:27:22Z</time>
      </trkpt>
      <trkpt lat="46.08003" lon="4.75395">
        <ele>167</ele>
        <time>2018-05-09T09:27:23Z</time>
      </trkpt>
      <trkpt lat="46.08006" lon="4.75401">
        <ele>166</ele>
        <time>2018-05-09T09:27:24Z</time>
      </trkpt>
      <trkpt lat="46.08008" lon="4.75407">
        <ele>166</ele>
        <time>2018-05-09T09:27:25Z</time>
      </trkpt>
      <trkpt lat="46.08012" lon="4.75418">
        <ele>166</ele>
        <time>2018-05-09T09:27:27Z</time>
      </trkpt>
      <trkpt lat="46.08014" lon="4.75423">
        <ele>166</ele>
        <time>2018-05-09T09:27:28Z</time>
      </trkpt>
      <trkpt lat="46.08017" lon="4.75429">
        <ele>166</ele>
        <time>2018-05-09T09:27:29Z</time>
      </trkpt>
      <trkpt lat="46.0802" lon="4.75434">
        <ele>166</ele>
        <time>2018-05-09T09:27:30Z</time>
      </trkpt>
      <trkpt lat="46.08021" lon="4.7544">
        <ele>166</ele>
        <time>2018-05-09T09:27:31Z</time>
      </trkpt>
      <trkpt lat="46.08025" lon="4.75445">
        <ele>166</ele>
        <time>2018-05-09T09:27:32Z</time>
      </trkpt>
      <trkpt lat="46.08029" lon="4.75455">
        <ele>166</ele>
        <time>2018-05-09T09:27:34Z</time>
      </trkpt>
      <trkpt lat="46.08032" lon="4.75461">
        <ele>166</ele>
        <time>2018-05-09T09:27:35Z</time>
      </trkpt>
      <trkpt lat="46.08034" lon="4.75466">
        <ele>166</ele>
        <time>2018-05-09T09:27:36Z</time>
      </trkpt>
      <trkpt lat="46.08037" lon="4.75471">
        <ele>166</ele>
        <time>2018-05-09T09:27:37Z</time>
      </trkpt>
      <trkpt lat="46.08041" lon="4.75478">
        <ele>166</ele>
        <time>2018-05-09T09:27:39Z</time>
      </trkpt>
      <trkpt lat="46.08045" lon="4.75486">
        <ele>166</ele>
        <time>2018-05-09T09:27:40Z</time>
      </trkpt>
      <trkpt lat="46.0805" lon="4.75496">
        <ele>166</ele>
        <time>2018-05-09T09:27:42Z</time>
      </trkpt>
      <trkpt lat="46.08052" lon="4.75502">
        <ele>167</ele>
        <time>2018-05-09T09:27:43Z</time>
      </trkpt>
      <trkpt lat="46.08055" lon="4.75509">
        <ele>167</ele>
        <time>2018-05-09T09:27:44Z</time>
      </trkpt>
      <trkpt lat="46.08059" lon="4.75515">
        <ele>167</ele>
        <time>2018-05-09T09:27:45Z</time>
      </trkpt>
      <trkpt lat="46.08061" lon="4.75523">
        <ele>168</ele>
        <time>2018-05-09T09:27:46Z</time>
      </trkpt>
      <trkpt lat="46.08064" lon="4.75529">
        <ele>168</ele>
        <time>2018-05-09T09:27:47Z</time>
      </trkpt>
      <trkpt lat="46.08067" lon="4.75536">
        <ele>168</ele>
        <time>2018-05-09T09:27:48Z</time>
      </trkpt>
      <trkpt lat="46.08071" lon="4.75542">
        <ele>169</ele>
        <time>2018-05-09T09:27:49Z</time>
      </trkpt>
      <trkpt lat="46.08074" lon="4.75549">
        <ele>169</ele>
        <time>2018-05-09T09:27:50Z</time>
      </trkpt>
      <trkpt lat="46.08078" lon="4.75555">
        <ele>170</ele>
        <time>2018-05-09T09:27:51Z</time>
      </trkpt>
      <trkpt lat="46.08081" lon="4.75561">
        <ele>170</ele>
        <time>2018-05-09T09:27:52Z</time>
      </trkpt>
      <trkpt lat="46.08083" lon="4.75568">
        <ele>171</ele>
        <time>2018-05-09T09:27:53Z</time>
      </trkpt>
      <trkpt lat="46.08086" lon="4.75573">
        <ele>173</ele>
        <time>2018-05-09T09:27:54Z</time>
      </trkpt>
      <trkpt lat="46.08089" lon="4.75578">
        <ele>173</ele>
        <time>2018-05-09T09:27:55Z</time>
      </trkpt>
      <trkpt lat="46.08092" lon="4.75585">
        <ele>174</ele>
        <time>2018-05-09T09:27:57Z</time>
      </trkpt>
      <trkpt lat="46.0809" lon="4.75592">
        <ele>174</ele>
        <time>2018-05-09T09:27:58Z</time>
      </trkpt>
      <trkpt lat="46.08084" lon="4.756">
        <ele>175</ele>
        <time>2018-05-09T09:28:00Z</time>
      </trkpt>
      <trkpt lat="46.0808" lon="4.75606">
        <ele>173</ele>
        <time>2018-05-09T09:28:01Z</time>
      </trkpt>
      <trkpt lat="46.08076" lon="4.75611">
        <ele>173</ele>
        <time>2018-05-09T09:28:02Z</time>
      </trkpt>
      <trkpt lat="46.08074" lon="4.75617">
        <ele>173</ele>
        <time>2018-05-09T09:28:03Z</time>
      </trkpt>
      <trkpt lat="46.08068" lon="4.75623">
        <ele>174</ele>
        <time>2018-05-09T09:28:05Z</time>
      </trkpt>
      <trkpt lat="46.08064" lon="4.75627">
        <ele>174</ele>
        <time>2018-05-09T09:28:06Z</time>
      </trkpt>
      <trkpt lat="46.08056" lon="4.75632">
        <ele>174</ele>
        <time>2018-05-09T09:28:17Z</time>
      </trkpt>
      <trkpt lat="46.08055" lon="4.75632">
        <ele>174</ele>
        <time>2018-05-09T09:28:18Z</time>
      </trkpt>
      <trkpt lat="46.08054" lon="4.75619">
        <ele>173</ele>
        <time>2018-05-09T09:29:22Z</time>
      </trkpt>
      <trkpt lat="46.08054" lon="4.75619">
        <ele>173</ele>
        <time>2018-05-09T09:29:23Z</time>
      </trkpt>
      <trkpt lat="46.08053" lon="4.75619">
        <ele>173</ele>
        <time>2018-05-09T09:30:40Z</time>
      </trkpt>
      <trkpt lat="46.08053" lon="4.75619">
        <ele>173</ele>
        <time>2018-05-09T09:30:41Z</time>
      </trkpt>
      <trkpt lat="46.0805" lon="4.75622">
        <ele>173</ele>
        <time>2018-05-09T09:36:05Z</time>
      </trkpt>
      <trkpt lat="46.0805" lon="4.75622">
        <ele>173</ele>
        <time>2018-05-09T09:36:06Z</time>
      </trkpt>
      <trkpt lat="46.08049" lon="4.75622">
        <ele>173</ele>
        <time>2018-05-09T09:37:18Z</time>
      </trkpt>
      <trkpt lat="46.08049" lon="4.75623">
        <ele>173</ele>
        <time>2018-05-09T09:37:19Z</time>
      </trkpt>
      <trkpt lat="46.08049" lon="4.75623">
        <ele>173</ele>
        <time>2018-05-09T09:37:22Z</time>
      </trkpt>
      <trkpt lat="46.08049" lon="4.75624">
        <ele>173</ele>
        <time>2018-05-09T09:37:23Z</time>
      </trkpt>
      <trkpt lat="46.08043" lon="4.75632">
        <ele>173</ele>
        <time>2018-05-09T09:37:50Z</time>
      </trkpt>
      <trkpt lat="46.08042" lon="4.75633">
        <ele>173</ele>
        <time>2018-05-09T09:37:51Z</time>
      </trkpt>
      <trkpt lat="46.08036" lon="4.75639">
        <ele>173</ele>
        <time>2018-05-09T09:37:56Z</time>
      </trkpt>
      <trkpt lat="46.08031" lon="4.75644">
        <ele>174</ele>
        <time>2018-05-09T09:37:57Z</time>
      </trkpt>
      <trkpt lat="46.08024" lon="4.75651">
        <ele>174</ele>
        <time>2018-05-09T09:38:00Z</time>
      </trkpt>
      <trkpt lat="46.08022" lon="4.75652">
        <ele>174</ele>
        <time>2018-05-09T09:38:01Z</time>
      </trkpt>
      <trkpt lat="46.08016" lon="4.75652">
        <ele>174</ele>
        <time>2018-05-09T09:38:03Z</time>
      </trkpt>
      <trkpt lat="46.08013" lon="4.75653">
        <ele>174</ele>
        <time>2018-05-09T09:38:04Z</time>
      </trkpt>
      <trkpt lat="46.08006" lon="4.75657">
        <ele>175</ele>
        <time>2018-05-09T09:38:06Z</time>
      </trkpt>
      <trkpt lat="46.07997" lon="4.75664">
        <ele>175</ele>
        <time>2018-05-09T09:38:07Z</time>
      </trkpt>
      <trkpt lat="46.07993" lon="4.75666">
        <ele>174</ele>
        <time>2018-05-09T09:38:08Z</time>
      </trkpt>
      <trkpt lat="46.07987" lon="4.7567">
        <ele>175</ele>
        <time>2018-05-09T09:38:09Z</time>
      </trkpt>
      <trkpt lat="46.07983" lon="4.75673">
        <ele>174</ele>
        <time>2018-05-09T09:38:10Z</time>
      </trkpt>
      <trkpt lat="46.07979" lon="4.75677">
        <ele>174</ele>
        <time>2018-05-09T09:38:11Z</time>
      </trkpt>
      <trkpt lat="46.07974" lon="4.75681">
        <ele>173</ele>
        <time>2018-05-09T09:38:12Z</time>
      </trkpt>
      <trkpt lat="46.0797" lon="4.75685">
        <ele>173</ele>
        <time>2018-05-09T09:38:13Z</time>
      </trkpt>
      <trkpt lat="46.07965" lon="4.75689">
        <ele>173</ele>
        <time>2018-05-09T09:38:14Z</time>
      </trkpt>
      <trkpt lat="46.07961" lon="4.75694">
        <ele>173</ele>
        <time>2018-05-09T09:38:15Z</time>
      </trkpt>
      <trkpt lat="46.07956" lon="4.75699">
        <ele>173</ele>
        <time>2018-05-09T09:38:16Z</time>
      </trkpt>
      <trkpt lat="46.07952" lon="4.75703">
        <ele>173</ele>
        <time>2018-05-09T09:38:17Z</time>
      </trkpt>
      <trkpt lat="46.07947" lon="4.75707">
        <ele>173</ele>
        <time>2018-05-09T09:38:18Z</time>
      </trkpt>
      <trkpt lat="46.07943" lon="4.75711">
        <ele>172</ele>
        <time>2018-05-09T09:38:19Z</time>
      </trkpt>
      <trkpt lat="46.07936" lon="4.75717">
        <ele>172</ele>
        <time>2018-05-09T09:38:21Z</time>
      </trkpt>
      <trkpt lat="46.07932" lon="4.7572">
        <ele>172</ele>
        <time>2018-05-09T09:38:22Z</time>
      </trkpt>
      <trkpt lat="46.07927" lon="4.75724">
        <ele>173</ele>
        <time>2018-05-09T09:38:23Z</time>
      </trkpt>
      <trkpt lat="46.07923" lon="4.75728">
        <ele>173</ele>
        <time>2018-05-09T09:38:24Z</time>
      </trkpt>
      <trkpt lat="46.07919" lon="4.75733">
        <ele>173</ele>
        <time>2018-05-09T09:38:25Z</time>
      </trkpt>
      <trkpt lat="46.07915" lon="4.75737">
        <ele>171</ele>
        <time>2018-05-09T09:38:26Z</time>
      </trkpt>
      <trkpt lat="46.0791" lon="4.75742">
        <ele>171</ele>
        <time>2018-05-09T09:38:27Z</time>
      </trkpt>
      <trkpt lat="46.07906" lon="4.75746">
        <ele>171</ele>
        <time>2018-05-09T09:38:28Z</time>
      </trkpt>
      <trkpt lat="46.07901" lon="4.75751">
        <ele>172</ele>
        <time>2018-05-09T09:38:29Z</time>
      </trkpt>
      <trkpt lat="46.07896" lon="4.75756">
        <ele>172</ele>
        <time>2018-05-09T09:38:30Z</time>
      </trkpt>
      <trkpt lat="46.07891" lon="4.75761">
        <ele>172</ele>
        <time>2018-05-09T09:38:31Z</time>
      </trkpt>
      <trkpt lat="46.07886" lon="4.75765">
        <ele>171</ele>
        <time>2018-05-09T09:38:32Z</time>
      </trkpt>
      <trkpt lat="46.07881" lon="4.75769">
        <ele>171</ele>
        <time>2018-05-09T09:38:33Z</time>
      </trkpt>
      <trkpt lat="46.07876" lon="4.75774">
        <ele>171</ele>
        <time>2018-05-09T09:38:34Z</time>
      </trkpt>
      <trkpt lat="46.07871" lon="4.75777">
        <ele>171</ele>
        <time>2018-05-09T09:38:35Z</time>
      </trkpt>
      <trkpt lat="46.07865" lon="4.75781">
        <ele>171</ele>
        <time>2018-05-09T09:38:36Z</time>
      </trkpt>
      <trkpt lat="46.0786" lon="4.75785">
        <ele>171</ele>
        <time>2018-05-09T09:38:37Z</time>
      </trkpt>
      <trkpt lat="46.07856" lon="4.75791">
        <ele>171</ele>
        <time>2018-05-09T09:38:38Z</time>
      </trkpt>
      <trkpt lat="46.07851" lon="4.75796">
        <ele>171</ele>
        <time>2018-05-09T09:38:39Z</time>
      </trkpt>
      <trkpt lat="46.07845" lon="4.758">
        <ele>171</ele>
        <time>2018-05-09T09:38:40Z</time>
      </trkpt>
      <trkpt lat="46.0784" lon="4.75806">
        <ele>172</ele>
        <time>2018-05-09T09:38:41Z</time>
      </trkpt>
      <trkpt lat="46.07835" lon="4.75809">
        <ele>172</ele>
        <time>2018-05-09T09:38:42Z</time>
      </trkpt>
      <trkpt lat="46.0783" lon="4.75814">
        <ele>170</ele>
        <time>2018-05-09T09:38:43Z</time>
      </trkpt>
      <trkpt lat="46.07826" lon="4.75819">
        <ele>170</ele>
        <time>2018-05-09T09:38:44Z</time>
      </trkpt>
      <trkpt lat="46.07823" lon="4.75825">
        <ele>171</ele>
        <time>2018-05-09T09:38:45Z</time>
      </trkpt>
      <trkpt lat="46.07819" lon="4.75832">
        <ele>171</ele>
        <time>2018-05-09T09:38:46Z</time>
      </trkpt>
      <trkpt lat="46.07815" lon="4.75838">
        <ele>172</ele>
        <time>2018-05-09T09:38:47Z</time>
      </trkpt>
      <trkpt lat="46.0781" lon="4.75843">
        <ele>172</ele>
        <time>2018-05-09T09:38:48Z</time>
      </trkpt>
      <trkpt lat="46.07805" lon="4.75849">
        <ele>172</ele>
        <time>2018-05-09T09:38:49Z</time>
      </trkpt>
      <trkpt lat="46.078" lon="4.75854">
        <ele>172</ele>
        <time>2018-05-09T09:38:50Z</time>
      </trkpt>
      <trkpt lat="46.07795" lon="4.75858">
        <ele>172</ele>
        <time>2018-05-09T09:38:51Z</time>
      </trkpt>
      <trkpt lat="46.07792" lon="4.75862">
        <ele>172</ele>
        <time>2018-05-09T09:38:52Z</time>
      </trkpt>
      <trkpt lat="46.07787" lon="4.75867">
        <ele>172</ele>
        <time>2018-05-09T09:38:53Z</time>
      </trkpt>
      <trkpt lat="46.07781" lon="4.75872">
        <ele>172</ele>
        <time>2018-05-09T09:38:54Z</time>
      </trkpt>
      <trkpt lat="46.07776" lon="4.75878">
        <ele>172</ele>
        <time>2018-05-09T09:38:55Z</time>
      </trkpt>
      <trkpt lat="46.0777" lon="4.75882">
        <ele>172</ele>
        <time>2018-05-09T09:38:56Z</time>
      </trkpt>
      <trkpt lat="46.07765" lon="4.75887">
        <ele>172</ele>
        <time>2018-05-09T09:38:57Z</time>
      </trkpt>
      <trkpt lat="46.07759" lon="4.75893">
        <ele>173</ele>
        <time>2018-05-09T09:38:58Z</time>
      </trkpt>
      <trkpt lat="46.07754" lon="4.75898">
        <ele>173</ele>
        <time>2018-05-09T09:38:59Z</time>
      </trkpt>
      <trkpt lat="46.07748" lon="4.75903">
        <ele>171</ele>
        <time>2018-05-09T09:39:00Z</time>
      </trkpt>
      <trkpt lat="46.07743" lon="4.75908">
        <ele>172</ele>
        <time>2018-05-09T09:39:01Z</time>
      </trkpt>
      <trkpt lat="46.07737" lon="4.75912">
        <ele>171</ele>
        <time>2018-05-09T09:39:02Z</time>
      </trkpt>
      <trkpt lat="46.07732" lon="4.75916">
        <ele>171</ele>
        <time>2018-05-09T09:39:03Z</time>
      </trkpt>
      <trkpt lat="46.07728" lon="4.75921">
        <ele>173</ele>
        <time>2018-05-09T09:39:04Z</time>
      </trkpt>
      <trkpt lat="46.07723" lon="4.75925">
        <ele>172</ele>
        <time>2018-05-09T09:39:05Z</time>
      </trkpt>
      <trkpt lat="46.07717" lon="4.7593">
        <ele>172</ele>
        <time>2018-05-09T09:39:06Z</time>
      </trkpt>
      <trkpt lat="46.07712" lon="4.75934">
        <ele>172</ele>
        <time>2018-05-09T09:39:07Z</time>
      </trkpt>
      <trkpt lat="46.07707" lon="4.75938">
        <ele>172</ele>
        <time>2018-05-09T09:39:08Z</time>
      </trkpt>
      <trkpt lat="46.07701" lon="4.75942">
        <ele>172</ele>
        <time>2018-05-09T09:39:09Z</time>
      </trkpt>
      <trkpt lat="46.07696" lon="4.75946">
        <ele>172</ele>
        <time>2018-05-09T09:39:10Z</time>
      </trkpt>
      <trkpt lat="46.0769" lon="4.75951">
        <ele>172</ele>
        <time>2018-05-09T09:39:11Z</time>
      </trkpt>
      <trkpt lat="46.07685" lon="4.75955">
        <ele>172</ele>
        <time>2018-05-09T09:39:12Z</time>
      </trkpt>
      <trkpt lat="46.07679" lon="4.7596">
        <ele>172</ele>
        <time>2018-05-09T09:39:13Z</time>
      </trkpt>
      <trkpt lat="46.07673" lon="4.75964">
        <ele>172</ele>
        <time>2018-05-09T09:39:14Z</time>
      </trkpt>
      <trkpt lat="46.07667" lon="4.75968">
        <ele>172</ele>
        <time>2018-05-09T09:39:15Z</time>
      </trkpt>
      <trkpt lat="46.07661" lon="4.75972">
        <ele>170</ele>
        <time>2018-05-09T09:39:16Z</time>
      </trkpt>
      <trkpt lat="46.07656" lon="4.75975">
        <ele>170</ele>
        <time>2018-05-09T09:39:17Z</time>
      </trkpt>
      <trkpt lat="46.07652" lon="4.75979">
        <ele>170</ele>
        <time>2018-05-09T09:39:18Z</time>
      </trkpt>
      <trkpt lat="46.07649" lon="4.75984">
        <ele>170</ele>
        <time>2018-05-09T09:39:19Z</time>
      </trkpt>
      <trkpt lat="46.07646" lon="4.7599">
        <ele>170</ele>
        <time>2018-05-09T09:39:20Z</time>
      </trkpt>
      <trkpt lat="46.07644" lon="4.76002">
        <ele>172</ele>
        <time>2018-05-09T09:39:22Z</time>
      </trkpt>
      <trkpt lat="46.07644" lon="4.76006">
        <ele>172</ele>
        <time>2018-05-09T09:39:23Z</time>
      </trkpt>
      <trkpt lat="46.07644" lon="4.76013">
        <ele>172</ele>
        <time>2018-05-09T09:39:24Z</time>
      </trkpt>
      <trkpt lat="46.07647" lon="4.76018">
        <ele>172</ele>
        <time>2018-05-09T09:39:25Z</time>
      </trkpt>
      <trkpt lat="46.07649" lon="4.76026">
        <ele>172</ele>
        <time>2018-05-09T09:39:26Z</time>
      </trkpt>
      <trkpt lat="46.07651" lon="4.76031">
        <ele>172</ele>
        <time>2018-05-09T09:39:27Z</time>
      </trkpt>
      <trkpt lat="46.07654" lon="4.76037">
        <ele>172</ele>
        <time>2018-05-09T09:39:28Z</time>
      </trkpt>
      <trkpt lat="46.07656" lon="4.76043">
        <ele>172</ele>
        <time>2018-05-09T09:39:29Z</time>
      </trkpt>
      <trkpt lat="46.07658" lon="4.7605">
        <ele>172</ele>
        <time>2018-05-09T09:39:30Z</time>
      </trkpt>
      <trkpt lat="46.07662" lon="4.76056">
        <ele>172</ele>
        <time>2018-05-09T09:39:31Z</time>
      </trkpt>
      <trkpt lat="46.07665" lon="4.76062">
        <ele>172</ele>
        <time>2018-05-09T09:39:32Z</time>
      </trkpt>
      <trkpt lat="46.07667" lon="4.76068">
        <ele>174</ele>
        <time>2018-05-09T09:39:33Z</time>
      </trkpt>
      <trkpt lat="46.07672" lon="4.76076">
        <ele>174</ele>
        <time>2018-05-09T09:39:34Z</time>
      </trkpt>
      <trkpt lat="46.07675" lon="4.76082">
        <ele>173</ele>
        <time>2018-05-09T09:39:35Z</time>
      </trkpt>
      <trkpt lat="46.07678" lon="4.76089">
        <ele>173</ele>
        <time>2018-05-09T09:39:36Z</time>
      </trkpt>
      <trkpt lat="46.0768" lon="4.76094">
        <ele>173</ele>
        <time>2018-05-09T09:39:37Z</time>
      </trkpt>
      <trkpt lat="46.07682" lon="4.76098">
        <ele>173</ele>
        <time>2018-05-09T09:39:39Z</time>
      </trkpt>
      <trkpt lat="46.07681" lon="4.76108">
        <ele>173</ele>
        <time>2018-05-09T09:39:40Z</time>
      </trkpt>
      <trkpt lat="46.07675" lon="4.76114">
        <ele>173</ele>
        <time>2018-05-09T09:39:42Z</time>
      </trkpt>
      <trkpt lat="46.07671" lon="4.76117">
        <ele>173</ele>
        <time>2018-05-09T09:39:43Z</time>
      </trkpt>
      <trkpt lat="46.07667" lon="4.76121">
        <ele>173</ele>
        <time>2018-05-09T09:39:44Z</time>
      </trkpt>
      <trkpt lat="46.07664" lon="4.76125">
        <ele>172</ele>
        <time>2018-05-09T09:39:45Z</time>
      </trkpt>
      <trkpt lat="46.07658" lon="4.76127">
        <ele>172</ele>
        <time>2018-05-09T09:39:46Z</time>
      </trkpt>
      <trkpt lat="46.07654" lon="4.76131">
        <ele>172</ele>
        <time>2018-05-09T09:39:47Z</time>
      </trkpt>
      <trkpt lat="46.0765" lon="4.76136">
        <ele>172</ele>
        <time>2018-05-09T09:39:48Z</time>
      </trkpt>
      <trkpt lat="46.07646" lon="4.76141">
        <ele>172</ele>
        <time>2018-05-09T09:39:49Z</time>
      </trkpt>
      <trkpt lat="46.07641" lon="4.76143">
        <ele>172</ele>
        <time>2018-05-09T09:39:50Z</time>
      </trkpt>
      <trkpt lat="46.07637" lon="4.76149">
        <ele>172</ele>
        <time>2018-05-09T09:39:51Z</time>
      </trkpt>
      <trkpt lat="46.07632" lon="4.76154">
        <ele>172</ele>
        <time>2018-05-09T09:39:52Z</time>
      </trkpt>
      <trkpt lat="46.07627" lon="4.76158">
        <ele>172</ele>
        <time>2018-05-09T09:39:53Z</time>
      </trkpt>
      <trkpt lat="46.07623" lon="4.76164">
        <ele>172</ele>
        <time>2018-05-09T09:39:54Z</time>
      </trkpt>
      <trkpt lat="46.07618" lon="4.76169">
        <ele>173</ele>
        <time>2018-05-09T09:39:55Z</time>
      </trkpt>
      <trkpt lat="46.07613" lon="4.76174">
        <ele>173</ele>
        <time>2018-05-09T09:39:56Z</time>
      </trkpt>
      <trkpt lat="46.07609" lon="4.76179">
        <ele>173</ele>
        <time>2018-05-09T09:39:57Z</time>
      </trkpt>
      <trkpt lat="46.07604" lon="4.76184">
        <ele>173</ele>
        <time>2018-05-09T09:39:58Z</time>
      </trkpt>
      <trkpt lat="46.07599" lon="4.7619">
        <ele>173</ele>
        <time>2018-05-09T09:39:59Z</time>
      </trkpt>
      <trkpt lat="46.07595" lon="4.76195">
        <ele>173</ele>
        <time>2018-05-09T09:40:00Z</time>
      </trkpt>
      <trkpt lat="46.0759" lon="4.762">
        <ele>173</ele>
        <time>2018-05-09T09:40:01Z</time>
      </trkpt>
      <trkpt lat="46.07586" lon="4.76206">
        <ele>173</ele>
        <time>2018-05-09T09:40:02Z</time>
      </trkpt>
      <trkpt lat="46.07582" lon="4.7621">
        <ele>173</ele>
        <time>2018-05-09T09:40:03Z</time>
      </trkpt>
      <trkpt lat="46.07576" lon="4.76214">
        <ele>173</ele>
        <time>2018-05-09T09:40:04Z</time>
      </trkpt>
      <trkpt lat="46.07571" lon="4.7622">
        <ele>173</ele>
        <time>2018-05-09T09:40:05Z</time>
      </trkpt>
      <trkpt lat="46.07566" lon="4.76225">
        <ele>173</ele>
        <time>2018-05-09T09:40:06Z</time>
      </trkpt>
      <trkpt lat="46.07561" lon="4.7623">
        <ele>173</ele>
        <time>2018-05-09T09:40:07Z</time>
      </trkpt>
      <trkpt lat="46.07556" lon="4.76236">
        <ele>173</ele>
        <time>2018-05-09T09:40:08Z</time>
      </trkpt>
      <trkpt lat="46.07551" lon="4.76241">
        <ele>173</ele>
        <time>2018-05-09T09:40:09Z</time>
      </trkpt>
      <trkpt lat="46.07545" lon="4.76246">
        <ele>173</ele>
        <time>2018-05-09T09:40:10Z</time>
      </trkpt>
      <trkpt lat="46.0754" lon="4.76251">
        <ele>174</ele>
        <time>2018-05-09T09:40:11Z</time>
      </trkpt>
      <trkpt lat="46.07536" lon="4.76256">
        <ele>174</ele>
        <time>2018-05-09T09:40:12Z</time>
      </trkpt>
      <trkpt lat="46.07532" lon="4.76261">
        <ele>174</ele>
        <time>2018-05-09T09:40:13Z</time>
      </trkpt>
      <trkpt lat="46.07527" lon="4.76267">
        <ele>174</ele>
        <time>2018-05-09T09:40:14Z</time>
      </trkpt>
      <trkpt lat="46.07522" lon="4.76272">
        <ele>174</ele>
        <time>2018-05-09T09:40:15Z</time>
      </trkpt>
      <trkpt lat="46.07517" lon="4.76277">
        <ele>174</ele>
        <time>2018-05-09T09:40:16Z</time>
      </trkpt>
      <trkpt lat="46.07513" lon="4.76282">
        <ele>174</ele>
        <time>2018-05-09T09:40:17Z</time>
      </trkpt>
      <trkpt lat="46.07508" lon="4.76287">
        <ele>174</ele>
        <time>2018-05-09T09:40:18Z</time>
      </trkpt>
      <trkpt lat="46.07503" lon="4.76293">
        <ele>174</ele>
        <time>2018-05-09T09:40:19Z</time>
      </trkpt>
      <trkpt lat="46.07499" lon="4.76299">
        <ele>173</ele>
        <time>2018-05-09T09:40:20Z</time>
      </trkpt>
      <trkpt lat="46.07493" lon="4.76303">
        <ele>173</ele>
        <time>2018-05-09T09:40:21Z</time>
      </trkpt>
      <trkpt lat="46.07488" lon="4.76307">
        <ele>173</ele>
        <time>2018-05-09T09:40:22Z</time>
      </trkpt>
      <trkpt lat="46.07482" lon="4.7631">
        <ele>173</ele>
        <time>2018-05-09T09:40:23Z</time>
      </trkpt>
      <trkpt lat="46.07477" lon="4.76311">
        <ele>172</ele>
        <time>2018-05-09T09:40:24Z</time>
      </trkpt>
      <trkpt lat="46.07472" lon="4.76314">
        <ele>172</ele>
        <time>2018-05-09T09:40:25Z</time>
      </trkpt>
      <trkpt lat="46.07468" lon="4.76319">
        <ele>172</ele>
        <time>2018-05-09T09:40:26Z</time>
      </trkpt>
      <trkpt lat="46.07464" lon="4.76325">
        <ele>172</ele>
        <time>2018-05-09T09:40:27Z</time>
      </trkpt>
      <trkpt lat="46.07461" lon="4.76333">
        <ele>172</ele>
        <time>2018-05-09T09:40:28Z</time>
      </trkpt>
      <trkpt lat="46.07458" lon="4.76339">
        <ele>172</ele>
        <time>2018-05-09T09:40:29Z</time>
      </trkpt>
      <trkpt lat="46.07453" lon="4.76344">
        <ele>172</ele>
        <time>2018-05-09T09:40:30Z</time>
      </trkpt>
      <trkpt lat="46.0745" lon="4.7635">
        <ele>172</ele>
        <time>2018-05-09T09:40:31Z</time>
      </trkpt>
      <trkpt lat="46.07445" lon="4.76355">
        <ele>171</ele>
        <time>2018-05-09T09:40:32Z</time>
      </trkpt>
      <trkpt lat="46.07439" lon="4.7636">
        <ele>171</ele>
        <time>2018-05-09T09:40:33Z</time>
      </trkpt>
      <trkpt lat="46.07435" lon="4.76365">
        <ele>171</ele>
        <time>2018-05-09T09:40:34Z</time>
      </trkpt>
      <trkpt lat="46.0743" lon="4.7637">
        <ele>171</ele>
        <time>2018-05-09T09:40:35Z</time>
      </trkpt>
      <trkpt lat="46.07426" lon="4.76376">
        <ele>171</ele>
        <time>2018-05-09T09:40:36Z</time>
      </trkpt>
      <trkpt lat="46.07421" lon="4.76381">
        <ele>171</ele>
        <time>2018-05-09T09:40:37Z</time>
      </trkpt>
      <trkpt lat="46.07416" lon="4.76385">
        <ele>170</ele>
        <time>2018-05-09T09:40:38Z</time>
      </trkpt>
      <trkpt lat="46.07412" lon="4.76391">
        <ele>170</ele>
        <time>2018-05-09T09:40:39Z</time>
      </trkpt>
      <trkpt lat="46.07407" lon="4.76395">
        <ele>170</ele>
        <time>2018-05-09T09:40:40Z</time>
      </trkpt>
      <trkpt lat="46.07403" lon="4.764">
        <ele>170</ele>
        <time>2018-05-09T09:40:41Z</time>
      </trkpt>
      <trkpt lat="46.07398" lon="4.76405">
        <ele>170</ele>
        <time>2018-05-09T09:40:42Z</time>
      </trkpt>
      <trkpt lat="46.07393" lon="4.76409">
        <ele>170</ele>
        <time>2018-05-09T09:40:43Z</time>
      </trkpt>
      <trkpt lat="46.07388" lon="4.76414">
        <ele>170</ele>
        <time>2018-05-09T09:40:44Z</time>
      </trkpt>
      <trkpt lat="46.07384" lon="4.76419">
        <ele>171</ele>
        <time>2018-05-09T09:40:45Z</time>
      </trkpt>
      <trkpt lat="46.07379" lon="4.76424">
        <ele>171</ele>
        <time>2018-05-09T09:40:46Z</time>
      </trkpt>
      <trkpt lat="46.07374" lon="4.7643">
        <ele>171</ele>
        <time>2018-05-09T09:40:47Z</time>
      </trkpt>
      <trkpt lat="46.07369" lon="4.76435">
        <ele>171</ele>
        <time>2018-05-09T09:40:48Z</time>
      </trkpt>
      <trkpt lat="46.07366" lon="4.76441">
        <ele>171</ele>
        <time>2018-05-09T09:40:49Z</time>
      </trkpt>
      <trkpt lat="46.0736" lon="4.76445">
        <ele>171</ele>
        <time>2018-05-09T09:40:50Z</time>
      </trkpt>
      <trkpt lat="46.07355" lon="4.7645">
        <ele>171</ele>
        <time>2018-05-09T09:40:51Z</time>
      </trkpt>
      <trkpt lat="46.07351" lon="4.76455">
        <ele>171</ele>
        <time>2018-05-09T09:40:52Z</time>
      </trkpt>
      <trkpt lat="46.07346" lon="4.7646">
        <ele>171</ele>
        <time>2018-05-09T09:40:53Z</time>
      </trkpt>
      <trkpt lat="46.07339" lon="4.76464">
        <ele>171</ele>
        <time>2018-05-09T09:40:54Z</time>
      </trkpt>
      <trkpt lat="46.07335" lon="4.7647">
        <ele>171</ele>
        <time>2018-05-09T09:40:55Z</time>
      </trkpt>
      <trkpt lat="46.07332" lon="4.76478">
        <ele>170</ele>
        <time>2018-05-09T09:40:56Z</time>
      </trkpt>
      <trkpt lat="46.07328" lon="4.76485">
        <ele>170</ele>
        <time>2018-05-09T09:40:57Z</time>
      </trkpt>
      <trkpt lat="46.07323" lon="4.76488">
        <ele>170</ele>
        <time>2018-05-09T09:40:58Z</time>
      </trkpt>
      <trkpt lat="46.07319" lon="4.76494">
        <ele>170</ele>
        <time>2018-05-09T09:40:59Z</time>
      </trkpt>
      <trkpt lat="46.07314" lon="4.76501">
        <ele>170</ele>
        <time>2018-05-09T09:41:00Z</time>
      </trkpt>
      <trkpt lat="46.07309" lon="4.76506">
        <ele>170</ele>
        <time>2018-05-09T09:41:01Z</time>
      </trkpt>
      <trkpt lat="46.07305" lon="4.76512">
        <ele>170</ele>
        <time>2018-05-09T09:41:02Z</time>
      </trkpt>
      <trkpt lat="46.073" lon="4.76518">
        <ele>170</ele>
        <time>2018-05-09T09:41:03Z</time>
      </trkpt>
      <trkpt lat="46.07296" lon="4.76525">
        <ele>170</ele>
        <time>2018-05-09T09:41:04Z</time>
      </trkpt>
      <trkpt lat="46.07291" lon="4.76529">
        <ele>170</ele>
        <time>2018-05-09T09:41:05Z</time>
      </trkpt>
      <trkpt lat="46.07286" lon="4.76534">
        <ele>170</ele>
        <time>2018-05-09T09:41:06Z</time>
      </trkpt>
      <trkpt lat="46.07281" lon="4.76539">
        <ele>170</ele>
        <time>2018-05-09T09:41:07Z</time>
      </trkpt>
      <trkpt lat="46.07276" lon="4.76544">
        <ele>170</ele>
        <time>2018-05-09T09:41:08Z</time>
      </trkpt>
      <trkpt lat="46.07271" lon="4.76549">
        <ele>170</ele>
        <time>2018-05-09T09:41:09Z</time>
      </trkpt>
      <trkpt lat="46.07266" lon="4.76554">
        <ele>170</ele>
        <time>2018-05-09T09:41:10Z</time>
      </trkpt>
      <trkpt lat="46.07262" lon="4.76559">
        <ele>170</ele>
        <time>2018-05-09T09:41:11Z</time>
      </trkpt>
      <trkpt lat="46.07257" lon="4.76566">
        <ele>170</ele>
        <time>2018-05-09T09:41:12Z</time>
      </trkpt>
      <trkpt lat="46.07252" lon="4.76571">
        <ele>170</ele>
        <time>2018-05-09T09:41:13Z</time>
      </trkpt>
      <trkpt lat="46.07248" lon="4.76577">
        <ele>170</ele>
        <time>2018-05-09T09:41:14Z</time>
      </trkpt>
      <trkpt lat="46.07244" lon="4.76582">
        <ele>170</ele>
        <time>2018-05-09T09:41:15Z</time>
      </trkpt>
      <trkpt lat="46.07239" lon="4.76588">
        <ele>170</ele>
        <time>2018-05-09T09:41:16Z</time>
      </trkpt>
      <trkpt lat="46.07234" lon="4.76594">
        <ele>170</ele>
        <time>2018-05-09T09:41:17Z</time>
      </trkpt>
      <trkpt lat="46.07229" lon="4.76601">
        <ele>170</ele>
        <time>2018-05-09T09:41:18Z</time>
      </trkpt>
      <trkpt lat="46.07225" lon="4.76607">
        <ele>170</ele>
        <time>2018-05-09T09:41:19Z</time>
      </trkpt>
      <trkpt lat="46.0722" lon="4.76614">
        <ele>170</ele>
        <time>2018-05-09T09:41:20Z</time>
      </trkpt>
      <trkpt lat="46.07216" lon="4.76619">
        <ele>170</ele>
        <time>2018-05-09T09:41:21Z</time>
      </trkpt>
      <trkpt lat="46.07211" lon="4.76625">
        <ele>170</ele>
        <time>2018-05-09T09:41:22Z</time>
      </trkpt>
      <trkpt lat="46.07206" lon="4.76631">
        <ele>170</ele>
        <time>2018-05-09T09:41:23Z</time>
      </trkpt>
      <trkpt lat="46.07201" lon="4.76638">
        <ele>170</ele>
        <time>2018-05-09T09:41:24Z</time>
      </trkpt>
      <trkpt lat="46.07196" lon="4.76643">
        <ele>170</ele>
        <time>2018-05-09T09:41:25Z</time>
      </trkpt>
      <trkpt lat="46.07193" lon="4.7665">
        <ele>170</ele>
        <time>2018-05-09T09:41:26Z</time>
      </trkpt>
      <trkpt lat="46.07189" lon="4.76657">
        <ele>170</ele>
        <time>2018-05-09T09:41:27Z</time>
      </trkpt>
      <trkpt lat="46.07184" lon="4.76663">
        <ele>170</ele>
        <time>2018-05-09T09:41:28Z</time>
      </trkpt>
      <trkpt lat="46.0718" lon="4.76669">
        <ele>170</ele>
        <time>2018-05-09T09:41:29Z</time>
      </trkpt>
      <trkpt lat="46.07175" lon="4.76675">
        <ele>170</ele>
        <time>2018-05-09T09:41:30Z</time>
      </trkpt>
      <trkpt lat="46.07172" lon="4.76684">
        <ele>170</ele>
        <time>2018-05-09T09:41:31Z</time>
      </trkpt>
      <trkpt lat="46.07168" lon="4.76691">
        <ele>170</ele>
        <time>2018-05-09T09:41:32Z</time>
      </trkpt>
      <trkpt lat="46.07165" lon="4.76698">
        <ele>170</ele>
        <time>2018-05-09T09:41:33Z</time>
      </trkpt>
      <trkpt lat="46.07161" lon="4.76704">
        <ele>170</ele>
        <time>2018-05-09T09:41:34Z</time>
      </trkpt>
      <trkpt lat="46.07157" lon="4.7671">
        <ele>170</ele>
        <time>2018-05-09T09:41:35Z</time>
      </trkpt>
      <trkpt lat="46.07153" lon="4.76716">
        <ele>170</ele>
        <time>2018-05-09T09:41:36Z</time>
      </trkpt>
      <trkpt lat="46.07149" lon="4.76724">
        <ele>170</ele>
        <time>2018-05-09T09:41:37Z</time>
      </trkpt>
      <trkpt lat="46.07146" lon="4.76733">
        <ele>171</ele>
        <time>2018-05-09T09:41:38Z</time>
      </trkpt>
      <trkpt lat="46.07142" lon="4.76741">
        <ele>171</ele>
        <time>2018-05-09T09:41:39Z</time>
      </trkpt>
      <trkpt lat="46.07138" lon="4.76749">
        <ele>171</ele>
        <time>2018-05-09T09:41:40Z</time>
      </trkpt>
      <trkpt lat="46.07134" lon="4.76756">
        <ele>171</ele>
        <time>2018-05-09T09:41:41Z</time>
      </trkpt>
      <trkpt lat="46.0713" lon="4.76763">
        <ele>171</ele>
        <time>2018-05-09T09:41:42Z</time>
      </trkpt>
      <trkpt lat="46.07125" lon="4.76769">
        <ele>171</ele>
        <time>2018-05-09T09:41:43Z</time>
      </trkpt>
      <trkpt lat="46.07121" lon="4.76776">
        <ele>171</ele>
        <time>2018-05-09T09:41:44Z</time>
      </trkpt>
      <trkpt lat="46.07118" lon="4.76785">
        <ele>171</ele>
        <time>2018-05-09T09:41:45Z</time>
      </trkpt>
      <trkpt lat="46.07114" lon="4.76792">
        <ele>172</ele>
        <time>2018-05-09T09:41:46Z</time>
      </trkpt>
      <trkpt lat="46.07109" lon="4.76801">
        <ele>172</ele>
        <time>2018-05-09T09:41:47Z</time>
      </trkpt>
      <trkpt lat="46.07105" lon="4.76809">
        <ele>172</ele>
        <time>2018-05-09T09:41:48Z</time>
      </trkpt>
      <trkpt lat="46.07101" lon="4.76817">
        <ele>172</ele>
        <time>2018-05-09T09:41:49Z</time>
      </trkpt>
      <trkpt lat="46.07098" lon="4.76827">
        <ele>172</ele>
        <time>2018-05-09T09:41:50Z</time>
      </trkpt>
      <trkpt lat="46.07094" lon="4.76835">
        <ele>172</ele>
        <time>2018-05-09T09:41:51Z</time>
      </trkpt>
      <trkpt lat="46.07091" lon="4.76842">
        <ele>172</ele>
        <time>2018-05-09T09:41:52Z</time>
      </trkpt>
      <trkpt lat="46.07087" lon="4.7685">
        <ele>172</ele>
        <time>2018-05-09T09:41:53Z</time>
      </trkpt>
      <trkpt lat="46.07083" lon="4.76857">
        <ele>172</ele>
        <time>2018-05-09T09:41:54Z</time>
      </trkpt>
      <trkpt lat="46.07078" lon="4.76866">
        <ele>172</ele>
        <time>2018-05-09T09:41:55Z</time>
      </trkpt>
      <trkpt lat="46.07074" lon="4.76874">
        <ele>172</ele>
        <time>2018-05-09T09:41:56Z</time>
      </trkpt>
      <trkpt lat="46.0707" lon="4.76882">
        <ele>172</ele>
        <time>2018-05-09T09:41:57Z</time>
      </trkpt>
      <trkpt lat="46.07066" lon="4.7689">
        <ele>172</ele>
        <time>2018-05-09T09:41:58Z</time>
      </trkpt>
      <trkpt lat="46.07062" lon="4.76898">
        <ele>172</ele>
        <time>2018-05-09T09:41:59Z</time>
      </trkpt>
      <trkpt lat="46.07057" lon="4.76907">
        <ele>172</ele>
        <time>2018-05-09T09:42:00Z</time>
      </trkpt>
      <trkpt lat="46.07054" lon="4.76915">
        <ele>172</ele>
        <time>2018-05-09T09:42:01Z</time>
      </trkpt>
      <trkpt lat="46.0705" lon="4.76924">
        <ele>173</ele>
        <time>2018-05-09T09:42:02Z</time>
      </trkpt>
      <trkpt lat="46.07046" lon="4.76931">
        <ele>173</ele>
        <time>2018-05-09T09:42:03Z</time>
      </trkpt>
      <trkpt lat="46.07042" lon="4.7694">
        <ele>173</ele>
        <time>2018-05-09T09:42:04Z</time>
      </trkpt>
      <trkpt lat="46.07037" lon="4.76947">
        <ele>173</ele>
        <time>2018-05-09T09:42:05Z</time>
      </trkpt>
      <trkpt lat="46.07032" lon="4.76953">
        <ele>173</ele>
        <time>2018-05-09T09:42:06Z</time>
      </trkpt>
      <trkpt lat="46.07027" lon="4.76961">
        <ele>173</ele>
        <time>2018-05-09T09:42:07Z</time>
      </trkpt>
      <trkpt lat="46.07023" lon="4.7697">
        <ele>173</ele>
        <time>2018-05-09T09:42:08Z</time>
      </trkpt>
      <trkpt lat="46.07019" lon="4.7698">
        <ele>173</ele>
        <time>2018-05-09T09:42:09Z</time>
      </trkpt>
      <trkpt lat="46.07015" lon="4.76987">
        <ele>173</ele>
        <time>2018-05-09T09:42:10Z</time>
      </trkpt>
      <trkpt lat="46.0701" lon="4.76996">
        <ele>173</ele>
        <time>2018-05-09T09:42:11Z</time>
      </trkpt>
      <trkpt lat="46.07006" lon="4.77004">
        <ele>173</ele>
        <time>2018-05-09T09:42:12Z</time>
      </trkpt>
      <trkpt lat="46.07002" lon="4.77011">
        <ele>173</ele>
        <time>2018-05-09T09:42:13Z</time>
      </trkpt>
      <trkpt lat="46.06999" lon="4.77019">
        <ele>173</ele>
        <time>2018-05-09T09:42:14Z</time>
      </trkpt>
      <trkpt lat="46.06995" lon="4.77026">
        <ele>173</ele>
        <time>2018-05-09T09:42:15Z</time>
      </trkpt>
      <trkpt lat="46.06992" lon="4.77032">
        <ele>173</ele>
        <time>2018-05-09T09:42:16Z</time>
      </trkpt>
      <trkpt lat="46.06988" lon="4.77039">
        <ele>173</ele>
        <time>2018-05-09T09:42:17Z</time>
      </trkpt>
      <trkpt lat="46.06984" lon="4.77046">
        <ele>173</ele>
        <time>2018-05-09T09:42:18Z</time>
      </trkpt>
      <trkpt lat="46.06981" lon="4.77051">
        <ele>173</ele>
        <time>2018-05-09T09:42:19Z</time>
      </trkpt>
      <trkpt lat="46.06978" lon="4.77055">
        <ele>173</ele>
        <time>2018-05-09T09:42:20Z</time>
      </trkpt>
      <trkpt lat="46.06975" lon="4.77061">
        <ele>173</ele>
        <time>2018-05-09T09:42:21Z</time>
      </trkpt>
      <trkpt lat="46.06971" lon="4.77066">
        <ele>173</ele>
        <time>2018-05-09T09:42:22Z</time>
      </trkpt>
      <trkpt lat="46.06966" lon="4.77067">
        <ele>173</ele>
        <time>2018-05-09T09:42:23Z</time>
      </trkpt>
      <trkpt lat="46.0696" lon="4.7707">
        <ele>173</ele>
        <time>2018-05-09T09:42:24Z</time>
      </trkpt>
      <trkpt lat="46.06955" lon="4.7707">
        <ele>173</ele>
        <time>2018-05-09T09:42:25Z</time>
      </trkpt>
      <trkpt lat="46.06948" lon="4.7707">
        <ele>173</ele>
        <time>2018-05-09T09:42:26Z</time>
      </trkpt>
      <trkpt lat="46.06941" lon="4.77071">
        <ele>173</ele>
        <time>2018-05-09T09:42:27Z</time>
      </trkpt>
      <trkpt lat="46.06934" lon="4.77072">
        <ele>173</ele>
        <time>2018-05-09T09:42:28Z</time>
      </trkpt>
      <trkpt lat="46.06927" lon="4.77071">
        <ele>173</ele>
        <time>2018-05-09T09:42:29Z</time>
      </trkpt>
      <trkpt lat="46.0692" lon="4.77073">
        <ele>173</ele>
        <time>2018-05-09T09:42:30Z</time>
      </trkpt>
      <trkpt lat="46.06913" lon="4.77073">
        <ele>173</ele>
        <time>2018-05-09T09:42:31Z</time>
      </trkpt>
      <trkpt lat="46.06906" lon="4.77072">
        <ele>173</ele>
        <time>2018-05-09T09:42:32Z</time>
      </trkpt>
      <trkpt lat="46.06899" lon="4.77074">
        <ele>173</ele>
        <time>2018-05-09T09:42:33Z</time>
      </trkpt>
      <trkpt lat="46.06892" lon="4.77074">
        <ele>173</ele>
        <time>2018-05-09T09:42:34Z</time>
      </trkpt>
      <trkpt lat="46.06885" lon="4.77074">
        <ele>173</ele>
        <time>2018-05-09T09:42:35Z</time>
      </trkpt>
      <trkpt lat="46.06879" lon="4.77075">
        <ele>173</ele>
        <time>2018-05-09T09:42:36Z</time>
      </trkpt>
      <trkpt lat="46.06872" lon="4.77077">
        <ele>173</ele>
        <time>2018-05-09T09:42:37Z</time>
      </trkpt>
      <trkpt lat="46.06866" lon="4.77077">
        <ele>173</ele>
        <time>2018-05-09T09:42:38Z</time>
      </trkpt>
      <trkpt lat="46.06859" lon="4.7708">
        <ele>173</ele>
        <time>2018-05-09T09:42:39Z</time>
      </trkpt>
      <trkpt lat="46.06853" lon="4.77082">
        <ele>173</ele>
        <time>2018-05-09T09:42:40Z</time>
      </trkpt>
      <trkpt lat="46.06846" lon="4.77084">
        <ele>173</ele>
        <time>2018-05-09T09:42:41Z</time>
      </trkpt>
      <trkpt lat="46.0684" lon="4.77086">
        <ele>173</ele>
        <time>2018-05-09T09:42:42Z</time>
      </trkpt>
      <trkpt lat="46.06834" lon="4.77089">
        <ele>173</ele>
        <time>2018-05-09T09:42:43Z</time>
      </trkpt>
      <trkpt lat="46.06827" lon="4.77092">
        <ele>173</ele>
        <time>2018-05-09T09:42:44Z</time>
      </trkpt>
      <trkpt lat="46.06821" lon="4.77096">
        <ele>173</ele>
        <time>2018-05-09T09:42:45Z</time>
      </trkpt>
      <trkpt lat="46.06815" lon="4.771">
        <ele>172</ele>
        <time>2018-05-09T09:42:46Z</time>
      </trkpt>
      <trkpt lat="46.06809" lon="4.77104">
        <ele>172</ele>
        <time>2018-05-09T09:42:47Z</time>
      </trkpt>
      <trkpt lat="46.06803" lon="4.77108">
        <ele>172</ele>
        <time>2018-05-09T09:42:48Z</time>
      </trkpt>
      <trkpt lat="46.06797" lon="4.77114">
        <ele>172</ele>
        <time>2018-05-09T09:42:49Z</time>
      </trkpt>
      <trkpt lat="46.06791" lon="4.7712">
        <ele>172</ele>
        <time>2018-05-09T09:42:50Z</time>
      </trkpt>
      <trkpt lat="46.06786" lon="4.77125">
        <ele>172</ele>
        <time>2018-05-09T09:42:51Z</time>
      </trkpt>
      <trkpt lat="46.06781" lon="4.77129">
        <ele>172</ele>
        <time>2018-05-09T09:42:52Z</time>
      </trkpt>
      <trkpt lat="46.06775" lon="4.77135">
        <ele>172</ele>
        <time>2018-05-09T09:42:53Z</time>
      </trkpt>
      <trkpt lat="46.0677" lon="4.77141">
        <ele>172</ele>
        <time>2018-05-09T09:42:54Z</time>
      </trkpt>
      <trkpt lat="46.06764" lon="4.77147">
        <ele>172</ele>
        <time>2018-05-09T09:42:55Z</time>
      </trkpt>
      <trkpt lat="46.06758" lon="4.77154">
        <ele>172</ele>
        <time>2018-05-09T09:42:56Z</time>
      </trkpt>
      <trkpt lat="46.06753" lon="4.7716">
        <ele>172</ele>
        <time>2018-05-09T09:42:57Z</time>
      </trkpt>
      <trkpt lat="46.06747" lon="4.77167">
        <ele>172</ele>
        <time>2018-05-09T09:42:58Z</time>
      </trkpt>
      <trkpt lat="46.06741" lon="4.77172">
        <ele>172</ele>
        <time>2018-05-09T09:42:59Z</time>
      </trkpt>
      <trkpt lat="46.06734" lon="4.77177">
        <ele>172</ele>
        <time>2018-05-09T09:43:00Z</time>
      </trkpt>
      <trkpt lat="46.06729" lon="4.77181">
        <ele>172</ele>
        <time>2018-05-09T09:43:01Z</time>
      </trkpt>
      <trkpt lat="46.06722" lon="4.77185">
        <ele>172</ele>
        <time>2018-05-09T09:43:02Z</time>
      </trkpt>
      <trkpt lat="46.06717" lon="4.77189">
        <ele>172</ele>
        <time>2018-05-09T09:43:03Z</time>
      </trkpt>
      <trkpt lat="46.06711" lon="4.77193">
        <ele>172</ele>
        <time>2018-05-09T09:43:04Z</time>
      </trkpt>
      <trkpt lat="46.06705" lon="4.77195">
        <ele>172</ele>
        <time>2018-05-09T09:43:05Z</time>
      </trkpt>
      <trkpt lat="46.06698" lon="4.77197">
        <ele>172</ele>
        <time>2018-05-09T09:43:06Z</time>
      </trkpt>
      <trkpt lat="46.06692" lon="4.77198">
        <ele>172</ele>
        <time>2018-05-09T09:43:07Z</time>
      </trkpt>
      <trkpt lat="46.06687" lon="4.77201">
        <ele>172</ele>
        <time>2018-05-09T09:43:08Z</time>
      </trkpt>
      <trkpt lat="46.06682" lon="4.77207">
        <ele>172</ele>
        <time>2018-05-09T09:43:09Z</time>
      </trkpt>
      <trkpt lat="46.06678" lon="4.77214">
        <ele>172</ele>
        <time>2018-05-09T09:43:10Z</time>
      </trkpt>
      <trkpt lat="46.06679" lon="4.77224">
        <ele>172</ele>
        <time>2018-05-09T09:43:11Z</time>
      </trkpt>
      <trkpt lat="46.06678" lon="4.77231">
        <ele>172</ele>
        <time>2018-05-09T09:43:12Z</time>
      </trkpt>
      <trkpt lat="46.06676" lon="4.77241">
        <ele>173</ele>
        <time>2018-05-09T09:43:13Z</time>
      </trkpt>
      <trkpt lat="46.06674" lon="4.7725">
        <ele>173</ele>
        <time>2018-05-09T09:43:14Z</time>
      </trkpt>
      <trkpt lat="46.0667" lon="4.77257">
        <ele>173</ele>
        <time>2018-05-09T09:43:15Z</time>
      </trkpt>
      <trkpt lat="46.06668" lon="4.77265">
        <ele>173</ele>
        <time>2018-05-09T09:43:16Z</time>
      </trkpt>
      <trkpt lat="46.06664" lon="4.77272">
        <ele>174</ele>
        <time>2018-05-09T09:43:17Z</time>
      </trkpt>
      <trkpt lat="46.06661" lon="4.7728">
        <ele>174</ele>
        <time>2018-05-09T09:43:18Z</time>
      </trkpt>
      <trkpt lat="46.06657" lon="4.77289">
        <ele>174</ele>
        <time>2018-05-09T09:43:19Z</time>
      </trkpt>
      <trkpt lat="46.06655" lon="4.77295">
        <ele>174</ele>
        <time>2018-05-09T09:43:20Z</time>
      </trkpt>
      <trkpt lat="46.06652" lon="4.77303">
        <ele>174</ele>
        <time>2018-05-09T09:43:21Z</time>
      </trkpt>
      <trkpt lat="46.06649" lon="4.77309">
        <ele>174</ele>
        <time>2018-05-09T09:43:22Z</time>
      </trkpt>
      <trkpt lat="46.06646" lon="4.77316">
        <ele>174</ele>
        <time>2018-05-09T09:43:23Z</time>
      </trkpt>
      <trkpt lat="46.06642" lon="4.77324">
        <ele>174</ele>
        <time>2018-05-09T09:43:24Z</time>
      </trkpt>
      <trkpt lat="46.06639" lon="4.77332">
        <ele>174</ele>
        <time>2018-05-09T09:43:25Z</time>
      </trkpt>
      <trkpt lat="46.06638" lon="4.7734">
        <ele>176</ele>
        <time>2018-05-09T09:43:26Z</time>
      </trkpt>
      <trkpt lat="46.06634" lon="4.77347">
        <ele>176</ele>
        <time>2018-05-09T09:43:27Z</time>
      </trkpt>
      <trkpt lat="46.06631" lon="4.77353">
        <ele>176</ele>
        <time>2018-05-09T09:43:28Z</time>
      </trkpt>
      <trkpt lat="46.06627" lon="4.77361">
        <ele>176</ele>
        <time>2018-05-09T09:43:29Z</time>
      </trkpt>
      <trkpt lat="46.06624" lon="4.7737">
        <ele>176</ele>
        <time>2018-05-09T09:43:30Z</time>
      </trkpt>
      <trkpt lat="46.06621" lon="4.77377">
        <ele>176</ele>
        <time>2018-05-09T09:43:31Z</time>
      </trkpt>
      <trkpt lat="46.06618" lon="4.77381">
        <ele>176</ele>
        <time>2018-05-09T09:43:32Z</time>
      </trkpt>
      <trkpt lat="46.06615" lon="4.77388">
        <ele>177</ele>
        <time>2018-05-09T09:43:33Z</time>
      </trkpt>
      <trkpt lat="46.06612" lon="4.77393">
        <ele>177</ele>
        <time>2018-05-09T09:43:34Z</time>
      </trkpt>
      <trkpt lat="46.06609" lon="4.774">
        <ele>177</ele>
        <time>2018-05-09T09:43:35Z</time>
      </trkpt>
      <trkpt lat="46.06607" lon="4.77406">
        <ele>177</ele>
        <time>2018-05-09T09:43:36Z</time>
      </trkpt>
      <trkpt lat="46.06604" lon="4.77412">
        <ele>177</ele>
        <time>2018-05-09T09:43:37Z</time>
      </trkpt>
      <trkpt lat="46.06603" lon="4.77423">
        <ele>179</ele>
        <time>2018-05-09T09:43:38Z</time>
      </trkpt>
      <trkpt lat="46.066" lon="4.77429">
        <ele>179</ele>
        <time>2018-05-09T09:43:39Z</time>
      </trkpt>
      <trkpt lat="46.06598" lon="4.77438">
        <ele>179</ele>
        <time>2018-05-09T09:43:40Z</time>
      </trkpt>
      <trkpt lat="46.06596" lon="4.77446">
        <ele>180</ele>
        <time>2018-05-09T09:43:41Z</time>
      </trkpt>
      <trkpt lat="46.06595" lon="4.77454">
        <ele>180</ele>
        <time>2018-05-09T09:43:42Z</time>
      </trkpt>
      <trkpt lat="46.06595" lon="4.7746">
        <ele>180</ele>
        <time>2018-05-09T09:43:43Z</time>
      </trkpt>
      <trkpt lat="46.06596" lon="4.77466">
        <ele>180</ele>
        <time>2018-05-09T09:43:44Z</time>
      </trkpt>
      <trkpt lat="46.06597" lon="4.77473">
        <ele>181</ele>
        <time>2018-05-09T09:43:45Z</time>
      </trkpt>
      <trkpt lat="46.06602" lon="4.77483">
        <ele>181</ele>
        <time>2018-05-09T09:43:47Z</time>
      </trkpt>
      <trkpt lat="46.06605" lon="4.77488">
        <ele>181</ele>
        <time>2018-05-09T09:43:48Z</time>
      </trkpt>
      <trkpt lat="46.06608" lon="4.77495">
        <ele>181</ele>
        <time>2018-05-09T09:43:49Z</time>
      </trkpt>
      <trkpt lat="46.06611" lon="4.77499">
        <ele>181</ele>
        <time>2018-05-09T09:43:50Z</time>
      </trkpt>
      <trkpt lat="46.06617" lon="4.77507">
        <ele>183</ele>
        <time>2018-05-09T09:43:52Z</time>
      </trkpt>
      <trkpt lat="46.06619" lon="4.77513">
        <ele>183</ele>
        <time>2018-05-09T09:43:53Z</time>
      </trkpt>
      <trkpt lat="46.06625" lon="4.77521">
        <ele>182</ele>
        <time>2018-05-09T09:43:55Z</time>
      </trkpt>
      <trkpt lat="46.06626" lon="4.77527">
        <ele>183</ele>
        <time>2018-05-09T09:43:56Z</time>
      </trkpt>
      <trkpt lat="46.06628" lon="4.77532">
        <ele>183</ele>
        <time>2018-05-09T09:43:57Z</time>
      </trkpt>
      <trkpt lat="46.06629" lon="4.7754">
        <ele>183</ele>
        <time>2018-05-09T09:43:58Z</time>
      </trkpt>
      <trkpt lat="46.06632" lon="4.7755">
        <ele>183</ele>
        <time>2018-05-09T09:44:00Z</time>
      </trkpt>
      <trkpt lat="46.06632" lon="4.7756">
        <ele>183</ele>
        <time>2018-05-09T09:44:01Z</time>
      </trkpt>
      <trkpt lat="46.06633" lon="4.77567">
        <ele>183</ele>
        <time>2018-05-09T09:44:02Z</time>
      </trkpt>
      <trkpt lat="46.06633" lon="4.77573">
        <ele>183</ele>
        <time>2018-05-09T09:44:03Z</time>
      </trkpt>
      <trkpt lat="46.06635" lon="4.77584">
        <ele>184</ele>
        <time>2018-05-09T09:44:05Z</time>
      </trkpt>
      <trkpt lat="46.06633" lon="4.7759">
        <ele>185</ele>
        <time>2018-05-09T09:44:06Z</time>
      </trkpt>
      <trkpt lat="46.06632" lon="4.77601">
        <ele>185</ele>
        <time>2018-05-09T09:44:08Z</time>
      </trkpt>
      <trkpt lat="46.06631" lon="4.77607">
        <ele>185</ele>
        <time>2018-05-09T09:44:09Z</time>
      </trkpt>
      <trkpt lat="46.06632" lon="4.77616">
        <ele>185</ele>
        <time>2018-05-09T09:44:10Z</time>
      </trkpt>
      <trkpt lat="46.06631" lon="4.77621">
        <ele>185</ele>
        <time>2018-05-09T09:44:11Z</time>
      </trkpt>
      <trkpt lat="46.0663" lon="4.77627">
        <ele>185</ele>
        <time>2018-05-09T09:44:12Z</time>
      </trkpt>
      <trkpt lat="46.06631" lon="4.77636">
        <ele>185</ele>
        <time>2018-05-09T09:44:13Z</time>
      </trkpt>
      <trkpt lat="46.0663" lon="4.77646">
        <ele>185</ele>
        <time>2018-05-09T09:44:15Z</time>
      </trkpt>
      <trkpt lat="46.0663" lon="4.77652">
        <ele>185</ele>
        <time>2018-05-09T09:44:16Z</time>
      </trkpt>
      <trkpt lat="46.06625" lon="4.7766">
        <ele>185</ele>
        <time>2018-05-09T09:44:18Z</time>
      </trkpt>
      <trkpt lat="46.06623" lon="4.77665">
        <ele>185</ele>
        <time>2018-05-09T09:44:19Z</time>
      </trkpt>
      <trkpt lat="46.06619" lon="4.77673">
        <ele>187</ele>
        <time>2018-05-09T09:44:21Z</time>
      </trkpt>
      <trkpt lat="46.06617" lon="4.77676">
        <ele>187</ele>
        <time>2018-05-09T09:44:22Z</time>
      </trkpt>
      <trkpt lat="46.06613" lon="4.7768">
        <ele>187</ele>
        <time>2018-05-09T09:44:24Z</time>
      </trkpt>
      <trkpt lat="46.06605" lon="4.77685">
        <ele>187</ele>
        <time>2018-05-09T09:44:25Z</time>
      </trkpt>
      <trkpt lat="46.06598" lon="4.77685">
        <ele>187</ele>
        <time>2018-05-09T09:44:27Z</time>
      </trkpt>
      <trkpt lat="46.06591" lon="4.77685">
        <ele>187</ele>
        <time>2018-05-09T09:44:28Z</time>
      </trkpt>
      <trkpt lat="46.06583" lon="4.7769">
        <ele>188</ele>
        <time>2018-05-09T09:44:30Z</time>
      </trkpt>
      <trkpt lat="46.0658" lon="4.7769">
        <ele>188</ele>
        <time>2018-05-09T09:44:31Z</time>
      </trkpt>
      <trkpt lat="46.06573" lon="4.77694">
        <ele>188</ele>
        <time>2018-05-09T09:44:34Z</time>
      </trkpt>
      <trkpt lat="46.06571" lon="4.77694">
        <ele>188</ele>
        <time>2018-05-09T09:44:35Z</time>
      </trkpt>
      <trkpt lat="46.06564" lon="4.77697">
        <ele>189</ele>
        <time>2018-05-09T09:44:36Z</time>
      </trkpt>
      <trkpt lat="46.0656" lon="4.77702">
        <ele>189</ele>
        <time>2018-05-09T09:44:37Z</time>
      </trkpt>
      <trkpt lat="46.06556" lon="4.77708">
        <ele>189</ele>
        <time>2018-05-09T09:44:38Z</time>
      </trkpt>
      <trkpt lat="46.06554" lon="4.77711">
        <ele>189</ele>
        <time>2018-05-09T09:44:39Z</time>
      </trkpt>
      <trkpt lat="46.0655" lon="4.77717">
        <ele>189</ele>
        <time>2018-05-09T09:44:41Z</time>
      </trkpt>
      <trkpt lat="46.06547" lon="4.77722">
        <ele>189</ele>
        <time>2018-05-09T09:44:42Z</time>
      </trkpt>
      <trkpt lat="46.06544" lon="4.77728">
        <ele>189</ele>
        <time>2018-05-09T09:44:43Z</time>
      </trkpt>
      <trkpt lat="46.06543" lon="4.77734">
        <ele>190</ele>
        <time>2018-05-09T09:44:44Z</time>
      </trkpt>
      <trkpt lat="46.0654" lon="4.77739">
        <ele>190</ele>
        <time>2018-05-09T09:44:45Z</time>
      </trkpt>
      <trkpt lat="46.06537" lon="4.77744">
        <ele>190</ele>
        <time>2018-05-09T09:44:46Z</time>
      </trkpt>
      <trkpt lat="46.06535" lon="4.77751">
        <ele>191</ele>
        <time>2018-05-09T09:44:47Z</time>
      </trkpt>
      <trkpt lat="46.06531" lon="4.77757">
        <ele>192</ele>
        <time>2018-05-09T09:44:48Z</time>
      </trkpt>
      <trkpt lat="46.06528" lon="4.77763">
        <ele>192</ele>
        <time>2018-05-09T09:44:49Z</time>
      </trkpt>
      <trkpt lat="46.06525" lon="4.77766">
        <ele>192</ele>
        <time>2018-05-09T09:44:50Z</time>
      </trkpt>
      <trkpt lat="46.06523" lon="4.77768">
        <ele>192</ele>
        <time>2018-05-09T09:44:51Z</time>
      </trkpt>
      <trkpt lat="46.06518" lon="4.77777">
        <ele>192</ele>
        <time>2018-05-09T09:44:52Z</time>
      </trkpt>
      <trkpt lat="46.06515" lon="4.77782">
        <ele>192</ele>
        <time>2018-05-09T09:44:53Z</time>
      </trkpt>
      <trkpt lat="46.06512" lon="4.77789">
        <ele>192</ele>
        <time>2018-05-09T09:44:54Z</time>
      </trkpt>
      <trkpt lat="46.06507" lon="4.77798">
        <ele>192</ele>
        <time>2018-05-09T09:44:56Z</time>
      </trkpt>
      <trkpt lat="46.06504" lon="4.77804">
        <ele>192</ele>
        <time>2018-05-09T09:44:57Z</time>
      </trkpt>
      <trkpt lat="46.065" lon="4.77815">
        <ele>192</ele>
        <time>2018-05-09T09:44:59Z</time>
      </trkpt>
      <trkpt lat="46.06497" lon="4.7782">
        <ele>192</ele>
        <time>2018-05-09T09:45:00Z</time>
      </trkpt>
      <trkpt lat="46.06496" lon="4.77829">
        <ele>192</ele>
        <time>2018-05-09T09:45:01Z</time>
      </trkpt>
      <trkpt lat="46.06493" lon="4.77834">
        <ele>192</ele>
        <time>2018-05-09T09:45:02Z</time>
      </trkpt>
      <trkpt lat="46.06489" lon="4.77844">
        <ele>192</ele>
        <time>2018-05-09T09:45:04Z</time>
      </trkpt>
      <trkpt lat="46.06487" lon="4.77849">
        <ele>192</ele>
        <time>2018-05-09T09:45:05Z</time>
      </trkpt>
      <trkpt lat="46.06483" lon="4.7786">
        <ele>192</ele>
        <time>2018-05-09T09:45:08Z</time>
      </trkpt>
      <trkpt lat="46.06481" lon="4.77867">
        <ele>193</ele>
        <time>2018-05-09T09:45:09Z</time>
      </trkpt>
      <trkpt lat="46.06478" lon="4.77876">
        <ele>193</ele>
        <time>2018-05-09T09:45:12Z</time>
      </trkpt>
      <trkpt lat="46.06476" lon="4.7788">
        <ele>193</ele>
        <time>2018-05-09T09:45:13Z</time>
      </trkpt>
      <trkpt lat="46.06474" lon="4.77888">
        <ele>193</ele>
        <time>2018-05-09T09:45:15Z</time>
      </trkpt>
      <trkpt lat="46.06472" lon="4.77892">
        <ele>193</ele>
        <time>2018-05-09T09:45:16Z</time>
      </trkpt>
      <trkpt lat="46.06468" lon="4.77901">
        <ele>193</ele>
        <time>2018-05-09T09:45:18Z</time>
      </trkpt>
      <trkpt lat="46.06467" lon="4.77906">
        <ele>193</ele>
        <time>2018-05-09T09:45:19Z</time>
      </trkpt>
      <trkpt lat="46.06463" lon="4.77915">
        <ele>193</ele>
        <time>2018-05-09T09:45:21Z</time>
      </trkpt>
      <trkpt lat="46.06462" lon="4.77919">
        <ele>194</ele>
        <time>2018-05-09T09:45:22Z</time>
      </trkpt>
      <trkpt lat="46.06459" lon="4.77928">
        <ele>195</ele>
        <time>2018-05-09T09:45:24Z</time>
      </trkpt>
      <trkpt lat="46.06457" lon="4.77932">
        <ele>195</ele>
        <time>2018-05-09T09:45:25Z</time>
      </trkpt>
      <trkpt lat="46.06454" lon="4.77941">
        <ele>195</ele>
        <time>2018-05-09T09:45:27Z</time>
      </trkpt>
      <trkpt lat="46.06453" lon="4.77945">
        <ele>195</ele>
        <time>2018-05-09T09:45:28Z</time>
      </trkpt>
      <trkpt lat="46.0645" lon="4.77955">
        <ele>195</ele>
        <time>2018-05-09T09:45:30Z</time>
      </trkpt>
      <trkpt lat="46.06449" lon="4.77959">
        <ele>195</ele>
        <time>2018-05-09T09:45:31Z</time>
      </trkpt>
      <trkpt lat="46.06447" lon="4.77968">
        <ele>195</ele>
        <time>2018-05-09T09:45:33Z</time>
      </trkpt>
      <trkpt lat="46.06447" lon="4.77973">
        <ele>195</ele>
        <time>2018-05-09T09:45:34Z</time>
      </trkpt>
      <trkpt lat="46.06445" lon="4.77982">
        <ele>195</ele>
        <time>2018-05-09T09:45:36Z</time>
      </trkpt>
      <trkpt lat="46.06444" lon="4.77986">
        <ele>195</ele>
        <time>2018-05-09T09:45:37Z</time>
      </trkpt>
      <trkpt lat="46.06443" lon="4.77995">
        <ele>195</ele>
        <time>2018-05-09T09:45:39Z</time>
      </trkpt>
      <trkpt lat="46.06442" lon="4.78">
        <ele>195</ele>
        <time>2018-05-09T09:45:40Z</time>
      </trkpt>
      <trkpt lat="46.06439" lon="4.78008">
        <ele>197</ele>
        <time>2018-05-09T09:45:42Z</time>
      </trkpt>
      <trkpt lat="46.06437" lon="4.78012">
        <ele>197</ele>
        <time>2018-05-09T09:45:43Z</time>
      </trkpt>
      <trkpt lat="46.06433" lon="4.7802">
        <ele>197</ele>
        <time>2018-05-09T09:45:45Z</time>
      </trkpt>
      <trkpt lat="46.06431" lon="4.78023">
        <ele>197</ele>
        <time>2018-05-09T09:45:46Z</time>
      </trkpt>
      <trkpt lat="46.06425" lon="4.78029">
        <ele>198</ele>
        <time>2018-05-09T09:45:48Z</time>
      </trkpt>
      <trkpt lat="46.06423" lon="4.78032">
        <ele>198</ele>
        <time>2018-05-09T09:45:49Z</time>
      </trkpt>
      <trkpt lat="46.06418" lon="4.78038">
        <ele>198</ele>
        <time>2018-05-09T09:45:51Z</time>
      </trkpt>
      <trkpt lat="46.0641" lon="4.78047">
        <ele>197</ele>
        <time>2018-05-09T09:45:52Z</time>
      </trkpt>
      <trkpt lat="46.06405" lon="4.78055">
        <ele>198</ele>
        <time>2018-05-09T09:45:54Z</time>
      </trkpt>
      <trkpt lat="46.06403" lon="4.7806">
        <ele>198</ele>
        <time>2018-05-09T09:45:55Z</time>
      </trkpt>
      <trkpt lat="46.06398" lon="4.7807">
        <ele>198</ele>
        <time>2018-05-09T09:45:57Z</time>
      </trkpt>
      <trkpt lat="46.06396" lon="4.78076">
        <ele>198</ele>
        <time>2018-05-09T09:45:58Z</time>
      </trkpt>
      <trkpt lat="46.06392" lon="4.78087">
        <ele>200</ele>
        <time>2018-05-09T09:46:00Z</time>
      </trkpt>
      <trkpt lat="46.06391" lon="4.78092">
        <ele>200</ele>
        <time>2018-05-09T09:46:01Z</time>
      </trkpt>
      <trkpt lat="46.06388" lon="4.78104">
        <ele>200</ele>
        <time>2018-05-09T09:46:03Z</time>
      </trkpt>
      <trkpt lat="46.06387" lon="4.7811">
        <ele>200</ele>
        <time>2018-05-09T09:46:04Z</time>
      </trkpt>
      <trkpt lat="46.06385" lon="4.78122">
        <ele>200</ele>
        <time>2018-05-09T09:46:06Z</time>
      </trkpt>
      <trkpt lat="46.06385" lon="4.78129">
        <ele>201</ele>
        <time>2018-05-09T09:46:07Z</time>
      </trkpt>
      <trkpt lat="46.06385" lon="4.7814">
        <ele>201</ele>
        <time>2018-05-09T09:46:09Z</time>
      </trkpt>
      <trkpt lat="46.06385" lon="4.78143">
        <ele>201</ele>
        <time>2018-05-09T09:46:10Z</time>
      </trkpt>
      <trkpt lat="46.06385" lon="4.78156">
        <ele>201</ele>
        <time>2018-05-09T09:46:12Z</time>
      </trkpt>
      <trkpt lat="46.06384" lon="4.78161">
        <ele>201</ele>
        <time>2018-05-09T09:46:13Z</time>
      </trkpt>
      <trkpt lat="46.06384" lon="4.78167">
        <ele>204</ele>
        <time>2018-05-09T09:46:15Z</time>
      </trkpt>
      <trkpt lat="46.06384" lon="4.78177">
        <ele>204</ele>
        <time>2018-05-09T09:46:16Z</time>
      </trkpt>
      <trkpt lat="46.06383" lon="4.78188">
        <ele>204</ele>
        <time>2018-05-09T09:46:18Z</time>
      </trkpt>
      <trkpt lat="46.06382" lon="4.78194">
        <ele>204</ele>
        <time>2018-05-09T09:46:19Z</time>
      </trkpt>
      <trkpt lat="46.0638" lon="4.78203">
        <ele>204</ele>
        <time>2018-05-09T09:46:21Z</time>
      </trkpt>
      <trkpt lat="46.06378" lon="4.78207">
        <ele>204</ele>
        <time>2018-05-09T09:46:22Z</time>
      </trkpt>
      <trkpt lat="46.06373" lon="4.78215">
        <ele>204</ele>
        <time>2018-05-09T09:46:24Z</time>
      </trkpt>
      <trkpt lat="46.0637" lon="4.78218">
        <ele>204</ele>
        <time>2018-05-09T09:46:25Z</time>
      </trkpt>
      <trkpt lat="46.06365" lon="4.78225">
        <ele>205</ele>
        <time>2018-05-09T09:46:28Z</time>
      </trkpt>
      <trkpt lat="46.0636" lon="4.78231">
        <ele>205</ele>
        <time>2018-05-09T09:46:29Z</time>
      </trkpt>
      <trkpt lat="46.06354" lon="4.78239">
        <ele>205</ele>
        <time>2018-05-09T09:46:33Z</time>
      </trkpt>
      <trkpt lat="46.06347" lon="4.78244">
        <ele>205</ele>
        <time>2018-05-09T09:46:34Z</time>
      </trkpt>
      <trkpt lat="46.06339" lon="4.78244">
        <ele>205</ele>
        <time>2018-05-09T09:46:36Z</time>
      </trkpt>
      <trkpt lat="46.06334" lon="4.78242">
        <ele>205</ele>
        <time>2018-05-09T09:46:37Z</time>
      </trkpt>
      <trkpt lat="46.0633" lon="4.7824">
        <ele>206</ele>
        <time>2018-05-09T09:46:38Z</time>
      </trkpt>
      <trkpt lat="46.06325" lon="4.78238">
        <ele>206</ele>
        <time>2018-05-09T09:46:39Z</time>
      </trkpt>
      <trkpt lat="46.06321" lon="4.78236">
        <ele>206</ele>
        <time>2018-05-09T09:46:40Z</time>
      </trkpt>
      <trkpt lat="46.06316" lon="4.78233">
        <ele>206</ele>
        <time>2018-05-09T09:46:41Z</time>
      </trkpt>
      <trkpt lat="46.06308" lon="4.78229">
        <ele>205</ele>
        <time>2018-05-09T09:46:43Z</time>
      </trkpt>
      <trkpt lat="46.06303" lon="4.78225">
        <ele>205</ele>
        <time>2018-05-09T09:46:44Z</time>
      </trkpt>
      <trkpt lat="46.06297" lon="4.78218">
        <ele>205</ele>
        <time>2018-05-09T09:46:46Z</time>
      </trkpt>
      <trkpt lat="46.06293" lon="4.78216">
        <ele>205</ele>
        <time>2018-05-09T09:46:47Z</time>
      </trkpt>
      <trkpt lat="46.06286" lon="4.78208">
        <ele>205</ele>
        <time>2018-05-09T09:46:49Z</time>
      </trkpt>
      <trkpt lat="46.06283" lon="4.78206">
        <ele>205</ele>
        <time>2018-05-09T09:46:50Z</time>
      </trkpt>
      <trkpt lat="46.06275" lon="4.78201">
        <ele>205</ele>
        <time>2018-05-09T09:46:52Z</time>
      </trkpt>
      <trkpt lat="46.06271" lon="4.78199">
        <ele>205</ele>
        <time>2018-05-09T09:46:53Z</time>
      </trkpt>
      <trkpt lat="46.06264" lon="4.78193">
        <ele>205</ele>
        <time>2018-05-09T09:46:55Z</time>
      </trkpt>
      <trkpt lat="46.0626" lon="4.7819">
        <ele>205</ele>
        <time>2018-05-09T09:46:56Z</time>
      </trkpt>
      <trkpt lat="46.06255" lon="4.78186">
        <ele>205</ele>
        <time>2018-05-09T09:46:57Z</time>
      </trkpt>
      <trkpt lat="46.06252" lon="4.78181">
        <ele>205</ele>
        <time>2018-05-09T09:46:58Z</time>
      </trkpt>
      <trkpt lat="46.06248" lon="4.78179">
        <ele>206</ele>
        <time>2018-05-09T09:46:59Z</time>
      </trkpt>
      <trkpt lat="46.06243" lon="4.78177">
        <ele>206</ele>
        <time>2018-05-09T09:47:00Z</time>
      </trkpt>
      <trkpt lat="46.06237" lon="4.7817">
        <ele>206</ele>
        <time>2018-05-09T09:47:02Z</time>
      </trkpt>
      <trkpt lat="46.06232" lon="4.78169">
        <ele>206</ele>
        <time>2018-05-09T09:47:03Z</time>
      </trkpt>
      <trkpt lat="46.06224" lon="4.78164">
        <ele>205</ele>
        <time>2018-05-09T09:47:05Z</time>
      </trkpt>
      <trkpt lat="46.0622" lon="4.78162">
        <ele>205</ele>
        <time>2018-05-09T09:47:06Z</time>
      </trkpt>
      <trkpt lat="46.06212" lon="4.78158">
        <ele>205</ele>
        <time>2018-05-09T09:47:08Z</time>
      </trkpt>
      <trkpt lat="46.06208" lon="4.78156">
        <ele>205</ele>
        <time>2018-05-09T09:47:09Z</time>
      </trkpt>
      <trkpt lat="46.06203" lon="4.78154">
        <ele>205</ele>
        <time>2018-05-09T09:47:10Z</time>
      </trkpt>
      <trkpt lat="46.06199" lon="4.78152">
        <ele>205</ele>
        <time>2018-05-09T09:47:11Z</time>
      </trkpt>
      <trkpt lat="46.06193" lon="4.7815">
        <ele>205</ele>
        <time>2018-05-09T09:47:12Z</time>
      </trkpt>
      <trkpt lat="46.06189" lon="4.78149">
        <ele>206</ele>
        <time>2018-05-09T09:47:13Z</time>
      </trkpt>
      <trkpt lat="46.0618" lon="4.78146">
        <ele>206</ele>
        <time>2018-05-09T09:47:15Z</time>
      </trkpt>
      <trkpt lat="46.06175" lon="4.78144">
        <ele>206</ele>
        <time>2018-05-09T09:47:16Z</time>
      </trkpt>
      <trkpt lat="46.06169" lon="4.78141">
        <ele>206</ele>
        <time>2018-05-09T09:47:18Z</time>
      </trkpt>
      <trkpt lat="46.06167" lon="4.78136">
        <ele>206</ele>
        <time>2018-05-09T09:47:19Z</time>
      </trkpt>
      <trkpt lat="46.06159" lon="4.78132">
        <ele>208</ele>
        <time>2018-05-09T09:47:21Z</time>
      </trkpt>
      <trkpt lat="46.06156" lon="4.78128">
        <ele>208</ele>
        <time>2018-05-09T09:47:22Z</time>
      </trkpt>
      <trkpt lat="46.06149" lon="4.78123">
        <ele>208</ele>
        <time>2018-05-09T09:47:24Z</time>
      </trkpt>
      <trkpt lat="46.06146" lon="4.78121">
        <ele>208</ele>
        <time>2018-05-09T09:47:25Z</time>
      </trkpt>
      <trkpt lat="46.06141" lon="4.78117">
        <ele>208</ele>
        <time>2018-05-09T09:47:27Z</time>
      </trkpt>
      <trkpt lat="46.06136" lon="4.78112">
        <ele>208</ele>
        <time>2018-05-09T09:47:28Z</time>
      </trkpt>
      <trkpt lat="46.06132" lon="4.78105">
        <ele>209</ele>
        <time>2018-05-09T09:47:31Z</time>
      </trkpt>
      <trkpt lat="46.0613" lon="4.78102">
        <ele>209</ele>
        <time>2018-05-09T09:47:32Z</time>
      </trkpt>
      <trkpt lat="46.06124" lon="4.78094">
        <ele>209</ele>
        <time>2018-05-09T09:47:33Z</time>
      </trkpt>
      <trkpt lat="46.06121" lon="4.78091">
        <ele>209</ele>
        <time>2018-05-09T09:47:34Z</time>
      </trkpt>
      <trkpt lat="46.06118" lon="4.78087">
        <ele>209</ele>
        <time>2018-05-09T09:47:36Z</time>
      </trkpt>
      <trkpt lat="46.06114" lon="4.78081">
        <ele>210</ele>
        <time>2018-05-09T09:47:37Z</time>
      </trkpt>
      <trkpt lat="46.06107" lon="4.78073">
        <ele>210</ele>
        <time>2018-05-09T09:47:41Z</time>
      </trkpt>
      <trkpt lat="46.06102" lon="4.78066">
        <ele>210</ele>
        <time>2018-05-09T09:47:42Z</time>
      </trkpt>
      <trkpt lat="46.06095" lon="4.7806">
        <ele>210</ele>
        <time>2018-05-09T09:47:44Z</time>
      </trkpt>
      <trkpt lat="46.06092" lon="4.78057">
        <ele>210</ele>
        <time>2018-05-09T09:47:45Z</time>
      </trkpt>
      <trkpt lat="46.06088" lon="4.78054">
        <ele>210</ele>
        <time>2018-05-09T09:47:46Z</time>
      </trkpt>
      <trkpt lat="46.06083" lon="4.78053">
        <ele>211</ele>
        <time>2018-05-09T09:47:47Z</time>
      </trkpt>
      <trkpt lat="46.06079" lon="4.7805">
        <ele>211</ele>
        <time>2018-05-09T09:47:48Z</time>
      </trkpt>
      <trkpt lat="46.06076" lon="4.78046">
        <ele>211</ele>
        <time>2018-05-09T09:47:49Z</time>
      </trkpt>
      <trkpt lat="46.06071" lon="4.78043">
        <ele>211</ele>
        <time>2018-05-09T09:47:50Z</time>
      </trkpt>
      <trkpt lat="46.06066" lon="4.78039">
        <ele>211</ele>
        <time>2018-05-09T09:47:51Z</time>
      </trkpt>
      <trkpt lat="46.06063" lon="4.78032">
        <ele>211</ele>
        <time>2018-05-09T09:47:52Z</time>
      </trkpt>
      <trkpt lat="46.06059" lon="4.78027">
        <ele>211</ele>
        <time>2018-05-09T09:47:53Z</time>
      </trkpt>
      <trkpt lat="46.06052" lon="4.78019">
        <ele>211</ele>
        <time>2018-05-09T09:47:55Z</time>
      </trkpt>
      <trkpt lat="46.0605" lon="4.78014">
        <ele>211</ele>
        <time>2018-05-09T09:47:56Z</time>
      </trkpt>
      <trkpt lat="46.06045" lon="4.78005">
        <ele>211</ele>
        <time>2018-05-09T09:47:58Z</time>
      </trkpt>
      <trkpt lat="46.06043" lon="4.78001">
        <ele>211</ele>
        <time>2018-05-09T09:47:59Z</time>
      </trkpt>
      <trkpt lat="46.0604" lon="4.77996">
        <ele>211</ele>
        <time>2018-05-09T09:48:00Z</time>
      </trkpt>
      <trkpt lat="46.06036" lon="4.77991">
        <ele>211</ele>
        <time>2018-05-09T09:48:01Z</time>
      </trkpt>
      <trkpt lat="46.06033" lon="4.77987">
        <ele>211</ele>
        <time>2018-05-09T09:48:02Z</time>
      </trkpt>
      <trkpt lat="46.06029" lon="4.77982">
        <ele>211</ele>
        <time>2018-05-09T09:48:03Z</time>
      </trkpt>
      <trkpt lat="46.06022" lon="4.77975">
        <ele>211</ele>
        <time>2018-05-09T09:48:05Z</time>
      </trkpt>
      <trkpt lat="46.06017" lon="4.77971">
        <ele>211</ele>
        <time>2018-05-09T09:48:06Z</time>
      </trkpt>
      <trkpt lat="46.06013" lon="4.77968">
        <ele>211</ele>
        <time>2018-05-09T09:48:07Z</time>
      </trkpt>
      <trkpt lat="46.06009" lon="4.77965">
        <ele>211</ele>
        <time>2018-05-09T09:48:08Z</time>
      </trkpt>
      <trkpt lat="46.06006" lon="4.7796">
        <ele>211</ele>
        <time>2018-05-09T09:48:09Z</time>
      </trkpt>
      <trkpt lat="46.06002" lon="4.77955">
        <ele>211</ele>
        <time>2018-05-09T09:48:10Z</time>
      </trkpt>
      <trkpt lat="46.06" lon="4.77949">
        <ele>211</ele>
        <time>2018-05-09T09:48:11Z</time>
      </trkpt>
      <trkpt lat="46.05998" lon="4.77943">
        <ele>212</ele>
        <time>2018-05-09T09:48:12Z</time>
      </trkpt>
      <trkpt lat="46.05994" lon="4.77933">
        <ele>212</ele>
        <time>2018-05-09T09:48:14Z</time>
      </trkpt>
      <trkpt lat="46.05993" lon="4.77927">
        <ele>212</ele>
        <time>2018-05-09T09:48:15Z</time>
      </trkpt>
      <trkpt lat="46.05989" lon="4.77917">
        <ele>211</ele>
        <time>2018-05-09T09:48:17Z</time>
      </trkpt>
      <trkpt lat="46.05986" lon="4.77912">
        <ele>211</ele>
        <time>2018-05-09T09:48:18Z</time>
      </trkpt>
      <trkpt lat="46.05984" lon="4.77906">
        <ele>211</ele>
        <time>2018-05-09T09:48:19Z</time>
      </trkpt>
      <trkpt lat="46.05981" lon="4.77901">
        <ele>211</ele>
        <time>2018-05-09T09:48:20Z</time>
      </trkpt>
      <trkpt lat="46.05978" lon="4.77896">
        <ele>211</ele>
        <time>2018-05-09T09:48:21Z</time>
      </trkpt>
      <trkpt lat="46.05974" lon="4.77891">
        <ele>211</ele>
        <time>2018-05-09T09:48:22Z</time>
      </trkpt>
      <trkpt lat="46.05971" lon="4.77885">
        <ele>211</ele>
        <time>2018-05-09T09:48:23Z</time>
      </trkpt>
      <trkpt lat="46.05969" lon="4.77879">
        <ele>211</ele>
        <time>2018-05-09T09:48:24Z</time>
      </trkpt>
      <trkpt lat="46.05966" lon="4.77873">
        <ele>211</ele>
        <time>2018-05-09T09:48:25Z</time>
      </trkpt>
      <trkpt lat="46.05962" lon="4.77868">
        <ele>211</ele>
        <time>2018-05-09T09:48:26Z</time>
      </trkpt>
      <trkpt lat="46.05958" lon="4.77861">
        <ele>211</ele>
        <time>2018-05-09T09:48:27Z</time>
      </trkpt>
      <trkpt lat="46.05955" lon="4.77857">
        <ele>211</ele>
        <time>2018-05-09T09:48:28Z</time>
      </trkpt>
      <trkpt lat="46.05952" lon="4.77851">
        <ele>211</ele>
        <time>2018-05-09T09:48:29Z</time>
      </trkpt>
      <trkpt lat="46.05949" lon="4.77846">
        <ele>211</ele>
        <time>2018-05-09T09:48:30Z</time>
      </trkpt>
      <trkpt lat="46.05946" lon="4.77842">
        <ele>211</ele>
        <time>2018-05-09T09:48:31Z</time>
      </trkpt>
      <trkpt lat="46.05943" lon="4.77836">
        <ele>211</ele>
        <time>2018-05-09T09:48:32Z</time>
      </trkpt>
      <trkpt lat="46.0594" lon="4.7783">
        <ele>210</ele>
        <time>2018-05-09T09:48:33Z</time>
      </trkpt>
      <trkpt lat="46.05937" lon="4.77825">
        <ele>210</ele>
        <time>2018-05-09T09:48:34Z</time>
      </trkpt>
      <trkpt lat="46.05934" lon="4.7782">
        <ele>210</ele>
        <time>2018-05-09T09:48:35Z</time>
      </trkpt>
      <trkpt lat="46.05931" lon="4.77814">
        <ele>210</ele>
        <time>2018-05-09T09:48:36Z</time>
      </trkpt>
      <trkpt lat="46.05927" lon="4.77808">
        <ele>210</ele>
        <time>2018-05-09T09:48:37Z</time>
      </trkpt>
      <trkpt lat="46.05924" lon="4.77801">
        <ele>210</ele>
        <time>2018-05-09T09:48:38Z</time>
      </trkpt>
      <trkpt lat="46.0592" lon="4.77796">
        <ele>210</ele>
        <time>2018-05-09T09:48:39Z</time>
      </trkpt>
      <trkpt lat="46.05916" lon="4.77788">
        <ele>210</ele>
        <time>2018-05-09T09:48:40Z</time>
      </trkpt>
      <trkpt lat="46.05912" lon="4.77782">
        <ele>210</ele>
        <time>2018-05-09T09:48:41Z</time>
      </trkpt>
      <trkpt lat="46.05908" lon="4.77774">
        <ele>210</ele>
        <time>2018-05-09T09:48:42Z</time>
      </trkpt>
      <trkpt lat="46.05906" lon="4.77766">
        <ele>209</ele>
        <time>2018-05-09T09:48:43Z</time>
      </trkpt>
      <trkpt lat="46.05904" lon="4.77759">
        <ele>209</ele>
        <time>2018-05-09T09:48:44Z</time>
      </trkpt>
      <trkpt lat="46.05896" lon="4.77752">
        <ele>209</ele>
        <time>2018-05-09T09:48:45Z</time>
      </trkpt>
      <trkpt lat="46.05895" lon="4.77742">
        <ele>209</ele>
        <time>2018-05-09T09:48:46Z</time>
      </trkpt>
      <trkpt lat="46.05893" lon="4.77735">
        <ele>209</ele>
        <time>2018-05-09T09:48:47Z</time>
      </trkpt>
      <trkpt lat="46.05892" lon="4.77726">
        <ele>209</ele>
        <time>2018-05-09T09:48:48Z</time>
      </trkpt>
      <trkpt lat="46.05891" lon="4.77716">
        <ele>208</ele>
        <time>2018-05-09T09:48:49Z</time>
      </trkpt>
      <trkpt lat="46.05891" lon="4.77706">
        <ele>208</ele>
        <time>2018-05-09T09:48:50Z</time>
      </trkpt>
      <trkpt lat="46.05891" lon="4.77697">
        <ele>208</ele>
        <time>2018-05-09T09:48:51Z</time>
      </trkpt>
      <trkpt lat="46.05889" lon="4.77689">
        <ele>208</ele>
        <time>2018-05-09T09:48:52Z</time>
      </trkpt>
      <trkpt lat="46.05886" lon="4.77681">
        <ele>208</ele>
        <time>2018-05-09T09:48:53Z</time>
      </trkpt>
      <trkpt lat="46.05884" lon="4.77674">
        <ele>208</ele>
        <time>2018-05-09T09:48:54Z</time>
      </trkpt>
      <trkpt lat="46.05881" lon="4.77667">
        <ele>208</ele>
        <time>2018-05-09T09:48:55Z</time>
      </trkpt>
      <trkpt lat="46.05877" lon="4.77661">
        <ele>208</ele>
        <time>2018-05-09T09:48:56Z</time>
      </trkpt>
      <trkpt lat="46.05873" lon="4.77656">
        <ele>208</ele>
        <time>2018-05-09T09:48:57Z</time>
      </trkpt>
      <trkpt lat="46.05868" lon="4.7765">
        <ele>208</ele>
        <time>2018-05-09T09:48:58Z</time>
      </trkpt>
      <trkpt lat="46.05863" lon="4.77646">
        <ele>208</ele>
        <time>2018-05-09T09:48:59Z</time>
      </trkpt>
      <trkpt lat="46.05859" lon="4.77641">
        <ele>208</ele>
        <time>2018-05-09T09:49:00Z</time>
      </trkpt>
      <trkpt lat="46.05855" lon="4.77637">
        <ele>208</ele>
        <time>2018-05-09T09:49:01Z</time>
      </trkpt>
      <trkpt lat="46.05851" lon="4.77631">
        <ele>208</ele>
        <time>2018-05-09T09:49:02Z</time>
      </trkpt>
      <trkpt lat="46.05846" lon="4.77626">
        <ele>208</ele>
        <time>2018-05-09T09:49:03Z</time>
      </trkpt>
      <trkpt lat="46.05842" lon="4.77622">
        <ele>208</ele>
        <time>2018-05-09T09:49:04Z</time>
      </trkpt>
      <trkpt lat="46.05838" lon="4.77616">
        <ele>208</ele>
        <time>2018-05-09T09:49:05Z</time>
      </trkpt>
      <trkpt lat="46.05834" lon="4.77611">
        <ele>208</ele>
        <time>2018-05-09T09:49:06Z</time>
      </trkpt>
      <trkpt lat="46.05828" lon="4.77606">
        <ele>208</ele>
        <time>2018-05-09T09:49:07Z</time>
      </trkpt>
      <trkpt lat="46.05823" lon="4.77601">
        <ele>208</ele>
        <time>2018-05-09T09:49:08Z</time>
      </trkpt>
      <trkpt lat="46.05819" lon="4.77596">
        <ele>208</ele>
        <time>2018-05-09T09:49:09Z</time>
      </trkpt>
      <trkpt lat="46.05816" lon="4.77592">
        <ele>208</ele>
        <time>2018-05-09T09:49:10Z</time>
      </trkpt>
      <trkpt lat="46.05812" lon="4.77589">
        <ele>208</ele>
        <time>2018-05-09T09:49:11Z</time>
      </trkpt>
      <trkpt lat="46.05807" lon="4.77585">
        <ele>209</ele>
        <time>2018-05-09T09:49:12Z</time>
      </trkpt>
      <trkpt lat="46.05803" lon="4.77581">
        <ele>208</ele>
        <time>2018-05-09T09:49:13Z</time>
      </trkpt>
      <trkpt lat="46.05799" lon="4.77575">
        <ele>208</ele>
        <time>2018-05-09T09:49:14Z</time>
      </trkpt>
      <trkpt lat="46.05794" lon="4.77571">
        <ele>208</ele>
        <time>2018-05-09T09:49:15Z</time>
      </trkpt>
      <trkpt lat="46.0579" lon="4.77567">
        <ele>208</ele>
        <time>2018-05-09T09:49:16Z</time>
      </trkpt>
      <trkpt lat="46.05787" lon="4.77562">
        <ele>208</ele>
        <time>2018-05-09T09:49:17Z</time>
      </trkpt>
      <trkpt lat="46.05783" lon="4.77557">
        <ele>208</ele>
        <time>2018-05-09T09:49:18Z</time>
      </trkpt>
      <trkpt lat="46.05778" lon="4.77552">
        <ele>208</ele>
        <time>2018-05-09T09:49:19Z</time>
      </trkpt>
      <trkpt lat="46.05774" lon="4.77547">
        <ele>208</ele>
        <time>2018-05-09T09:49:20Z</time>
      </trkpt>
      <trkpt lat="46.0577" lon="4.77541">
        <ele>208</ele>
        <time>2018-05-09T09:49:21Z</time>
      </trkpt>
      <trkpt lat="46.05767" lon="4.77534">
        <ele>208</ele>
        <time>2018-05-09T09:49:22Z</time>
      </trkpt>
      <trkpt lat="46.05764" lon="4.77529">
        <ele>208</ele>
        <time>2018-05-09T09:49:23Z</time>
      </trkpt>
      <trkpt lat="46.0576" lon="4.77523">
        <ele>208</ele>
        <time>2018-05-09T09:49:24Z</time>
      </trkpt>
      <trkpt lat="46.05756" lon="4.77517">
        <ele>208</ele>
        <time>2018-05-09T09:49:25Z</time>
      </trkpt>
      <trkpt lat="46.05752" lon="4.7751">
        <ele>208</ele>
        <time>2018-05-09T09:49:26Z</time>
      </trkpt>
      <trkpt lat="46.05748" lon="4.77504">
        <ele>208</ele>
        <time>2018-05-09T09:49:27Z</time>
      </trkpt>
      <trkpt lat="46.05744" lon="4.77499">
        <ele>208</ele>
        <time>2018-05-09T09:49:28Z</time>
      </trkpt>
      <trkpt lat="46.05739" lon="4.77493">
        <ele>208</ele>
        <time>2018-05-09T09:49:29Z</time>
      </trkpt>
      <trkpt lat="46.05735" lon="4.77486">
        <ele>207</ele>
        <time>2018-05-09T09:49:30Z</time>
      </trkpt>
      <trkpt lat="46.05731" lon="4.77479">
        <ele>207</ele>
        <time>2018-05-09T09:49:31Z</time>
      </trkpt>
      <trkpt lat="46.05726" lon="4.77474">
        <ele>207</ele>
        <time>2018-05-09T09:49:32Z</time>
      </trkpt>
      <trkpt lat="46.0572" lon="4.77469">
        <ele>207</ele>
        <time>2018-05-09T09:49:33Z</time>
      </trkpt>
      <trkpt lat="46.05715" lon="4.77463">
        <ele>207</ele>
        <time>2018-05-09T09:49:34Z</time>
      </trkpt>
      <trkpt lat="46.0571" lon="4.77459">
        <ele>207</ele>
        <time>2018-05-09T09:49:35Z</time>
      </trkpt>
      <trkpt lat="46.05703" lon="4.77454">
        <ele>207</ele>
        <time>2018-05-09T09:49:36Z</time>
      </trkpt>
      <trkpt lat="46.05698" lon="4.7745">
        <ele>207</ele>
        <time>2018-05-09T09:49:37Z</time>
      </trkpt>
      <trkpt lat="46.05691" lon="4.77447">
        <ele>206</ele>
        <time>2018-05-09T09:49:38Z</time>
      </trkpt>
      <trkpt lat="46.05685" lon="4.77441">
        <ele>206</ele>
        <time>2018-05-09T09:49:39Z</time>
      </trkpt>
      <trkpt lat="46.0568" lon="4.77436">
        <ele>206</ele>
        <time>2018-05-09T09:49:40Z</time>
      </trkpt>
      <trkpt lat="46.05673" lon="4.77431">
        <ele>206</ele>
        <time>2018-05-09T09:49:41Z</time>
      </trkpt>
      <trkpt lat="46.05669" lon="4.77426">
        <ele>206</ele>
        <time>2018-05-09T09:49:42Z</time>
      </trkpt>
      <trkpt lat="46.05663" lon="4.77419">
        <ele>205</ele>
        <time>2018-05-09T09:49:43Z</time>
      </trkpt>
      <trkpt lat="46.05658" lon="4.77412">
        <ele>204</ele>
        <time>2018-05-09T09:49:44Z</time>
      </trkpt>
      <trkpt lat="46.05651" lon="4.77406">
        <ele>204</ele>
        <time>2018-05-09T09:49:45Z</time>
      </trkpt>
      <trkpt lat="46.05645" lon="4.774">
        <ele>204</ele>
        <time>2018-05-09T09:49:46Z</time>
      </trkpt>
      <trkpt lat="46.05638" lon="4.77394">
        <ele>203</ele>
        <time>2018-05-09T09:49:47Z</time>
      </trkpt>
      <trkpt lat="46.05632" lon="4.77388">
        <ele>203</ele>
        <time>2018-05-09T09:49:48Z</time>
      </trkpt>
      <trkpt lat="46.05625" lon="4.77382">
        <ele>203</ele>
        <time>2018-05-09T09:49:49Z</time>
      </trkpt>
      <trkpt lat="46.05618" lon="4.77376">
        <ele>203</ele>
        <time>2018-05-09T09:49:50Z</time>
      </trkpt>
      <trkpt lat="46.05611" lon="4.77371">
        <ele>202</ele>
        <time>2018-05-09T09:49:51Z</time>
      </trkpt>
      <trkpt lat="46.05602" lon="4.77365">
        <ele>202</ele>
        <time>2018-05-09T09:49:52Z</time>
      </trkpt>
      <trkpt lat="46.05595" lon="4.7736">
        <ele>202</ele>
        <time>2018-05-09T09:49:53Z</time>
      </trkpt>
      <trkpt lat="46.05588" lon="4.77356">
        <ele>202</ele>
        <time>2018-05-09T09:49:54Z</time>
      </trkpt>
      <trkpt lat="46.05581" lon="4.77352">
        <ele>201</ele>
        <time>2018-05-09T09:49:55Z</time>
      </trkpt>
      <trkpt lat="46.05573" lon="4.77347">
        <ele>201</ele>
        <time>2018-05-09T09:49:56Z</time>
      </trkpt>
      <trkpt lat="46.05566" lon="4.77342">
        <ele>201</ele>
        <time>2018-05-09T09:49:57Z</time>
      </trkpt>
      <trkpt lat="46.05558" lon="4.77338">
        <ele>201</ele>
        <time>2018-05-09T09:49:58Z</time>
      </trkpt>
      <trkpt lat="46.0555" lon="4.77333">
        <ele>200</ele>
        <time>2018-05-09T09:49:59Z</time>
      </trkpt>
      <trkpt lat="46.05543" lon="4.77328">
        <ele>200</ele>
        <time>2018-05-09T09:50:00Z</time>
      </trkpt>
      <trkpt lat="46.05536" lon="4.77324">
        <ele>200</ele>
        <time>2018-05-09T09:50:01Z</time>
      </trkpt>
      <trkpt lat="46.05528" lon="4.7732">
        <ele>200</ele>
        <time>2018-05-09T09:50:02Z</time>
      </trkpt>
      <trkpt lat="46.05521" lon="4.77316">
        <ele>200</ele>
        <time>2018-05-09T09:50:03Z</time>
      </trkpt>
      <trkpt lat="46.05514" lon="4.77311">
        <ele>200</ele>
        <time>2018-05-09T09:50:04Z</time>
      </trkpt>
      <trkpt lat="46.05507" lon="4.77309">
        <ele>200</ele>
        <time>2018-05-09T09:50:05Z</time>
      </trkpt>
      <trkpt lat="46.055" lon="4.77304">
        <ele>200</ele>
        <time>2018-05-09T09:50:06Z</time>
      </trkpt>
      <trkpt lat="46.05494" lon="4.77301">
        <ele>201</ele>
        <time>2018-05-09T09:50:07Z</time>
      </trkpt>
      <trkpt lat="46.05487" lon="4.77297">
        <ele>201</ele>
        <time>2018-05-09T09:50:08Z</time>
      </trkpt>
      <trkpt lat="46.05481" lon="4.77293">
        <ele>201</ele>
        <time>2018-05-09T09:50:09Z</time>
      </trkpt>
      <trkpt lat="46.05476" lon="4.77288">
        <ele>201</ele>
        <time>2018-05-09T09:50:10Z</time>
      </trkpt>
      <trkpt lat="46.0547" lon="4.77284">
        <ele>201</ele>
        <time>2018-05-09T09:50:11Z</time>
      </trkpt>
      <trkpt lat="46.05464" lon="4.77281">
        <ele>201</ele>
        <time>2018-05-09T09:50:12Z</time>
      </trkpt>
      <trkpt lat="46.05459" lon="4.77279">
        <ele>201</ele>
        <time>2018-05-09T09:50:13Z</time>
      </trkpt>
      <trkpt lat="46.05454" lon="4.77277">
        <ele>201</ele>
        <time>2018-05-09T09:50:14Z</time>
      </trkpt>
      <trkpt lat="46.05449" lon="4.77273">
        <ele>201</ele>
        <time>2018-05-09T09:50:15Z</time>
      </trkpt>
      <trkpt lat="46.05444" lon="4.7727">
        <ele>201</ele>
        <time>2018-05-09T09:50:16Z</time>
      </trkpt>
      <trkpt lat="46.05439" lon="4.77268">
        <ele>201</ele>
        <time>2018-05-09T09:50:17Z</time>
      </trkpt>
      <trkpt lat="46.05434" lon="4.77264">
        <ele>201</ele>
        <time>2018-05-09T09:50:18Z</time>
      </trkpt>
      <trkpt lat="46.05429" lon="4.77262">
        <ele>201</ele>
        <time>2018-05-09T09:50:19Z</time>
      </trkpt>
      <trkpt lat="46.05423" lon="4.77259">
        <ele>201</ele>
        <time>2018-05-09T09:50:20Z</time>
      </trkpt>
      <trkpt lat="46.05418" lon="4.77256">
        <ele>201</ele>
        <time>2018-05-09T09:50:21Z</time>
      </trkpt>
      <trkpt lat="46.05413" lon="4.77253">
        <ele>202</ele>
        <time>2018-05-09T09:50:22Z</time>
      </trkpt>
      <trkpt lat="46.05407" lon="4.77251">
        <ele>202</ele>
        <time>2018-05-09T09:50:23Z</time>
      </trkpt>
      <trkpt lat="46.05403" lon="4.77249">
        <ele>202</ele>
        <time>2018-05-09T09:50:24Z</time>
      </trkpt>
      <trkpt lat="46.05398" lon="4.77248">
        <ele>202</ele>
        <time>2018-05-09T09:50:25Z</time>
      </trkpt>
      <trkpt lat="46.05392" lon="4.77245">
        <ele>202</ele>
        <time>2018-05-09T09:50:26Z</time>
      </trkpt>
      <trkpt lat="46.05387" lon="4.77243">
        <ele>202</ele>
        <time>2018-05-09T09:50:27Z</time>
      </trkpt>
      <trkpt lat="46.05382" lon="4.77242">
        <ele>203</ele>
        <time>2018-05-09T09:50:28Z</time>
      </trkpt>
      <trkpt lat="46.05377" lon="4.7724">
        <ele>203</ele>
        <time>2018-05-09T09:50:29Z</time>
      </trkpt>
      <trkpt lat="46.05371" lon="4.77236">
        <ele>203</ele>
        <time>2018-05-09T09:50:30Z</time>
      </trkpt>
      <trkpt lat="46.05366" lon="4.77233">
        <ele>203</ele>
        <time>2018-05-09T09:50:31Z</time>
      </trkpt>
      <trkpt lat="46.05361" lon="4.7723">
        <ele>203</ele>
        <time>2018-05-09T09:50:32Z</time>
      </trkpt>
      <trkpt lat="46.05357" lon="4.77227">
        <ele>203</ele>
        <time>2018-05-09T09:50:33Z</time>
      </trkpt>
      <trkpt lat="46.05352" lon="4.77224">
        <ele>203</ele>
        <time>2018-05-09T09:50:34Z</time>
      </trkpt>
      <trkpt lat="46.05347" lon="4.77218">
        <ele>203</ele>
        <time>2018-05-09T09:50:36Z</time>
      </trkpt>
      <trkpt lat="46.05343" lon="4.77214">
        <ele>203</ele>
        <time>2018-05-09T09:50:37Z</time>
      </trkpt>
      <trkpt lat="46.05338" lon="4.77211">
        <ele>203</ele>
        <time>2018-05-09T09:50:38Z</time>
      </trkpt>
      <trkpt lat="46.05333" lon="4.77208">
        <ele>205</ele>
        <time>2018-05-09T09:50:39Z</time>
      </trkpt>
      <trkpt lat="46.05328" lon="4.77203">
        <ele>205</ele>
        <time>2018-05-09T09:50:40Z</time>
      </trkpt>
      <trkpt lat="46.05322" lon="4.77199">
        <ele>205</ele>
        <time>2018-05-09T09:50:41Z</time>
      </trkpt>
      <trkpt lat="46.05318" lon="4.77196">
        <ele>205</ele>
        <time>2018-05-09T09:50:42Z</time>
      </trkpt>
      <trkpt lat="46.05314" lon="4.77191">
        <ele>205</ele>
        <time>2018-05-09T09:50:43Z</time>
      </trkpt>
      <trkpt lat="46.05308" lon="4.77186">
        <ele>205</ele>
        <time>2018-05-09T09:50:44Z</time>
      </trkpt>
      <trkpt lat="46.05303" lon="4.77182">
        <ele>205</ele>
        <time>2018-05-09T09:50:45Z</time>
      </trkpt>
      <trkpt lat="46.05299" lon="4.77177">
        <ele>205</ele>
        <time>2018-05-09T09:50:46Z</time>
      </trkpt>
      <trkpt lat="46.05294" lon="4.77172">
        <ele>205</ele>
        <time>2018-05-09T09:50:47Z</time>
      </trkpt>
      <trkpt lat="46.05289" lon="4.77166">
        <ele>204</ele>
        <time>2018-05-09T09:50:48Z</time>
      </trkpt>
      <trkpt lat="46.05285" lon="4.77161">
        <ele>204</ele>
        <time>2018-05-09T09:50:49Z</time>
      </trkpt>
      <trkpt lat="46.05281" lon="4.77156">
        <ele>204</ele>
        <time>2018-05-09T09:50:50Z</time>
      </trkpt>
      <trkpt lat="46.05277" lon="4.77151">
        <ele>204</ele>
        <time>2018-05-09T09:50:51Z</time>
      </trkpt>
      <trkpt lat="46.05271" lon="4.77146">
        <ele>204</ele>
        <time>2018-05-09T09:50:52Z</time>
      </trkpt>
      <trkpt lat="46.05265" lon="4.7714">
        <ele>204</ele>
        <time>2018-05-09T09:50:53Z</time>
      </trkpt>
      <trkpt lat="46.05261" lon="4.77136">
        <ele>204</ele>
        <time>2018-05-09T09:50:54Z</time>
      </trkpt>
      <trkpt lat="46.05257" lon="4.7713">
        <ele>204</ele>
        <time>2018-05-09T09:50:55Z</time>
      </trkpt>
      <trkpt lat="46.05252" lon="4.77125">
        <ele>204</ele>
        <time>2018-05-09T09:50:56Z</time>
      </trkpt>
      <trkpt lat="46.05247" lon="4.7712">
        <ele>204</ele>
        <time>2018-05-09T09:50:57Z</time>
      </trkpt>
      <trkpt lat="46.05244" lon="4.77116">
        <ele>203</ele>
        <time>2018-05-09T09:50:58Z</time>
      </trkpt>
      <trkpt lat="46.0524" lon="4.77113">
        <ele>203</ele>
        <time>2018-05-09T09:50:59Z</time>
      </trkpt>
      <trkpt lat="46.05236" lon="4.77108">
        <ele>203</ele>
        <time>2018-05-09T09:51:00Z</time>
      </trkpt>
      <trkpt lat="46.05233" lon="4.77103">
        <ele>203</ele>
        <time>2018-05-09T09:51:01Z</time>
      </trkpt>
      <trkpt lat="46.0523" lon="4.77097">
        <ele>203</ele>
        <time>2018-05-09T09:51:02Z</time>
      </trkpt>
      <trkpt lat="46.05227" lon="4.77089">
        <ele>203</ele>
        <time>2018-05-09T09:51:03Z</time>
      </trkpt>
      <trkpt lat="46.05225" lon="4.77082">
        <ele>201</ele>
        <time>2018-05-09T09:51:04Z</time>
      </trkpt>
      <trkpt lat="46.05222" lon="4.77075">
        <ele>201</ele>
        <time>2018-05-09T09:51:05Z</time>
      </trkpt>
      <trkpt lat="46.05219" lon="4.77067">
        <ele>201</ele>
        <time>2018-05-09T09:51:06Z</time>
      </trkpt>
      <trkpt lat="46.05213" lon="4.77059">
        <ele>201</ele>
        <time>2018-05-09T09:51:07Z</time>
      </trkpt>
      <trkpt lat="46.05211" lon="4.77051">
        <ele>201</ele>
        <time>2018-05-09T09:51:08Z</time>
      </trkpt>
      <trkpt lat="46.05209" lon="4.77043">
        <ele>201</ele>
        <time>2018-05-09T09:51:09Z</time>
      </trkpt>
      <trkpt lat="46.05206" lon="4.77036">
        <ele>200</ele>
        <time>2018-05-09T09:51:10Z</time>
      </trkpt>
      <trkpt lat="46.05203" lon="4.77028">
        <ele>200</ele>
        <time>2018-05-09T09:51:11Z</time>
      </trkpt>
      <trkpt lat="46.05201" lon="4.7702">
        <ele>200</ele>
        <time>2018-05-09T09:51:12Z</time>
      </trkpt>
      <trkpt lat="46.05196" lon="4.77013">
        <ele>200</ele>
        <time>2018-05-09T09:51:13Z</time>
      </trkpt>
      <trkpt lat="46.05193" lon="4.77005">
        <ele>200</ele>
        <time>2018-05-09T09:51:14Z</time>
      </trkpt>
      <trkpt lat="46.05191" lon="4.76997">
        <ele>198</ele>
        <time>2018-05-09T09:51:15Z</time>
      </trkpt>
      <trkpt lat="46.05189" lon="4.76988">
        <ele>198</ele>
        <time>2018-05-09T09:51:16Z</time>
      </trkpt>
      <trkpt lat="46.05187" lon="4.7698">
        <ele>198</ele>
        <time>2018-05-09T09:51:17Z</time>
      </trkpt>
      <trkpt lat="46.05184" lon="4.76971">
        <ele>198</ele>
        <time>2018-05-09T09:51:18Z</time>
      </trkpt>
      <trkpt lat="46.05182" lon="4.76962">
        <ele>198</ele>
        <time>2018-05-09T09:51:19Z</time>
      </trkpt>
      <trkpt lat="46.05179" lon="4.76954">
        <ele>197</ele>
        <time>2018-05-09T09:51:20Z</time>
      </trkpt>
      <trkpt lat="46.05176" lon="4.76946">
        <ele>197</ele>
        <time>2018-05-09T09:51:21Z</time>
      </trkpt>
      <trkpt lat="46.05171" lon="4.76938">
        <ele>197</ele>
        <time>2018-05-09T09:51:22Z</time>
      </trkpt>
      <trkpt lat="46.05167" lon="4.7693">
        <ele>196</ele>
        <time>2018-05-09T09:51:23Z</time>
      </trkpt>
      <trkpt lat="46.05163" lon="4.76922">
        <ele>196</ele>
        <time>2018-05-09T09:51:24Z</time>
      </trkpt>
      <trkpt lat="46.05158" lon="4.76915">
        <ele>196</ele>
        <time>2018-05-09T09:51:25Z</time>
      </trkpt>
      <trkpt lat="46.05153" lon="4.76907">
        <ele>195</ele>
        <time>2018-05-09T09:51:26Z</time>
      </trkpt>
      <trkpt lat="46.05149" lon="4.76899">
        <ele>195</ele>
        <time>2018-05-09T09:51:27Z</time>
      </trkpt>
      <trkpt lat="46.05145" lon="4.7689">
        <ele>195</ele>
        <time>2018-05-09T09:51:28Z</time>
      </trkpt>
      <trkpt lat="46.05141" lon="4.76881">
        <ele>195</ele>
        <time>2018-05-09T09:51:29Z</time>
      </trkpt>
      <trkpt lat="46.05136" lon="4.7687">
        <ele>195</ele>
        <time>2018-05-09T09:51:30Z</time>
      </trkpt>
      <trkpt lat="46.05131" lon="4.76862">
        <ele>195</ele>
        <time>2018-05-09T09:51:31Z</time>
      </trkpt>
      <trkpt lat="46.05128" lon="4.76852">
        <ele>195</ele>
        <time>2018-05-09T09:51:32Z</time>
      </trkpt>
      <trkpt lat="46.05124" lon="4.76844">
        <ele>195</ele>
        <time>2018-05-09T09:51:33Z</time>
      </trkpt>
      <trkpt lat="46.0512" lon="4.76835">
        <ele>195</ele>
        <time>2018-05-09T09:51:34Z</time>
      </trkpt>
      <trkpt lat="46.05117" lon="4.76827">
        <ele>194</ele>
        <time>2018-05-09T09:51:35Z</time>
      </trkpt>
      <trkpt lat="46.05113" lon="4.76818">
        <ele>194</ele>
        <time>2018-05-09T09:51:36Z</time>
      </trkpt>
      <trkpt lat="46.0511" lon="4.76809">
        <ele>194</ele>
        <time>2018-05-09T09:51:37Z</time>
      </trkpt>
      <trkpt lat="46.05107" lon="4.768">
        <ele>194</ele>
        <time>2018-05-09T09:51:38Z</time>
      </trkpt>
      <trkpt lat="46.05105" lon="4.76791">
        <ele>194</ele>
        <time>2018-05-09T09:51:39Z</time>
      </trkpt>
      <trkpt lat="46.05104" lon="4.76782">
        <ele>194</ele>
        <time>2018-05-09T09:51:40Z</time>
      </trkpt>
      <trkpt lat="46.05103" lon="4.76772">
        <ele>194</ele>
        <time>2018-05-09T09:51:41Z</time>
      </trkpt>
      <trkpt lat="46.05101" lon="4.76763">
        <ele>194</ele>
        <time>2018-05-09T09:51:42Z</time>
      </trkpt>
      <trkpt lat="46.05099" lon="4.76753">
        <ele>194</ele>
        <time>2018-05-09T09:51:43Z</time>
      </trkpt>
      <trkpt lat="46.05098" lon="4.76743">
        <ele>193</ele>
        <time>2018-05-09T09:51:44Z</time>
      </trkpt>
      <trkpt lat="46.05096" lon="4.76734">
        <ele>193</ele>
        <time>2018-05-09T09:51:45Z</time>
      </trkpt>
      <trkpt lat="46.05095" lon="4.76724">
        <ele>193</ele>
        <time>2018-05-09T09:51:46Z</time>
      </trkpt>
      <trkpt lat="46.05092" lon="4.76714">
        <ele>193</ele>
        <time>2018-05-09T09:51:47Z</time>
      </trkpt>
      <trkpt lat="46.05091" lon="4.76704">
        <ele>193</ele>
        <time>2018-05-09T09:51:48Z</time>
      </trkpt>
      <trkpt lat="46.05089" lon="4.76695">
        <ele>193</ele>
        <time>2018-05-09T09:51:49Z</time>
      </trkpt>
      <trkpt lat="46.05087" lon="4.76687">
        <ele>193</ele>
        <time>2018-05-09T09:51:50Z</time>
      </trkpt>
      <trkpt lat="46.05086" lon="4.76675">
        <ele>193</ele>
        <time>2018-05-09T09:51:51Z</time>
      </trkpt>
      <trkpt lat="46.05086" lon="4.76666">
        <ele>193</ele>
        <time>2018-05-09T09:51:52Z</time>
      </trkpt>
      <trkpt lat="46.05084" lon="4.76661">
        <ele>192</ele>
        <time>2018-05-09T09:51:53Z</time>
      </trkpt>
      <trkpt lat="46.05084" lon="4.76653">
        <ele>192</ele>
        <time>2018-05-09T09:51:54Z</time>
      </trkpt>
      <trkpt lat="46.05082" lon="4.76645">
        <ele>192</ele>
        <time>2018-05-09T09:51:55Z</time>
      </trkpt>
      <trkpt lat="46.05081" lon="4.76637">
        <ele>192</ele>
        <time>2018-05-09T09:51:56Z</time>
      </trkpt>
      <trkpt lat="46.05081" lon="4.76631">
        <ele>192</ele>
        <time>2018-05-09T09:51:57Z</time>
      </trkpt>
      <trkpt lat="46.05081" lon="4.76619">
        <ele>192</ele>
        <time>2018-05-09T09:52:01Z</time>
      </trkpt>
      <trkpt lat="46.05081" lon="4.76617">
        <ele>191</ele>
        <time>2018-05-09T09:52:02Z</time>
      </trkpt>
      <trkpt lat="46.05077" lon="4.76606">
        <ele>191</ele>
        <time>2018-05-09T09:52:39Z</time>
      </trkpt>
      <trkpt lat="46.05076" lon="4.76603">
        <ele>191</ele>
        <time>2018-05-09T09:52:40Z</time>
      </trkpt>
      <trkpt lat="46.05069" lon="4.76595">
        <ele>191</ele>
        <time>2018-05-09T09:52:43Z</time>
      </trkpt>
      <trkpt lat="46.05066" lon="4.76593">
        <ele>191</ele>
        <time>2018-05-09T09:52:44Z</time>
      </trkpt>
      <trkpt lat="46.05061" lon="4.76588">
        <ele>191</ele>
        <time>2018-05-09T09:52:46Z</time>
      </trkpt>
      <trkpt lat="46.05058" lon="4.76586">
        <ele>191</ele>
        <time>2018-05-09T09:52:47Z</time>
      </trkpt>
      <trkpt lat="46.05055" lon="4.76583">
        <ele>190</ele>
        <time>2018-05-09T09:52:48Z</time>
      </trkpt>
      <trkpt lat="46.05046" lon="4.76577">
        <ele>190</ele>
        <time>2018-05-09T09:52:49Z</time>
      </trkpt>
      <trkpt lat="46.05039" lon="4.76571">
        <ele>190</ele>
        <time>2018-05-09T09:52:51Z</time>
      </trkpt>
      <trkpt lat="46.05035" lon="4.76567">
        <ele>190</ele>
        <time>2018-05-09T09:52:52Z</time>
      </trkpt>
      <trkpt lat="46.05027" lon="4.76562">
        <ele>190</ele>
        <time>2018-05-09T09:52:54Z</time>
      </trkpt>
      <trkpt lat="46.05023" lon="4.7656">
        <ele>190</ele>
        <time>2018-05-09T09:52:55Z</time>
      </trkpt>
      <trkpt lat="46.0502" lon="4.76555">
        <ele>190</ele>
        <time>2018-05-09T09:52:56Z</time>
      </trkpt>
      <trkpt lat="46.05016" lon="4.76552">
        <ele>190</ele>
        <time>2018-05-09T09:52:57Z</time>
      </trkpt>
      <trkpt lat="46.05011" lon="4.76548">
        <ele>190</ele>
        <time>2018-05-09T09:52:58Z</time>
      </trkpt>
      <trkpt lat="46.05007" lon="4.76545">
        <ele>190</ele>
        <time>2018-05-09T09:52:59Z</time>
      </trkpt>
      <trkpt lat="46.05002" lon="4.76541">
        <ele>190</ele>
        <time>2018-05-09T09:53:00Z</time>
      </trkpt>
      <trkpt lat="46.04998" lon="4.76536">
        <ele>191</ele>
        <time>2018-05-09T09:53:01Z</time>
      </trkpt>
      <trkpt lat="46.04993" lon="4.7653">
        <ele>191</ele>
        <time>2018-05-09T09:53:02Z</time>
      </trkpt>
      <trkpt lat="46.04989" lon="4.76524">
        <ele>191</ele>
        <time>2018-05-09T09:53:03Z</time>
      </trkpt>
      <trkpt lat="46.04987" lon="4.76517">
        <ele>191</ele>
        <time>2018-05-09T09:53:04Z</time>
      </trkpt>
      <trkpt lat="46.04985" lon="4.76509">
        <ele>191</ele>
        <time>2018-05-09T09:53:05Z</time>
      </trkpt>
      <trkpt lat="46.04982" lon="4.76502">
        <ele>191</ele>
        <time>2018-05-09T09:53:06Z</time>
      </trkpt>
      <trkpt lat="46.0498" lon="4.76495">
        <ele>191</ele>
        <time>2018-05-09T09:53:07Z</time>
      </trkpt>
      <trkpt lat="46.04978" lon="4.76488">
        <ele>191</ele>
        <time>2018-05-09T09:53:08Z</time>
      </trkpt>
      <trkpt lat="46.04976" lon="4.7648">
        <ele>191</ele>
        <time>2018-05-09T09:53:09Z</time>
      </trkpt>
      <trkpt lat="46.04975" lon="4.76472">
        <ele>191</ele>
        <time>2018-05-09T09:53:10Z</time>
      </trkpt>
      <trkpt lat="46.04973" lon="4.76464">
        <ele>191</ele>
        <time>2018-05-09T09:53:11Z</time>
      </trkpt>
      <trkpt lat="46.0497" lon="4.76456">
        <ele>190</ele>
        <time>2018-05-09T09:53:12Z</time>
      </trkpt>
      <trkpt lat="46.04966" lon="4.76449">
        <ele>190</ele>
        <time>2018-05-09T09:53:13Z</time>
      </trkpt>
      <trkpt lat="46.04962" lon="4.76443">
        <ele>191</ele>
        <time>2018-05-09T09:53:14Z</time>
      </trkpt>
      <trkpt lat="46.04957" lon="4.76437">
        <ele>191</ele>
        <time>2018-05-09T09:53:15Z</time>
      </trkpt>
      <trkpt lat="46.04952" lon="4.76434">
        <ele>191</ele>
        <time>2018-05-09T09:53:16Z</time>
      </trkpt>
      <trkpt lat="46.04946" lon="4.76432">
        <ele>191</ele>
        <time>2018-05-09T09:53:17Z</time>
      </trkpt>
      <trkpt lat="46.04941" lon="4.76431">
        <ele>191</ele>
        <time>2018-05-09T09:53:18Z</time>
      </trkpt>
      <trkpt lat="46.04936" lon="4.76432">
        <ele>191</ele>
        <time>2018-05-09T09:53:19Z</time>
      </trkpt>
      <trkpt lat="46.04928" lon="4.76436">
        <ele>191</ele>
        <time>2018-05-09T09:53:21Z</time>
      </trkpt>
      <trkpt lat="46.04922" lon="4.76439">
        <ele>191</ele>
        <time>2018-05-09T09:53:22Z</time>
      </trkpt>
      <trkpt lat="46.04918" lon="4.76442">
        <ele>191</ele>
        <time>2018-05-09T09:53:23Z</time>
      </trkpt>
      <trkpt lat="46.04912" lon="4.76445">
        <ele>193</ele>
        <time>2018-05-09T09:53:24Z</time>
      </trkpt>
      <trkpt lat="46.04906" lon="4.76446">
        <ele>193</ele>
        <time>2018-05-09T09:53:25Z</time>
      </trkpt>
      <trkpt lat="46.04902" lon="4.76448">
        <ele>193</ele>
        <time>2018-05-09T09:53:26Z</time>
      </trkpt>
      <trkpt lat="46.04894" lon="4.76446">
        <ele>193</ele>
        <time>2018-05-09T09:53:28Z</time>
      </trkpt>
      <trkpt lat="46.04889" lon="4.76446">
        <ele>193</ele>
        <time>2018-05-09T09:53:29Z</time>
      </trkpt>
      <trkpt lat="46.04884" lon="4.76446">
        <ele>193</ele>
        <time>2018-05-09T09:53:30Z</time>
      </trkpt>
      <trkpt lat="46.04879" lon="4.76448">
        <ele>193</ele>
        <time>2018-05-09T09:53:31Z</time>
      </trkpt>
      <trkpt lat="46.04873" lon="4.76455">
        <ele>193</ele>
        <time>2018-05-09T09:53:32Z</time>
      </trkpt>
      <trkpt lat="46.04868" lon="4.76455">
        <ele>193</ele>
        <time>2018-05-09T09:53:33Z</time>
      </trkpt>
      <trkpt lat="46.04862" lon="4.76458">
        <ele>193</ele>
        <time>2018-05-09T09:53:34Z</time>
      </trkpt>
      <trkpt lat="46.04858" lon="4.76453">
        <ele>193</ele>
        <time>2018-05-09T09:53:35Z</time>
      </trkpt>
      <trkpt lat="46.04853" lon="4.76453">
        <ele>193</ele>
        <time>2018-05-09T09:53:36Z</time>
      </trkpt>
      <trkpt lat="46.04847" lon="4.76452">
        <ele>193</ele>
        <time>2018-05-09T09:53:37Z</time>
      </trkpt>
      <trkpt lat="46.04844" lon="4.76449">
        <ele>193</ele>
        <time>2018-05-09T09:53:38Z</time>
      </trkpt>
      <trkpt lat="46.04837" lon="4.76448">
        <ele>194</ele>
        <time>2018-05-09T09:53:39Z</time>
      </trkpt>
      <trkpt lat="46.04831" lon="4.76448">
        <ele>193</ele>
        <time>2018-05-09T09:53:40Z</time>
      </trkpt>
      <trkpt lat="46.04825" lon="4.76448">
        <ele>193</ele>
        <time>2018-05-09T09:53:41Z</time>
      </trkpt>
      <trkpt lat="46.0482" lon="4.76446">
        <ele>193</ele>
        <time>2018-05-09T09:53:42Z</time>
      </trkpt>
      <trkpt lat="46.04814" lon="4.76445">
        <ele>193</ele>
        <time>2018-05-09T09:53:43Z</time>
      </trkpt>
      <trkpt lat="46.04808" lon="4.76443">
        <ele>193</ele>
        <time>2018-05-09T09:53:44Z</time>
      </trkpt>
      <trkpt lat="46.04802" lon="4.76446">
        <ele>193</ele>
        <time>2018-05-09T09:53:45Z</time>
      </trkpt>
      <trkpt lat="46.04793" lon="4.76443">
        <ele>193</ele>
        <time>2018-05-09T09:53:47Z</time>
      </trkpt>
      <trkpt lat="46.04787" lon="4.76444">
        <ele>192</ele>
        <time>2018-05-09T09:53:48Z</time>
      </trkpt>
      <trkpt lat="46.04777" lon="4.7645">
        <ele>192</ele>
        <time>2018-05-09T09:53:50Z</time>
      </trkpt>
      <trkpt lat="46.04772" lon="4.76451">
        <ele>192</ele>
        <time>2018-05-09T09:53:51Z</time>
      </trkpt>
      <trkpt lat="46.04766" lon="4.76455">
        <ele>192</ele>
        <time>2018-05-09T09:53:52Z</time>
      </trkpt>
      <trkpt lat="46.04761" lon="4.76459">
        <ele>192</ele>
        <time>2018-05-09T09:53:53Z</time>
      </trkpt>
      <trkpt lat="46.04755" lon="4.76462">
        <ele>192</ele>
        <time>2018-05-09T09:53:54Z</time>
      </trkpt>
      <trkpt lat="46.04749" lon="4.76466">
        <ele>190</ele>
        <time>2018-05-09T09:53:55Z</time>
      </trkpt>
      <trkpt lat="46.04743" lon="4.76469">
        <ele>190</ele>
        <time>2018-05-09T09:53:56Z</time>
      </trkpt>
      <trkpt lat="46.04737" lon="4.76471">
        <ele>190</ele>
        <time>2018-05-09T09:53:57Z</time>
      </trkpt>
      <trkpt lat="46.04732" lon="4.76475">
        <ele>189</ele>
        <time>2018-05-09T09:53:58Z</time>
      </trkpt>
      <trkpt lat="46.04728" lon="4.76478">
        <ele>189</ele>
        <time>2018-05-09T09:53:59Z</time>
      </trkpt>
      <trkpt lat="46.04722" lon="4.76481">
        <ele>189</ele>
        <time>2018-05-09T09:54:00Z</time>
      </trkpt>
      <trkpt lat="46.04717" lon="4.76484">
        <ele>189</ele>
        <time>2018-05-09T09:54:01Z</time>
      </trkpt>
      <trkpt lat="46.04713" lon="4.76485">
        <ele>189</ele>
        <time>2018-05-09T09:54:02Z</time>
      </trkpt>
      <trkpt lat="46.04705" lon="4.76487">
        <ele>189</ele>
        <time>2018-05-09T09:54:05Z</time>
      </trkpt>
      <trkpt lat="46.04702" lon="4.76487">
        <ele>188</ele>
        <time>2018-05-09T09:54:06Z</time>
      </trkpt>
      <trkpt lat="46.04695" lon="4.76492">
        <ele>188</ele>
        <time>2018-05-09T09:54:42Z</time>
      </trkpt>
      <trkpt lat="46.04694" lon="4.76492">
        <ele>188</ele>
        <time>2018-05-09T09:54:43Z</time>
      </trkpt>
      <trkpt lat="46.04687" lon="4.76499">
        <ele>188</ele>
        <time>2018-05-09T09:54:48Z</time>
      </trkpt>
      <trkpt lat="46.04684" lon="4.765">
        <ele>187</ele>
        <time>2018-05-09T09:54:49Z</time>
      </trkpt>
      <trkpt lat="46.04679" lon="4.76504">
        <ele>187</ele>
        <time>2018-05-09T09:54:51Z</time>
      </trkpt>
      <trkpt lat="46.04669" lon="4.76511">
        <ele>187</ele>
        <time>2018-05-09T09:54:52Z</time>
      </trkpt>
      <trkpt lat="46.04664" lon="4.76512">
        <ele>186</ele>
        <time>2018-05-09T09:54:53Z</time>
      </trkpt>
      <trkpt lat="46.04658" lon="4.76512">
        <ele>186</ele>
        <time>2018-05-09T09:54:54Z</time>
      </trkpt>
      <trkpt lat="46.04653" lon="4.76513">
        <ele>186</ele>
        <time>2018-05-09T09:54:55Z</time>
      </trkpt>
      <trkpt lat="46.04647" lon="4.76514">
        <ele>186</ele>
        <time>2018-05-09T09:54:56Z</time>
      </trkpt>
      <trkpt lat="46.0464" lon="4.76515">
        <ele>186</ele>
        <time>2018-05-09T09:54:57Z</time>
      </trkpt>
      <trkpt lat="46.04634" lon="4.76517">
        <ele>186</ele>
        <time>2018-05-09T09:54:58Z</time>
      </trkpt>
      <trkpt lat="46.04628" lon="4.76518">
        <ele>186</ele>
        <time>2018-05-09T09:54:59Z</time>
      </trkpt>
      <trkpt lat="46.04622" lon="4.7652">
        <ele>186</ele>
        <time>2018-05-09T09:55:00Z</time>
      </trkpt>
      <trkpt lat="46.04618" lon="4.76521">
        <ele>186</ele>
        <time>2018-05-09T09:55:01Z</time>
      </trkpt>
      <trkpt lat="46.04612" lon="4.76522">
        <ele>186</ele>
        <time>2018-05-09T09:55:02Z</time>
      </trkpt>
      <trkpt lat="46.04606" lon="4.76523">
        <ele>186</ele>
        <time>2018-05-09T09:55:03Z</time>
      </trkpt>
      <trkpt lat="46.046" lon="4.76527">
        <ele>186</ele>
        <time>2018-05-09T09:55:04Z</time>
      </trkpt>
      <trkpt lat="46.04596" lon="4.76528">
        <ele>186</ele>
        <time>2018-05-09T09:55:05Z</time>
      </trkpt>
      <trkpt lat="46.0459" lon="4.7653">
        <ele>186</ele>
        <time>2018-05-09T09:55:06Z</time>
      </trkpt>
      <trkpt lat="46.04583" lon="4.76536">
        <ele>187</ele>
        <time>2018-05-09T09:55:07Z</time>
      </trkpt>
      <trkpt lat="46.04577" lon="4.76538">
        <ele>187</ele>
        <time>2018-05-09T09:55:08Z</time>
      </trkpt>
      <trkpt lat="46.04571" lon="4.76541">
        <ele>187</ele>
        <time>2018-05-09T09:55:09Z</time>
      </trkpt>
      <trkpt lat="46.04564" lon="4.76544">
        <ele>187</ele>
        <time>2018-05-09T09:55:10Z</time>
      </trkpt>
      <trkpt lat="46.04559" lon="4.76545">
        <ele>188</ele>
        <time>2018-05-09T09:55:11Z</time>
      </trkpt>
      <trkpt lat="46.04554" lon="4.76546">
        <ele>188</ele>
        <time>2018-05-09T09:55:12Z</time>
      </trkpt>
      <trkpt lat="46.04549" lon="4.76548">
        <ele>188</ele>
        <time>2018-05-09T09:55:13Z</time>
      </trkpt>
      <trkpt lat="46.04544" lon="4.7655">
        <ele>188</ele>
        <time>2018-05-09T09:55:14Z</time>
      </trkpt>
      <trkpt lat="46.04538" lon="4.76551">
        <ele>188</ele>
        <time>2018-05-09T09:55:15Z</time>
      </trkpt>
      <trkpt lat="46.04533" lon="4.76552">
        <ele>188</ele>
        <time>2018-05-09T09:55:16Z</time>
      </trkpt>
      <trkpt lat="46.04529" lon="4.76551">
        <ele>188</ele>
        <time>2018-05-09T09:55:18Z</time>
      </trkpt>
      <trkpt lat="46.04523" lon="4.7655">
        <ele>189</ele>
        <time>2018-05-09T09:55:19Z</time>
      </trkpt>
      <trkpt lat="46.04518" lon="4.76552">
        <ele>189</ele>
        <time>2018-05-09T09:55:20Z</time>
      </trkpt>
      <trkpt lat="46.04513" lon="4.76555">
        <ele>189</ele>
        <time>2018-05-09T09:55:21Z</time>
      </trkpt>
      <trkpt lat="46.04509" lon="4.76556">
        <ele>189</ele>
        <time>2018-05-09T09:55:22Z</time>
      </trkpt>
      <trkpt lat="46.04503" lon="4.76557">
        <ele>189</ele>
        <time>2018-05-09T09:55:23Z</time>
      </trkpt>
      <trkpt lat="46.04496" lon="4.7656">
        <ele>192</ele>
        <time>2018-05-09T09:55:25Z</time>
      </trkpt>
      <trkpt lat="46.04491" lon="4.76561">
        <ele>192</ele>
        <time>2018-05-09T09:55:26Z</time>
      </trkpt>
      <trkpt lat="46.04486" lon="4.76562">
        <ele>193</ele>
        <time>2018-05-09T09:55:27Z</time>
      </trkpt>
      <trkpt lat="46.04482" lon="4.76562">
        <ele>193</ele>
        <time>2018-05-09T09:55:28Z</time>
      </trkpt>
      <trkpt lat="46.04477" lon="4.76563">
        <ele>193</ele>
        <time>2018-05-09T09:55:29Z</time>
      </trkpt>
      <trkpt lat="46.04473" lon="4.76564">
        <ele>193</ele>
        <time>2018-05-09T09:55:30Z</time>
      </trkpt>
      <trkpt lat="46.04468" lon="4.76565">
        <ele>193</ele>
        <time>2018-05-09T09:55:31Z</time>
      </trkpt>
      <trkpt lat="46.04464" lon="4.76566">
        <ele>194</ele>
        <time>2018-05-09T09:55:32Z</time>
      </trkpt>
      <trkpt lat="46.04457" lon="4.76566">
        <ele>194</ele>
        <time>2018-05-09T09:55:34Z</time>
      </trkpt>
      <trkpt lat="46.04452" lon="4.76566">
        <ele>194</ele>
        <time>2018-05-09T09:55:35Z</time>
      </trkpt>
      <trkpt lat="46.04444" lon="4.76566">
        <ele>195</ele>
        <time>2018-05-09T09:55:37Z</time>
      </trkpt>
      <trkpt lat="46.04439" lon="4.76567">
        <ele>195</ele>
        <time>2018-05-09T09:55:38Z</time>
      </trkpt>
      <trkpt lat="46.04432" lon="4.76567">
        <ele>196</ele>
        <time>2018-05-09T09:55:40Z</time>
      </trkpt>
      <trkpt lat="46.04428" lon="4.76567">
        <ele>196</ele>
        <time>2018-05-09T09:55:41Z</time>
      </trkpt>
      <trkpt lat="46.04422" lon="4.76569">
        <ele>196</ele>
        <time>2018-05-09T09:55:42Z</time>
      </trkpt>
      <trkpt lat="46.04419" lon="4.7657">
        <ele>197</ele>
        <time>2018-05-09T09:55:43Z</time>
      </trkpt>
      <trkpt lat="46.04411" lon="4.76573">
        <ele>198</ele>
        <time>2018-05-09T09:55:45Z</time>
      </trkpt>
      <trkpt lat="46.04407" lon="4.76573">
        <ele>198</ele>
        <time>2018-05-09T09:55:46Z</time>
      </trkpt>
      <trkpt lat="46.04398" lon="4.76574">
        <ele>198</ele>
        <time>2018-05-09T09:55:48Z</time>
      </trkpt>
      <trkpt lat="46.04394" lon="4.76574">
        <ele>198</ele>
        <time>2018-05-09T09:55:49Z</time>
      </trkpt>
      <trkpt lat="46.04386" lon="4.76576">
        <ele>197</ele>
        <time>2018-05-09T09:55:51Z</time>
      </trkpt>
      <trkpt lat="46.04382" lon="4.76577">
        <ele>197</ele>
        <time>2018-05-09T09:55:52Z</time>
      </trkpt>
      <trkpt lat="46.04373" lon="4.76579">
        <ele>197</ele>
        <time>2018-05-09T09:55:54Z</time>
      </trkpt>
      <trkpt lat="46.04369" lon="4.76579">
        <ele>197</ele>
        <time>2018-05-09T09:55:55Z</time>
      </trkpt>
      <trkpt lat="46.04361" lon="4.76578">
        <ele>198</ele>
        <time>2018-05-09T09:55:57Z</time>
      </trkpt>
      <trkpt lat="46.04357" lon="4.76578">
        <ele>198</ele>
        <time>2018-05-09T09:55:58Z</time>
      </trkpt>
      <trkpt lat="46.04349" lon="4.76578">
        <ele>198</ele>
        <time>2018-05-09T09:56:00Z</time>
      </trkpt>
      <trkpt lat="46.04347" lon="4.76578">
        <ele>198</ele>
        <time>2018-05-09T09:56:01Z</time>
      </trkpt>
      <trkpt lat="46.04338" lon="4.76577">
        <ele>198</ele>
        <time>2018-05-09T09:56:03Z</time>
      </trkpt>
      <trkpt lat="46.04334" lon="4.76578">
        <ele>198</ele>
        <time>2018-05-09T09:56:04Z</time>
      </trkpt>
      <trkpt lat="46.04327" lon="4.76577">
        <ele>198</ele>
        <time>2018-05-09T09:56:06Z</time>
      </trkpt>
      <trkpt lat="46.04322" lon="4.76578">
        <ele>198</ele>
        <time>2018-05-09T09:56:07Z</time>
      </trkpt>
      <trkpt lat="46.04318" lon="4.76578">
        <ele>198</ele>
        <time>2018-05-09T09:56:08Z</time>
      </trkpt>
      <trkpt lat="46.04313" lon="4.76579">
        <ele>197</ele>
        <time>2018-05-09T09:56:09Z</time>
      </trkpt>
      <trkpt lat="46.04309" lon="4.7658">
        <ele>197</ele>
        <time>2018-05-09T09:56:10Z</time>
      </trkpt>
      <trkpt lat="46.04303" lon="4.7658">
        <ele>197</ele>
        <time>2018-05-09T09:56:11Z</time>
      </trkpt>
      <trkpt lat="46.04295" lon="4.76581">
        <ele>197</ele>
        <time>2018-05-09T09:56:13Z</time>
      </trkpt>
      <trkpt lat="46.04291" lon="4.76582">
        <ele>197</ele>
        <time>2018-05-09T09:56:14Z</time>
      </trkpt>
      <trkpt lat="46.04283" lon="4.76583">
        <ele>197</ele>
        <time>2018-05-09T09:56:17Z</time>
      </trkpt>
      <trkpt lat="46.04281" lon="4.76584">
        <ele>198</ele>
        <time>2018-05-09T09:56:18Z</time>
      </trkpt>
      <trkpt lat="46.04273" lon="4.76584">
        <ele>198</ele>
        <time>2018-05-09T09:56:19Z</time>
      </trkpt>
      <trkpt lat="46.04272" lon="4.76584">
        <ele>198</ele>
        <time>2018-05-09T09:56:20Z</time>
      </trkpt>
      <trkpt lat="46.04264" lon="4.76585">
        <ele>197</ele>
        <time>2018-05-09T09:56:22Z</time>
      </trkpt>
      <trkpt lat="46.0426" lon="4.76585">
        <ele>197</ele>
        <time>2018-05-09T09:56:23Z</time>
      </trkpt>
      <trkpt lat="46.04252" lon="4.76584">
        <ele>197</ele>
        <time>2018-05-09T09:56:26Z</time>
      </trkpt>
      <trkpt lat="46.0425" lon="4.76583">
        <ele>197</ele>
        <time>2018-05-09T09:56:27Z</time>
      </trkpt>
      <trkpt lat="46.04244" lon="4.76582">
        <ele>197</ele>
        <time>2018-05-09T09:56:28Z</time>
      </trkpt>
      <trkpt lat="46.04239" lon="4.76582">
        <ele>197</ele>
        <time>2018-05-09T09:56:29Z</time>
      </trkpt>
      <trkpt lat="46.04232" lon="4.76582">
        <ele>197</ele>
        <time>2018-05-09T09:56:31Z</time>
      </trkpt>
      <trkpt lat="46.04227" lon="4.76582">
        <ele>197</ele>
        <time>2018-05-09T09:56:32Z</time>
      </trkpt>
      <trkpt lat="46.0422" lon="4.76584">
        <ele>198</ele>
        <time>2018-05-09T09:56:35Z</time>
      </trkpt>
      <trkpt lat="46.04213" lon="4.76585">
        <ele>198</ele>
        <time>2018-05-09T09:56:36Z</time>
      </trkpt>
      <trkpt lat="46.04205" lon="4.76588">
        <ele>198</ele>
        <time>2018-05-09T09:56:38Z</time>
      </trkpt>
      <trkpt lat="46.04203" lon="4.76588">
        <ele>198</ele>
        <time>2018-05-09T09:56:39Z</time>
      </trkpt>
      <trkpt lat="46.04195" lon="4.76591">
        <ele>198</ele>
        <time>2018-05-09T09:56:41Z</time>
      </trkpt>
      <trkpt lat="46.04193" lon="4.76593">
        <ele>198</ele>
        <time>2018-05-09T09:56:42Z</time>
      </trkpt>
      <trkpt lat="46.04187" lon="4.76598">
        <ele>198</ele>
        <time>2018-05-09T09:56:43Z</time>
      </trkpt>
      <trkpt lat="46.04183" lon="4.76601">
        <ele>198</ele>
        <time>2018-05-09T09:56:44Z</time>
      </trkpt>
      <trkpt lat="46.04176" lon="4.76607">
        <ele>198</ele>
        <time>2018-05-09T09:56:46Z</time>
      </trkpt>
      <trkpt lat="46.04171" lon="4.76611">
        <ele>198</ele>
        <time>2018-05-09T09:56:47Z</time>
      </trkpt>
      <trkpt lat="46.04166" lon="4.76617">
        <ele>199</ele>
        <time>2018-05-09T09:56:49Z</time>
      </trkpt>
      <trkpt lat="46.04161" lon="4.76621">
        <ele>199</ele>
        <time>2018-05-09T09:56:50Z</time>
      </trkpt>
      <trkpt lat="46.04154" lon="4.76628">
        <ele>200</ele>
        <time>2018-05-09T09:56:52Z</time>
      </trkpt>
      <trkpt lat="46.0415" lon="4.76631">
        <ele>200</ele>
        <time>2018-05-09T09:56:53Z</time>
      </trkpt>
      <trkpt lat="46.04143" lon="4.76637">
        <ele>200</ele>
        <time>2018-05-09T09:56:55Z</time>
      </trkpt>
      <trkpt lat="46.04141" lon="4.76638">
        <ele>200</ele>
        <time>2018-05-09T09:56:56Z</time>
      </trkpt>
      <trkpt lat="46.04132" lon="4.76642">
        <ele>200</ele>
        <time>2018-05-09T09:56:58Z</time>
      </trkpt>
      <trkpt lat="46.04128" lon="4.76644">
        <ele>200</ele>
        <time>2018-05-09T09:56:59Z</time>
      </trkpt>
      <trkpt lat="46.0412" lon="4.76647">
        <ele>200</ele>
        <time>2018-05-09T09:57:01Z</time>
      </trkpt>
      <trkpt lat="46.04116" lon="4.76648">
        <ele>200</ele>
        <time>2018-05-09T09:57:02Z</time>
      </trkpt>
      <trkpt lat="46.04107" lon="4.7665">
        <ele>200</ele>
        <time>2018-05-09T09:57:04Z</time>
      </trkpt>
      <trkpt lat="46.04103" lon="4.76651">
        <ele>200</ele>
        <time>2018-05-09T09:57:05Z</time>
      </trkpt>
      <trkpt lat="46.04095" lon="4.76653">
        <ele>201</ele>
        <time>2018-05-09T09:57:07Z</time>
      </trkpt>
      <trkpt lat="46.04091" lon="4.76653">
        <ele>201</ele>
        <time>2018-05-09T09:57:08Z</time>
      </trkpt>
      <trkpt lat="46.04083" lon="4.76653">
        <ele>201</ele>
        <time>2018-05-09T09:57:10Z</time>
      </trkpt>
      <trkpt lat="46.04079" lon="4.76654">
        <ele>201</ele>
        <time>2018-05-09T09:57:11Z</time>
      </trkpt>
      <trkpt lat="46.04072" lon="4.76656">
        <ele>201</ele>
        <time>2018-05-09T09:57:13Z</time>
      </trkpt>
      <trkpt lat="46.0407" lon="4.76656">
        <ele>201</ele>
        <time>2018-05-09T09:57:14Z</time>
      </trkpt>
      <trkpt lat="46.04061" lon="4.76658">
        <ele>201</ele>
        <time>2018-05-09T09:57:16Z</time>
      </trkpt>
      <trkpt lat="46.04057" lon="4.76659">
        <ele>201</ele>
        <time>2018-05-09T09:57:17Z</time>
      </trkpt>
      <trkpt lat="46.04049" lon="4.7666">
        <ele>201</ele>
        <time>2018-05-09T09:57:19Z</time>
      </trkpt>
      <trkpt lat="46.04045" lon="4.76661">
        <ele>201</ele>
        <time>2018-05-09T09:57:20Z</time>
      </trkpt>
      <trkpt lat="46.04037" lon="4.76663">
        <ele>201</ele>
        <time>2018-05-09T09:57:22Z</time>
      </trkpt>
      <trkpt lat="46.04033" lon="4.76664">
        <ele>201</ele>
        <time>2018-05-09T09:57:23Z</time>
      </trkpt>
      <trkpt lat="46.04025" lon="4.76664">
        <ele>201</ele>
        <time>2018-05-09T09:57:25Z</time>
      </trkpt>
      <trkpt lat="46.04022" lon="4.76665">
        <ele>201</ele>
        <time>2018-05-09T09:57:26Z</time>
      </trkpt>
      <trkpt lat="46.04016" lon="4.76666">
        <ele>201</ele>
        <time>2018-05-09T09:57:28Z</time>
      </trkpt>
      <trkpt lat="46.0401" lon="4.76667">
        <ele>202</ele>
        <time>2018-05-09T09:57:29Z</time>
      </trkpt>
      <trkpt lat="46.04002" lon="4.76668">
        <ele>202</ele>
        <time>2018-05-09T09:57:31Z</time>
      </trkpt>
      <trkpt lat="46.03998" lon="4.76669">
        <ele>202</ele>
        <time>2018-05-09T09:57:32Z</time>
      </trkpt>
      <trkpt lat="46.0399" lon="4.76671">
        <ele>203</ele>
        <time>2018-05-09T09:57:34Z</time>
      </trkpt>
      <trkpt lat="46.03986" lon="4.76672">
        <ele>203</ele>
        <time>2018-05-09T09:57:35Z</time>
      </trkpt>
      <trkpt lat="46.03981" lon="4.76673">
        <ele>203</ele>
        <time>2018-05-09T09:57:36Z</time>
      </trkpt>
      <trkpt lat="46.03976" lon="4.76675">
        <ele>203</ele>
        <time>2018-05-09T09:57:37Z</time>
      </trkpt>
      <trkpt lat="46.03971" lon="4.76677">
        <ele>203</ele>
        <time>2018-05-09T09:57:38Z</time>
      </trkpt>
      <trkpt lat="46.03966" lon="4.76678">
        <ele>203</ele>
        <time>2018-05-09T09:57:39Z</time>
      </trkpt>
      <trkpt lat="46.03958" lon="4.76678">
        <ele>204</ele>
        <time>2018-05-09T09:57:41Z</time>
      </trkpt>
      <trkpt lat="46.03954" lon="4.76679">
        <ele>204</ele>
        <time>2018-05-09T09:57:42Z</time>
      </trkpt>
      <trkpt lat="46.03948" lon="4.76681">
        <ele>204</ele>
        <time>2018-05-09T09:57:43Z</time>
      </trkpt>
      <trkpt lat="46.03944" lon="4.76685">
        <ele>204</ele>
        <time>2018-05-09T09:57:44Z</time>
      </trkpt>
      <trkpt lat="46.03935" lon="4.76688">
        <ele>204</ele>
        <time>2018-05-09T09:57:46Z</time>
      </trkpt>
      <trkpt lat="46.03929" lon="4.7669">
        <ele>204</ele>
        <time>2018-05-09T09:57:47Z</time>
      </trkpt>
      <trkpt lat="46.03924" lon="4.76691">
        <ele>204</ele>
        <time>2018-05-09T09:57:48Z</time>
      </trkpt>
      <trkpt lat="46.03919" lon="4.76693">
        <ele>204</ele>
        <time>2018-05-09T09:57:49Z</time>
      </trkpt>
      <trkpt lat="46.0391" lon="4.76695">
        <ele>205</ele>
        <time>2018-05-09T09:57:51Z</time>
      </trkpt>
      <trkpt lat="46.03905" lon="4.76696">
        <ele>205</ele>
        <time>2018-05-09T09:57:52Z</time>
      </trkpt>
      <trkpt lat="46.03901" lon="4.76697">
        <ele>205</ele>
        <time>2018-05-09T09:57:53Z</time>
      </trkpt>
      <trkpt lat="46.03896" lon="4.76698">
        <ele>205</ele>
        <time>2018-05-09T09:57:54Z</time>
      </trkpt>
      <trkpt lat="46.03887" lon="4.76701">
        <ele>205</ele>
        <time>2018-05-09T09:57:56Z</time>
      </trkpt>
      <trkpt lat="46.03883" lon="4.76702">
        <ele>205</ele>
        <time>2018-05-09T09:57:57Z</time>
      </trkpt>
      <trkpt lat="46.03878" lon="4.76704">
        <ele>205</ele>
        <time>2018-05-09T09:57:58Z</time>
      </trkpt>
      <trkpt lat="46.03873" lon="4.76706">
        <ele>205</ele>
        <time>2018-05-09T09:57:59Z</time>
      </trkpt>
      <trkpt lat="46.03869" lon="4.76707">
        <ele>205</ele>
        <time>2018-05-09T09:58:00Z</time>
      </trkpt>
      <trkpt lat="46.03864" lon="4.76707">
        <ele>205</ele>
        <time>2018-05-09T09:58:01Z</time>
      </trkpt>
      <trkpt lat="46.03856" lon="4.7671">
        <ele>205</ele>
        <time>2018-05-09T09:58:03Z</time>
      </trkpt>
      <trkpt lat="46.03851" lon="4.76711">
        <ele>205</ele>
        <time>2018-05-09T09:58:04Z</time>
      </trkpt>
      <trkpt lat="46.03844" lon="4.76716">
        <ele>205</ele>
        <time>2018-05-09T09:58:06Z</time>
      </trkpt>
      <trkpt lat="46.0384" lon="4.76716">
        <ele>205</ele>
        <time>2018-05-09T09:58:07Z</time>
      </trkpt>
      <trkpt lat="46.03836" lon="4.76716">
        <ele>205</ele>
        <time>2018-05-09T09:58:08Z</time>
      </trkpt>
      <trkpt lat="46.03831" lon="4.76716">
        <ele>205</ele>
        <time>2018-05-09T09:58:09Z</time>
      </trkpt>
      <trkpt lat="46.03826" lon="4.76715">
        <ele>205</ele>
        <time>2018-05-09T09:58:10Z</time>
      </trkpt>
      <trkpt lat="46.03821" lon="4.76716">
        <ele>205</ele>
        <time>2018-05-09T09:58:11Z</time>
      </trkpt>
      <trkpt lat="46.03815" lon="4.76716">
        <ele>205</ele>
        <time>2018-05-09T09:58:12Z</time>
      </trkpt>
      <trkpt lat="46.0381" lon="4.76717">
        <ele>205</ele>
        <time>2018-05-09T09:58:13Z</time>
      </trkpt>
      <trkpt lat="46.03805" lon="4.76718">
        <ele>205</ele>
        <time>2018-05-09T09:58:14Z</time>
      </trkpt>
      <trkpt lat="46.038" lon="4.76718">
        <ele>205</ele>
        <time>2018-05-09T09:58:15Z</time>
      </trkpt>
      <trkpt lat="46.03795" lon="4.76717">
        <ele>205</ele>
        <time>2018-05-09T09:58:16Z</time>
      </trkpt>
      <trkpt lat="46.03789" lon="4.76716">
        <ele>205</ele>
        <time>2018-05-09T09:58:17Z</time>
      </trkpt>
      <trkpt lat="46.03783" lon="4.76716">
        <ele>205</ele>
        <time>2018-05-09T09:58:18Z</time>
      </trkpt>
      <trkpt lat="46.03778" lon="4.76715">
        <ele>205</ele>
        <time>2018-05-09T09:58:19Z</time>
      </trkpt>
      <trkpt lat="46.03772" lon="4.76715">
        <ele>205</ele>
        <time>2018-05-09T09:58:20Z</time>
      </trkpt>
      <trkpt lat="46.03766" lon="4.76716">
        <ele>205</ele>
        <time>2018-05-09T09:58:21Z</time>
      </trkpt>
      <trkpt lat="46.03761" lon="4.76712">
        <ele>205</ele>
        <time>2018-05-09T09:58:22Z</time>
      </trkpt>
      <trkpt lat="46.03756" lon="4.7671">
        <ele>205</ele>
        <time>2018-05-09T09:58:23Z</time>
      </trkpt>
      <trkpt lat="46.03748" lon="4.76708">
        <ele>205</ele>
        <time>2018-05-09T09:58:24Z</time>
      </trkpt>
      <trkpt lat="46.03743" lon="4.76706">
        <ele>205</ele>
        <time>2018-05-09T09:58:25Z</time>
      </trkpt>
      <trkpt lat="46.03736" lon="4.76706">
        <ele>205</ele>
        <time>2018-05-09T09:58:26Z</time>
      </trkpt>
      <trkpt lat="46.0373" lon="4.76703">
        <ele>205</ele>
        <time>2018-05-09T09:58:27Z</time>
      </trkpt>
      <trkpt lat="46.03723" lon="4.76701">
        <ele>205</ele>
        <time>2018-05-09T09:58:28Z</time>
      </trkpt>
      <trkpt lat="46.03717" lon="4.76699">
        <ele>205</ele>
        <time>2018-05-09T09:58:29Z</time>
      </trkpt>
      <trkpt lat="46.03714" lon="4.76692">
        <ele>205</ele>
        <time>2018-05-09T09:58:30Z</time>
      </trkpt>
      <trkpt lat="46.03709" lon="4.76686">
        <ele>205</ele>
        <time>2018-05-09T09:58:31Z</time>
      </trkpt>
      <trkpt lat="46.03705" lon="4.76678">
        <ele>205</ele>
        <time>2018-05-09T09:58:32Z</time>
      </trkpt>
      <trkpt lat="46.03702" lon="4.76671">
        <ele>205</ele>
        <time>2018-05-09T09:58:33Z</time>
      </trkpt>
      <trkpt lat="46.03699" lon="4.76665">
        <ele>204</ele>
        <time>2018-05-09T09:58:34Z</time>
      </trkpt>
      <trkpt lat="46.03694" lon="4.7666">
        <ele>204</ele>
        <time>2018-05-09T09:58:35Z</time>
      </trkpt>
      <trkpt lat="46.03691" lon="4.76653">
        <ele>204</ele>
        <time>2018-05-09T09:58:36Z</time>
      </trkpt>
      <trkpt lat="46.03689" lon="4.76643">
        <ele>204</ele>
        <time>2018-05-09T09:58:37Z</time>
      </trkpt>
      <trkpt lat="46.03689" lon="4.76634">
        <ele>204</ele>
        <time>2018-05-09T09:58:38Z</time>
      </trkpt>
      <trkpt lat="46.03688" lon="4.76626">
        <ele>203</ele>
        <time>2018-05-09T09:58:39Z</time>
      </trkpt>
      <trkpt lat="46.03686" lon="4.76617">
        <ele>203</ele>
        <time>2018-05-09T09:58:40Z</time>
      </trkpt>
      <trkpt lat="46.03684" lon="4.76608">
        <ele>203</ele>
        <time>2018-05-09T09:58:41Z</time>
      </trkpt>
      <trkpt lat="46.03683" lon="4.766">
        <ele>203</ele>
        <time>2018-05-09T09:58:42Z</time>
      </trkpt>
      <trkpt lat="46.03676" lon="4.76596">
        <ele>203</ele>
        <time>2018-05-09T09:58:43Z</time>
      </trkpt>
      <trkpt lat="46.03666" lon="4.76592">
        <ele>202</ele>
        <time>2018-05-09T09:58:44Z</time>
      </trkpt>
      <trkpt lat="46.0366" lon="4.76585">
        <ele>202</ele>
        <time>2018-05-09T09:58:45Z</time>
      </trkpt>
      <trkpt lat="46.03654" lon="4.76579">
        <ele>201</ele>
        <time>2018-05-09T09:58:46Z</time>
      </trkpt>
      <trkpt lat="46.03648" lon="4.76572">
        <ele>201</ele>
        <time>2018-05-09T09:58:47Z</time>
      </trkpt>
      <trkpt lat="46.03645" lon="4.76562">
        <ele>201</ele>
        <time>2018-05-09T09:58:48Z</time>
      </trkpt>
      <trkpt lat="46.03642" lon="4.76553">
        <ele>201</ele>
        <time>2018-05-09T09:58:49Z</time>
      </trkpt>
      <trkpt lat="46.03637" lon="4.76544">
        <ele>200</ele>
        <time>2018-05-09T09:58:50Z</time>
      </trkpt>
      <trkpt lat="46.03632" lon="4.76536">
        <ele>200</ele>
        <time>2018-05-09T09:58:51Z</time>
      </trkpt>
      <trkpt lat="46.03628" lon="4.76526">
        <ele>200</ele>
        <time>2018-05-09T09:58:52Z</time>
      </trkpt>
      <trkpt lat="46.03624" lon="4.76517">
        <ele>200</ele>
        <time>2018-05-09T09:58:53Z</time>
      </trkpt>
      <trkpt lat="46.03619" lon="4.76508">
        <ele>200</ele>
        <time>2018-05-09T09:58:54Z</time>
      </trkpt>
      <trkpt lat="46.03614" lon="4.76499">
        <ele>199</ele>
        <time>2018-05-09T09:58:55Z</time>
      </trkpt>
      <trkpt lat="46.03609" lon="4.76491">
        <ele>199</ele>
        <time>2018-05-09T09:58:56Z</time>
      </trkpt>
      <trkpt lat="46.03604" lon="4.76485">
        <ele>199</ele>
        <time>2018-05-09T09:58:57Z</time>
      </trkpt>
      <trkpt lat="46.036" lon="4.76478">
        <ele>199</ele>
        <time>2018-05-09T09:58:58Z</time>
      </trkpt>
      <trkpt lat="46.03596" lon="4.76467">
        <ele>199</ele>
        <time>2018-05-09T09:58:59Z</time>
      </trkpt>
      <trkpt lat="46.03594" lon="4.76457">
        <ele>199</ele>
        <time>2018-05-09T09:59:00Z</time>
      </trkpt>
      <trkpt lat="46.03591" lon="4.76447">
        <ele>199</ele>
        <time>2018-05-09T09:59:01Z</time>
      </trkpt>
      <trkpt lat="46.03594" lon="4.76436">
        <ele>199</ele>
        <time>2018-05-09T09:59:02Z</time>
      </trkpt>
      <trkpt lat="46.03596" lon="4.76423">
        <ele>199</ele>
        <time>2018-05-09T09:59:03Z</time>
      </trkpt>
      <trkpt lat="46.03597" lon="4.76413">
        <ele>198</ele>
        <time>2018-05-09T09:59:04Z</time>
      </trkpt>
      <trkpt lat="46.03599" lon="4.76406">
        <ele>198</ele>
        <time>2018-05-09T09:59:05Z</time>
      </trkpt>
      <trkpt lat="46.03601" lon="4.76397">
        <ele>197</ele>
        <time>2018-05-09T09:59:06Z</time>
      </trkpt>
      <trkpt lat="46.03604" lon="4.76386">
        <ele>197</ele>
        <time>2018-05-09T09:59:07Z</time>
      </trkpt>
      <trkpt lat="46.03604" lon="4.76375">
        <ele>197</ele>
        <time>2018-05-09T09:59:08Z</time>
      </trkpt>
      <trkpt lat="46.03605" lon="4.76365">
        <ele>197</ele>
        <time>2018-05-09T09:59:09Z</time>
      </trkpt>
      <trkpt lat="46.03606" lon="4.76354">
        <ele>196</ele>
        <time>2018-05-09T09:59:10Z</time>
      </trkpt>
      <trkpt lat="46.03608" lon="4.76343">
        <ele>196</ele>
        <time>2018-05-09T09:59:11Z</time>
      </trkpt>
      <trkpt lat="46.03608" lon="4.76333">
        <ele>195</ele>
        <time>2018-05-09T09:59:12Z</time>
      </trkpt>
      <trkpt lat="46.0361" lon="4.76323">
        <ele>195</ele>
        <time>2018-05-09T09:59:13Z</time>
      </trkpt>
      <trkpt lat="46.03612" lon="4.76312">
        <ele>195</ele>
        <time>2018-05-09T09:59:14Z</time>
      </trkpt>
      <trkpt lat="46.03615" lon="4.76301">
        <ele>195</ele>
        <time>2018-05-09T09:59:15Z</time>
      </trkpt>
      <trkpt lat="46.03616" lon="4.76291">
        <ele>194</ele>
        <time>2018-05-09T09:59:16Z</time>
      </trkpt>
      <trkpt lat="46.03617" lon="4.76281">
        <ele>194</ele>
        <time>2018-05-09T09:59:17Z</time>
      </trkpt>
      <trkpt lat="46.03618" lon="4.76269">
        <ele>194</ele>
        <time>2018-05-09T09:59:18Z</time>
      </trkpt>
      <trkpt lat="46.03619" lon="4.76259">
        <ele>194</ele>
        <time>2018-05-09T09:59:19Z</time>
      </trkpt>
      <trkpt lat="46.0362" lon="4.76247">
        <ele>193</ele>
        <time>2018-05-09T09:59:20Z</time>
      </trkpt>
      <trkpt lat="46.03624" lon="4.76235">
        <ele>193</ele>
        <time>2018-05-09T09:59:21Z</time>
      </trkpt>
      <trkpt lat="46.03626" lon="4.76226">
        <ele>193</ele>
        <time>2018-05-09T09:59:22Z</time>
      </trkpt>
      <trkpt lat="46.03627" lon="4.76217">
        <ele>193</ele>
        <time>2018-05-09T09:59:23Z</time>
      </trkpt>
      <trkpt lat="46.0363" lon="4.76206">
        <ele>193</ele>
        <time>2018-05-09T09:59:24Z</time>
      </trkpt>
      <trkpt lat="46.03632" lon="4.76197">
        <ele>193</ele>
        <time>2018-05-09T09:59:25Z</time>
      </trkpt>
      <trkpt lat="46.0363" lon="4.76187">
        <ele>193</ele>
        <time>2018-05-09T09:59:26Z</time>
      </trkpt>
      <trkpt lat="46.03631" lon="4.76178">
        <ele>193</ele>
        <time>2018-05-09T09:59:27Z</time>
      </trkpt>
      <trkpt lat="46.0363" lon="4.7617">
        <ele>192</ele>
        <time>2018-05-09T09:59:28Z</time>
      </trkpt>
      <trkpt lat="46.03631" lon="4.76159">
        <ele>192</ele>
        <time>2018-05-09T09:59:29Z</time>
      </trkpt>
      <trkpt lat="46.03631" lon="4.76148">
        <ele>192</ele>
        <time>2018-05-09T09:59:30Z</time>
      </trkpt>
      <trkpt lat="46.0363" lon="4.76138">
        <ele>192</ele>
        <time>2018-05-09T09:59:31Z</time>
      </trkpt>
      <trkpt lat="46.0363" lon="4.76128">
        <ele>192</ele>
        <time>2018-05-09T09:59:32Z</time>
      </trkpt>
      <trkpt lat="46.0363" lon="4.76119">
        <ele>192</ele>
        <time>2018-05-09T09:59:33Z</time>
      </trkpt>
      <trkpt lat="46.03629" lon="4.76111">
        <ele>192</ele>
        <time>2018-05-09T09:59:34Z</time>
      </trkpt>
      <trkpt lat="46.03628" lon="4.76104">
        <ele>192</ele>
        <time>2018-05-09T09:59:35Z</time>
      </trkpt>
      <trkpt lat="46.03625" lon="4.76096">
        <ele>192</ele>
        <time>2018-05-09T09:59:36Z</time>
      </trkpt>
      <trkpt lat="46.03624" lon="4.76087">
        <ele>192</ele>
        <time>2018-05-09T09:59:37Z</time>
      </trkpt>
      <trkpt lat="46.03623" lon="4.76078">
        <ele>191</ele>
        <time>2018-05-09T09:59:38Z</time>
      </trkpt>
      <trkpt lat="46.03621" lon="4.76069">
        <ele>191</ele>
        <time>2018-05-09T09:59:39Z</time>
      </trkpt>
      <trkpt lat="46.03618" lon="4.76059">
        <ele>191</ele>
        <time>2018-05-09T09:59:40Z</time>
      </trkpt>
      <trkpt lat="46.03615" lon="4.7605">
        <ele>191</ele>
        <time>2018-05-09T09:59:41Z</time>
      </trkpt>
      <trkpt lat="46.03612" lon="4.76041">
        <ele>191</ele>
        <time>2018-05-09T09:59:42Z</time>
      </trkpt>
      <trkpt lat="46.0361" lon="4.76032">
        <ele>191</ele>
        <time>2018-05-09T09:59:43Z</time>
      </trkpt>
      <trkpt lat="46.03608" lon="4.76023">
        <ele>191</ele>
        <time>2018-05-09T09:59:44Z</time>
      </trkpt>
      <trkpt lat="46.03605" lon="4.76014">
        <ele>191</ele>
        <time>2018-05-09T09:59:45Z</time>
      </trkpt>
      <trkpt lat="46.03602" lon="4.76005">
        <ele>191</ele>
        <time>2018-05-09T09:59:46Z</time>
      </trkpt>
      <trkpt lat="46.03599" lon="4.75997">
        <ele>190</ele>
        <time>2018-05-09T09:59:47Z</time>
      </trkpt>
      <trkpt lat="46.03596" lon="4.75989">
        <ele>190</ele>
        <time>2018-05-09T09:59:48Z</time>
      </trkpt>
      <trkpt lat="46.03592" lon="4.75981">
        <ele>190</ele>
        <time>2018-05-09T09:59:49Z</time>
      </trkpt>
      <trkpt lat="46.03589" lon="4.75974">
        <ele>190</ele>
        <time>2018-05-09T09:59:50Z</time>
      </trkpt>
      <trkpt lat="46.03585" lon="4.75967">
        <ele>190</ele>
        <time>2018-05-09T09:59:51Z</time>
      </trkpt>
      <trkpt lat="46.03581" lon="4.75961">
        <ele>190</ele>
        <time>2018-05-09T09:59:52Z</time>
      </trkpt>
      <trkpt lat="46.03577" lon="4.75955">
        <ele>190</ele>
        <time>2018-05-09T09:59:53Z</time>
      </trkpt>
      <trkpt lat="46.03574" lon="4.75946">
        <ele>190</ele>
        <time>2018-05-09T09:59:54Z</time>
      </trkpt>
      <trkpt lat="46.03571" lon="4.75938">
        <ele>190</ele>
        <time>2018-05-09T09:59:55Z</time>
      </trkpt>
      <trkpt lat="46.03568" lon="4.7593">
        <ele>190</ele>
        <time>2018-05-09T09:59:56Z</time>
      </trkpt>
      <trkpt lat="46.03565" lon="4.75922">
        <ele>190</ele>
        <time>2018-05-09T09:59:57Z</time>
      </trkpt>
      <trkpt lat="46.03561" lon="4.75913">
        <ele>189</ele>
        <time>2018-05-09T09:59:58Z</time>
      </trkpt>
      <trkpt lat="46.03557" lon="4.75906">
        <ele>189</ele>
        <time>2018-05-09T09:59:59Z</time>
      </trkpt>
      <trkpt lat="46.03554" lon="4.75898">
        <ele>189</ele>
        <time>2018-05-09T10:00:00Z</time>
      </trkpt>
      <trkpt lat="46.03551" lon="4.7589">
        <ele>189</ele>
        <time>2018-05-09T10:00:01Z</time>
      </trkpt>
      <trkpt lat="46.03548" lon="4.75883">
        <ele>189</ele>
        <time>2018-05-09T10:00:02Z</time>
      </trkpt>
      <trkpt lat="46.03544" lon="4.75875">
        <ele>189</ele>
        <time>2018-05-09T10:00:03Z</time>
      </trkpt>
      <trkpt lat="46.0354" lon="4.75867">
        <ele>190</ele>
        <time>2018-05-09T10:00:04Z</time>
      </trkpt>
      <trkpt lat="46.03536" lon="4.7586">
        <ele>190</ele>
        <time>2018-05-09T10:00:05Z</time>
      </trkpt>
      <trkpt lat="46.03533" lon="4.75852">
        <ele>190</ele>
        <time>2018-05-09T10:00:06Z</time>
      </trkpt>
      <trkpt lat="46.0353" lon="4.75844">
        <ele>190</ele>
        <time>2018-05-09T10:00:07Z</time>
      </trkpt>
      <trkpt lat="46.03527" lon="4.75837">
        <ele>190</ele>
        <time>2018-05-09T10:00:08Z</time>
      </trkpt>
      <trkpt lat="46.03523" lon="4.75829">
        <ele>190</ele>
        <time>2018-05-09T10:00:09Z</time>
      </trkpt>
      <trkpt lat="46.0352" lon="4.75821">
        <ele>190</ele>
        <time>2018-05-09T10:00:10Z</time>
      </trkpt>
      <trkpt lat="46.03517" lon="4.75813">
        <ele>189</ele>
        <time>2018-05-09T10:00:11Z</time>
      </trkpt>
      <trkpt lat="46.03516" lon="4.75804">
        <ele>189</ele>
        <time>2018-05-09T10:00:12Z</time>
      </trkpt>
      <trkpt lat="46.03516" lon="4.75794">
        <ele>189</ele>
        <time>2018-05-09T10:00:13Z</time>
      </trkpt>
      <trkpt lat="46.03511" lon="4.75789">
        <ele>189</ele>
        <time>2018-05-09T10:00:14Z</time>
      </trkpt>
      <trkpt lat="46.03507" lon="4.75782">
        <ele>189</ele>
        <time>2018-05-09T10:00:15Z</time>
      </trkpt>
      <trkpt lat="46.03503" lon="4.75774">
        <ele>189</ele>
        <time>2018-05-09T10:00:16Z</time>
      </trkpt>
      <trkpt lat="46.03499" lon="4.75767">
        <ele>189</ele>
        <time>2018-05-09T10:00:17Z</time>
      </trkpt>
      <trkpt lat="46.03494" lon="4.75756">
        <ele>189</ele>
        <time>2018-05-09T10:00:18Z</time>
      </trkpt>
      <trkpt lat="46.03492" lon="4.75745">
        <ele>189</ele>
        <time>2018-05-09T10:00:19Z</time>
      </trkpt>
      <trkpt lat="46.03489" lon="4.75734">
        <ele>189</ele>
        <time>2018-05-09T10:00:21Z</time>
      </trkpt>
      <trkpt lat="46.03484" lon="4.75724">
        <ele>189</ele>
        <time>2018-05-09T10:00:22Z</time>
      </trkpt>
      <trkpt lat="46.03481" lon="4.75715">
        <ele>189</ele>
        <time>2018-05-09T10:00:23Z</time>
      </trkpt>
      <trkpt lat="46.03479" lon="4.75707">
        <ele>189</ele>
        <time>2018-05-09T10:00:24Z</time>
      </trkpt>
      <trkpt lat="46.03475" lon="4.757">
        <ele>189</ele>
        <time>2018-05-09T10:00:25Z</time>
      </trkpt>
      <trkpt lat="46.03472" lon="4.75692">
        <ele>189</ele>
        <time>2018-05-09T10:00:26Z</time>
      </trkpt>
      <trkpt lat="46.03469" lon="4.75684">
        <ele>189</ele>
        <time>2018-05-09T10:00:27Z</time>
      </trkpt>
      <trkpt lat="46.03466" lon="4.75676">
        <ele>189</ele>
        <time>2018-05-09T10:00:28Z</time>
      </trkpt>
      <trkpt lat="46.03463" lon="4.75669">
        <ele>189</ele>
        <time>2018-05-09T10:00:29Z</time>
      </trkpt>
      <trkpt lat="46.0346" lon="4.75662">
        <ele>188</ele>
        <time>2018-05-09T10:00:30Z</time>
      </trkpt>
      <trkpt lat="46.03457" lon="4.75655">
        <ele>188</ele>
        <time>2018-05-09T10:00:31Z</time>
      </trkpt>
      <trkpt lat="46.03455" lon="4.75649">
        <ele>188</ele>
        <time>2018-05-09T10:00:32Z</time>
      </trkpt>
      <trkpt lat="46.0345" lon="4.75639">
        <ele>188</ele>
        <time>2018-05-09T10:00:35Z</time>
      </trkpt>
      <trkpt lat="46.03449" lon="4.75637">
        <ele>188</ele>
        <time>2018-05-09T10:00:36Z</time>
      </trkpt>
      <trkpt lat="46.03446" lon="4.75625">
        <ele>188</ele>
        <time>2018-05-09T10:00:49Z</time>
      </trkpt>
      <trkpt lat="46.03445" lon="4.75624">
        <ele>188</ele>
        <time>2018-05-09T10:00:50Z</time>
      </trkpt>
      <trkpt lat="46.03437" lon="4.7562">
        <ele>188</ele>
        <time>2018-05-09T10:00:54Z</time>
      </trkpt>
      <trkpt lat="46.03428" lon="4.75621">
        <ele>188</ele>
        <time>2018-05-09T10:00:55Z</time>
      </trkpt>
      <trkpt lat="46.03423" lon="4.75621">
        <ele>188</ele>
        <time>2018-05-09T10:00:56Z</time>
      </trkpt>
      <trkpt lat="46.03415" lon="4.75624">
        <ele>188</ele>
        <time>2018-05-09T10:00:57Z</time>
      </trkpt>
      <trkpt lat="46.03411" lon="4.75625">
        <ele>188</ele>
        <time>2018-05-09T10:00:58Z</time>
      </trkpt>
      <trkpt lat="46.03406" lon="4.75626">
        <ele>188</ele>
        <time>2018-05-09T10:00:59Z</time>
      </trkpt>
      <trkpt lat="46.034" lon="4.75627">
        <ele>188</ele>
        <time>2018-05-09T10:01:00Z</time>
      </trkpt>
      <trkpt lat="46.03395" lon="4.75629">
        <ele>188</ele>
        <time>2018-05-09T10:01:01Z</time>
      </trkpt>
      <trkpt lat="46.03389" lon="4.75629">
        <ele>188</ele>
        <time>2018-05-09T10:01:02Z</time>
      </trkpt>
      <trkpt lat="46.03382" lon="4.7563">
        <ele>188</ele>
        <time>2018-05-09T10:01:03Z</time>
      </trkpt>
      <trkpt lat="46.03374" lon="4.7563">
        <ele>188</ele>
        <time>2018-05-09T10:01:04Z</time>
      </trkpt>
      <trkpt lat="46.03367" lon="4.75632">
        <ele>188</ele>
        <time>2018-05-09T10:01:05Z</time>
      </trkpt>
      <trkpt lat="46.0336" lon="4.75631">
        <ele>188</ele>
        <time>2018-05-09T10:01:06Z</time>
      </trkpt>
      <trkpt lat="46.03353" lon="4.75631">
        <ele>188</ele>
        <time>2018-05-09T10:01:07Z</time>
      </trkpt>
      <trkpt lat="46.03347" lon="4.75632">
        <ele>188</ele>
        <time>2018-05-09T10:01:08Z</time>
      </trkpt>
      <trkpt lat="46.0334" lon="4.75634">
        <ele>188</ele>
        <time>2018-05-09T10:01:09Z</time>
      </trkpt>
      <trkpt lat="46.03333" lon="4.75636">
        <ele>189</ele>
        <time>2018-05-09T10:01:10Z</time>
      </trkpt>
      <trkpt lat="46.03325" lon="4.75637">
        <ele>189</ele>
        <time>2018-05-09T10:01:11Z</time>
      </trkpt>
      <trkpt lat="46.03318" lon="4.75636">
        <ele>189</ele>
        <time>2018-05-09T10:01:12Z</time>
      </trkpt>
      <trkpt lat="46.03311" lon="4.75634">
        <ele>189</ele>
        <time>2018-05-09T10:01:13Z</time>
      </trkpt>
      <trkpt lat="46.03304" lon="4.75634">
        <ele>189</ele>
        <time>2018-05-09T10:01:14Z</time>
      </trkpt>
      <trkpt lat="46.03297" lon="4.75635">
        <ele>189</ele>
        <time>2018-05-09T10:01:15Z</time>
      </trkpt>
      <trkpt lat="46.03291" lon="4.75639">
        <ele>190</ele>
        <time>2018-05-09T10:01:16Z</time>
      </trkpt>
      <trkpt lat="46.03287" lon="4.75644">
        <ele>190</ele>
        <time>2018-05-09T10:01:17Z</time>
      </trkpt>
      <trkpt lat="46.03282" lon="4.7565">
        <ele>190</ele>
        <time>2018-05-09T10:01:18Z</time>
      </trkpt>
      <trkpt lat="46.03276" lon="4.75655">
        <ele>191</ele>
        <time>2018-05-09T10:01:19Z</time>
      </trkpt>
      <trkpt lat="46.03271" lon="4.75657">
        <ele>191</ele>
        <time>2018-05-09T10:01:20Z</time>
      </trkpt>
      <trkpt lat="46.03264" lon="4.75662">
        <ele>192</ele>
        <time>2018-05-09T10:01:21Z</time>
      </trkpt>
      <trkpt lat="46.03258" lon="4.75663">
        <ele>193</ele>
        <time>2018-05-09T10:01:22Z</time>
      </trkpt>
      <trkpt lat="46.0325" lon="4.75664">
        <ele>194</ele>
        <time>2018-05-09T10:01:23Z</time>
      </trkpt>
      <trkpt lat="46.03244" lon="4.75666">
        <ele>194</ele>
        <time>2018-05-09T10:01:24Z</time>
      </trkpt>
      <trkpt lat="46.03238" lon="4.75666">
        <ele>193</ele>
        <time>2018-05-09T10:01:25Z</time>
      </trkpt>
      <trkpt lat="46.03232" lon="4.7567">
        <ele>194</ele>
        <time>2018-05-09T10:01:26Z</time>
      </trkpt>
      <trkpt lat="46.03227" lon="4.75671">
        <ele>194</ele>
        <time>2018-05-09T10:01:27Z</time>
      </trkpt>
      <trkpt lat="46.0322" lon="4.75673">
        <ele>193</ele>
        <time>2018-05-09T10:01:28Z</time>
      </trkpt>
      <trkpt lat="46.03213" lon="4.75673">
        <ele>193</ele>
        <time>2018-05-09T10:01:29Z</time>
      </trkpt>
      <trkpt lat="46.03206" lon="4.75675">
        <ele>193</ele>
        <time>2018-05-09T10:01:30Z</time>
      </trkpt>
      <trkpt lat="46.03199" lon="4.75675">
        <ele>192</ele>
        <time>2018-05-09T10:01:31Z</time>
      </trkpt>
      <trkpt lat="46.03192" lon="4.75675">
        <ele>192</ele>
        <time>2018-05-09T10:01:32Z</time>
      </trkpt>
      <trkpt lat="46.03185" lon="4.75675">
        <ele>191</ele>
        <time>2018-05-09T10:01:33Z</time>
      </trkpt>
      <trkpt lat="46.03178" lon="4.75676">
        <ele>190</ele>
        <time>2018-05-09T10:01:34Z</time>
      </trkpt>
      <trkpt lat="46.0317" lon="4.75674">
        <ele>190</ele>
        <time>2018-05-09T10:01:35Z</time>
      </trkpt>
      <trkpt lat="46.03164" lon="4.75675">
        <ele>188</ele>
        <time>2018-05-09T10:01:36Z</time>
      </trkpt>
      <trkpt lat="46.03157" lon="4.75676">
        <ele>188</ele>
        <time>2018-05-09T10:01:37Z</time>
      </trkpt>
      <trkpt lat="46.03151" lon="4.75678">
        <ele>187</ele>
        <time>2018-05-09T10:01:38Z</time>
      </trkpt>
      <trkpt lat="46.03144" lon="4.75677">
        <ele>187</ele>
        <time>2018-05-09T10:01:39Z</time>
      </trkpt>
      <trkpt lat="46.03137" lon="4.75678">
        <ele>187</ele>
        <time>2018-05-09T10:01:40Z</time>
      </trkpt>
      <trkpt lat="46.03131" lon="4.7568">
        <ele>187</ele>
        <time>2018-05-09T10:01:41Z</time>
      </trkpt>
      <trkpt lat="46.03125" lon="4.75682">
        <ele>187</ele>
        <time>2018-05-09T10:01:42Z</time>
      </trkpt>
      <trkpt lat="46.03118" lon="4.75682">
        <ele>186</ele>
        <time>2018-05-09T10:01:43Z</time>
      </trkpt>
      <trkpt lat="46.03111" lon="4.75682">
        <ele>186</ele>
        <time>2018-05-09T10:01:44Z</time>
      </trkpt>
      <trkpt lat="46.03104" lon="4.75682">
        <ele>186</ele>
        <time>2018-05-09T10:01:45Z</time>
      </trkpt>
      <trkpt lat="46.03098" lon="4.75682">
        <ele>185</ele>
        <time>2018-05-09T10:01:46Z</time>
      </trkpt>
      <trkpt lat="46.03091" lon="4.75682">
        <ele>185</ele>
        <time>2018-05-09T10:01:47Z</time>
      </trkpt>
      <trkpt lat="46.03084" lon="4.75682">
        <ele>185</ele>
        <time>2018-05-09T10:01:48Z</time>
      </trkpt>
      <trkpt lat="46.03076" lon="4.75683">
        <ele>184</ele>
        <time>2018-05-09T10:01:49Z</time>
      </trkpt>
      <trkpt lat="46.0307" lon="4.75684">
        <ele>184</ele>
        <time>2018-05-09T10:01:50Z</time>
      </trkpt>
      <trkpt lat="46.03064" lon="4.75685">
        <ele>184</ele>
        <time>2018-05-09T10:01:51Z</time>
      </trkpt>
      <trkpt lat="46.03057" lon="4.75686">
        <ele>184</ele>
        <time>2018-05-09T10:01:52Z</time>
      </trkpt>
      <trkpt lat="46.03051" lon="4.75688">
        <ele>184</ele>
        <time>2018-05-09T10:01:53Z</time>
      </trkpt>
      <trkpt lat="46.03044" lon="4.75689">
        <ele>184</ele>
        <time>2018-05-09T10:01:54Z</time>
      </trkpt>
      <trkpt lat="46.03037" lon="4.75691">
        <ele>184</ele>
        <time>2018-05-09T10:01:55Z</time>
      </trkpt>
      <trkpt lat="46.03031" lon="4.75694">
        <ele>184</ele>
        <time>2018-05-09T10:01:56Z</time>
      </trkpt>
      <trkpt lat="46.03025" lon="4.75696">
        <ele>184</ele>
        <time>2018-05-09T10:01:57Z</time>
      </trkpt>
      <trkpt lat="46.03018" lon="4.75698">
        <ele>183</ele>
        <time>2018-05-09T10:01:58Z</time>
      </trkpt>
      <trkpt lat="46.03011" lon="4.757">
        <ele>183</ele>
        <time>2018-05-09T10:01:59Z</time>
      </trkpt>
      <trkpt lat="46.03004" lon="4.75704">
        <ele>184</ele>
        <time>2018-05-09T10:02:00Z</time>
      </trkpt>
      <trkpt lat="46.02998" lon="4.75708">
        <ele>183</ele>
        <time>2018-05-09T10:02:01Z</time>
      </trkpt>
      <trkpt lat="46.02991" lon="4.7571">
        <ele>183</ele>
        <time>2018-05-09T10:02:02Z</time>
      </trkpt>
      <trkpt lat="46.02984" lon="4.75713">
        <ele>183</ele>
        <time>2018-05-09T10:02:03Z</time>
      </trkpt>
      <trkpt lat="46.02978" lon="4.75714">
        <ele>183</ele>
        <time>2018-05-09T10:02:04Z</time>
      </trkpt>
      <trkpt lat="46.02971" lon="4.75716">
        <ele>183</ele>
        <time>2018-05-09T10:02:05Z</time>
      </trkpt>
      <trkpt lat="46.02964" lon="4.75717">
        <ele>183</ele>
        <time>2018-05-09T10:02:06Z</time>
      </trkpt>
      <trkpt lat="46.02957" lon="4.75718">
        <ele>183</ele>
        <time>2018-05-09T10:02:07Z</time>
      </trkpt>
      <trkpt lat="46.02949" lon="4.75722">
        <ele>183</ele>
        <time>2018-05-09T10:02:08Z</time>
      </trkpt>
      <trkpt lat="46.02941" lon="4.75724">
        <ele>183</ele>
        <time>2018-05-09T10:02:09Z</time>
      </trkpt>
      <trkpt lat="46.02935" lon="4.75725">
        <ele>183</ele>
        <time>2018-05-09T10:02:10Z</time>
      </trkpt>
      <trkpt lat="46.02928" lon="4.75725">
        <ele>183</ele>
        <time>2018-05-09T10:02:11Z</time>
      </trkpt>
      <trkpt lat="46.02921" lon="4.75726">
        <ele>183</ele>
        <time>2018-05-09T10:02:12Z</time>
      </trkpt>
      <trkpt lat="46.02914" lon="4.75727">
        <ele>183</ele>
        <time>2018-05-09T10:02:13Z</time>
      </trkpt>
      <trkpt lat="46.02907" lon="4.75727">
        <ele>183</ele>
        <time>2018-05-09T10:02:14Z</time>
      </trkpt>
      <trkpt lat="46.029" lon="4.75728">
        <ele>183</ele>
        <time>2018-05-09T10:02:15Z</time>
      </trkpt>
      <trkpt lat="46.02893" lon="4.75728">
        <ele>183</ele>
        <time>2018-05-09T10:02:16Z</time>
      </trkpt>
      <trkpt lat="46.02886" lon="4.75729">
        <ele>183</ele>
        <time>2018-05-09T10:02:17Z</time>
      </trkpt>
      <trkpt lat="46.02879" lon="4.7573">
        <ele>183</ele>
        <time>2018-05-09T10:02:18Z</time>
      </trkpt>
      <trkpt lat="46.02871" lon="4.75729">
        <ele>183</ele>
        <time>2018-05-09T10:02:19Z</time>
      </trkpt>
      <trkpt lat="46.02864" lon="4.75728">
        <ele>184</ele>
        <time>2018-05-09T10:02:20Z</time>
      </trkpt>
      <trkpt lat="46.02857" lon="4.75728">
        <ele>184</ele>
        <time>2018-05-09T10:02:21Z</time>
      </trkpt>
      <trkpt lat="46.0285" lon="4.75725">
        <ele>184</ele>
        <time>2018-05-09T10:02:22Z</time>
      </trkpt>
      <trkpt lat="46.02842" lon="4.75724">
        <ele>184</ele>
        <time>2018-05-09T10:02:23Z</time>
      </trkpt>
      <trkpt lat="46.02833" lon="4.75723">
        <ele>184</ele>
        <time>2018-05-09T10:02:24Z</time>
      </trkpt>
      <trkpt lat="46.02826" lon="4.75721">
        <ele>184</ele>
        <time>2018-05-09T10:02:25Z</time>
      </trkpt>
      <trkpt lat="46.02819" lon="4.75719">
        <ele>184</ele>
        <time>2018-05-09T10:02:26Z</time>
      </trkpt>
      <trkpt lat="46.02811" lon="4.75718">
        <ele>183</ele>
        <time>2018-05-09T10:02:27Z</time>
      </trkpt>
      <trkpt lat="46.02803" lon="4.75717">
        <ele>183</ele>
        <time>2018-05-09T10:02:28Z</time>
      </trkpt>
      <trkpt lat="46.02796" lon="4.75716">
        <ele>183</ele>
        <time>2018-05-09T10:02:29Z</time>
      </trkpt>
      <trkpt lat="46.02788" lon="4.75714">
        <ele>183</ele>
        <time>2018-05-09T10:02:30Z</time>
      </trkpt>
      <trkpt lat="46.0278" lon="4.75715">
        <ele>183</ele>
        <time>2018-05-09T10:02:31Z</time>
      </trkpt>
      <trkpt lat="46.02773" lon="4.75714">
        <ele>183</ele>
        <time>2018-05-09T10:02:32Z</time>
      </trkpt>
      <trkpt lat="46.02765" lon="4.75712">
        <ele>183</ele>
        <time>2018-05-09T10:02:33Z</time>
      </trkpt>
      <trkpt lat="46.02758" lon="4.75713">
        <ele>183</ele>
        <time>2018-05-09T10:02:34Z</time>
      </trkpt>
      <trkpt lat="46.02751" lon="4.75714">
        <ele>183</ele>
        <time>2018-05-09T10:02:35Z</time>
      </trkpt>
      <trkpt lat="46.02745" lon="4.75715">
        <ele>182</ele>
        <time>2018-05-09T10:02:36Z</time>
      </trkpt>
      <trkpt lat="46.02739" lon="4.75717">
        <ele>182</ele>
        <time>2018-05-09T10:02:37Z</time>
      </trkpt>
      <trkpt lat="46.02732" lon="4.75719">
        <ele>182</ele>
        <time>2018-05-09T10:02:38Z</time>
      </trkpt>
      <trkpt lat="46.02726" lon="4.75721">
        <ele>182</ele>
        <time>2018-05-09T10:02:39Z</time>
      </trkpt>
      <trkpt lat="46.02719" lon="4.75723">
        <ele>182</ele>
        <time>2018-05-09T10:02:40Z</time>
      </trkpt>
      <trkpt lat="46.02712" lon="4.75726">
        <ele>182</ele>
        <time>2018-05-09T10:02:41Z</time>
      </trkpt>
      <trkpt lat="46.02705" lon="4.75729">
        <ele>182</ele>
        <time>2018-05-09T10:02:42Z</time>
      </trkpt>
      <trkpt lat="46.02698" lon="4.75733">
        <ele>182</ele>
        <time>2018-05-09T10:02:43Z</time>
      </trkpt>
      <trkpt lat="46.02691" lon="4.75736">
        <ele>182</ele>
        <time>2018-05-09T10:02:44Z</time>
      </trkpt>
      <trkpt lat="46.02684" lon="4.75738">
        <ele>181</ele>
        <time>2018-05-09T10:02:45Z</time>
      </trkpt>
      <trkpt lat="46.02677" lon="4.75741">
        <ele>181</ele>
        <time>2018-05-09T10:02:46Z</time>
      </trkpt>
      <trkpt lat="46.02671" lon="4.75741">
        <ele>181</ele>
        <time>2018-05-09T10:02:47Z</time>
      </trkpt>
      <trkpt lat="46.02665" lon="4.75743">
        <ele>181</ele>
        <time>2018-05-09T10:02:48Z</time>
      </trkpt>
      <trkpt lat="46.02659" lon="4.75743">
        <ele>181</ele>
        <time>2018-05-09T10:02:49Z</time>
      </trkpt>
      <trkpt lat="46.02654" lon="4.75745">
        <ele>181</ele>
        <time>2018-05-09T10:02:50Z</time>
      </trkpt>
      <trkpt lat="46.02648" lon="4.75746">
        <ele>182</ele>
        <time>2018-05-09T10:02:51Z</time>
      </trkpt>
      <trkpt lat="46.02643" lon="4.75746">
        <ele>182</ele>
        <time>2018-05-09T10:02:52Z</time>
      </trkpt>
      <trkpt lat="46.02639" lon="4.75745">
        <ele>182</ele>
        <time>2018-05-09T10:02:53Z</time>
      </trkpt>
      <trkpt lat="46.02635" lon="4.75743">
        <ele>182</ele>
        <time>2018-05-09T10:02:54Z</time>
      </trkpt>
      <trkpt lat="46.02629" lon="4.75743">
        <ele>182</ele>
        <time>2018-05-09T10:02:55Z</time>
      </trkpt>
      <trkpt lat="46.02622" lon="4.75742">
        <ele>182</ele>
        <time>2018-05-09T10:02:57Z</time>
      </trkpt>
      <trkpt lat="46.02619" lon="4.7574">
        <ele>182</ele>
        <time>2018-05-09T10:02:58Z</time>
      </trkpt>
      <trkpt lat="46.02611" lon="4.75739">
        <ele>182</ele>
        <time>2018-05-09T10:03:00Z</time>
      </trkpt>
      <trkpt lat="46.02607" lon="4.7574">
        <ele>183</ele>
        <time>2018-05-09T10:03:01Z</time>
      </trkpt>
      <trkpt lat="46.026" lon="4.7574">
        <ele>183</ele>
        <time>2018-05-09T10:03:04Z</time>
      </trkpt>
      <trkpt lat="46.02597" lon="4.7574">
        <ele>183</ele>
        <time>2018-05-09T10:03:05Z</time>
      </trkpt>
      <trkpt lat="46.0259" lon="4.75739">
        <ele>183</ele>
        <time>2018-05-09T10:03:08Z</time>
      </trkpt>
      <trkpt lat="46.02587" lon="4.75738">
        <ele>183</ele>
        <time>2018-05-09T10:03:09Z</time>
      </trkpt>
      <trkpt lat="46.0258" lon="4.75738">
        <ele>184</ele>
        <time>2018-05-09T10:03:11Z</time>
      </trkpt>
      <trkpt lat="46.02577" lon="4.75738">
        <ele>184</ele>
        <time>2018-05-09T10:03:12Z</time>
      </trkpt>
      <trkpt lat="46.02568" lon="4.75738">
        <ele>185</ele>
        <time>2018-05-09T10:03:15Z</time>
      </trkpt>
      <trkpt lat="46.02565" lon="4.75738">
        <ele>185</ele>
        <time>2018-05-09T10:03:16Z</time>
      </trkpt>
      <trkpt lat="46.02556" lon="4.75738">
        <ele>186</ele>
        <time>2018-05-09T10:03:17Z</time>
      </trkpt>
      <trkpt lat="46.02548" lon="4.75738">
        <ele>186</ele>
        <time>2018-05-09T10:03:21Z</time>
      </trkpt>
      <trkpt lat="46.02545" lon="4.75738">
        <ele>186</ele>
        <time>2018-05-09T10:03:22Z</time>
      </trkpt>
      <trkpt lat="46.02537" lon="4.75739">
        <ele>187</ele>
        <time>2018-05-09T10:03:25Z</time>
      </trkpt>
      <trkpt lat="46.02534" lon="4.7574">
        <ele>187</ele>
        <time>2018-05-09T10:03:26Z</time>
      </trkpt>
      <trkpt lat="46.02526" lon="4.75743">
        <ele>187</ele>
        <time>2018-05-09T10:03:29Z</time>
      </trkpt>
      <trkpt lat="46.02522" lon="4.75744">
        <ele>188</ele>
        <time>2018-05-09T10:03:30Z</time>
      </trkpt>
      <trkpt lat="46.02516" lon="4.75746">
        <ele>188</ele>
        <time>2018-05-09T10:03:32Z</time>
      </trkpt>
      <trkpt lat="46.02513" lon="4.75747">
        <ele>188</ele>
        <time>2018-05-09T10:03:33Z</time>
      </trkpt>
      <trkpt lat="46.02507" lon="4.7575">
        <ele>189</ele>
        <time>2018-05-09T10:03:35Z</time>
      </trkpt>
      <trkpt lat="46.02504" lon="4.75752">
        <ele>189</ele>
        <time>2018-05-09T10:03:36Z</time>
      </trkpt>
      <trkpt lat="46.02498" lon="4.75755">
        <ele>190</ele>
        <time>2018-05-09T10:03:38Z</time>
      </trkpt>
      <trkpt lat="46.02495" lon="4.75756">
        <ele>190</ele>
        <time>2018-05-09T10:03:39Z</time>
      </trkpt>
      <trkpt lat="46.02489" lon="4.75759">
        <ele>190</ele>
        <time>2018-05-09T10:03:41Z</time>
      </trkpt>
      <trkpt lat="46.02486" lon="4.75761">
        <ele>190</ele>
        <time>2018-05-09T10:03:42Z</time>
      </trkpt>
      <trkpt lat="46.02478" lon="4.75766">
        <ele>191</ele>
        <time>2018-05-09T10:03:45Z</time>
      </trkpt>
      <trkpt lat="46.02475" lon="4.75767">
        <ele>191</ele>
        <time>2018-05-09T10:03:46Z</time>
      </trkpt>
      <trkpt lat="46.0247" lon="4.7577">
        <ele>191</ele>
        <time>2018-05-09T10:03:48Z</time>
      </trkpt>
      <trkpt lat="46.02467" lon="4.75772">
        <ele>191</ele>
        <time>2018-05-09T10:03:49Z</time>
      </trkpt>
      <trkpt lat="46.0246" lon="4.75775">
        <ele>191</ele>
        <time>2018-05-09T10:03:51Z</time>
      </trkpt>
      <trkpt lat="46.02458" lon="4.75776">
        <ele>191</ele>
        <time>2018-05-09T10:03:52Z</time>
      </trkpt>
      <trkpt lat="46.0245" lon="4.7578">
        <ele>191</ele>
        <time>2018-05-09T10:03:55Z</time>
      </trkpt>
      <trkpt lat="46.02447" lon="4.75781">
        <ele>191</ele>
        <time>2018-05-09T10:03:56Z</time>
      </trkpt>
      <trkpt lat="46.02441" lon="4.75784">
        <ele>191</ele>
        <time>2018-05-09T10:03:58Z</time>
      </trkpt>
      <trkpt lat="46.02438" lon="4.75785">
        <ele>191</ele>
        <time>2018-05-09T10:03:59Z</time>
      </trkpt>
      <trkpt lat="46.02432" lon="4.75788">
        <ele>191</ele>
        <time>2018-05-09T10:04:01Z</time>
      </trkpt>
      <trkpt lat="46.02429" lon="4.75789">
        <ele>191</ele>
        <time>2018-05-09T10:04:02Z</time>
      </trkpt>
      <trkpt lat="46.02423" lon="4.75792">
        <ele>192</ele>
        <time>2018-05-09T10:04:04Z</time>
      </trkpt>
      <trkpt lat="46.02419" lon="4.75794">
        <ele>192</ele>
        <time>2018-05-09T10:04:05Z</time>
      </trkpt>
      <trkpt lat="46.02413" lon="4.75798">
        <ele>192</ele>
        <time>2018-05-09T10:04:07Z</time>
      </trkpt>
      <trkpt lat="46.0241" lon="4.75799">
        <ele>192</ele>
        <time>2018-05-09T10:04:08Z</time>
      </trkpt>
      <trkpt lat="46.02404" lon="4.75803">
        <ele>192</ele>
        <time>2018-05-09T10:04:10Z</time>
      </trkpt>
      <trkpt lat="46.02395" lon="4.7581">
        <ele>192</ele>
        <time>2018-05-09T10:04:11Z</time>
      </trkpt>
      <trkpt lat="46.02389" lon="4.75815">
        <ele>192</ele>
        <time>2018-05-09T10:04:14Z</time>
      </trkpt>
      <trkpt lat="46.02387" lon="4.75817">
        <ele>192</ele>
        <time>2018-05-09T10:04:15Z</time>
      </trkpt>
      <trkpt lat="46.0238" lon="4.75823">
        <ele>192</ele>
        <time>2018-05-09T10:04:16Z</time>
      </trkpt>
      <trkpt lat="46.02376" lon="4.75825">
        <ele>192</ele>
        <time>2018-05-09T10:04:17Z</time>
      </trkpt>
      <trkpt lat="46.02369" lon="4.75829">
        <ele>192</ele>
        <time>2018-05-09T10:04:19Z</time>
      </trkpt>
      <trkpt lat="46.02366" lon="4.75832">
        <ele>192</ele>
        <time>2018-05-09T10:04:20Z</time>
      </trkpt>
      <trkpt lat="46.02359" lon="4.75839">
        <ele>193</ele>
        <time>2018-05-09T10:04:22Z</time>
      </trkpt>
      <trkpt lat="46.02355" lon="4.75841">
        <ele>193</ele>
        <time>2018-05-09T10:04:23Z</time>
      </trkpt>
      <trkpt lat="46.02351" lon="4.75844">
        <ele>193</ele>
        <time>2018-05-09T10:04:24Z</time>
      </trkpt>
      <trkpt lat="46.02347" lon="4.75848">
        <ele>193</ele>
        <time>2018-05-09T10:04:25Z</time>
      </trkpt>
      <trkpt lat="46.02343" lon="4.75851">
        <ele>193</ele>
        <time>2018-05-09T10:04:26Z</time>
      </trkpt>
      <trkpt lat="46.02339" lon="4.75855">
        <ele>193</ele>
        <time>2018-05-09T10:04:27Z</time>
      </trkpt>
      <trkpt lat="46.02334" lon="4.75859">
        <ele>193</ele>
        <time>2018-05-09T10:04:28Z</time>
      </trkpt>
      <trkpt lat="46.0233" lon="4.75863">
        <ele>193</ele>
        <time>2018-05-09T10:04:29Z</time>
      </trkpt>
      <trkpt lat="46.02326" lon="4.75868">
        <ele>193</ele>
        <time>2018-05-09T10:04:30Z</time>
      </trkpt>
      <trkpt lat="46.02321" lon="4.75871">
        <ele>193</ele>
        <time>2018-05-09T10:04:31Z</time>
      </trkpt>
      <trkpt lat="46.02316" lon="4.75875">
        <ele>193</ele>
        <time>2018-05-09T10:04:32Z</time>
      </trkpt>
      <trkpt lat="46.02311" lon="4.75878">
        <ele>193</ele>
        <time>2018-05-09T10:04:33Z</time>
      </trkpt>
      <trkpt lat="46.02306" lon="4.75885">
        <ele>193</ele>
        <time>2018-05-09T10:04:34Z</time>
      </trkpt>
      <trkpt lat="46.02302" lon="4.75888">
        <ele>193</ele>
        <time>2018-05-09T10:04:35Z</time>
      </trkpt>
      <trkpt lat="46.02296" lon="4.75891">
        <ele>193</ele>
        <time>2018-05-09T10:04:36Z</time>
      </trkpt>
      <trkpt lat="46.02292" lon="4.75896">
        <ele>193</ele>
        <time>2018-05-09T10:04:37Z</time>
      </trkpt>
      <trkpt lat="46.02286" lon="4.75901">
        <ele>193</ele>
        <time>2018-05-09T10:04:38Z</time>
      </trkpt>
      <trkpt lat="46.02283" lon="4.75906">
        <ele>193</ele>
        <time>2018-05-09T10:04:39Z</time>
      </trkpt>
      <trkpt lat="46.02277" lon="4.7591">
        <ele>193</ele>
        <time>2018-05-09T10:04:40Z</time>
      </trkpt>
      <trkpt lat="46.02272" lon="4.75914">
        <ele>193</ele>
        <time>2018-05-09T10:04:41Z</time>
      </trkpt>
      <trkpt lat="46.02267" lon="4.75919">
        <ele>193</ele>
        <time>2018-05-09T10:04:42Z</time>
      </trkpt>
      <trkpt lat="46.02262" lon="4.75924">
        <ele>193</ele>
        <time>2018-05-09T10:04:43Z</time>
      </trkpt>
      <trkpt lat="46.02257" lon="4.75928">
        <ele>193</ele>
        <time>2018-05-09T10:04:44Z</time>
      </trkpt>
      <trkpt lat="46.02252" lon="4.75933">
        <ele>193</ele>
        <time>2018-05-09T10:04:45Z</time>
      </trkpt>
      <trkpt lat="46.02247" lon="4.75937">
        <ele>193</ele>
        <time>2018-05-09T10:04:46Z</time>
      </trkpt>
      <trkpt lat="46.02241" lon="4.75941">
        <ele>193</ele>
        <time>2018-05-09T10:04:47Z</time>
      </trkpt>
      <trkpt lat="46.02235" lon="4.75945">
        <ele>193</ele>
        <time>2018-05-09T10:04:48Z</time>
      </trkpt>
      <trkpt lat="46.0223" lon="4.7595">
        <ele>193</ele>
        <time>2018-05-09T10:04:49Z</time>
      </trkpt>
      <trkpt lat="46.02224" lon="4.75955">
        <ele>193</ele>
        <time>2018-05-09T10:04:50Z</time>
      </trkpt>
      <trkpt lat="46.02219" lon="4.7596">
        <ele>192</ele>
        <time>2018-05-09T10:04:51Z</time>
      </trkpt>
      <trkpt lat="46.02214" lon="4.75966">
        <ele>192</ele>
        <time>2018-05-09T10:04:52Z</time>
      </trkpt>
      <trkpt lat="46.02209" lon="4.75971">
        <ele>192</ele>
        <time>2018-05-09T10:04:53Z</time>
      </trkpt>
      <trkpt lat="46.02203" lon="4.75974">
        <ele>192</ele>
        <time>2018-05-09T10:04:54Z</time>
      </trkpt>
      <trkpt lat="46.02198" lon="4.75979">
        <ele>192</ele>
        <time>2018-05-09T10:04:55Z</time>
      </trkpt>
      <trkpt lat="46.02192" lon="4.75983">
        <ele>192</ele>
        <time>2018-05-09T10:04:56Z</time>
      </trkpt>
      <trkpt lat="46.02187" lon="4.75988">
        <ele>192</ele>
        <time>2018-05-09T10:04:57Z</time>
      </trkpt>
      <trkpt lat="46.02181" lon="4.75992">
        <ele>192</ele>
        <time>2018-05-09T10:04:58Z</time>
      </trkpt>
      <trkpt lat="46.02175" lon="4.75998">
        <ele>192</ele>
        <time>2018-05-09T10:04:59Z</time>
      </trkpt>
      <trkpt lat="46.02171" lon="4.76003">
        <ele>192</ele>
        <time>2018-05-09T10:05:00Z</time>
      </trkpt>
      <trkpt lat="46.02166" lon="4.76008">
        <ele>192</ele>
        <time>2018-05-09T10:05:01Z</time>
      </trkpt>
      <trkpt lat="46.02161" lon="4.76012">
        <ele>193</ele>
        <time>2018-05-09T10:05:02Z</time>
      </trkpt>
      <trkpt lat="46.02156" lon="4.76016">
        <ele>193</ele>
        <time>2018-05-09T10:05:03Z</time>
      </trkpt>
      <trkpt lat="46.02151" lon="4.7602">
        <ele>193</ele>
        <time>2018-05-09T10:05:04Z</time>
      </trkpt>
      <trkpt lat="46.02145" lon="4.76025">
        <ele>193</ele>
        <time>2018-05-09T10:05:05Z</time>
      </trkpt>
      <trkpt lat="46.02141" lon="4.76029">
        <ele>193</ele>
        <time>2018-05-09T10:05:06Z</time>
      </trkpt>
      <trkpt lat="46.02137" lon="4.76034">
        <ele>193</ele>
        <time>2018-05-09T10:05:07Z</time>
      </trkpt>
      <trkpt lat="46.02133" lon="4.76039">
        <ele>193</ele>
        <time>2018-05-09T10:05:08Z</time>
      </trkpt>
      <trkpt lat="46.02128" lon="4.76043">
        <ele>194</ele>
        <time>2018-05-09T10:05:09Z</time>
      </trkpt>
      <trkpt lat="46.02123" lon="4.76049">
        <ele>194</ele>
        <time>2018-05-09T10:05:10Z</time>
      </trkpt>
      <trkpt lat="46.02119" lon="4.76054">
        <ele>194</ele>
        <time>2018-05-09T10:05:11Z</time>
      </trkpt>
      <trkpt lat="46.02115" lon="4.76057">
        <ele>194</ele>
        <time>2018-05-09T10:05:12Z</time>
      </trkpt>
      <trkpt lat="46.0211" lon="4.7606">
        <ele>194</ele>
        <time>2018-05-09T10:05:13Z</time>
      </trkpt>
      <trkpt lat="46.02106" lon="4.76064">
        <ele>194</ele>
        <time>2018-05-09T10:05:14Z</time>
      </trkpt>
      <trkpt lat="46.02101" lon="4.76068">
        <ele>194</ele>
        <time>2018-05-09T10:05:15Z</time>
      </trkpt>
      <trkpt lat="46.02096" lon="4.76071">
        <ele>195</ele>
        <time>2018-05-09T10:05:16Z</time>
      </trkpt>
      <trkpt lat="46.02092" lon="4.76074">
        <ele>195</ele>
        <time>2018-05-09T10:05:17Z</time>
      </trkpt>
      <trkpt lat="46.02087" lon="4.76077">
        <ele>195</ele>
        <time>2018-05-09T10:05:18Z</time>
      </trkpt>
      <trkpt lat="46.02083" lon="4.76078">
        <ele>196</ele>
        <time>2018-05-09T10:05:19Z</time>
      </trkpt>
      <trkpt lat="46.02079" lon="4.76079">
        <ele>196</ele>
        <time>2018-05-09T10:05:20Z</time>
      </trkpt>
      <trkpt lat="46.02073" lon="4.76081">
        <ele>196</ele>
        <time>2018-05-09T10:05:21Z</time>
      </trkpt>
      <trkpt lat="46.02064" lon="4.76085">
        <ele>197</ele>
        <time>2018-05-09T10:05:23Z</time>
      </trkpt>
      <trkpt lat="46.02059" lon="4.76086">
        <ele>197</ele>
        <time>2018-05-09T10:05:24Z</time>
      </trkpt>
      <trkpt lat="46.02054" lon="4.76087">
        <ele>197</ele>
        <time>2018-05-09T10:05:25Z</time>
      </trkpt>
      <trkpt lat="46.02048" lon="4.76089">
        <ele>197</ele>
        <time>2018-05-09T10:05:26Z</time>
      </trkpt>
      <trkpt lat="46.02043" lon="4.76091">
        <ele>197</ele>
        <time>2018-05-09T10:05:27Z</time>
      </trkpt>
      <trkpt lat="46.02039" lon="4.76094">
        <ele>197</ele>
        <time>2018-05-09T10:05:28Z</time>
      </trkpt>
      <trkpt lat="46.0203" lon="4.76096">
        <ele>197</ele>
        <time>2018-05-09T10:05:30Z</time>
      </trkpt>
      <trkpt lat="46.02025" lon="4.76097">
        <ele>197</ele>
        <time>2018-05-09T10:05:31Z</time>
      </trkpt>
      <trkpt lat="46.02021" lon="4.76097">
        <ele>197</ele>
        <time>2018-05-09T10:05:32Z</time>
      </trkpt>
      <trkpt lat="46.02015" lon="4.761">
        <ele>197</ele>
        <time>2018-05-09T10:05:33Z</time>
      </trkpt>
      <trkpt lat="46.0201" lon="4.761">
        <ele>197</ele>
        <time>2018-05-09T10:05:34Z</time>
      </trkpt>
      <trkpt lat="46.02006" lon="4.76102">
        <ele>197</ele>
        <time>2018-05-09T10:05:35Z</time>
      </trkpt>
      <trkpt lat="46.01998" lon="4.76104">
        <ele>198</ele>
        <time>2018-05-09T10:05:37Z</time>
      </trkpt>
      <trkpt lat="46.01993" lon="4.76104">
        <ele>198</ele>
        <time>2018-05-09T10:05:38Z</time>
      </trkpt>
      <trkpt lat="46.01988" lon="4.76106">
        <ele>198</ele>
        <time>2018-05-09T10:05:39Z</time>
      </trkpt>
      <trkpt lat="46.01983" lon="4.76107">
        <ele>198</ele>
        <time>2018-05-09T10:05:40Z</time>
      </trkpt>
      <trkpt lat="46.01975" lon="4.7611">
        <ele>198</ele>
        <time>2018-05-09T10:05:42Z</time>
      </trkpt>
      <trkpt lat="46.01971" lon="4.76111">
        <ele>198</ele>
        <time>2018-05-09T10:05:43Z</time>
      </trkpt>
      <trkpt lat="46.01963" lon="4.76116">
        <ele>198</ele>
        <time>2018-05-09T10:05:45Z</time>
      </trkpt>
      <trkpt lat="46.01959" lon="4.76116">
        <ele>198</ele>
        <time>2018-05-09T10:05:46Z</time>
      </trkpt>
      <trkpt lat="46.01951" lon="4.76117">
        <ele>198</ele>
        <time>2018-05-09T10:05:48Z</time>
      </trkpt>
      <trkpt lat="46.01948" lon="4.76116">
        <ele>198</ele>
        <time>2018-05-09T10:05:49Z</time>
      </trkpt>
      <trkpt lat="46.01943" lon="4.76117">
        <ele>198</ele>
        <time>2018-05-09T10:05:50Z</time>
      </trkpt>
      <trkpt lat="46.01939" lon="4.76119">
        <ele>198</ele>
        <time>2018-05-09T10:05:51Z</time>
      </trkpt>
      <trkpt lat="46.01931" lon="4.76121">
        <ele>198</ele>
        <time>2018-05-09T10:05:53Z</time>
      </trkpt>
      <trkpt lat="46.01927" lon="4.76122">
        <ele>198</ele>
        <time>2018-05-09T10:05:54Z</time>
      </trkpt>
      <trkpt lat="46.01921" lon="4.76123">
        <ele>198</ele>
        <time>2018-05-09T10:05:55Z</time>
      </trkpt>
      <trkpt lat="46.01917" lon="4.76124">
        <ele>199</ele>
        <time>2018-05-09T10:05:56Z</time>
      </trkpt>
      <trkpt lat="46.01911" lon="4.76126">
        <ele>199</ele>
        <time>2018-05-09T10:05:57Z</time>
      </trkpt>
      <trkpt lat="46.01906" lon="4.76127">
        <ele>199</ele>
        <time>2018-05-09T10:05:58Z</time>
      </trkpt>
      <trkpt lat="46.01901" lon="4.76128">
        <ele>199</ele>
        <time>2018-05-09T10:05:59Z</time>
      </trkpt>
      <trkpt lat="46.01896" lon="4.7613">
        <ele>199</ele>
        <time>2018-05-09T10:06:00Z</time>
      </trkpt>
      <trkpt lat="46.01888" lon="4.76131">
        <ele>199</ele>
        <time>2018-05-09T10:06:02Z</time>
      </trkpt>
      <trkpt lat="46.01883" lon="4.76132">
        <ele>199</ele>
        <time>2018-05-09T10:06:03Z</time>
      </trkpt>
      <trkpt lat="46.01879" lon="4.76133">
        <ele>199</ele>
        <time>2018-05-09T10:06:04Z</time>
      </trkpt>
      <trkpt lat="46.01874" lon="4.76133">
        <ele>199</ele>
        <time>2018-05-09T10:06:05Z</time>
      </trkpt>
      <trkpt lat="46.01868" lon="4.76131">
        <ele>199</ele>
        <time>2018-05-09T10:06:06Z</time>
      </trkpt>
      <trkpt lat="46.01863" lon="4.76132">
        <ele>199</ele>
        <time>2018-05-09T10:06:07Z</time>
      </trkpt>
      <trkpt lat="46.01858" lon="4.76132">
        <ele>199</ele>
        <time>2018-05-09T10:06:08Z</time>
      </trkpt>
      <trkpt lat="46.01852" lon="4.76131">
        <ele>199</ele>
        <time>2018-05-09T10:06:09Z</time>
      </trkpt>
      <trkpt lat="46.01849" lon="4.76132">
        <ele>199</ele>
        <time>2018-05-09T10:06:10Z</time>
      </trkpt>
      <trkpt lat="46.01842" lon="4.76132">
        <ele>199</ele>
        <time>2018-05-09T10:06:11Z</time>
      </trkpt>
      <trkpt lat="46.01835" lon="4.76132">
        <ele>199</ele>
        <time>2018-05-09T10:06:12Z</time>
      </trkpt>
      <trkpt lat="46.01831" lon="4.76132">
        <ele>198</ele>
        <time>2018-05-09T10:06:13Z</time>
      </trkpt>
      <trkpt lat="46.01823" lon="4.76133">
        <ele>198</ele>
        <time>2018-05-09T10:06:14Z</time>
      </trkpt>
      <trkpt lat="46.01818" lon="4.76131">
        <ele>198</ele>
        <time>2018-05-09T10:06:15Z</time>
      </trkpt>
      <trkpt lat="46.0181" lon="4.7613">
        <ele>198</ele>
        <time>2018-05-09T10:06:17Z</time>
      </trkpt>
      <trkpt lat="46.01804" lon="4.7613">
        <ele>198</ele>
        <time>2018-05-09T10:06:18Z</time>
      </trkpt>
      <trkpt lat="46.01797" lon="4.76127">
        <ele>198</ele>
        <time>2018-05-09T10:06:20Z</time>
      </trkpt>
      <trkpt lat="46.01792" lon="4.76128">
        <ele>198</ele>
        <time>2018-05-09T10:06:21Z</time>
      </trkpt>
      <trkpt lat="46.01786" lon="4.76127">
        <ele>198</ele>
        <time>2018-05-09T10:06:22Z</time>
      </trkpt>
      <trkpt lat="46.01782" lon="4.76128">
        <ele>198</ele>
        <time>2018-05-09T10:06:23Z</time>
      </trkpt>
      <trkpt lat="46.01776" lon="4.76128">
        <ele>198</ele>
        <time>2018-05-09T10:06:24Z</time>
      </trkpt>
      <trkpt lat="46.01772" lon="4.76127">
        <ele>198</ele>
        <time>2018-05-09T10:06:25Z</time>
      </trkpt>
      <trkpt lat="46.01768" lon="4.76124">
        <ele>198</ele>
        <time>2018-05-09T10:06:26Z</time>
      </trkpt>
      <trkpt lat="46.01763" lon="4.76123">
        <ele>198</ele>
        <time>2018-05-09T10:06:27Z</time>
      </trkpt>
      <trkpt lat="46.01756" lon="4.76123">
        <ele>198</ele>
        <time>2018-05-09T10:06:28Z</time>
      </trkpt>
      <trkpt lat="46.01752" lon="4.76126">
        <ele>198</ele>
        <time>2018-05-09T10:06:29Z</time>
      </trkpt>
      <trkpt lat="46.01747" lon="4.76123">
        <ele>197</ele>
        <time>2018-05-09T10:06:30Z</time>
      </trkpt>
      <trkpt lat="46.01741" lon="4.76122">
        <ele>197</ele>
        <time>2018-05-09T10:06:31Z</time>
      </trkpt>
      <trkpt lat="46.01736" lon="4.76123">
        <ele>197</ele>
        <time>2018-05-09T10:06:32Z</time>
      </trkpt>
      <trkpt lat="46.01732" lon="4.76123">
        <ele>197</ele>
        <time>2018-05-09T10:06:33Z</time>
      </trkpt>
      <trkpt lat="46.01727" lon="4.76121">
        <ele>197</ele>
        <time>2018-05-09T10:06:34Z</time>
      </trkpt>
      <trkpt lat="46.01722" lon="4.76121">
        <ele>197</ele>
        <time>2018-05-09T10:06:35Z</time>
      </trkpt>
      <trkpt lat="46.01717" lon="4.7612">
        <ele>197</ele>
        <time>2018-05-09T10:06:36Z</time>
      </trkpt>
      <trkpt lat="46.01711" lon="4.76119">
        <ele>198</ele>
        <time>2018-05-09T10:06:37Z</time>
      </trkpt>
      <trkpt lat="46.01702" lon="4.7612">
        <ele>198</ele>
        <time>2018-05-09T10:06:39Z</time>
      </trkpt>
      <trkpt lat="46.0169" lon="4.76123">
        <ele>198</ele>
        <time>2018-05-09T10:06:40Z</time>
      </trkpt>
      <trkpt lat="46.01681" lon="4.76122">
        <ele>198</ele>
        <time>2018-05-09T10:06:42Z</time>
      </trkpt>
      <trkpt lat="46.01675" lon="4.76121">
        <ele>198</ele>
        <time>2018-05-09T10:06:43Z</time>
      </trkpt>
      <trkpt lat="46.01667" lon="4.76119">
        <ele>198</ele>
        <time>2018-05-09T10:06:45Z</time>
      </trkpt>
      <trkpt lat="46.0166" lon="4.76119">
        <ele>199</ele>
        <time>2018-05-09T10:06:46Z</time>
      </trkpt>
      <trkpt lat="46.01652" lon="4.76117">
        <ele>199</ele>
        <time>2018-05-09T10:06:48Z</time>
      </trkpt>
      <trkpt lat="46.01647" lon="4.76118">
        <ele>199</ele>
        <time>2018-05-09T10:06:49Z</time>
      </trkpt>
      <trkpt lat="46.01639" lon="4.76117">
        <ele>199</ele>
        <time>2018-05-09T10:06:51Z</time>
      </trkpt>
      <trkpt lat="46.01634" lon="4.76117">
        <ele>199</ele>
        <time>2018-05-09T10:06:52Z</time>
      </trkpt>
      <trkpt lat="46.01629" lon="4.76117">
        <ele>199</ele>
        <time>2018-05-09T10:06:53Z</time>
      </trkpt>
      <trkpt lat="46.01625" lon="4.76116">
        <ele>200</ele>
        <time>2018-05-09T10:06:54Z</time>
      </trkpt>
      <trkpt lat="46.01618" lon="4.76116">
        <ele>200</ele>
        <time>2018-05-09T10:06:55Z</time>
      </trkpt>
      <trkpt lat="46.01613" lon="4.76116">
        <ele>200</ele>
        <time>2018-05-09T10:06:56Z</time>
      </trkpt>
      <trkpt lat="46.01605" lon="4.76115">
        <ele>200</ele>
        <time>2018-05-09T10:06:58Z</time>
      </trkpt>
      <trkpt lat="46.01601" lon="4.76114">
        <ele>200</ele>
        <time>2018-05-09T10:06:59Z</time>
      </trkpt>
      <trkpt lat="46.01595" lon="4.76115">
        <ele>200</ele>
        <time>2018-05-09T10:07:00Z</time>
      </trkpt>
      <trkpt lat="46.01591" lon="4.76114">
        <ele>200</ele>
        <time>2018-05-09T10:07:01Z</time>
      </trkpt>
      <trkpt lat="46.01585" lon="4.7611">
        <ele>200</ele>
        <time>2018-05-09T10:07:03Z</time>
      </trkpt>
      <trkpt lat="46.01582" lon="4.76109">
        <ele>202</ele>
        <time>2018-05-09T10:07:04Z</time>
      </trkpt>
      <trkpt lat="46.01574" lon="4.76105">
        <ele>202</ele>
        <time>2018-05-09T10:07:06Z</time>
      </trkpt>
      <trkpt lat="46.0157" lon="4.76105">
        <ele>202</ele>
        <time>2018-05-09T10:07:07Z</time>
      </trkpt>
      <trkpt lat="46.01562" lon="4.76103">
        <ele>202</ele>
        <time>2018-05-09T10:07:09Z</time>
      </trkpt>
      <trkpt lat="46.01558" lon="4.76101">
        <ele>202</ele>
        <time>2018-05-09T10:07:10Z</time>
      </trkpt>
      <trkpt lat="46.01551" lon="4.76095">
        <ele>202</ele>
        <time>2018-05-09T10:07:12Z</time>
      </trkpt>
      <trkpt lat="46.01548" lon="4.76093">
        <ele>202</ele>
        <time>2018-05-09T10:07:13Z</time>
      </trkpt>
      <trkpt lat="46.01541" lon="4.76092">
        <ele>202</ele>
        <time>2018-05-09T10:07:14Z</time>
      </trkpt>
      <trkpt lat="46.01538" lon="4.76091">
        <ele>202</ele>
        <time>2018-05-09T10:07:15Z</time>
      </trkpt>
      <trkpt lat="46.01533" lon="4.76089">
        <ele>202</ele>
        <time>2018-05-09T10:07:16Z</time>
      </trkpt>
      <trkpt lat="46.01528" lon="4.76088">
        <ele>202</ele>
        <time>2018-05-09T10:07:17Z</time>
      </trkpt>
      <trkpt lat="46.01524" lon="4.76087">
        <ele>202</ele>
        <time>2018-05-09T10:07:18Z</time>
      </trkpt>
      <trkpt lat="46.01519" lon="4.76087">
        <ele>203</ele>
        <time>2018-05-09T10:07:19Z</time>
      </trkpt>
      <trkpt lat="46.01514" lon="4.76089">
        <ele>203</ele>
        <time>2018-05-09T10:07:20Z</time>
      </trkpt>
      <trkpt lat="46.01509" lon="4.76088">
        <ele>203</ele>
        <time>2018-05-09T10:07:21Z</time>
      </trkpt>
      <trkpt lat="46.01503" lon="4.76087">
        <ele>203</ele>
        <time>2018-05-09T10:07:22Z</time>
      </trkpt>
      <trkpt lat="46.01497" lon="4.76086">
        <ele>203</ele>
        <time>2018-05-09T10:07:23Z</time>
      </trkpt>
      <trkpt lat="46.01492" lon="4.76085">
        <ele>203</ele>
        <time>2018-05-09T10:07:24Z</time>
      </trkpt>
      <trkpt lat="46.01486" lon="4.76084">
        <ele>203</ele>
        <time>2018-05-09T10:07:25Z</time>
      </trkpt>
      <trkpt lat="46.01482" lon="4.76084">
        <ele>203</ele>
        <time>2018-05-09T10:07:26Z</time>
      </trkpt>
      <trkpt lat="46.01477" lon="4.76082">
        <ele>203</ele>
        <time>2018-05-09T10:07:27Z</time>
      </trkpt>
      <trkpt lat="46.01472" lon="4.7608">
        <ele>203</ele>
        <time>2018-05-09T10:07:28Z</time>
      </trkpt>
      <trkpt lat="46.01467" lon="4.76079">
        <ele>203</ele>
        <time>2018-05-09T10:07:29Z</time>
      </trkpt>
      <trkpt lat="46.0146" lon="4.76076">
        <ele>203</ele>
        <time>2018-05-09T10:07:31Z</time>
      </trkpt>
      <trkpt lat="46.01457" lon="4.76073">
        <ele>203</ele>
        <time>2018-05-09T10:07:32Z</time>
      </trkpt>
      <trkpt lat="46.01452" lon="4.76072">
        <ele>203</ele>
        <time>2018-05-09T10:07:33Z</time>
      </trkpt>
      <trkpt lat="46.01446" lon="4.76071">
        <ele>203</ele>
        <time>2018-05-09T10:07:34Z</time>
      </trkpt>
      <trkpt lat="46.01439" lon="4.7607">
        <ele>203</ele>
        <time>2018-05-09T10:07:35Z</time>
      </trkpt>
      <trkpt lat="46.01435" lon="4.76067">
        <ele>203</ele>
        <time>2018-05-09T10:07:36Z</time>
      </trkpt>
      <trkpt lat="46.01431" lon="4.76063">
        <ele>203</ele>
        <time>2018-05-09T10:07:37Z</time>
      </trkpt>
      <trkpt lat="46.01426" lon="4.76061">
        <ele>203</ele>
        <time>2018-05-09T10:07:38Z</time>
      </trkpt>
      <trkpt lat="46.01422" lon="4.76058">
        <ele>203</ele>
        <time>2018-05-09T10:07:39Z</time>
      </trkpt>
      <trkpt lat="46.01418" lon="4.76055">
        <ele>203</ele>
        <time>2018-05-09T10:07:40Z</time>
      </trkpt>
      <trkpt lat="46.01413" lon="4.76052">
        <ele>203</ele>
        <time>2018-05-09T10:07:41Z</time>
      </trkpt>
      <trkpt lat="46.0141" lon="4.76047">
        <ele>203</ele>
        <time>2018-05-09T10:07:42Z</time>
      </trkpt>
      <trkpt lat="46.01402" lon="4.76046">
        <ele>203</ele>
        <time>2018-05-09T10:07:43Z</time>
      </trkpt>
      <trkpt lat="46.01398" lon="4.76043">
        <ele>203</ele>
        <time>2018-05-09T10:07:44Z</time>
      </trkpt>
      <trkpt lat="46.01392" lon="4.76042">
        <ele>203</ele>
        <time>2018-05-09T10:07:45Z</time>
      </trkpt>
      <trkpt lat="46.01388" lon="4.7604">
        <ele>203</ele>
        <time>2018-05-09T10:07:46Z</time>
      </trkpt>
      <trkpt lat="46.01383" lon="4.7604">
        <ele>203</ele>
        <time>2018-05-09T10:07:47Z</time>
      </trkpt>
      <trkpt lat="46.01378" lon="4.76041">
        <ele>203</ele>
        <time>2018-05-09T10:07:48Z</time>
      </trkpt>
      <trkpt lat="46.01373" lon="4.76042">
        <ele>203</ele>
        <time>2018-05-09T10:07:49Z</time>
      </trkpt>
      <trkpt lat="46.01368" lon="4.76043">
        <ele>203</ele>
        <time>2018-05-09T10:07:50Z</time>
      </trkpt>
      <trkpt lat="46.01363" lon="4.76044">
        <ele>203</ele>
        <time>2018-05-09T10:07:51Z</time>
      </trkpt>
      <trkpt lat="46.01359" lon="4.76046">
        <ele>203</ele>
        <time>2018-05-09T10:07:52Z</time>
      </trkpt>
      <trkpt lat="46.0135" lon="4.76049">
        <ele>203</ele>
        <time>2018-05-09T10:07:54Z</time>
      </trkpt>
      <trkpt lat="46.01347" lon="4.76053">
        <ele>203</ele>
        <time>2018-05-09T10:07:55Z</time>
      </trkpt>
      <trkpt lat="46.01342" lon="4.76053">
        <ele>203</ele>
        <time>2018-05-09T10:07:57Z</time>
      </trkpt>
      <trkpt lat="46.01337" lon="4.76054">
        <ele>203</ele>
        <time>2018-05-09T10:07:58Z</time>
      </trkpt>
      <trkpt lat="46.01329" lon="4.76055">
        <ele>203</ele>
        <time>2018-05-09T10:08:00Z</time>
      </trkpt>
      <trkpt lat="46.01324" lon="4.76056">
        <ele>203</ele>
        <time>2018-05-09T10:08:01Z</time>
      </trkpt>
      <trkpt lat="46.0132" lon="4.76057">
        <ele>203</ele>
        <time>2018-05-09T10:08:02Z</time>
      </trkpt>
      <trkpt lat="46.01315" lon="4.76058">
        <ele>203</ele>
        <time>2018-05-09T10:08:03Z</time>
      </trkpt>
      <trkpt lat="46.0131" lon="4.76056">
        <ele>203</ele>
        <time>2018-05-09T10:08:05Z</time>
      </trkpt>
      <trkpt lat="46.01305" lon="4.76058">
        <ele>203</ele>
        <time>2018-05-09T10:08:06Z</time>
      </trkpt>
      <trkpt lat="46.013" lon="4.7606">
        <ele>203</ele>
        <time>2018-05-09T10:08:07Z</time>
      </trkpt>
      <trkpt lat="46.01295" lon="4.76062">
        <ele>204</ele>
        <time>2018-05-09T10:08:08Z</time>
      </trkpt>
      <trkpt lat="46.01291" lon="4.76063">
        <ele>204</ele>
        <time>2018-05-09T10:08:09Z</time>
      </trkpt>
      <trkpt lat="46.01286" lon="4.76065">
        <ele>204</ele>
        <time>2018-05-09T10:08:10Z</time>
      </trkpt>
      <trkpt lat="46.0128" lon="4.76066">
        <ele>204</ele>
        <time>2018-05-09T10:08:11Z</time>
      </trkpt>
      <trkpt lat="46.01274" lon="4.76068">
        <ele>204</ele>
        <time>2018-05-09T10:08:12Z</time>
      </trkpt>
      <trkpt lat="46.01268" lon="4.76069">
        <ele>204</ele>
        <time>2018-05-09T10:08:13Z</time>
      </trkpt>
      <trkpt lat="46.01263" lon="4.7607">
        <ele>204</ele>
        <time>2018-05-09T10:08:14Z</time>
      </trkpt>
      <trkpt lat="46.01259" lon="4.7607">
        <ele>204</ele>
        <time>2018-05-09T10:08:15Z</time>
      </trkpt>
      <trkpt lat="46.01254" lon="4.76071">
        <ele>204</ele>
        <time>2018-05-09T10:08:16Z</time>
      </trkpt>
      <trkpt lat="46.01248" lon="4.76071">
        <ele>205</ele>
        <time>2018-05-09T10:08:17Z</time>
      </trkpt>
      <trkpt lat="46.01242" lon="4.76071">
        <ele>205</ele>
        <time>2018-05-09T10:08:18Z</time>
      </trkpt>
      <trkpt lat="46.01238" lon="4.76068">
        <ele>205</ele>
        <time>2018-05-09T10:08:19Z</time>
      </trkpt>
      <trkpt lat="46.01234" lon="4.76063">
        <ele>205</ele>
        <time>2018-05-09T10:08:20Z</time>
      </trkpt>
      <trkpt lat="46.01229" lon="4.76062">
        <ele>206</ele>
        <time>2018-05-09T10:08:21Z</time>
      </trkpt>
      <trkpt lat="46.01224" lon="4.76061">
        <ele>206</ele>
        <time>2018-05-09T10:08:22Z</time>
      </trkpt>
      <trkpt lat="46.01219" lon="4.7606">
        <ele>206</ele>
        <time>2018-05-09T10:08:23Z</time>
      </trkpt>
      <trkpt lat="46.01214" lon="4.7606">
        <ele>206</ele>
        <time>2018-05-09T10:08:24Z</time>
      </trkpt>
      <trkpt lat="46.01206" lon="4.76057">
        <ele>206</ele>
        <time>2018-05-09T10:08:26Z</time>
      </trkpt>
      <trkpt lat="46.01202" lon="4.76055">
        <ele>206</ele>
        <time>2018-05-09T10:08:27Z</time>
      </trkpt>
      <trkpt lat="46.01195" lon="4.76053">
        <ele>206</ele>
        <time>2018-05-09T10:08:29Z</time>
      </trkpt>
      <trkpt lat="46.0119" lon="4.76053">
        <ele>206</ele>
        <time>2018-05-09T10:08:30Z</time>
      </trkpt>
      <trkpt lat="46.01182" lon="4.7605">
        <ele>207</ele>
        <time>2018-05-09T10:08:32Z</time>
      </trkpt>
      <trkpt lat="46.01178" lon="4.76049">
        <ele>207</ele>
        <time>2018-05-09T10:08:33Z</time>
      </trkpt>
      <trkpt lat="46.01176" lon="4.76048">
        <ele>207</ele>
        <time>2018-05-09T10:08:34Z</time>
      </trkpt>
      <trkpt lat="46.01169" lon="4.76049">
        <ele>207</ele>
        <time>2018-05-09T10:08:35Z</time>
      </trkpt>
      <trkpt lat="46.01161" lon="4.7605">
        <ele>208</ele>
        <time>2018-05-09T10:08:38Z</time>
      </trkpt>
      <trkpt lat="46.01151" lon="4.76052">
        <ele>208</ele>
        <time>2018-05-09T10:08:39Z</time>
      </trkpt>
      <trkpt lat="46.01143" lon="4.76052">
        <ele>208</ele>
        <time>2018-05-09T10:08:41Z</time>
      </trkpt>
      <trkpt lat="46.01139" lon="4.76052">
        <ele>208</ele>
        <time>2018-05-09T10:08:42Z</time>
      </trkpt>
      <trkpt lat="46.01135" lon="4.76053">
        <ele>208</ele>
        <time>2018-05-09T10:08:43Z</time>
      </trkpt>
      <trkpt lat="46.0113" lon="4.76053">
        <ele>208</ele>
        <time>2018-05-09T10:08:44Z</time>
      </trkpt>
      <trkpt lat="46.01122" lon="4.76054">
        <ele>208</ele>
        <time>2018-05-09T10:08:46Z</time>
      </trkpt>
      <trkpt lat="46.01117" lon="4.76055">
        <ele>208</ele>
        <time>2018-05-09T10:08:47Z</time>
      </trkpt>
      <trkpt lat="46.0111" lon="4.76056">
        <ele>208</ele>
        <time>2018-05-09T10:08:49Z</time>
      </trkpt>
      <trkpt lat="46.01105" lon="4.76056">
        <ele>208</ele>
        <time>2018-05-09T10:08:50Z</time>
      </trkpt>
      <trkpt lat="46.01096" lon="4.76057">
        <ele>208</ele>
        <time>2018-05-09T10:08:52Z</time>
      </trkpt>
      <trkpt lat="46.01092" lon="4.76057">
        <ele>208</ele>
        <time>2018-05-09T10:08:53Z</time>
      </trkpt>
      <trkpt lat="46.01087" lon="4.76059">
        <ele>208</ele>
        <time>2018-05-09T10:08:54Z</time>
      </trkpt>
      <trkpt lat="46.01083" lon="4.76061">
        <ele>209</ele>
        <time>2018-05-09T10:08:55Z</time>
      </trkpt>
      <trkpt lat="46.01074" lon="4.76062">
        <ele>209</ele>
        <time>2018-05-09T10:08:57Z</time>
      </trkpt>
      <trkpt lat="46.01069" lon="4.76061">
        <ele>209</ele>
        <time>2018-05-09T10:08:58Z</time>
      </trkpt>
      <trkpt lat="46.01061" lon="4.7606">
        <ele>209</ele>
        <time>2018-05-09T10:09:00Z</time>
      </trkpt>
      <trkpt lat="46.01056" lon="4.76061">
        <ele>209</ele>
        <time>2018-05-09T10:09:01Z</time>
      </trkpt>
      <trkpt lat="46.0105" lon="4.76062">
        <ele>210</ele>
        <time>2018-05-09T10:09:02Z</time>
      </trkpt>
      <trkpt lat="46.01046" lon="4.76063">
        <ele>210</ele>
        <time>2018-05-09T10:09:03Z</time>
      </trkpt>
      <trkpt lat="46.01037" lon="4.76065">
        <ele>210</ele>
        <time>2018-05-09T10:09:05Z</time>
      </trkpt>
      <trkpt lat="46.01034" lon="4.76064">
        <ele>210</ele>
        <time>2018-05-09T10:09:06Z</time>
      </trkpt>
      <trkpt lat="46.0103" lon="4.76065">
        <ele>210</ele>
        <time>2018-05-09T10:09:07Z</time>
      </trkpt>
      <trkpt lat="46.01024" lon="4.76066">
        <ele>210</ele>
        <time>2018-05-09T10:09:08Z</time>
      </trkpt>
      <trkpt lat="46.01016" lon="4.76067">
        <ele>210</ele>
        <time>2018-05-09T10:09:10Z</time>
      </trkpt>
      <trkpt lat="46.01012" lon="4.76067">
        <ele>211</ele>
        <time>2018-05-09T10:09:11Z</time>
      </trkpt>
      <trkpt lat="46.01005" lon="4.76066">
        <ele>211</ele>
        <time>2018-05-09T10:09:13Z</time>
      </trkpt>
      <trkpt lat="46.01001" lon="4.76066">
        <ele>211</ele>
        <time>2018-05-09T10:09:14Z</time>
      </trkpt>
      <trkpt lat="46.00993" lon="4.76067">
        <ele>212</ele>
        <time>2018-05-09T10:09:16Z</time>
      </trkpt>
      <trkpt lat="46.00989" lon="4.76067">
        <ele>212</ele>
        <time>2018-05-09T10:09:17Z</time>
      </trkpt>
      <trkpt lat="46.0098" lon="4.76069">
        <ele>212</ele>
        <time>2018-05-09T10:09:19Z</time>
      </trkpt>
      <trkpt lat="46.00977" lon="4.7607">
        <ele>212</ele>
        <time>2018-05-09T10:09:20Z</time>
      </trkpt>
      <trkpt lat="46.00969" lon="4.76073">
        <ele>212</ele>
        <time>2018-05-09T10:09:22Z</time>
      </trkpt>
      <trkpt lat="46.00965" lon="4.76074">
        <ele>212</ele>
        <time>2018-05-09T10:09:23Z</time>
      </trkpt>
      <trkpt lat="46.00957" lon="4.76078">
        <ele>212</ele>
        <time>2018-05-09T10:09:25Z</time>
      </trkpt>
      <trkpt lat="46.00953" lon="4.76079">
        <ele>212</ele>
        <time>2018-05-09T10:09:26Z</time>
      </trkpt>
      <trkpt lat="46.00948" lon="4.7608">
        <ele>212</ele>
        <time>2018-05-09T10:09:27Z</time>
      </trkpt>
      <trkpt lat="46.00944" lon="4.76082">
        <ele>212</ele>
        <time>2018-05-09T10:09:28Z</time>
      </trkpt>
      <trkpt lat="46.00935" lon="4.76085">
        <ele>213</ele>
        <time>2018-05-09T10:09:30Z</time>
      </trkpt>
      <trkpt lat="46.00931" lon="4.76086">
        <ele>213</ele>
        <time>2018-05-09T10:09:31Z</time>
      </trkpt>
      <trkpt lat="46.00923" lon="4.76088">
        <ele>213</ele>
        <time>2018-05-09T10:09:33Z</time>
      </trkpt>
      <trkpt lat="46.00921" lon="4.76088">
        <ele>213</ele>
        <time>2018-05-09T10:09:34Z</time>
      </trkpt>
      <trkpt lat="46.00912" lon="4.76091">
        <ele>214</ele>
        <time>2018-05-09T10:09:36Z</time>
      </trkpt>
      <trkpt lat="46.00909" lon="4.76092">
        <ele>214</ele>
        <time>2018-05-09T10:09:37Z</time>
      </trkpt>
      <trkpt lat="46.00903" lon="4.76092">
        <ele>214</ele>
        <time>2018-05-09T10:09:38Z</time>
      </trkpt>
      <trkpt lat="46.00899" lon="4.76092">
        <ele>214</ele>
        <time>2018-05-09T10:09:39Z</time>
      </trkpt>
      <trkpt lat="46.00891" lon="4.76094">
        <ele>215</ele>
        <time>2018-05-09T10:09:41Z</time>
      </trkpt>
      <trkpt lat="46.00887" lon="4.76094">
        <ele>215</ele>
        <time>2018-05-09T10:09:42Z</time>
      </trkpt>
      <trkpt lat="46.00878" lon="4.76096">
        <ele>215</ele>
        <time>2018-05-09T10:09:44Z</time>
      </trkpt>
      <trkpt lat="46.00874" lon="4.76097">
        <ele>215</ele>
        <time>2018-05-09T10:09:45Z</time>
      </trkpt>
      <trkpt lat="46.00866" lon="4.76098">
        <ele>215</ele>
        <time>2018-05-09T10:09:47Z</time>
      </trkpt>
      <trkpt lat="46.00863" lon="4.76099">
        <ele>215</ele>
        <time>2018-05-09T10:09:48Z</time>
      </trkpt>
      <trkpt lat="46.00856" lon="4.76102">
        <ele>215</ele>
        <time>2018-05-09T10:09:50Z</time>
      </trkpt>
      <trkpt lat="46.00854" lon="4.76102">
        <ele>215</ele>
        <time>2018-05-09T10:09:51Z</time>
      </trkpt>
      <trkpt lat="46.00847" lon="4.76104">
        <ele>216</ele>
        <time>2018-05-09T10:09:53Z</time>
      </trkpt>
      <trkpt lat="46.00844" lon="4.76104">
        <ele>216</ele>
        <time>2018-05-09T10:09:54Z</time>
      </trkpt>
      <trkpt lat="46.00836" lon="4.76105">
        <ele>216</ele>
        <time>2018-05-09T10:09:57Z</time>
      </trkpt>
      <trkpt lat="46.00833" lon="4.76106">
        <ele>217</ele>
        <time>2018-05-09T10:09:58Z</time>
      </trkpt>
      <trkpt lat="46.00827" lon="4.76107">
        <ele>218</ele>
        <time>2018-05-09T10:10:00Z</time>
      </trkpt>
      <trkpt lat="46.00823" lon="4.76107">
        <ele>218</ele>
        <time>2018-05-09T10:10:01Z</time>
      </trkpt>
      <trkpt lat="46.00817" lon="4.76109">
        <ele>218</ele>
        <time>2018-05-09T10:10:03Z</time>
      </trkpt>
      <trkpt lat="46.00814" lon="4.76109">
        <ele>218</ele>
        <time>2018-05-09T10:10:04Z</time>
      </trkpt>
      <trkpt lat="46.00807" lon="4.7611">
        <ele>218</ele>
        <time>2018-05-09T10:10:06Z</time>
      </trkpt>
      <trkpt lat="46.00804" lon="4.7611">
        <ele>218</ele>
        <time>2018-05-09T10:10:07Z</time>
      </trkpt>
      <trkpt lat="46.00797" lon="4.76111">
        <ele>218</ele>
        <time>2018-05-09T10:10:09Z</time>
      </trkpt>
      <trkpt lat="46.00794" lon="4.76111">
        <ele>219</ele>
        <time>2018-05-09T10:10:10Z</time>
      </trkpt>
      <trkpt lat="46.00785" lon="4.7611">
        <ele>219</ele>
        <time>2018-05-09T10:10:13Z</time>
      </trkpt>
      <trkpt lat="46.00782" lon="4.7611">
        <ele>219</ele>
        <time>2018-05-09T10:10:14Z</time>
      </trkpt>
      <trkpt lat="46.00776" lon="4.7611">
        <ele>219</ele>
        <time>2018-05-09T10:10:16Z</time>
      </trkpt>
      <trkpt lat="46.00773" lon="4.7611">
        <ele>219</ele>
        <time>2018-05-09T10:10:17Z</time>
      </trkpt>
      <trkpt lat="46.00764" lon="4.76111">
        <ele>219</ele>
        <time>2018-05-09T10:10:20Z</time>
      </trkpt>
      <trkpt lat="46.00761" lon="4.76111">
        <ele>219</ele>
        <time>2018-05-09T10:10:21Z</time>
      </trkpt>
      <trkpt lat="46.00753" lon="4.7611">
        <ele>219</ele>
        <time>2018-05-09T10:10:24Z</time>
      </trkpt>
      <trkpt lat="46.0075" lon="4.7611">
        <ele>219</ele>
        <time>2018-05-09T10:10:25Z</time>
      </trkpt>
      <trkpt lat="46.00743" lon="4.7611">
        <ele>223</ele>
        <time>2018-05-09T10:10:28Z</time>
      </trkpt>
      <trkpt lat="46.00741" lon="4.76109">
        <ele>223</ele>
        <time>2018-05-09T10:10:29Z</time>
      </trkpt>
      <trkpt lat="46.00732" lon="4.76109">
        <ele>223</ele>
        <time>2018-05-09T10:10:33Z</time>
      </trkpt>
      <trkpt lat="46.0073" lon="4.76109">
        <ele>223</ele>
        <time>2018-05-09T10:10:34Z</time>
      </trkpt>
      <trkpt lat="46.00721" lon="4.7611">
        <ele>224</ele>
        <time>2018-05-09T10:10:38Z</time>
      </trkpt>
      <trkpt lat="46.00719" lon="4.7611">
        <ele>224</ele>
        <time>2018-05-09T10:10:39Z</time>
      </trkpt>
      <trkpt lat="46.00712" lon="4.76112">
        <ele>224</ele>
        <time>2018-05-09T10:10:42Z</time>
      </trkpt>
      <trkpt lat="46.00709" lon="4.76112">
        <ele>224</ele>
        <time>2018-05-09T10:10:43Z</time>
      </trkpt>
      <trkpt lat="46.00702" lon="4.76113">
        <ele>225</ele>
        <time>2018-05-09T10:10:46Z</time>
      </trkpt>
      <trkpt lat="46.00699" lon="4.76113">
        <ele>225</ele>
        <time>2018-05-09T10:10:47Z</time>
      </trkpt>
      <trkpt lat="46.00692" lon="4.76114">
        <ele>225</ele>
        <time>2018-05-09T10:10:50Z</time>
      </trkpt>
      <trkpt lat="46.0069" lon="4.76115">
        <ele>225</ele>
        <time>2018-05-09T10:10:51Z</time>
      </trkpt>
      <trkpt lat="46.00681" lon="4.76117">
        <ele>225</ele>
        <time>2018-05-09T10:10:55Z</time>
      </trkpt>
      <trkpt lat="46.0068" lon="4.76118">
        <ele>225</ele>
        <time>2018-05-09T10:10:56Z</time>
      </trkpt>
      <trkpt lat="46.00671" lon="4.7612">
        <ele>226</ele>
        <time>2018-05-09T10:11:01Z</time>
      </trkpt>
      <trkpt lat="46.00669" lon="4.7612">
        <ele>226</ele>
        <time>2018-05-09T10:11:02Z</time>
      </trkpt>
      <trkpt lat="46.00661" lon="4.76121">
        <ele>228</ele>
        <time>2018-05-09T10:11:06Z</time>
      </trkpt>
      <trkpt lat="46.00659" lon="4.76121">
        <ele>228</ele>
        <time>2018-05-09T10:11:07Z</time>
      </trkpt>
      <trkpt lat="46.00651" lon="4.76122">
        <ele>228</ele>
        <time>2018-05-09T10:11:12Z</time>
      </trkpt>
      <trkpt lat="46.00649" lon="4.76122">
        <ele>228</ele>
        <time>2018-05-09T10:11:13Z</time>
      </trkpt>
      <trkpt lat="46.00642" lon="4.76121">
        <ele>228</ele>
        <time>2018-05-09T10:11:17Z</time>
      </trkpt>
      <trkpt lat="46.0064" lon="4.7612">
        <ele>228</ele>
        <time>2018-05-09T10:11:18Z</time>
      </trkpt>
      <trkpt lat="46.00633" lon="4.76114">
        <ele>228</ele>
        <time>2018-05-09T10:11:22Z</time>
      </trkpt>
      <trkpt lat="46.00631" lon="4.76112">
        <ele>228</ele>
        <time>2018-05-09T10:11:23Z</time>
      </trkpt>
      <trkpt lat="46.00624" lon="4.76115">
        <ele>228</ele>
        <time>2018-05-09T10:11:28Z</time>
      </trkpt>
      <trkpt lat="46.00623" lon="4.76118">
        <ele>228</ele>
        <time>2018-05-09T10:11:29Z</time>
      </trkpt>
      <trkpt lat="46.00623" lon="4.7613">
        <ele>228</ele>
        <time>2018-05-09T10:11:32Z</time>
      </trkpt>
      <trkpt lat="46.00623" lon="4.76135">
        <ele>228</ele>
        <time>2018-05-09T10:11:33Z</time>
      </trkpt>
      <trkpt lat="46.00624" lon="4.76144">
        <ele>228</ele>
        <time>2018-05-09T10:11:35Z</time>
      </trkpt>
      <trkpt lat="46.00624" lon="4.76149">
        <ele>228</ele>
        <time>2018-05-09T10:11:36Z</time>
      </trkpt>
      <trkpt lat="46.00625" lon="4.76157">
        <ele>228</ele>
        <time>2018-05-09T10:11:38Z</time>
      </trkpt>
      <trkpt lat="46.00625" lon="4.76162">
        <ele>228</ele>
        <time>2018-05-09T10:11:39Z</time>
      </trkpt>
      <trkpt lat="46.00626" lon="4.76166">
        <ele>228</ele>
        <time>2018-05-09T10:11:40Z</time>
      </trkpt>
      <trkpt lat="46.00626" lon="4.76179">
        <ele>230</ele>
        <time>2018-05-09T10:11:41Z</time>
      </trkpt>
      <trkpt lat="46.00625" lon="4.76191">
        <ele>230</ele>
        <time>2018-05-09T10:11:45Z</time>
      </trkpt>
      <trkpt lat="46.00623" lon="4.76194">
        <ele>230</ele>
        <time>2018-05-09T10:11:46Z</time>
      </trkpt>
      <trkpt lat="46.00622" lon="4.76197">
        <ele>230</ele>
        <time>2018-05-09T10:11:47Z</time>
      </trkpt>
      <trkpt lat="46.00615" lon="4.76203">
        <ele>230</ele>
        <time>2018-05-09T10:11:48Z</time>
      </trkpt>
      <trkpt lat="46.00607" lon="4.76201">
        <ele>230</ele>
        <time>2018-05-09T10:11:50Z</time>
      </trkpt>
      <trkpt lat="46.00601" lon="4.76196">
        <ele>230</ele>
        <time>2018-05-09T10:11:51Z</time>
      </trkpt>
      <trkpt lat="46.00593" lon="4.76194">
        <ele>230</ele>
        <time>2018-05-09T10:11:53Z</time>
      </trkpt>
      <trkpt lat="46.00587" lon="4.76192">
        <ele>230</ele>
        <time>2018-05-09T10:11:54Z</time>
      </trkpt>
      <trkpt lat="46.00581" lon="4.76189">
        <ele>230</ele>
        <time>2018-05-09T10:11:55Z</time>
      </trkpt>
      <trkpt lat="46.00575" lon="4.76187">
        <ele>230</ele>
        <time>2018-05-09T10:11:56Z</time>
      </trkpt>
      <trkpt lat="46.00569" lon="4.76186">
        <ele>230</ele>
        <time>2018-05-09T10:11:57Z</time>
      </trkpt>
      <trkpt lat="46.00563" lon="4.76184">
        <ele>230</ele>
        <time>2018-05-09T10:11:58Z</time>
      </trkpt>
      <trkpt lat="46.00556" lon="4.76181">
        <ele>230</ele>
        <time>2018-05-09T10:11:59Z</time>
      </trkpt>
      <trkpt lat="46.00548" lon="4.76178">
        <ele>230</ele>
        <time>2018-05-09T10:12:00Z</time>
      </trkpt>
      <trkpt lat="46.00541" lon="4.76175">
        <ele>230</ele>
        <time>2018-05-09T10:12:01Z</time>
      </trkpt>
      <trkpt lat="46.00534" lon="4.76171">
        <ele>230</ele>
        <time>2018-05-09T10:12:02Z</time>
      </trkpt>
      <trkpt lat="46.00528" lon="4.76166">
        <ele>228</ele>
        <time>2018-05-09T10:12:03Z</time>
      </trkpt>
      <trkpt lat="46.00522" lon="4.7616">
        <ele>228</ele>
        <time>2018-05-09T10:12:04Z</time>
      </trkpt>
      <trkpt lat="46.00516" lon="4.76152">
        <ele>228</ele>
        <time>2018-05-09T10:12:05Z</time>
      </trkpt>
      <trkpt lat="46.00509" lon="4.76145">
        <ele>228</ele>
        <time>2018-05-09T10:12:06Z</time>
      </trkpt>
      <trkpt lat="46.00503" lon="4.76136">
        <ele>227</ele>
        <time>2018-05-09T10:12:07Z</time>
      </trkpt>
      <trkpt lat="46.00496" lon="4.76129">
        <ele>227</ele>
        <time>2018-05-09T10:12:08Z</time>
      </trkpt>
      <trkpt lat="46.00489" lon="4.76122">
        <ele>227</ele>
        <time>2018-05-09T10:12:09Z</time>
      </trkpt>
      <trkpt lat="46.00481" lon="4.76115">
        <ele>227</ele>
        <time>2018-05-09T10:12:10Z</time>
      </trkpt>
      <trkpt lat="46.00473" lon="4.76108">
        <ele>227</ele>
        <time>2018-05-09T10:12:11Z</time>
      </trkpt>
      <trkpt lat="46.00466" lon="4.76101">
        <ele>227</ele>
        <time>2018-05-09T10:12:12Z</time>
      </trkpt>
      <trkpt lat="46.00458" lon="4.76094">
        <ele>227</ele>
        <time>2018-05-09T10:12:13Z</time>
      </trkpt>
      <trkpt lat="46.0045" lon="4.76087">
        <ele>227</ele>
        <time>2018-05-09T10:12:14Z</time>
      </trkpt>
      <trkpt lat="46.00442" lon="4.76083">
        <ele>224</ele>
        <time>2018-05-09T10:12:15Z</time>
      </trkpt>
      <trkpt lat="46.00435" lon="4.76079">
        <ele>224</ele>
        <time>2018-05-09T10:12:16Z</time>
      </trkpt>
      <trkpt lat="46.00426" lon="4.76078">
        <ele>225</ele>
        <time>2018-05-09T10:12:17Z</time>
      </trkpt>
      <trkpt lat="46.00419" lon="4.76074">
        <ele>225</ele>
        <time>2018-05-09T10:12:18Z</time>
      </trkpt>
      <trkpt lat="46.00411" lon="4.76073">
        <ele>226</ele>
        <time>2018-05-09T10:12:19Z</time>
      </trkpt>
      <trkpt lat="46.00403" lon="4.76073">
        <ele>226</ele>
        <time>2018-05-09T10:12:20Z</time>
      </trkpt>
      <trkpt lat="46.00396" lon="4.76074">
        <ele>226</ele>
        <time>2018-05-09T10:12:21Z</time>
      </trkpt>
      <trkpt lat="46.00388" lon="4.76075">
        <ele>226</ele>
        <time>2018-05-09T10:12:22Z</time>
      </trkpt>
      <trkpt lat="46.00382" lon="4.76075">
        <ele>226</ele>
        <time>2018-05-09T10:12:23Z</time>
      </trkpt>
      <trkpt lat="46.00376" lon="4.76075">
        <ele>226</ele>
        <time>2018-05-09T10:12:24Z</time>
      </trkpt>
      <trkpt lat="46.00373" lon="4.76066">
        <ele>226</ele>
        <time>2018-05-09T10:12:25Z</time>
      </trkpt>
      <trkpt lat="46.0037" lon="4.76057">
        <ele>226</ele>
        <time>2018-05-09T10:12:26Z</time>
      </trkpt>
      <trkpt lat="46.00369" lon="4.76048">
        <ele>226</ele>
        <time>2018-05-09T10:12:27Z</time>
      </trkpt>
      <trkpt lat="46.00374" lon="4.76042">
        <ele>225</ele>
        <time>2018-05-09T10:12:28Z</time>
      </trkpt>
      <trkpt lat="46.00376" lon="4.76034">
        <ele>225</ele>
        <time>2018-05-09T10:12:29Z</time>
      </trkpt>
      <trkpt lat="46.00382" lon="4.76028">
        <ele>225</ele>
        <time>2018-05-09T10:12:30Z</time>
      </trkpt>
      <trkpt lat="46.00392" lon="4.76022">
        <ele>224</ele>
        <time>2018-05-09T10:12:31Z</time>
      </trkpt>
      <trkpt lat="46.00399" lon="4.76017">
        <ele>224</ele>
        <time>2018-05-09T10:12:32Z</time>
      </trkpt>
      <trkpt lat="46.00406" lon="4.7601">
        <ele>223</ele>
        <time>2018-05-09T10:12:33Z</time>
      </trkpt>
      <trkpt lat="46.00413" lon="4.76005">
        <ele>222</ele>
        <time>2018-05-09T10:12:34Z</time>
      </trkpt>
      <trkpt lat="46.00419" lon="4.75999">
        <ele>221</ele>
        <time>2018-05-09T10:12:35Z</time>
      </trkpt>
      <trkpt lat="46.00426" lon="4.75992">
        <ele>220</ele>
        <time>2018-05-09T10:12:36Z</time>
      </trkpt>
      <trkpt lat="46.00433" lon="4.75987">
        <ele>220</ele>
        <time>2018-05-09T10:12:37Z</time>
      </trkpt>
      <trkpt lat="46.00439" lon="4.75982">
        <ele>220</ele>
        <time>2018-05-09T10:12:38Z</time>
      </trkpt>
      <trkpt lat="46.00445" lon="4.75972">
        <ele>219</ele>
        <time>2018-05-09T10:12:39Z</time>
      </trkpt>
      <trkpt lat="46.0045" lon="4.75961">
        <ele>219</ele>
        <time>2018-05-09T10:12:40Z</time>
      </trkpt>
      <trkpt lat="46.00454" lon="4.75951">
        <ele>219</ele>
        <time>2018-05-09T10:12:41Z</time>
      </trkpt>
      <trkpt lat="46.0045" lon="4.75937">
        <ele>218</ele>
        <time>2018-05-09T10:12:42Z</time>
      </trkpt>
      <trkpt lat="46.00452" lon="4.75928">
        <ele>218</ele>
        <time>2018-05-09T10:12:43Z</time>
      </trkpt>
      <trkpt lat="46.00447" lon="4.75917">
        <ele>218</ele>
        <time>2018-05-09T10:12:44Z</time>
      </trkpt>
      <trkpt lat="46.00438" lon="4.75906">
        <ele>217</ele>
        <time>2018-05-09T10:12:45Z</time>
      </trkpt>
      <trkpt lat="46.00433" lon="4.75895">
        <ele>217</ele>
        <time>2018-05-09T10:12:46Z</time>
      </trkpt>
      <trkpt lat="46.00428" lon="4.75885">
        <ele>217</ele>
        <time>2018-05-09T10:12:47Z</time>
      </trkpt>
      <trkpt lat="46.00423" lon="4.75874">
        <ele>217</ele>
        <time>2018-05-09T10:12:48Z</time>
      </trkpt>
      <trkpt lat="46.00417" lon="4.75862">
        <ele>216</ele>
        <time>2018-05-09T10:12:49Z</time>
      </trkpt>
      <trkpt lat="46.00411" lon="4.75852">
        <ele>214</ele>
        <time>2018-05-09T10:12:50Z</time>
      </trkpt>
      <trkpt lat="46.00406" lon="4.7584">
        <ele>214</ele>
        <time>2018-05-09T10:12:51Z</time>
      </trkpt>
      <trkpt lat="46.00399" lon="4.75828">
        <ele>213</ele>
        <time>2018-05-09T10:12:52Z</time>
      </trkpt>
      <trkpt lat="46.00393" lon="4.75817">
        <ele>213</ele>
        <time>2018-05-09T10:12:53Z</time>
      </trkpt>
      <trkpt lat="46.00386" lon="4.75806">
        <ele>213</ele>
        <time>2018-05-09T10:12:54Z</time>
      </trkpt>
      <trkpt lat="46.0038" lon="4.75795">
        <ele>213</ele>
        <time>2018-05-09T10:12:55Z</time>
      </trkpt>
      <trkpt lat="46.00372" lon="4.75781">
        <ele>213</ele>
        <time>2018-05-09T10:12:56Z</time>
      </trkpt>
      <trkpt lat="46.00364" lon="4.75771">
        <ele>212</ele>
        <time>2018-05-09T10:12:57Z</time>
      </trkpt>
      <trkpt lat="46.00358" lon="4.75757">
        <ele>212</ele>
        <time>2018-05-09T10:12:58Z</time>
      </trkpt>
      <trkpt lat="46.00351" lon="4.75747">
        <ele>210</ele>
        <time>2018-05-09T10:12:59Z</time>
      </trkpt>
      <trkpt lat="46.00345" lon="4.75736">
        <ele>210</ele>
        <time>2018-05-09T10:13:00Z</time>
      </trkpt>
      <trkpt lat="46.00338" lon="4.75723">
        <ele>210</ele>
        <time>2018-05-09T10:13:01Z</time>
      </trkpt>
      <trkpt lat="46.0033" lon="4.75715">
        <ele>208</ele>
        <time>2018-05-09T10:13:02Z</time>
      </trkpt>
      <trkpt lat="46.00322" lon="4.75703">
        <ele>208</ele>
        <time>2018-05-09T10:13:03Z</time>
      </trkpt>
      <trkpt lat="46.00316" lon="4.75692">
        <ele>208</ele>
        <time>2018-05-09T10:13:04Z</time>
      </trkpt>
      <trkpt lat="46.00309" lon="4.7568">
        <ele>208</ele>
        <time>2018-05-09T10:13:05Z</time>
      </trkpt>
      <trkpt lat="46.00301" lon="4.75668">
        <ele>208</ele>
        <time>2018-05-09T10:13:06Z</time>
      </trkpt>
      <trkpt lat="46.00294" lon="4.75655">
        <ele>206</ele>
        <time>2018-05-09T10:13:07Z</time>
      </trkpt>
      <trkpt lat="46.00286" lon="4.75644">
        <ele>206</ele>
        <time>2018-05-09T10:13:08Z</time>
      </trkpt>
      <trkpt lat="46.00279" lon="4.75633">
        <ele>206</ele>
        <time>2018-05-09T10:13:09Z</time>
      </trkpt>
      <trkpt lat="46.00271" lon="4.75622">
        <ele>206</ele>
        <time>2018-05-09T10:13:10Z</time>
      </trkpt>
      <trkpt lat="46.00262" lon="4.7561">
        <ele>206</ele>
        <time>2018-05-09T10:13:11Z</time>
      </trkpt>
      <trkpt lat="46.00256" lon="4.75601">
        <ele>205</ele>
        <time>2018-05-09T10:13:12Z</time>
      </trkpt>
      <trkpt lat="46.00248" lon="4.75591">
        <ele>207</ele>
        <time>2018-05-09T10:13:13Z</time>
      </trkpt>
      <trkpt lat="46.00243" lon="4.75582">
        <ele>205</ele>
        <time>2018-05-09T10:13:14Z</time>
      </trkpt>
      <trkpt lat="46.00237" lon="4.75573">
        <ele>205</ele>
        <time>2018-05-09T10:13:15Z</time>
      </trkpt>
      <trkpt lat="46.00232" lon="4.75564">
        <ele>206</ele>
        <time>2018-05-09T10:13:16Z</time>
      </trkpt>
      <trkpt lat="46.00228" lon="4.75552">
        <ele>206</ele>
        <time>2018-05-09T10:13:17Z</time>
      </trkpt>
      <trkpt lat="46.00227" lon="4.75541">
        <ele>205</ele>
        <time>2018-05-09T10:13:18Z</time>
      </trkpt>
      <trkpt lat="46.00225" lon="4.75529">
        <ele>204</ele>
        <time>2018-05-09T10:13:19Z</time>
      </trkpt>
      <trkpt lat="46.00225" lon="4.75517">
        <ele>203</ele>
        <time>2018-05-09T10:13:20Z</time>
      </trkpt>
      <trkpt lat="46.00223" lon="4.75506">
        <ele>203</ele>
        <time>2018-05-09T10:13:21Z</time>
      </trkpt>
      <trkpt lat="46.00222" lon="4.75493">
        <ele>198</ele>
        <time>2018-05-09T10:13:22Z</time>
      </trkpt>
      <trkpt lat="46.00222" lon="4.75481">
        <ele>198</ele>
        <time>2018-05-09T10:13:23Z</time>
      </trkpt>
      <trkpt lat="46.00223" lon="4.75469">
        <ele>197</ele>
        <time>2018-05-09T10:13:24Z</time>
      </trkpt>
      <trkpt lat="46.00222" lon="4.75455">
        <ele>197</ele>
        <time>2018-05-09T10:13:25Z</time>
      </trkpt>
      <trkpt lat="46.00222" lon="4.75443">
        <ele>197</ele>
        <time>2018-05-09T10:13:26Z</time>
      </trkpt>
      <trkpt lat="46.00222" lon="4.75431">
        <ele>196</ele>
        <time>2018-05-09T10:13:27Z</time>
      </trkpt>
      <trkpt lat="46.0022" lon="4.75418">
        <ele>196</ele>
        <time>2018-05-09T10:13:28Z</time>
      </trkpt>
      <trkpt lat="46.00219" lon="4.75405">
        <ele>192</ele>
        <time>2018-05-09T10:13:29Z</time>
      </trkpt>
      <trkpt lat="46.00219" lon="4.75392">
        <ele>192</ele>
        <time>2018-05-09T10:13:30Z</time>
      </trkpt>
      <trkpt lat="46.0022" lon="4.75379">
        <ele>191</ele>
        <time>2018-05-09T10:13:31Z</time>
      </trkpt>
      <trkpt lat="46.0022" lon="4.75366">
        <ele>191</ele>
        <time>2018-05-09T10:13:32Z</time>
      </trkpt>
      <trkpt lat="46.0022" lon="4.75352">
        <ele>190</ele>
        <time>2018-05-09T10:13:33Z</time>
      </trkpt>
      <trkpt lat="46.00221" lon="4.75338">
        <ele>190</ele>
        <time>2018-05-09T10:13:34Z</time>
      </trkpt>
      <trkpt lat="46.00221" lon="4.75324">
        <ele>186</ele>
        <time>2018-05-09T10:13:35Z</time>
      </trkpt>
      <trkpt lat="46.00217" lon="4.75308">
        <ele>186</ele>
        <time>2018-05-09T10:13:36Z</time>
      </trkpt>
      <trkpt lat="46.00217" lon="4.75293">
        <ele>185</ele>
        <time>2018-05-09T10:13:37Z</time>
      </trkpt>
      <trkpt lat="46.00216" lon="4.7528">
        <ele>184</ele>
        <time>2018-05-09T10:13:38Z</time>
      </trkpt>
      <trkpt lat="46.00215" lon="4.75264">
        <ele>184</ele>
        <time>2018-05-09T10:13:39Z</time>
      </trkpt>
      <trkpt lat="46.00214" lon="4.7525">
        <ele>180</ele>
        <time>2018-05-09T10:13:40Z</time>
      </trkpt>
      <trkpt lat="46.00214" lon="4.75234">
        <ele>180</ele>
        <time>2018-05-09T10:13:41Z</time>
      </trkpt>
      <trkpt lat="46.00216" lon="4.75219">
        <ele>180</ele>
        <time>2018-05-09T10:13:42Z</time>
      </trkpt>
      <trkpt lat="46.00215" lon="4.75204">
        <ele>179</ele>
        <time>2018-05-09T10:13:43Z</time>
      </trkpt>
      <trkpt lat="46.00216" lon="4.75189">
        <ele>179</ele>
        <time>2018-05-09T10:13:44Z</time>
      </trkpt>
      <trkpt lat="46.00216" lon="4.75177">
        <ele>179</ele>
        <time>2018-05-09T10:13:45Z</time>
      </trkpt>
      <trkpt lat="46.00215" lon="4.75164">
        <ele>177</ele>
        <time>2018-05-09T10:13:46Z</time>
      </trkpt>
      <trkpt lat="46.00214" lon="4.7515">
        <ele>177</ele>
        <time>2018-05-09T10:13:47Z</time>
      </trkpt>
      <trkpt lat="46.00214" lon="4.75144">
        <ele>177</ele>
        <time>2018-05-09T10:13:48Z</time>
      </trkpt>
      <trkpt lat="46.00213" lon="4.75137">
        <ele>176</ele>
        <time>2018-05-09T10:13:49Z</time>
      </trkpt>
      <trkpt lat="46.00215" lon="4.75131">
        <ele>176</ele>
        <time>2018-05-09T10:13:50Z</time>
      </trkpt>
      <trkpt lat="46.00216" lon="4.75124">
        <ele>176</ele>
        <time>2018-05-09T10:13:51Z</time>
      </trkpt>
      <trkpt lat="46.00212" lon="4.75117">
        <ele>176</ele>
        <time>2018-05-09T10:13:52Z</time>
      </trkpt>
      <trkpt lat="46.00209" lon="4.75113">
        <ele>176</ele>
        <time>2018-05-09T10:13:53Z</time>
      </trkpt>
      <trkpt lat="46.00203" lon="4.75106">
        <ele>176</ele>
        <time>2018-05-09T10:13:55Z</time>
      </trkpt>
      <trkpt lat="46.002" lon="4.75107">
        <ele>176</ele>
        <time>2018-05-09T10:13:56Z</time>
      </trkpt>
      <trkpt lat="46.00191" lon="4.75108">
        <ele>176</ele>
        <time>2018-05-09T10:13:58Z</time>
      </trkpt>
      <trkpt lat="46.00187" lon="4.75108">
        <ele>176</ele>
        <time>2018-05-09T10:13:59Z</time>
      </trkpt>
      <trkpt lat="46.0018" lon="4.75108">
        <ele>176</ele>
        <time>2018-05-09T10:14:00Z</time>
      </trkpt>
      <trkpt lat="46.00172" lon="4.75108">
        <ele>176</ele>
        <time>2018-05-09T10:14:01Z</time>
      </trkpt>
      <trkpt lat="46.00167" lon="4.75108">
        <ele>176</ele>
        <time>2018-05-09T10:14:02Z</time>
      </trkpt>
      <trkpt lat="46.00161" lon="4.75108">
        <ele>175</ele>
        <time>2018-05-09T10:14:03Z</time>
      </trkpt>
      <trkpt lat="46.00155" lon="4.75109">
        <ele>175</ele>
        <time>2018-05-09T10:14:04Z</time>
      </trkpt>
      <trkpt lat="46.00149" lon="4.75111">
        <ele>175</ele>
        <time>2018-05-09T10:14:05Z</time>
      </trkpt>
      <trkpt lat="46.00142" lon="4.75111">
        <ele>175</ele>
        <time>2018-05-09T10:14:06Z</time>
      </trkpt>
      <trkpt lat="46.00137" lon="4.75111">
        <ele>175</ele>
        <time>2018-05-09T10:14:07Z</time>
      </trkpt>
      <trkpt lat="46.0013" lon="4.7511">
        <ele>175</ele>
        <time>2018-05-09T10:14:08Z</time>
      </trkpt>
      <trkpt lat="46.00124" lon="4.7511">
        <ele>175</ele>
        <time>2018-05-09T10:14:09Z</time>
      </trkpt>
      <trkpt lat="46.00117" lon="4.75113">
        <ele>175</ele>
        <time>2018-05-09T10:14:10Z</time>
      </trkpt>
      <trkpt lat="46.0011" lon="4.75112">
        <ele>175</ele>
        <time>2018-05-09T10:14:11Z</time>
      </trkpt>
      <trkpt lat="46.00103" lon="4.75111">
        <ele>175</ele>
        <time>2018-05-09T10:14:12Z</time>
      </trkpt>
      <trkpt lat="46.00097" lon="4.75111">
        <ele>175</ele>
        <time>2018-05-09T10:14:13Z</time>
      </trkpt>
      <trkpt lat="46.00091" lon="4.75109">
        <ele>175</ele>
        <time>2018-05-09T10:14:14Z</time>
      </trkpt>
      <trkpt lat="46.00084" lon="4.75108">
        <ele>174</ele>
        <time>2018-05-09T10:14:15Z</time>
      </trkpt>
      <trkpt lat="46.00077" lon="4.75108">
        <ele>174</ele>
        <time>2018-05-09T10:14:16Z</time>
      </trkpt>
      <trkpt lat="46.00068" lon="4.7511">
        <ele>174</ele>
        <time>2018-05-09T10:14:17Z</time>
      </trkpt>
      <trkpt lat="46.00061" lon="4.75111">
        <ele>174</ele>
        <time>2018-05-09T10:14:18Z</time>
      </trkpt>
      <trkpt lat="46.00054" lon="4.7511">
        <ele>174</ele>
        <time>2018-05-09T10:14:19Z</time>
      </trkpt>
      <trkpt lat="46.00048" lon="4.75113">
        <ele>174</ele>
        <time>2018-05-09T10:14:20Z</time>
      </trkpt>
      <trkpt lat="46.00041" lon="4.75114">
        <ele>174</ele>
        <time>2018-05-09T10:14:21Z</time>
      </trkpt>
      <trkpt lat="46.00036" lon="4.7511">
        <ele>174</ele>
        <time>2018-05-09T10:14:22Z</time>
      </trkpt>
      <trkpt lat="46.00029" lon="4.7511">
        <ele>174</ele>
        <time>2018-05-09T10:14:23Z</time>
      </trkpt>
      <trkpt lat="46.00024" lon="4.7511">
        <ele>174</ele>
        <time>2018-05-09T10:14:24Z</time>
      </trkpt>
      <trkpt lat="46.00016" lon="4.75109">
        <ele>174</ele>
        <time>2018-05-09T10:14:25Z</time>
      </trkpt>
      <trkpt lat="46.00012" lon="4.75107">
        <ele>174</ele>
        <time>2018-05-09T10:14:26Z</time>
      </trkpt>
      <trkpt lat="46.00005" lon="4.75109">
        <ele>174</ele>
        <time>2018-05-09T10:14:27Z</time>
      </trkpt>
      <trkpt lat="45.99999" lon="4.75112">
        <ele>173</ele>
        <time>2018-05-09T10:14:28Z</time>
      </trkpt>
      <trkpt lat="45.99995" lon="4.75116">
        <ele>173</ele>
        <time>2018-05-09T10:14:29Z</time>
      </trkpt>
      <trkpt lat="45.99988" lon="4.75119">
        <ele>173</ele>
        <time>2018-05-09T10:14:30Z</time>
      </trkpt>
      <trkpt lat="45.99981" lon="4.75122">
        <ele>173</ele>
        <time>2018-05-09T10:14:31Z</time>
      </trkpt>
      <trkpt lat="45.99974" lon="4.75125">
        <ele>173</ele>
        <time>2018-05-09T10:14:32Z</time>
      </trkpt>
      <trkpt lat="45.99967" lon="4.75128">
        <ele>173</ele>
        <time>2018-05-09T10:14:33Z</time>
      </trkpt>
      <trkpt lat="45.99961" lon="4.7513">
        <ele>173</ele>
        <time>2018-05-09T10:14:34Z</time>
      </trkpt>
      <trkpt lat="45.99955" lon="4.75132">
        <ele>173</ele>
        <time>2018-05-09T10:14:35Z</time>
      </trkpt>
      <trkpt lat="45.99948" lon="4.75136">
        <ele>173</ele>
        <time>2018-05-09T10:14:36Z</time>
      </trkpt>
      <trkpt lat="45.99942" lon="4.75139">
        <ele>173</ele>
        <time>2018-05-09T10:14:37Z</time>
      </trkpt>
      <trkpt lat="45.99936" lon="4.75143">
        <ele>173</ele>
        <time>2018-05-09T10:14:38Z</time>
      </trkpt>
      <trkpt lat="45.99929" lon="4.75146">
        <ele>173</ele>
        <time>2018-05-09T10:14:39Z</time>
      </trkpt>
      <trkpt lat="45.99923" lon="4.75151">
        <ele>173</ele>
        <time>2018-05-09T10:14:40Z</time>
      </trkpt>
      <trkpt lat="45.99917" lon="4.75155">
        <ele>173</ele>
        <time>2018-05-09T10:14:41Z</time>
      </trkpt>
      <trkpt lat="45.99909" lon="4.7516">
        <ele>173</ele>
        <time>2018-05-09T10:14:42Z</time>
      </trkpt>
      <trkpt lat="45.99902" lon="4.75162">
        <ele>172</ele>
        <time>2018-05-09T10:14:43Z</time>
      </trkpt>
      <trkpt lat="45.99895" lon="4.75164">
        <ele>172</ele>
        <time>2018-05-09T10:14:44Z</time>
      </trkpt>
      <trkpt lat="45.99888" lon="4.75168">
        <ele>174</ele>
        <time>2018-05-09T10:14:45Z</time>
      </trkpt>
      <trkpt lat="45.9988" lon="4.75171">
        <ele>174</ele>
        <time>2018-05-09T10:14:46Z</time>
      </trkpt>
      <trkpt lat="45.99873" lon="4.75173">
        <ele>174</ele>
        <time>2018-05-09T10:14:47Z</time>
      </trkpt>
      <trkpt lat="45.99867" lon="4.75175">
        <ele>174</ele>
        <time>2018-05-09T10:14:48Z</time>
      </trkpt>
      <trkpt lat="45.99861" lon="4.75177">
        <ele>174</ele>
        <time>2018-05-09T10:14:49Z</time>
      </trkpt>
      <trkpt lat="45.99855" lon="4.75179">
        <ele>174</ele>
        <time>2018-05-09T10:14:50Z</time>
      </trkpt>
      <trkpt lat="45.9985" lon="4.75183">
        <ele>174</ele>
        <time>2018-05-09T10:14:51Z</time>
      </trkpt>
      <trkpt lat="45.99844" lon="4.75187">
        <ele>174</ele>
        <time>2018-05-09T10:14:52Z</time>
      </trkpt>
      <trkpt lat="45.99839" lon="4.75189">
        <ele>174</ele>
        <time>2018-05-09T10:14:53Z</time>
      </trkpt>
      <trkpt lat="45.99833" lon="4.75191">
        <ele>174</ele>
        <time>2018-05-09T10:14:54Z</time>
      </trkpt>
      <trkpt lat="45.99827" lon="4.75194">
        <ele>174</ele>
        <time>2018-05-09T10:14:55Z</time>
      </trkpt>
      <trkpt lat="45.99821" lon="4.75196">
        <ele>174</ele>
        <time>2018-05-09T10:14:56Z</time>
      </trkpt>
      <trkpt lat="45.99814" lon="4.75199">
        <ele>174</ele>
        <time>2018-05-09T10:14:57Z</time>
      </trkpt>
      <trkpt lat="45.99807" lon="4.75202">
        <ele>174</ele>
        <time>2018-05-09T10:14:58Z</time>
      </trkpt>
      <trkpt lat="45.998" lon="4.75204">
        <ele>174</ele>
        <time>2018-05-09T10:14:59Z</time>
      </trkpt>
      <trkpt lat="45.99795" lon="4.75207">
        <ele>174</ele>
        <time>2018-05-09T10:15:00Z</time>
      </trkpt>
      <trkpt lat="45.99789" lon="4.75211">
        <ele>174</ele>
        <time>2018-05-09T10:15:01Z</time>
      </trkpt>
      <trkpt lat="45.99784" lon="4.75215">
        <ele>174</ele>
        <time>2018-05-09T10:15:02Z</time>
      </trkpt>
      <trkpt lat="45.99777" lon="4.75218">
        <ele>175</ele>
        <time>2018-05-09T10:15:03Z</time>
      </trkpt>
      <trkpt lat="45.9977" lon="4.75221">
        <ele>175</ele>
        <time>2018-05-09T10:15:04Z</time>
      </trkpt>
      <trkpt lat="45.99766" lon="4.7522">
        <ele>175</ele>
        <time>2018-05-09T10:15:05Z</time>
      </trkpt>
      <trkpt lat="45.9976" lon="4.75223">
        <ele>175</ele>
        <time>2018-05-09T10:15:06Z</time>
      </trkpt>
      <trkpt lat="45.99754" lon="4.75225">
        <ele>175</ele>
        <time>2018-05-09T10:15:07Z</time>
      </trkpt>
      <trkpt lat="45.99747" lon="4.75228">
        <ele>175</ele>
        <time>2018-05-09T10:15:08Z</time>
      </trkpt>
      <trkpt lat="45.99739" lon="4.75232">
        <ele>175</ele>
        <time>2018-05-09T10:15:09Z</time>
      </trkpt>
      <trkpt lat="45.99733" lon="4.75236">
        <ele>175</ele>
        <time>2018-05-09T10:15:10Z</time>
      </trkpt>
      <trkpt lat="45.99729" lon="4.75239">
        <ele>175</ele>
        <time>2018-05-09T10:15:11Z</time>
      </trkpt>
      <trkpt lat="45.99723" lon="4.75242">
        <ele>174</ele>
        <time>2018-05-09T10:15:12Z</time>
      </trkpt>
      <trkpt lat="45.99717" lon="4.75245">
        <ele>174</ele>
        <time>2018-05-09T10:15:13Z</time>
      </trkpt>
      <trkpt lat="45.99711" lon="4.7525">
        <ele>176</ele>
        <time>2018-05-09T10:15:14Z</time>
      </trkpt>
      <trkpt lat="45.99705" lon="4.75253">
        <ele>176</ele>
        <time>2018-05-09T10:15:15Z</time>
      </trkpt>
      <trkpt lat="45.99699" lon="4.75256">
        <ele>176</ele>
        <time>2018-05-09T10:15:16Z</time>
      </trkpt>
      <trkpt lat="45.99693" lon="4.75258">
        <ele>176</ele>
        <time>2018-05-09T10:15:17Z</time>
      </trkpt>
      <trkpt lat="45.99687" lon="4.75262">
        <ele>176</ele>
        <time>2018-05-09T10:15:18Z</time>
      </trkpt>
      <trkpt lat="45.99682" lon="4.75266">
        <ele>175</ele>
        <time>2018-05-09T10:15:19Z</time>
      </trkpt>
      <trkpt lat="45.99677" lon="4.75267">
        <ele>175</ele>
        <time>2018-05-09T10:15:20Z</time>
      </trkpt>
      <trkpt lat="45.99671" lon="4.75269">
        <ele>175</ele>
        <time>2018-05-09T10:15:21Z</time>
      </trkpt>
      <trkpt lat="45.99666" lon="4.75271">
        <ele>174</ele>
        <time>2018-05-09T10:15:22Z</time>
      </trkpt>
      <trkpt lat="45.9966" lon="4.75273">
        <ele>174</ele>
        <time>2018-05-09T10:15:23Z</time>
      </trkpt>
      <trkpt lat="45.99654" lon="4.75276">
        <ele>174</ele>
        <time>2018-05-09T10:15:24Z</time>
      </trkpt>
      <trkpt lat="45.99649" lon="4.75276">
        <ele>174</ele>
        <time>2018-05-09T10:15:25Z</time>
      </trkpt>
      <trkpt lat="45.99643" lon="4.75275">
        <ele>174</ele>
        <time>2018-05-09T10:15:26Z</time>
      </trkpt>
      <trkpt lat="45.99639" lon="4.75274">
        <ele>174</ele>
        <time>2018-05-09T10:15:27Z</time>
      </trkpt>
      <trkpt lat="45.99635" lon="4.7527">
        <ele>174</ele>
        <time>2018-05-09T10:15:28Z</time>
      </trkpt>
      <trkpt lat="45.9963" lon="4.7527">
        <ele>174</ele>
        <time>2018-05-09T10:15:29Z</time>
      </trkpt>
      <trkpt lat="45.99621" lon="4.7527">
        <ele>174</ele>
        <time>2018-05-09T10:15:31Z</time>
      </trkpt>
      <trkpt lat="45.99618" lon="4.75272">
        <ele>174</ele>
        <time>2018-05-09T10:15:32Z</time>
      </trkpt>
      <trkpt lat="45.99614" lon="4.75272">
        <ele>174</ele>
        <time>2018-05-09T10:15:33Z</time>
      </trkpt>
      <trkpt lat="45.99608" lon="4.75274">
        <ele>173</ele>
        <time>2018-05-09T10:15:34Z</time>
      </trkpt>
      <trkpt lat="45.996" lon="4.75276">
        <ele>173</ele>
        <time>2018-05-09T10:15:36Z</time>
      </trkpt>
      <trkpt lat="45.99596" lon="4.75277">
        <ele>173</ele>
        <time>2018-05-09T10:15:37Z</time>
      </trkpt>
      <trkpt lat="45.99592" lon="4.75275">
        <ele>173</ele>
        <time>2018-05-09T10:15:38Z</time>
      </trkpt>
      <trkpt lat="45.99587" lon="4.75272">
        <ele>173</ele>
        <time>2018-05-09T10:15:39Z</time>
      </trkpt>
      <trkpt lat="45.99583" lon="4.75269">
        <ele>172</ele>
        <time>2018-05-09T10:15:40Z</time>
      </trkpt>
      <trkpt lat="45.99578" lon="4.75268">
        <ele>172</ele>
        <time>2018-05-09T10:15:41Z</time>
      </trkpt>
      <trkpt lat="45.99572" lon="4.75267">
        <ele>172</ele>
        <time>2018-05-09T10:15:42Z</time>
      </trkpt>
      <trkpt lat="45.99568" lon="4.75268">
        <ele>172</ele>
        <time>2018-05-09T10:15:43Z</time>
      </trkpt>
      <trkpt lat="45.99563" lon="4.7527">
        <ele>172</ele>
        <time>2018-05-09T10:15:44Z</time>
      </trkpt>
      <trkpt lat="45.99558" lon="4.75273">
        <ele>172</ele>
        <time>2018-05-09T10:15:45Z</time>
      </trkpt>
      <trkpt lat="45.99554" lon="4.75278">
        <ele>172</ele>
        <time>2018-05-09T10:15:46Z</time>
      </trkpt>
      <trkpt lat="45.99549" lon="4.75283">
        <ele>172</ele>
        <time>2018-05-09T10:15:47Z</time>
      </trkpt>
      <trkpt lat="45.99544" lon="4.75289">
        <ele>172</ele>
        <time>2018-05-09T10:15:48Z</time>
      </trkpt>
      <trkpt lat="45.9954" lon="4.75293">
        <ele>172</ele>
        <time>2018-05-09T10:15:49Z</time>
      </trkpt>
      <trkpt lat="45.99535" lon="4.75297">
        <ele>172</ele>
        <time>2018-05-09T10:15:50Z</time>
      </trkpt>
      <trkpt lat="45.99529" lon="4.75299">
        <ele>172</ele>
        <time>2018-05-09T10:15:51Z</time>
      </trkpt>
      <trkpt lat="45.99522" lon="4.753">
        <ele>172</ele>
        <time>2018-05-09T10:15:52Z</time>
      </trkpt>
      <trkpt lat="45.99516" lon="4.75302">
        <ele>172</ele>
        <time>2018-05-09T10:15:53Z</time>
      </trkpt>
      <trkpt lat="45.9951" lon="4.75304">
        <ele>172</ele>
        <time>2018-05-09T10:15:54Z</time>
      </trkpt>
      <trkpt lat="45.99504" lon="4.75305">
        <ele>172</ele>
        <time>2018-05-09T10:15:55Z</time>
      </trkpt>
      <trkpt lat="45.99497" lon="4.75306">
        <ele>171</ele>
        <time>2018-05-09T10:15:56Z</time>
      </trkpt>
      <trkpt lat="45.9949" lon="4.75307">
        <ele>171</ele>
        <time>2018-05-09T10:15:57Z</time>
      </trkpt>
      <trkpt lat="45.99484" lon="4.75307">
        <ele>171</ele>
        <time>2018-05-09T10:15:58Z</time>
      </trkpt>
      <trkpt lat="45.99477" lon="4.75309">
        <ele>171</ele>
        <time>2018-05-09T10:15:59Z</time>
      </trkpt>
      <trkpt lat="45.99469" lon="4.75311">
        <ele>171</ele>
        <time>2018-05-09T10:16:00Z</time>
      </trkpt>
      <trkpt lat="45.99462" lon="4.75312">
        <ele>171</ele>
        <time>2018-05-09T10:16:01Z</time>
      </trkpt>
      <trkpt lat="45.99456" lon="4.75316">
        <ele>171</ele>
        <time>2018-05-09T10:16:02Z</time>
      </trkpt>
      <trkpt lat="45.99448" lon="4.75318">
        <ele>171</ele>
        <time>2018-05-09T10:16:03Z</time>
      </trkpt>
      <trkpt lat="45.99441" lon="4.7532">
        <ele>171</ele>
        <time>2018-05-09T10:16:04Z</time>
      </trkpt>
      <trkpt lat="45.99435" lon="4.75321">
        <ele>171</ele>
        <time>2018-05-09T10:16:05Z</time>
      </trkpt>
      <trkpt lat="45.99428" lon="4.75322">
        <ele>171</ele>
        <time>2018-05-09T10:16:06Z</time>
      </trkpt>
      <trkpt lat="45.99419" lon="4.75323">
        <ele>170</ele>
        <time>2018-05-09T10:16:07Z</time>
      </trkpt>
      <trkpt lat="45.99412" lon="4.75325">
        <ele>170</ele>
        <time>2018-05-09T10:16:08Z</time>
      </trkpt>
      <trkpt lat="45.99404" lon="4.75327">
        <ele>170</ele>
        <time>2018-05-09T10:16:09Z</time>
      </trkpt>
      <trkpt lat="45.99398" lon="4.7533">
        <ele>170</ele>
        <time>2018-05-09T10:16:10Z</time>
      </trkpt>
      <trkpt lat="45.99391" lon="4.75334">
        <ele>171</ele>
        <time>2018-05-09T10:16:11Z</time>
      </trkpt>
      <trkpt lat="45.99384" lon="4.75339">
        <ele>171</ele>
        <time>2018-05-09T10:16:12Z</time>
      </trkpt>
      <trkpt lat="45.99378" lon="4.75344">
        <ele>172</ele>
        <time>2018-05-09T10:16:13Z</time>
      </trkpt>
      <trkpt lat="45.99373" lon="4.7535">
        <ele>172</ele>
        <time>2018-05-09T10:16:14Z</time>
      </trkpt>
      <trkpt lat="45.99368" lon="4.75357">
        <ele>172</ele>
        <time>2018-05-09T10:16:15Z</time>
      </trkpt>
      <trkpt lat="45.99364" lon="4.75366">
        <ele>172</ele>
        <time>2018-05-09T10:16:16Z</time>
      </trkpt>
      <trkpt lat="45.99359" lon="4.75373">
        <ele>172</ele>
        <time>2018-05-09T10:16:17Z</time>
      </trkpt>
      <trkpt lat="45.99355" lon="4.75381">
        <ele>172</ele>
        <time>2018-05-09T10:16:18Z</time>
      </trkpt>
      <trkpt lat="45.99351" lon="4.75389">
        <ele>172</ele>
        <time>2018-05-09T10:16:19Z</time>
      </trkpt>
      <trkpt lat="45.99348" lon="4.75397">
        <ele>173</ele>
        <time>2018-05-09T10:16:20Z</time>
      </trkpt>
      <trkpt lat="45.99343" lon="4.75404">
        <ele>173</ele>
        <time>2018-05-09T10:16:21Z</time>
      </trkpt>
      <trkpt lat="45.99339" lon="4.75411">
        <ele>173</ele>
        <time>2018-05-09T10:16:22Z</time>
      </trkpt>
      <trkpt lat="45.99338" lon="4.75419">
        <ele>174</ele>
        <time>2018-05-09T10:16:23Z</time>
      </trkpt>
      <trkpt lat="45.99336" lon="4.75429">
        <ele>175</ele>
        <time>2018-05-09T10:16:24Z</time>
      </trkpt>
      <trkpt lat="45.99335" lon="4.75436">
        <ele>175</ele>
        <time>2018-05-09T10:16:25Z</time>
      </trkpt>
      <trkpt lat="45.99333" lon="4.75446">
        <ele>173</ele>
        <time>2018-05-09T10:16:26Z</time>
      </trkpt>
      <trkpt lat="45.9933" lon="4.75455">
        <ele>174</ele>
        <time>2018-05-09T10:16:27Z</time>
      </trkpt>
      <trkpt lat="45.99327" lon="4.75464">
        <ele>174</ele>
        <time>2018-05-09T10:16:28Z</time>
      </trkpt>
      <trkpt lat="45.99323" lon="4.75473">
        <ele>174</ele>
        <time>2018-05-09T10:16:29Z</time>
      </trkpt>
      <trkpt lat="45.99319" lon="4.75478">
        <ele>174</ele>
        <time>2018-05-09T10:16:30Z</time>
      </trkpt>
      <trkpt lat="45.99315" lon="4.75486">
        <ele>175</ele>
        <time>2018-05-09T10:16:31Z</time>
      </trkpt>
      <trkpt lat="45.99311" lon="4.75492">
        <ele>175</ele>
        <time>2018-05-09T10:16:32Z</time>
      </trkpt>
      <trkpt lat="45.99308" lon="4.75503">
        <ele>177</ele>
        <time>2018-05-09T10:16:33Z</time>
      </trkpt>
      <trkpt lat="45.99303" lon="4.75512">
        <ele>177</ele>
        <time>2018-05-09T10:16:34Z</time>
      </trkpt>
      <trkpt lat="45.99297" lon="4.75518">
        <ele>177</ele>
        <time>2018-05-09T10:16:35Z</time>
      </trkpt>
      <trkpt lat="45.99293" lon="4.75522">
        <ele>177</ele>
        <time>2018-05-09T10:16:36Z</time>
      </trkpt>
      <trkpt lat="45.99288" lon="4.75528">
        <ele>177</ele>
        <time>2018-05-09T10:16:37Z</time>
      </trkpt>
      <trkpt lat="45.99281" lon="4.75531">
        <ele>176</ele>
        <time>2018-05-09T10:16:38Z</time>
      </trkpt>
      <trkpt lat="45.99275" lon="4.75536">
        <ele>176</ele>
        <time>2018-05-09T10:16:39Z</time>
      </trkpt>
      <trkpt lat="45.99269" lon="4.7554">
        <ele>176</ele>
        <time>2018-05-09T10:16:40Z</time>
      </trkpt>
      <trkpt lat="45.99263" lon="4.75544">
        <ele>176</ele>
        <time>2018-05-09T10:16:41Z</time>
      </trkpt>
      <trkpt lat="45.99258" lon="4.75548">
        <ele>177</ele>
        <time>2018-05-09T10:16:42Z</time>
      </trkpt>
      <trkpt lat="45.99253" lon="4.75551">
        <ele>177</ele>
        <time>2018-05-09T10:16:43Z</time>
      </trkpt>
      <trkpt lat="45.99247" lon="4.75555">
        <ele>175</ele>
        <time>2018-05-09T10:16:44Z</time>
      </trkpt>
      <trkpt lat="45.9924" lon="4.75559">
        <ele>175</ele>
        <time>2018-05-09T10:16:45Z</time>
      </trkpt>
      <trkpt lat="45.99234" lon="4.75563">
        <ele>175</ele>
        <time>2018-05-09T10:16:46Z</time>
      </trkpt>
      <trkpt lat="45.99228" lon="4.75567">
        <ele>175</ele>
        <time>2018-05-09T10:16:47Z</time>
      </trkpt>
      <trkpt lat="45.99222" lon="4.7557">
        <ele>175</ele>
        <time>2018-05-09T10:16:48Z</time>
      </trkpt>
      <trkpt lat="45.99216" lon="4.75574">
        <ele>175</ele>
        <time>2018-05-09T10:16:49Z</time>
      </trkpt>
      <trkpt lat="45.99211" lon="4.75577">
        <ele>175</ele>
        <time>2018-05-09T10:16:50Z</time>
      </trkpt>
      <trkpt lat="45.99206" lon="4.7558">
        <ele>175</ele>
        <time>2018-05-09T10:16:51Z</time>
      </trkpt>
      <trkpt lat="45.99201" lon="4.75585">
        <ele>178</ele>
        <time>2018-05-09T10:16:52Z</time>
      </trkpt>
      <trkpt lat="45.99196" lon="4.75588">
        <ele>178</ele>
        <time>2018-05-09T10:16:53Z</time>
      </trkpt>
      <trkpt lat="45.9919" lon="4.75592">
        <ele>178</ele>
        <time>2018-05-09T10:16:54Z</time>
      </trkpt>
      <trkpt lat="45.99185" lon="4.75595">
        <ele>177</ele>
        <time>2018-05-09T10:16:55Z</time>
      </trkpt>
      <trkpt lat="45.99179" lon="4.75596">
        <ele>177</ele>
        <time>2018-05-09T10:16:56Z</time>
      </trkpt>
      <trkpt lat="45.99172" lon="4.756">
        <ele>177</ele>
        <time>2018-05-09T10:16:57Z</time>
      </trkpt>
      <trkpt lat="45.99167" lon="4.75602">
        <ele>177</ele>
        <time>2018-05-09T10:16:58Z</time>
      </trkpt>
      <trkpt lat="45.99162" lon="4.75605">
        <ele>176</ele>
        <time>2018-05-09T10:16:59Z</time>
      </trkpt>
      <trkpt lat="45.99157" lon="4.75608">
        <ele>176</ele>
        <time>2018-05-09T10:17:00Z</time>
      </trkpt>
      <trkpt lat="45.99151" lon="4.7561">
        <ele>177</ele>
        <time>2018-05-09T10:17:01Z</time>
      </trkpt>
      <trkpt lat="45.99146" lon="4.75612">
        <ele>177</ele>
        <time>2018-05-09T10:17:02Z</time>
      </trkpt>
      <trkpt lat="45.99141" lon="4.75613">
        <ele>177</ele>
        <time>2018-05-09T10:17:03Z</time>
      </trkpt>
      <trkpt lat="45.99135" lon="4.75611">
        <ele>177</ele>
        <time>2018-05-09T10:17:04Z</time>
      </trkpt>
      <trkpt lat="45.9913" lon="4.75614">
        <ele>177</ele>
        <time>2018-05-09T10:17:05Z</time>
      </trkpt>
      <trkpt lat="45.99124" lon="4.75618">
        <ele>177</ele>
        <time>2018-05-09T10:17:06Z</time>
      </trkpt>
      <trkpt lat="45.99122" lon="4.75625">
        <ele>177</ele>
        <time>2018-05-09T10:17:07Z</time>
      </trkpt>
      <trkpt lat="45.99118" lon="4.75632">
        <ele>177</ele>
        <time>2018-05-09T10:17:08Z</time>
      </trkpt>
      <trkpt lat="45.99113" lon="4.75639">
        <ele>178</ele>
        <time>2018-05-09T10:17:09Z</time>
      </trkpt>
      <trkpt lat="45.99109" lon="4.75644">
        <ele>178</ele>
        <time>2018-05-09T10:17:10Z</time>
      </trkpt>
      <trkpt lat="45.99104" lon="4.7565">
        <ele>178</ele>
        <time>2018-05-09T10:17:11Z</time>
      </trkpt>
      <trkpt lat="45.99098" lon="4.75654">
        <ele>178</ele>
        <time>2018-05-09T10:17:12Z</time>
      </trkpt>
      <trkpt lat="45.99091" lon="4.75656">
        <ele>179</ele>
        <time>2018-05-09T10:17:13Z</time>
      </trkpt>
      <trkpt lat="45.99085" lon="4.75658">
        <ele>179</ele>
        <time>2018-05-09T10:17:14Z</time>
      </trkpt>
      <trkpt lat="45.99079" lon="4.7566">
        <ele>179</ele>
        <time>2018-05-09T10:17:15Z</time>
      </trkpt>
      <trkpt lat="45.99073" lon="4.75659">
        <ele>179</ele>
        <time>2018-05-09T10:17:16Z</time>
      </trkpt>
      <trkpt lat="45.99066" lon="4.75659">
        <ele>178</ele>
        <time>2018-05-09T10:17:17Z</time>
      </trkpt>
      <trkpt lat="45.99059" lon="4.7566">
        <ele>178</ele>
        <time>2018-05-09T10:17:18Z</time>
      </trkpt>
      <trkpt lat="45.99052" lon="4.75659">
        <ele>178</ele>
        <time>2018-05-09T10:17:19Z</time>
      </trkpt>
      <trkpt lat="45.99046" lon="4.75658">
        <ele>178</ele>
        <time>2018-05-09T10:17:20Z</time>
      </trkpt>
      <trkpt lat="45.9904" lon="4.75664">
        <ele>178</ele>
        <time>2018-05-09T10:17:21Z</time>
      </trkpt>
      <trkpt lat="45.99033" lon="4.75664">
        <ele>178</ele>
        <time>2018-05-09T10:17:22Z</time>
      </trkpt>
      <trkpt lat="45.99026" lon="4.75665">
        <ele>178</ele>
        <time>2018-05-09T10:17:23Z</time>
      </trkpt>
      <trkpt lat="45.99019" lon="4.75665">
        <ele>178</ele>
        <time>2018-05-09T10:17:24Z</time>
      </trkpt>
      <trkpt lat="45.99011" lon="4.75665">
        <ele>179</ele>
        <time>2018-05-09T10:17:25Z</time>
      </trkpt>
      <trkpt lat="45.99005" lon="4.75666">
        <ele>179</ele>
        <time>2018-05-09T10:17:26Z</time>
      </trkpt>
      <trkpt lat="45.98998" lon="4.75666">
        <ele>180</ele>
        <time>2018-05-09T10:17:27Z</time>
      </trkpt>
      <trkpt lat="45.98991" lon="4.75665">
        <ele>179</ele>
        <time>2018-05-09T10:17:28Z</time>
      </trkpt>
      <trkpt lat="45.98984" lon="4.75666">
        <ele>178</ele>
        <time>2018-05-09T10:17:29Z</time>
      </trkpt>
      <trkpt lat="45.98977" lon="4.75667">
        <ele>181</ele>
        <time>2018-05-09T10:17:30Z</time>
      </trkpt>
      <trkpt lat="45.98971" lon="4.75668">
        <ele>181</ele>
        <time>2018-05-09T10:17:31Z</time>
      </trkpt>
      <trkpt lat="45.98965" lon="4.75669">
        <ele>181</ele>
        <time>2018-05-09T10:17:32Z</time>
      </trkpt>
      <trkpt lat="45.98958" lon="4.75671">
        <ele>181</ele>
        <time>2018-05-09T10:17:33Z</time>
      </trkpt>
      <trkpt lat="45.98951" lon="4.75673">
        <ele>181</ele>
        <time>2018-05-09T10:17:34Z</time>
      </trkpt>
      <trkpt lat="45.98945" lon="4.75676">
        <ele>181</ele>
        <time>2018-05-09T10:17:35Z</time>
      </trkpt>
      <trkpt lat="45.98938" lon="4.75679">
        <ele>180</ele>
        <time>2018-05-09T10:17:36Z</time>
      </trkpt>
      <trkpt lat="45.98932" lon="4.75682">
        <ele>180</ele>
        <time>2018-05-09T10:17:37Z</time>
      </trkpt>
      <trkpt lat="45.98926" lon="4.75685">
        <ele>180</ele>
        <time>2018-05-09T10:17:38Z</time>
      </trkpt>
      <trkpt lat="45.9892" lon="4.75688">
        <ele>180</ele>
        <time>2018-05-09T10:17:39Z</time>
      </trkpt>
      <trkpt lat="45.98915" lon="4.7569">
        <ele>179</ele>
        <time>2018-05-09T10:17:40Z</time>
      </trkpt>
      <trkpt lat="45.98908" lon="4.75693">
        <ele>179</ele>
        <time>2018-05-09T10:17:41Z</time>
      </trkpt>
      <trkpt lat="45.98903" lon="4.75696">
        <ele>180</ele>
        <time>2018-05-09T10:17:42Z</time>
      </trkpt>
      <trkpt lat="45.98896" lon="4.75697">
        <ele>180</ele>
        <time>2018-05-09T10:17:43Z</time>
      </trkpt>
      <trkpt lat="45.9889" lon="4.757">
        <ele>180</ele>
        <time>2018-05-09T10:17:44Z</time>
      </trkpt>
      <trkpt lat="45.98884" lon="4.75702">
        <ele>180</ele>
        <time>2018-05-09T10:17:45Z</time>
      </trkpt>
      <trkpt lat="45.98878" lon="4.75704">
        <ele>180</ele>
        <time>2018-05-09T10:17:46Z</time>
      </trkpt>
      <trkpt lat="45.98871" lon="4.75706">
        <ele>180</ele>
        <time>2018-05-09T10:17:47Z</time>
      </trkpt>
      <trkpt lat="45.98867" lon="4.75709">
        <ele>180</ele>
        <time>2018-05-09T10:17:48Z</time>
      </trkpt>
      <trkpt lat="45.9886" lon="4.75709">
        <ele>180</ele>
        <time>2018-05-09T10:17:49Z</time>
      </trkpt>
      <trkpt lat="45.98856" lon="4.7571">
        <ele>180</ele>
        <time>2018-05-09T10:17:50Z</time>
      </trkpt>
      <trkpt lat="45.9885" lon="4.75711">
        <ele>180</ele>
        <time>2018-05-09T10:17:51Z</time>
      </trkpt>
      <trkpt lat="45.98845" lon="4.75712">
        <ele>180</ele>
        <time>2018-05-09T10:17:52Z</time>
      </trkpt>
      <trkpt lat="45.98838" lon="4.75713">
        <ele>180</ele>
        <time>2018-05-09T10:17:53Z</time>
      </trkpt>
      <trkpt lat="45.98832" lon="4.75715">
        <ele>179</ele>
        <time>2018-05-09T10:17:54Z</time>
      </trkpt>
      <trkpt lat="45.98826" lon="4.75716">
        <ele>179</ele>
        <time>2018-05-09T10:17:55Z</time>
      </trkpt>
      <trkpt lat="45.98819" lon="4.75715">
        <ele>179</ele>
        <time>2018-05-09T10:17:56Z</time>
      </trkpt>
      <trkpt lat="45.98812" lon="4.75718">
        <ele>179</ele>
        <time>2018-05-09T10:17:57Z</time>
      </trkpt>
      <trkpt lat="45.98808" lon="4.7572">
        <ele>179</ele>
        <time>2018-05-09T10:17:58Z</time>
      </trkpt>
      <trkpt lat="45.98802" lon="4.7572">
        <ele>179</ele>
        <time>2018-05-09T10:17:59Z</time>
      </trkpt>
      <trkpt lat="45.98796" lon="4.75722">
        <ele>179</ele>
        <time>2018-05-09T10:18:00Z</time>
      </trkpt>
      <trkpt lat="45.9879" lon="4.75722">
        <ele>178</ele>
        <time>2018-05-09T10:18:01Z</time>
      </trkpt>
      <trkpt lat="45.98784" lon="4.75722">
        <ele>178</ele>
        <time>2018-05-09T10:18:02Z</time>
      </trkpt>
      <trkpt lat="45.98779" lon="4.75721">
        <ele>178</ele>
        <time>2018-05-09T10:18:03Z</time>
      </trkpt>
      <trkpt lat="45.98776" lon="4.75717">
        <ele>178</ele>
        <time>2018-05-09T10:18:04Z</time>
      </trkpt>
      <trkpt lat="45.98769" lon="4.75719">
        <ele>178</ele>
        <time>2018-05-09T10:18:05Z</time>
      </trkpt>
      <trkpt lat="45.98761" lon="4.75723">
        <ele>178</ele>
        <time>2018-05-09T10:18:07Z</time>
      </trkpt>
      <trkpt lat="45.9876" lon="4.75724">
        <ele>178</ele>
        <time>2018-05-09T10:18:08Z</time>
      </trkpt>
      <trkpt lat="45.98761" lon="4.75737">
        <ele>178</ele>
        <time>2018-05-09T10:18:10Z</time>
      </trkpt>
      <trkpt lat="45.98759" lon="4.75747">
        <ele>178</ele>
        <time>2018-05-09T10:18:11Z</time>
      </trkpt>
      <trkpt lat="45.98759" lon="4.75758">
        <ele>179</ele>
        <time>2018-05-09T10:18:13Z</time>
      </trkpt>
      <trkpt lat="45.9876" lon="4.75769">
        <ele>179</ele>
        <time>2018-05-09T10:18:14Z</time>
      </trkpt>
      <trkpt lat="45.98759" lon="4.75777">
        <ele>179</ele>
        <time>2018-05-09T10:18:15Z</time>
      </trkpt>
      <trkpt lat="45.98757" lon="4.75784">
        <ele>179</ele>
        <time>2018-05-09T10:18:16Z</time>
      </trkpt>
      <trkpt lat="45.98757" lon="4.7579">
        <ele>179</ele>
        <time>2018-05-09T10:18:17Z</time>
      </trkpt>
      <trkpt lat="45.98756" lon="4.75798">
        <ele>179</ele>
        <time>2018-05-09T10:18:18Z</time>
      </trkpt>
      <trkpt lat="45.98755" lon="4.75805">
        <ele>179</ele>
        <time>2018-05-09T10:18:19Z</time>
      </trkpt>
      <trkpt lat="45.98754" lon="4.75812">
        <ele>179</ele>
        <time>2018-05-09T10:18:20Z</time>
      </trkpt>
      <trkpt lat="45.98753" lon="4.7582">
        <ele>179</ele>
        <time>2018-05-09T10:18:21Z</time>
      </trkpt>
      <trkpt lat="45.98752" lon="4.75827">
        <ele>178</ele>
        <time>2018-05-09T10:18:22Z</time>
      </trkpt>
      <trkpt lat="45.98751" lon="4.75834">
        <ele>178</ele>
        <time>2018-05-09T10:18:23Z</time>
      </trkpt>
      <trkpt lat="45.9875" lon="4.75842">
        <ele>178</ele>
        <time>2018-05-09T10:18:24Z</time>
      </trkpt>
      <trkpt lat="45.98749" lon="4.75849">
        <ele>178</ele>
        <time>2018-05-09T10:18:25Z</time>
      </trkpt>
      <trkpt lat="45.98749" lon="4.75859">
        <ele>179</ele>
        <time>2018-05-09T10:18:26Z</time>
      </trkpt>
      <trkpt lat="45.98747" lon="4.75866">
        <ele>179</ele>
        <time>2018-05-09T10:18:27Z</time>
      </trkpt>
      <trkpt lat="45.98745" lon="4.75873">
        <ele>179</ele>
        <time>2018-05-09T10:18:28Z</time>
      </trkpt>
      <trkpt lat="45.98743" lon="4.7588">
        <ele>179</ele>
        <time>2018-05-09T10:18:29Z</time>
      </trkpt>
      <trkpt lat="45.98742" lon="4.75887">
        <ele>179</ele>
        <time>2018-05-09T10:18:30Z</time>
      </trkpt>
      <trkpt lat="45.98741" lon="4.75894">
        <ele>179</ele>
        <time>2018-05-09T10:18:31Z</time>
      </trkpt>
      <trkpt lat="45.98741" lon="4.75906">
        <ele>180</ele>
        <time>2018-05-09T10:18:32Z</time>
      </trkpt>
      <trkpt lat="45.98737" lon="4.75918">
        <ele>180</ele>
        <time>2018-05-09T10:18:34Z</time>
      </trkpt>
      <trkpt lat="45.98738" lon="4.75924">
        <ele>180</ele>
        <time>2018-05-09T10:18:35Z</time>
      </trkpt>
      <trkpt lat="45.98737" lon="4.75931">
        <ele>180</ele>
        <time>2018-05-09T10:18:36Z</time>
      </trkpt>
      <trkpt lat="45.98735" lon="4.75937">
        <ele>180</ele>
        <time>2018-05-09T10:18:37Z</time>
      </trkpt>
      <trkpt lat="45.98735" lon="4.75943">
        <ele>180</ele>
        <time>2018-05-09T10:18:38Z</time>
      </trkpt>
      <trkpt lat="45.98734" lon="4.7595">
        <ele>180</ele>
        <time>2018-05-09T10:18:39Z</time>
      </trkpt>
      <trkpt lat="45.98734" lon="4.75957">
        <ele>180</ele>
        <time>2018-05-09T10:18:40Z</time>
      </trkpt>
      <trkpt lat="45.98734" lon="4.75967">
        <ele>181</ele>
        <time>2018-05-09T10:18:41Z</time>
      </trkpt>
      <trkpt lat="45.98733" lon="4.75974">
        <ele>181</ele>
        <time>2018-05-09T10:18:42Z</time>
      </trkpt>
      <trkpt lat="45.98731" lon="4.75982">
        <ele>181</ele>
        <time>2018-05-09T10:18:43Z</time>
      </trkpt>
      <trkpt lat="45.9873" lon="4.7599">
        <ele>181</ele>
        <time>2018-05-09T10:18:44Z</time>
      </trkpt>
      <trkpt lat="45.9873" lon="4.75998">
        <ele>181</ele>
        <time>2018-05-09T10:18:45Z</time>
      </trkpt>
      <trkpt lat="45.98729" lon="4.76006">
        <ele>181</ele>
        <time>2018-05-09T10:18:46Z</time>
      </trkpt>
      <trkpt lat="45.98729" lon="4.76013">
        <ele>181</ele>
        <time>2018-05-09T10:18:47Z</time>
      </trkpt>
      <trkpt lat="45.98729" lon="4.76022">
        <ele>182</ele>
        <time>2018-05-09T10:18:48Z</time>
      </trkpt>
      <trkpt lat="45.98728" lon="4.76027">
        <ele>182</ele>
        <time>2018-05-09T10:18:49Z</time>
      </trkpt>
      <trkpt lat="45.98728" lon="4.76034">
        <ele>182</ele>
        <time>2018-05-09T10:18:50Z</time>
      </trkpt>
      <trkpt lat="45.98728" lon="4.76042">
        <ele>182</ele>
        <time>2018-05-09T10:18:51Z</time>
      </trkpt>
      <trkpt lat="45.98728" lon="4.76049">
        <ele>182</ele>
        <time>2018-05-09T10:18:52Z</time>
      </trkpt>
      <trkpt lat="45.98727" lon="4.76056">
        <ele>182</ele>
        <time>2018-05-09T10:18:53Z</time>
      </trkpt>
      <trkpt lat="45.98726" lon="4.76064">
        <ele>182</ele>
        <time>2018-05-09T10:18:54Z</time>
      </trkpt>
      <trkpt lat="45.98724" lon="4.76069">
        <ele>182</ele>
        <time>2018-05-09T10:18:55Z</time>
      </trkpt>
      <trkpt lat="45.98724" lon="4.76076">
        <ele>182</ele>
        <time>2018-05-09T10:18:56Z</time>
      </trkpt>
      <trkpt lat="45.98723" lon="4.76083">
        <ele>182</ele>
        <time>2018-05-09T10:18:57Z</time>
      </trkpt>
      <trkpt lat="45.98722" lon="4.7609">
        <ele>183</ele>
        <time>2018-05-09T10:18:58Z</time>
      </trkpt>
      <trkpt lat="45.98722" lon="4.76098">
        <ele>183</ele>
        <time>2018-05-09T10:18:59Z</time>
      </trkpt>
      <trkpt lat="45.98723" lon="4.76106">
        <ele>183</ele>
        <time>2018-05-09T10:19:00Z</time>
      </trkpt>
      <trkpt lat="45.98722" lon="4.76113">
        <ele>183</ele>
        <time>2018-05-09T10:19:01Z</time>
      </trkpt>
      <trkpt lat="45.9872" lon="4.76125">
        <ele>183</ele>
        <time>2018-05-09T10:19:03Z</time>
      </trkpt>
      <trkpt lat="45.9872" lon="4.76134">
        <ele>183</ele>
        <time>2018-05-09T10:19:04Z</time>
      </trkpt>
      <trkpt lat="45.98719" lon="4.7614">
        <ele>183</ele>
        <time>2018-05-09T10:19:05Z</time>
      </trkpt>
      <trkpt lat="45.98717" lon="4.76148">
        <ele>183</ele>
        <time>2018-05-09T10:19:06Z</time>
      </trkpt>
      <trkpt lat="45.98717" lon="4.76155">
        <ele>183</ele>
        <time>2018-05-09T10:19:07Z</time>
      </trkpt>
      <trkpt lat="45.98716" lon="4.76163">
        <ele>184</ele>
        <time>2018-05-09T10:19:08Z</time>
      </trkpt>
      <trkpt lat="45.98716" lon="4.7617">
        <ele>184</ele>
        <time>2018-05-09T10:19:09Z</time>
      </trkpt>
      <trkpt lat="45.98715" lon="4.76176">
        <ele>184</ele>
        <time>2018-05-09T10:19:10Z</time>
      </trkpt>
      <trkpt lat="45.98714" lon="4.76182">
        <ele>184</ele>
        <time>2018-05-09T10:19:11Z</time>
      </trkpt>
      <trkpt lat="45.98713" lon="4.76189">
        <ele>184</ele>
        <time>2018-05-09T10:19:12Z</time>
      </trkpt>
      <trkpt lat="45.98712" lon="4.76197">
        <ele>184</ele>
        <time>2018-05-09T10:19:13Z</time>
      </trkpt>
      <trkpt lat="45.98711" lon="4.76203">
        <ele>184</ele>
        <time>2018-05-09T10:19:14Z</time>
      </trkpt>
      <trkpt lat="45.98708" lon="4.76215">
        <ele>184</ele>
        <time>2018-05-09T10:19:16Z</time>
      </trkpt>
      <trkpt lat="45.98705" lon="4.76222">
        <ele>184</ele>
        <time>2018-05-09T10:19:17Z</time>
      </trkpt>
      <trkpt lat="45.98702" lon="4.76227">
        <ele>184</ele>
        <time>2018-05-09T10:19:18Z</time>
      </trkpt>
      <trkpt lat="45.98698" lon="4.76231">
        <ele>184</ele>
        <time>2018-05-09T10:19:19Z</time>
      </trkpt>
      <trkpt lat="45.98694" lon="4.76235">
        <ele>184</ele>
        <time>2018-05-09T10:19:20Z</time>
      </trkpt>
      <trkpt lat="45.98689" lon="4.76236">
        <ele>184</ele>
        <time>2018-05-09T10:19:21Z</time>
      </trkpt>
      <trkpt lat="45.98684" lon="4.76235">
        <ele>184</ele>
        <time>2018-05-09T10:19:22Z</time>
      </trkpt>
      <trkpt lat="45.98679" lon="4.76235">
        <ele>184</ele>
        <time>2018-05-09T10:19:23Z</time>
      </trkpt>
      <trkpt lat="45.98674" lon="4.76233">
        <ele>184</ele>
        <time>2018-05-09T10:19:24Z</time>
      </trkpt>
      <trkpt lat="45.98668" lon="4.76233">
        <ele>184</ele>
        <time>2018-05-09T10:19:25Z</time>
      </trkpt>
      <trkpt lat="45.98663" lon="4.76232">
        <ele>184</ele>
        <time>2018-05-09T10:19:26Z</time>
      </trkpt>
      <trkpt lat="45.98658" lon="4.76232">
        <ele>185</ele>
        <time>2018-05-09T10:19:27Z</time>
      </trkpt>
      <trkpt lat="45.98653" lon="4.76231">
        <ele>185</ele>
        <time>2018-05-09T10:19:28Z</time>
      </trkpt>
      <trkpt lat="45.98648" lon="4.76232">
        <ele>185</ele>
        <time>2018-05-09T10:19:29Z</time>
      </trkpt>
      <trkpt lat="45.98643" lon="4.76231">
        <ele>185</ele>
        <time>2018-05-09T10:19:30Z</time>
      </trkpt>
      <trkpt lat="45.98637" lon="4.76229">
        <ele>186</ele>
        <time>2018-05-09T10:19:31Z</time>
      </trkpt>
      <trkpt lat="45.98632" lon="4.76226">
        <ele>186</ele>
        <time>2018-05-09T10:19:32Z</time>
      </trkpt>
      <trkpt lat="45.98628" lon="4.76224">
        <ele>186</ele>
        <time>2018-05-09T10:19:33Z</time>
      </trkpt>
      <trkpt lat="45.98622" lon="4.7622">
        <ele>186</ele>
        <time>2018-05-09T10:19:36Z</time>
      </trkpt>
      <trkpt lat="45.98619" lon="4.76218">
        <ele>186</ele>
        <time>2018-05-09T10:19:37Z</time>
      </trkpt>
      <trkpt lat="45.98612" lon="4.76219">
        <ele>186</ele>
        <time>2018-05-09T10:19:41Z</time>
      </trkpt>
      <trkpt lat="45.9861" lon="4.76222">
        <ele>187</ele>
        <time>2018-05-09T10:19:42Z</time>
      </trkpt>
      <trkpt lat="45.98607" lon="4.76225">
        <ele>187</ele>
        <time>2018-05-09T10:19:43Z</time>
      </trkpt>
      <trkpt lat="45.98603" lon="4.76235">
        <ele>187</ele>
        <time>2018-05-09T10:19:44Z</time>
      </trkpt>
      <trkpt lat="45.98601" lon="4.76246">
        <ele>187</ele>
        <time>2018-05-09T10:19:46Z</time>
      </trkpt>
      <trkpt lat="45.986" lon="4.76251">
        <ele>188</ele>
        <time>2018-05-09T10:19:47Z</time>
      </trkpt>
      <trkpt lat="45.98599" lon="4.76262">
        <ele>187</ele>
        <time>2018-05-09T10:19:49Z</time>
      </trkpt>
      <trkpt lat="45.986" lon="4.76269">
        <ele>187</ele>
        <time>2018-05-09T10:19:50Z</time>
      </trkpt>
      <trkpt lat="45.986" lon="4.76281">
        <ele>187</ele>
        <time>2018-05-09T10:19:52Z</time>
      </trkpt>
      <trkpt lat="45.98599" lon="4.76288">
        <ele>187</ele>
        <time>2018-05-09T10:19:53Z</time>
      </trkpt>
      <trkpt lat="45.986" lon="4.76295">
        <ele>187</ele>
        <time>2018-05-09T10:19:54Z</time>
      </trkpt>
      <trkpt lat="45.986" lon="4.76302">
        <ele>187</ele>
        <time>2018-05-09T10:19:55Z</time>
      </trkpt>
      <trkpt lat="45.98601" lon="4.76311">
        <ele>187</ele>
        <time>2018-05-09T10:19:56Z</time>
      </trkpt>
      <trkpt lat="45.986" lon="4.76321">
        <ele>187</ele>
        <time>2018-05-09T10:19:57Z</time>
      </trkpt>
      <trkpt lat="45.98601" lon="4.76333">
        <ele>188</ele>
        <time>2018-05-09T10:19:59Z</time>
      </trkpt>
      <trkpt lat="45.98602" lon="4.76339">
        <ele>188</ele>
        <time>2018-05-09T10:20:00Z</time>
      </trkpt>
      <trkpt lat="45.98605" lon="4.76351">
        <ele>188</ele>
        <time>2018-05-09T10:20:02Z</time>
      </trkpt>
      <trkpt lat="45.98608" lon="4.76357">
        <ele>188</ele>
        <time>2018-05-09T10:20:03Z</time>
      </trkpt>
      <trkpt lat="45.98613" lon="4.76367">
        <ele>188</ele>
        <time>2018-05-09T10:20:05Z</time>
      </trkpt>
      <trkpt lat="45.98614" lon="4.76373">
        <ele>188</ele>
        <time>2018-05-09T10:20:06Z</time>
      </trkpt>
      <trkpt lat="45.98616" lon="4.76386">
        <ele>188</ele>
        <time>2018-05-09T10:20:08Z</time>
      </trkpt>
      <trkpt lat="45.98618" lon="4.76391">
        <ele>188</ele>
        <time>2018-05-09T10:20:09Z</time>
      </trkpt>
      <trkpt lat="45.98621" lon="4.76402">
        <ele>188</ele>
        <time>2018-05-09T10:20:11Z</time>
      </trkpt>
      <trkpt lat="45.98624" lon="4.76408">
        <ele>188</ele>
        <time>2018-05-09T10:20:12Z</time>
      </trkpt>
      <trkpt lat="45.98626" lon="4.76413">
        <ele>188</ele>
        <time>2018-05-09T10:20:13Z</time>
      </trkpt>
      <trkpt lat="45.98629" lon="4.76418">
        <ele>189</ele>
        <time>2018-05-09T10:20:14Z</time>
      </trkpt>
      <trkpt lat="45.98633" lon="4.76422">
        <ele>189</ele>
        <time>2018-05-09T10:20:15Z</time>
      </trkpt>
      <trkpt lat="45.98637" lon="4.76427">
        <ele>189</ele>
        <time>2018-05-09T10:20:16Z</time>
      </trkpt>
      <trkpt lat="45.98643" lon="4.76433">
        <ele>188</ele>
        <time>2018-05-09T10:20:18Z</time>
      </trkpt>
      <trkpt lat="45.98648" lon="4.76437">
        <ele>188</ele>
        <time>2018-05-09T10:20:19Z</time>
      </trkpt>
      <trkpt lat="45.98652" lon="4.76439">
        <ele>188</ele>
        <time>2018-05-09T10:20:20Z</time>
      </trkpt>
      <trkpt lat="45.98659" lon="4.76441">
        <ele>188</ele>
        <time>2018-05-09T10:20:21Z</time>
      </trkpt>
      <trkpt lat="45.98663" lon="4.76444">
        <ele>188</ele>
        <time>2018-05-09T10:20:22Z</time>
      </trkpt>
      <trkpt lat="45.98668" lon="4.76446">
        <ele>187</ele>
        <time>2018-05-09T10:20:23Z</time>
      </trkpt>
      <trkpt lat="45.98675" lon="4.76454">
        <ele>187</ele>
        <time>2018-05-09T10:20:25Z</time>
      </trkpt>
      <trkpt lat="45.98679" lon="4.76458">
        <ele>187</ele>
        <time>2018-05-09T10:20:26Z</time>
      </trkpt>
      <trkpt lat="45.98683" lon="4.76462">
        <ele>187</ele>
        <time>2018-05-09T10:20:27Z</time>
      </trkpt>
      <trkpt lat="45.98689" lon="4.76464">
        <ele>187</ele>
        <time>2018-05-09T10:20:28Z</time>
      </trkpt>
      <trkpt lat="45.98693" lon="4.7647">
        <ele>187</ele>
        <time>2018-05-09T10:20:29Z</time>
      </trkpt>
      <trkpt lat="45.98698" lon="4.76476">
        <ele>187</ele>
        <time>2018-05-09T10:20:30Z</time>
      </trkpt>
      <trkpt lat="45.98702" lon="4.76481">
        <ele>187</ele>
        <time>2018-05-09T10:20:31Z</time>
      </trkpt>
      <trkpt lat="45.98706" lon="4.76486">
        <ele>187</ele>
        <time>2018-05-09T10:20:32Z</time>
      </trkpt>
      <trkpt lat="45.98711" lon="4.76488">
        <ele>187</ele>
        <time>2018-05-09T10:20:33Z</time>
      </trkpt>
      <trkpt lat="45.98714" lon="4.76491">
        <ele>187</ele>
        <time>2018-05-09T10:20:34Z</time>
      </trkpt>
      <trkpt lat="45.9872" lon="4.76498">
        <ele>187</ele>
        <time>2018-05-09T10:20:36Z</time>
      </trkpt>
      <trkpt lat="45.98725" lon="4.76501">
        <ele>188</ele>
        <time>2018-05-09T10:20:37Z</time>
      </trkpt>
      <trkpt lat="45.98729" lon="4.76506">
        <ele>188</ele>
        <time>2018-05-09T10:20:38Z</time>
      </trkpt>
      <trkpt lat="45.98733" lon="4.76509">
        <ele>188</ele>
        <time>2018-05-09T10:20:39Z</time>
      </trkpt>
      <trkpt lat="45.98737" lon="4.76512">
        <ele>188</ele>
        <time>2018-05-09T10:20:40Z</time>
      </trkpt>
      <trkpt lat="45.98739" lon="4.76517">
        <ele>188</ele>
        <time>2018-05-09T10:20:41Z</time>
      </trkpt>
      <trkpt lat="45.98746" lon="4.76524">
        <ele>188</ele>
        <time>2018-05-09T10:20:43Z</time>
      </trkpt>
      <trkpt lat="45.98749" lon="4.76528">
        <ele>188</ele>
        <time>2018-05-09T10:20:44Z</time>
      </trkpt>
      <trkpt lat="45.98757" lon="4.76535">
        <ele>190</ele>
        <time>2018-05-09T10:20:46Z</time>
      </trkpt>
      <trkpt lat="45.9876" lon="4.76539">
        <ele>190</ele>
        <time>2018-05-09T10:20:47Z</time>
      </trkpt>
      <trkpt lat="45.98767" lon="4.76544">
        <ele>191</ele>
        <time>2018-05-09T10:20:49Z</time>
      </trkpt>
      <trkpt lat="45.98771" lon="4.76546">
        <ele>191</ele>
        <time>2018-05-09T10:20:50Z</time>
      </trkpt>
      <trkpt lat="45.98777" lon="4.76552">
        <ele>191</ele>
        <time>2018-05-09T10:20:52Z</time>
      </trkpt>
      <trkpt lat="45.9878" lon="4.76556">
        <ele>191</ele>
        <time>2018-05-09T10:20:53Z</time>
      </trkpt>
      <trkpt lat="45.98786" lon="4.76562">
        <ele>191</ele>
        <time>2018-05-09T10:20:55Z</time>
      </trkpt>
      <trkpt lat="45.98788" lon="4.76564">
        <ele>191</ele>
        <time>2018-05-09T10:20:56Z</time>
      </trkpt>
      <trkpt lat="45.98792" lon="4.76569">
        <ele>192</ele>
        <time>2018-05-09T10:20:57Z</time>
      </trkpt>
      <trkpt lat="45.98795" lon="4.76572">
        <ele>192</ele>
        <time>2018-05-09T10:20:58Z</time>
      </trkpt>
      <trkpt lat="45.98801" lon="4.76579">
        <ele>192</ele>
        <time>2018-05-09T10:21:00Z</time>
      </trkpt>
      <trkpt lat="45.98804" lon="4.76582">
        <ele>192</ele>
        <time>2018-05-09T10:21:01Z</time>
      </trkpt>
      <trkpt lat="45.9881" lon="4.76589">
        <ele>193</ele>
        <time>2018-05-09T10:21:04Z</time>
      </trkpt>
      <trkpt lat="45.98815" lon="4.76595">
        <ele>193</ele>
        <time>2018-05-09T10:21:05Z</time>
      </trkpt>
      <trkpt lat="45.9882" lon="4.76601">
        <ele>193</ele>
        <time>2018-05-09T10:21:08Z</time>
      </trkpt>
      <trkpt lat="45.98822" lon="4.76603">
        <ele>193</ele>
        <time>2018-05-09T10:21:09Z</time>
      </trkpt>
      <trkpt lat="45.98829" lon="4.7661">
        <ele>193</ele>
        <time>2018-05-09T10:21:12Z</time>
      </trkpt>
      <trkpt lat="45.98831" lon="4.76613">
        <ele>193</ele>
        <time>2018-05-09T10:21:13Z</time>
      </trkpt>
      <trkpt lat="45.98837" lon="4.76619">
        <ele>196</ele>
        <time>2018-05-09T10:21:15Z</time>
      </trkpt>
      <trkpt lat="45.98839" lon="4.76622">
        <ele>196</ele>
        <time>2018-05-09T10:21:16Z</time>
      </trkpt>
      <trkpt lat="45.98842" lon="4.76624">
        <ele>196</ele>
        <time>2018-05-09T10:21:17Z</time>
      </trkpt>
      <trkpt lat="45.9885" lon="4.76633">
        <ele>195</ele>
        <time>2018-05-09T10:21:18Z</time>
      </trkpt>
      <trkpt lat="45.98856" lon="4.7664">
        <ele>195</ele>
        <time>2018-05-09T10:21:20Z</time>
      </trkpt>
      <trkpt lat="45.98859" lon="4.76644">
        <ele>195</ele>
        <time>2018-05-09T10:21:21Z</time>
      </trkpt>
      <trkpt lat="45.98864" lon="4.76651">
        <ele>195</ele>
        <time>2018-05-09T10:21:23Z</time>
      </trkpt>
      <trkpt lat="45.98867" lon="4.76654">
        <ele>196</ele>
        <time>2018-05-09T10:21:24Z</time>
      </trkpt>
      <trkpt lat="45.98874" lon="4.7666">
        <ele>196</ele>
        <time>2018-05-09T10:21:26Z</time>
      </trkpt>
      <trkpt lat="45.98877" lon="4.76663">
        <ele>196</ele>
        <time>2018-05-09T10:21:27Z</time>
      </trkpt>
      <trkpt lat="45.98884" lon="4.76669">
        <ele>194</ele>
        <time>2018-05-09T10:21:29Z</time>
      </trkpt>
      <trkpt lat="45.98887" lon="4.76672">
        <ele>194</ele>
        <time>2018-05-09T10:21:30Z</time>
      </trkpt>
      <trkpt lat="45.98892" lon="4.7668">
        <ele>194</ele>
        <time>2018-05-09T10:21:32Z</time>
      </trkpt>
      <trkpt lat="45.98895" lon="4.76684">
        <ele>194</ele>
        <time>2018-05-09T10:21:33Z</time>
      </trkpt>
      <trkpt lat="45.98902" lon="4.76691">
        <ele>194</ele>
        <time>2018-05-09T10:21:35Z</time>
      </trkpt>
      <trkpt lat="45.98905" lon="4.76695">
        <ele>194</ele>
        <time>2018-05-09T10:21:36Z</time>
      </trkpt>
      <trkpt lat="45.98912" lon="4.76702">
        <ele>194</ele>
        <time>2018-05-09T10:21:38Z</time>
      </trkpt>
      <trkpt lat="45.98915" lon="4.76705">
        <ele>194</ele>
        <time>2018-05-09T10:21:39Z</time>
      </trkpt>
      <trkpt lat="45.98922" lon="4.76712">
        <ele>197</ele>
        <time>2018-05-09T10:21:41Z</time>
      </trkpt>
      <trkpt lat="45.98925" lon="4.76715">
        <ele>197</ele>
        <time>2018-05-09T10:21:42Z</time>
      </trkpt>
      <trkpt lat="45.98932" lon="4.76723">
        <ele>197</ele>
        <time>2018-05-09T10:21:44Z</time>
      </trkpt>
      <trkpt lat="45.98935" lon="4.76726">
        <ele>197</ele>
        <time>2018-05-09T10:21:45Z</time>
      </trkpt>
      <trkpt lat="45.98942" lon="4.76734">
        <ele>197</ele>
        <time>2018-05-09T10:21:47Z</time>
      </trkpt>
      <trkpt lat="45.98945" lon="4.76737">
        <ele>197</ele>
        <time>2018-05-09T10:21:48Z</time>
      </trkpt>
      <trkpt lat="45.98952" lon="4.76745">
        <ele>197</ele>
        <time>2018-05-09T10:21:50Z</time>
      </trkpt>
      <trkpt lat="45.98956" lon="4.76748">
        <ele>198</ele>
        <time>2018-05-09T10:21:51Z</time>
      </trkpt>
      <trkpt lat="45.98961" lon="4.76757">
        <ele>196</ele>
        <time>2018-05-09T10:21:53Z</time>
      </trkpt>
      <trkpt lat="45.98966" lon="4.76761">
        <ele>196</ele>
        <time>2018-05-09T10:21:54Z</time>
      </trkpt>
      <trkpt lat="45.98972" lon="4.76768">
        <ele>196</ele>
        <time>2018-05-09T10:21:56Z</time>
      </trkpt>
      <trkpt lat="45.98976" lon="4.76773">
        <ele>196</ele>
        <time>2018-05-09T10:21:57Z</time>
      </trkpt>
      <trkpt lat="45.98977" lon="4.76779">
        <ele>196</ele>
        <time>2018-05-09T10:21:58Z</time>
      </trkpt>
      <trkpt lat="45.98981" lon="4.76784">
        <ele>196</ele>
        <time>2018-05-09T10:21:59Z</time>
      </trkpt>
      <trkpt lat="45.98988" lon="4.76791">
        <ele>196</ele>
        <time>2018-05-09T10:22:01Z</time>
      </trkpt>
      <trkpt lat="45.98989" lon="4.76795">
        <ele>196</ele>
        <time>2018-05-09T10:22:02Z</time>
      </trkpt>
      <trkpt lat="45.98994" lon="4.76806">
        <ele>197</ele>
        <time>2018-05-09T10:22:04Z</time>
      </trkpt>
      <trkpt lat="45.98995" lon="4.76811">
        <ele>197</ele>
        <time>2018-05-09T10:22:05Z</time>
      </trkpt>
      <trkpt lat="45.99" lon="4.76821">
        <ele>197</ele>
        <time>2018-05-09T10:22:07Z</time>
      </trkpt>
      <trkpt lat="45.99002" lon="4.76826">
        <ele>199</ele>
        <time>2018-05-09T10:22:08Z</time>
      </trkpt>
      <trkpt lat="45.99006" lon="4.76836">
        <ele>198</ele>
        <time>2018-05-09T10:22:10Z</time>
      </trkpt>
      <trkpt lat="45.99008" lon="4.76841">
        <ele>199</ele>
        <time>2018-05-09T10:22:11Z</time>
      </trkpt>
      <trkpt lat="45.99013" lon="4.76851">
        <ele>199</ele>
        <time>2018-05-09T10:22:13Z</time>
      </trkpt>
      <trkpt lat="45.99015" lon="4.76856">
        <ele>199</ele>
        <time>2018-05-09T10:22:14Z</time>
      </trkpt>
      <trkpt lat="45.99019" lon="4.76866">
        <ele>199</ele>
        <time>2018-05-09T10:22:16Z</time>
      </trkpt>
      <trkpt lat="45.99021" lon="4.76871">
        <ele>199</ele>
        <time>2018-05-09T10:22:17Z</time>
      </trkpt>
      <trkpt lat="45.99026" lon="4.76881">
        <ele>199</ele>
        <time>2018-05-09T10:22:19Z</time>
      </trkpt>
      <trkpt lat="45.99029" lon="4.76886">
        <ele>199</ele>
        <time>2018-05-09T10:22:20Z</time>
      </trkpt>
      <trkpt lat="45.99034" lon="4.76896">
        <ele>199</ele>
        <time>2018-05-09T10:22:22Z</time>
      </trkpt>
      <trkpt lat="45.99036" lon="4.76903">
        <ele>199</ele>
        <time>2018-05-09T10:22:23Z</time>
      </trkpt>
      <trkpt lat="45.9904" lon="4.76913">
        <ele>199</ele>
        <time>2018-05-09T10:22:25Z</time>
      </trkpt>
      <trkpt lat="45.99043" lon="4.76919">
        <ele>198</ele>
        <time>2018-05-09T10:22:26Z</time>
      </trkpt>
      <trkpt lat="45.99048" lon="4.76928">
        <ele>198</ele>
        <time>2018-05-09T10:22:28Z</time>
      </trkpt>
      <trkpt lat="45.99051" lon="4.76933">
        <ele>198</ele>
        <time>2018-05-09T10:22:29Z</time>
      </trkpt>
      <trkpt lat="45.99054" lon="4.76938">
        <ele>198</ele>
        <time>2018-05-09T10:22:30Z</time>
      </trkpt>
      <trkpt lat="45.99056" lon="4.76944">
        <ele>198</ele>
        <time>2018-05-09T10:22:31Z</time>
      </trkpt>
      <trkpt lat="45.99059" lon="4.7695">
        <ele>198</ele>
        <time>2018-05-09T10:22:32Z</time>
      </trkpt>
      <trkpt lat="45.99064" lon="4.76954">
        <ele>198</ele>
        <time>2018-05-09T10:22:33Z</time>
      </trkpt>
      <trkpt lat="45.99068" lon="4.7696">
        <ele>198</ele>
        <time>2018-05-09T10:22:34Z</time>
      </trkpt>
      <trkpt lat="45.99071" lon="4.76966">
        <ele>198</ele>
        <time>2018-05-09T10:22:35Z</time>
      </trkpt>
      <trkpt lat="45.99074" lon="4.76971">
        <ele>198</ele>
        <time>2018-05-09T10:22:36Z</time>
      </trkpt>
      <trkpt lat="45.99077" lon="4.76976">
        <ele>198</ele>
        <time>2018-05-09T10:22:37Z</time>
      </trkpt>
      <trkpt lat="45.99081" lon="4.76982">
        <ele>198</ele>
        <time>2018-05-09T10:22:38Z</time>
      </trkpt>
      <trkpt lat="45.99085" lon="4.76987">
        <ele>201</ele>
        <time>2018-05-09T10:22:39Z</time>
      </trkpt>
      <trkpt lat="45.99089" lon="4.76993">
        <ele>201</ele>
        <time>2018-05-09T10:22:40Z</time>
      </trkpt>
      <trkpt lat="45.99092" lon="4.77">
        <ele>201</ele>
        <time>2018-05-09T10:22:41Z</time>
      </trkpt>
      <trkpt lat="45.99095" lon="4.77005">
        <ele>201</ele>
        <time>2018-05-09T10:22:42Z</time>
      </trkpt>
      <trkpt lat="45.99097" lon="4.77012">
        <ele>201</ele>
        <time>2018-05-09T10:22:43Z</time>
      </trkpt>
      <trkpt lat="45.99101" lon="4.77022">
        <ele>201</ele>
        <time>2018-05-09T10:22:45Z</time>
      </trkpt>
      <trkpt lat="45.99103" lon="4.77027">
        <ele>202</ele>
        <time>2018-05-09T10:22:46Z</time>
      </trkpt>
      <trkpt lat="45.99105" lon="4.77033">
        <ele>202</ele>
        <time>2018-05-09T10:22:47Z</time>
      </trkpt>
      <trkpt lat="45.99108" lon="4.77039">
        <ele>202</ele>
        <time>2018-05-09T10:22:48Z</time>
      </trkpt>
      <trkpt lat="45.99111" lon="4.77045">
        <ele>202</ele>
        <time>2018-05-09T10:22:49Z</time>
      </trkpt>
      <trkpt lat="45.99113" lon="4.77051">
        <ele>202</ele>
        <time>2018-05-09T10:22:50Z</time>
      </trkpt>
      <trkpt lat="45.99116" lon="4.77061">
        <ele>202</ele>
        <time>2018-05-09T10:22:52Z</time>
      </trkpt>
      <trkpt lat="45.99117" lon="4.77066">
        <ele>202</ele>
        <time>2018-05-09T10:22:53Z</time>
      </trkpt>
      <trkpt lat="45.9912" lon="4.77077">
        <ele>202</ele>
        <time>2018-05-09T10:22:55Z</time>
      </trkpt>
      <trkpt lat="45.99122" lon="4.77083">
        <ele>201</ele>
        <time>2018-05-09T10:22:56Z</time>
      </trkpt>
      <trkpt lat="45.99123" lon="4.7709">
        <ele>201</ele>
        <time>2018-05-09T10:22:57Z</time>
      </trkpt>
      <trkpt lat="45.99124" lon="4.77097">
        <ele>201</ele>
        <time>2018-05-09T10:22:58Z</time>
      </trkpt>
      <trkpt lat="45.99128" lon="4.77108">
        <ele>201</ele>
        <time>2018-05-09T10:23:00Z</time>
      </trkpt>
      <trkpt lat="45.9913" lon="4.77113">
        <ele>201</ele>
        <time>2018-05-09T10:23:01Z</time>
      </trkpt>
      <trkpt lat="45.99135" lon="4.77123">
        <ele>201</ele>
        <time>2018-05-09T10:23:03Z</time>
      </trkpt>
      <trkpt lat="45.99137" lon="4.77129">
        <ele>201</ele>
        <time>2018-05-09T10:23:04Z</time>
      </trkpt>
      <trkpt lat="45.9914" lon="4.77141">
        <ele>201</ele>
        <time>2018-05-09T10:23:06Z</time>
      </trkpt>
      <trkpt lat="45.99142" lon="4.77146">
        <ele>201</ele>
        <time>2018-05-09T10:23:07Z</time>
      </trkpt>
      <trkpt lat="45.99145" lon="4.77157">
        <ele>201</ele>
        <time>2018-05-09T10:23:09Z</time>
      </trkpt>
      <trkpt lat="45.99147" lon="4.77163">
        <ele>201</ele>
        <time>2018-05-09T10:23:10Z</time>
      </trkpt>
      <trkpt lat="45.99149" lon="4.77174">
        <ele>200</ele>
        <time>2018-05-09T10:23:12Z</time>
      </trkpt>
      <trkpt lat="45.99151" lon="4.7718">
        <ele>200</ele>
        <time>2018-05-09T10:23:13Z</time>
      </trkpt>
      <trkpt lat="45.99154" lon="4.77187">
        <ele>200</ele>
        <time>2018-05-09T10:23:14Z</time>
      </trkpt>
      <trkpt lat="45.99156" lon="4.77192">
        <ele>200</ele>
        <time>2018-05-09T10:23:15Z</time>
      </trkpt>
      <trkpt lat="45.99157" lon="4.77198">
        <ele>200</ele>
        <time>2018-05-09T10:23:16Z</time>
      </trkpt>
      <trkpt lat="45.99158" lon="4.77204">
        <ele>200</ele>
        <time>2018-05-09T10:23:17Z</time>
      </trkpt>
      <trkpt lat="45.9916" lon="4.77216">
        <ele>200</ele>
        <time>2018-05-09T10:23:19Z</time>
      </trkpt>
      <trkpt lat="45.99161" lon="4.77224">
        <ele>200</ele>
        <time>2018-05-09T10:23:20Z</time>
      </trkpt>
      <trkpt lat="45.9916" lon="4.77236">
        <ele>200</ele>
        <time>2018-05-09T10:23:22Z</time>
      </trkpt>
      <trkpt lat="45.9916" lon="4.77242">
        <ele>200</ele>
        <time>2018-05-09T10:23:23Z</time>
      </trkpt>
      <trkpt lat="45.99157" lon="4.77254">
        <ele>200</ele>
        <time>2018-05-09T10:23:25Z</time>
      </trkpt>
      <trkpt lat="45.99157" lon="4.7726">
        <ele>200</ele>
        <time>2018-05-09T10:23:26Z</time>
      </trkpt>
      <trkpt lat="45.99156" lon="4.77273">
        <ele>200</ele>
        <time>2018-05-09T10:23:28Z</time>
      </trkpt>
      <trkpt lat="45.99155" lon="4.77279">
        <ele>200</ele>
        <time>2018-05-09T10:23:29Z</time>
      </trkpt>
      <trkpt lat="45.99156" lon="4.77287">
        <ele>200</ele>
        <time>2018-05-09T10:23:30Z</time>
      </trkpt>
      <trkpt lat="45.99155" lon="4.77293">
        <ele>200</ele>
        <time>2018-05-09T10:23:31Z</time>
      </trkpt>
      <trkpt lat="45.99155" lon="4.77297">
        <ele>200</ele>
        <time>2018-05-09T10:23:32Z</time>
      </trkpt>
      <trkpt lat="45.99157" lon="4.77306">
        <ele>200</ele>
        <time>2018-05-09T10:23:33Z</time>
      </trkpt>
      <trkpt lat="45.99156" lon="4.77313">
        <ele>200</ele>
        <time>2018-05-09T10:23:34Z</time>
      </trkpt>
      <trkpt lat="45.99156" lon="4.7732">
        <ele>201</ele>
        <time>2018-05-09T10:23:35Z</time>
      </trkpt>
      <trkpt lat="45.99159" lon="4.77327">
        <ele>201</ele>
        <time>2018-05-09T10:23:36Z</time>
      </trkpt>
      <trkpt lat="45.99159" lon="4.77333">
        <ele>201</ele>
        <time>2018-05-09T10:23:37Z</time>
      </trkpt>
      <trkpt lat="45.99156" lon="4.7734">
        <ele>201</ele>
        <time>2018-05-09T10:23:38Z</time>
      </trkpt>
      <trkpt lat="45.99154" lon="4.77345">
        <ele>201</ele>
        <time>2018-05-09T10:23:39Z</time>
      </trkpt>
      <trkpt lat="45.99146" lon="4.7735">
        <ele>201</ele>
        <time>2018-05-09T10:23:41Z</time>
      </trkpt>
      <trkpt lat="45.9914" lon="4.7735">
        <ele>201</ele>
        <time>2018-05-09T10:23:42Z</time>
      </trkpt>
      <trkpt lat="45.99136" lon="4.7735">
        <ele>201</ele>
        <time>2018-05-09T10:23:43Z</time>
      </trkpt>
      <trkpt lat="45.99131" lon="4.77352">
        <ele>201</ele>
        <time>2018-05-09T10:23:44Z</time>
      </trkpt>
      <trkpt lat="45.99124" lon="4.77353">
        <ele>201</ele>
        <time>2018-05-09T10:23:45Z</time>
      </trkpt>
      <trkpt lat="45.99117" lon="4.77355">
        <ele>201</ele>
        <time>2018-05-09T10:23:46Z</time>
      </trkpt>
      <trkpt lat="45.99112" lon="4.77357">
        <ele>201</ele>
        <time>2018-05-09T10:23:47Z</time>
      </trkpt>
      <trkpt lat="45.99106" lon="4.77358">
        <ele>201</ele>
        <time>2018-05-09T10:23:48Z</time>
      </trkpt>
      <trkpt lat="45.99101" lon="4.77359">
        <ele>201</ele>
        <time>2018-05-09T10:23:49Z</time>
      </trkpt>
      <trkpt lat="45.99096" lon="4.77359">
        <ele>201</ele>
        <time>2018-05-09T10:23:50Z</time>
      </trkpt>
      <trkpt lat="45.9909" lon="4.7736">
        <ele>201</ele>
        <time>2018-05-09T10:23:51Z</time>
      </trkpt>
      <trkpt lat="45.99083" lon="4.7736">
        <ele>200</ele>
        <time>2018-05-09T10:23:52Z</time>
      </trkpt>
      <trkpt lat="45.99074" lon="4.77358">
        <ele>200</ele>
        <time>2018-05-09T10:23:54Z</time>
      </trkpt>
      <trkpt lat="45.9907" lon="4.77358">
        <ele>200</ele>
        <time>2018-05-09T10:23:55Z</time>
      </trkpt>
      <trkpt lat="45.99065" lon="4.77359">
        <ele>200</ele>
        <time>2018-05-09T10:23:56Z</time>
      </trkpt>
      <trkpt lat="45.9906" lon="4.7736">
        <ele>200</ele>
        <time>2018-05-09T10:23:57Z</time>
      </trkpt>
      <trkpt lat="45.99057" lon="4.77361">
        <ele>200</ele>
        <time>2018-05-09T10:23:58Z</time>
      </trkpt>
      <trkpt lat="45.9905" lon="4.7736">
        <ele>200</ele>
        <time>2018-05-09T10:23:59Z</time>
      </trkpt>
      <trkpt lat="45.99045" lon="4.77361">
        <ele>200</ele>
        <time>2018-05-09T10:24:00Z</time>
      </trkpt>
      <trkpt lat="45.99041" lon="4.77364">
        <ele>200</ele>
        <time>2018-05-09T10:24:01Z</time>
      </trkpt>
      <trkpt lat="45.99035" lon="4.77364">
        <ele>200</ele>
        <time>2018-05-09T10:24:02Z</time>
      </trkpt>
      <trkpt lat="45.9903" lon="4.77366">
        <ele>200</ele>
        <time>2018-05-09T10:24:03Z</time>
      </trkpt>
      <trkpt lat="45.99025" lon="4.7737">
        <ele>200</ele>
        <time>2018-05-09T10:24:04Z</time>
      </trkpt>
      <trkpt lat="45.99019" lon="4.77372">
        <ele>200</ele>
        <time>2018-05-09T10:24:05Z</time>
      </trkpt>
      <trkpt lat="45.99014" lon="4.77375">
        <ele>201</ele>
        <time>2018-05-09T10:24:06Z</time>
      </trkpt>
      <trkpt lat="45.99009" lon="4.77378">
        <ele>201</ele>
        <time>2018-05-09T10:24:07Z</time>
      </trkpt>
      <trkpt lat="45.99" lon="4.77382">
        <ele>201</ele>
        <time>2018-05-09T10:24:09Z</time>
      </trkpt>
      <trkpt lat="45.98995" lon="4.77385">
        <ele>202</ele>
        <time>2018-05-09T10:24:10Z</time>
      </trkpt>
      <trkpt lat="45.9899" lon="4.77387">
        <ele>202</ele>
        <time>2018-05-09T10:24:11Z</time>
      </trkpt>
      <trkpt lat="45.98984" lon="4.7739">
        <ele>202</ele>
        <time>2018-05-09T10:24:12Z</time>
      </trkpt>
      <trkpt lat="45.98976" lon="4.77394">
        <ele>202</ele>
        <time>2018-05-09T10:24:14Z</time>
      </trkpt>
      <trkpt lat="45.98972" lon="4.77397">
        <ele>202</ele>
        <time>2018-05-09T10:24:15Z</time>
      </trkpt>
      <trkpt lat="45.98967" lon="4.77399">
        <ele>202</ele>
        <time>2018-05-09T10:24:16Z</time>
      </trkpt>
      <trkpt lat="45.98963" lon="4.77401">
        <ele>202</ele>
        <time>2018-05-09T10:24:17Z</time>
      </trkpt>
      <trkpt lat="45.98955" lon="4.77406">
        <ele>203</ele>
        <time>2018-05-09T10:24:20Z</time>
      </trkpt>
      <trkpt lat="45.98953" lon="4.77407">
        <ele>203</ele>
        <time>2018-05-09T10:24:21Z</time>
      </trkpt>
      <trkpt lat="45.98945" lon="4.77411">
        <ele>203</ele>
        <time>2018-05-09T10:24:24Z</time>
      </trkpt>
      <trkpt lat="45.98943" lon="4.77412">
        <ele>203</ele>
        <time>2018-05-09T10:24:25Z</time>
      </trkpt>
      <trkpt lat="45.98934" lon="4.77416">
        <ele>204</ele>
        <time>2018-05-09T10:24:28Z</time>
      </trkpt>
      <trkpt lat="45.98932" lon="4.77417">
        <ele>205</ele>
        <time>2018-05-09T10:24:29Z</time>
      </trkpt>
      <trkpt lat="45.98924" lon="4.7742">
        <ele>205</ele>
        <time>2018-05-09T10:24:32Z</time>
      </trkpt>
      <trkpt lat="45.98921" lon="4.77422">
        <ele>205</ele>
        <time>2018-05-09T10:24:33Z</time>
      </trkpt>
      <trkpt lat="45.98913" lon="4.77425">
        <ele>206</ele>
        <time>2018-05-09T10:24:36Z</time>
      </trkpt>
      <trkpt lat="45.98911" lon="4.77427">
        <ele>206</ele>
        <time>2018-05-09T10:24:37Z</time>
      </trkpt>
      <trkpt lat="45.98904" lon="4.77431">
        <ele>207</ele>
        <time>2018-05-09T10:24:40Z</time>
      </trkpt>
      <trkpt lat="45.98902" lon="4.77432">
        <ele>207</ele>
        <time>2018-05-09T10:24:41Z</time>
      </trkpt>
      <trkpt lat="45.98896" lon="4.77436">
        <ele>207</ele>
        <time>2018-05-09T10:24:44Z</time>
      </trkpt>
      <trkpt lat="45.98893" lon="4.77437">
        <ele>208</ele>
        <time>2018-05-09T10:24:45Z</time>
      </trkpt>
      <trkpt lat="45.98886" lon="4.77439">
        <ele>208</ele>
        <time>2018-05-09T10:24:49Z</time>
      </trkpt>
      <trkpt lat="45.98884" lon="4.7744">
        <ele>208</ele>
        <time>2018-05-09T10:24:50Z</time>
      </trkpt>
      <trkpt lat="45.98876" lon="4.77444">
        <ele>208</ele>
        <time>2018-05-09T10:24:54Z</time>
      </trkpt>
      <trkpt lat="45.98874" lon="4.77445">
        <ele>208</ele>
        <time>2018-05-09T10:24:55Z</time>
      </trkpt>
      <trkpt lat="45.98867" lon="4.77449">
        <ele>209</ele>
        <time>2018-05-09T10:24:59Z</time>
      </trkpt>
      <trkpt lat="45.98865" lon="4.7745">
        <ele>209</ele>
        <time>2018-05-09T10:25:00Z</time>
      </trkpt>
      <trkpt lat="45.98859" lon="4.77455">
        <ele>209</ele>
        <time>2018-05-09T10:25:04Z</time>
      </trkpt>
      <trkpt lat="45.98857" lon="4.77456">
        <ele>209</ele>
        <time>2018-05-09T10:25:05Z</time>
      </trkpt>
      <trkpt lat="45.98849" lon="4.77459">
        <ele>210</ele>
        <time>2018-05-09T10:25:09Z</time>
      </trkpt>
      <trkpt lat="45.98848" lon="4.7746">
        <ele>210</ele>
        <time>2018-05-09T10:25:10Z</time>
      </trkpt>
      <trkpt lat="45.98839" lon="4.77464">
        <ele>210</ele>
        <time>2018-05-09T10:25:15Z</time>
      </trkpt>
      <trkpt lat="45.98838" lon="4.77465">
        <ele>210</ele>
        <time>2018-05-09T10:25:16Z</time>
      </trkpt>
      <trkpt lat="45.98831" lon="4.77471">
        <ele>213</ele>
        <time>2018-05-09T10:25:21Z</time>
      </trkpt>
      <trkpt lat="45.9883" lon="4.77473">
        <ele>213</ele>
        <time>2018-05-09T10:25:22Z</time>
      </trkpt>
      <trkpt lat="45.98826" lon="4.77484">
        <ele>213</ele>
        <time>2018-05-09T10:25:27Z</time>
      </trkpt>
      <trkpt lat="45.98825" lon="4.77485">
        <ele>214</ele>
        <time>2018-05-09T10:25:28Z</time>
      </trkpt>
      <trkpt lat="45.9882" lon="4.77495">
        <ele>214</ele>
        <time>2018-05-09T10:25:35Z</time>
      </trkpt>
      <trkpt lat="45.98819" lon="4.77497">
        <ele>214</ele>
        <time>2018-05-09T10:25:36Z</time>
      </trkpt>
      <trkpt lat="45.98815" lon="4.77506">
        <ele>216</ele>
        <time>2018-05-09T10:25:41Z</time>
      </trkpt>
      <trkpt lat="45.98814" lon="4.77508">
        <ele>216</ele>
        <time>2018-05-09T10:25:42Z</time>
      </trkpt>
      <trkpt lat="45.9881" lon="4.77517">
        <ele>216</ele>
        <time>2018-05-09T10:25:46Z</time>
      </trkpt>
      <trkpt lat="45.98809" lon="4.77519">
        <ele>217</ele>
        <time>2018-05-09T10:25:47Z</time>
      </trkpt>
      <trkpt lat="45.98806" lon="4.7753">
        <ele>217</ele>
        <time>2018-05-09T10:25:51Z</time>
      </trkpt>
      <trkpt lat="45.98805" lon="4.77532">
        <ele>217</ele>
        <time>2018-05-09T10:25:52Z</time>
      </trkpt>
      <trkpt lat="45.98799" lon="4.77539">
        <ele>217</ele>
        <time>2018-05-09T10:25:56Z</time>
      </trkpt>
      <trkpt lat="45.98798" lon="4.77541">
        <ele>217</ele>
        <time>2018-05-09T10:25:57Z</time>
      </trkpt>
      <trkpt lat="45.98791" lon="4.7755">
        <ele>217</ele>
        <time>2018-05-09T10:26:02Z</time>
      </trkpt>
      <trkpt lat="45.9879" lon="4.77551">
        <ele>218</ele>
        <time>2018-05-09T10:26:03Z</time>
      </trkpt>
      <trkpt lat="45.98784" lon="4.77558">
        <ele>218</ele>
        <time>2018-05-09T10:26:07Z</time>
      </trkpt>
      <trkpt lat="45.98783" lon="4.7756">
        <ele>218</ele>
        <time>2018-05-09T10:26:08Z</time>
      </trkpt>
      <trkpt lat="45.98777" lon="4.77567">
        <ele>218</ele>
        <time>2018-05-09T10:26:12Z</time>
      </trkpt>
      <trkpt lat="45.98776" lon="4.77568">
        <ele>218</ele>
        <time>2018-05-09T10:26:13Z</time>
      </trkpt>
      <trkpt lat="45.98769" lon="4.77573">
        <ele>218</ele>
        <time>2018-05-09T10:26:17Z</time>
      </trkpt>
      <trkpt lat="45.98768" lon="4.77574">
        <ele>219</ele>
        <time>2018-05-09T10:26:18Z</time>
      </trkpt>
      <trkpt lat="45.98761" lon="4.77583">
        <ele>219</ele>
        <time>2018-05-09T10:26:23Z</time>
      </trkpt>
      <trkpt lat="45.9876" lon="4.77585">
        <ele>220</ele>
        <time>2018-05-09T10:26:24Z</time>
      </trkpt>
      <trkpt lat="45.98754" lon="4.77592">
        <ele>220</ele>
        <time>2018-05-09T10:26:28Z</time>
      </trkpt>
      <trkpt lat="45.98752" lon="4.77594">
        <ele>220</ele>
        <time>2018-05-09T10:26:29Z</time>
      </trkpt>
      <trkpt lat="45.98745" lon="4.776">
        <ele>222</ele>
        <time>2018-05-09T10:26:33Z</time>
      </trkpt>
      <trkpt lat="45.98743" lon="4.77602">
        <ele>222</ele>
        <time>2018-05-09T10:26:34Z</time>
      </trkpt>
      <trkpt lat="45.98736" lon="4.77608">
        <ele>222</ele>
        <time>2018-05-09T10:26:38Z</time>
      </trkpt>
      <trkpt lat="45.98734" lon="4.7761">
        <ele>222</ele>
        <time>2018-05-09T10:26:39Z</time>
      </trkpt>
      <trkpt lat="45.98728" lon="4.77615">
        <ele>223</ele>
        <time>2018-05-09T10:26:43Z</time>
      </trkpt>
      <trkpt lat="45.98726" lon="4.77617">
        <ele>223</ele>
        <time>2018-05-09T10:26:44Z</time>
      </trkpt>
      <trkpt lat="45.98719" lon="4.77622">
        <ele>223</ele>
        <time>2018-05-09T10:26:48Z</time>
      </trkpt>
      <trkpt lat="45.98718" lon="4.77623">
        <ele>223</ele>
        <time>2018-05-09T10:26:49Z</time>
      </trkpt>
      <trkpt lat="45.98712" lon="4.77629">
        <ele>224</ele>
        <time>2018-05-09T10:26:53Z</time>
      </trkpt>
      <trkpt lat="45.9871" lon="4.77631">
        <ele>224</ele>
        <time>2018-05-09T10:26:54Z</time>
      </trkpt>
      <trkpt lat="45.98703" lon="4.77638">
        <ele>224</ele>
        <time>2018-05-09T10:26:59Z</time>
      </trkpt>
      <trkpt lat="45.98702" lon="4.7764">
        <ele>224</ele>
        <time>2018-05-09T10:27:00Z</time>
      </trkpt>
      <trkpt lat="45.98696" lon="4.77646">
        <ele>224</ele>
        <time>2018-05-09T10:27:04Z</time>
      </trkpt>
      <trkpt lat="45.98694" lon="4.77648">
        <ele>225</ele>
        <time>2018-05-09T10:27:05Z</time>
      </trkpt>
      <trkpt lat="45.98688" lon="4.77655">
        <ele>225</ele>
        <time>2018-05-09T10:27:09Z</time>
      </trkpt>
      <trkpt lat="45.98687" lon="4.77657">
        <ele>225</ele>
        <time>2018-05-09T10:27:10Z</time>
      </trkpt>
      <trkpt lat="45.98682" lon="4.77666">
        <ele>226</ele>
        <time>2018-05-09T10:27:14Z</time>
      </trkpt>
      <trkpt lat="45.9868" lon="4.77668">
        <ele>228</ele>
        <time>2018-05-09T10:27:15Z</time>
      </trkpt>
      <trkpt lat="45.98673" lon="4.77675">
        <ele>228</ele>
        <time>2018-05-09T10:27:20Z</time>
      </trkpt>
      <trkpt lat="45.98672" lon="4.77677">
        <ele>228</ele>
        <time>2018-05-09T10:27:21Z</time>
      </trkpt>
      <trkpt lat="45.98665" lon="4.77683">
        <ele>229</ele>
        <time>2018-05-09T10:27:25Z</time>
      </trkpt>
      <trkpt lat="45.98664" lon="4.77685">
        <ele>229</ele>
        <time>2018-05-09T10:27:26Z</time>
      </trkpt>
      <trkpt lat="45.98656" lon="4.77691">
        <ele>230</ele>
        <time>2018-05-09T10:27:30Z</time>
      </trkpt>
      <trkpt lat="45.98655" lon="4.77692">
        <ele>230</ele>
        <time>2018-05-09T10:27:31Z</time>
      </trkpt>
      <trkpt lat="45.98648" lon="4.77698">
        <ele>230</ele>
        <time>2018-05-09T10:27:35Z</time>
      </trkpt>
      <trkpt lat="45.98646" lon="4.777">
        <ele>230</ele>
        <time>2018-05-09T10:27:36Z</time>
      </trkpt>
      <trkpt lat="45.98638" lon="4.77705">
        <ele>230</ele>
        <time>2018-05-09T10:27:40Z</time>
      </trkpt>
      <trkpt lat="45.98636" lon="4.77706">
        <ele>230</ele>
        <time>2018-05-09T10:27:41Z</time>
      </trkpt>
      <trkpt lat="45.98629" lon="4.7771">
        <ele>230</ele>
        <time>2018-05-09T10:27:45Z</time>
      </trkpt>
      <trkpt lat="45.98628" lon="4.77711">
        <ele>231</ele>
        <time>2018-05-09T10:27:46Z</time>
      </trkpt>
      <trkpt lat="45.98621" lon="4.77716">
        <ele>231</ele>
        <time>2018-05-09T10:27:50Z</time>
      </trkpt>
      <trkpt lat="45.9862" lon="4.77717">
        <ele>231</ele>
        <time>2018-05-09T10:27:51Z</time>
      </trkpt>
      <trkpt lat="45.98611" lon="4.77722">
        <ele>231</ele>
        <time>2018-05-09T10:27:56Z</time>
      </trkpt>
      <trkpt lat="45.9861" lon="4.77723">
        <ele>231</ele>
        <time>2018-05-09T10:27:57Z</time>
      </trkpt>
      <trkpt lat="45.98602" lon="4.77726">
        <ele>231</ele>
        <time>2018-05-09T10:28:01Z</time>
      </trkpt>
      <trkpt lat="45.986" lon="4.77727">
        <ele>231</ele>
        <time>2018-05-09T10:28:02Z</time>
      </trkpt>
      <trkpt lat="45.98594" lon="4.77731">
        <ele>232</ele>
        <time>2018-05-09T10:28:06Z</time>
      </trkpt>
      <trkpt lat="45.98592" lon="4.77732">
        <ele>232</ele>
        <time>2018-05-09T10:28:07Z</time>
      </trkpt>
      <trkpt lat="45.98584" lon="4.77734">
        <ele>232</ele>
        <time>2018-05-09T10:28:11Z</time>
      </trkpt>
      <trkpt lat="45.98582" lon="4.77735">
        <ele>233</ele>
        <time>2018-05-09T10:28:12Z</time>
      </trkpt>
      <trkpt lat="45.98574" lon="4.77739">
        <ele>233</ele>
        <time>2018-05-09T10:28:17Z</time>
      </trkpt>
      <trkpt lat="45.98572" lon="4.7774">
        <ele>233</ele>
        <time>2018-05-09T10:28:18Z</time>
      </trkpt>
      <trkpt lat="45.98566" lon="4.77744">
        <ele>233</ele>
        <time>2018-05-09T10:28:21Z</time>
      </trkpt>
      <trkpt lat="45.98564" lon="4.77746">
        <ele>233</ele>
        <time>2018-05-09T10:28:22Z</time>
      </trkpt>
      <trkpt lat="45.98557" lon="4.77749">
        <ele>233</ele>
        <time>2018-05-09T10:28:25Z</time>
      </trkpt>
      <trkpt lat="45.98554" lon="4.77751">
        <ele>235</ele>
        <time>2018-05-09T10:28:26Z</time>
      </trkpt>
      <trkpt lat="45.98547" lon="4.77757">
        <ele>235</ele>
        <time>2018-05-09T10:28:29Z</time>
      </trkpt>
      <trkpt lat="45.98545" lon="4.77758">
        <ele>235</ele>
        <time>2018-05-09T10:28:30Z</time>
      </trkpt>
      <trkpt lat="45.98538" lon="4.77763">
        <ele>235</ele>
        <time>2018-05-09T10:28:34Z</time>
      </trkpt>
      <trkpt lat="45.98536" lon="4.77763">
        <ele>235</ele>
        <time>2018-05-09T10:28:35Z</time>
      </trkpt>
      <trkpt lat="45.98529" lon="4.77766">
        <ele>236</ele>
        <time>2018-05-09T10:28:39Z</time>
      </trkpt>
      <trkpt lat="45.98527" lon="4.77767">
        <ele>236</ele>
        <time>2018-05-09T10:28:40Z</time>
      </trkpt>
      <trkpt lat="45.98521" lon="4.77772">
        <ele>236</ele>
        <time>2018-05-09T10:28:43Z</time>
      </trkpt>
      <trkpt lat="45.98519" lon="4.77774">
        <ele>236</ele>
        <time>2018-05-09T10:28:44Z</time>
      </trkpt>
      <trkpt lat="45.98513" lon="4.7778">
        <ele>236</ele>
        <time>2018-05-09T10:28:47Z</time>
      </trkpt>
      <trkpt lat="45.98511" lon="4.77782">
        <ele>236</ele>
        <time>2018-05-09T10:28:48Z</time>
      </trkpt>
      <trkpt lat="45.98505" lon="4.77786">
        <ele>236</ele>
        <time>2018-05-09T10:28:51Z</time>
      </trkpt>
      <trkpt lat="45.98503" lon="4.77787">
        <ele>236</ele>
        <time>2018-05-09T10:28:52Z</time>
      </trkpt>
      <trkpt lat="45.98495" lon="4.77792">
        <ele>238</ele>
        <time>2018-05-09T10:28:56Z</time>
      </trkpt>
      <trkpt lat="45.98493" lon="4.77793">
        <ele>238</ele>
        <time>2018-05-09T10:28:57Z</time>
      </trkpt>
      <trkpt lat="45.98485" lon="4.77795">
        <ele>238</ele>
        <time>2018-05-09T10:29:00Z</time>
      </trkpt>
      <trkpt lat="45.98483" lon="4.77796">
        <ele>238</ele>
        <time>2018-05-09T10:29:01Z</time>
      </trkpt>
      <trkpt lat="45.98475" lon="4.778">
        <ele>238</ele>
        <time>2018-05-09T10:29:04Z</time>
      </trkpt>
      <trkpt lat="45.98473" lon="4.77801">
        <ele>238</ele>
        <time>2018-05-09T10:29:05Z</time>
      </trkpt>
      <trkpt lat="45.98465" lon="4.77804">
        <ele>239</ele>
        <time>2018-05-09T10:29:08Z</time>
      </trkpt>
      <trkpt lat="45.98462" lon="4.77804">
        <ele>239</ele>
        <time>2018-05-09T10:29:09Z</time>
      </trkpt>
      <trkpt lat="45.98456" lon="4.77806">
        <ele>239</ele>
        <time>2018-05-09T10:29:11Z</time>
      </trkpt>
      <trkpt lat="45.98453" lon="4.77807">
        <ele>239</ele>
        <time>2018-05-09T10:29:12Z</time>
      </trkpt>
      <trkpt lat="45.98446" lon="4.77809">
        <ele>239</ele>
        <time>2018-05-09T10:29:14Z</time>
      </trkpt>
      <trkpt lat="45.98443" lon="4.7781">
        <ele>239</ele>
        <time>2018-05-09T10:29:15Z</time>
      </trkpt>
      <trkpt lat="45.98435" lon="4.77813">
        <ele>239</ele>
        <time>2018-05-09T10:29:18Z</time>
      </trkpt>
      <trkpt lat="45.98433" lon="4.77814">
        <ele>239</ele>
        <time>2018-05-09T10:29:19Z</time>
      </trkpt>
      <trkpt lat="45.98425" lon="4.77818">
        <ele>240</ele>
        <time>2018-05-09T10:29:22Z</time>
      </trkpt>
      <trkpt lat="45.98422" lon="4.7782">
        <ele>240</ele>
        <time>2018-05-09T10:29:23Z</time>
      </trkpt>
      <trkpt lat="45.98416" lon="4.77822">
        <ele>241</ele>
        <time>2018-05-09T10:29:25Z</time>
      </trkpt>
      <trkpt lat="45.98413" lon="4.77824">
        <ele>241</ele>
        <time>2018-05-09T10:29:26Z</time>
      </trkpt>
      <trkpt lat="45.98403" lon="4.77828">
        <ele>241</ele>
        <time>2018-05-09T10:29:27Z</time>
      </trkpt>
      <trkpt lat="45.98396" lon="4.7783">
        <ele>241</ele>
        <time>2018-05-09T10:29:29Z</time>
      </trkpt>
      <trkpt lat="45.98392" lon="4.77832">
        <ele>241</ele>
        <time>2018-05-09T10:29:30Z</time>
      </trkpt>
      <trkpt lat="45.98385" lon="4.77835">
        <ele>242</ele>
        <time>2018-05-09T10:29:33Z</time>
      </trkpt>
      <trkpt lat="45.98383" lon="4.77837">
        <ele>242</ele>
        <time>2018-05-09T10:29:34Z</time>
      </trkpt>
      <trkpt lat="45.98378" lon="4.77839">
        <ele>242</ele>
        <time>2018-05-09T10:29:36Z</time>
      </trkpt>
      <trkpt lat="45.98369" lon="4.77844">
        <ele>242</ele>
        <time>2018-05-09T10:29:37Z</time>
      </trkpt>
      <trkpt lat="45.98362" lon="4.77847">
        <ele>242</ele>
        <time>2018-05-09T10:29:39Z</time>
      </trkpt>
      <trkpt lat="45.98358" lon="4.77848">
        <ele>242</ele>
        <time>2018-05-09T10:29:40Z</time>
      </trkpt>
      <trkpt lat="45.9835" lon="4.77851">
        <ele>242</ele>
        <time>2018-05-09T10:29:42Z</time>
      </trkpt>
      <trkpt lat="45.98347" lon="4.77853">
        <ele>242</ele>
        <time>2018-05-09T10:29:43Z</time>
      </trkpt>
      <trkpt lat="45.98339" lon="4.77857">
        <ele>242</ele>
        <time>2018-05-09T10:29:45Z</time>
      </trkpt>
      <trkpt lat="45.98337" lon="4.77858">
        <ele>242</ele>
        <time>2018-05-09T10:29:46Z</time>
      </trkpt>
      <trkpt lat="45.98331" lon="4.77859">
        <ele>243</ele>
        <time>2018-05-09T10:29:49Z</time>
      </trkpt>
      <trkpt lat="45.98323" lon="4.7786">
        <ele>243</ele>
        <time>2018-05-09T10:29:50Z</time>
      </trkpt>
      <trkpt lat="45.98318" lon="4.77859">
        <ele>243</ele>
        <time>2018-05-09T10:29:52Z</time>
      </trkpt>
      <trkpt lat="45.98314" lon="4.77859">
        <ele>243</ele>
        <time>2018-05-09T10:29:53Z</time>
      </trkpt>
      <trkpt lat="45.98306" lon="4.7786">
        <ele>243</ele>
        <time>2018-05-09T10:29:54Z</time>
      </trkpt>
      <trkpt lat="45.983" lon="4.77863">
        <ele>243</ele>
        <time>2018-05-09T10:29:55Z</time>
      </trkpt>
      <trkpt lat="45.98293" lon="4.77865">
        <ele>243</ele>
        <time>2018-05-09T10:29:57Z</time>
      </trkpt>
      <trkpt lat="45.98289" lon="4.77865">
        <ele>243</ele>
        <time>2018-05-09T10:29:58Z</time>
      </trkpt>
      <trkpt lat="45.98284" lon="4.77868">
        <ele>244</ele>
        <time>2018-05-09T10:30:01Z</time>
      </trkpt>
      <trkpt lat="45.98277" lon="4.77875">
        <ele>244</ele>
        <time>2018-05-09T10:30:02Z</time>
      </trkpt>
      <trkpt lat="45.98269" lon="4.7788">
        <ele>244</ele>
        <time>2018-05-09T10:30:04Z</time>
      </trkpt>
      <trkpt lat="45.98265" lon="4.77883">
        <ele>244</ele>
        <time>2018-05-09T10:30:05Z</time>
      </trkpt>
      <trkpt lat="45.98257" lon="4.77887">
        <ele>244</ele>
        <time>2018-05-09T10:30:07Z</time>
      </trkpt>
      <trkpt lat="45.98252" lon="4.77888">
        <ele>244</ele>
        <time>2018-05-09T10:30:08Z</time>
      </trkpt>
      <trkpt lat="45.98243" lon="4.77891">
        <ele>244</ele>
        <time>2018-05-09T10:30:10Z</time>
      </trkpt>
      <trkpt lat="45.9824" lon="4.77894">
        <ele>244</ele>
        <time>2018-05-09T10:30:11Z</time>
      </trkpt>
      <trkpt lat="45.98235" lon="4.77896">
        <ele>244</ele>
        <time>2018-05-09T10:30:12Z</time>
      </trkpt>
      <trkpt lat="45.98231" lon="4.77898">
        <ele>244</ele>
        <time>2018-05-09T10:30:13Z</time>
      </trkpt>
      <trkpt lat="45.98226" lon="4.779">
        <ele>244</ele>
        <time>2018-05-09T10:30:14Z</time>
      </trkpt>
      <trkpt lat="45.98221" lon="4.77901">
        <ele>244</ele>
        <time>2018-05-09T10:30:15Z</time>
      </trkpt>
      <trkpt lat="45.98216" lon="4.77903">
        <ele>244</ele>
        <time>2018-05-09T10:30:16Z</time>
      </trkpt>
      <trkpt lat="45.98212" lon="4.77904">
        <ele>244</ele>
        <time>2018-05-09T10:30:17Z</time>
      </trkpt>
      <trkpt lat="45.98203" lon="4.77908">
        <ele>244</ele>
        <time>2018-05-09T10:30:19Z</time>
      </trkpt>
      <trkpt lat="45.98199" lon="4.77909">
        <ele>244</ele>
        <time>2018-05-09T10:30:20Z</time>
      </trkpt>
      <trkpt lat="45.98195" lon="4.7791">
        <ele>244</ele>
        <time>2018-05-09T10:30:21Z</time>
      </trkpt>
      <trkpt lat="45.9819" lon="4.77912">
        <ele>245</ele>
        <time>2018-05-09T10:30:22Z</time>
      </trkpt>
      <trkpt lat="45.98181" lon="4.77916">
        <ele>245</ele>
        <time>2018-05-09T10:30:24Z</time>
      </trkpt>
      <trkpt lat="45.98178" lon="4.77917">
        <ele>245</ele>
        <time>2018-05-09T10:30:25Z</time>
      </trkpt>
      <trkpt lat="45.98173" lon="4.77919">
        <ele>245</ele>
        <time>2018-05-09T10:30:26Z</time>
      </trkpt>
      <trkpt lat="45.98168" lon="4.7792">
        <ele>245</ele>
        <time>2018-05-09T10:30:27Z</time>
      </trkpt>
      <trkpt lat="45.98163" lon="4.77921">
        <ele>245</ele>
        <time>2018-05-09T10:30:28Z</time>
      </trkpt>
      <trkpt lat="45.98159" lon="4.77923">
        <ele>245</ele>
        <time>2018-05-09T10:30:29Z</time>
      </trkpt>
      <trkpt lat="45.98154" lon="4.77924">
        <ele>245</ele>
        <time>2018-05-09T10:30:30Z</time>
      </trkpt>
      <trkpt lat="45.9815" lon="4.77925">
        <ele>246</ele>
        <time>2018-05-09T10:30:31Z</time>
      </trkpt>
      <trkpt lat="45.98141" lon="4.77928">
        <ele>246</ele>
        <time>2018-05-09T10:30:33Z</time>
      </trkpt>
      <trkpt lat="45.98137" lon="4.77929">
        <ele>246</ele>
        <time>2018-05-09T10:30:34Z</time>
      </trkpt>
      <trkpt lat="45.98132" lon="4.77929">
        <ele>246</ele>
        <time>2018-05-09T10:30:35Z</time>
      </trkpt>
      <trkpt lat="45.98126" lon="4.7793">
        <ele>246</ele>
        <time>2018-05-09T10:30:36Z</time>
      </trkpt>
      <trkpt lat="45.98122" lon="4.77932">
        <ele>246</ele>
        <time>2018-05-09T10:30:37Z</time>
      </trkpt>
      <trkpt lat="45.98117" lon="4.77932">
        <ele>246</ele>
        <time>2018-05-09T10:30:38Z</time>
      </trkpt>
      <trkpt lat="45.98112" lon="4.77933">
        <ele>246</ele>
        <time>2018-05-09T10:30:39Z</time>
      </trkpt>
      <trkpt lat="45.98107" lon="4.77934">
        <ele>246</ele>
        <time>2018-05-09T10:30:40Z</time>
      </trkpt>
      <trkpt lat="45.98098" lon="4.77936">
        <ele>246</ele>
        <time>2018-05-09T10:30:42Z</time>
      </trkpt>
      <trkpt lat="45.98094" lon="4.77936">
        <ele>246</ele>
        <time>2018-05-09T10:30:43Z</time>
      </trkpt>
      <trkpt lat="45.9809" lon="4.77936">
        <ele>246</ele>
        <time>2018-05-09T10:30:44Z</time>
      </trkpt>
      <trkpt lat="45.98085" lon="4.77938">
        <ele>246</ele>
        <time>2018-05-09T10:30:45Z</time>
      </trkpt>
      <trkpt lat="45.98076" lon="4.7794">
        <ele>247</ele>
        <time>2018-05-09T10:30:47Z</time>
      </trkpt>
      <trkpt lat="45.98072" lon="4.77941">
        <ele>247</ele>
        <time>2018-05-09T10:30:48Z</time>
      </trkpt>
      <trkpt lat="45.98067" lon="4.77941">
        <ele>247</ele>
        <time>2018-05-09T10:30:49Z</time>
      </trkpt>
      <trkpt lat="45.98062" lon="4.77941">
        <ele>247</ele>
        <time>2018-05-09T10:30:50Z</time>
      </trkpt>
      <trkpt lat="45.98057" lon="4.77939">
        <ele>247</ele>
        <time>2018-05-09T10:30:51Z</time>
      </trkpt>
      <trkpt lat="45.98053" lon="4.7794">
        <ele>247</ele>
        <time>2018-05-09T10:30:52Z</time>
      </trkpt>
      <trkpt lat="45.98047" lon="4.7794">
        <ele>247</ele>
        <time>2018-05-09T10:30:53Z</time>
      </trkpt>
      <trkpt lat="45.98042" lon="4.7794">
        <ele>247</ele>
        <time>2018-05-09T10:30:54Z</time>
      </trkpt>
      <trkpt lat="45.98036" lon="4.77942">
        <ele>247</ele>
        <time>2018-05-09T10:30:55Z</time>
      </trkpt>
      <trkpt lat="45.98031" lon="4.77942">
        <ele>247</ele>
        <time>2018-05-09T10:30:56Z</time>
      </trkpt>
      <trkpt lat="45.98026" lon="4.77943">
        <ele>247</ele>
        <time>2018-05-09T10:30:57Z</time>
      </trkpt>
      <trkpt lat="45.9802" lon="4.77944">
        <ele>247</ele>
        <time>2018-05-09T10:30:58Z</time>
      </trkpt>
      <trkpt lat="45.98014" lon="4.77945">
        <ele>247</ele>
        <time>2018-05-09T10:30:59Z</time>
      </trkpt>
      <trkpt lat="45.98009" lon="4.77946">
        <ele>247</ele>
        <time>2018-05-09T10:31:00Z</time>
      </trkpt>
      <trkpt lat="45.98004" lon="4.77946">
        <ele>247</ele>
        <time>2018-05-09T10:31:01Z</time>
      </trkpt>
      <trkpt lat="45.97999" lon="4.77948">
        <ele>246</ele>
        <time>2018-05-09T10:31:02Z</time>
      </trkpt>
      <trkpt lat="45.97993" lon="4.7795">
        <ele>246</ele>
        <time>2018-05-09T10:31:03Z</time>
      </trkpt>
      <trkpt lat="45.97989" lon="4.7795">
        <ele>246</ele>
        <time>2018-05-09T10:31:04Z</time>
      </trkpt>
      <trkpt lat="45.97982" lon="4.77951">
        <ele>246</ele>
        <time>2018-05-09T10:31:06Z</time>
      </trkpt>
      <trkpt lat="45.97977" lon="4.77952">
        <ele>246</ele>
        <time>2018-05-09T10:31:07Z</time>
      </trkpt>
      <trkpt lat="45.9797" lon="4.77954">
        <ele>246</ele>
        <time>2018-05-09T10:31:08Z</time>
      </trkpt>
      <trkpt lat="45.97965" lon="4.77955">
        <ele>246</ele>
        <time>2018-05-09T10:31:09Z</time>
      </trkpt>
      <trkpt lat="45.9796" lon="4.77956">
        <ele>246</ele>
        <time>2018-05-09T10:31:10Z</time>
      </trkpt>
      <trkpt lat="45.97955" lon="4.77956">
        <ele>246</ele>
        <time>2018-05-09T10:31:11Z</time>
      </trkpt>
      <trkpt lat="45.97949" lon="4.77958">
        <ele>246</ele>
        <time>2018-05-09T10:31:12Z</time>
      </trkpt>
      <trkpt lat="45.97945" lon="4.77958">
        <ele>246</ele>
        <time>2018-05-09T10:31:13Z</time>
      </trkpt>
      <trkpt lat="45.97939" lon="4.77959">
        <ele>246</ele>
        <time>2018-05-09T10:31:14Z</time>
      </trkpt>
      <trkpt lat="45.97934" lon="4.7796">
        <ele>246</ele>
        <time>2018-05-09T10:31:15Z</time>
      </trkpt>
      <trkpt lat="45.97929" lon="4.77961">
        <ele>246</ele>
        <time>2018-05-09T10:31:16Z</time>
      </trkpt>
      <trkpt lat="45.97924" lon="4.77961">
        <ele>246</ele>
        <time>2018-05-09T10:31:17Z</time>
      </trkpt>
      <trkpt lat="45.9792" lon="4.77961">
        <ele>246</ele>
        <time>2018-05-09T10:31:18Z</time>
      </trkpt>
      <trkpt lat="45.97915" lon="4.77962">
        <ele>246</ele>
        <time>2018-05-09T10:31:19Z</time>
      </trkpt>
      <trkpt lat="45.9791" lon="4.77963">
        <ele>246</ele>
        <time>2018-05-09T10:31:20Z</time>
      </trkpt>
      <trkpt lat="45.97904" lon="4.77964">
        <ele>246</ele>
        <time>2018-05-09T10:31:21Z</time>
      </trkpt>
      <trkpt lat="45.97898" lon="4.77965">
        <ele>246</ele>
        <time>2018-05-09T10:31:22Z</time>
      </trkpt>
      <trkpt lat="45.97894" lon="4.77967">
        <ele>246</ele>
        <time>2018-05-09T10:31:23Z</time>
      </trkpt>
      <trkpt lat="45.97889" lon="4.77969">
        <ele>246</ele>
        <time>2018-05-09T10:31:24Z</time>
      </trkpt>
      <trkpt lat="45.97884" lon="4.7797">
        <ele>246</ele>
        <time>2018-05-09T10:31:25Z</time>
      </trkpt>
      <trkpt lat="45.97879" lon="4.77971">
        <ele>246</ele>
        <time>2018-05-09T10:31:26Z</time>
      </trkpt>
      <trkpt lat="45.97875" lon="4.77972">
        <ele>246</ele>
        <time>2018-05-09T10:31:27Z</time>
      </trkpt>
      <trkpt lat="45.9787" lon="4.77974">
        <ele>246</ele>
        <time>2018-05-09T10:31:28Z</time>
      </trkpt>
      <trkpt lat="45.97866" lon="4.77975">
        <ele>246</ele>
        <time>2018-05-09T10:31:29Z</time>
      </trkpt>
      <trkpt lat="45.97861" lon="4.77977">
        <ele>246</ele>
        <time>2018-05-09T10:31:30Z</time>
      </trkpt>
      <trkpt lat="45.97856" lon="4.77979">
        <ele>246</ele>
        <time>2018-05-09T10:31:31Z</time>
      </trkpt>
      <trkpt lat="45.97852" lon="4.7798">
        <ele>246</ele>
        <time>2018-05-09T10:31:32Z</time>
      </trkpt>
      <trkpt lat="45.97847" lon="4.77982">
        <ele>246</ele>
        <time>2018-05-09T10:31:33Z</time>
      </trkpt>
      <trkpt lat="45.97842" lon="4.77984">
        <ele>246</ele>
        <time>2018-05-09T10:31:34Z</time>
      </trkpt>
      <trkpt lat="45.97836" lon="4.77986">
        <ele>246</ele>
        <time>2018-05-09T10:31:35Z</time>
      </trkpt>
      <trkpt lat="45.97831" lon="4.77988">
        <ele>246</ele>
        <time>2018-05-09T10:31:36Z</time>
      </trkpt>
      <trkpt lat="45.97827" lon="4.7799">
        <ele>246</ele>
        <time>2018-05-09T10:31:37Z</time>
      </trkpt>
      <trkpt lat="45.97822" lon="4.77992">
        <ele>246</ele>
        <time>2018-05-09T10:31:38Z</time>
      </trkpt>
      <trkpt lat="45.97816" lon="4.77995">
        <ele>246</ele>
        <time>2018-05-09T10:31:39Z</time>
      </trkpt>
      <trkpt lat="45.97812" lon="4.77998">
        <ele>246</ele>
        <time>2018-05-09T10:31:40Z</time>
      </trkpt>
      <trkpt lat="45.97806" lon="4.77999">
        <ele>246</ele>
        <time>2018-05-09T10:31:41Z</time>
      </trkpt>
      <trkpt lat="45.978" lon="4.78002">
        <ele>246</ele>
        <time>2018-05-09T10:31:42Z</time>
      </trkpt>
      <trkpt lat="45.97794" lon="4.78005">
        <ele>246</ele>
        <time>2018-05-09T10:31:43Z</time>
      </trkpt>
      <trkpt lat="45.9779" lon="4.78007">
        <ele>246</ele>
        <time>2018-05-09T10:31:44Z</time>
      </trkpt>
      <trkpt lat="45.97784" lon="4.7801">
        <ele>246</ele>
        <time>2018-05-09T10:31:45Z</time>
      </trkpt>
      <trkpt lat="45.9778" lon="4.78013">
        <ele>246</ele>
        <time>2018-05-09T10:31:46Z</time>
      </trkpt>
      <trkpt lat="45.97774" lon="4.78016">
        <ele>246</ele>
        <time>2018-05-09T10:31:47Z</time>
      </trkpt>
      <trkpt lat="45.97768" lon="4.78018">
        <ele>246</ele>
        <time>2018-05-09T10:31:48Z</time>
      </trkpt>
      <trkpt lat="45.97762" lon="4.7802">
        <ele>246</ele>
        <time>2018-05-09T10:31:49Z</time>
      </trkpt>
      <trkpt lat="45.97757" lon="4.78023">
        <ele>246</ele>
        <time>2018-05-09T10:31:50Z</time>
      </trkpt>
      <trkpt lat="45.97751" lon="4.78024">
        <ele>246</ele>
        <time>2018-05-09T10:31:51Z</time>
      </trkpt>
      <trkpt lat="45.97745" lon="4.78027">
        <ele>247</ele>
        <time>2018-05-09T10:31:52Z</time>
      </trkpt>
      <trkpt lat="45.97739" lon="4.78029">
        <ele>247</ele>
        <time>2018-05-09T10:31:53Z</time>
      </trkpt>
      <trkpt lat="45.97733" lon="4.78032">
        <ele>247</ele>
        <time>2018-05-09T10:31:54Z</time>
      </trkpt>
      <trkpt lat="45.97727" lon="4.78035">
        <ele>247</ele>
        <time>2018-05-09T10:31:55Z</time>
      </trkpt>
      <trkpt lat="45.97721" lon="4.78037">
        <ele>247</ele>
        <time>2018-05-09T10:31:56Z</time>
      </trkpt>
      <trkpt lat="45.97715" lon="4.7804">
        <ele>247</ele>
        <time>2018-05-09T10:31:57Z</time>
      </trkpt>
      <trkpt lat="45.97709" lon="4.78042">
        <ele>247</ele>
        <time>2018-05-09T10:31:58Z</time>
      </trkpt>
      <trkpt lat="45.97702" lon="4.78045">
        <ele>247</ele>
        <time>2018-05-09T10:31:59Z</time>
      </trkpt>
      <trkpt lat="45.97696" lon="4.78047">
        <ele>247</ele>
        <time>2018-05-09T10:32:00Z</time>
      </trkpt>
      <trkpt lat="45.97692" lon="4.78052">
        <ele>247</ele>
        <time>2018-05-09T10:32:01Z</time>
      </trkpt>
      <trkpt lat="45.97685" lon="4.78054">
        <ele>247</ele>
        <time>2018-05-09T10:32:02Z</time>
      </trkpt>
      <trkpt lat="45.97678" lon="4.78058">
        <ele>248</ele>
        <time>2018-05-09T10:32:03Z</time>
      </trkpt>
      <trkpt lat="45.97672" lon="4.78061">
        <ele>248</ele>
        <time>2018-05-09T10:32:04Z</time>
      </trkpt>
      <trkpt lat="45.97665" lon="4.78064">
        <ele>247</ele>
        <time>2018-05-09T10:32:05Z</time>
      </trkpt>
      <trkpt lat="45.97659" lon="4.78068">
        <ele>247</ele>
        <time>2018-05-09T10:32:06Z</time>
      </trkpt>
      <trkpt lat="45.97652" lon="4.7807">
        <ele>247</ele>
        <time>2018-05-09T10:32:07Z</time>
      </trkpt>
      <trkpt lat="45.97646" lon="4.78073">
        <ele>247</ele>
        <time>2018-05-09T10:32:08Z</time>
      </trkpt>
      <trkpt lat="45.97641" lon="4.78077">
        <ele>247</ele>
        <time>2018-05-09T10:32:09Z</time>
      </trkpt>
      <trkpt lat="45.97635" lon="4.78084">
        <ele>247</ele>
        <time>2018-05-09T10:32:10Z</time>
      </trkpt>
      <trkpt lat="45.97629" lon="4.78091">
        <ele>247</ele>
        <time>2018-05-09T10:32:11Z</time>
      </trkpt>
      <trkpt lat="45.97625" lon="4.78097">
        <ele>246</ele>
        <time>2018-05-09T10:32:12Z</time>
      </trkpt>
      <trkpt lat="45.97619" lon="4.78104">
        <ele>246</ele>
        <time>2018-05-09T10:32:13Z</time>
      </trkpt>
      <trkpt lat="45.97613" lon="4.7811">
        <ele>246</ele>
        <time>2018-05-09T10:32:14Z</time>
      </trkpt>
      <trkpt lat="45.97608" lon="4.78117">
        <ele>246</ele>
        <time>2018-05-09T10:32:15Z</time>
      </trkpt>
      <trkpt lat="45.97603" lon="4.78123">
        <ele>245</ele>
        <time>2018-05-09T10:32:16Z</time>
      </trkpt>
      <trkpt lat="45.97598" lon="4.7813">
        <ele>245</ele>
        <time>2018-05-09T10:32:17Z</time>
      </trkpt>
      <trkpt lat="45.97592" lon="4.78137">
        <ele>245</ele>
        <time>2018-05-09T10:32:18Z</time>
      </trkpt>
      <trkpt lat="45.97586" lon="4.78144">
        <ele>244</ele>
        <time>2018-05-09T10:32:19Z</time>
      </trkpt>
      <trkpt lat="45.97579" lon="4.78152">
        <ele>242</ele>
        <time>2018-05-09T10:32:20Z</time>
      </trkpt>
      <trkpt lat="45.97571" lon="4.7816">
        <ele>242</ele>
        <time>2018-05-09T10:32:21Z</time>
      </trkpt>
      <trkpt lat="45.97564" lon="4.78169">
        <ele>240</ele>
        <time>2018-05-09T10:32:22Z</time>
      </trkpt>
      <trkpt lat="45.97556" lon="4.78178">
        <ele>239</ele>
        <time>2018-05-09T10:32:23Z</time>
      </trkpt>
      <trkpt lat="45.97547" lon="4.78187">
        <ele>239</ele>
        <time>2018-05-09T10:32:24Z</time>
      </trkpt>
      <trkpt lat="45.97538" lon="4.78198">
        <ele>239</ele>
        <time>2018-05-09T10:32:25Z</time>
      </trkpt>
      <trkpt lat="45.97529" lon="4.78209">
        <ele>238</ele>
        <time>2018-05-09T10:32:26Z</time>
      </trkpt>
      <trkpt lat="45.9752" lon="4.78219">
        <ele>238</ele>
        <time>2018-05-09T10:32:27Z</time>
      </trkpt>
      <trkpt lat="45.97511" lon="4.78229">
        <ele>237</ele>
        <time>2018-05-09T10:32:28Z</time>
      </trkpt>
      <trkpt lat="45.97501" lon="4.7824">
        <ele>237</ele>
        <time>2018-05-09T10:32:29Z</time>
      </trkpt>
      <trkpt lat="45.97492" lon="4.78252">
        <ele>235</ele>
        <time>2018-05-09T10:32:30Z</time>
      </trkpt>
      <trkpt lat="45.97483" lon="4.78263">
        <ele>235</ele>
        <time>2018-05-09T10:32:31Z</time>
      </trkpt>
      <trkpt lat="45.97474" lon="4.78273">
        <ele>235</ele>
        <time>2018-05-09T10:32:32Z</time>
      </trkpt>
      <trkpt lat="45.97464" lon="4.78283">
        <ele>234</ele>
        <time>2018-05-09T10:32:33Z</time>
      </trkpt>
      <trkpt lat="45.97456" lon="4.78294">
        <ele>234</ele>
        <time>2018-05-09T10:32:34Z</time>
      </trkpt>
      <trkpt lat="45.97448" lon="4.78303">
        <ele>234</ele>
        <time>2018-05-09T10:32:35Z</time>
      </trkpt>
      <trkpt lat="45.9744" lon="4.78314">
        <ele>234</ele>
        <time>2018-05-09T10:32:36Z</time>
      </trkpt>
      <trkpt lat="45.97431" lon="4.78324">
        <ele>234</ele>
        <time>2018-05-09T10:32:37Z</time>
      </trkpt>
      <trkpt lat="45.97423" lon="4.78332">
        <ele>233</ele>
        <time>2018-05-09T10:32:38Z</time>
      </trkpt>
      <trkpt lat="45.97415" lon="4.78342">
        <ele>233</ele>
        <time>2018-05-09T10:32:39Z</time>
      </trkpt>
      <trkpt lat="45.97407" lon="4.78352">
        <ele>233</ele>
        <time>2018-05-09T10:32:40Z</time>
      </trkpt>
      <trkpt lat="45.97398" lon="4.7836">
        <ele>233</ele>
        <time>2018-05-09T10:32:41Z</time>
      </trkpt>
      <trkpt lat="45.97391" lon="4.78369">
        <ele>233</ele>
        <time>2018-05-09T10:32:42Z</time>
      </trkpt>
      <trkpt lat="45.97383" lon="4.78377">
        <ele>233</ele>
        <time>2018-05-09T10:32:43Z</time>
      </trkpt>
      <trkpt lat="45.97376" lon="4.78385">
        <ele>233</ele>
        <time>2018-05-09T10:32:44Z</time>
      </trkpt>
      <trkpt lat="45.9737" lon="4.78395">
        <ele>233</ele>
        <time>2018-05-09T10:32:45Z</time>
      </trkpt>
      <trkpt lat="45.97365" lon="4.784">
        <ele>233</ele>
        <time>2018-05-09T10:32:46Z</time>
      </trkpt>
      <trkpt lat="45.9736" lon="4.78403">
        <ele>233</ele>
        <time>2018-05-09T10:32:47Z</time>
      </trkpt>
      <trkpt lat="45.97355" lon="4.78404">
        <ele>232</ele>
        <time>2018-05-09T10:32:48Z</time>
      </trkpt>
      <trkpt lat="45.9735" lon="4.78401">
        <ele>232</ele>
        <time>2018-05-09T10:32:49Z</time>
      </trkpt>
      <trkpt lat="45.97346" lon="4.78396">
        <ele>232</ele>
        <time>2018-05-09T10:32:50Z</time>
      </trkpt>
      <trkpt lat="45.97341" lon="4.78391">
        <ele>233</ele>
        <time>2018-05-09T10:32:51Z</time>
      </trkpt>
      <trkpt lat="45.97337" lon="4.78385">
        <ele>233</ele>
        <time>2018-05-09T10:32:52Z</time>
      </trkpt>
      <trkpt lat="45.97333" lon="4.7838">
        <ele>232</ele>
        <time>2018-05-09T10:32:53Z</time>
      </trkpt>
      <trkpt lat="45.97327" lon="4.78375">
        <ele>232</ele>
        <time>2018-05-09T10:32:54Z</time>
      </trkpt>
      <trkpt lat="45.97322" lon="4.78368">
        <ele>232</ele>
        <time>2018-05-09T10:32:55Z</time>
      </trkpt>
      <trkpt lat="45.97317" lon="4.78361">
        <ele>232</ele>
        <time>2018-05-09T10:32:56Z</time>
      </trkpt>
      <trkpt lat="45.97312" lon="4.78355">
        <ele>232</ele>
        <time>2018-05-09T10:32:57Z</time>
      </trkpt>
      <trkpt lat="45.97308" lon="4.78349">
        <ele>232</ele>
        <time>2018-05-09T10:32:58Z</time>
      </trkpt>
      <trkpt lat="45.97303" lon="4.78343">
        <ele>232</ele>
        <time>2018-05-09T10:32:59Z</time>
      </trkpt>
      <trkpt lat="45.97298" lon="4.78337">
        <ele>232</ele>
        <time>2018-05-09T10:33:00Z</time>
      </trkpt>
      <trkpt lat="45.97294" lon="4.78331">
        <ele>232</ele>
        <time>2018-05-09T10:33:01Z</time>
      </trkpt>
      <trkpt lat="45.97291" lon="4.78325">
        <ele>232</ele>
        <time>2018-05-09T10:33:02Z</time>
      </trkpt>
      <trkpt lat="45.97286" lon="4.78319">
        <ele>232</ele>
        <time>2018-05-09T10:33:03Z</time>
      </trkpt>
      <trkpt lat="45.97282" lon="4.78314">
        <ele>232</ele>
        <time>2018-05-09T10:33:04Z</time>
      </trkpt>
      <trkpt lat="45.97278" lon="4.78307">
        <ele>232</ele>
        <time>2018-05-09T10:33:05Z</time>
      </trkpt>
      <trkpt lat="45.97275" lon="4.783">
        <ele>232</ele>
        <time>2018-05-09T10:33:06Z</time>
      </trkpt>
      <trkpt lat="45.97271" lon="4.78295">
        <ele>232</ele>
        <time>2018-05-09T10:33:07Z</time>
      </trkpt>
      <trkpt lat="45.97267" lon="4.78287">
        <ele>232</ele>
        <time>2018-05-09T10:33:08Z</time>
      </trkpt>
      <trkpt lat="45.97262" lon="4.78281">
        <ele>232</ele>
        <time>2018-05-09T10:33:09Z</time>
      </trkpt>
      <trkpt lat="45.97257" lon="4.78276">
        <ele>232</ele>
        <time>2018-05-09T10:33:10Z</time>
      </trkpt>
      <trkpt lat="45.97253" lon="4.78269">
        <ele>231</ele>
        <time>2018-05-09T10:33:11Z</time>
      </trkpt>
      <trkpt lat="45.97249" lon="4.78263">
        <ele>231</ele>
        <time>2018-05-09T10:33:12Z</time>
      </trkpt>
      <trkpt lat="45.97244" lon="4.78257">
        <ele>231</ele>
        <time>2018-05-09T10:33:13Z</time>
      </trkpt>
      <trkpt lat="45.97239" lon="4.78252">
        <ele>231</ele>
        <time>2018-05-09T10:33:14Z</time>
      </trkpt>
      <trkpt lat="45.97233" lon="4.78247">
        <ele>231</ele>
        <time>2018-05-09T10:33:15Z</time>
      </trkpt>
      <trkpt lat="45.97228" lon="4.78244">
        <ele>231</ele>
        <time>2018-05-09T10:33:16Z</time>
      </trkpt>
      <trkpt lat="45.97221" lon="4.78246">
        <ele>231</ele>
        <time>2018-05-09T10:33:17Z</time>
      </trkpt>
      <trkpt lat="45.97216" lon="4.7825">
        <ele>231</ele>
        <time>2018-05-09T10:33:18Z</time>
      </trkpt>
      <trkpt lat="45.97212" lon="4.78254">
        <ele>231</ele>
        <time>2018-05-09T10:33:19Z</time>
      </trkpt>
      <trkpt lat="45.97206" lon="4.78259">
        <ele>230</ele>
        <time>2018-05-09T10:33:20Z</time>
      </trkpt>
      <trkpt lat="45.972" lon="4.78263">
        <ele>230</ele>
        <time>2018-05-09T10:33:21Z</time>
      </trkpt>
      <trkpt lat="45.97193" lon="4.78268">
        <ele>230</ele>
        <time>2018-05-09T10:33:22Z</time>
      </trkpt>
      <trkpt lat="45.97187" lon="4.78272">
        <ele>230</ele>
        <time>2018-05-09T10:33:23Z</time>
      </trkpt>
      <trkpt lat="45.97181" lon="4.78278">
        <ele>230</ele>
        <time>2018-05-09T10:33:24Z</time>
      </trkpt>
      <trkpt lat="45.97176" lon="4.78283">
        <ele>230</ele>
        <time>2018-05-09T10:33:25Z</time>
      </trkpt>
      <trkpt lat="45.97169" lon="4.78287">
        <ele>230</ele>
        <time>2018-05-09T10:33:26Z</time>
      </trkpt>
      <trkpt lat="45.97163" lon="4.78291">
        <ele>230</ele>
        <time>2018-05-09T10:33:27Z</time>
      </trkpt>
      <trkpt lat="45.97157" lon="4.78296">
        <ele>230</ele>
        <time>2018-05-09T10:33:28Z</time>
      </trkpt>
      <trkpt lat="45.97151" lon="4.783">
        <ele>230</ele>
        <time>2018-05-09T10:33:29Z</time>
      </trkpt>
      <trkpt lat="45.97144" lon="4.78305">
        <ele>230</ele>
        <time>2018-05-09T10:33:30Z</time>
      </trkpt>
      <trkpt lat="45.97139" lon="4.78309">
        <ele>230</ele>
        <time>2018-05-09T10:33:31Z</time>
      </trkpt>
      <trkpt lat="45.97134" lon="4.78315">
        <ele>230</ele>
        <time>2018-05-09T10:33:32Z</time>
      </trkpt>
      <trkpt lat="45.97128" lon="4.78319">
        <ele>230</ele>
        <time>2018-05-09T10:33:33Z</time>
      </trkpt>
      <trkpt lat="45.97122" lon="4.78324">
        <ele>231</ele>
        <time>2018-05-09T10:33:34Z</time>
      </trkpt>
      <trkpt lat="45.97116" lon="4.78329">
        <ele>231</ele>
        <time>2018-05-09T10:33:35Z</time>
      </trkpt>
      <trkpt lat="45.9711" lon="4.78334">
        <ele>231</ele>
        <time>2018-05-09T10:33:36Z</time>
      </trkpt>
      <trkpt lat="45.97103" lon="4.7834">
        <ele>231</ele>
        <time>2018-05-09T10:33:37Z</time>
      </trkpt>
      <trkpt lat="45.97096" lon="4.78345">
        <ele>231</ele>
        <time>2018-05-09T10:33:38Z</time>
      </trkpt>
      <trkpt lat="45.9709" lon="4.7835">
        <ele>231</ele>
        <time>2018-05-09T10:33:39Z</time>
      </trkpt>
      <trkpt lat="45.97084" lon="4.78355">
        <ele>231</ele>
        <time>2018-05-09T10:33:40Z</time>
      </trkpt>
      <trkpt lat="45.97078" lon="4.78359">
        <ele>230</ele>
        <time>2018-05-09T10:33:41Z</time>
      </trkpt>
      <trkpt lat="45.97072" lon="4.78366">
        <ele>230</ele>
        <time>2018-05-09T10:33:42Z</time>
      </trkpt>
      <trkpt lat="45.97065" lon="4.78371">
        <ele>230</ele>
        <time>2018-05-09T10:33:43Z</time>
      </trkpt>
      <trkpt lat="45.9706" lon="4.78376">
        <ele>229</ele>
        <time>2018-05-09T10:33:44Z</time>
      </trkpt>
      <trkpt lat="45.97053" lon="4.78382">
        <ele>229</ele>
        <time>2018-05-09T10:33:45Z</time>
      </trkpt>
      <trkpt lat="45.97047" lon="4.78386">
        <ele>229</ele>
        <time>2018-05-09T10:33:46Z</time>
      </trkpt>
      <trkpt lat="45.9704" lon="4.78391">
        <ele>229</ele>
        <time>2018-05-09T10:33:47Z</time>
      </trkpt>
      <trkpt lat="45.97034" lon="4.78396">
        <ele>229</ele>
        <time>2018-05-09T10:33:48Z</time>
      </trkpt>
      <trkpt lat="45.97026" lon="4.78402">
        <ele>229</ele>
        <time>2018-05-09T10:33:49Z</time>
      </trkpt>
      <trkpt lat="45.97019" lon="4.78407">
        <ele>228</ele>
        <time>2018-05-09T10:33:50Z</time>
      </trkpt>
      <trkpt lat="45.97011" lon="4.78413">
        <ele>228</ele>
        <time>2018-05-09T10:33:51Z</time>
      </trkpt>
      <trkpt lat="45.97003" lon="4.7842">
        <ele>227</ele>
        <time>2018-05-09T10:33:52Z</time>
      </trkpt>
      <trkpt lat="45.96993" lon="4.78425">
        <ele>225</ele>
        <time>2018-05-09T10:33:53Z</time>
      </trkpt>
      <trkpt lat="45.96983" lon="4.78428">
        <ele>224</ele>
        <time>2018-05-09T10:33:54Z</time>
      </trkpt>
      <trkpt lat="45.96972" lon="4.78429">
        <ele>223</ele>
        <time>2018-05-09T10:33:55Z</time>
      </trkpt>
      <trkpt lat="45.96962" lon="4.78429">
        <ele>223</ele>
        <time>2018-05-09T10:33:56Z</time>
      </trkpt>
      <trkpt lat="45.96951" lon="4.78431">
        <ele>222</ele>
        <time>2018-05-09T10:33:57Z</time>
      </trkpt>
      <trkpt lat="45.9694" lon="4.78434">
        <ele>222</ele>
        <time>2018-05-09T10:33:58Z</time>
      </trkpt>
      <trkpt lat="45.9693" lon="4.78441">
        <ele>221</ele>
        <time>2018-05-09T10:33:59Z</time>
      </trkpt>
      <trkpt lat="45.96922" lon="4.78451">
        <ele>221</ele>
        <time>2018-05-09T10:34:00Z</time>
      </trkpt>
      <trkpt lat="45.96914" lon="4.78463">
        <ele>214</ele>
        <time>2018-05-09T10:34:01Z</time>
      </trkpt>
      <trkpt lat="45.96906" lon="4.78474">
        <ele>214</ele>
        <time>2018-05-09T10:34:02Z</time>
      </trkpt>
      <trkpt lat="45.96897" lon="4.78485">
        <ele>213</ele>
        <time>2018-05-09T10:34:03Z</time>
      </trkpt>
      <trkpt lat="45.96888" lon="4.78494">
        <ele>213</ele>
        <time>2018-05-09T10:34:04Z</time>
      </trkpt>
      <trkpt lat="45.96881" lon="4.78504">
        <ele>209</ele>
        <time>2018-05-09T10:34:05Z</time>
      </trkpt>
      <trkpt lat="45.96873" lon="4.78514">
        <ele>208</ele>
        <time>2018-05-09T10:34:06Z</time>
      </trkpt>
      <trkpt lat="45.96865" lon="4.78522">
        <ele>207</ele>
        <time>2018-05-09T10:34:07Z</time>
      </trkpt>
      <trkpt lat="45.96857" lon="4.78531">
        <ele>207</ele>
        <time>2018-05-09T10:34:08Z</time>
      </trkpt>
      <trkpt lat="45.9685" lon="4.78539">
        <ele>207</ele>
        <time>2018-05-09T10:34:09Z</time>
      </trkpt>
      <trkpt lat="45.96844" lon="4.78549">
        <ele>206</ele>
        <time>2018-05-09T10:34:10Z</time>
      </trkpt>
      <trkpt lat="45.96838" lon="4.78557">
        <ele>206</ele>
        <time>2018-05-09T10:34:11Z</time>
      </trkpt>
      <trkpt lat="45.96832" lon="4.78563">
        <ele>203</ele>
        <time>2018-05-09T10:34:12Z</time>
      </trkpt>
      <trkpt lat="45.96828" lon="4.78566">
        <ele>203</ele>
        <time>2018-05-09T10:34:13Z</time>
      </trkpt>
      <trkpt lat="45.96826" lon="4.78567">
        <ele>203</ele>
        <time>2018-05-09T10:34:14Z</time>
      </trkpt>
      <trkpt lat="45.96819" lon="4.78571">
        <ele>203</ele>
        <time>2018-05-09T10:34:15Z</time>
      </trkpt>
      <trkpt lat="45.96815" lon="4.78569">
        <ele>203</ele>
        <time>2018-05-09T10:34:16Z</time>
      </trkpt>
      <trkpt lat="45.9681" lon="4.78565">
        <ele>203</ele>
        <time>2018-05-09T10:34:17Z</time>
      </trkpt>
      <trkpt lat="45.96805" lon="4.78556">
        <ele>203</ele>
        <time>2018-05-09T10:34:19Z</time>
      </trkpt>
      <trkpt lat="45.968" lon="4.7855">
        <ele>203</ele>
        <time>2018-05-09T10:34:20Z</time>
      </trkpt>
      <trkpt lat="45.96796" lon="4.78544">
        <ele>203</ele>
        <time>2018-05-09T10:34:21Z</time>
      </trkpt>
      <trkpt lat="45.96792" lon="4.78538">
        <ele>203</ele>
        <time>2018-05-09T10:34:22Z</time>
      </trkpt>
      <trkpt lat="45.96788" lon="4.78531">
        <ele>203</ele>
        <time>2018-05-09T10:34:23Z</time>
      </trkpt>
      <trkpt lat="45.96784" lon="4.78526">
        <ele>203</ele>
        <time>2018-05-09T10:34:24Z</time>
      </trkpt>
      <trkpt lat="45.9678" lon="4.7852">
        <ele>203</ele>
        <time>2018-05-09T10:34:25Z</time>
      </trkpt>
      <trkpt lat="45.96776" lon="4.78514">
        <ele>203</ele>
        <time>2018-05-09T10:34:26Z</time>
      </trkpt>
      <trkpt lat="45.96772" lon="4.78508">
        <ele>203</ele>
        <time>2018-05-09T10:34:27Z</time>
      </trkpt>
      <trkpt lat="45.9677" lon="4.78503">
        <ele>203</ele>
        <time>2018-05-09T10:34:28Z</time>
      </trkpt>
      <trkpt lat="45.96766" lon="4.78497">
        <ele>205</ele>
        <time>2018-05-09T10:34:29Z</time>
      </trkpt>
      <trkpt lat="45.9676" lon="4.78492">
        <ele>204</ele>
        <time>2018-05-09T10:34:30Z</time>
      </trkpt>
      <trkpt lat="45.96757" lon="4.78487">
        <ele>204</ele>
        <time>2018-05-09T10:34:31Z</time>
      </trkpt>
      <trkpt lat="45.96752" lon="4.78482">
        <ele>205</ele>
        <time>2018-05-09T10:34:32Z</time>
      </trkpt>
      <trkpt lat="45.96747" lon="4.78478">
        <ele>203</ele>
        <time>2018-05-09T10:34:33Z</time>
      </trkpt>
      <trkpt lat="45.96742" lon="4.78473">
        <ele>203</ele>
        <time>2018-05-09T10:34:34Z</time>
      </trkpt>
      <trkpt lat="45.96738" lon="4.78469">
        <ele>203</ele>
        <time>2018-05-09T10:34:35Z</time>
      </trkpt>
      <trkpt lat="45.96733" lon="4.78465">
        <ele>203</ele>
        <time>2018-05-09T10:34:36Z</time>
      </trkpt>
      <trkpt lat="45.96729" lon="4.78461">
        <ele>203</ele>
        <time>2018-05-09T10:34:37Z</time>
      </trkpt>
      <trkpt lat="45.96725" lon="4.78458">
        <ele>203</ele>
        <time>2018-05-09T10:34:38Z</time>
      </trkpt>
      <trkpt lat="45.9672" lon="4.78455">
        <ele>203</ele>
        <time>2018-05-09T10:34:39Z</time>
      </trkpt>
      <trkpt lat="45.96716" lon="4.78452">
        <ele>203</ele>
        <time>2018-05-09T10:34:40Z</time>
      </trkpt>
      <trkpt lat="45.96712" lon="4.78447">
        <ele>203</ele>
        <time>2018-05-09T10:34:41Z</time>
      </trkpt>
      <trkpt lat="45.96707" lon="4.78443">
        <ele>203</ele>
        <time>2018-05-09T10:34:42Z</time>
      </trkpt>
      <trkpt lat="45.96701" lon="4.78435">
        <ele>203</ele>
        <time>2018-05-09T10:34:44Z</time>
      </trkpt>
      <trkpt lat="45.96697" lon="4.7843">
        <ele>203</ele>
        <time>2018-05-09T10:34:45Z</time>
      </trkpt>
      <trkpt lat="45.96694" lon="4.78426">
        <ele>202</ele>
        <time>2018-05-09T10:34:46Z</time>
      </trkpt>
      <trkpt lat="45.96691" lon="4.7842">
        <ele>202</ele>
        <time>2018-05-09T10:34:47Z</time>
      </trkpt>
      <trkpt lat="45.96686" lon="4.78417">
        <ele>204</ele>
        <time>2018-05-09T10:34:48Z</time>
      </trkpt>
      <trkpt lat="45.96682" lon="4.78412">
        <ele>204</ele>
        <time>2018-05-09T10:34:49Z</time>
      </trkpt>
      <trkpt lat="45.96678" lon="4.78407">
        <ele>204</ele>
        <time>2018-05-09T10:34:50Z</time>
      </trkpt>
      <trkpt lat="45.96674" lon="4.78403">
        <ele>204</ele>
        <time>2018-05-09T10:34:51Z</time>
      </trkpt>
      <trkpt lat="45.96669" lon="4.78399">
        <ele>204</ele>
        <time>2018-05-09T10:34:52Z</time>
      </trkpt>
      <trkpt lat="45.96664" lon="4.78394">
        <ele>201</ele>
        <time>2018-05-09T10:34:53Z</time>
      </trkpt>
      <trkpt lat="45.9666" lon="4.78388">
        <ele>201</ele>
        <time>2018-05-09T10:34:54Z</time>
      </trkpt>
      <trkpt lat="45.96655" lon="4.78384">
        <ele>201</ele>
        <time>2018-05-09T10:34:55Z</time>
      </trkpt>
      <trkpt lat="45.9665" lon="4.78379">
        <ele>201</ele>
        <time>2018-05-09T10:34:56Z</time>
      </trkpt>
      <trkpt lat="45.96645" lon="4.78375">
        <ele>201</ele>
        <time>2018-05-09T10:34:57Z</time>
      </trkpt>
      <trkpt lat="45.9664" lon="4.7837">
        <ele>201</ele>
        <time>2018-05-09T10:34:58Z</time>
      </trkpt>
      <trkpt lat="45.96635" lon="4.78366">
        <ele>201</ele>
        <time>2018-05-09T10:34:59Z</time>
      </trkpt>
      <trkpt lat="45.9663" lon="4.78361">
        <ele>201</ele>
        <time>2018-05-09T10:35:00Z</time>
      </trkpt>
      <trkpt lat="45.96626" lon="4.78357">
        <ele>201</ele>
        <time>2018-05-09T10:35:01Z</time>
      </trkpt>
      <trkpt lat="45.96621" lon="4.78352">
        <ele>201</ele>
        <time>2018-05-09T10:35:02Z</time>
      </trkpt>
      <trkpt lat="45.96616" lon="4.78347">
        <ele>201</ele>
        <time>2018-05-09T10:35:03Z</time>
      </trkpt>
      <trkpt lat="45.96611" lon="4.78341">
        <ele>200</ele>
        <time>2018-05-09T10:35:04Z</time>
      </trkpt>
      <trkpt lat="45.96605" lon="4.78337">
        <ele>200</ele>
        <time>2018-05-09T10:35:05Z</time>
      </trkpt>
      <trkpt lat="45.966" lon="4.78331">
        <ele>202</ele>
        <time>2018-05-09T10:35:06Z</time>
      </trkpt>
      <trkpt lat="45.96595" lon="4.78327">
        <ele>202</ele>
        <time>2018-05-09T10:35:07Z</time>
      </trkpt>
      <trkpt lat="45.9659" lon="4.78321">
        <ele>202</ele>
        <time>2018-05-09T10:35:08Z</time>
      </trkpt>
      <trkpt lat="45.96584" lon="4.78316">
        <ele>202</ele>
        <time>2018-05-09T10:35:09Z</time>
      </trkpt>
      <trkpt lat="45.96579" lon="4.78311">
        <ele>199</ele>
        <time>2018-05-09T10:35:10Z</time>
      </trkpt>
      <trkpt lat="45.96573" lon="4.78305">
        <ele>200</ele>
        <time>2018-05-09T10:35:11Z</time>
      </trkpt>
      <trkpt lat="45.9657" lon="4.78301">
        <ele>200</ele>
        <time>2018-05-09T10:35:12Z</time>
      </trkpt>
      <trkpt lat="45.96565" lon="4.78295">
        <ele>200</ele>
        <time>2018-05-09T10:35:13Z</time>
      </trkpt>
      <trkpt lat="45.9656" lon="4.78289">
        <ele>200</ele>
        <time>2018-05-09T10:35:14Z</time>
      </trkpt>
      <trkpt lat="45.96556" lon="4.78283">
        <ele>200</ele>
        <time>2018-05-09T10:35:15Z</time>
      </trkpt>
      <trkpt lat="45.9655" lon="4.78277">
        <ele>200</ele>
        <time>2018-05-09T10:35:16Z</time>
      </trkpt>
      <trkpt lat="45.96546" lon="4.78271">
        <ele>200</ele>
        <time>2018-05-09T10:35:17Z</time>
      </trkpt>
      <trkpt lat="45.96541" lon="4.78265">
        <ele>200</ele>
        <time>2018-05-09T10:35:18Z</time>
      </trkpt>
      <trkpt lat="45.96536" lon="4.7826">
        <ele>200</ele>
        <time>2018-05-09T10:35:19Z</time>
      </trkpt>
      <trkpt lat="45.96532" lon="4.78253">
        <ele>200</ele>
        <time>2018-05-09T10:35:20Z</time>
      </trkpt>
      <trkpt lat="45.96528" lon="4.78246">
        <ele>204</ele>
        <time>2018-05-09T10:35:21Z</time>
      </trkpt>
      <trkpt lat="45.96523" lon="4.78239">
        <ele>204</ele>
        <time>2018-05-09T10:35:22Z</time>
      </trkpt>
      <trkpt lat="45.9652" lon="4.78232">
        <ele>204</ele>
        <time>2018-05-09T10:35:23Z</time>
      </trkpt>
      <trkpt lat="45.96516" lon="4.78225">
        <ele>204</ele>
        <time>2018-05-09T10:35:24Z</time>
      </trkpt>
      <trkpt lat="45.96513" lon="4.78218">
        <ele>205</ele>
        <time>2018-05-09T10:35:25Z</time>
      </trkpt>
      <trkpt lat="45.96507" lon="4.78211">
        <ele>205</ele>
        <time>2018-05-09T10:35:26Z</time>
      </trkpt>
      <trkpt lat="45.96502" lon="4.78205">
        <ele>205</ele>
        <time>2018-05-09T10:35:27Z</time>
      </trkpt>
      <trkpt lat="45.96498" lon="4.782">
        <ele>201</ele>
        <time>2018-05-09T10:35:28Z</time>
      </trkpt>
      <trkpt lat="45.96493" lon="4.78196">
        <ele>201</ele>
        <time>2018-05-09T10:35:29Z</time>
      </trkpt>
      <trkpt lat="45.96488" lon="4.78192">
        <ele>201</ele>
        <time>2018-05-09T10:35:30Z</time>
      </trkpt>
      <trkpt lat="45.96483" lon="4.78188">
        <ele>201</ele>
        <time>2018-05-09T10:35:31Z</time>
      </trkpt>
      <trkpt lat="45.96477" lon="4.78185">
        <ele>201</ele>
        <time>2018-05-09T10:35:32Z</time>
      </trkpt>
      <trkpt lat="45.9647" lon="4.78182">
        <ele>200</ele>
        <time>2018-05-09T10:35:33Z</time>
      </trkpt>
      <trkpt lat="45.96465" lon="4.78178">
        <ele>200</ele>
        <time>2018-05-09T10:35:34Z</time>
      </trkpt>
      <trkpt lat="45.9646" lon="4.78173">
        <ele>200</ele>
        <time>2018-05-09T10:35:35Z</time>
      </trkpt>
      <trkpt lat="45.96455" lon="4.78169">
        <ele>200</ele>
        <time>2018-05-09T10:35:36Z</time>
      </trkpt>
      <trkpt lat="45.9645" lon="4.78164">
        <ele>204</ele>
        <time>2018-05-09T10:35:37Z</time>
      </trkpt>
      <trkpt lat="45.96444" lon="4.78158">
        <ele>203</ele>
        <time>2018-05-09T10:35:38Z</time>
      </trkpt>
      <trkpt lat="45.96439" lon="4.78154">
        <ele>203</ele>
        <time>2018-05-09T10:35:39Z</time>
      </trkpt>
      <trkpt lat="45.96435" lon="4.78149">
        <ele>203</ele>
        <time>2018-05-09T10:35:40Z</time>
      </trkpt>
      <trkpt lat="45.9643" lon="4.78145">
        <ele>203</ele>
        <time>2018-05-09T10:35:41Z</time>
      </trkpt>
      <trkpt lat="45.96426" lon="4.7814">
        <ele>203</ele>
        <time>2018-05-09T10:35:42Z</time>
      </trkpt>
      <trkpt lat="45.96423" lon="4.78136">
        <ele>203</ele>
        <time>2018-05-09T10:35:43Z</time>
      </trkpt>
      <trkpt lat="45.96418" lon="4.78132">
        <ele>203</ele>
        <time>2018-05-09T10:35:44Z</time>
      </trkpt>
      <trkpt lat="45.96414" lon="4.78128">
        <ele>200</ele>
        <time>2018-05-09T10:35:45Z</time>
      </trkpt>
      <trkpt lat="45.9641" lon="4.78124">
        <ele>200</ele>
        <time>2018-05-09T10:35:46Z</time>
      </trkpt>
      <trkpt lat="45.96405" lon="4.7812">
        <ele>200</ele>
        <time>2018-05-09T10:35:47Z</time>
      </trkpt>
      <trkpt lat="45.96401" lon="4.78117">
        <ele>200</ele>
        <time>2018-05-09T10:35:48Z</time>
      </trkpt>
      <trkpt lat="45.96396" lon="4.78113">
        <ele>200</ele>
        <time>2018-05-09T10:35:49Z</time>
      </trkpt>
      <trkpt lat="45.96392" lon="4.78107">
        <ele>200</ele>
        <time>2018-05-09T10:35:50Z</time>
      </trkpt>
      <trkpt lat="45.96388" lon="4.78103">
        <ele>200</ele>
        <time>2018-05-09T10:35:51Z</time>
      </trkpt>
      <trkpt lat="45.96383" lon="4.78098">
        <ele>200</ele>
        <time>2018-05-09T10:35:52Z</time>
      </trkpt>
      <trkpt lat="45.96378" lon="4.78093">
        <ele>200</ele>
        <time>2018-05-09T10:35:53Z</time>
      </trkpt>
      <trkpt lat="45.96374" lon="4.78088">
        <ele>200</ele>
        <time>2018-05-09T10:35:54Z</time>
      </trkpt>
      <trkpt lat="45.96369" lon="4.78082">
        <ele>203</ele>
        <time>2018-05-09T10:35:55Z</time>
      </trkpt>
      <trkpt lat="45.96364" lon="4.78076">
        <ele>202</ele>
        <time>2018-05-09T10:35:56Z</time>
      </trkpt>
      <trkpt lat="45.96358" lon="4.7807">
        <ele>202</ele>
        <time>2018-05-09T10:35:57Z</time>
      </trkpt>
      <trkpt lat="45.96353" lon="4.78064">
        <ele>202</ele>
        <time>2018-05-09T10:35:58Z</time>
      </trkpt>
      <trkpt lat="45.96348" lon="4.78059">
        <ele>202</ele>
        <time>2018-05-09T10:35:59Z</time>
      </trkpt>
      <trkpt lat="45.96343" lon="4.78053">
        <ele>202</ele>
        <time>2018-05-09T10:36:00Z</time>
      </trkpt>
      <trkpt lat="45.96338" lon="4.78048">
        <ele>203</ele>
        <time>2018-05-09T10:36:01Z</time>
      </trkpt>
      <trkpt lat="45.96333" lon="4.78043">
        <ele>199</ele>
        <time>2018-05-09T10:36:02Z</time>
      </trkpt>
      <trkpt lat="45.96328" lon="4.78037">
        <ele>200</ele>
        <time>2018-05-09T10:36:03Z</time>
      </trkpt>
      <trkpt lat="45.96323" lon="4.78032">
        <ele>200</ele>
        <time>2018-05-09T10:36:04Z</time>
      </trkpt>
      <trkpt lat="45.96318" lon="4.78025">
        <ele>200</ele>
        <time>2018-05-09T10:36:05Z</time>
      </trkpt>
      <trkpt lat="45.96313" lon="4.7802">
        <ele>200</ele>
        <time>2018-05-09T10:36:06Z</time>
      </trkpt>
      <trkpt lat="45.96308" lon="4.78013">
        <ele>200</ele>
        <time>2018-05-09T10:36:07Z</time>
      </trkpt>
      <trkpt lat="45.96304" lon="4.78007">
        <ele>200</ele>
        <time>2018-05-09T10:36:08Z</time>
      </trkpt>
      <trkpt lat="45.96299" lon="4.78003">
        <ele>200</ele>
        <time>2018-05-09T10:36:09Z</time>
      </trkpt>
      <trkpt lat="45.96294" lon="4.77998">
        <ele>204</ele>
        <time>2018-05-09T10:36:10Z</time>
      </trkpt>
      <trkpt lat="45.96289" lon="4.77994">
        <ele>204</ele>
        <time>2018-05-09T10:36:11Z</time>
      </trkpt>
      <trkpt lat="45.96285" lon="4.77988">
        <ele>204</ele>
        <time>2018-05-09T10:36:12Z</time>
      </trkpt>
      <trkpt lat="45.96279" lon="4.77985">
        <ele>203</ele>
        <time>2018-05-09T10:36:13Z</time>
      </trkpt>
      <trkpt lat="45.96276" lon="4.77979">
        <ele>204</ele>
        <time>2018-05-09T10:36:14Z</time>
      </trkpt>
      <trkpt lat="45.9627" lon="4.77975">
        <ele>204</ele>
        <time>2018-05-09T10:36:15Z</time>
      </trkpt>
      <trkpt lat="45.96264" lon="4.77972">
        <ele>203</ele>
        <time>2018-05-09T10:36:16Z</time>
      </trkpt>
      <trkpt lat="45.96261" lon="4.77968">
        <ele>204</ele>
        <time>2018-05-09T10:36:17Z</time>
      </trkpt>
      <trkpt lat="45.96256" lon="4.77965">
        <ele>204</ele>
        <time>2018-05-09T10:36:18Z</time>
      </trkpt>
      <trkpt lat="45.96251" lon="4.7796">
        <ele>204</ele>
        <time>2018-05-09T10:36:19Z</time>
      </trkpt>
      <trkpt lat="45.96246" lon="4.77956">
        <ele>200</ele>
        <time>2018-05-09T10:36:20Z</time>
      </trkpt>
      <trkpt lat="45.96241" lon="4.77952">
        <ele>200</ele>
        <time>2018-05-09T10:36:21Z</time>
      </trkpt>
      <trkpt lat="45.96236" lon="4.77948">
        <ele>200</ele>
        <time>2018-05-09T10:36:22Z</time>
      </trkpt>
      <trkpt lat="45.96235" lon="4.77943">
        <ele>201</ele>
        <time>2018-05-09T10:36:23Z</time>
      </trkpt>
      <trkpt lat="45.9623" lon="4.77937">
        <ele>201</ele>
        <time>2018-05-09T10:36:24Z</time>
      </trkpt>
      <trkpt lat="45.96228" lon="4.77932">
        <ele>201</ele>
        <time>2018-05-09T10:36:25Z</time>
      </trkpt>
      <trkpt lat="45.96222" lon="4.77928">
        <ele>200</ele>
        <time>2018-05-09T10:36:26Z</time>
      </trkpt>
      <trkpt lat="45.96218" lon="4.77924">
        <ele>200</ele>
        <time>2018-05-09T10:36:27Z</time>
      </trkpt>
      <trkpt lat="45.96215" lon="4.77918">
        <ele>200</ele>
        <time>2018-05-09T10:36:28Z</time>
      </trkpt>
      <trkpt lat="45.96212" lon="4.77913">
        <ele>203</ele>
        <time>2018-05-09T10:36:29Z</time>
      </trkpt>
      <trkpt lat="45.96208" lon="4.77907">
        <ele>202</ele>
        <time>2018-05-09T10:36:30Z</time>
      </trkpt>
      <trkpt lat="45.96204" lon="4.77901">
        <ele>202</ele>
        <time>2018-05-09T10:36:31Z</time>
      </trkpt>
      <trkpt lat="45.96201" lon="4.77895">
        <ele>202</ele>
        <time>2018-05-09T10:36:32Z</time>
      </trkpt>
      <trkpt lat="45.96198" lon="4.7789">
        <ele>202</ele>
        <time>2018-05-09T10:36:33Z</time>
      </trkpt>
      <trkpt lat="45.96195" lon="4.77884">
        <ele>202</ele>
        <time>2018-05-09T10:36:34Z</time>
      </trkpt>
      <trkpt lat="45.96193" lon="4.77878">
        <ele>202</ele>
        <time>2018-05-09T10:36:35Z</time>
      </trkpt>
      <trkpt lat="45.9619" lon="4.77872">
        <ele>202</ele>
        <time>2018-05-09T10:36:36Z</time>
      </trkpt>
      <trkpt lat="45.96184" lon="4.77865">
        <ele>201</ele>
        <time>2018-05-09T10:36:37Z</time>
      </trkpt>
      <trkpt lat="45.9618" lon="4.77859">
        <ele>201</ele>
        <time>2018-05-09T10:36:38Z</time>
      </trkpt>
      <trkpt lat="45.96177" lon="4.77853">
        <ele>201</ele>
        <time>2018-05-09T10:36:39Z</time>
      </trkpt>
      <trkpt lat="45.96173" lon="4.77847">
        <ele>201</ele>
        <time>2018-05-09T10:36:40Z</time>
      </trkpt>
      <trkpt lat="45.96169" lon="4.77841">
        <ele>200</ele>
        <time>2018-05-09T10:36:41Z</time>
      </trkpt>
      <trkpt lat="45.96165" lon="4.77835">
        <ele>199</ele>
        <time>2018-05-09T10:36:42Z</time>
      </trkpt>
      <trkpt lat="45.96162" lon="4.77828">
        <ele>199</ele>
        <time>2018-05-09T10:36:43Z</time>
      </trkpt>
      <trkpt lat="45.96159" lon="4.77822">
        <ele>198</ele>
        <time>2018-05-09T10:36:44Z</time>
      </trkpt>
      <trkpt lat="45.96155" lon="4.77817">
        <ele>198</ele>
        <time>2018-05-09T10:36:45Z</time>
      </trkpt>
      <trkpt lat="45.96152" lon="4.7781">
        <ele>198</ele>
        <time>2018-05-09T10:36:46Z</time>
      </trkpt>
      <trkpt lat="45.96148" lon="4.77804">
        <ele>198</ele>
        <time>2018-05-09T10:36:47Z</time>
      </trkpt>
      <trkpt lat="45.96144" lon="4.77798">
        <ele>198</ele>
        <time>2018-05-09T10:36:48Z</time>
      </trkpt>
      <trkpt lat="45.96139" lon="4.77791">
        <ele>198</ele>
        <time>2018-05-09T10:36:49Z</time>
      </trkpt>
      <trkpt lat="45.96136" lon="4.77785">
        <ele>198</ele>
        <time>2018-05-09T10:36:50Z</time>
      </trkpt>
      <trkpt lat="45.96132" lon="4.77779">
        <ele>198</ele>
        <time>2018-05-09T10:36:51Z</time>
      </trkpt>
      <trkpt lat="45.96128" lon="4.77774">
        <ele>198</ele>
        <time>2018-05-09T10:36:52Z</time>
      </trkpt>
      <trkpt lat="45.96124" lon="4.77768">
        <ele>198</ele>
        <time>2018-05-09T10:36:53Z</time>
      </trkpt>
      <trkpt lat="45.96121" lon="4.77761">
        <ele>197</ele>
        <time>2018-05-09T10:36:54Z</time>
      </trkpt>
      <trkpt lat="45.96117" lon="4.77755">
        <ele>197</ele>
        <time>2018-05-09T10:36:55Z</time>
      </trkpt>
      <trkpt lat="45.96113" lon="4.77748">
        <ele>199</ele>
        <time>2018-05-09T10:36:56Z</time>
      </trkpt>
      <trkpt lat="45.96109" lon="4.77742">
        <ele>199</ele>
        <time>2018-05-09T10:36:57Z</time>
      </trkpt>
      <trkpt lat="45.96105" lon="4.77736">
        <ele>199</ele>
        <time>2018-05-09T10:36:58Z</time>
      </trkpt>
      <trkpt lat="45.96101" lon="4.77729">
        <ele>199</ele>
        <time>2018-05-09T10:36:59Z</time>
      </trkpt>
      <trkpt lat="45.96097" lon="4.77723">
        <ele>199</ele>
        <time>2018-05-09T10:37:00Z</time>
      </trkpt>
      <trkpt lat="45.96094" lon="4.77715">
        <ele>200</ele>
        <time>2018-05-09T10:37:01Z</time>
      </trkpt>
      <trkpt lat="45.96089" lon="4.77707">
        <ele>200</ele>
        <time>2018-05-09T10:37:02Z</time>
      </trkpt>
      <trkpt lat="45.96086" lon="4.777">
        <ele>200</ele>
        <time>2018-05-09T10:37:03Z</time>
      </trkpt>
      <trkpt lat="45.96081" lon="4.77694">
        <ele>197</ele>
        <time>2018-05-09T10:37:04Z</time>
      </trkpt>
      <trkpt lat="45.96076" lon="4.77688">
        <ele>198</ele>
        <time>2018-05-09T10:37:05Z</time>
      </trkpt>
      <trkpt lat="45.96072" lon="4.77682">
        <ele>198</ele>
        <time>2018-05-09T10:37:06Z</time>
      </trkpt>
      <trkpt lat="45.96067" lon="4.77675">
        <ele>198</ele>
        <time>2018-05-09T10:37:07Z</time>
      </trkpt>
      <trkpt lat="45.96063" lon="4.77668">
        <ele>198</ele>
        <time>2018-05-09T10:37:08Z</time>
      </trkpt>
      <trkpt lat="45.96059" lon="4.77662">
        <ele>200</ele>
        <time>2018-05-09T10:37:09Z</time>
      </trkpt>
      <trkpt lat="45.96055" lon="4.77657">
        <ele>200</ele>
        <time>2018-05-09T10:37:10Z</time>
      </trkpt>
      <trkpt lat="45.9605" lon="4.77651">
        <ele>200</ele>
        <time>2018-05-09T10:37:11Z</time>
      </trkpt>
      <trkpt lat="45.96045" lon="4.77645">
        <ele>200</ele>
        <time>2018-05-09T10:37:12Z</time>
      </trkpt>
      <trkpt lat="45.96041" lon="4.77639">
        <ele>199</ele>
        <time>2018-05-09T10:37:13Z</time>
      </trkpt>
      <trkpt lat="45.96036" lon="4.77633">
        <ele>199</ele>
        <time>2018-05-09T10:37:14Z</time>
      </trkpt>
      <trkpt lat="45.96031" lon="4.77625">
        <ele>199</ele>
        <time>2018-05-09T10:37:15Z</time>
      </trkpt>
      <trkpt lat="45.96026" lon="4.7762">
        <ele>199</ele>
        <time>2018-05-09T10:37:16Z</time>
      </trkpt>
      <trkpt lat="45.96021" lon="4.77614">
        <ele>199</ele>
        <time>2018-05-09T10:37:17Z</time>
      </trkpt>
      <trkpt lat="45.96016" lon="4.77609">
        <ele>199</ele>
        <time>2018-05-09T10:37:18Z</time>
      </trkpt>
      <trkpt lat="45.96011" lon="4.77603">
        <ele>199</ele>
        <time>2018-05-09T10:37:19Z</time>
      </trkpt>
      <trkpt lat="45.96006" lon="4.77598">
        <ele>198</ele>
        <time>2018-05-09T10:37:20Z</time>
      </trkpt>
      <trkpt lat="45.96001" lon="4.77592">
        <ele>198</ele>
        <time>2018-05-09T10:37:21Z</time>
      </trkpt>
      <trkpt lat="45.95996" lon="4.77587">
        <ele>196</ele>
        <time>2018-05-09T10:37:22Z</time>
      </trkpt>
      <trkpt lat="45.95992" lon="4.77581">
        <ele>196</ele>
        <time>2018-05-09T10:37:23Z</time>
      </trkpt>
      <trkpt lat="45.95987" lon="4.77575">
        <ele>196</ele>
        <time>2018-05-09T10:37:24Z</time>
      </trkpt>
      <trkpt lat="45.95984" lon="4.77568">
        <ele>196</ele>
        <time>2018-05-09T10:37:25Z</time>
      </trkpt>
      <trkpt lat="45.95981" lon="4.77561">
        <ele>196</ele>
        <time>2018-05-09T10:37:26Z</time>
      </trkpt>
      <trkpt lat="45.95977" lon="4.77554">
        <ele>195</ele>
        <time>2018-05-09T10:37:27Z</time>
      </trkpt>
      <trkpt lat="45.95973" lon="4.77548">
        <ele>195</ele>
        <time>2018-05-09T10:37:28Z</time>
      </trkpt>
      <trkpt lat="45.9597" lon="4.77542">
        <ele>195</ele>
        <time>2018-05-09T10:37:29Z</time>
      </trkpt>
      <trkpt lat="45.95968" lon="4.77534">
        <ele>195</ele>
        <time>2018-05-09T10:37:30Z</time>
      </trkpt>
      <trkpt lat="45.95965" lon="4.77526">
        <ele>195</ele>
        <time>2018-05-09T10:37:31Z</time>
      </trkpt>
      <trkpt lat="45.95962" lon="4.77519">
        <ele>195</ele>
        <time>2018-05-09T10:37:32Z</time>
      </trkpt>
      <trkpt lat="45.95959" lon="4.77511">
        <ele>195</ele>
        <time>2018-05-09T10:37:33Z</time>
      </trkpt>
      <trkpt lat="45.95955" lon="4.77503">
        <ele>195</ele>
        <time>2018-05-09T10:37:34Z</time>
      </trkpt>
      <trkpt lat="45.9595" lon="4.77497">
        <ele>195</ele>
        <time>2018-05-09T10:37:35Z</time>
      </trkpt>
      <trkpt lat="45.95948" lon="4.77487">
        <ele>195</ele>
        <time>2018-05-09T10:37:36Z</time>
      </trkpt>
      <trkpt lat="45.95944" lon="4.7748">
        <ele>195</ele>
        <time>2018-05-09T10:37:37Z</time>
      </trkpt>
      <trkpt lat="45.95941" lon="4.77471">
        <ele>195</ele>
        <time>2018-05-09T10:37:38Z</time>
      </trkpt>
      <trkpt lat="45.9594" lon="4.77462">
        <ele>195</ele>
        <time>2018-05-09T10:37:39Z</time>
      </trkpt>
      <trkpt lat="45.95937" lon="4.77453">
        <ele>195</ele>
        <time>2018-05-09T10:37:40Z</time>
      </trkpt>
      <trkpt lat="45.95934" lon="4.77445">
        <ele>195</ele>
        <time>2018-05-09T10:37:41Z</time>
      </trkpt>
      <trkpt lat="45.95932" lon="4.77436">
        <ele>195</ele>
        <time>2018-05-09T10:37:42Z</time>
      </trkpt>
      <trkpt lat="45.9593" lon="4.77424">
        <ele>195</ele>
        <time>2018-05-09T10:37:43Z</time>
      </trkpt>
      <trkpt lat="45.95927" lon="4.77416">
        <ele>195</ele>
        <time>2018-05-09T10:37:44Z</time>
      </trkpt>
      <trkpt lat="45.95923" lon="4.77407">
        <ele>195</ele>
        <time>2018-05-09T10:37:45Z</time>
      </trkpt>
      <trkpt lat="45.9592" lon="4.77398">
        <ele>196</ele>
        <time>2018-05-09T10:37:46Z</time>
      </trkpt>
      <trkpt lat="45.95918" lon="4.77389">
        <ele>196</ele>
        <time>2018-05-09T10:37:47Z</time>
      </trkpt>
      <trkpt lat="45.95914" lon="4.77381">
        <ele>193</ele>
        <time>2018-05-09T10:37:48Z</time>
      </trkpt>
      <trkpt lat="45.95913" lon="4.77373">
        <ele>193</ele>
        <time>2018-05-09T10:37:49Z</time>
      </trkpt>
      <trkpt lat="45.95909" lon="4.77366">
        <ele>193</ele>
        <time>2018-05-09T10:37:50Z</time>
      </trkpt>
      <trkpt lat="45.95906" lon="4.77358">
        <ele>193</ele>
        <time>2018-05-09T10:37:51Z</time>
      </trkpt>
      <trkpt lat="45.95903" lon="4.77349">
        <ele>193</ele>
        <time>2018-05-09T10:37:52Z</time>
      </trkpt>
      <trkpt lat="45.95901" lon="4.7734">
        <ele>193</ele>
        <time>2018-05-09T10:37:53Z</time>
      </trkpt>
      <trkpt lat="45.95898" lon="4.77331">
        <ele>194</ele>
        <time>2018-05-09T10:37:54Z</time>
      </trkpt>
      <trkpt lat="45.95896" lon="4.77322">
        <ele>193</ele>
        <time>2018-05-09T10:37:55Z</time>
      </trkpt>
      <trkpt lat="45.95894" lon="4.77314">
        <ele>193</ele>
        <time>2018-05-09T10:37:56Z</time>
      </trkpt>
      <trkpt lat="45.95891" lon="4.77304">
        <ele>193</ele>
        <time>2018-05-09T10:37:57Z</time>
      </trkpt>
      <trkpt lat="45.95889" lon="4.77296">
        <ele>193</ele>
        <time>2018-05-09T10:37:58Z</time>
      </trkpt>
      <trkpt lat="45.95888" lon="4.77288">
        <ele>193</ele>
        <time>2018-05-09T10:37:59Z</time>
      </trkpt>
      <trkpt lat="45.95886" lon="4.77278">
        <ele>193</ele>
        <time>2018-05-09T10:38:00Z</time>
      </trkpt>
      <trkpt lat="45.95885" lon="4.77269">
        <ele>193</ele>
        <time>2018-05-09T10:38:01Z</time>
      </trkpt>
      <trkpt lat="45.95883" lon="4.77261">
        <ele>193</ele>
        <time>2018-05-09T10:38:02Z</time>
      </trkpt>
      <trkpt lat="45.95882" lon="4.77252">
        <ele>193</ele>
        <time>2018-05-09T10:38:03Z</time>
      </trkpt>
      <trkpt lat="45.9588" lon="4.77244">
        <ele>193</ele>
        <time>2018-05-09T10:38:04Z</time>
      </trkpt>
      <trkpt lat="45.95877" lon="4.77236">
        <ele>193</ele>
        <time>2018-05-09T10:38:05Z</time>
      </trkpt>
      <trkpt lat="45.95875" lon="4.77227">
        <ele>193</ele>
        <time>2018-05-09T10:38:06Z</time>
      </trkpt>
      <trkpt lat="45.95873" lon="4.77218">
        <ele>193</ele>
        <time>2018-05-09T10:38:07Z</time>
      </trkpt>
      <trkpt lat="45.95871" lon="4.77209">
        <ele>193</ele>
        <time>2018-05-09T10:38:08Z</time>
      </trkpt>
      <trkpt lat="45.95868" lon="4.772">
        <ele>193</ele>
        <time>2018-05-09T10:38:09Z</time>
      </trkpt>
      <trkpt lat="45.95866" lon="4.77191">
        <ele>193</ele>
        <time>2018-05-09T10:38:10Z</time>
      </trkpt>
      <trkpt lat="45.95863" lon="4.77182">
        <ele>192</ele>
        <time>2018-05-09T10:38:11Z</time>
      </trkpt>
      <trkpt lat="45.95861" lon="4.77173">
        <ele>192</ele>
        <time>2018-05-09T10:38:12Z</time>
      </trkpt>
      <trkpt lat="45.95859" lon="4.77164">
        <ele>193</ele>
        <time>2018-05-09T10:38:13Z</time>
      </trkpt>
      <trkpt lat="45.95856" lon="4.77155">
        <ele>192</ele>
        <time>2018-05-09T10:38:14Z</time>
      </trkpt>
      <trkpt lat="45.95854" lon="4.77146">
        <ele>193</ele>
        <time>2018-05-09T10:38:15Z</time>
      </trkpt>
      <trkpt lat="45.95852" lon="4.77137">
        <ele>193</ele>
        <time>2018-05-09T10:38:16Z</time>
      </trkpt>
      <trkpt lat="45.9585" lon="4.77129">
        <ele>193</ele>
        <time>2018-05-09T10:38:17Z</time>
      </trkpt>
      <trkpt lat="45.95848" lon="4.7712">
        <ele>193</ele>
        <time>2018-05-09T10:38:18Z</time>
      </trkpt>
      <trkpt lat="45.95845" lon="4.77109">
        <ele>193</ele>
        <time>2018-05-09T10:38:19Z</time>
      </trkpt>
      <trkpt lat="45.95843" lon="4.77101">
        <ele>193</ele>
        <time>2018-05-09T10:38:20Z</time>
      </trkpt>
      <trkpt lat="45.95841" lon="4.77093">
        <ele>193</ele>
        <time>2018-05-09T10:38:21Z</time>
      </trkpt>
      <trkpt lat="45.95838" lon="4.77085">
        <ele>192</ele>
        <time>2018-05-09T10:38:22Z</time>
      </trkpt>
      <trkpt lat="45.95835" lon="4.77077">
        <ele>192</ele>
        <time>2018-05-09T10:38:23Z</time>
      </trkpt>
      <trkpt lat="45.95831" lon="4.77069">
        <ele>191</ele>
        <time>2018-05-09T10:38:24Z</time>
      </trkpt>
      <trkpt lat="45.95827" lon="4.77062">
        <ele>191</ele>
        <time>2018-05-09T10:38:25Z</time>
      </trkpt>
      <trkpt lat="45.95824" lon="4.77054">
        <ele>190</ele>
        <time>2018-05-09T10:38:26Z</time>
      </trkpt>
      <trkpt lat="45.9582" lon="4.77048">
        <ele>190</ele>
        <time>2018-05-09T10:38:27Z</time>
      </trkpt>
      <trkpt lat="45.95817" lon="4.77041">
        <ele>190</ele>
        <time>2018-05-09T10:38:28Z</time>
      </trkpt>
      <trkpt lat="45.95814" lon="4.77033">
        <ele>190</ele>
        <time>2018-05-09T10:38:29Z</time>
      </trkpt>
      <trkpt lat="45.9581" lon="4.77028">
        <ele>190</ele>
        <time>2018-05-09T10:38:30Z</time>
      </trkpt>
      <trkpt lat="45.95808" lon="4.77022">
        <ele>190</ele>
        <time>2018-05-09T10:38:31Z</time>
      </trkpt>
      <trkpt lat="45.95806" lon="4.77015">
        <ele>190</ele>
        <time>2018-05-09T10:38:32Z</time>
      </trkpt>
      <trkpt lat="45.95805" lon="4.77007">
        <ele>190</ele>
        <time>2018-05-09T10:38:33Z</time>
      </trkpt>
      <trkpt lat="45.95805" lon="4.77">
        <ele>190</ele>
        <time>2018-05-09T10:38:34Z</time>
      </trkpt>
      <trkpt lat="45.95803" lon="4.76992">
        <ele>189</ele>
        <time>2018-05-09T10:38:35Z</time>
      </trkpt>
      <trkpt lat="45.95805" lon="4.76982">
        <ele>189</ele>
        <time>2018-05-09T10:38:36Z</time>
      </trkpt>
      <trkpt lat="45.95804" lon="4.76973">
        <ele>189</ele>
        <time>2018-05-09T10:38:37Z</time>
      </trkpt>
      <trkpt lat="45.95806" lon="4.76965">
        <ele>189</ele>
        <time>2018-05-09T10:38:38Z</time>
      </trkpt>
      <trkpt lat="45.95807" lon="4.76955">
        <ele>189</ele>
        <time>2018-05-09T10:38:39Z</time>
      </trkpt>
      <trkpt lat="45.95808" lon="4.76946">
        <ele>189</ele>
        <time>2018-05-09T10:38:40Z</time>
      </trkpt>
      <trkpt lat="45.95809" lon="4.76938">
        <ele>189</ele>
        <time>2018-05-09T10:38:41Z</time>
      </trkpt>
      <trkpt lat="45.95811" lon="4.76929">
        <ele>189</ele>
        <time>2018-05-09T10:38:42Z</time>
      </trkpt>
      <trkpt lat="45.95813" lon="4.76921">
        <ele>189</ele>
        <time>2018-05-09T10:38:43Z</time>
      </trkpt>
      <trkpt lat="45.95814" lon="4.76913">
        <ele>189</ele>
        <time>2018-05-09T10:38:44Z</time>
      </trkpt>
      <trkpt lat="45.95816" lon="4.76906">
        <ele>189</ele>
        <time>2018-05-09T10:38:45Z</time>
      </trkpt>
      <trkpt lat="45.95818" lon="4.76899">
        <ele>189</ele>
        <time>2018-05-09T10:38:46Z</time>
      </trkpt>
      <trkpt lat="45.9582" lon="4.76892">
        <ele>189</ele>
        <time>2018-05-09T10:38:47Z</time>
      </trkpt>
      <trkpt lat="45.95821" lon="4.76886">
        <ele>189</ele>
        <time>2018-05-09T10:38:48Z</time>
      </trkpt>
      <trkpt lat="45.95823" lon="4.7688">
        <ele>189</ele>
        <time>2018-05-09T10:38:49Z</time>
      </trkpt>
      <trkpt lat="45.95824" lon="4.76872">
        <ele>189</ele>
        <time>2018-05-09T10:38:50Z</time>
      </trkpt>
      <trkpt lat="45.95825" lon="4.76865">
        <ele>189</ele>
        <time>2018-05-09T10:38:51Z</time>
      </trkpt>
      <trkpt lat="45.95827" lon="4.76858">
        <ele>189</ele>
        <time>2018-05-09T10:38:52Z</time>
      </trkpt>
      <trkpt lat="45.95828" lon="4.76852">
        <ele>190</ele>
        <time>2018-05-09T10:38:53Z</time>
      </trkpt>
      <trkpt lat="45.95827" lon="4.76845">
        <ele>190</ele>
        <time>2018-05-09T10:38:54Z</time>
      </trkpt>
      <trkpt lat="45.95828" lon="4.76837">
        <ele>190</ele>
        <time>2018-05-09T10:38:55Z</time>
      </trkpt>
      <trkpt lat="45.9583" lon="4.76826">
        <ele>190</ele>
        <time>2018-05-09T10:38:57Z</time>
      </trkpt>
      <trkpt lat="45.95831" lon="4.76819">
        <ele>190</ele>
        <time>2018-05-09T10:38:58Z</time>
      </trkpt>
      <trkpt lat="45.95834" lon="4.76809">
        <ele>190</ele>
        <time>2018-05-09T10:39:00Z</time>
      </trkpt>
      <trkpt lat="45.95834" lon="4.768">
        <ele>191</ele>
        <time>2018-05-09T10:39:01Z</time>
      </trkpt>
      <trkpt lat="45.95834" lon="4.76794">
        <ele>191</ele>
        <time>2018-05-09T10:39:02Z</time>
      </trkpt>
      <trkpt lat="45.95834" lon="4.76786">
        <ele>191</ele>
        <time>2018-05-09T10:39:03Z</time>
      </trkpt>
      <trkpt lat="45.95832" lon="4.7678">
        <ele>190</ele>
        <time>2018-05-09T10:39:04Z</time>
      </trkpt>
      <trkpt lat="45.9583" lon="4.76772">
        <ele>190</ele>
        <time>2018-05-09T10:39:05Z</time>
      </trkpt>
      <trkpt lat="45.95828" lon="4.76764">
        <ele>190</ele>
        <time>2018-05-09T10:39:06Z</time>
      </trkpt>
      <trkpt lat="45.95826" lon="4.76756">
        <ele>191</ele>
        <time>2018-05-09T10:39:07Z</time>
      </trkpt>
      <trkpt lat="45.95825" lon="4.76748">
        <ele>190</ele>
        <time>2018-05-09T10:39:08Z</time>
      </trkpt>
      <trkpt lat="45.95823" lon="4.76738">
        <ele>190</ele>
        <time>2018-05-09T10:39:09Z</time>
      </trkpt>
      <trkpt lat="45.95822" lon="4.76729">
        <ele>190</ele>
        <time>2018-05-09T10:39:10Z</time>
      </trkpt>
      <trkpt lat="45.95821" lon="4.76719">
        <ele>189</ele>
        <time>2018-05-09T10:39:11Z</time>
      </trkpt>
      <trkpt lat="45.95819" lon="4.7671">
        <ele>189</ele>
        <time>2018-05-09T10:39:12Z</time>
      </trkpt>
      <trkpt lat="45.95817" lon="4.76699">
        <ele>189</ele>
        <time>2018-05-09T10:39:13Z</time>
      </trkpt>
      <trkpt lat="45.95817" lon="4.76692">
        <ele>189</ele>
        <time>2018-05-09T10:39:14Z</time>
      </trkpt>
      <trkpt lat="45.95816" lon="4.76683">
        <ele>189</ele>
        <time>2018-05-09T10:39:15Z</time>
      </trkpt>
      <trkpt lat="45.95816" lon="4.76674">
        <ele>189</ele>
        <time>2018-05-09T10:39:16Z</time>
      </trkpt>
      <trkpt lat="45.95814" lon="4.76665">
        <ele>188</ele>
        <time>2018-05-09T10:39:17Z</time>
      </trkpt>
      <trkpt lat="45.95812" lon="4.76656">
        <ele>188</ele>
        <time>2018-05-09T10:39:18Z</time>
      </trkpt>
      <trkpt lat="45.9581" lon="4.76647">
        <ele>188</ele>
        <time>2018-05-09T10:39:19Z</time>
      </trkpt>
      <trkpt lat="45.95808" lon="4.76638">
        <ele>188</ele>
        <time>2018-05-09T10:39:20Z</time>
      </trkpt>
      <trkpt lat="45.95807" lon="4.7663">
        <ele>188</ele>
        <time>2018-05-09T10:39:21Z</time>
      </trkpt>
      <trkpt lat="45.95805" lon="4.76622">
        <ele>188</ele>
        <time>2018-05-09T10:39:22Z</time>
      </trkpt>
      <trkpt lat="45.95804" lon="4.76613">
        <ele>188</ele>
        <time>2018-05-09T10:39:23Z</time>
      </trkpt>
      <trkpt lat="45.95803" lon="4.76604">
        <ele>188</ele>
        <time>2018-05-09T10:39:24Z</time>
      </trkpt>
      <trkpt lat="45.95801" lon="4.76596">
        <ele>187</ele>
        <time>2018-05-09T10:39:25Z</time>
      </trkpt>
      <trkpt lat="45.958" lon="4.76588">
        <ele>187</ele>
        <time>2018-05-09T10:39:26Z</time>
      </trkpt>
      <trkpt lat="45.95798" lon="4.7658">
        <ele>187</ele>
        <time>2018-05-09T10:39:27Z</time>
      </trkpt>
      <trkpt lat="45.95797" lon="4.76571">
        <ele>187</ele>
        <time>2018-05-09T10:39:28Z</time>
      </trkpt>
      <trkpt lat="45.95797" lon="4.76563">
        <ele>187</ele>
        <time>2018-05-09T10:39:29Z</time>
      </trkpt>
      <trkpt lat="45.95795" lon="4.76555">
        <ele>187</ele>
        <time>2018-05-09T10:39:30Z</time>
      </trkpt>
      <trkpt lat="45.95795" lon="4.76547">
        <ele>187</ele>
        <time>2018-05-09T10:39:31Z</time>
      </trkpt>
      <trkpt lat="45.95795" lon="4.76539">
        <ele>187</ele>
        <time>2018-05-09T10:39:32Z</time>
      </trkpt>
      <trkpt lat="45.95794" lon="4.76531">
        <ele>187</ele>
        <time>2018-05-09T10:39:33Z</time>
      </trkpt>
      <trkpt lat="45.95793" lon="4.76522">
        <ele>187</ele>
        <time>2018-05-09T10:39:34Z</time>
      </trkpt>
      <trkpt lat="45.95792" lon="4.76514">
        <ele>187</ele>
        <time>2018-05-09T10:39:35Z</time>
      </trkpt>
      <trkpt lat="45.95791" lon="4.76506">
        <ele>187</ele>
        <time>2018-05-09T10:39:36Z</time>
      </trkpt>
      <trkpt lat="45.95789" lon="4.76496">
        <ele>186</ele>
        <time>2018-05-09T10:39:37Z</time>
      </trkpt>
      <trkpt lat="45.95787" lon="4.76487">
        <ele>186</ele>
        <time>2018-05-09T10:39:38Z</time>
      </trkpt>
      <trkpt lat="45.95786" lon="4.76477">
        <ele>186</ele>
        <time>2018-05-09T10:39:39Z</time>
      </trkpt>
      <trkpt lat="45.95784" lon="4.76469">
        <ele>186</ele>
        <time>2018-05-09T10:39:40Z</time>
      </trkpt>
      <trkpt lat="45.95783" lon="4.7646">
        <ele>186</ele>
        <time>2018-05-09T10:39:41Z</time>
      </trkpt>
      <trkpt lat="45.95781" lon="4.7645">
        <ele>186</ele>
        <time>2018-05-09T10:39:42Z</time>
      </trkpt>
      <trkpt lat="45.9578" lon="4.76443">
        <ele>186</ele>
        <time>2018-05-09T10:39:43Z</time>
      </trkpt>
      <trkpt lat="45.9578" lon="4.76433">
        <ele>186</ele>
        <time>2018-05-09T10:39:44Z</time>
      </trkpt>
      <trkpt lat="45.95779" lon="4.76424">
        <ele>186</ele>
        <time>2018-05-09T10:39:45Z</time>
      </trkpt>
      <trkpt lat="45.95779" lon="4.76417">
        <ele>186</ele>
        <time>2018-05-09T10:39:46Z</time>
      </trkpt>
      <trkpt lat="45.9578" lon="4.76411">
        <ele>186</ele>
        <time>2018-05-09T10:39:47Z</time>
      </trkpt>
      <trkpt lat="45.95779" lon="4.76404">
        <ele>186</ele>
        <time>2018-05-09T10:39:48Z</time>
      </trkpt>
      <trkpt lat="45.95777" lon="4.76395">
        <ele>186</ele>
        <time>2018-05-09T10:39:49Z</time>
      </trkpt>
      <trkpt lat="45.95776" lon="4.76386">
        <ele>186</ele>
        <time>2018-05-09T10:39:50Z</time>
      </trkpt>
      <trkpt lat="45.95775" lon="4.76378">
        <ele>186</ele>
        <time>2018-05-09T10:39:51Z</time>
      </trkpt>
      <trkpt lat="45.95775" lon="4.76369">
        <ele>186</ele>
        <time>2018-05-09T10:39:52Z</time>
      </trkpt>
      <trkpt lat="45.95775" lon="4.7636">
        <ele>186</ele>
        <time>2018-05-09T10:39:53Z</time>
      </trkpt>
      <trkpt lat="45.95775" lon="4.76351">
        <ele>186</ele>
        <time>2018-05-09T10:39:54Z</time>
      </trkpt>
      <trkpt lat="45.95774" lon="4.76343">
        <ele>186</ele>
        <time>2018-05-09T10:39:55Z</time>
      </trkpt>
      <trkpt lat="45.95774" lon="4.76336">
        <ele>186</ele>
        <time>2018-05-09T10:39:56Z</time>
      </trkpt>
      <trkpt lat="45.95774" lon="4.76328">
        <ele>185</ele>
        <time>2018-05-09T10:39:57Z</time>
      </trkpt>
      <trkpt lat="45.95775" lon="4.76318">
        <ele>186</ele>
        <time>2018-05-09T10:39:58Z</time>
      </trkpt>
      <trkpt lat="45.95775" lon="4.7631">
        <ele>186</ele>
        <time>2018-05-09T10:39:59Z</time>
      </trkpt>
      <trkpt lat="45.95775" lon="4.763">
        <ele>186</ele>
        <time>2018-05-09T10:40:00Z</time>
      </trkpt>
      <trkpt lat="45.95774" lon="4.76291">
        <ele>186</ele>
        <time>2018-05-09T10:40:01Z</time>
      </trkpt>
      <trkpt lat="45.95774" lon="4.76282">
        <ele>186</ele>
        <time>2018-05-09T10:40:02Z</time>
      </trkpt>
      <trkpt lat="45.95773" lon="4.76274">
        <ele>186</ele>
        <time>2018-05-09T10:40:03Z</time>
      </trkpt>
      <trkpt lat="45.95773" lon="4.76265">
        <ele>186</ele>
        <time>2018-05-09T10:40:04Z</time>
      </trkpt>
      <trkpt lat="45.95772" lon="4.76256">
        <ele>186</ele>
        <time>2018-05-09T10:40:05Z</time>
      </trkpt>
      <trkpt lat="45.95771" lon="4.76247">
        <ele>186</ele>
        <time>2018-05-09T10:40:06Z</time>
      </trkpt>
      <trkpt lat="45.95768" lon="4.76238">
        <ele>186</ele>
        <time>2018-05-09T10:40:07Z</time>
      </trkpt>
      <trkpt lat="45.95768" lon="4.76228">
        <ele>186</ele>
        <time>2018-05-09T10:40:08Z</time>
      </trkpt>
      <trkpt lat="45.95766" lon="4.76219">
        <ele>186</ele>
        <time>2018-05-09T10:40:09Z</time>
      </trkpt>
      <trkpt lat="45.95765" lon="4.76209">
        <ele>186</ele>
        <time>2018-05-09T10:40:10Z</time>
      </trkpt>
      <trkpt lat="45.95765" lon="4.76199">
        <ele>186</ele>
        <time>2018-05-09T10:40:11Z</time>
      </trkpt>
      <trkpt lat="45.95767" lon="4.76191">
        <ele>186</ele>
        <time>2018-05-09T10:40:12Z</time>
      </trkpt>
      <trkpt lat="45.95765" lon="4.76182">
        <ele>186</ele>
        <time>2018-05-09T10:40:13Z</time>
      </trkpt>
      <trkpt lat="45.95764" lon="4.76172">
        <ele>185</ele>
        <time>2018-05-09T10:40:14Z</time>
      </trkpt>
      <trkpt lat="45.95761" lon="4.76162">
        <ele>186</ele>
        <time>2018-05-09T10:40:15Z</time>
      </trkpt>
      <trkpt lat="45.95756" lon="4.76152">
        <ele>186</ele>
        <time>2018-05-09T10:40:16Z</time>
      </trkpt>
      <trkpt lat="45.95755" lon="4.76142">
        <ele>186</ele>
        <time>2018-05-09T10:40:17Z</time>
      </trkpt>
      <trkpt lat="45.95755" lon="4.76133">
        <ele>186</ele>
        <time>2018-05-09T10:40:18Z</time>
      </trkpt>
      <trkpt lat="45.95754" lon="4.76123">
        <ele>186</ele>
        <time>2018-05-09T10:40:19Z</time>
      </trkpt>
      <trkpt lat="45.95752" lon="4.76114">
        <ele>186</ele>
        <time>2018-05-09T10:40:20Z</time>
      </trkpt>
      <trkpt lat="45.95751" lon="4.76105">
        <ele>186</ele>
        <time>2018-05-09T10:40:21Z</time>
      </trkpt>
      <trkpt lat="45.9575" lon="4.76097">
        <ele>184</ele>
        <time>2018-05-09T10:40:22Z</time>
      </trkpt>
      <trkpt lat="45.95747" lon="4.76089">
        <ele>185</ele>
        <time>2018-05-09T10:40:23Z</time>
      </trkpt>
      <trkpt lat="45.95747" lon="4.76082">
        <ele>185</ele>
        <time>2018-05-09T10:40:24Z</time>
      </trkpt>
      <trkpt lat="45.95744" lon="4.76074">
        <ele>185</ele>
        <time>2018-05-09T10:40:25Z</time>
      </trkpt>
      <trkpt lat="45.9574" lon="4.76066">
        <ele>184</ele>
        <time>2018-05-09T10:40:26Z</time>
      </trkpt>
      <trkpt lat="45.95738" lon="4.76057">
        <ele>184</ele>
        <time>2018-05-09T10:40:27Z</time>
      </trkpt>
      <trkpt lat="45.95735" lon="4.76051">
        <ele>184</ele>
        <time>2018-05-09T10:40:28Z</time>
      </trkpt>
      <trkpt lat="45.95731" lon="4.76043">
        <ele>184</ele>
        <time>2018-05-09T10:40:29Z</time>
      </trkpt>
      <trkpt lat="45.95728" lon="4.76036">
        <ele>184</ele>
        <time>2018-05-09T10:40:30Z</time>
      </trkpt>
      <trkpt lat="45.95724" lon="4.76028">
        <ele>184</ele>
        <time>2018-05-09T10:40:31Z</time>
      </trkpt>
      <trkpt lat="45.95721" lon="4.76021">
        <ele>184</ele>
        <time>2018-05-09T10:40:32Z</time>
      </trkpt>
      <trkpt lat="45.95717" lon="4.76013">
        <ele>184</ele>
        <time>2018-05-09T10:40:33Z</time>
      </trkpt>
      <trkpt lat="45.95714" lon="4.76004">
        <ele>184</ele>
        <time>2018-05-09T10:40:34Z</time>
      </trkpt>
      <trkpt lat="45.9571" lon="4.75996">
        <ele>185</ele>
        <time>2018-05-09T10:40:35Z</time>
      </trkpt>
      <trkpt lat="45.95707" lon="4.75988">
        <ele>185</ele>
        <time>2018-05-09T10:40:36Z</time>
      </trkpt>
      <trkpt lat="45.95703" lon="4.7598">
        <ele>185</ele>
        <time>2018-05-09T10:40:37Z</time>
      </trkpt>
      <trkpt lat="45.957" lon="4.75972">
        <ele>185</ele>
        <time>2018-05-09T10:40:38Z</time>
      </trkpt>
      <trkpt lat="45.95696" lon="4.75964">
        <ele>185</ele>
        <time>2018-05-09T10:40:39Z</time>
      </trkpt>
      <trkpt lat="45.95693" lon="4.75956">
        <ele>185</ele>
        <time>2018-05-09T10:40:40Z</time>
      </trkpt>
      <trkpt lat="45.9569" lon="4.75948">
        <ele>185</ele>
        <time>2018-05-09T10:40:41Z</time>
      </trkpt>
      <trkpt lat="45.95687" lon="4.7594">
        <ele>185</ele>
        <time>2018-05-09T10:40:42Z</time>
      </trkpt>
      <trkpt lat="45.95684" lon="4.75932">
        <ele>185</ele>
        <time>2018-05-09T10:40:43Z</time>
      </trkpt>
      <trkpt lat="45.9568" lon="4.75924">
        <ele>185</ele>
        <time>2018-05-09T10:40:44Z</time>
      </trkpt>
      <trkpt lat="45.95673" lon="4.75916">
        <ele>185</ele>
        <time>2018-05-09T10:40:45Z</time>
      </trkpt>
      <trkpt lat="45.9567" lon="4.75908">
        <ele>185</ele>
        <time>2018-05-09T10:40:46Z</time>
      </trkpt>
      <trkpt lat="45.95669" lon="4.759">
        <ele>185</ele>
        <time>2018-05-09T10:40:47Z</time>
      </trkpt>
      <trkpt lat="45.95665" lon="4.75894">
        <ele>184</ele>
        <time>2018-05-09T10:40:48Z</time>
      </trkpt>
      <trkpt lat="45.95662" lon="4.75886">
        <ele>184</ele>
        <time>2018-05-09T10:40:49Z</time>
      </trkpt>
      <trkpt lat="45.95659" lon="4.75878">
        <ele>184</ele>
        <time>2018-05-09T10:40:50Z</time>
      </trkpt>
      <trkpt lat="45.95657" lon="4.75869">
        <ele>184</ele>
        <time>2018-05-09T10:40:51Z</time>
      </trkpt>
      <trkpt lat="45.95655" lon="4.75861">
        <ele>184</ele>
        <time>2018-05-09T10:40:52Z</time>
      </trkpt>
      <trkpt lat="45.95653" lon="4.75852">
        <ele>184</ele>
        <time>2018-05-09T10:40:53Z</time>
      </trkpt>
      <trkpt lat="45.95651" lon="4.75843">
        <ele>185</ele>
        <time>2018-05-09T10:40:54Z</time>
      </trkpt>
      <trkpt lat="45.9565" lon="4.75836">
        <ele>185</ele>
        <time>2018-05-09T10:40:55Z</time>
      </trkpt>
      <trkpt lat="45.95648" lon="4.75827">
        <ele>185</ele>
        <time>2018-05-09T10:40:56Z</time>
      </trkpt>
      <trkpt lat="45.95645" lon="4.75818">
        <ele>185</ele>
        <time>2018-05-09T10:40:57Z</time>
      </trkpt>
      <trkpt lat="45.95646" lon="4.75809">
        <ele>185</ele>
        <time>2018-05-09T10:40:58Z</time>
      </trkpt>
      <trkpt lat="45.95644" lon="4.75801">
        <ele>185</ele>
        <time>2018-05-09T10:40:59Z</time>
      </trkpt>
      <trkpt lat="45.95643" lon="4.75792">
        <ele>185</ele>
        <time>2018-05-09T10:41:00Z</time>
      </trkpt>
      <trkpt lat="45.95642" lon="4.75784">
        <ele>186</ele>
        <time>2018-05-09T10:41:01Z</time>
      </trkpt>
      <trkpt lat="45.95641" lon="4.75775">
        <ele>186</ele>
        <time>2018-05-09T10:41:02Z</time>
      </trkpt>
      <trkpt lat="45.95641" lon="4.75767">
        <ele>186</ele>
        <time>2018-05-09T10:41:03Z</time>
      </trkpt>
      <trkpt lat="45.9564" lon="4.7576">
        <ele>186</ele>
        <time>2018-05-09T10:41:04Z</time>
      </trkpt>
      <trkpt lat="45.95639" lon="4.75751">
        <ele>186</ele>
        <time>2018-05-09T10:41:05Z</time>
      </trkpt>
      <trkpt lat="45.95638" lon="4.75742">
        <ele>187</ele>
        <time>2018-05-09T10:41:06Z</time>
      </trkpt>
      <trkpt lat="45.95636" lon="4.75734">
        <ele>187</ele>
        <time>2018-05-09T10:41:07Z</time>
      </trkpt>
      <trkpt lat="45.95635" lon="4.75727">
        <ele>187</ele>
        <time>2018-05-09T10:41:08Z</time>
      </trkpt>
      <trkpt lat="45.95634" lon="4.75718">
        <ele>187</ele>
        <time>2018-05-09T10:41:09Z</time>
      </trkpt>
      <trkpt lat="45.95633" lon="4.75709">
        <ele>187</ele>
        <time>2018-05-09T10:41:10Z</time>
      </trkpt>
      <trkpt lat="45.95631" lon="4.75701">
        <ele>187</ele>
        <time>2018-05-09T10:41:11Z</time>
      </trkpt>
      <trkpt lat="45.9563" lon="4.75693">
        <ele>187</ele>
        <time>2018-05-09T10:41:12Z</time>
      </trkpt>
      <trkpt lat="45.95628" lon="4.75684">
        <ele>187</ele>
        <time>2018-05-09T10:41:13Z</time>
      </trkpt>
      <trkpt lat="45.95627" lon="4.75675">
        <ele>187</ele>
        <time>2018-05-09T10:41:14Z</time>
      </trkpt>
      <trkpt lat="45.95627" lon="4.75666">
        <ele>188</ele>
        <time>2018-05-09T10:41:15Z</time>
      </trkpt>
      <trkpt lat="45.95626" lon="4.75658">
        <ele>188</ele>
        <time>2018-05-09T10:41:16Z</time>
      </trkpt>
      <trkpt lat="45.95624" lon="4.75648">
        <ele>188</ele>
        <time>2018-05-09T10:41:17Z</time>
      </trkpt>
      <trkpt lat="45.95621" lon="4.75639">
        <ele>188</ele>
        <time>2018-05-09T10:41:18Z</time>
      </trkpt>
      <trkpt lat="45.95619" lon="4.75631">
        <ele>188</ele>
        <time>2018-05-09T10:41:19Z</time>
      </trkpt>
      <trkpt lat="45.95617" lon="4.75622">
        <ele>188</ele>
        <time>2018-05-09T10:41:20Z</time>
      </trkpt>
      <trkpt lat="45.95613" lon="4.75614">
        <ele>188</ele>
        <time>2018-05-09T10:41:21Z</time>
      </trkpt>
      <trkpt lat="45.95611" lon="4.75606">
        <ele>188</ele>
        <time>2018-05-09T10:41:22Z</time>
      </trkpt>
      <trkpt lat="45.95607" lon="4.75598">
        <ele>187</ele>
        <time>2018-05-09T10:41:23Z</time>
      </trkpt>
      <trkpt lat="45.95604" lon="4.75591">
        <ele>187</ele>
        <time>2018-05-09T10:41:24Z</time>
      </trkpt>
      <trkpt lat="45.95601" lon="4.75583">
        <ele>187</ele>
        <time>2018-05-09T10:41:25Z</time>
      </trkpt>
      <trkpt lat="45.95598" lon="4.75576">
        <ele>188</ele>
        <time>2018-05-09T10:41:26Z</time>
      </trkpt>
      <trkpt lat="45.95592" lon="4.75568">
        <ele>188</ele>
        <time>2018-05-09T10:41:27Z</time>
      </trkpt>
      <trkpt lat="45.95587" lon="4.75561">
        <ele>188</ele>
        <time>2018-05-09T10:41:28Z</time>
      </trkpt>
      <trkpt lat="45.95581" lon="4.75552">
        <ele>186</ele>
        <time>2018-05-09T10:41:29Z</time>
      </trkpt>
      <trkpt lat="45.95575" lon="4.75547">
        <ele>186</ele>
        <time>2018-05-09T10:41:30Z</time>
      </trkpt>
      <trkpt lat="45.9557" lon="4.75539">
        <ele>186</ele>
        <time>2018-05-09T10:41:31Z</time>
      </trkpt>
      <trkpt lat="45.95564" lon="4.75531">
        <ele>186</ele>
        <time>2018-05-09T10:41:32Z</time>
      </trkpt>
      <trkpt lat="45.95559" lon="4.75525">
        <ele>186</ele>
        <time>2018-05-09T10:41:33Z</time>
      </trkpt>
      <trkpt lat="45.95553" lon="4.75518">
        <ele>186</ele>
        <time>2018-05-09T10:41:34Z</time>
      </trkpt>
      <trkpt lat="45.95548" lon="4.75511">
        <ele>186</ele>
        <time>2018-05-09T10:41:35Z</time>
      </trkpt>
      <trkpt lat="45.95543" lon="4.75504">
        <ele>186</ele>
        <time>2018-05-09T10:41:36Z</time>
      </trkpt>
      <trkpt lat="45.9554" lon="4.75496">
        <ele>187</ele>
        <time>2018-05-09T10:41:37Z</time>
      </trkpt>
      <trkpt lat="45.95538" lon="4.75488">
        <ele>187</ele>
        <time>2018-05-09T10:41:38Z</time>
      </trkpt>
      <trkpt lat="45.95535" lon="4.75481">
        <ele>187</ele>
        <time>2018-05-09T10:41:39Z</time>
      </trkpt>
      <trkpt lat="45.95535" lon="4.75472">
        <ele>187</ele>
        <time>2018-05-09T10:41:40Z</time>
      </trkpt>
      <trkpt lat="45.95534" lon="4.75463">
        <ele>187</ele>
        <time>2018-05-09T10:41:41Z</time>
      </trkpt>
      <trkpt lat="45.9553" lon="4.75456">
        <ele>187</ele>
        <time>2018-05-09T10:41:42Z</time>
      </trkpt>
      <trkpt lat="45.95526" lon="4.75448">
        <ele>187</ele>
        <time>2018-05-09T10:41:43Z</time>
      </trkpt>
      <trkpt lat="45.9552" lon="4.75441">
        <ele>187</ele>
        <time>2018-05-09T10:41:44Z</time>
      </trkpt>
      <trkpt lat="45.95515" lon="4.75434">
        <ele>187</ele>
        <time>2018-05-09T10:41:45Z</time>
      </trkpt>
      <trkpt lat="45.95512" lon="4.75426">
        <ele>186</ele>
        <time>2018-05-09T10:41:46Z</time>
      </trkpt>
      <trkpt lat="45.95508" lon="4.75418">
        <ele>186</ele>
        <time>2018-05-09T10:41:47Z</time>
      </trkpt>
      <trkpt lat="45.95507" lon="4.75409">
        <ele>187</ele>
        <time>2018-05-09T10:41:48Z</time>
      </trkpt>
      <trkpt lat="45.95505" lon="4.75401">
        <ele>187</ele>
        <time>2018-05-09T10:41:49Z</time>
      </trkpt>
      <trkpt lat="45.95501" lon="4.75396">
        <ele>188</ele>
        <time>2018-05-09T10:41:50Z</time>
      </trkpt>
      <trkpt lat="45.95498" lon="4.7539">
        <ele>185</ele>
        <time>2018-05-09T10:41:51Z</time>
      </trkpt>
      <trkpt lat="45.95495" lon="4.75382">
        <ele>185</ele>
        <time>2018-05-09T10:41:52Z</time>
      </trkpt>
      <trkpt lat="45.95491" lon="4.75375">
        <ele>185</ele>
        <time>2018-05-09T10:41:53Z</time>
      </trkpt>
      <trkpt lat="45.95488" lon="4.75369">
        <ele>185</ele>
        <time>2018-05-09T10:41:54Z</time>
      </trkpt>
      <trkpt lat="45.95484" lon="4.75363">
        <ele>186</ele>
        <time>2018-05-09T10:41:55Z</time>
      </trkpt>
      <trkpt lat="45.95481" lon="4.75356">
        <ele>186</ele>
        <time>2018-05-09T10:41:56Z</time>
      </trkpt>
      <trkpt lat="45.95478" lon="4.75349">
        <ele>186</ele>
        <time>2018-05-09T10:41:57Z</time>
      </trkpt>
      <trkpt lat="45.95475" lon="4.75343">
        <ele>186</ele>
        <time>2018-05-09T10:41:58Z</time>
      </trkpt>
      <trkpt lat="45.95472" lon="4.75334">
        <ele>186</ele>
        <time>2018-05-09T10:41:59Z</time>
      </trkpt>
      <trkpt lat="45.9547" lon="4.75329">
        <ele>188</ele>
        <time>2018-05-09T10:42:00Z</time>
      </trkpt>
      <trkpt lat="45.95467" lon="4.75324">
        <ele>188</ele>
        <time>2018-05-09T10:42:01Z</time>
      </trkpt>
      <trkpt lat="45.95463" lon="4.75317">
        <ele>188</ele>
        <time>2018-05-09T10:42:02Z</time>
      </trkpt>
      <trkpt lat="45.9546" lon="4.75311">
        <ele>188</ele>
        <time>2018-05-09T10:42:03Z</time>
      </trkpt>
      <trkpt lat="45.95457" lon="4.75306">
        <ele>188</ele>
        <time>2018-05-09T10:42:04Z</time>
      </trkpt>
      <trkpt lat="45.95453" lon="4.753">
        <ele>188</ele>
        <time>2018-05-09T10:42:05Z</time>
      </trkpt>
      <trkpt lat="45.9545" lon="4.75295">
        <ele>188</ele>
        <time>2018-05-09T10:42:06Z</time>
      </trkpt>
      <trkpt lat="45.95447" lon="4.75289">
        <ele>188</ele>
        <time>2018-05-09T10:42:07Z</time>
      </trkpt>
      <trkpt lat="45.95444" lon="4.75285">
        <ele>188</ele>
        <time>2018-05-09T10:42:08Z</time>
      </trkpt>
      <trkpt lat="45.95442" lon="4.7528">
        <ele>188</ele>
        <time>2018-05-09T10:42:09Z</time>
      </trkpt>
      <trkpt lat="45.95439" lon="4.75274">
        <ele>189</ele>
        <time>2018-05-09T10:42:10Z</time>
      </trkpt>
      <trkpt lat="45.95436" lon="4.75269">
        <ele>189</ele>
        <time>2018-05-09T10:42:11Z</time>
      </trkpt>
      <trkpt lat="45.95433" lon="4.75263">
        <ele>189</ele>
        <time>2018-05-09T10:42:12Z</time>
      </trkpt>
      <trkpt lat="45.95428" lon="4.75257">
        <ele>189</ele>
        <time>2018-05-09T10:42:13Z</time>
      </trkpt>
      <trkpt lat="45.95425" lon="4.7525">
        <ele>190</ele>
        <time>2018-05-09T10:42:14Z</time>
      </trkpt>
      <trkpt lat="45.95423" lon="4.75242">
        <ele>190</ele>
        <time>2018-05-09T10:42:16Z</time>
      </trkpt>
      <trkpt lat="45.9542" lon="4.75236">
        <ele>190</ele>
        <time>2018-05-09T10:42:17Z</time>
      </trkpt>
      <trkpt lat="45.95417" lon="4.7523">
        <ele>190</ele>
        <time>2018-05-09T10:42:18Z</time>
      </trkpt>
      <trkpt lat="45.95414" lon="4.75225">
        <ele>189</ele>
        <time>2018-05-09T10:42:19Z</time>
      </trkpt>
      <trkpt lat="45.95412" lon="4.7522">
        <ele>189</ele>
        <time>2018-05-09T10:42:20Z</time>
      </trkpt>
      <trkpt lat="45.95409" lon="4.75213">
        <ele>189</ele>
        <time>2018-05-09T10:42:21Z</time>
      </trkpt>
      <trkpt lat="45.95407" lon="4.75208">
        <ele>189</ele>
        <time>2018-05-09T10:42:22Z</time>
      </trkpt>
      <trkpt lat="45.95403" lon="4.75201">
        <ele>189</ele>
        <time>2018-05-09T10:42:23Z</time>
      </trkpt>
      <trkpt lat="45.954" lon="4.75195">
        <ele>189</ele>
        <time>2018-05-09T10:42:24Z</time>
      </trkpt>
      <trkpt lat="45.95397" lon="4.7519">
        <ele>189</ele>
        <time>2018-05-09T10:42:25Z</time>
      </trkpt>
      <trkpt lat="45.95391" lon="4.75181">
        <ele>189</ele>
        <time>2018-05-09T10:42:27Z</time>
      </trkpt>
      <trkpt lat="45.9539" lon="4.75177">
        <ele>189</ele>
        <time>2018-05-09T10:42:28Z</time>
      </trkpt>
      <trkpt lat="45.95386" lon="4.75168">
        <ele>189</ele>
        <time>2018-05-09T10:42:30Z</time>
      </trkpt>
      <trkpt lat="45.95383" lon="4.75163">
        <ele>191</ele>
        <time>2018-05-09T10:42:31Z</time>
      </trkpt>
      <trkpt lat="45.95378" lon="4.75154">
        <ele>191</ele>
        <time>2018-05-09T10:42:33Z</time>
      </trkpt>
      <trkpt lat="45.95376" lon="4.75149">
        <ele>191</ele>
        <time>2018-05-09T10:42:34Z</time>
      </trkpt>
      <trkpt lat="45.95373" lon="4.75144">
        <ele>191</ele>
        <time>2018-05-09T10:42:35Z</time>
      </trkpt>
      <trkpt lat="45.95369" lon="4.75139">
        <ele>191</ele>
        <time>2018-05-09T10:42:36Z</time>
      </trkpt>
      <trkpt lat="45.95366" lon="4.75133">
        <ele>191</ele>
        <time>2018-05-09T10:42:37Z</time>
      </trkpt>
      <trkpt lat="45.95363" lon="4.75128">
        <ele>191</ele>
        <time>2018-05-09T10:42:38Z</time>
      </trkpt>
      <trkpt lat="45.9536" lon="4.75122">
        <ele>191</ele>
        <time>2018-05-09T10:42:39Z</time>
      </trkpt>
      <trkpt lat="45.95357" lon="4.75115">
        <ele>192</ele>
        <time>2018-05-09T10:42:40Z</time>
      </trkpt>
      <trkpt lat="45.95353" lon="4.7511">
        <ele>192</ele>
        <time>2018-05-09T10:42:41Z</time>
      </trkpt>
      <trkpt lat="45.95349" lon="4.75105">
        <ele>192</ele>
        <time>2018-05-09T10:42:42Z</time>
      </trkpt>
      <trkpt lat="45.95346" lon="4.751">
        <ele>192</ele>
        <time>2018-05-09T10:42:43Z</time>
      </trkpt>
      <trkpt lat="45.95342" lon="4.75096">
        <ele>192</ele>
        <time>2018-05-09T10:42:44Z</time>
      </trkpt>
      <trkpt lat="45.95336" lon="4.75086">
        <ele>193</ele>
        <time>2018-05-09T10:42:46Z</time>
      </trkpt>
      <trkpt lat="45.95333" lon="4.75082">
        <ele>193</ele>
        <time>2018-05-09T10:42:47Z</time>
      </trkpt>
      <trkpt lat="45.95328" lon="4.75077">
        <ele>192</ele>
        <time>2018-05-09T10:42:48Z</time>
      </trkpt>
      <trkpt lat="45.95324" lon="4.75072">
        <ele>192</ele>
        <time>2018-05-09T10:42:49Z</time>
      </trkpt>
      <trkpt lat="45.95322" lon="4.75066">
        <ele>192</ele>
        <time>2018-05-09T10:42:50Z</time>
      </trkpt>
      <trkpt lat="45.95318" lon="4.7506">
        <ele>192</ele>
        <time>2018-05-09T10:42:51Z</time>
      </trkpt>
      <trkpt lat="45.95315" lon="4.75055">
        <ele>192</ele>
        <time>2018-05-09T10:42:52Z</time>
      </trkpt>
      <trkpt lat="45.95312" lon="4.75049">
        <ele>192</ele>
        <time>2018-05-09T10:42:53Z</time>
      </trkpt>
      <trkpt lat="45.95308" lon="4.75044">
        <ele>192</ele>
        <time>2018-05-09T10:42:54Z</time>
      </trkpt>
      <trkpt lat="45.95304" lon="4.75039">
        <ele>192</ele>
        <time>2018-05-09T10:42:55Z</time>
      </trkpt>
      <trkpt lat="45.95298" lon="4.75029">
        <ele>191</ele>
        <time>2018-05-09T10:42:57Z</time>
      </trkpt>
      <trkpt lat="45.95295" lon="4.75024">
        <ele>191</ele>
        <time>2018-05-09T10:42:58Z</time>
      </trkpt>
      <trkpt lat="45.95292" lon="4.75019">
        <ele>191</ele>
        <time>2018-05-09T10:42:59Z</time>
      </trkpt>
      <trkpt lat="45.95289" lon="4.75013">
        <ele>191</ele>
        <time>2018-05-09T10:43:00Z</time>
      </trkpt>
      <trkpt lat="45.95286" lon="4.75008">
        <ele>191</ele>
        <time>2018-05-09T10:43:01Z</time>
      </trkpt>
      <trkpt lat="45.9528" lon="4.75002">
        <ele>191</ele>
        <time>2018-05-09T10:43:02Z</time>
      </trkpt>
      <trkpt lat="45.95277" lon="4.74996">
        <ele>192</ele>
        <time>2018-05-09T10:43:03Z</time>
      </trkpt>
      <trkpt lat="45.95274" lon="4.7499">
        <ele>192</ele>
        <time>2018-05-09T10:43:04Z</time>
      </trkpt>
      <trkpt lat="45.95271" lon="4.74985">
        <ele>192</ele>
        <time>2018-05-09T10:43:05Z</time>
      </trkpt>
      <trkpt lat="45.95266" lon="4.74979">
        <ele>192</ele>
        <time>2018-05-09T10:43:06Z</time>
      </trkpt>
      <trkpt lat="45.95263" lon="4.74974">
        <ele>192</ele>
        <time>2018-05-09T10:43:07Z</time>
      </trkpt>
      <trkpt lat="45.95258" lon="4.74969">
        <ele>192</ele>
        <time>2018-05-09T10:43:08Z</time>
      </trkpt>
      <trkpt lat="45.95257" lon="4.74962">
        <ele>192</ele>
        <time>2018-05-09T10:43:09Z</time>
      </trkpt>
      <trkpt lat="45.95253" lon="4.74957">
        <ele>192</ele>
        <time>2018-05-09T10:43:10Z</time>
      </trkpt>
      <trkpt lat="45.95249" lon="4.7495">
        <ele>192</ele>
        <time>2018-05-09T10:43:11Z</time>
      </trkpt>
      <trkpt lat="45.95245" lon="4.74944">
        <ele>192</ele>
        <time>2018-05-09T10:43:12Z</time>
      </trkpt>
      <trkpt lat="45.95242" lon="4.74938">
        <ele>192</ele>
        <time>2018-05-09T10:43:13Z</time>
      </trkpt>
      <trkpt lat="45.95237" lon="4.74932">
        <ele>192</ele>
        <time>2018-05-09T10:43:14Z</time>
      </trkpt>
      <trkpt lat="45.95234" lon="4.74926">
        <ele>192</ele>
        <time>2018-05-09T10:43:15Z</time>
      </trkpt>
      <trkpt lat="45.9523" lon="4.74919">
        <ele>192</ele>
        <time>2018-05-09T10:43:16Z</time>
      </trkpt>
      <trkpt lat="45.95227" lon="4.74913">
        <ele>193</ele>
        <time>2018-05-09T10:43:17Z</time>
      </trkpt>
      <trkpt lat="45.95223" lon="4.74907">
        <ele>193</ele>
        <time>2018-05-09T10:43:18Z</time>
      </trkpt>
      <trkpt lat="45.9522" lon="4.74901">
        <ele>193</ele>
        <time>2018-05-09T10:43:19Z</time>
      </trkpt>
      <trkpt lat="45.95215" lon="4.74896">
        <ele>193</ele>
        <time>2018-05-09T10:43:20Z</time>
      </trkpt>
      <trkpt lat="45.9521" lon="4.74891">
        <ele>193</ele>
        <time>2018-05-09T10:43:21Z</time>
      </trkpt>
      <trkpt lat="45.95205" lon="4.74884">
        <ele>194</ele>
        <time>2018-05-09T10:43:22Z</time>
      </trkpt>
      <trkpt lat="45.95201" lon="4.74877">
        <ele>194</ele>
        <time>2018-05-09T10:43:23Z</time>
      </trkpt>
      <trkpt lat="45.95198" lon="4.74872">
        <ele>194</ele>
        <time>2018-05-09T10:43:24Z</time>
      </trkpt>
      <trkpt lat="45.95195" lon="4.74865">
        <ele>194</ele>
        <time>2018-05-09T10:43:25Z</time>
      </trkpt>
      <trkpt lat="45.95191" lon="4.74858">
        <ele>194</ele>
        <time>2018-05-09T10:43:26Z</time>
      </trkpt>
      <trkpt lat="45.95186" lon="4.74852">
        <ele>194</ele>
        <time>2018-05-09T10:43:27Z</time>
      </trkpt>
      <trkpt lat="45.95182" lon="4.74845">
        <ele>194</ele>
        <time>2018-05-09T10:43:28Z</time>
      </trkpt>
      <trkpt lat="45.95178" lon="4.74838">
        <ele>194</ele>
        <time>2018-05-09T10:43:29Z</time>
      </trkpt>
      <trkpt lat="45.95175" lon="4.74831">
        <ele>194</ele>
        <time>2018-05-09T10:43:30Z</time>
      </trkpt>
      <trkpt lat="45.9517" lon="4.74825">
        <ele>194</ele>
        <time>2018-05-09T10:43:31Z</time>
      </trkpt>
      <trkpt lat="45.95166" lon="4.74818">
        <ele>194</ele>
        <time>2018-05-09T10:43:32Z</time>
      </trkpt>
      <trkpt lat="45.95163" lon="4.74813">
        <ele>194</ele>
        <time>2018-05-09T10:43:33Z</time>
      </trkpt>
      <trkpt lat="45.9516" lon="4.74805">
        <ele>194</ele>
        <time>2018-05-09T10:43:34Z</time>
      </trkpt>
      <trkpt lat="45.95156" lon="4.74799">
        <ele>194</ele>
        <time>2018-05-09T10:43:35Z</time>
      </trkpt>
      <trkpt lat="45.95151" lon="4.74792">
        <ele>194</ele>
        <time>2018-05-09T10:43:36Z</time>
      </trkpt>
      <trkpt lat="45.95147" lon="4.74785">
        <ele>194</ele>
        <time>2018-05-09T10:43:37Z</time>
      </trkpt>
      <trkpt lat="45.95144" lon="4.7478">
        <ele>194</ele>
        <time>2018-05-09T10:43:38Z</time>
      </trkpt>
      <trkpt lat="45.95138" lon="4.74774">
        <ele>194</ele>
        <time>2018-05-09T10:43:39Z</time>
      </trkpt>
      <trkpt lat="45.95135" lon="4.74767">
        <ele>194</ele>
        <time>2018-05-09T10:43:40Z</time>
      </trkpt>
      <trkpt lat="45.95131" lon="4.74761">
        <ele>194</ele>
        <time>2018-05-09T10:43:41Z</time>
      </trkpt>
      <trkpt lat="45.95127" lon="4.74754">
        <ele>194</ele>
        <time>2018-05-09T10:43:42Z</time>
      </trkpt>
      <trkpt lat="45.95123" lon="4.74747">
        <ele>194</ele>
        <time>2018-05-09T10:43:43Z</time>
      </trkpt>
      <trkpt lat="45.95119" lon="4.7474">
        <ele>194</ele>
        <time>2018-05-09T10:43:44Z</time>
      </trkpt>
      <trkpt lat="45.95115" lon="4.74732">
        <ele>194</ele>
        <time>2018-05-09T10:43:45Z</time>
      </trkpt>
      <trkpt lat="45.95111" lon="4.74725">
        <ele>194</ele>
        <time>2018-05-09T10:43:46Z</time>
      </trkpt>
      <trkpt lat="45.95107" lon="4.74717">
        <ele>194</ele>
        <time>2018-05-09T10:43:47Z</time>
      </trkpt>
      <trkpt lat="45.95103" lon="4.74711">
        <ele>194</ele>
        <time>2018-05-09T10:43:48Z</time>
      </trkpt>
      <trkpt lat="45.95098" lon="4.74705">
        <ele>194</ele>
        <time>2018-05-09T10:43:49Z</time>
      </trkpt>
      <trkpt lat="45.95093" lon="4.74698">
        <ele>194</ele>
        <time>2018-05-09T10:43:50Z</time>
      </trkpt>
      <trkpt lat="45.95089" lon="4.74691">
        <ele>195</ele>
        <time>2018-05-09T10:43:51Z</time>
      </trkpt>
      <trkpt lat="45.95086" lon="4.74684">
        <ele>195</ele>
        <time>2018-05-09T10:43:52Z</time>
      </trkpt>
      <trkpt lat="45.95082" lon="4.74677">
        <ele>195</ele>
        <time>2018-05-09T10:43:53Z</time>
      </trkpt>
      <trkpt lat="45.95078" lon="4.74669">
        <ele>195</ele>
        <time>2018-05-09T10:43:54Z</time>
      </trkpt>
      <trkpt lat="45.95074" lon="4.74661">
        <ele>195</ele>
        <time>2018-05-09T10:43:55Z</time>
      </trkpt>
      <trkpt lat="45.9507" lon="4.74652">
        <ele>195</ele>
        <time>2018-05-09T10:43:56Z</time>
      </trkpt>
      <trkpt lat="45.95066" lon="4.74645">
        <ele>195</ele>
        <time>2018-05-09T10:43:57Z</time>
      </trkpt>
      <trkpt lat="45.95063" lon="4.74637">
        <ele>194</ele>
        <time>2018-05-09T10:43:58Z</time>
      </trkpt>
      <trkpt lat="45.95057" lon="4.74632">
        <ele>194</ele>
        <time>2018-05-09T10:43:59Z</time>
      </trkpt>
      <trkpt lat="45.95053" lon="4.74626">
        <ele>194</ele>
        <time>2018-05-09T10:44:00Z</time>
      </trkpt>
      <trkpt lat="45.95049" lon="4.74619">
        <ele>194</ele>
        <time>2018-05-09T10:44:01Z</time>
      </trkpt>
      <trkpt lat="45.95045" lon="4.74614">
        <ele>194</ele>
        <time>2018-05-09T10:44:02Z</time>
      </trkpt>
      <trkpt lat="45.95041" lon="4.74606">
        <ele>194</ele>
        <time>2018-05-09T10:44:03Z</time>
      </trkpt>
      <trkpt lat="45.95038" lon="4.74599">
        <ele>194</ele>
        <time>2018-05-09T10:44:04Z</time>
      </trkpt>
      <trkpt lat="45.95034" lon="4.74592">
        <ele>194</ele>
        <time>2018-05-09T10:44:05Z</time>
      </trkpt>
      <trkpt lat="45.95031" lon="4.74584">
        <ele>194</ele>
        <time>2018-05-09T10:44:06Z</time>
      </trkpt>
      <trkpt lat="45.95028" lon="4.74578">
        <ele>194</ele>
        <time>2018-05-09T10:44:07Z</time>
      </trkpt>
      <trkpt lat="45.95024" lon="4.74571">
        <ele>194</ele>
        <time>2018-05-09T10:44:08Z</time>
      </trkpt>
      <trkpt lat="45.95021" lon="4.74565">
        <ele>194</ele>
        <time>2018-05-09T10:44:09Z</time>
      </trkpt>
      <trkpt lat="45.95016" lon="4.74557">
        <ele>194</ele>
        <time>2018-05-09T10:44:10Z</time>
      </trkpt>
      <trkpt lat="45.95012" lon="4.74549">
        <ele>194</ele>
        <time>2018-05-09T10:44:11Z</time>
      </trkpt>
      <trkpt lat="45.95008" lon="4.74542">
        <ele>194</ele>
        <time>2018-05-09T10:44:12Z</time>
      </trkpt>
      <trkpt lat="45.95005" lon="4.74536">
        <ele>194</ele>
        <time>2018-05-09T10:44:13Z</time>
      </trkpt>
      <trkpt lat="45.95002" lon="4.74529">
        <ele>194</ele>
        <time>2018-05-09T10:44:14Z</time>
      </trkpt>
      <trkpt lat="45.94997" lon="4.74523">
        <ele>193</ele>
        <time>2018-05-09T10:44:15Z</time>
      </trkpt>
      <trkpt lat="45.94994" lon="4.74515">
        <ele>193</ele>
        <time>2018-05-09T10:44:16Z</time>
      </trkpt>
      <trkpt lat="45.94991" lon="4.74508">
        <ele>193</ele>
        <time>2018-05-09T10:44:17Z</time>
      </trkpt>
      <trkpt lat="45.94987" lon="4.745">
        <ele>193</ele>
        <time>2018-05-09T10:44:18Z</time>
      </trkpt>
      <trkpt lat="45.94982" lon="4.74493">
        <ele>193</ele>
        <time>2018-05-09T10:44:19Z</time>
      </trkpt>
      <trkpt lat="45.94978" lon="4.74486">
        <ele>193</ele>
        <time>2018-05-09T10:44:20Z</time>
      </trkpt>
      <trkpt lat="45.94974" lon="4.74479">
        <ele>193</ele>
        <time>2018-05-09T10:44:21Z</time>
      </trkpt>
      <trkpt lat="45.94971" lon="4.74472">
        <ele>193</ele>
        <time>2018-05-09T10:44:22Z</time>
      </trkpt>
      <trkpt lat="45.94968" lon="4.74464">
        <ele>193</ele>
        <time>2018-05-09T10:44:23Z</time>
      </trkpt>
      <trkpt lat="45.94963" lon="4.74459">
        <ele>193</ele>
        <time>2018-05-09T10:44:24Z</time>
      </trkpt>
      <trkpt lat="45.9496" lon="4.74452">
        <ele>192</ele>
        <time>2018-05-09T10:44:25Z</time>
      </trkpt>
      <trkpt lat="45.94956" lon="4.74444">
        <ele>192</ele>
        <time>2018-05-09T10:44:26Z</time>
      </trkpt>
      <trkpt lat="45.94952" lon="4.74437">
        <ele>192</ele>
        <time>2018-05-09T10:44:27Z</time>
      </trkpt>
      <trkpt lat="45.94949" lon="4.7443">
        <ele>192</ele>
        <time>2018-05-09T10:44:28Z</time>
      </trkpt>
      <trkpt lat="45.94945" lon="4.74422">
        <ele>192</ele>
        <time>2018-05-09T10:44:29Z</time>
      </trkpt>
      <trkpt lat="45.94941" lon="4.74415">
        <ele>192</ele>
        <time>2018-05-09T10:44:30Z</time>
      </trkpt>
      <trkpt lat="45.94937" lon="4.74408">
        <ele>192</ele>
        <time>2018-05-09T10:44:31Z</time>
      </trkpt>
      <trkpt lat="45.94933" lon="4.744">
        <ele>192</ele>
        <time>2018-05-09T10:44:32Z</time>
      </trkpt>
      <trkpt lat="45.94929" lon="4.74394">
        <ele>192</ele>
        <time>2018-05-09T10:44:33Z</time>
      </trkpt>
      <trkpt lat="45.94925" lon="4.74387">
        <ele>192</ele>
        <time>2018-05-09T10:44:34Z</time>
      </trkpt>
      <trkpt lat="45.9492" lon="4.74381">
        <ele>192</ele>
        <time>2018-05-09T10:44:35Z</time>
      </trkpt>
      <trkpt lat="45.94916" lon="4.74373">
        <ele>191</ele>
        <time>2018-05-09T10:44:36Z</time>
      </trkpt>
      <trkpt lat="45.94912" lon="4.74366">
        <ele>191</ele>
        <time>2018-05-09T10:44:37Z</time>
      </trkpt>
      <trkpt lat="45.94908" lon="4.74358">
        <ele>191</ele>
        <time>2018-05-09T10:44:38Z</time>
      </trkpt>
      <trkpt lat="45.94904" lon="4.7435">
        <ele>191</ele>
        <time>2018-05-09T10:44:39Z</time>
      </trkpt>
      <trkpt lat="45.949" lon="4.74342">
        <ele>191</ele>
        <time>2018-05-09T10:44:40Z</time>
      </trkpt>
      <trkpt lat="45.94896" lon="4.74333">
        <ele>191</ele>
        <time>2018-05-09T10:44:41Z</time>
      </trkpt>
      <trkpt lat="45.94891" lon="4.74326">
        <ele>191</ele>
        <time>2018-05-09T10:44:42Z</time>
      </trkpt>
      <trkpt lat="45.94887" lon="4.74317">
        <ele>191</ele>
        <time>2018-05-09T10:44:43Z</time>
      </trkpt>
      <trkpt lat="45.94882" lon="4.74309">
        <ele>191</ele>
        <time>2018-05-09T10:44:44Z</time>
      </trkpt>
      <trkpt lat="45.94878" lon="4.74301">
        <ele>191</ele>
        <time>2018-05-09T10:44:45Z</time>
      </trkpt>
      <trkpt lat="45.94874" lon="4.74292">
        <ele>191</ele>
        <time>2018-05-09T10:44:46Z</time>
      </trkpt>
      <trkpt lat="45.9487" lon="4.74284">
        <ele>191</ele>
        <time>2018-05-09T10:44:47Z</time>
      </trkpt>
      <trkpt lat="45.94866" lon="4.74275">
        <ele>191</ele>
        <time>2018-05-09T10:44:48Z</time>
      </trkpt>
      <trkpt lat="45.94862" lon="4.74269">
        <ele>190</ele>
        <time>2018-05-09T10:44:49Z</time>
      </trkpt>
      <trkpt lat="45.94859" lon="4.74261">
        <ele>190</ele>
        <time>2018-05-09T10:44:50Z</time>
      </trkpt>
      <trkpt lat="45.94855" lon="4.74254">
        <ele>190</ele>
        <time>2018-05-09T10:44:51Z</time>
      </trkpt>
      <trkpt lat="45.94852" lon="4.74247">
        <ele>190</ele>
        <time>2018-05-09T10:44:52Z</time>
      </trkpt>
      <trkpt lat="45.94846" lon="4.74238">
        <ele>190</ele>
        <time>2018-05-09T10:44:53Z</time>
      </trkpt>
      <trkpt lat="45.94843" lon="4.74231">
        <ele>190</ele>
        <time>2018-05-09T10:44:54Z</time>
      </trkpt>
      <trkpt lat="45.94839" lon="4.74223">
        <ele>190</ele>
        <time>2018-05-09T10:44:55Z</time>
      </trkpt>
      <trkpt lat="45.94835" lon="4.74215">
        <ele>190</ele>
        <time>2018-05-09T10:44:56Z</time>
      </trkpt>
      <trkpt lat="45.9483" lon="4.74206">
        <ele>189</ele>
        <time>2018-05-09T10:44:57Z</time>
      </trkpt>
      <trkpt lat="45.94826" lon="4.74199">
        <ele>189</ele>
        <time>2018-05-09T10:44:58Z</time>
      </trkpt>
      <trkpt lat="45.94822" lon="4.74193">
        <ele>189</ele>
        <time>2018-05-09T10:44:59Z</time>
      </trkpt>
      <trkpt lat="45.94818" lon="4.74187">
        <ele>189</ele>
        <time>2018-05-09T10:45:00Z</time>
      </trkpt>
      <trkpt lat="45.94814" lon="4.7418">
        <ele>189</ele>
        <time>2018-05-09T10:45:01Z</time>
      </trkpt>
      <trkpt lat="45.94811" lon="4.74173">
        <ele>189</ele>
        <time>2018-05-09T10:45:02Z</time>
      </trkpt>
      <trkpt lat="45.94807" lon="4.74166">
        <ele>189</ele>
        <time>2018-05-09T10:45:03Z</time>
      </trkpt>
      <trkpt lat="45.94804" lon="4.7416">
        <ele>189</ele>
        <time>2018-05-09T10:45:04Z</time>
      </trkpt>
      <trkpt lat="45.948" lon="4.74153">
        <ele>189</ele>
        <time>2018-05-09T10:45:05Z</time>
      </trkpt>
      <trkpt lat="45.94796" lon="4.74146">
        <ele>189</ele>
        <time>2018-05-09T10:45:06Z</time>
      </trkpt>
      <trkpt lat="45.94792" lon="4.74139">
        <ele>189</ele>
        <time>2018-05-09T10:45:07Z</time>
      </trkpt>
      <trkpt lat="45.94786" lon="4.74132">
        <ele>189</ele>
        <time>2018-05-09T10:45:08Z</time>
      </trkpt>
      <trkpt lat="45.94782" lon="4.74125">
        <ele>189</ele>
        <time>2018-05-09T10:45:09Z</time>
      </trkpt>
      <trkpt lat="45.94777" lon="4.74119">
        <ele>189</ele>
        <time>2018-05-09T10:45:10Z</time>
      </trkpt>
      <trkpt lat="45.94773" lon="4.74112">
        <ele>189</ele>
        <time>2018-05-09T10:45:11Z</time>
      </trkpt>
      <trkpt lat="45.94768" lon="4.74105">
        <ele>189</ele>
        <time>2018-05-09T10:45:12Z</time>
      </trkpt>
      <trkpt lat="45.94763" lon="4.74099">
        <ele>189</ele>
        <time>2018-05-09T10:45:13Z</time>
      </trkpt>
      <trkpt lat="45.94758" lon="4.74093">
        <ele>189</ele>
        <time>2018-05-09T10:45:14Z</time>
      </trkpt>
      <trkpt lat="45.94754" lon="4.74086">
        <ele>189</ele>
        <time>2018-05-09T10:45:15Z</time>
      </trkpt>
      <trkpt lat="45.94749" lon="4.7408">
        <ele>189</ele>
        <time>2018-05-09T10:45:16Z</time>
      </trkpt>
      <trkpt lat="45.94744" lon="4.74074">
        <ele>188</ele>
        <time>2018-05-09T10:45:17Z</time>
      </trkpt>
      <trkpt lat="45.9474" lon="4.74068">
        <ele>188</ele>
        <time>2018-05-09T10:45:18Z</time>
      </trkpt>
      <trkpt lat="45.94735" lon="4.74062">
        <ele>188</ele>
        <time>2018-05-09T10:45:19Z</time>
      </trkpt>
      <trkpt lat="45.94731" lon="4.74056">
        <ele>188</ele>
        <time>2018-05-09T10:45:20Z</time>
      </trkpt>
      <trkpt lat="45.94727" lon="4.7405">
        <ele>188</ele>
        <time>2018-05-09T10:45:21Z</time>
      </trkpt>
      <trkpt lat="45.94722" lon="4.74044">
        <ele>187</ele>
        <time>2018-05-09T10:45:22Z</time>
      </trkpt>
      <trkpt lat="45.94717" lon="4.74038">
        <ele>187</ele>
        <time>2018-05-09T10:45:23Z</time>
      </trkpt>
      <trkpt lat="45.94713" lon="4.74032">
        <ele>187</ele>
        <time>2018-05-09T10:45:24Z</time>
      </trkpt>
      <trkpt lat="45.94709" lon="4.74026">
        <ele>187</ele>
        <time>2018-05-09T10:45:25Z</time>
      </trkpt>
      <trkpt lat="45.94704" lon="4.74018">
        <ele>187</ele>
        <time>2018-05-09T10:45:26Z</time>
      </trkpt>
      <trkpt lat="45.947" lon="4.74012">
        <ele>187</ele>
        <time>2018-05-09T10:45:27Z</time>
      </trkpt>
      <trkpt lat="45.94696" lon="4.74006">
        <ele>187</ele>
        <time>2018-05-09T10:45:28Z</time>
      </trkpt>
      <trkpt lat="45.94692" lon="4.74001">
        <ele>187</ele>
        <time>2018-05-09T10:45:29Z</time>
      </trkpt>
      <trkpt lat="45.94688" lon="4.73995">
        <ele>187</ele>
        <time>2018-05-09T10:45:30Z</time>
      </trkpt>
      <trkpt lat="45.94684" lon="4.73991">
        <ele>187</ele>
        <time>2018-05-09T10:45:31Z</time>
      </trkpt>
      <trkpt lat="45.9468" lon="4.73984">
        <ele>187</ele>
        <time>2018-05-09T10:45:32Z</time>
      </trkpt>
      <trkpt lat="45.94675" lon="4.73978">
        <ele>187</ele>
        <time>2018-05-09T10:45:33Z</time>
      </trkpt>
      <trkpt lat="45.94671" lon="4.73972">
        <ele>187</ele>
        <time>2018-05-09T10:45:34Z</time>
      </trkpt>
      <trkpt lat="45.94666" lon="4.73966">
        <ele>187</ele>
        <time>2018-05-09T10:45:35Z</time>
      </trkpt>
      <trkpt lat="45.94661" lon="4.7396">
        <ele>187</ele>
        <time>2018-05-09T10:45:36Z</time>
      </trkpt>
      <trkpt lat="45.94657" lon="4.73954">
        <ele>187</ele>
        <time>2018-05-09T10:45:37Z</time>
      </trkpt>
      <trkpt lat="45.94652" lon="4.73947">
        <ele>187</ele>
        <time>2018-05-09T10:45:38Z</time>
      </trkpt>
      <trkpt lat="45.94647" lon="4.73941">
        <ele>187</ele>
        <time>2018-05-09T10:45:39Z</time>
      </trkpt>
      <trkpt lat="45.94643" lon="4.73935">
        <ele>187</ele>
        <time>2018-05-09T10:45:40Z</time>
      </trkpt>
      <trkpt lat="45.94637" lon="4.73926">
        <ele>187</ele>
        <time>2018-05-09T10:45:41Z</time>
      </trkpt>
      <trkpt lat="45.94632" lon="4.7392">
        <ele>187</ele>
        <time>2018-05-09T10:45:42Z</time>
      </trkpt>
      <trkpt lat="45.94626" lon="4.73914">
        <ele>187</ele>
        <time>2018-05-09T10:45:43Z</time>
      </trkpt>
      <trkpt lat="45.9462" lon="4.73909">
        <ele>187</ele>
        <time>2018-05-09T10:45:44Z</time>
      </trkpt>
      <trkpt lat="45.94616" lon="4.73902">
        <ele>187</ele>
        <time>2018-05-09T10:45:45Z</time>
      </trkpt>
      <trkpt lat="45.9461" lon="4.73897">
        <ele>187</ele>
        <time>2018-05-09T10:45:46Z</time>
      </trkpt>
      <trkpt lat="45.94606" lon="4.73891">
        <ele>187</ele>
        <time>2018-05-09T10:45:47Z</time>
      </trkpt>
      <trkpt lat="45.94602" lon="4.73885">
        <ele>187</ele>
        <time>2018-05-09T10:45:48Z</time>
      </trkpt>
      <trkpt lat="45.94598" lon="4.73879">
        <ele>187</ele>
        <time>2018-05-09T10:45:49Z</time>
      </trkpt>
      <trkpt lat="45.94593" lon="4.73874">
        <ele>187</ele>
        <time>2018-05-09T10:45:50Z</time>
      </trkpt>
      <trkpt lat="45.94588" lon="4.73868">
        <ele>187</ele>
        <time>2018-05-09T10:45:51Z</time>
      </trkpt>
      <trkpt lat="45.94582" lon="4.73862">
        <ele>186</ele>
        <time>2018-05-09T10:45:52Z</time>
      </trkpt>
      <trkpt lat="45.94576" lon="4.73855">
        <ele>186</ele>
        <time>2018-05-09T10:45:53Z</time>
      </trkpt>
      <trkpt lat="45.94571" lon="4.7385">
        <ele>186</ele>
        <time>2018-05-09T10:45:54Z</time>
      </trkpt>
      <trkpt lat="45.94566" lon="4.73845">
        <ele>186</ele>
        <time>2018-05-09T10:45:55Z</time>
      </trkpt>
      <trkpt lat="45.9456" lon="4.73839">
        <ele>186</ele>
        <time>2018-05-09T10:45:56Z</time>
      </trkpt>
      <trkpt lat="45.94555" lon="4.73833">
        <ele>186</ele>
        <time>2018-05-09T10:45:57Z</time>
      </trkpt>
      <trkpt lat="45.9455" lon="4.73828">
        <ele>186</ele>
        <time>2018-05-09T10:45:58Z</time>
      </trkpt>
      <trkpt lat="45.94544" lon="4.73823">
        <ele>186</ele>
        <time>2018-05-09T10:45:59Z</time>
      </trkpt>
      <trkpt lat="45.94539" lon="4.73818">
        <ele>186</ele>
        <time>2018-05-09T10:46:00Z</time>
      </trkpt>
      <trkpt lat="45.94534" lon="4.73812">
        <ele>186</ele>
        <time>2018-05-09T10:46:01Z</time>
      </trkpt>
      <trkpt lat="45.94529" lon="4.73807">
        <ele>186</ele>
        <time>2018-05-09T10:46:02Z</time>
      </trkpt>
      <trkpt lat="45.94524" lon="4.73802">
        <ele>186</ele>
        <time>2018-05-09T10:46:03Z</time>
      </trkpt>
      <trkpt lat="45.94519" lon="4.73796">
        <ele>186</ele>
        <time>2018-05-09T10:46:04Z</time>
      </trkpt>
      <trkpt lat="45.94514" lon="4.73791">
        <ele>186</ele>
        <time>2018-05-09T10:46:05Z</time>
      </trkpt>
      <trkpt lat="45.94509" lon="4.73786">
        <ele>186</ele>
        <time>2018-05-09T10:46:06Z</time>
      </trkpt>
      <trkpt lat="45.94504" lon="4.73781">
        <ele>186</ele>
        <time>2018-05-09T10:46:07Z</time>
      </trkpt>
      <trkpt lat="45.945" lon="4.73776">
        <ele>186</ele>
        <time>2018-05-09T10:46:08Z</time>
      </trkpt>
      <trkpt lat="45.94493" lon="4.73768">
        <ele>186</ele>
        <time>2018-05-09T10:46:10Z</time>
      </trkpt>
      <trkpt lat="45.9449" lon="4.73764">
        <ele>186</ele>
        <time>2018-05-09T10:46:11Z</time>
      </trkpt>
      <trkpt lat="45.94487" lon="4.73752">
        <ele>186</ele>
        <time>2018-05-09T10:46:13Z</time>
      </trkpt>
      <trkpt lat="45.94486" lon="4.73746">
        <ele>186</ele>
        <time>2018-05-09T10:46:14Z</time>
      </trkpt>
      <trkpt lat="45.94487" lon="4.73735">
        <ele>186</ele>
        <time>2018-05-09T10:46:16Z</time>
      </trkpt>
      <trkpt lat="45.94488" lon="4.73728">
        <ele>186</ele>
        <time>2018-05-09T10:46:17Z</time>
      </trkpt>
      <trkpt lat="45.94488" lon="4.73716">
        <ele>186</ele>
        <time>2018-05-09T10:46:19Z</time>
      </trkpt>
      <trkpt lat="45.94488" lon="4.7371">
        <ele>186</ele>
        <time>2018-05-09T10:46:20Z</time>
      </trkpt>
      <trkpt lat="45.94488" lon="4.73703">
        <ele>186</ele>
        <time>2018-05-09T10:46:21Z</time>
      </trkpt>
      <trkpt lat="45.94489" lon="4.73696">
        <ele>186</ele>
        <time>2018-05-09T10:46:22Z</time>
      </trkpt>
      <trkpt lat="45.94491" lon="4.7369">
        <ele>186</ele>
        <time>2018-05-09T10:46:23Z</time>
      </trkpt>
      <trkpt lat="45.94492" lon="4.73683">
        <ele>186</ele>
        <time>2018-05-09T10:46:24Z</time>
      </trkpt>
      <trkpt lat="45.94493" lon="4.73676">
        <ele>185</ele>
        <time>2018-05-09T10:46:25Z</time>
      </trkpt>
      <trkpt lat="45.94493" lon="4.73669">
        <ele>185</ele>
        <time>2018-05-09T10:46:26Z</time>
      </trkpt>
      <trkpt lat="45.94495" lon="4.73662">
        <ele>185</ele>
        <time>2018-05-09T10:46:27Z</time>
      </trkpt>
      <trkpt lat="45.94496" lon="4.73655">
        <ele>185</ele>
        <time>2018-05-09T10:46:28Z</time>
      </trkpt>
      <trkpt lat="45.94497" lon="4.73649">
        <ele>185</ele>
        <time>2018-05-09T10:46:29Z</time>
      </trkpt>
      <trkpt lat="45.94498" lon="4.73642">
        <ele>186</ele>
        <time>2018-05-09T10:46:30Z</time>
      </trkpt>
      <trkpt lat="45.94499" lon="4.73634">
        <ele>186</ele>
        <time>2018-05-09T10:46:31Z</time>
      </trkpt>
      <trkpt lat="45.945" lon="4.73627">
        <ele>186</ele>
        <time>2018-05-09T10:46:32Z</time>
      </trkpt>
      <trkpt lat="45.945" lon="4.7362">
        <ele>184</ele>
        <time>2018-05-09T10:46:33Z</time>
      </trkpt>
      <trkpt lat="45.94502" lon="4.73611">
        <ele>184</ele>
        <time>2018-05-09T10:46:34Z</time>
      </trkpt>
      <trkpt lat="45.94502" lon="4.73603">
        <ele>184</ele>
        <time>2018-05-09T10:46:35Z</time>
      </trkpt>
      <trkpt lat="45.94502" lon="4.73596">
        <ele>184</ele>
        <time>2018-05-09T10:46:36Z</time>
      </trkpt>
      <trkpt lat="45.94503" lon="4.73587">
        <ele>185</ele>
        <time>2018-05-09T10:46:37Z</time>
      </trkpt>
      <trkpt lat="45.94502" lon="4.73579">
        <ele>185</ele>
        <time>2018-05-09T10:46:38Z</time>
      </trkpt>
      <trkpt lat="45.94503" lon="4.73571">
        <ele>184</ele>
        <time>2018-05-09T10:46:39Z</time>
      </trkpt>
      <trkpt lat="45.94503" lon="4.73562">
        <ele>184</ele>
        <time>2018-05-09T10:46:40Z</time>
      </trkpt>
      <trkpt lat="45.94504" lon="4.73552">
        <ele>183</ele>
        <time>2018-05-09T10:46:41Z</time>
      </trkpt>
      <trkpt lat="45.94505" lon="4.73543">
        <ele>183</ele>
        <time>2018-05-09T10:46:42Z</time>
      </trkpt>
      <trkpt lat="45.94505" lon="4.73532">
        <ele>183</ele>
        <time>2018-05-09T10:46:43Z</time>
      </trkpt>
      <trkpt lat="45.94505" lon="4.73523">
        <ele>183</ele>
        <time>2018-05-09T10:46:44Z</time>
      </trkpt>
      <trkpt lat="45.94505" lon="4.73513">
        <ele>183</ele>
        <time>2018-05-09T10:46:45Z</time>
      </trkpt>
      <trkpt lat="45.94506" lon="4.73504">
        <ele>183</ele>
        <time>2018-05-09T10:46:46Z</time>
      </trkpt>
      <trkpt lat="45.94506" lon="4.73495">
        <ele>182</ele>
        <time>2018-05-09T10:46:47Z</time>
      </trkpt>
      <trkpt lat="45.94505" lon="4.73484">
        <ele>182</ele>
        <time>2018-05-09T10:46:48Z</time>
      </trkpt>
      <trkpt lat="45.94505" lon="4.73475">
        <ele>182</ele>
        <time>2018-05-09T10:46:49Z</time>
      </trkpt>
      <trkpt lat="45.94504" lon="4.73464">
        <ele>181</ele>
        <time>2018-05-09T10:46:50Z</time>
      </trkpt>
      <trkpt lat="45.94504" lon="4.73454">
        <ele>181</ele>
        <time>2018-05-09T10:46:51Z</time>
      </trkpt>
      <trkpt lat="45.94505" lon="4.73444">
        <ele>181</ele>
        <time>2018-05-09T10:46:52Z</time>
      </trkpt>
      <trkpt lat="45.94505" lon="4.73433">
        <ele>181</ele>
        <time>2018-05-09T10:46:53Z</time>
      </trkpt>
      <trkpt lat="45.94504" lon="4.73422">
        <ele>180</ele>
        <time>2018-05-09T10:46:54Z</time>
      </trkpt>
      <trkpt lat="45.94504" lon="4.73411">
        <ele>180</ele>
        <time>2018-05-09T10:46:55Z</time>
      </trkpt>
      <trkpt lat="45.94504" lon="4.73401">
        <ele>179</ele>
        <time>2018-05-09T10:46:56Z</time>
      </trkpt>
      <trkpt lat="45.94503" lon="4.7339">
        <ele>179</ele>
        <time>2018-05-09T10:46:57Z</time>
      </trkpt>
      <trkpt lat="45.945" lon="4.73379">
        <ele>179</ele>
        <time>2018-05-09T10:46:58Z</time>
      </trkpt>
      <trkpt lat="45.94499" lon="4.73368">
        <ele>179</ele>
        <time>2018-05-09T10:46:59Z</time>
      </trkpt>
      <trkpt lat="45.94497" lon="4.73357">
        <ele>178</ele>
        <time>2018-05-09T10:47:00Z</time>
      </trkpt>
      <trkpt lat="45.94495" lon="4.73345">
        <ele>178</ele>
        <time>2018-05-09T10:47:01Z</time>
      </trkpt>
      <trkpt lat="45.94494" lon="4.73333">
        <ele>177</ele>
        <time>2018-05-09T10:47:02Z</time>
      </trkpt>
      <trkpt lat="45.94493" lon="4.73322">
        <ele>177</ele>
        <time>2018-05-09T10:47:03Z</time>
      </trkpt>
      <trkpt lat="45.94491" lon="4.7331">
        <ele>177</ele>
        <time>2018-05-09T10:47:04Z</time>
      </trkpt>
      <trkpt lat="45.94489" lon="4.73297">
        <ele>177</ele>
        <time>2018-05-09T10:47:05Z</time>
      </trkpt>
      <trkpt lat="45.94487" lon="4.73285">
        <ele>177</ele>
        <time>2018-05-09T10:47:06Z</time>
      </trkpt>
      <trkpt lat="45.94487" lon="4.73272">
        <ele>177</ele>
        <time>2018-05-09T10:47:07Z</time>
      </trkpt>
      <trkpt lat="45.94485" lon="4.7326">
        <ele>176</ele>
        <time>2018-05-09T10:47:08Z</time>
      </trkpt>
      <trkpt lat="45.94484" lon="4.73249">
        <ele>175</ele>
        <time>2018-05-09T10:47:09Z</time>
      </trkpt>
      <trkpt lat="45.94482" lon="4.73237">
        <ele>175</ele>
        <time>2018-05-09T10:47:10Z</time>
      </trkpt>
      <trkpt lat="45.9448" lon="4.73226">
        <ele>175</ele>
        <time>2018-05-09T10:47:11Z</time>
      </trkpt>
      <trkpt lat="45.9448" lon="4.73213">
        <ele>175</ele>
        <time>2018-05-09T10:47:12Z</time>
      </trkpt>
      <trkpt lat="45.94479" lon="4.73201">
        <ele>174</ele>
        <time>2018-05-09T10:47:13Z</time>
      </trkpt>
      <trkpt lat="45.94477" lon="4.7319">
        <ele>174</ele>
        <time>2018-05-09T10:47:14Z</time>
      </trkpt>
      <trkpt lat="45.94476" lon="4.73179">
        <ele>174</ele>
        <time>2018-05-09T10:47:15Z</time>
      </trkpt>
      <trkpt lat="45.94475" lon="4.73167">
        <ele>174</ele>
        <time>2018-05-09T10:47:16Z</time>
      </trkpt>
      <trkpt lat="45.94474" lon="4.73156">
        <ele>173</ele>
        <time>2018-05-09T10:47:17Z</time>
      </trkpt>
      <trkpt lat="45.94471" lon="4.73145">
        <ele>172</ele>
        <time>2018-05-09T10:47:18Z</time>
      </trkpt>
      <trkpt lat="45.9447" lon="4.73134">
        <ele>172</ele>
        <time>2018-05-09T10:47:19Z</time>
      </trkpt>
      <trkpt lat="45.94469" lon="4.73125">
        <ele>172</ele>
        <time>2018-05-09T10:47:20Z</time>
      </trkpt>
      <trkpt lat="45.94469" lon="4.73116">
        <ele>172</ele>
        <time>2018-05-09T10:47:21Z</time>
      </trkpt>
      <trkpt lat="45.94465" lon="4.73105">
        <ele>172</ele>
        <time>2018-05-09T10:47:22Z</time>
      </trkpt>
      <trkpt lat="45.94464" lon="4.73095">
        <ele>171</ele>
        <time>2018-05-09T10:47:23Z</time>
      </trkpt>
      <trkpt lat="45.94462" lon="4.73085">
        <ele>171</ele>
        <time>2018-05-09T10:47:24Z</time>
      </trkpt>
      <trkpt lat="45.94459" lon="4.73076">
        <ele>170</ele>
        <time>2018-05-09T10:47:25Z</time>
      </trkpt>
      <trkpt lat="45.94457" lon="4.73067">
        <ele>170</ele>
        <time>2018-05-09T10:47:26Z</time>
      </trkpt>
      <trkpt lat="45.94456" lon="4.73057">
        <ele>170</ele>
        <time>2018-05-09T10:47:27Z</time>
      </trkpt>
      <trkpt lat="45.94455" lon="4.73048">
        <ele>169</ele>
        <time>2018-05-09T10:47:28Z</time>
      </trkpt>
      <trkpt lat="45.94453" lon="4.7304">
        <ele>169</ele>
        <time>2018-05-09T10:47:29Z</time>
      </trkpt>
      <trkpt lat="45.94452" lon="4.73032">
        <ele>169</ele>
        <time>2018-05-09T10:47:30Z</time>
      </trkpt>
      <trkpt lat="45.94451" lon="4.73023">
        <ele>169</ele>
        <time>2018-05-09T10:47:31Z</time>
      </trkpt>
      <trkpt lat="45.9445" lon="4.73014">
        <ele>169</ele>
        <time>2018-05-09T10:47:32Z</time>
      </trkpt>
      <trkpt lat="45.94449" lon="4.73005">
        <ele>169</ele>
        <time>2018-05-09T10:47:33Z</time>
      </trkpt>
      <trkpt lat="45.94448" lon="4.72997">
        <ele>167</ele>
        <time>2018-05-09T10:47:34Z</time>
      </trkpt>
      <trkpt lat="45.94446" lon="4.72988">
        <ele>167</ele>
        <time>2018-05-09T10:47:35Z</time>
      </trkpt>
      <trkpt lat="45.94445" lon="4.72979">
        <ele>167</ele>
        <time>2018-05-09T10:47:36Z</time>
      </trkpt>
      <trkpt lat="45.94446" lon="4.72971">
        <ele>167</ele>
        <time>2018-05-09T10:47:37Z</time>
      </trkpt>
      <trkpt lat="45.94445" lon="4.72961">
        <ele>167</ele>
        <time>2018-05-09T10:47:38Z</time>
      </trkpt>
      <trkpt lat="45.94445" lon="4.72953">
        <ele>167</ele>
        <time>2018-05-09T10:47:39Z</time>
      </trkpt>
      <trkpt lat="45.94445" lon="4.72945">
        <ele>167</ele>
        <time>2018-05-09T10:47:40Z</time>
      </trkpt>
      <trkpt lat="45.94443" lon="4.72936">
        <ele>167</ele>
        <time>2018-05-09T10:47:41Z</time>
      </trkpt>
      <trkpt lat="45.94441" lon="4.72928">
        <ele>167</ele>
        <time>2018-05-09T10:47:42Z</time>
      </trkpt>
      <trkpt lat="45.94439" lon="4.7292">
        <ele>167</ele>
        <time>2018-05-09T10:47:43Z</time>
      </trkpt>
      <trkpt lat="45.94435" lon="4.7291">
        <ele>166</ele>
        <time>2018-05-09T10:47:44Z</time>
      </trkpt>
      <trkpt lat="45.94434" lon="4.72903">
        <ele>166</ele>
        <time>2018-05-09T10:47:45Z</time>
      </trkpt>
      <trkpt lat="45.94433" lon="4.72895">
        <ele>166</ele>
        <time>2018-05-09T10:47:46Z</time>
      </trkpt>
      <trkpt lat="45.94432" lon="4.72886">
        <ele>166</ele>
        <time>2018-05-09T10:47:47Z</time>
      </trkpt>
      <trkpt lat="45.94431" lon="4.72877">
        <ele>166</ele>
        <time>2018-05-09T10:47:48Z</time>
      </trkpt>
      <trkpt lat="45.94431" lon="4.72868">
        <ele>166</ele>
        <time>2018-05-09T10:47:49Z</time>
      </trkpt>
      <trkpt lat="45.9443" lon="4.72858">
        <ele>166</ele>
        <time>2018-05-09T10:47:50Z</time>
      </trkpt>
      <trkpt lat="45.94428" lon="4.72847">
        <ele>166</ele>
        <time>2018-05-09T10:47:51Z</time>
      </trkpt>
      <trkpt lat="45.94427" lon="4.72838">
        <ele>166</ele>
        <time>2018-05-09T10:47:52Z</time>
      </trkpt>
      <trkpt lat="45.94426" lon="4.72827">
        <ele>167</ele>
        <time>2018-05-09T10:47:53Z</time>
      </trkpt>
      <trkpt lat="45.94424" lon="4.72817">
        <ele>167</ele>
        <time>2018-05-09T10:47:54Z</time>
      </trkpt>
      <trkpt lat="45.94423" lon="4.72805">
        <ele>167</ele>
        <time>2018-05-09T10:47:55Z</time>
      </trkpt>
      <trkpt lat="45.94422" lon="4.72794">
        <ele>168</ele>
        <time>2018-05-09T10:47:56Z</time>
      </trkpt>
      <trkpt lat="45.9442" lon="4.72783">
        <ele>168</ele>
        <time>2018-05-09T10:47:57Z</time>
      </trkpt>
      <trkpt lat="45.94419" lon="4.72772">
        <ele>169</ele>
        <time>2018-05-09T10:47:58Z</time>
      </trkpt>
      <trkpt lat="45.94417" lon="4.72759">
        <ele>170</ele>
        <time>2018-05-09T10:47:59Z</time>
      </trkpt>
      <trkpt lat="45.94417" lon="4.72749">
        <ele>171</ele>
        <time>2018-05-09T10:48:00Z</time>
      </trkpt>
      <trkpt lat="45.94416" lon="4.72738">
        <ele>171</ele>
        <time>2018-05-09T10:48:01Z</time>
      </trkpt>
      <trkpt lat="45.94415" lon="4.72727">
        <ele>172</ele>
        <time>2018-05-09T10:48:02Z</time>
      </trkpt>
      <trkpt lat="45.94414" lon="4.72716">
        <ele>172</ele>
        <time>2018-05-09T10:48:03Z</time>
      </trkpt>
      <trkpt lat="45.94413" lon="4.72705">
        <ele>172</ele>
        <time>2018-05-09T10:48:04Z</time>
      </trkpt>
      <trkpt lat="45.94412" lon="4.72694">
        <ele>173</ele>
        <time>2018-05-09T10:48:05Z</time>
      </trkpt>
      <trkpt lat="45.9441" lon="4.72683">
        <ele>173</ele>
        <time>2018-05-09T10:48:06Z</time>
      </trkpt>
      <trkpt lat="45.9441" lon="4.72672">
        <ele>173</ele>
        <time>2018-05-09T10:48:07Z</time>
      </trkpt>
      <trkpt lat="45.94408" lon="4.72661">
        <ele>174</ele>
        <time>2018-05-09T10:48:08Z</time>
      </trkpt>
      <trkpt lat="45.94407" lon="4.72651">
        <ele>174</ele>
        <time>2018-05-09T10:48:09Z</time>
      </trkpt>
      <trkpt lat="45.94404" lon="4.72641">
        <ele>174</ele>
        <time>2018-05-09T10:48:10Z</time>
      </trkpt>
      <trkpt lat="45.94402" lon="4.72632">
        <ele>174</ele>
        <time>2018-05-09T10:48:11Z</time>
      </trkpt>
      <trkpt lat="45.94401" lon="4.72622">
        <ele>173</ele>
        <time>2018-05-09T10:48:12Z</time>
      </trkpt>
      <trkpt lat="45.94401" lon="4.72612">
        <ele>173</ele>
        <time>2018-05-09T10:48:13Z</time>
      </trkpt>
      <trkpt lat="45.94399" lon="4.72603">
        <ele>173</ele>
        <time>2018-05-09T10:48:14Z</time>
      </trkpt>
      <trkpt lat="45.94396" lon="4.72593">
        <ele>173</ele>
        <time>2018-05-09T10:48:15Z</time>
      </trkpt>
      <trkpt lat="45.94395" lon="4.72583">
        <ele>173</ele>
        <time>2018-05-09T10:48:16Z</time>
      </trkpt>
      <trkpt lat="45.94393" lon="4.72573">
        <ele>173</ele>
        <time>2018-05-09T10:48:17Z</time>
      </trkpt>
      <trkpt lat="45.94392" lon="4.72562">
        <ele>173</ele>
        <time>2018-05-09T10:48:18Z</time>
      </trkpt>
      <trkpt lat="45.9439" lon="4.72553">
        <ele>173</ele>
        <time>2018-05-09T10:48:19Z</time>
      </trkpt>
      <trkpt lat="45.94388" lon="4.72544">
        <ele>173</ele>
        <time>2018-05-09T10:48:20Z</time>
      </trkpt>
      <trkpt lat="45.94386" lon="4.72534">
        <ele>174</ele>
        <time>2018-05-09T10:48:21Z</time>
      </trkpt>
      <trkpt lat="45.94384" lon="4.72524">
        <ele>174</ele>
        <time>2018-05-09T10:48:22Z</time>
      </trkpt>
      <trkpt lat="45.94382" lon="4.72515">
        <ele>174</ele>
        <time>2018-05-09T10:48:23Z</time>
      </trkpt>
      <trkpt lat="45.9438" lon="4.72506">
        <ele>174</ele>
        <time>2018-05-09T10:48:24Z</time>
      </trkpt>
      <trkpt lat="45.94377" lon="4.72497">
        <ele>173</ele>
        <time>2018-05-09T10:48:25Z</time>
      </trkpt>
      <trkpt lat="45.94373" lon="4.72489">
        <ele>173</ele>
        <time>2018-05-09T10:48:26Z</time>
      </trkpt>
      <trkpt lat="45.94371" lon="4.72481">
        <ele>173</ele>
        <time>2018-05-09T10:48:27Z</time>
      </trkpt>
      <trkpt lat="45.94367" lon="4.72473">
        <ele>173</ele>
        <time>2018-05-09T10:48:28Z</time>
      </trkpt>
      <trkpt lat="45.94363" lon="4.72466">
        <ele>173</ele>
        <time>2018-05-09T10:48:29Z</time>
      </trkpt>
      <trkpt lat="45.94361" lon="4.72457">
        <ele>173</ele>
        <time>2018-05-09T10:48:30Z</time>
      </trkpt>
      <trkpt lat="45.94358" lon="4.72449">
        <ele>173</ele>
        <time>2018-05-09T10:48:31Z</time>
      </trkpt>
      <trkpt lat="45.94354" lon="4.72439">
        <ele>173</ele>
        <time>2018-05-09T10:48:32Z</time>
      </trkpt>
      <trkpt lat="45.9435" lon="4.72431">
        <ele>173</ele>
        <time>2018-05-09T10:48:33Z</time>
      </trkpt>
      <trkpt lat="45.94347" lon="4.72422">
        <ele>173</ele>
        <time>2018-05-09T10:48:34Z</time>
      </trkpt>
      <trkpt lat="45.94345" lon="4.72414">
        <ele>173</ele>
        <time>2018-05-09T10:48:35Z</time>
      </trkpt>
      <trkpt lat="45.9434" lon="4.72406">
        <ele>173</ele>
        <time>2018-05-09T10:48:36Z</time>
      </trkpt>
      <trkpt lat="45.94335" lon="4.72397">
        <ele>172</ele>
        <time>2018-05-09T10:48:37Z</time>
      </trkpt>
      <trkpt lat="45.94333" lon="4.7239">
        <ele>172</ele>
        <time>2018-05-09T10:48:38Z</time>
      </trkpt>
      <trkpt lat="45.94329" lon="4.72383">
        <ele>172</ele>
        <time>2018-05-09T10:48:39Z</time>
      </trkpt>
      <trkpt lat="45.94325" lon="4.72374">
        <ele>172</ele>
        <time>2018-05-09T10:48:40Z</time>
      </trkpt>
      <trkpt lat="45.94322" lon="4.72364">
        <ele>172</ele>
        <time>2018-05-09T10:48:41Z</time>
      </trkpt>
      <trkpt lat="45.9432" lon="4.72358">
        <ele>172</ele>
        <time>2018-05-09T10:48:42Z</time>
      </trkpt>
      <trkpt lat="45.94317" lon="4.7235">
        <ele>172</ele>
        <time>2018-05-09T10:48:43Z</time>
      </trkpt>
      <trkpt lat="45.94314" lon="4.72342">
        <ele>172</ele>
        <time>2018-05-09T10:48:44Z</time>
      </trkpt>
      <trkpt lat="45.9431" lon="4.72335">
        <ele>172</ele>
        <time>2018-05-09T10:48:45Z</time>
      </trkpt>
      <trkpt lat="45.94305" lon="4.72327">
        <ele>171</ele>
        <time>2018-05-09T10:48:46Z</time>
      </trkpt>
      <trkpt lat="45.94302" lon="4.7232">
        <ele>171</ele>
        <time>2018-05-09T10:48:47Z</time>
      </trkpt>
      <trkpt lat="45.94298" lon="4.72311">
        <ele>171</ele>
        <time>2018-05-09T10:48:48Z</time>
      </trkpt>
      <trkpt lat="45.94295" lon="4.72303">
        <ele>171</ele>
        <time>2018-05-09T10:48:49Z</time>
      </trkpt>
      <trkpt lat="45.94292" lon="4.72294">
        <ele>171</ele>
        <time>2018-05-09T10:48:50Z</time>
      </trkpt>
      <trkpt lat="45.94288" lon="4.72286">
        <ele>171</ele>
        <time>2018-05-09T10:48:51Z</time>
      </trkpt>
      <trkpt lat="45.94286" lon="4.72279">
        <ele>171</ele>
        <time>2018-05-09T10:48:52Z</time>
      </trkpt>
      <trkpt lat="45.9428" lon="4.72274">
        <ele>171</ele>
        <time>2018-05-09T10:48:53Z</time>
      </trkpt>
      <trkpt lat="45.94275" lon="4.7227">
        <ele>171</ele>
        <time>2018-05-09T10:48:54Z</time>
      </trkpt>
      <trkpt lat="45.94268" lon="4.72271">
        <ele>171</ele>
        <time>2018-05-09T10:48:55Z</time>
      </trkpt>
      <trkpt lat="45.94262" lon="4.72272">
        <ele>171</ele>
        <time>2018-05-09T10:48:56Z</time>
      </trkpt>
      <trkpt lat="45.94255" lon="4.72275">
        <ele>171</ele>
        <time>2018-05-09T10:48:57Z</time>
      </trkpt>
      <trkpt lat="45.94249" lon="4.72278">
        <ele>171</ele>
        <time>2018-05-09T10:48:58Z</time>
      </trkpt>
      <trkpt lat="45.94241" lon="4.7228">
        <ele>171</ele>
        <time>2018-05-09T10:48:59Z</time>
      </trkpt>
      <trkpt lat="45.94236" lon="4.72282">
        <ele>171</ele>
        <time>2018-05-09T10:49:00Z</time>
      </trkpt>
      <trkpt lat="45.94229" lon="4.72284">
        <ele>171</ele>
        <time>2018-05-09T10:49:01Z</time>
      </trkpt>
      <trkpt lat="45.94224" lon="4.72285">
        <ele>171</ele>
        <time>2018-05-09T10:49:02Z</time>
      </trkpt>
      <trkpt lat="45.94218" lon="4.72287">
        <ele>171</ele>
        <time>2018-05-09T10:49:03Z</time>
      </trkpt>
      <trkpt lat="45.94212" lon="4.72287">
        <ele>171</ele>
        <time>2018-05-09T10:49:04Z</time>
      </trkpt>
      <trkpt lat="45.94207" lon="4.72288">
        <ele>171</ele>
        <time>2018-05-09T10:49:05Z</time>
      </trkpt>
      <trkpt lat="45.94201" lon="4.7229">
        <ele>171</ele>
        <time>2018-05-09T10:49:06Z</time>
      </trkpt>
      <trkpt lat="45.94195" lon="4.72289">
        <ele>171</ele>
        <time>2018-05-09T10:49:07Z</time>
      </trkpt>
      <trkpt lat="45.94189" lon="4.72288">
        <ele>171</ele>
        <time>2018-05-09T10:49:08Z</time>
      </trkpt>
      <trkpt lat="45.94182" lon="4.72285">
        <ele>171</ele>
        <time>2018-05-09T10:49:09Z</time>
      </trkpt>
      <trkpt lat="45.94175" lon="4.72286">
        <ele>171</ele>
        <time>2018-05-09T10:49:10Z</time>
      </trkpt>
      <trkpt lat="45.94168" lon="4.72286">
        <ele>171</ele>
        <time>2018-05-09T10:49:11Z</time>
      </trkpt>
      <trkpt lat="45.94162" lon="4.72286">
        <ele>171</ele>
        <time>2018-05-09T10:49:12Z</time>
      </trkpt>
      <trkpt lat="45.94155" lon="4.72285">
        <ele>171</ele>
        <time>2018-05-09T10:49:13Z</time>
      </trkpt>
      <trkpt lat="45.9415" lon="4.72283">
        <ele>171</ele>
        <time>2018-05-09T10:49:14Z</time>
      </trkpt>
      <trkpt lat="45.94143" lon="4.7228">
        <ele>171</ele>
        <time>2018-05-09T10:49:15Z</time>
      </trkpt>
      <trkpt lat="45.94138" lon="4.72278">
        <ele>171</ele>
        <time>2018-05-09T10:49:16Z</time>
      </trkpt>
      <trkpt lat="45.94132" lon="4.72273">
        <ele>171</ele>
        <time>2018-05-09T10:49:17Z</time>
      </trkpt>
      <trkpt lat="45.94126" lon="4.72268">
        <ele>171</ele>
        <time>2018-05-09T10:49:18Z</time>
      </trkpt>
      <trkpt lat="45.9412" lon="4.72265">
        <ele>171</ele>
        <time>2018-05-09T10:49:19Z</time>
      </trkpt>
      <trkpt lat="45.94115" lon="4.72263">
        <ele>171</ele>
        <time>2018-05-09T10:49:20Z</time>
      </trkpt>
      <trkpt lat="45.94109" lon="4.72261">
        <ele>171</ele>
        <time>2018-05-09T10:49:21Z</time>
      </trkpt>
      <trkpt lat="45.94103" lon="4.72261">
        <ele>171</ele>
        <time>2018-05-09T10:49:22Z</time>
      </trkpt>
      <trkpt lat="45.94096" lon="4.72262">
        <ele>171</ele>
        <time>2018-05-09T10:49:23Z</time>
      </trkpt>
      <trkpt lat="45.9409" lon="4.72263">
        <ele>171</ele>
        <time>2018-05-09T10:49:24Z</time>
      </trkpt>
      <trkpt lat="45.94085" lon="4.72265">
        <ele>171</ele>
        <time>2018-05-09T10:49:25Z</time>
      </trkpt>
      <trkpt lat="45.9408" lon="4.72269">
        <ele>171</ele>
        <time>2018-05-09T10:49:26Z</time>
      </trkpt>
      <trkpt lat="45.94073" lon="4.72272">
        <ele>171</ele>
        <time>2018-05-09T10:49:27Z</time>
      </trkpt>
      <trkpt lat="45.94068" lon="4.72277">
        <ele>171</ele>
        <time>2018-05-09T10:49:28Z</time>
      </trkpt>
      <trkpt lat="45.94063" lon="4.72282">
        <ele>171</ele>
        <time>2018-05-09T10:49:29Z</time>
      </trkpt>
      <trkpt lat="45.94058" lon="4.72289">
        <ele>171</ele>
        <time>2018-05-09T10:49:30Z</time>
      </trkpt>
      <trkpt lat="45.94053" lon="4.72295">
        <ele>171</ele>
        <time>2018-05-09T10:49:31Z</time>
      </trkpt>
      <trkpt lat="45.94048" lon="4.723">
        <ele>171</ele>
        <time>2018-05-09T10:49:32Z</time>
      </trkpt>
      <trkpt lat="45.94043" lon="4.72306">
        <ele>171</ele>
        <time>2018-05-09T10:49:33Z</time>
      </trkpt>
      <trkpt lat="45.94039" lon="4.72312">
        <ele>171</ele>
        <time>2018-05-09T10:49:34Z</time>
      </trkpt>
      <trkpt lat="45.94033" lon="4.72317">
        <ele>171</ele>
        <time>2018-05-09T10:49:35Z</time>
      </trkpt>
      <trkpt lat="45.94028" lon="4.72322">
        <ele>171</ele>
        <time>2018-05-09T10:49:36Z</time>
      </trkpt>
      <trkpt lat="45.94023" lon="4.7233">
        <ele>171</ele>
        <time>2018-05-09T10:49:37Z</time>
      </trkpt>
      <trkpt lat="45.94018" lon="4.72336">
        <ele>171</ele>
        <time>2018-05-09T10:49:38Z</time>
      </trkpt>
      <trkpt lat="45.94013" lon="4.72343">
        <ele>171</ele>
        <time>2018-05-09T10:49:39Z</time>
      </trkpt>
      <trkpt lat="45.94007" lon="4.72347">
        <ele>171</ele>
        <time>2018-05-09T10:49:40Z</time>
      </trkpt>
      <trkpt lat="45.94003" lon="4.72355">
        <ele>171</ele>
        <time>2018-05-09T10:49:41Z</time>
      </trkpt>
      <trkpt lat="45.93998" lon="4.72361">
        <ele>171</ele>
        <time>2018-05-09T10:49:42Z</time>
      </trkpt>
      <trkpt lat="45.93993" lon="4.72368">
        <ele>171</ele>
        <time>2018-05-09T10:49:43Z</time>
      </trkpt>
      <trkpt lat="45.93988" lon="4.72374">
        <ele>171</ele>
        <time>2018-05-09T10:49:44Z</time>
      </trkpt>
      <trkpt lat="45.93984" lon="4.72379">
        <ele>171</ele>
        <time>2018-05-09T10:49:45Z</time>
      </trkpt>
      <trkpt lat="45.93979" lon="4.72385">
        <ele>171</ele>
        <time>2018-05-09T10:49:46Z</time>
      </trkpt>
      <trkpt lat="45.93974" lon="4.72391">
        <ele>171</ele>
        <time>2018-05-09T10:49:47Z</time>
      </trkpt>
      <trkpt lat="45.9397" lon="4.72397">
        <ele>171</ele>
        <time>2018-05-09T10:49:48Z</time>
      </trkpt>
      <trkpt lat="45.93965" lon="4.72402">
        <ele>171</ele>
        <time>2018-05-09T10:49:49Z</time>
      </trkpt>
      <trkpt lat="45.9396" lon="4.72408">
        <ele>171</ele>
        <time>2018-05-09T10:49:50Z</time>
      </trkpt>
      <trkpt lat="45.93956" lon="4.72414">
        <ele>171</ele>
        <time>2018-05-09T10:49:51Z</time>
      </trkpt>
      <trkpt lat="45.93951" lon="4.72419">
        <ele>171</ele>
        <time>2018-05-09T10:49:52Z</time>
      </trkpt>
      <trkpt lat="45.93947" lon="4.72425">
        <ele>171</ele>
        <time>2018-05-09T10:49:53Z</time>
      </trkpt>
      <trkpt lat="45.93942" lon="4.72431">
        <ele>171</ele>
        <time>2018-05-09T10:49:54Z</time>
      </trkpt>
      <trkpt lat="45.93938" lon="4.72436">
        <ele>171</ele>
        <time>2018-05-09T10:49:55Z</time>
      </trkpt>
      <trkpt lat="45.93935" lon="4.72442">
        <ele>171</ele>
        <time>2018-05-09T10:49:56Z</time>
      </trkpt>
      <trkpt lat="45.9393" lon="4.72447">
        <ele>171</ele>
        <time>2018-05-09T10:49:57Z</time>
      </trkpt>
      <trkpt lat="45.93927" lon="4.72453">
        <ele>171</ele>
        <time>2018-05-09T10:49:58Z</time>
      </trkpt>
      <trkpt lat="45.93922" lon="4.72458">
        <ele>171</ele>
        <time>2018-05-09T10:49:59Z</time>
      </trkpt>
      <trkpt lat="45.93918" lon="4.72463">
        <ele>171</ele>
        <time>2018-05-09T10:50:00Z</time>
      </trkpt>
      <trkpt lat="45.93914" lon="4.72468">
        <ele>172</ele>
        <time>2018-05-09T10:50:01Z</time>
      </trkpt>
      <trkpt lat="45.9391" lon="4.72473">
        <ele>172</ele>
        <time>2018-05-09T10:50:02Z</time>
      </trkpt>
      <trkpt lat="45.93907" lon="4.72478">
        <ele>172</ele>
        <time>2018-05-09T10:50:03Z</time>
      </trkpt>
      <trkpt lat="45.93902" lon="4.72483">
        <ele>172</ele>
        <time>2018-05-09T10:50:04Z</time>
      </trkpt>
      <trkpt lat="45.93898" lon="4.72487">
        <ele>172</ele>
        <time>2018-05-09T10:50:05Z</time>
      </trkpt>
      <trkpt lat="45.93894" lon="4.72491">
        <ele>172</ele>
        <time>2018-05-09T10:50:06Z</time>
      </trkpt>
      <trkpt lat="45.9389" lon="4.72496">
        <ele>172</ele>
        <time>2018-05-09T10:50:07Z</time>
      </trkpt>
      <trkpt lat="45.93886" lon="4.725">
        <ele>173</ele>
        <time>2018-05-09T10:50:08Z</time>
      </trkpt>
      <trkpt lat="45.93882" lon="4.72505">
        <ele>173</ele>
        <time>2018-05-09T10:50:09Z</time>
      </trkpt>
      <trkpt lat="45.93877" lon="4.72509">
        <ele>173</ele>
        <time>2018-05-09T10:50:10Z</time>
      </trkpt>
      <trkpt lat="45.93873" lon="4.7251">
        <ele>173</ele>
        <time>2018-05-09T10:50:11Z</time>
      </trkpt>
      <trkpt lat="45.93868" lon="4.72513">
        <ele>173</ele>
        <time>2018-05-09T10:50:12Z</time>
      </trkpt>
      <trkpt lat="45.93862" lon="4.72508">
        <ele>173</ele>
        <time>2018-05-09T10:50:13Z</time>
      </trkpt>
      <trkpt lat="45.93857" lon="4.72507">
        <ele>173</ele>
        <time>2018-05-09T10:50:14Z</time>
      </trkpt>
      <trkpt lat="45.93853" lon="4.72504">
        <ele>173</ele>
        <time>2018-05-09T10:50:15Z</time>
      </trkpt>
      <trkpt lat="45.93848" lon="4.72502">
        <ele>174</ele>
        <time>2018-05-09T10:50:16Z</time>
      </trkpt>
      <trkpt lat="45.93843" lon="4.725">
        <ele>173</ele>
        <time>2018-05-09T10:50:17Z</time>
      </trkpt>
      <trkpt lat="45.93839" lon="4.72497">
        <ele>174</ele>
        <time>2018-05-09T10:50:18Z</time>
      </trkpt>
      <trkpt lat="45.93824" lon="4.72474">
        <ele>172</ele>
        <time>2018-05-09T10:50:21Z</time>
      </trkpt>
      <trkpt lat="45.93815" lon="4.72474">
        <ele>172</ele>
        <time>2018-05-09T10:50:22Z</time>
      </trkpt>
      <trkpt lat="45.93813" lon="4.72465">
        <ele>172</ele>
        <time>2018-05-09T10:50:23Z</time>
      </trkpt>
      <trkpt lat="45.93808" lon="4.72462">
        <ele>172</ele>
        <time>2018-05-09T10:50:24Z</time>
      </trkpt>
      <trkpt lat="45.93804" lon="4.72457">
        <ele>172</ele>
        <time>2018-05-09T10:50:25Z</time>
      </trkpt>
      <trkpt lat="45.93801" lon="4.72452">
        <ele>172</ele>
        <time>2018-05-09T10:50:26Z</time>
      </trkpt>
      <trkpt lat="45.93798" lon="4.72445">
        <ele>172</ele>
        <time>2018-05-09T10:50:27Z</time>
      </trkpt>
      <trkpt lat="45.93792" lon="4.72439">
        <ele>172</ele>
        <time>2018-05-09T10:50:28Z</time>
      </trkpt>
      <trkpt lat="45.93788" lon="4.72436">
        <ele>172</ele>
        <time>2018-05-09T10:50:29Z</time>
      </trkpt>
      <trkpt lat="45.93782" lon="4.72433">
        <ele>172</ele>
        <time>2018-05-09T10:50:30Z</time>
      </trkpt>
      <trkpt lat="45.93778" lon="4.7243">
        <ele>172</ele>
        <time>2018-05-09T10:50:31Z</time>
      </trkpt>
      <trkpt lat="45.93771" lon="4.72422">
        <ele>171</ele>
        <time>2018-05-09T10:50:33Z</time>
      </trkpt>
      <trkpt lat="45.93767" lon="4.72418">
        <ele>171</ele>
        <time>2018-05-09T10:50:34Z</time>
      </trkpt>
      <trkpt lat="45.93763" lon="4.72412">
        <ele>171</ele>
        <time>2018-05-09T10:50:35Z</time>
      </trkpt>
      <trkpt lat="45.93758" lon="4.72406">
        <ele>171</ele>
        <time>2018-05-09T10:50:36Z</time>
      </trkpt>
      <trkpt lat="45.93754" lon="4.72402">
        <ele>171</ele>
        <time>2018-05-09T10:50:37Z</time>
      </trkpt>
      <trkpt lat="45.93749" lon="4.72397">
        <ele>171</ele>
        <time>2018-05-09T10:50:38Z</time>
      </trkpt>
      <trkpt lat="45.93746" lon="4.72392">
        <ele>171</ele>
        <time>2018-05-09T10:50:39Z</time>
      </trkpt>
      <trkpt lat="45.9374" lon="4.72389">
        <ele>171</ele>
        <time>2018-05-09T10:50:40Z</time>
      </trkpt>
      <trkpt lat="45.93736" lon="4.72383">
        <ele>171</ele>
        <time>2018-05-09T10:50:41Z</time>
      </trkpt>
      <trkpt lat="45.9373" lon="4.72379">
        <ele>171</ele>
        <time>2018-05-09T10:50:42Z</time>
      </trkpt>
      <trkpt lat="45.93726" lon="4.72374">
        <ele>172</ele>
        <time>2018-05-09T10:50:43Z</time>
      </trkpt>
      <trkpt lat="45.93719" lon="4.7237">
        <ele>172</ele>
        <time>2018-05-09T10:50:44Z</time>
      </trkpt>
      <trkpt lat="45.93714" lon="4.72365">
        <ele>172</ele>
        <time>2018-05-09T10:50:45Z</time>
      </trkpt>
      <trkpt lat="45.9371" lon="4.7236">
        <ele>172</ele>
        <time>2018-05-09T10:50:46Z</time>
      </trkpt>
      <trkpt lat="45.93705" lon="4.72356">
        <ele>171</ele>
        <time>2018-05-09T10:50:47Z</time>
      </trkpt>
      <trkpt lat="45.93701" lon="4.72353">
        <ele>171</ele>
        <time>2018-05-09T10:50:48Z</time>
      </trkpt>
      <trkpt lat="45.93697" lon="4.72349">
        <ele>171</ele>
        <time>2018-05-09T10:50:49Z</time>
      </trkpt>
      <trkpt lat="45.9368" lon="4.7233">
        <ele>171</ele>
        <time>2018-05-09T10:50:53Z</time>
      </trkpt>
      <trkpt lat="45.93675" lon="4.7233">
        <ele>171</ele>
        <time>2018-05-09T10:50:54Z</time>
      </trkpt>
      <trkpt lat="45.93669" lon="4.72324">
        <ele>171</ele>
        <time>2018-05-09T10:50:55Z</time>
      </trkpt>
      <trkpt lat="45.93664" lon="4.72321">
        <ele>172</ele>
        <time>2018-05-09T10:50:56Z</time>
      </trkpt>
      <trkpt lat="45.93658" lon="4.72316">
        <ele>172</ele>
        <time>2018-05-09T10:50:57Z</time>
      </trkpt>
      <trkpt lat="45.93656" lon="4.7231">
        <ele>172</ele>
        <time>2018-05-09T10:50:58Z</time>
      </trkpt>
      <trkpt lat="45.93652" lon="4.72304">
        <ele>172</ele>
        <time>2018-05-09T10:50:59Z</time>
      </trkpt>
      <trkpt lat="45.93648" lon="4.72298">
        <ele>172</ele>
        <time>2018-05-09T10:51:00Z</time>
      </trkpt>
      <trkpt lat="45.93643" lon="4.72294">
        <ele>172</ele>
        <time>2018-05-09T10:51:01Z</time>
      </trkpt>
      <trkpt lat="45.93641" lon="4.72288">
        <ele>172</ele>
        <time>2018-05-09T10:51:02Z</time>
      </trkpt>
      <trkpt lat="45.93633" lon="4.72284">
        <ele>172</ele>
        <time>2018-05-09T10:51:03Z</time>
      </trkpt>
      <trkpt lat="45.93628" lon="4.7228">
        <ele>172</ele>
        <time>2018-05-09T10:51:04Z</time>
      </trkpt>
      <trkpt lat="45.93624" lon="4.72276">
        <ele>172</ele>
        <time>2018-05-09T10:51:05Z</time>
      </trkpt>
      <trkpt lat="45.93619" lon="4.72272">
        <ele>172</ele>
        <time>2018-05-09T10:51:06Z</time>
      </trkpt>
      <trkpt lat="45.93614" lon="4.72268">
        <ele>172</ele>
        <time>2018-05-09T10:51:07Z</time>
      </trkpt>
      <trkpt lat="45.93611" lon="4.72266">
        <ele>172</ele>
        <time>2018-05-09T10:51:08Z</time>
      </trkpt>
      <trkpt lat="45.93606" lon="4.72262">
        <ele>173</ele>
        <time>2018-05-09T10:51:09Z</time>
      </trkpt>
      <trkpt lat="45.93601" lon="4.7226">
        <ele>173</ele>
        <time>2018-05-09T10:51:10Z</time>
      </trkpt>
      <trkpt lat="45.93597" lon="4.72256">
        <ele>173</ele>
        <time>2018-05-09T10:51:11Z</time>
      </trkpt>
      <trkpt lat="45.93594" lon="4.7225">
        <ele>173</ele>
        <time>2018-05-09T10:51:12Z</time>
      </trkpt>
      <trkpt lat="45.9359" lon="4.72247">
        <ele>173</ele>
        <time>2018-05-09T10:51:13Z</time>
      </trkpt>
      <trkpt lat="45.93586" lon="4.72243">
        <ele>173</ele>
        <time>2018-05-09T10:51:14Z</time>
      </trkpt>
      <trkpt lat="45.93581" lon="4.72238">
        <ele>173</ele>
        <time>2018-05-09T10:51:15Z</time>
      </trkpt>
      <trkpt lat="45.93576" lon="4.72228">
        <ele>173</ele>
        <time>2018-05-09T10:51:17Z</time>
      </trkpt>
      <trkpt lat="45.93572" lon="4.72225">
        <ele>173</ele>
        <time>2018-05-09T10:51:18Z</time>
      </trkpt>
      <trkpt lat="45.93565" lon="4.72219">
        <ele>173</ele>
        <time>2018-05-09T10:51:20Z</time>
      </trkpt>
      <trkpt lat="45.93561" lon="4.72218">
        <ele>173</ele>
        <time>2018-05-09T10:51:21Z</time>
      </trkpt>
      <trkpt lat="45.93552" lon="4.72218">
        <ele>173</ele>
        <time>2018-05-09T10:51:23Z</time>
      </trkpt>
      <trkpt lat="45.93548" lon="4.72221">
        <ele>172</ele>
        <time>2018-05-09T10:51:24Z</time>
      </trkpt>
      <trkpt lat="45.93543" lon="4.7223">
        <ele>172</ele>
        <time>2018-05-09T10:51:26Z</time>
      </trkpt>
      <trkpt lat="45.93541" lon="4.72235">
        <ele>172</ele>
        <time>2018-05-09T10:51:27Z</time>
      </trkpt>
      <trkpt lat="45.93536" lon="4.72245">
        <ele>172</ele>
        <time>2018-05-09T10:51:29Z</time>
      </trkpt>
      <trkpt lat="45.93534" lon="4.72251">
        <ele>172</ele>
        <time>2018-05-09T10:51:30Z</time>
      </trkpt>
      <trkpt lat="45.93532" lon="4.72257">
        <ele>172</ele>
        <time>2018-05-09T10:51:31Z</time>
      </trkpt>
      <trkpt lat="45.93529" lon="4.72263">
        <ele>172</ele>
        <time>2018-05-09T10:51:32Z</time>
      </trkpt>
      <trkpt lat="45.93527" lon="4.7227">
        <ele>172</ele>
        <time>2018-05-09T10:51:33Z</time>
      </trkpt>
      <trkpt lat="45.93524" lon="4.72277">
        <ele>172</ele>
        <time>2018-05-09T10:51:34Z</time>
      </trkpt>
      <trkpt lat="45.9352" lon="4.72285">
        <ele>172</ele>
        <time>2018-05-09T10:51:35Z</time>
      </trkpt>
      <trkpt lat="45.93516" lon="4.72292">
        <ele>172</ele>
        <time>2018-05-09T10:51:36Z</time>
      </trkpt>
      <trkpt lat="45.93513" lon="4.72298">
        <ele>172</ele>
        <time>2018-05-09T10:51:37Z</time>
      </trkpt>
      <trkpt lat="45.93509" lon="4.72303">
        <ele>172</ele>
        <time>2018-05-09T10:51:38Z</time>
      </trkpt>
      <trkpt lat="45.93505" lon="4.7231">
        <ele>173</ele>
        <time>2018-05-09T10:51:39Z</time>
      </trkpt>
      <trkpt lat="45.93498" lon="4.72314">
        <ele>173</ele>
        <time>2018-05-09T10:51:40Z</time>
      </trkpt>
      <trkpt lat="45.93494" lon="4.72321">
        <ele>173</ele>
        <time>2018-05-09T10:51:41Z</time>
      </trkpt>
      <trkpt lat="45.9349" lon="4.72327">
        <ele>173</ele>
        <time>2018-05-09T10:51:42Z</time>
      </trkpt>
      <trkpt lat="45.93484" lon="4.72334">
        <ele>173</ele>
        <time>2018-05-09T10:51:43Z</time>
      </trkpt>
      <trkpt lat="45.9348" lon="4.72339">
        <ele>173</ele>
        <time>2018-05-09T10:51:44Z</time>
      </trkpt>
      <trkpt lat="45.93475" lon="4.72346">
        <ele>173</ele>
        <time>2018-05-09T10:51:45Z</time>
      </trkpt>
      <trkpt lat="45.9347" lon="4.72352">
        <ele>173</ele>
        <time>2018-05-09T10:51:46Z</time>
      </trkpt>
      <trkpt lat="45.93466" lon="4.72361">
        <ele>173</ele>
        <time>2018-05-09T10:51:47Z</time>
      </trkpt>
      <trkpt lat="45.93461" lon="4.72367">
        <ele>173</ele>
        <time>2018-05-09T10:51:48Z</time>
      </trkpt>
      <trkpt lat="45.93456" lon="4.72373">
        <ele>173</ele>
        <time>2018-05-09T10:51:49Z</time>
      </trkpt>
      <trkpt lat="45.93451" lon="4.72379">
        <ele>173</ele>
        <time>2018-05-09T10:51:50Z</time>
      </trkpt>
      <trkpt lat="45.93447" lon="4.72382">
        <ele>173</ele>
        <time>2018-05-09T10:51:51Z</time>
      </trkpt>
      <trkpt lat="45.93443" lon="4.72388">
        <ele>173</ele>
        <time>2018-05-09T10:51:52Z</time>
      </trkpt>
      <trkpt lat="45.93439" lon="4.72391">
        <ele>173</ele>
        <time>2018-05-09T10:51:53Z</time>
      </trkpt>
      <trkpt lat="45.93434" lon="4.72395">
        <ele>173</ele>
        <time>2018-05-09T10:51:54Z</time>
      </trkpt>
      <trkpt lat="45.93429" lon="4.72398">
        <ele>174</ele>
        <time>2018-05-09T10:51:55Z</time>
      </trkpt>
      <trkpt lat="45.93424" lon="4.72399">
        <ele>174</ele>
        <time>2018-05-09T10:51:56Z</time>
      </trkpt>
      <trkpt lat="45.93417" lon="4.72402">
        <ele>174</ele>
        <time>2018-05-09T10:51:57Z</time>
      </trkpt>
      <trkpt lat="45.93413" lon="4.72404">
        <ele>174</ele>
        <time>2018-05-09T10:51:58Z</time>
      </trkpt>
      <trkpt lat="45.93407" lon="4.72403">
        <ele>174</ele>
        <time>2018-05-09T10:52:00Z</time>
      </trkpt>
      <trkpt lat="45.93402" lon="4.72406">
        <ele>174</ele>
        <time>2018-05-09T10:52:01Z</time>
      </trkpt>
      <trkpt lat="45.93396" lon="4.72407">
        <ele>174</ele>
        <time>2018-05-09T10:52:02Z</time>
      </trkpt>
      <trkpt lat="45.9339" lon="4.7241">
        <ele>174</ele>
        <time>2018-05-09T10:52:03Z</time>
      </trkpt>
      <trkpt lat="45.93386" lon="4.72417">
        <ele>174</ele>
        <time>2018-05-09T10:52:04Z</time>
      </trkpt>
      <trkpt lat="45.93385" lon="4.72424">
        <ele>173</ele>
        <time>2018-05-09T10:52:05Z</time>
      </trkpt>
      <trkpt lat="45.93386" lon="4.72432">
        <ele>173</ele>
        <time>2018-05-09T10:52:06Z</time>
      </trkpt>
      <trkpt lat="45.93388" lon="4.7244">
        <ele>173</ele>
        <time>2018-05-09T10:52:07Z</time>
      </trkpt>
      <trkpt lat="45.9339" lon="4.72447">
        <ele>173</ele>
        <time>2018-05-09T10:52:08Z</time>
      </trkpt>
      <trkpt lat="45.93391" lon="4.72456">
        <ele>173</ele>
        <time>2018-05-09T10:52:09Z</time>
      </trkpt>
      <trkpt lat="45.93389" lon="4.72464">
        <ele>173</ele>
        <time>2018-05-09T10:52:10Z</time>
      </trkpt>
      <trkpt lat="45.93386" lon="4.72469">
        <ele>173</ele>
        <time>2018-05-09T10:52:11Z</time>
      </trkpt>
      <trkpt lat="45.93381" lon="4.72474">
        <ele>173</ele>
        <time>2018-05-09T10:52:12Z</time>
      </trkpt>
      <trkpt lat="45.93378" lon="4.72479">
        <ele>173</ele>
        <time>2018-05-09T10:52:13Z</time>
      </trkpt>
      <trkpt lat="45.93373" lon="4.72483">
        <ele>173</ele>
        <time>2018-05-09T10:52:14Z</time>
      </trkpt>
      <trkpt lat="45.93369" lon="4.72488">
        <ele>173</ele>
        <time>2018-05-09T10:52:15Z</time>
      </trkpt>
      <trkpt lat="45.93364" lon="4.72495">
        <ele>173</ele>
        <time>2018-05-09T10:52:16Z</time>
      </trkpt>
      <trkpt lat="45.9336" lon="4.725">
        <ele>172</ele>
        <time>2018-05-09T10:52:17Z</time>
      </trkpt>
      <trkpt lat="45.93355" lon="4.72504">
        <ele>172</ele>
        <time>2018-05-09T10:52:18Z</time>
      </trkpt>
      <trkpt lat="45.93349" lon="4.72509">
        <ele>172</ele>
        <time>2018-05-09T10:52:19Z</time>
      </trkpt>
      <trkpt lat="45.93344" lon="4.72515">
        <ele>172</ele>
        <time>2018-05-09T10:52:20Z</time>
      </trkpt>
      <trkpt lat="45.9334" lon="4.72518">
        <ele>172</ele>
        <time>2018-05-09T10:52:21Z</time>
      </trkpt>
      <trkpt lat="45.93335" lon="4.72525">
        <ele>172</ele>
        <time>2018-05-09T10:52:22Z</time>
      </trkpt>
      <trkpt lat="45.93331" lon="4.72529">
        <ele>172</ele>
        <time>2018-05-09T10:52:23Z</time>
      </trkpt>
      <trkpt lat="45.93327" lon="4.72535">
        <ele>172</ele>
        <time>2018-05-09T10:52:24Z</time>
      </trkpt>
      <trkpt lat="45.93321" lon="4.72539">
        <ele>172</ele>
        <time>2018-05-09T10:52:25Z</time>
      </trkpt>
      <trkpt lat="45.93317" lon="4.72545">
        <ele>172</ele>
        <time>2018-05-09T10:52:26Z</time>
      </trkpt>
      <trkpt lat="45.93312" lon="4.7255">
        <ele>172</ele>
        <time>2018-05-09T10:52:27Z</time>
      </trkpt>
      <trkpt lat="45.93306" lon="4.72555">
        <ele>172</ele>
        <time>2018-05-09T10:52:28Z</time>
      </trkpt>
      <trkpt lat="45.93302" lon="4.72561">
        <ele>172</ele>
        <time>2018-05-09T10:52:29Z</time>
      </trkpt>
      <trkpt lat="45.93297" lon="4.72567">
        <ele>172</ele>
        <time>2018-05-09T10:52:30Z</time>
      </trkpt>
      <trkpt lat="45.93292" lon="4.72575">
        <ele>171</ele>
        <time>2018-05-09T10:52:31Z</time>
      </trkpt>
      <trkpt lat="45.93287" lon="4.7258">
        <ele>171</ele>
        <time>2018-05-09T10:52:32Z</time>
      </trkpt>
      <trkpt lat="45.93283" lon="4.72584">
        <ele>170</ele>
        <time>2018-05-09T10:52:33Z</time>
      </trkpt>
      <trkpt lat="45.93278" lon="4.72589">
        <ele>170</ele>
        <time>2018-05-09T10:52:34Z</time>
      </trkpt>
      <trkpt lat="45.93274" lon="4.72594">
        <ele>170</ele>
        <time>2018-05-09T10:52:35Z</time>
      </trkpt>
      <trkpt lat="45.93269" lon="4.72599">
        <ele>170</ele>
        <time>2018-05-09T10:52:36Z</time>
      </trkpt>
      <trkpt lat="45.93264" lon="4.72604">
        <ele>170</ele>
        <time>2018-05-09T10:52:37Z</time>
      </trkpt>
      <trkpt lat="45.93259" lon="4.7261">
        <ele>170</ele>
        <time>2018-05-09T10:52:38Z</time>
      </trkpt>
      <trkpt lat="45.93255" lon="4.72616">
        <ele>170</ele>
        <time>2018-05-09T10:52:39Z</time>
      </trkpt>
      <trkpt lat="45.93251" lon="4.72622">
        <ele>170</ele>
        <time>2018-05-09T10:52:40Z</time>
      </trkpt>
      <trkpt lat="45.93246" lon="4.72627">
        <ele>170</ele>
        <time>2018-05-09T10:52:41Z</time>
      </trkpt>
      <trkpt lat="45.93241" lon="4.72632">
        <ele>170</ele>
        <time>2018-05-09T10:52:42Z</time>
      </trkpt>
      <trkpt lat="45.93236" lon="4.72639">
        <ele>170</ele>
        <time>2018-05-09T10:52:43Z</time>
      </trkpt>
      <trkpt lat="45.93231" lon="4.72645">
        <ele>170</ele>
        <time>2018-05-09T10:52:44Z</time>
      </trkpt>
      <trkpt lat="45.93227" lon="4.7265">
        <ele>170</ele>
        <time>2018-05-09T10:52:45Z</time>
      </trkpt>
      <trkpt lat="45.93221" lon="4.72657">
        <ele>170</ele>
        <time>2018-05-09T10:52:46Z</time>
      </trkpt>
      <trkpt lat="45.93215" lon="4.72663">
        <ele>170</ele>
        <time>2018-05-09T10:52:47Z</time>
      </trkpt>
      <trkpt lat="45.93211" lon="4.72669">
        <ele>169</ele>
        <time>2018-05-09T10:52:48Z</time>
      </trkpt>
      <trkpt lat="45.93206" lon="4.72675">
        <ele>169</ele>
        <time>2018-05-09T10:52:49Z</time>
      </trkpt>
      <trkpt lat="45.93202" lon="4.7268">
        <ele>169</ele>
        <time>2018-05-09T10:52:50Z</time>
      </trkpt>
      <trkpt lat="45.93196" lon="4.72686">
        <ele>169</ele>
        <time>2018-05-09T10:52:51Z</time>
      </trkpt>
      <trkpt lat="45.93192" lon="4.72692">
        <ele>169</ele>
        <time>2018-05-09T10:52:52Z</time>
      </trkpt>
      <trkpt lat="45.93187" lon="4.72697">
        <ele>169</ele>
        <time>2018-05-09T10:52:53Z</time>
      </trkpt>
      <trkpt lat="45.93183" lon="4.72702">
        <ele>169</ele>
        <time>2018-05-09T10:52:54Z</time>
      </trkpt>
      <trkpt lat="45.93179" lon="4.72709">
        <ele>169</ele>
        <time>2018-05-09T10:52:55Z</time>
      </trkpt>
      <trkpt lat="45.93175" lon="4.72714">
        <ele>170</ele>
        <time>2018-05-09T10:52:56Z</time>
      </trkpt>
      <trkpt lat="45.9317" lon="4.72719">
        <ele>170</ele>
        <time>2018-05-09T10:52:57Z</time>
      </trkpt>
      <trkpt lat="45.93165" lon="4.72725">
        <ele>170</ele>
        <time>2018-05-09T10:52:58Z</time>
      </trkpt>
      <trkpt lat="45.93159" lon="4.72731">
        <ele>170</ele>
        <time>2018-05-09T10:52:59Z</time>
      </trkpt>
      <trkpt lat="45.93155" lon="4.72737">
        <ele>170</ele>
        <time>2018-05-09T10:53:00Z</time>
      </trkpt>
      <trkpt lat="45.9315" lon="4.72742">
        <ele>170</ele>
        <time>2018-05-09T10:53:01Z</time>
      </trkpt>
      <trkpt lat="45.93146" lon="4.72748">
        <ele>170</ele>
        <time>2018-05-09T10:53:02Z</time>
      </trkpt>
      <trkpt lat="45.9314" lon="4.72754">
        <ele>171</ele>
        <time>2018-05-09T10:53:03Z</time>
      </trkpt>
      <trkpt lat="45.93135" lon="4.7276">
        <ele>171</ele>
        <time>2018-05-09T10:53:04Z</time>
      </trkpt>
      <trkpt lat="45.9313" lon="4.72767">
        <ele>171</ele>
        <time>2018-05-09T10:53:05Z</time>
      </trkpt>
      <trkpt lat="45.93126" lon="4.72775">
        <ele>171</ele>
        <time>2018-05-09T10:53:06Z</time>
      </trkpt>
      <trkpt lat="45.93122" lon="4.72782">
        <ele>171</ele>
        <time>2018-05-09T10:53:07Z</time>
      </trkpt>
      <trkpt lat="45.93116" lon="4.72789">
        <ele>171</ele>
        <time>2018-05-09T10:53:08Z</time>
      </trkpt>
      <trkpt lat="45.93111" lon="4.72796">
        <ele>171</ele>
        <time>2018-05-09T10:53:09Z</time>
      </trkpt>
      <trkpt lat="45.93105" lon="4.72803">
        <ele>171</ele>
        <time>2018-05-09T10:53:10Z</time>
      </trkpt>
      <trkpt lat="45.931" lon="4.7281">
        <ele>172</ele>
        <time>2018-05-09T10:53:11Z</time>
      </trkpt>
      <trkpt lat="45.93095" lon="4.72816">
        <ele>172</ele>
        <time>2018-05-09T10:53:12Z</time>
      </trkpt>
      <trkpt lat="45.9309" lon="4.72821">
        <ele>172</ele>
        <time>2018-05-09T10:53:13Z</time>
      </trkpt>
      <trkpt lat="45.93084" lon="4.72826">
        <ele>172</ele>
        <time>2018-05-09T10:53:14Z</time>
      </trkpt>
      <trkpt lat="45.93079" lon="4.72832">
        <ele>173</ele>
        <time>2018-05-09T10:53:15Z</time>
      </trkpt>
      <trkpt lat="45.93041" lon="4.72864">
        <ele>172</ele>
        <time>2018-05-09T10:53:21Z</time>
      </trkpt>
      <trkpt lat="45.93038" lon="4.72867">
        <ele>172</ele>
        <time>2018-05-09T10:53:22Z</time>
      </trkpt>
      <trkpt lat="45.93034" lon="4.72875">
        <ele>172</ele>
        <time>2018-05-09T10:53:23Z</time>
      </trkpt>
      <trkpt lat="45.93028" lon="4.72884">
        <ele>172</ele>
        <time>2018-05-09T10:53:24Z</time>
      </trkpt>
      <trkpt lat="45.93024" lon="4.7289">
        <ele>172</ele>
        <time>2018-05-09T10:53:25Z</time>
      </trkpt>
      <trkpt lat="45.93019" lon="4.72896">
        <ele>172</ele>
        <time>2018-05-09T10:53:26Z</time>
      </trkpt>
      <trkpt lat="45.93015" lon="4.72901">
        <ele>172</ele>
        <time>2018-05-09T10:53:27Z</time>
      </trkpt>
      <trkpt lat="45.9301" lon="4.72908">
        <ele>171</ele>
        <time>2018-05-09T10:53:28Z</time>
      </trkpt>
      <trkpt lat="45.93005" lon="4.72913">
        <ele>171</ele>
        <time>2018-05-09T10:53:29Z</time>
      </trkpt>
      <trkpt lat="45.93" lon="4.72919">
        <ele>171</ele>
        <time>2018-05-09T10:53:30Z</time>
      </trkpt>
      <trkpt lat="45.92996" lon="4.72925">
        <ele>171</ele>
        <time>2018-05-09T10:53:31Z</time>
      </trkpt>
      <trkpt lat="45.92991" lon="4.7293">
        <ele>171</ele>
        <time>2018-05-09T10:53:32Z</time>
      </trkpt>
      <trkpt lat="45.92986" lon="4.72934">
        <ele>171</ele>
        <time>2018-05-09T10:53:33Z</time>
      </trkpt>
      <trkpt lat="45.92981" lon="4.72939">
        <ele>171</ele>
        <time>2018-05-09T10:53:34Z</time>
      </trkpt>
      <trkpt lat="45.92977" lon="4.72943">
        <ele>171</ele>
        <time>2018-05-09T10:53:35Z</time>
      </trkpt>
      <trkpt lat="45.92971" lon="4.72948">
        <ele>171</ele>
        <time>2018-05-09T10:53:36Z</time>
      </trkpt>
      <trkpt lat="45.92967" lon="4.72953">
        <ele>171</ele>
        <time>2018-05-09T10:53:37Z</time>
      </trkpt>
      <trkpt lat="45.92962" lon="4.72958">
        <ele>171</ele>
        <time>2018-05-09T10:53:38Z</time>
      </trkpt>
      <trkpt lat="45.92956" lon="4.72963">
        <ele>171</ele>
        <time>2018-05-09T10:53:39Z</time>
      </trkpt>
      <trkpt lat="45.92952" lon="4.72968">
        <ele>171</ele>
        <time>2018-05-09T10:53:40Z</time>
      </trkpt>
      <trkpt lat="45.92948" lon="4.72975">
        <ele>171</ele>
        <time>2018-05-09T10:53:41Z</time>
      </trkpt>
      <trkpt lat="45.92943" lon="4.72982">
        <ele>171</ele>
        <time>2018-05-09T10:53:42Z</time>
      </trkpt>
      <trkpt lat="45.92938" lon="4.72988">
        <ele>171</ele>
        <time>2018-05-09T10:53:43Z</time>
      </trkpt>
      <trkpt lat="45.92934" lon="4.72993">
        <ele>172</ele>
        <time>2018-05-09T10:53:44Z</time>
      </trkpt>
      <trkpt lat="45.92929" lon="4.72999">
        <ele>172</ele>
        <time>2018-05-09T10:53:45Z</time>
      </trkpt>
      <trkpt lat="45.92925" lon="4.73004">
        <ele>172</ele>
        <time>2018-05-09T10:53:46Z</time>
      </trkpt>
      <trkpt lat="45.9292" lon="4.73009">
        <ele>172</ele>
        <time>2018-05-09T10:53:47Z</time>
      </trkpt>
      <trkpt lat="45.92915" lon="4.73014">
        <ele>172</ele>
        <time>2018-05-09T10:53:48Z</time>
      </trkpt>
      <trkpt lat="45.92911" lon="4.7302">
        <ele>172</ele>
        <time>2018-05-09T10:53:49Z</time>
      </trkpt>
      <trkpt lat="45.92907" lon="4.73025">
        <ele>172</ele>
        <time>2018-05-09T10:53:50Z</time>
      </trkpt>
      <trkpt lat="45.92903" lon="4.73032">
        <ele>172</ele>
        <time>2018-05-09T10:53:51Z</time>
      </trkpt>
      <trkpt lat="45.92899" lon="4.73038">
        <ele>172</ele>
        <time>2018-05-09T10:53:52Z</time>
      </trkpt>
      <trkpt lat="45.92896" lon="4.73043">
        <ele>172</ele>
        <time>2018-05-09T10:53:53Z</time>
      </trkpt>
      <trkpt lat="45.92893" lon="4.73051">
        <ele>172</ele>
        <time>2018-05-09T10:53:54Z</time>
      </trkpt>
      <trkpt lat="45.92889" lon="4.73058">
        <ele>172</ele>
        <time>2018-05-09T10:53:55Z</time>
      </trkpt>
      <trkpt lat="45.92886" lon="4.73064">
        <ele>172</ele>
        <time>2018-05-09T10:53:56Z</time>
      </trkpt>
      <trkpt lat="45.92883" lon="4.7307">
        <ele>172</ele>
        <time>2018-05-09T10:53:57Z</time>
      </trkpt>
      <trkpt lat="45.92879" lon="4.73073">
        <ele>172</ele>
        <time>2018-05-09T10:53:58Z</time>
      </trkpt>
      <trkpt lat="45.92873" lon="4.73079">
        <ele>172</ele>
        <time>2018-05-09T10:53:59Z</time>
      </trkpt>
      <trkpt lat="45.92869" lon="4.73084">
        <ele>172</ele>
        <time>2018-05-09T10:54:00Z</time>
      </trkpt>
      <trkpt lat="45.92866" lon="4.7309">
        <ele>172</ele>
        <time>2018-05-09T10:54:01Z</time>
      </trkpt>
      <trkpt lat="45.92862" lon="4.73096">
        <ele>171</ele>
        <time>2018-05-09T10:54:02Z</time>
      </trkpt>
      <trkpt lat="45.92858" lon="4.73099">
        <ele>171</ele>
        <time>2018-05-09T10:54:03Z</time>
      </trkpt>
      <trkpt lat="45.9285" lon="4.73097">
        <ele>171</ele>
        <time>2018-05-09T10:54:05Z</time>
      </trkpt>
      <trkpt lat="45.92848" lon="4.73091">
        <ele>171</ele>
        <time>2018-05-09T10:54:06Z</time>
      </trkpt>
      <trkpt lat="45.92846" lon="4.73084">
        <ele>171</ele>
        <time>2018-05-09T10:54:07Z</time>
      </trkpt>
      <trkpt lat="45.92845" lon="4.73077">
        <ele>171</ele>
        <time>2018-05-09T10:54:08Z</time>
      </trkpt>
      <trkpt lat="45.92844" lon="4.7307">
        <ele>171</ele>
        <time>2018-05-09T10:54:09Z</time>
      </trkpt>
      <trkpt lat="45.92843" lon="4.73063">
        <ele>171</ele>
        <time>2018-05-09T10:54:10Z</time>
      </trkpt>
      <trkpt lat="45.92841" lon="4.73055">
        <ele>171</ele>
        <time>2018-05-09T10:54:11Z</time>
      </trkpt>
      <trkpt lat="45.9284" lon="4.73047">
        <ele>171</ele>
        <time>2018-05-09T10:54:12Z</time>
      </trkpt>
      <trkpt lat="45.92839" lon="4.73038">
        <ele>171</ele>
        <time>2018-05-09T10:54:13Z</time>
      </trkpt>
      <trkpt lat="45.92837" lon="4.7303">
        <ele>171</ele>
        <time>2018-05-09T10:54:14Z</time>
      </trkpt>
      <trkpt lat="45.92836" lon="4.73022">
        <ele>171</ele>
        <time>2018-05-09T10:54:15Z</time>
      </trkpt>
      <trkpt lat="45.92834" lon="4.73014">
        <ele>171</ele>
        <time>2018-05-09T10:54:16Z</time>
      </trkpt>
      <trkpt lat="45.92833" lon="4.73007">
        <ele>170</ele>
        <time>2018-05-09T10:54:17Z</time>
      </trkpt>
      <trkpt lat="45.92832" lon="4.72999">
        <ele>170</ele>
        <time>2018-05-09T10:54:18Z</time>
      </trkpt>
      <trkpt lat="45.92831" lon="4.72991">
        <ele>170</ele>
        <time>2018-05-09T10:54:19Z</time>
      </trkpt>
      <trkpt lat="45.9283" lon="4.72983">
        <ele>170</ele>
        <time>2018-05-09T10:54:20Z</time>
      </trkpt>
      <trkpt lat="45.9283" lon="4.72975">
        <ele>170</ele>
        <time>2018-05-09T10:54:21Z</time>
      </trkpt>
      <trkpt lat="45.92829" lon="4.72967">
        <ele>170</ele>
        <time>2018-05-09T10:54:22Z</time>
      </trkpt>
      <trkpt lat="45.92828" lon="4.7296">
        <ele>170</ele>
        <time>2018-05-09T10:54:23Z</time>
      </trkpt>
      <trkpt lat="45.92828" lon="4.72953">
        <ele>170</ele>
        <time>2018-05-09T10:54:24Z</time>
      </trkpt>
      <trkpt lat="45.92827" lon="4.72945">
        <ele>170</ele>
        <time>2018-05-09T10:54:25Z</time>
      </trkpt>
      <trkpt lat="45.92826" lon="4.72936">
        <ele>170</ele>
        <time>2018-05-09T10:54:26Z</time>
      </trkpt>
      <trkpt lat="45.92825" lon="4.72928">
        <ele>170</ele>
        <time>2018-05-09T10:54:27Z</time>
      </trkpt>
      <trkpt lat="45.92824" lon="4.72919">
        <ele>170</ele>
        <time>2018-05-09T10:54:28Z</time>
      </trkpt>
      <trkpt lat="45.92824" lon="4.72911">
        <ele>170</ele>
        <time>2018-05-09T10:54:29Z</time>
      </trkpt>
      <trkpt lat="45.92823" lon="4.72903">
        <ele>170</ele>
        <time>2018-05-09T10:54:30Z</time>
      </trkpt>
      <trkpt lat="45.92821" lon="4.72895">
        <ele>170</ele>
        <time>2018-05-09T10:54:31Z</time>
      </trkpt>
      <trkpt lat="45.9282" lon="4.72888">
        <ele>170</ele>
        <time>2018-05-09T10:54:32Z</time>
      </trkpt>
      <trkpt lat="45.92818" lon="4.72879">
        <ele>170</ele>
        <time>2018-05-09T10:54:33Z</time>
      </trkpt>
      <trkpt lat="45.92817" lon="4.72871">
        <ele>170</ele>
        <time>2018-05-09T10:54:34Z</time>
      </trkpt>
      <trkpt lat="45.92815" lon="4.72863">
        <ele>170</ele>
        <time>2018-05-09T10:54:35Z</time>
      </trkpt>
      <trkpt lat="45.92814" lon="4.72856">
        <ele>170</ele>
        <time>2018-05-09T10:54:36Z</time>
      </trkpt>
      <trkpt lat="45.92812" lon="4.72848">
        <ele>170</ele>
        <time>2018-05-09T10:54:37Z</time>
      </trkpt>
      <trkpt lat="45.92811" lon="4.72841">
        <ele>170</ele>
        <time>2018-05-09T10:54:38Z</time>
      </trkpt>
      <trkpt lat="45.92809" lon="4.72834">
        <ele>170</ele>
        <time>2018-05-09T10:54:39Z</time>
      </trkpt>
      <trkpt lat="45.92807" lon="4.72826">
        <ele>171</ele>
        <time>2018-05-09T10:54:40Z</time>
      </trkpt>
      <trkpt lat="45.92806" lon="4.7282">
        <ele>171</ele>
        <time>2018-05-09T10:54:41Z</time>
      </trkpt>
      <trkpt lat="45.92805" lon="4.72812">
        <ele>171</ele>
        <time>2018-05-09T10:54:42Z</time>
      </trkpt>
      <trkpt lat="45.92804" lon="4.72805">
        <ele>171</ele>
        <time>2018-05-09T10:54:43Z</time>
      </trkpt>
      <trkpt lat="45.92803" lon="4.72798">
        <ele>171</ele>
        <time>2018-05-09T10:54:44Z</time>
      </trkpt>
      <trkpt lat="45.92797" lon="4.72788">
        <ele>171</ele>
        <time>2018-05-09T10:54:46Z</time>
      </trkpt>
      <trkpt lat="45.92793" lon="4.72787">
        <ele>171</ele>
        <time>2018-05-09T10:54:47Z</time>
      </trkpt>
      <trkpt lat="45.92785" lon="4.72791">
        <ele>170</ele>
        <time>2018-05-09T10:54:49Z</time>
      </trkpt>
      <trkpt lat="45.92782" lon="4.72793">
        <ele>170</ele>
        <time>2018-05-09T10:54:50Z</time>
      </trkpt>
      <trkpt lat="45.92774" lon="4.72798">
        <ele>170</ele>
        <time>2018-05-09T10:54:52Z</time>
      </trkpt>
      <trkpt lat="45.92773" lon="4.728">
        <ele>170</ele>
        <time>2018-05-09T10:54:53Z</time>
      </trkpt>
      <trkpt lat="45.92767" lon="4.72805">
        <ele>170</ele>
        <time>2018-05-09T10:54:56Z</time>
      </trkpt>
      <trkpt lat="45.92765" lon="4.72806">
        <ele>170</ele>
        <time>2018-05-09T10:54:57Z</time>
      </trkpt>
      <trkpt lat="45.92758" lon="4.72812">
        <ele>170</ele>
        <time>2018-05-09T10:55:00Z</time>
      </trkpt>
      <trkpt lat="45.92756" lon="4.72815">
        <ele>170</ele>
        <time>2018-05-09T10:55:01Z</time>
      </trkpt>
      <trkpt lat="45.92753" lon="4.72817">
        <ele>170</ele>
        <time>2018-05-09T10:55:02Z</time>
      </trkpt>
      <trkpt lat="45.92745" lon="4.72824">
        <ele>169</ele>
        <time>2018-05-09T10:55:03Z</time>
      </trkpt>
      <trkpt lat="45.92738" lon="4.72829">
        <ele>169</ele>
        <time>2018-05-09T10:55:05Z</time>
      </trkpt>
      <trkpt lat="45.92735" lon="4.72831">
        <ele>169</ele>
        <time>2018-05-09T10:55:06Z</time>
      </trkpt>
      <trkpt lat="45.92728" lon="4.72837">
        <ele>169</ele>
        <time>2018-05-09T10:55:08Z</time>
      </trkpt>
      <trkpt lat="45.92724" lon="4.72839">
        <ele>169</ele>
        <time>2018-05-09T10:55:09Z</time>
      </trkpt>
      <trkpt lat="45.92718" lon="4.72844">
        <ele>169</ele>
        <time>2018-05-09T10:55:11Z</time>
      </trkpt>
      <trkpt lat="45.92715" lon="4.72847">
        <ele>169</ele>
        <time>2018-05-09T10:55:12Z</time>
      </trkpt>
      <trkpt lat="45.9271" lon="4.72851">
        <ele>169</ele>
        <time>2018-05-09T10:55:15Z</time>
      </trkpt>
      <trkpt lat="45.92707" lon="4.72853">
        <ele>169</ele>
        <time>2018-05-09T10:55:16Z</time>
      </trkpt>
      <trkpt lat="45.927" lon="4.72858">
        <ele>169</ele>
        <time>2018-05-09T10:55:17Z</time>
      </trkpt>
      <trkpt lat="45.92697" lon="4.72861">
        <ele>169</ele>
        <time>2018-05-09T10:55:18Z</time>
      </trkpt>
      <trkpt lat="45.92689" lon="4.72867">
        <ele>169</ele>
        <time>2018-05-09T10:55:20Z</time>
      </trkpt>
      <trkpt lat="45.92685" lon="4.72871">
        <ele>169</ele>
        <time>2018-05-09T10:55:21Z</time>
      </trkpt>
      <trkpt lat="45.92681" lon="4.72874">
        <ele>169</ele>
        <time>2018-05-09T10:55:22Z</time>
      </trkpt>
      <trkpt lat="45.92677" lon="4.72877">
        <ele>170</ele>
        <time>2018-05-09T10:55:23Z</time>
      </trkpt>
      <trkpt lat="45.9267" lon="4.72884">
        <ele>170</ele>
        <time>2018-05-09T10:55:25Z</time>
      </trkpt>
      <trkpt lat="45.92666" lon="4.72888">
        <ele>169</ele>
        <time>2018-05-09T10:55:26Z</time>
      </trkpt>
      <trkpt lat="45.92661" lon="4.72892">
        <ele>169</ele>
        <time>2018-05-09T10:55:27Z</time>
      </trkpt>
      <trkpt lat="45.92657" lon="4.72895">
        <ele>170</ele>
        <time>2018-05-09T10:55:28Z</time>
      </trkpt>
      <trkpt lat="45.92652" lon="4.72899">
        <ele>170</ele>
        <time>2018-05-09T10:55:29Z</time>
      </trkpt>
      <trkpt lat="45.92647" lon="4.72902">
        <ele>170</ele>
        <time>2018-05-09T10:55:30Z</time>
      </trkpt>
      <trkpt lat="45.92642" lon="4.72906">
        <ele>169</ele>
        <time>2018-05-09T10:55:31Z</time>
      </trkpt>
      <trkpt lat="45.92638" lon="4.72911">
        <ele>169</ele>
        <time>2018-05-09T10:55:32Z</time>
      </trkpt>
      <trkpt lat="45.92635" lon="4.72915">
        <ele>169</ele>
        <time>2018-05-09T10:55:33Z</time>
      </trkpt>
      <trkpt lat="45.9263" lon="4.72918">
        <ele>170</ele>
        <time>2018-05-09T10:55:34Z</time>
      </trkpt>
      <trkpt lat="45.92626" lon="4.72923">
        <ele>170</ele>
        <time>2018-05-09T10:55:35Z</time>
      </trkpt>
      <trkpt lat="45.92621" lon="4.72926">
        <ele>169</ele>
        <time>2018-05-09T10:55:36Z</time>
      </trkpt>
      <trkpt lat="45.92618" lon="4.72932">
        <ele>169</ele>
        <time>2018-05-09T10:55:37Z</time>
      </trkpt>
      <trkpt lat="45.92613" lon="4.72936">
        <ele>169</ele>
        <time>2018-05-09T10:55:38Z</time>
      </trkpt>
      <trkpt lat="45.92609" lon="4.7294">
        <ele>169</ele>
        <time>2018-05-09T10:55:39Z</time>
      </trkpt>
      <trkpt lat="45.92603" lon="4.72947">
        <ele>169</ele>
        <time>2018-05-09T10:55:40Z</time>
      </trkpt>
      <trkpt lat="45.92598" lon="4.72952">
        <ele>169</ele>
        <time>2018-05-09T10:55:41Z</time>
      </trkpt>
      <trkpt lat="45.92594" lon="4.72957">
        <ele>169</ele>
        <time>2018-05-09T10:55:42Z</time>
      </trkpt>
      <trkpt lat="45.92589" lon="4.72963">
        <ele>169</ele>
        <time>2018-05-09T10:55:43Z</time>
      </trkpt>
      <trkpt lat="45.92584" lon="4.72968">
        <ele>169</ele>
        <time>2018-05-09T10:55:44Z</time>
      </trkpt>
      <trkpt lat="45.92579" lon="4.72973">
        <ele>169</ele>
        <time>2018-05-09T10:55:45Z</time>
      </trkpt>
      <trkpt lat="45.92573" lon="4.72979">
        <ele>169</ele>
        <time>2018-05-09T10:55:46Z</time>
      </trkpt>
      <trkpt lat="45.92569" lon="4.72984">
        <ele>169</ele>
        <time>2018-05-09T10:55:47Z</time>
      </trkpt>
      <trkpt lat="45.92564" lon="4.72989">
        <ele>169</ele>
        <time>2018-05-09T10:55:48Z</time>
      </trkpt>
      <trkpt lat="45.92559" lon="4.72994">
        <ele>169</ele>
        <time>2018-05-09T10:55:49Z</time>
      </trkpt>
      <trkpt lat="45.92553" lon="4.72998">
        <ele>169</ele>
        <time>2018-05-09T10:55:50Z</time>
      </trkpt>
      <trkpt lat="45.92548" lon="4.73003">
        <ele>169</ele>
        <time>2018-05-09T10:55:51Z</time>
      </trkpt>
      <trkpt lat="45.92542" lon="4.73008">
        <ele>169</ele>
        <time>2018-05-09T10:55:52Z</time>
      </trkpt>
      <trkpt lat="45.92536" lon="4.73011">
        <ele>169</ele>
        <time>2018-05-09T10:55:53Z</time>
      </trkpt>
      <trkpt lat="45.92531" lon="4.73015">
        <ele>169</ele>
        <time>2018-05-09T10:55:54Z</time>
      </trkpt>
      <trkpt lat="45.92526" lon="4.7302">
        <ele>169</ele>
        <time>2018-05-09T10:55:55Z</time>
      </trkpt>
      <trkpt lat="45.92521" lon="4.73024">
        <ele>169</ele>
        <time>2018-05-09T10:55:56Z</time>
      </trkpt>
      <trkpt lat="45.92515" lon="4.7303">
        <ele>169</ele>
        <time>2018-05-09T10:55:57Z</time>
      </trkpt>
      <trkpt lat="45.9251" lon="4.73035">
        <ele>169</ele>
        <time>2018-05-09T10:55:58Z</time>
      </trkpt>
      <trkpt lat="45.92506" lon="4.7304">
        <ele>169</ele>
        <time>2018-05-09T10:55:59Z</time>
      </trkpt>
      <trkpt lat="45.92501" lon="4.73043">
        <ele>170</ele>
        <time>2018-05-09T10:56:00Z</time>
      </trkpt>
      <trkpt lat="45.92496" lon="4.73047">
        <ele>170</ele>
        <time>2018-05-09T10:56:01Z</time>
      </trkpt>
      <trkpt lat="45.92491" lon="4.73053">
        <ele>170</ele>
        <time>2018-05-09T10:56:02Z</time>
      </trkpt>
      <trkpt lat="45.92486" lon="4.73056">
        <ele>170</ele>
        <time>2018-05-09T10:56:03Z</time>
      </trkpt>
      <trkpt lat="45.92481" lon="4.73061">
        <ele>170</ele>
        <time>2018-05-09T10:56:04Z</time>
      </trkpt>
      <trkpt lat="45.92475" lon="4.73064">
        <ele>170</ele>
        <time>2018-05-09T10:56:05Z</time>
      </trkpt>
      <trkpt lat="45.9247" lon="4.73069">
        <ele>170</ele>
        <time>2018-05-09T10:56:06Z</time>
      </trkpt>
      <trkpt lat="45.92465" lon="4.73073">
        <ele>170</ele>
        <time>2018-05-09T10:56:07Z</time>
      </trkpt>
      <trkpt lat="45.9246" lon="4.73076">
        <ele>170</ele>
        <time>2018-05-09T10:56:08Z</time>
      </trkpt>
      <trkpt lat="45.92456" lon="4.7308">
        <ele>170</ele>
        <time>2018-05-09T10:56:09Z</time>
      </trkpt>
      <trkpt lat="45.92452" lon="4.73084">
        <ele>170</ele>
        <time>2018-05-09T10:56:10Z</time>
      </trkpt>
      <trkpt lat="45.92448" lon="4.73088">
        <ele>170</ele>
        <time>2018-05-09T10:56:11Z</time>
      </trkpt>
      <trkpt lat="45.92444" lon="4.73091">
        <ele>170</ele>
        <time>2018-05-09T10:56:12Z</time>
      </trkpt>
      <trkpt lat="45.92441" lon="4.73097">
        <ele>170</ele>
        <time>2018-05-09T10:56:13Z</time>
      </trkpt>
      <trkpt lat="45.92437" lon="4.73101">
        <ele>170</ele>
        <time>2018-05-09T10:56:14Z</time>
      </trkpt>
      <trkpt lat="45.92432" lon="4.73106">
        <ele>170</ele>
        <time>2018-05-09T10:56:15Z</time>
      </trkpt>
      <trkpt lat="45.92429" lon="4.7311">
        <ele>170</ele>
        <time>2018-05-09T10:56:16Z</time>
      </trkpt>
      <trkpt lat="45.92424" lon="4.73114">
        <ele>170</ele>
        <time>2018-05-09T10:56:17Z</time>
      </trkpt>
      <trkpt lat="45.9242" lon="4.73117">
        <ele>170</ele>
        <time>2018-05-09T10:56:18Z</time>
      </trkpt>
      <trkpt lat="45.92416" lon="4.73121">
        <ele>171</ele>
        <time>2018-05-09T10:56:19Z</time>
      </trkpt>
      <trkpt lat="45.92413" lon="4.73127">
        <ele>171</ele>
        <time>2018-05-09T10:56:20Z</time>
      </trkpt>
      <trkpt lat="45.9241" lon="4.73134">
        <ele>171</ele>
        <time>2018-05-09T10:56:21Z</time>
      </trkpt>
      <trkpt lat="45.9241" lon="4.73141">
        <ele>171</ele>
        <time>2018-05-09T10:56:22Z</time>
      </trkpt>
      <trkpt lat="45.92409" lon="4.73148">
        <ele>171</ele>
        <time>2018-05-09T10:56:23Z</time>
      </trkpt>
      <trkpt lat="45.92409" lon="4.73157">
        <ele>170</ele>
        <time>2018-05-09T10:56:24Z</time>
      </trkpt>
      <trkpt lat="45.92409" lon="4.73165">
        <ele>170</ele>
        <time>2018-05-09T10:56:25Z</time>
      </trkpt>
      <trkpt lat="45.92408" lon="4.73172">
        <ele>170</ele>
        <time>2018-05-09T10:56:26Z</time>
      </trkpt>
      <trkpt lat="45.92409" lon="4.73179">
        <ele>171</ele>
        <time>2018-05-09T10:56:27Z</time>
      </trkpt>
      <trkpt lat="45.92409" lon="4.73187">
        <ele>171</ele>
        <time>2018-05-09T10:56:28Z</time>
      </trkpt>
      <trkpt lat="45.92409" lon="4.73194">
        <ele>171</ele>
        <time>2018-05-09T10:56:29Z</time>
      </trkpt>
      <trkpt lat="45.9241" lon="4.73201">
        <ele>171</ele>
        <time>2018-05-09T10:56:30Z</time>
      </trkpt>
      <trkpt lat="45.92411" lon="4.73208">
        <ele>171</ele>
        <time>2018-05-09T10:56:31Z</time>
      </trkpt>
      <trkpt lat="45.92412" lon="4.73216">
        <ele>171</ele>
        <time>2018-05-09T10:56:32Z</time>
      </trkpt>
      <trkpt lat="45.92412" lon="4.73222">
        <ele>171</ele>
        <time>2018-05-09T10:56:33Z</time>
      </trkpt>
      <trkpt lat="45.92412" lon="4.7323">
        <ele>171</ele>
        <time>2018-05-09T10:56:34Z</time>
      </trkpt>
      <trkpt lat="45.92412" lon="4.73238">
        <ele>171</ele>
        <time>2018-05-09T10:56:35Z</time>
      </trkpt>
      <trkpt lat="45.92412" lon="4.73245">
        <ele>171</ele>
        <time>2018-05-09T10:56:36Z</time>
      </trkpt>
      <trkpt lat="45.92413" lon="4.73253">
        <ele>171</ele>
        <time>2018-05-09T10:56:37Z</time>
      </trkpt>
      <trkpt lat="45.92413" lon="4.73261">
        <ele>171</ele>
        <time>2018-05-09T10:56:38Z</time>
      </trkpt>
      <trkpt lat="45.92414" lon="4.73269">
        <ele>171</ele>
        <time>2018-05-09T10:56:39Z</time>
      </trkpt>
      <trkpt lat="45.92414" lon="4.73276">
        <ele>171</ele>
        <time>2018-05-09T10:56:40Z</time>
      </trkpt>
      <trkpt lat="45.92415" lon="4.73284">
        <ele>171</ele>
        <time>2018-05-09T10:56:41Z</time>
      </trkpt>
      <trkpt lat="45.92415" lon="4.73292">
        <ele>171</ele>
        <time>2018-05-09T10:56:42Z</time>
      </trkpt>
      <trkpt lat="45.92416" lon="4.73299">
        <ele>171</ele>
        <time>2018-05-09T10:56:43Z</time>
      </trkpt>
      <trkpt lat="45.92417" lon="4.73306">
        <ele>171</ele>
        <time>2018-05-09T10:56:44Z</time>
      </trkpt>
      <trkpt lat="45.92417" lon="4.73313">
        <ele>171</ele>
        <time>2018-05-09T10:56:45Z</time>
      </trkpt>
      <trkpt lat="45.92418" lon="4.7332">
        <ele>171</ele>
        <time>2018-05-09T10:56:46Z</time>
      </trkpt>
      <trkpt lat="45.92419" lon="4.73327">
        <ele>171</ele>
        <time>2018-05-09T10:56:47Z</time>
      </trkpt>
      <trkpt lat="45.9242" lon="4.73335">
        <ele>171</ele>
        <time>2018-05-09T10:56:48Z</time>
      </trkpt>
      <trkpt lat="45.92421" lon="4.73342">
        <ele>171</ele>
        <time>2018-05-09T10:56:49Z</time>
      </trkpt>
      <trkpt lat="45.92422" lon="4.7335">
        <ele>171</ele>
        <time>2018-05-09T10:56:50Z</time>
      </trkpt>
      <trkpt lat="45.92424" lon="4.73358">
        <ele>171</ele>
        <time>2018-05-09T10:56:51Z</time>
      </trkpt>
      <trkpt lat="45.92425" lon="4.73366">
        <ele>172</ele>
        <time>2018-05-09T10:56:52Z</time>
      </trkpt>
      <trkpt lat="45.92426" lon="4.73374">
        <ele>172</ele>
        <time>2018-05-09T10:56:53Z</time>
      </trkpt>
      <trkpt lat="45.92427" lon="4.73381">
        <ele>172</ele>
        <time>2018-05-09T10:56:54Z</time>
      </trkpt>
      <trkpt lat="45.92428" lon="4.73389">
        <ele>172</ele>
        <time>2018-05-09T10:56:55Z</time>
      </trkpt>
      <trkpt lat="45.9243" lon="4.73396">
        <ele>172</ele>
        <time>2018-05-09T10:56:56Z</time>
      </trkpt>
      <trkpt lat="45.92432" lon="4.73404">
        <ele>172</ele>
        <time>2018-05-09T10:56:57Z</time>
      </trkpt>
      <trkpt lat="45.92435" lon="4.73409">
        <ele>172</ele>
        <time>2018-05-09T10:56:58Z</time>
      </trkpt>
      <trkpt lat="45.92441" lon="4.73418">
        <ele>173</ele>
        <time>2018-05-09T10:57:00Z</time>
      </trkpt>
      <trkpt lat="45.92444" lon="4.73421">
        <ele>173</ele>
        <time>2018-05-09T10:57:01Z</time>
      </trkpt>
      <trkpt lat="45.92452" lon="4.73428">
        <ele>173</ele>
        <time>2018-05-09T10:57:03Z</time>
      </trkpt>
      <trkpt lat="45.92456" lon="4.73433">
        <ele>173</ele>
        <time>2018-05-09T10:57:04Z</time>
      </trkpt>
      <trkpt lat="45.92459" lon="4.73439">
        <ele>173</ele>
        <time>2018-05-09T10:57:05Z</time>
      </trkpt>
      <trkpt lat="45.92462" lon="4.73444">
        <ele>173</ele>
        <time>2018-05-09T10:57:06Z</time>
      </trkpt>
      <trkpt lat="45.92465" lon="4.73452">
        <ele>173</ele>
        <time>2018-05-09T10:57:07Z</time>
      </trkpt>
      <trkpt lat="45.92467" lon="4.73458">
        <ele>173</ele>
        <time>2018-05-09T10:57:08Z</time>
      </trkpt>
      <trkpt lat="45.92468" lon="4.73466">
        <ele>173</ele>
        <time>2018-05-09T10:57:09Z</time>
      </trkpt>
      <trkpt lat="45.92469" lon="4.73473">
        <ele>173</ele>
        <time>2018-05-09T10:57:10Z</time>
      </trkpt>
      <trkpt lat="45.92468" lon="4.73483">
        <ele>173</ele>
        <time>2018-05-09T10:57:11Z</time>
      </trkpt>
      <trkpt lat="45.92468" lon="4.73491">
        <ele>173</ele>
        <time>2018-05-09T10:57:12Z</time>
      </trkpt>
      <trkpt lat="45.92468" lon="4.73499">
        <ele>173</ele>
        <time>2018-05-09T10:57:13Z</time>
      </trkpt>
      <trkpt lat="45.92469" lon="4.73507">
        <ele>174</ele>
        <time>2018-05-09T10:57:14Z</time>
      </trkpt>
      <trkpt lat="45.92469" lon="4.73514">
        <ele>174</ele>
        <time>2018-05-09T10:57:15Z</time>
      </trkpt>
      <trkpt lat="45.92468" lon="4.73521">
        <ele>174</ele>
        <time>2018-05-09T10:57:16Z</time>
      </trkpt>
      <trkpt lat="45.92468" lon="4.73529">
        <ele>174</ele>
        <time>2018-05-09T10:57:17Z</time>
      </trkpt>
      <trkpt lat="45.92468" lon="4.73535">
        <ele>174</ele>
        <time>2018-05-09T10:57:18Z</time>
      </trkpt>
      <trkpt lat="45.92467" lon="4.73542">
        <ele>173</ele>
        <time>2018-05-09T10:57:19Z</time>
      </trkpt>
      <trkpt lat="45.92467" lon="4.73549">
        <ele>173</ele>
        <time>2018-05-09T10:57:20Z</time>
      </trkpt>
      <trkpt lat="45.92468" lon="4.73558">
        <ele>173</ele>
        <time>2018-05-09T10:57:21Z</time>
      </trkpt>
      <trkpt lat="45.92468" lon="4.73566">
        <ele>173</ele>
        <time>2018-05-09T10:57:22Z</time>
      </trkpt>
      <trkpt lat="45.92469" lon="4.73575">
        <ele>173</ele>
        <time>2018-05-09T10:57:23Z</time>
      </trkpt>
      <trkpt lat="45.92469" lon="4.73584">
        <ele>174</ele>
        <time>2018-05-09T10:57:24Z</time>
      </trkpt>
      <trkpt lat="45.9247" lon="4.73592">
        <ele>174</ele>
        <time>2018-05-09T10:57:25Z</time>
      </trkpt>
      <trkpt lat="45.9247" lon="4.73601">
        <ele>174</ele>
        <time>2018-05-09T10:57:26Z</time>
      </trkpt>
      <trkpt lat="45.9247" lon="4.7361">
        <ele>174</ele>
        <time>2018-05-09T10:57:27Z</time>
      </trkpt>
      <trkpt lat="45.92471" lon="4.73619">
        <ele>174</ele>
        <time>2018-05-09T10:57:28Z</time>
      </trkpt>
      <trkpt lat="45.92469" lon="4.73624">
        <ele>174</ele>
        <time>2018-05-09T10:57:29Z</time>
      </trkpt>
      <trkpt lat="45.92469" lon="4.73633">
        <ele>174</ele>
        <time>2018-05-09T10:57:30Z</time>
      </trkpt>
      <trkpt lat="45.92469" lon="4.73641">
        <ele>174</ele>
        <time>2018-05-09T10:57:31Z</time>
      </trkpt>
      <trkpt lat="45.92469" lon="4.7365">
        <ele>174</ele>
        <time>2018-05-09T10:57:32Z</time>
      </trkpt>
      <trkpt lat="45.92466" lon="4.73657">
        <ele>174</ele>
        <time>2018-05-09T10:57:33Z</time>
      </trkpt>
      <trkpt lat="45.92465" lon="4.73665">
        <ele>174</ele>
        <time>2018-05-09T10:57:34Z</time>
      </trkpt>
      <trkpt lat="45.92465" lon="4.73672">
        <ele>174</ele>
        <time>2018-05-09T10:57:35Z</time>
      </trkpt>
      <trkpt lat="45.92464" lon="4.7368">
        <ele>174</ele>
        <time>2018-05-09T10:57:36Z</time>
      </trkpt>
      <trkpt lat="45.92463" lon="4.73692">
        <ele>174</ele>
        <time>2018-05-09T10:57:38Z</time>
      </trkpt>
      <trkpt lat="45.92462" lon="4.73698">
        <ele>174</ele>
        <time>2018-05-09T10:57:39Z</time>
      </trkpt>
      <trkpt lat="45.92459" lon="4.73706">
        <ele>174</ele>
        <time>2018-05-09T10:58:12.892Z</time>
      </trkpt>
    </trkseg>
  </trk>
</gpx>